<?xml version="1.0" encoding="UTF-8" standalone="no" ?>
<gpx xmlns="http://www.topografix.com/GPX/1/1" xmlns:xsi="http://www.w3.org/2001/XMLSchema-instance" xsi:schemaLocation="http://www.topografix.com/GPX/1/1 http://www.topografix.com/GPX/1/1/gpx.xsd" version="1.1" creator="VisuGPX - https://www.visugpx.com">
  <metadata>
    <name>Vrigne aux Bois</name>
  </metadata>
  <trk>
    <name><![CDATA[Vrigne aux Bois_1]]></name>
    <trkseg>
      <trkpt lat="49.75196" lon="4.81858">
        <ele>198</ele>
        <time>2020-10-31T08:46:45.000Z</time>
      </trkpt>
      <trkpt lat="49.75194" lon="4.81855">
        <ele>198</ele>
        <time>2020-10-31T08:46:46.000Z</time>
      </trkpt>
      <trkpt lat="49.75193" lon="4.81853">
        <ele>198</ele>
        <time>2020-10-31T08:46:47.000Z</time>
      </trkpt>
      <trkpt lat="49.7519" lon="4.81849">
        <ele>198</ele>
        <time>2020-10-31T08:46:48.000Z</time>
      </trkpt>
      <trkpt lat="49.75188" lon="4.81845">
        <ele>198</ele>
        <time>2020-10-31T08:46:49.000Z</time>
      </trkpt>
      <trkpt lat="49.75185" lon="4.8184">
        <ele>198</ele>
        <time>2020-10-31T08:46:50.000Z</time>
      </trkpt>
      <trkpt lat="49.75182" lon="4.81835">
        <ele>198</ele>
        <time>2020-10-31T08:46:51.000Z</time>
      </trkpt>
      <trkpt lat="49.75179" lon="4.81829">
        <ele>198</ele>
        <time>2020-10-31T08:46:52.000Z</time>
      </trkpt>
      <trkpt lat="49.75176" lon="4.81824">
        <ele>198</ele>
        <time>2020-10-31T08:46:53.000Z</time>
      </trkpt>
      <trkpt lat="49.75173" lon="4.81819">
        <ele>198</ele>
        <time>2020-10-31T08:46:54.000Z</time>
      </trkpt>
      <trkpt lat="49.7517" lon="4.81814">
        <ele>198</ele>
        <time>2020-10-31T08:46:55.000Z</time>
      </trkpt>
      <trkpt lat="49.75167" lon="4.8181">
        <ele>198</ele>
        <time>2020-10-31T08:46:56.000Z</time>
      </trkpt>
      <trkpt lat="49.75165" lon="4.81805">
        <ele>199</ele>
        <time>2020-10-31T08:46:57.000Z</time>
      </trkpt>
      <trkpt lat="49.75162" lon="4.818">
        <ele>199</ele>
        <time>2020-10-31T08:46:58.000Z</time>
      </trkpt>
      <trkpt lat="49.75159" lon="4.81795">
        <ele>199</ele>
        <time>2020-10-31T08:46:59.000Z</time>
      </trkpt>
      <trkpt lat="49.75156" lon="4.8179">
        <ele>199</ele>
        <time>2020-10-31T08:47:00.000Z</time>
      </trkpt>
      <trkpt lat="49.75153" lon="4.81784">
        <ele>199</ele>
        <time>2020-10-31T08:47:01.000Z</time>
      </trkpt>
      <trkpt lat="49.75149" lon="4.81778">
        <ele>199</ele>
        <time>2020-10-31T08:47:02.000Z</time>
      </trkpt>
      <trkpt lat="49.75146" lon="4.81772">
        <ele>199</ele>
        <time>2020-10-31T08:47:03.000Z</time>
      </trkpt>
      <trkpt lat="49.75142" lon="4.81767">
        <ele>198</ele>
        <time>2020-10-31T08:47:04.000Z</time>
      </trkpt>
      <trkpt lat="49.75139" lon="4.8176">
        <ele>198</ele>
        <time>2020-10-31T08:47:05.000Z</time>
      </trkpt>
      <trkpt lat="49.75137" lon="4.81753">
        <ele>198</ele>
        <time>2020-10-31T08:47:06.000Z</time>
      </trkpt>
      <trkpt lat="49.75134" lon="4.81746">
        <ele>198</ele>
        <time>2020-10-31T08:47:07.000Z</time>
      </trkpt>
      <trkpt lat="49.75132" lon="4.8174">
        <ele>198</ele>
        <time>2020-10-31T08:47:08.000Z</time>
      </trkpt>
      <trkpt lat="49.7513" lon="4.81733">
        <ele>199</ele>
        <time>2020-10-31T08:47:09.000Z</time>
      </trkpt>
      <trkpt lat="49.75127" lon="4.81727">
        <ele>199</ele>
        <time>2020-10-31T08:47:10.000Z</time>
      </trkpt>
      <trkpt lat="49.75125" lon="4.8172">
        <ele>199</ele>
        <time>2020-10-31T08:47:11.000Z</time>
      </trkpt>
      <trkpt lat="49.75122" lon="4.81714">
        <ele>199</ele>
        <time>2020-10-31T08:47:12.000Z</time>
      </trkpt>
      <trkpt lat="49.7512" lon="4.81707">
        <ele>200</ele>
        <time>2020-10-31T08:47:13.000Z</time>
      </trkpt>
      <trkpt lat="49.75118" lon="4.81701">
        <ele>200</ele>
        <time>2020-10-31T08:47:14.000Z</time>
      </trkpt>
      <trkpt lat="49.75116" lon="4.81694">
        <ele>200</ele>
        <time>2020-10-31T08:47:15.000Z</time>
      </trkpt>
      <trkpt lat="49.75114" lon="4.81687">
        <ele>200</ele>
        <time>2020-10-31T08:47:16.000Z</time>
      </trkpt>
      <trkpt lat="49.75113" lon="4.81679">
        <ele>201</ele>
        <time>2020-10-31T08:47:17.000Z</time>
      </trkpt>
      <trkpt lat="49.75112" lon="4.81672">
        <ele>201</ele>
        <time>2020-10-31T08:47:18.000Z</time>
      </trkpt>
      <trkpt lat="49.75112" lon="4.81664">
        <ele>201</ele>
        <time>2020-10-31T08:47:19.000Z</time>
      </trkpt>
      <trkpt lat="49.75111" lon="4.81657">
        <ele>201</ele>
        <time>2020-10-31T08:47:20.000Z</time>
      </trkpt>
      <trkpt lat="49.75111" lon="4.81649">
        <ele>201</ele>
        <time>2020-10-31T08:47:21.000Z</time>
      </trkpt>
      <trkpt lat="49.7511" lon="4.81641">
        <ele>201</ele>
        <time>2020-10-31T08:47:22.000Z</time>
      </trkpt>
      <trkpt lat="49.7511" lon="4.81633">
        <ele>202</ele>
        <time>2020-10-31T08:47:23.000Z</time>
      </trkpt>
      <trkpt lat="49.7511" lon="4.81625">
        <ele>202</ele>
        <time>2020-10-31T08:47:24.000Z</time>
      </trkpt>
      <trkpt lat="49.7511" lon="4.81617">
        <ele>202</ele>
        <time>2020-10-31T08:47:25.000Z</time>
      </trkpt>
      <trkpt lat="49.7511" lon="4.81609">
        <ele>202</ele>
        <time>2020-10-31T08:47:26.000Z</time>
      </trkpt>
      <trkpt lat="49.75111" lon="4.81602">
        <ele>202</ele>
        <time>2020-10-31T08:47:27.000Z</time>
      </trkpt>
      <trkpt lat="49.75111" lon="4.81594">
        <ele>202</ele>
        <time>2020-10-31T08:47:28.000Z</time>
      </trkpt>
      <trkpt lat="49.75111" lon="4.81586">
        <ele>203</ele>
        <time>2020-10-31T08:47:29.000Z</time>
      </trkpt>
      <trkpt lat="49.75111" lon="4.81578">
        <ele>203</ele>
        <time>2020-10-31T08:47:30.000Z</time>
      </trkpt>
      <trkpt lat="49.75112" lon="4.8157">
        <ele>203</ele>
        <time>2020-10-31T08:47:31.000Z</time>
      </trkpt>
      <trkpt lat="49.75113" lon="4.81562">
        <ele>203</ele>
        <time>2020-10-31T08:47:32.000Z</time>
      </trkpt>
      <trkpt lat="49.75114" lon="4.81554">
        <ele>203</ele>
        <time>2020-10-31T08:47:33.000Z</time>
      </trkpt>
      <trkpt lat="49.75115" lon="4.81546">
        <ele>203</ele>
        <time>2020-10-31T08:47:34.000Z</time>
      </trkpt>
      <trkpt lat="49.75116" lon="4.81538">
        <ele>203</ele>
        <time>2020-10-31T08:47:35.000Z</time>
      </trkpt>
      <trkpt lat="49.75116" lon="4.8153">
        <ele>203</ele>
        <time>2020-10-31T08:47:36.000Z</time>
      </trkpt>
      <trkpt lat="49.75118" lon="4.81523">
        <ele>203</ele>
        <time>2020-10-31T08:47:37.000Z</time>
      </trkpt>
      <trkpt lat="49.75119" lon="4.81516">
        <ele>203</ele>
        <time>2020-10-31T08:47:38.000Z</time>
      </trkpt>
      <trkpt lat="49.75121" lon="4.81508">
        <ele>203</ele>
        <time>2020-10-31T08:47:39.000Z</time>
      </trkpt>
      <trkpt lat="49.75122" lon="4.81501">
        <ele>203</ele>
        <time>2020-10-31T08:47:40.000Z</time>
      </trkpt>
      <trkpt lat="49.75124" lon="4.81494">
        <ele>204</ele>
        <time>2020-10-31T08:47:41.000Z</time>
      </trkpt>
      <trkpt lat="49.75126" lon="4.81488">
        <ele>204</ele>
        <time>2020-10-31T08:47:42.000Z</time>
      </trkpt>
      <trkpt lat="49.75128" lon="4.81482">
        <ele>204</ele>
        <time>2020-10-31T08:47:43.000Z</time>
      </trkpt>
      <trkpt lat="49.7513" lon="4.81476">
        <ele>204</ele>
        <time>2020-10-31T08:47:44.000Z</time>
      </trkpt>
      <trkpt lat="49.75132" lon="4.81471">
        <ele>204</ele>
        <time>2020-10-31T08:47:45.000Z</time>
      </trkpt>
      <trkpt lat="49.75134" lon="4.81465">
        <ele>204</ele>
        <time>2020-10-31T08:47:46.000Z</time>
      </trkpt>
      <trkpt lat="49.75135" lon="4.8146">
        <ele>204</ele>
        <time>2020-10-31T08:47:47.000Z</time>
      </trkpt>
      <trkpt lat="49.75137" lon="4.81454">
        <ele>204</ele>
        <time>2020-10-31T08:47:48.000Z</time>
      </trkpt>
      <trkpt lat="49.75138" lon="4.81449">
        <ele>204</ele>
        <time>2020-10-31T08:47:49.000Z</time>
      </trkpt>
      <trkpt lat="49.75139" lon="4.81444">
        <ele>205</ele>
        <time>2020-10-31T08:47:50.000Z</time>
      </trkpt>
      <trkpt lat="49.7514" lon="4.81439">
        <ele>205</ele>
        <time>2020-10-31T08:47:51.000Z</time>
      </trkpt>
      <trkpt lat="49.75141" lon="4.81433">
        <ele>205</ele>
        <time>2020-10-31T08:47:52.000Z</time>
      </trkpt>
      <trkpt lat="49.75142" lon="4.81428">
        <ele>205</ele>
        <time>2020-10-31T08:47:53.000Z</time>
      </trkpt>
      <trkpt lat="49.75143" lon="4.81423">
        <ele>205</ele>
        <time>2020-10-31T08:47:54.000Z</time>
      </trkpt>
      <trkpt lat="49.75143" lon="4.81418">
        <ele>205</ele>
        <time>2020-10-31T08:47:55.000Z</time>
      </trkpt>
      <trkpt lat="49.75144" lon="4.81413">
        <ele>205</ele>
        <time>2020-10-31T08:47:56.000Z</time>
      </trkpt>
      <trkpt lat="49.75144" lon="4.81408">
        <ele>205</ele>
        <time>2020-10-31T08:47:57.000Z</time>
      </trkpt>
      <trkpt lat="49.75145" lon="4.81404">
        <ele>205</ele>
        <time>2020-10-31T08:47:58.000Z</time>
      </trkpt>
      <trkpt lat="49.75145" lon="4.81399">
        <ele>206</ele>
        <time>2020-10-31T08:47:59.000Z</time>
      </trkpt>
      <trkpt lat="49.75145" lon="4.81394">
        <ele>206</ele>
        <time>2020-10-31T08:48:00.000Z</time>
      </trkpt>
      <trkpt lat="49.75146" lon="4.8139">
        <ele>206</ele>
        <time>2020-10-31T08:48:01.000Z</time>
      </trkpt>
      <trkpt lat="49.75146" lon="4.81385">
        <ele>206</ele>
        <time>2020-10-31T08:48:02.000Z</time>
      </trkpt>
      <trkpt lat="49.75146" lon="4.8138">
        <ele>206</ele>
        <time>2020-10-31T08:48:03.000Z</time>
      </trkpt>
      <trkpt lat="49.75146" lon="4.81376">
        <ele>206</ele>
        <time>2020-10-31T08:48:04.000Z</time>
      </trkpt>
      <trkpt lat="49.75146" lon="4.81372">
        <ele>207</ele>
        <time>2020-10-31T08:48:05.000Z</time>
      </trkpt>
      <trkpt lat="49.75146" lon="4.81367">
        <ele>207</ele>
        <time>2020-10-31T08:48:06.000Z</time>
      </trkpt>
      <trkpt lat="49.75147" lon="4.81363">
        <ele>207</ele>
        <time>2020-10-31T08:48:07.000Z</time>
      </trkpt>
      <trkpt lat="49.75147" lon="4.81359">
        <ele>208</ele>
        <time>2020-10-31T08:48:08.000Z</time>
      </trkpt>
      <trkpt lat="49.75147" lon="4.81354">
        <ele>208</ele>
        <time>2020-10-31T08:48:09.000Z</time>
      </trkpt>
      <trkpt lat="49.75147" lon="4.8135">
        <ele>208</ele>
        <time>2020-10-31T08:48:10.000Z</time>
      </trkpt>
      <trkpt lat="49.75148" lon="4.81346">
        <ele>208</ele>
        <time>2020-10-31T08:48:11.000Z</time>
      </trkpt>
      <trkpt lat="49.75148" lon="4.81342">
        <ele>208</ele>
        <time>2020-10-31T08:48:12.000Z</time>
      </trkpt>
      <trkpt lat="49.75148" lon="4.81338">
        <ele>208</ele>
        <time>2020-10-31T08:48:13.000Z</time>
      </trkpt>
      <trkpt lat="49.75148" lon="4.81334">
        <ele>209</ele>
        <time>2020-10-31T08:48:14.000Z</time>
      </trkpt>
      <trkpt lat="49.75148" lon="4.8133">
        <ele>209</ele>
        <time>2020-10-31T08:48:15.000Z</time>
      </trkpt>
      <trkpt lat="49.75147" lon="4.81325">
        <ele>209</ele>
        <time>2020-10-31T08:48:16.000Z</time>
      </trkpt>
      <trkpt lat="49.75147" lon="4.81321">
        <ele>209</ele>
        <time>2020-10-31T08:48:17.000Z</time>
      </trkpt>
      <trkpt lat="49.75147" lon="4.81317">
        <ele>209</ele>
        <time>2020-10-31T08:48:18.000Z</time>
      </trkpt>
      <trkpt lat="49.75146" lon="4.81313">
        <ele>209</ele>
        <time>2020-10-31T08:48:19.000Z</time>
      </trkpt>
      <trkpt lat="49.75146" lon="4.81308">
        <ele>209</ele>
        <time>2020-10-31T08:48:20.000Z</time>
      </trkpt>
      <trkpt lat="49.75145" lon="4.81304">
        <ele>210</ele>
        <time>2020-10-31T08:48:21.000Z</time>
      </trkpt>
      <trkpt lat="49.75144" lon="4.813">
        <ele>210</ele>
        <time>2020-10-31T08:48:22.000Z</time>
      </trkpt>
      <trkpt lat="49.75143" lon="4.81295">
        <ele>210</ele>
        <time>2020-10-31T08:48:23.000Z</time>
      </trkpt>
      <trkpt lat="49.75142" lon="4.81291">
        <ele>210</ele>
        <time>2020-10-31T08:48:24.000Z</time>
      </trkpt>
      <trkpt lat="49.75141" lon="4.81287">
        <ele>211</ele>
        <time>2020-10-31T08:48:25.000Z</time>
      </trkpt>
      <trkpt lat="49.7514" lon="4.81282">
        <ele>211</ele>
        <time>2020-10-31T08:48:26.000Z</time>
      </trkpt>
      <trkpt lat="49.75139" lon="4.81278">
        <ele>211</ele>
        <time>2020-10-31T08:48:27.000Z</time>
      </trkpt>
      <trkpt lat="49.75138" lon="4.81273">
        <ele>211</ele>
        <time>2020-10-31T08:48:28.000Z</time>
      </trkpt>
      <trkpt lat="49.75137" lon="4.81268">
        <ele>212</ele>
        <time>2020-10-31T08:48:29.000Z</time>
      </trkpt>
      <trkpt lat="49.75136" lon="4.81264">
        <ele>212</ele>
        <time>2020-10-31T08:48:30.000Z</time>
      </trkpt>
      <trkpt lat="49.75135" lon="4.8126">
        <ele>212</ele>
        <time>2020-10-31T08:48:31.000Z</time>
      </trkpt>
      <trkpt lat="49.75134" lon="4.81255">
        <ele>212</ele>
        <time>2020-10-31T08:48:32.000Z</time>
      </trkpt>
      <trkpt lat="49.75133" lon="4.81251">
        <ele>212</ele>
        <time>2020-10-31T08:48:33.000Z</time>
      </trkpt>
      <trkpt lat="49.75132" lon="4.81247">
        <ele>213</ele>
        <time>2020-10-31T08:48:34.000Z</time>
      </trkpt>
      <trkpt lat="49.75131" lon="4.81243">
        <ele>213</ele>
        <time>2020-10-31T08:48:35.000Z</time>
      </trkpt>
      <trkpt lat="49.7513" lon="4.81239">
        <ele>213</ele>
        <time>2020-10-31T08:48:36.000Z</time>
      </trkpt>
      <trkpt lat="49.75129" lon="4.81235">
        <ele>213</ele>
        <time>2020-10-31T08:48:37.000Z</time>
      </trkpt>
      <trkpt lat="49.75128" lon="4.81232">
        <ele>213</ele>
        <time>2020-10-31T08:48:38.000Z</time>
      </trkpt>
      <trkpt lat="49.75127" lon="4.81228">
        <ele>213</ele>
        <time>2020-10-31T08:48:39.000Z</time>
      </trkpt>
      <trkpt lat="49.75126" lon="4.81225">
        <ele>213</ele>
        <time>2020-10-31T08:48:40.000Z</time>
      </trkpt>
      <trkpt lat="49.75126" lon="4.81221">
        <ele>213</ele>
        <time>2020-10-31T08:48:41.000Z</time>
      </trkpt>
      <trkpt lat="49.75126" lon="4.81218">
        <ele>213</ele>
        <time>2020-10-31T08:48:42.000Z</time>
      </trkpt>
      <trkpt lat="49.75125" lon="4.81214">
        <ele>214</ele>
        <time>2020-10-31T08:48:43.000Z</time>
      </trkpt>
      <trkpt lat="49.75124" lon="4.8121">
        <ele>214</ele>
        <time>2020-10-31T08:48:44.000Z</time>
      </trkpt>
      <trkpt lat="49.75123" lon="4.81206">
        <ele>214</ele>
        <time>2020-10-31T08:48:45.000Z</time>
      </trkpt>
      <trkpt lat="49.75123" lon="4.81202">
        <ele>214</ele>
        <time>2020-10-31T08:48:46.000Z</time>
      </trkpt>
      <trkpt lat="49.75122" lon="4.81198">
        <ele>214</ele>
        <time>2020-10-31T08:48:47.000Z</time>
      </trkpt>
      <trkpt lat="49.75121" lon="4.81194">
        <ele>215</ele>
        <time>2020-10-31T08:48:48.000Z</time>
      </trkpt>
      <trkpt lat="49.75121" lon="4.8119">
        <ele>215</ele>
        <time>2020-10-31T08:48:49.000Z</time>
      </trkpt>
      <trkpt lat="49.7512" lon="4.81186">
        <ele>215</ele>
        <time>2020-10-31T08:48:50.000Z</time>
      </trkpt>
      <trkpt lat="49.7512" lon="4.81182">
        <ele>215</ele>
        <time>2020-10-31T08:48:51.000Z</time>
      </trkpt>
      <trkpt lat="49.75119" lon="4.81177">
        <ele>215</ele>
        <time>2020-10-31T08:48:52.000Z</time>
      </trkpt>
      <trkpt lat="49.75119" lon="4.81173">
        <ele>216</ele>
        <time>2020-10-31T08:48:53.000Z</time>
      </trkpt>
      <trkpt lat="49.75118" lon="4.81168">
        <ele>216</ele>
        <time>2020-10-31T08:48:54.000Z</time>
      </trkpt>
      <trkpt lat="49.75117" lon="4.81164">
        <ele>216</ele>
        <time>2020-10-31T08:48:55.000Z</time>
      </trkpt>
      <trkpt lat="49.75116" lon="4.81159">
        <ele>217</ele>
        <time>2020-10-31T08:48:56.000Z</time>
      </trkpt>
      <trkpt lat="49.75116" lon="4.81154">
        <ele>217</ele>
        <time>2020-10-31T08:48:57.000Z</time>
      </trkpt>
      <trkpt lat="49.75114" lon="4.81149">
        <ele>217</ele>
        <time>2020-10-31T08:48:58.000Z</time>
      </trkpt>
      <trkpt lat="49.75113" lon="4.81144">
        <ele>217</ele>
        <time>2020-10-31T08:48:59.000Z</time>
      </trkpt>
      <trkpt lat="49.75112" lon="4.81138">
        <ele>218</ele>
        <time>2020-10-31T08:49:00.000Z</time>
      </trkpt>
      <trkpt lat="49.7511" lon="4.81133">
        <ele>218</ele>
        <time>2020-10-31T08:49:01.000Z</time>
      </trkpt>
      <trkpt lat="49.75109" lon="4.81128">
        <ele>218</ele>
        <time>2020-10-31T08:49:02.000Z</time>
      </trkpt>
      <trkpt lat="49.75107" lon="4.81123">
        <ele>218</ele>
        <time>2020-10-31T08:49:03.000Z</time>
      </trkpt>
      <trkpt lat="49.75105" lon="4.81118">
        <ele>219</ele>
        <time>2020-10-31T08:49:04.000Z</time>
      </trkpt>
      <trkpt lat="49.75104" lon="4.81113">
        <ele>219</ele>
        <time>2020-10-31T08:49:05.000Z</time>
      </trkpt>
      <trkpt lat="49.75103" lon="4.81108">
        <ele>219</ele>
        <time>2020-10-31T08:49:06.000Z</time>
      </trkpt>
      <trkpt lat="49.75101" lon="4.81102">
        <ele>219</ele>
        <time>2020-10-31T08:49:07.000Z</time>
      </trkpt>
      <trkpt lat="49.751" lon="4.81097">
        <ele>220</ele>
        <time>2020-10-31T08:49:08.000Z</time>
      </trkpt>
      <trkpt lat="49.75099" lon="4.81092">
        <ele>220</ele>
        <time>2020-10-31T08:49:09.000Z</time>
      </trkpt>
      <trkpt lat="49.75097" lon="4.81087">
        <ele>220</ele>
        <time>2020-10-31T08:49:10.000Z</time>
      </trkpt>
      <trkpt lat="49.75096" lon="4.81081">
        <ele>220</ele>
        <time>2020-10-31T08:49:11.000Z</time>
      </trkpt>
      <trkpt lat="49.75094" lon="4.81075">
        <ele>221</ele>
        <time>2020-10-31T08:49:12.000Z</time>
      </trkpt>
      <trkpt lat="49.75093" lon="4.81069">
        <ele>221</ele>
        <time>2020-10-31T08:49:13.000Z</time>
      </trkpt>
      <trkpt lat="49.75091" lon="4.81063">
        <ele>221</ele>
        <time>2020-10-31T08:49:14.000Z</time>
      </trkpt>
      <trkpt lat="49.7509" lon="4.81056">
        <ele>221</ele>
        <time>2020-10-31T08:49:15.000Z</time>
      </trkpt>
      <trkpt lat="49.75088" lon="4.8105">
        <ele>221</ele>
        <time>2020-10-31T08:49:16.000Z</time>
      </trkpt>
      <trkpt lat="49.75087" lon="4.81043">
        <ele>222</ele>
        <time>2020-10-31T08:49:17.000Z</time>
      </trkpt>
      <trkpt lat="49.75085" lon="4.81036">
        <ele>222</ele>
        <time>2020-10-31T08:49:18.000Z</time>
      </trkpt>
      <trkpt lat="49.75084" lon="4.81029">
        <ele>222</ele>
        <time>2020-10-31T08:49:19.000Z</time>
      </trkpt>
      <trkpt lat="49.75082" lon="4.81021">
        <ele>222</ele>
        <time>2020-10-31T08:49:20.000Z</time>
      </trkpt>
      <trkpt lat="49.7508" lon="4.81014">
        <ele>222</ele>
        <time>2020-10-31T08:49:21.000Z</time>
      </trkpt>
      <trkpt lat="49.75078" lon="4.81008">
        <ele>222</ele>
        <time>2020-10-31T08:49:22.000Z</time>
      </trkpt>
      <trkpt lat="49.75076" lon="4.81002">
        <ele>222</ele>
        <time>2020-10-31T08:49:23.000Z</time>
      </trkpt>
      <trkpt lat="49.75074" lon="4.80996">
        <ele>222</ele>
        <time>2020-10-31T08:49:24.000Z</time>
      </trkpt>
      <trkpt lat="49.75072" lon="4.8099">
        <ele>222</ele>
        <time>2020-10-31T08:49:25.000Z</time>
      </trkpt>
      <trkpt lat="49.7507" lon="4.80983">
        <ele>222</ele>
        <time>2020-10-31T08:49:26.000Z</time>
      </trkpt>
      <trkpt lat="49.75067" lon="4.80976">
        <ele>222</ele>
        <time>2020-10-31T08:49:27.000Z</time>
      </trkpt>
      <trkpt lat="49.75065" lon="4.80969">
        <ele>223</ele>
        <time>2020-10-31T08:49:28.000Z</time>
      </trkpt>
      <trkpt lat="49.75063" lon="4.80962">
        <ele>223</ele>
        <time>2020-10-31T08:49:29.000Z</time>
      </trkpt>
      <trkpt lat="49.75061" lon="4.80955">
        <ele>223</ele>
        <time>2020-10-31T08:49:30.000Z</time>
      </trkpt>
      <trkpt lat="49.7506" lon="4.80947">
        <ele>223</ele>
        <time>2020-10-31T08:49:31.000Z</time>
      </trkpt>
      <trkpt lat="49.75059" lon="4.80939">
        <ele>223</ele>
        <time>2020-10-31T08:49:32.000Z</time>
      </trkpt>
      <trkpt lat="49.75058" lon="4.80931">
        <ele>223</ele>
        <time>2020-10-31T08:49:33.000Z</time>
      </trkpt>
      <trkpt lat="49.75057" lon="4.80922">
        <ele>223</ele>
        <time>2020-10-31T08:49:34.000Z</time>
      </trkpt>
      <trkpt lat="49.75057" lon="4.80912">
        <ele>223</ele>
        <time>2020-10-31T08:49:35.000Z</time>
      </trkpt>
      <trkpt lat="49.75056" lon="4.80902">
        <ele>223</ele>
        <time>2020-10-31T08:49:36.000Z</time>
      </trkpt>
      <trkpt lat="49.75056" lon="4.80891">
        <ele>222</ele>
        <time>2020-10-31T08:49:37.000Z</time>
      </trkpt>
      <trkpt lat="49.75055" lon="4.80879">
        <ele>222</ele>
        <time>2020-10-31T08:49:38.000Z</time>
      </trkpt>
      <trkpt lat="49.75056" lon="4.80867">
        <ele>222</ele>
        <time>2020-10-31T08:49:39.000Z</time>
      </trkpt>
      <trkpt lat="49.75056" lon="4.80855">
        <ele>222</ele>
        <time>2020-10-31T08:49:40.000Z</time>
      </trkpt>
      <trkpt lat="49.75057" lon="4.80842">
        <ele>221</ele>
        <time>2020-10-31T08:49:41.000Z</time>
      </trkpt>
      <trkpt lat="49.75057" lon="4.80829">
        <ele>221</ele>
        <time>2020-10-31T08:49:42.000Z</time>
      </trkpt>
      <trkpt lat="49.75059" lon="4.80814">
        <ele>221</ele>
        <time>2020-10-31T08:49:43.000Z</time>
      </trkpt>
      <trkpt lat="49.75061" lon="4.80799">
        <ele>220</ele>
        <time>2020-10-31T08:49:44.000Z</time>
      </trkpt>
      <trkpt lat="49.75063" lon="4.80784">
        <ele>220</ele>
        <time>2020-10-31T08:49:45.000Z</time>
      </trkpt>
      <trkpt lat="49.75066" lon="4.8077">
        <ele>219</ele>
        <time>2020-10-31T08:49:46.000Z</time>
      </trkpt>
      <trkpt lat="49.75069" lon="4.80756">
        <ele>218</ele>
        <time>2020-10-31T08:49:47.000Z</time>
      </trkpt>
      <trkpt lat="49.75073" lon="4.80742">
        <ele>218</ele>
        <time>2020-10-31T08:49:48.000Z</time>
      </trkpt>
      <trkpt lat="49.75078" lon="4.80729">
        <ele>217</ele>
        <time>2020-10-31T08:49:49.000Z</time>
      </trkpt>
      <trkpt lat="49.75084" lon="4.80719">
        <ele>216</ele>
        <time>2020-10-31T08:49:50.000Z</time>
      </trkpt>
      <trkpt lat="49.75091" lon="4.8071">
        <ele>215</ele>
        <time>2020-10-31T08:49:51.000Z</time>
      </trkpt>
      <trkpt lat="49.75099" lon="4.80702">
        <ele>214</ele>
        <time>2020-10-31T08:49:52.000Z</time>
      </trkpt>
      <trkpt lat="49.75107" lon="4.80696">
        <ele>213</ele>
        <time>2020-10-31T08:49:53.000Z</time>
      </trkpt>
      <trkpt lat="49.75115" lon="4.80692">
        <ele>212</ele>
        <time>2020-10-31T08:49:54.000Z</time>
      </trkpt>
      <trkpt lat="49.75123" lon="4.80689">
        <ele>211</ele>
        <time>2020-10-31T08:49:55.000Z</time>
      </trkpt>
      <trkpt lat="49.75131" lon="4.80687">
        <ele>210</ele>
        <time>2020-10-31T08:49:56.000Z</time>
      </trkpt>
      <trkpt lat="49.75139" lon="4.80687">
        <ele>210</ele>
        <time>2020-10-31T08:49:57.000Z</time>
      </trkpt>
      <trkpt lat="49.75146" lon="4.80687">
        <ele>209</ele>
        <time>2020-10-31T08:49:58.000Z</time>
      </trkpt>
      <trkpt lat="49.75153" lon="4.80687">
        <ele>209</ele>
        <time>2020-10-31T08:49:59.000Z</time>
      </trkpt>
      <trkpt lat="49.7516" lon="4.80687">
        <ele>209</ele>
        <time>2020-10-31T08:50:00.000Z</time>
      </trkpt>
      <trkpt lat="49.75167" lon="4.80687">
        <ele>208</ele>
        <time>2020-10-31T08:50:01.000Z</time>
      </trkpt>
      <trkpt lat="49.75173" lon="4.80687">
        <ele>208</ele>
        <time>2020-10-31T08:50:02.000Z</time>
      </trkpt>
      <trkpt lat="49.75179" lon="4.80686">
        <ele>208</ele>
        <time>2020-10-31T08:50:03.000Z</time>
      </trkpt>
      <trkpt lat="49.75185" lon="4.80686">
        <ele>208</ele>
        <time>2020-10-31T08:50:04.000Z</time>
      </trkpt>
      <trkpt lat="49.75191" lon="4.80685">
        <ele>208</ele>
        <time>2020-10-31T08:50:05.000Z</time>
      </trkpt>
      <trkpt lat="49.75196" lon="4.80685">
        <ele>208</ele>
        <time>2020-10-31T08:50:06.000Z</time>
      </trkpt>
      <trkpt lat="49.75202" lon="4.80685">
        <ele>208</ele>
        <time>2020-10-31T08:50:07.000Z</time>
      </trkpt>
      <trkpt lat="49.75208" lon="4.80685">
        <ele>207</ele>
        <time>2020-10-31T08:50:08.000Z</time>
      </trkpt>
      <trkpt lat="49.75214" lon="4.80685">
        <ele>207</ele>
        <time>2020-10-31T08:50:09.000Z</time>
      </trkpt>
      <trkpt lat="49.7522" lon="4.80685">
        <ele>207</ele>
        <time>2020-10-31T08:50:10.000Z</time>
      </trkpt>
      <trkpt lat="49.75225" lon="4.80685">
        <ele>207</ele>
        <time>2020-10-31T08:50:11.000Z</time>
      </trkpt>
      <trkpt lat="49.75229" lon="4.80686">
        <ele>207</ele>
        <time>2020-10-31T08:50:12.000Z</time>
      </trkpt>
      <trkpt lat="49.75234" lon="4.80687">
        <ele>207</ele>
        <time>2020-10-31T08:50:13.000Z</time>
      </trkpt>
      <trkpt lat="49.75238" lon="4.80689">
        <ele>206</ele>
        <time>2020-10-31T08:50:14.000Z</time>
      </trkpt>
      <trkpt lat="49.75243" lon="4.8069">
        <ele>206</ele>
        <time>2020-10-31T08:50:15.000Z</time>
      </trkpt>
      <trkpt lat="49.75247" lon="4.80691">
        <ele>207</ele>
        <time>2020-10-31T08:50:16.000Z</time>
      </trkpt>
      <trkpt lat="49.7525" lon="4.80692">
        <ele>207</ele>
        <time>2020-10-31T08:50:17.000Z</time>
      </trkpt>
      <trkpt lat="49.75254" lon="4.80691">
        <ele>207</ele>
        <time>2020-10-31T08:50:18.000Z</time>
      </trkpt>
      <trkpt lat="49.75258" lon="4.80691">
        <ele>207</ele>
        <time>2020-10-31T08:50:19.000Z</time>
      </trkpt>
      <trkpt lat="49.75261" lon="4.8069">
        <ele>207</ele>
        <time>2020-10-31T08:50:20.000Z</time>
      </trkpt>
      <trkpt lat="49.75265" lon="4.80689">
        <ele>207</ele>
        <time>2020-10-31T08:50:21.000Z</time>
      </trkpt>
      <trkpt lat="49.75269" lon="4.80688">
        <ele>207</ele>
        <time>2020-10-31T08:50:22.000Z</time>
      </trkpt>
      <trkpt lat="49.75272" lon="4.80687">
        <ele>208</ele>
        <time>2020-10-31T08:50:23.000Z</time>
      </trkpt>
      <trkpt lat="49.75275" lon="4.80684">
        <ele>208</ele>
        <time>2020-10-31T08:50:24.000Z</time>
      </trkpt>
      <trkpt lat="49.75278" lon="4.80681">
        <ele>208</ele>
        <time>2020-10-31T08:50:25.000Z</time>
      </trkpt>
      <trkpt lat="49.75281" lon="4.80678">
        <ele>208</ele>
        <time>2020-10-31T08:50:26.000Z</time>
      </trkpt>
      <trkpt lat="49.75284" lon="4.80675">
        <ele>208</ele>
        <time>2020-10-31T08:50:27.000Z</time>
      </trkpt>
      <trkpt lat="49.75286" lon="4.80673">
        <ele>208</ele>
        <time>2020-10-31T08:50:28.000Z</time>
      </trkpt>
      <trkpt lat="49.75289" lon="4.8067">
        <ele>208</ele>
        <time>2020-10-31T08:50:29.000Z</time>
      </trkpt>
      <trkpt lat="49.75291" lon="4.80668">
        <ele>209</ele>
        <time>2020-10-31T08:50:30.000Z</time>
      </trkpt>
      <trkpt lat="49.75294" lon="4.80667">
        <ele>209</ele>
        <time>2020-10-31T08:50:31.000Z</time>
      </trkpt>
      <trkpt lat="49.75297" lon="4.80666">
        <ele>209</ele>
        <time>2020-10-31T08:50:32.000Z</time>
      </trkpt>
      <trkpt lat="49.753" lon="4.80665">
        <ele>209</ele>
        <time>2020-10-31T08:50:33.000Z</time>
      </trkpt>
      <trkpt lat="49.75304" lon="4.80665">
        <ele>209</ele>
        <time>2020-10-31T08:50:34.000Z</time>
      </trkpt>
      <trkpt lat="49.75308" lon="4.80665">
        <ele>209</ele>
        <time>2020-10-31T08:50:35.000Z</time>
      </trkpt>
      <trkpt lat="49.75312" lon="4.80664">
        <ele>209</ele>
        <time>2020-10-31T08:50:36.000Z</time>
      </trkpt>
      <trkpt lat="49.75316" lon="4.80664">
        <ele>210</ele>
        <time>2020-10-31T08:50:37.000Z</time>
      </trkpt>
      <trkpt lat="49.75319" lon="4.80663">
        <ele>210</ele>
        <time>2020-10-31T08:50:38.000Z</time>
      </trkpt>
      <trkpt lat="49.75323" lon="4.80663">
        <ele>210</ele>
        <time>2020-10-31T08:50:39.000Z</time>
      </trkpt>
      <trkpt lat="49.75326" lon="4.80663">
        <ele>210</ele>
        <time>2020-10-31T08:50:40.000Z</time>
      </trkpt>
      <trkpt lat="49.7533" lon="4.80663">
        <ele>210</ele>
        <time>2020-10-31T08:50:41.000Z</time>
      </trkpt>
      <trkpt lat="49.75333" lon="4.80664">
        <ele>211</ele>
        <time>2020-10-31T08:50:42.000Z</time>
      </trkpt>
      <trkpt lat="49.75336" lon="4.80665">
        <ele>211</ele>
        <time>2020-10-31T08:50:43.000Z</time>
      </trkpt>
      <trkpt lat="49.75339" lon="4.80666">
        <ele>211</ele>
        <time>2020-10-31T08:50:44.000Z</time>
      </trkpt>
      <trkpt lat="49.75342" lon="4.80667">
        <ele>212</ele>
        <time>2020-10-31T08:50:45.000Z</time>
      </trkpt>
      <trkpt lat="49.75345" lon="4.80669">
        <ele>212</ele>
        <time>2020-10-31T08:50:46.000Z</time>
      </trkpt>
      <trkpt lat="49.75348" lon="4.80671">
        <ele>212</ele>
        <time>2020-10-31T08:50:47.000Z</time>
      </trkpt>
      <trkpt lat="49.7535" lon="4.80672">
        <ele>212</ele>
        <time>2020-10-31T08:50:48.000Z</time>
      </trkpt>
      <trkpt lat="49.75352" lon="4.80673">
        <ele>212</ele>
        <time>2020-10-31T08:50:49.000Z</time>
      </trkpt>
      <trkpt lat="49.75354" lon="4.80674">
        <ele>213</ele>
        <time>2020-10-31T08:50:50.000Z</time>
      </trkpt>
      <trkpt lat="49.75357" lon="4.80675">
        <ele>213</ele>
        <time>2020-10-31T08:50:51.000Z</time>
      </trkpt>
      <trkpt lat="49.75361" lon="4.80677">
        <ele>213</ele>
        <time>2020-10-31T08:50:52.000Z</time>
      </trkpt>
      <trkpt lat="49.75363" lon="4.80678">
        <ele>213</ele>
        <time>2020-10-31T08:50:53.000Z</time>
      </trkpt>
      <trkpt lat="49.75366" lon="4.80679">
        <ele>214</ele>
        <time>2020-10-31T08:50:54.000Z</time>
      </trkpt>
      <trkpt lat="49.75368" lon="4.8068">
        <ele>214</ele>
        <time>2020-10-31T08:50:55.000Z</time>
      </trkpt>
      <trkpt lat="49.7537" lon="4.80681">
        <ele>214</ele>
        <time>2020-10-31T08:50:56.000Z</time>
      </trkpt>
      <trkpt lat="49.75373" lon="4.80682">
        <ele>214</ele>
        <time>2020-10-31T08:50:57.000Z</time>
      </trkpt>
      <trkpt lat="49.75376" lon="4.80683">
        <ele>215</ele>
        <time>2020-10-31T08:50:58.000Z</time>
      </trkpt>
      <trkpt lat="49.75379" lon="4.80685">
        <ele>215</ele>
        <time>2020-10-31T08:50:59.000Z</time>
      </trkpt>
      <trkpt lat="49.75381" lon="4.80686">
        <ele>215</ele>
        <time>2020-10-31T08:51:00.000Z</time>
      </trkpt>
      <trkpt lat="49.75384" lon="4.80687">
        <ele>216</ele>
        <time>2020-10-31T08:51:01.000Z</time>
      </trkpt>
      <trkpt lat="49.75387" lon="4.80689">
        <ele>216</ele>
        <time>2020-10-31T08:51:02.000Z</time>
      </trkpt>
      <trkpt lat="49.7539" lon="4.80691">
        <ele>217</ele>
        <time>2020-10-31T08:51:03.000Z</time>
      </trkpt>
      <trkpt lat="49.75392" lon="4.80692">
        <ele>217</ele>
        <time>2020-10-31T08:51:04.000Z</time>
      </trkpt>
      <trkpt lat="49.75394" lon="4.80693">
        <ele>218</ele>
        <time>2020-10-31T08:51:05.000Z</time>
      </trkpt>
      <trkpt lat="49.75396" lon="4.80694">
        <ele>218</ele>
        <time>2020-10-31T08:51:06.000Z</time>
      </trkpt>
      <trkpt lat="49.75398" lon="4.80695">
        <ele>218</ele>
        <time>2020-10-31T08:51:07.000Z</time>
      </trkpt>
      <trkpt lat="49.75401" lon="4.80696">
        <ele>219</ele>
        <time>2020-10-31T08:51:08.000Z</time>
      </trkpt>
      <trkpt lat="49.75403" lon="4.80696">
        <ele>219</ele>
        <time>2020-10-31T08:51:09.000Z</time>
      </trkpt>
      <trkpt lat="49.75406" lon="4.80697">
        <ele>220</ele>
        <time>2020-10-31T08:51:10.000Z</time>
      </trkpt>
      <trkpt lat="49.75408" lon="4.80697">
        <ele>220</ele>
        <time>2020-10-31T08:51:11.000Z</time>
      </trkpt>
      <trkpt lat="49.75411" lon="4.80697">
        <ele>220</ele>
        <time>2020-10-31T08:51:12.000Z</time>
      </trkpt>
      <trkpt lat="49.75413" lon="4.80698">
        <ele>221</ele>
        <time>2020-10-31T08:51:13.000Z</time>
      </trkpt>
      <trkpt lat="49.75416" lon="4.80698">
        <ele>221</ele>
        <time>2020-10-31T08:51:14.000Z</time>
      </trkpt>
      <trkpt lat="49.75418" lon="4.80699">
        <ele>222</ele>
        <time>2020-10-31T08:51:15.000Z</time>
      </trkpt>
      <trkpt lat="49.7542" lon="4.807">
        <ele>222</ele>
        <time>2020-10-31T08:51:16.000Z</time>
      </trkpt>
      <trkpt lat="49.75423" lon="4.80701">
        <ele>222</ele>
        <time>2020-10-31T08:51:17.000Z</time>
      </trkpt>
      <trkpt lat="49.75425" lon="4.80703">
        <ele>223</ele>
        <time>2020-10-31T08:51:18.000Z</time>
      </trkpt>
      <trkpt lat="49.75428" lon="4.80704">
        <ele>223</ele>
        <time>2020-10-31T08:51:19.000Z</time>
      </trkpt>
      <trkpt lat="49.75431" lon="4.80706">
        <ele>223</ele>
        <time>2020-10-31T08:51:20.000Z</time>
      </trkpt>
      <trkpt lat="49.75433" lon="4.80707">
        <ele>223</ele>
        <time>2020-10-31T08:51:21.000Z</time>
      </trkpt>
      <trkpt lat="49.75435" lon="4.80708">
        <ele>223</ele>
        <time>2020-10-31T08:51:22.000Z</time>
      </trkpt>
      <trkpt lat="49.75437" lon="4.80709">
        <ele>224</ele>
        <time>2020-10-31T08:51:23.000Z</time>
      </trkpt>
      <trkpt lat="49.75438" lon="4.8071">
        <ele>224</ele>
        <time>2020-10-31T08:51:24.000Z</time>
      </trkpt>
      <trkpt lat="49.7544" lon="4.80711">
        <ele>224</ele>
        <time>2020-10-31T08:51:25.000Z</time>
      </trkpt>
      <trkpt lat="49.75442" lon="4.80712">
        <ele>224</ele>
        <time>2020-10-31T08:51:26.000Z</time>
      </trkpt>
      <trkpt lat="49.75443" lon="4.80714">
        <ele>224</ele>
        <time>2020-10-31T08:51:27.000Z</time>
      </trkpt>
      <trkpt lat="49.75445" lon="4.80716">
        <ele>225</ele>
        <time>2020-10-31T08:51:28.000Z</time>
      </trkpt>
      <trkpt lat="49.75448" lon="4.80717">
        <ele>225</ele>
        <time>2020-10-31T08:51:29.000Z</time>
      </trkpt>
      <trkpt lat="49.75449" lon="4.80718">
        <ele>225</ele>
        <time>2020-10-31T08:51:30.000Z</time>
      </trkpt>
      <trkpt lat="49.75451" lon="4.8072">
        <ele>225</ele>
        <time>2020-10-31T08:51:31.000Z</time>
      </trkpt>
      <trkpt lat="49.75453" lon="4.80721">
        <ele>225</ele>
        <time>2020-10-31T08:51:32.000Z</time>
      </trkpt>
      <trkpt lat="49.75455" lon="4.80723">
        <ele>225</ele>
        <time>2020-10-31T08:51:33.000Z</time>
      </trkpt>
      <trkpt lat="49.75458" lon="4.80724">
        <ele>225</ele>
        <time>2020-10-31T08:51:34.000Z</time>
      </trkpt>
      <trkpt lat="49.75461" lon="4.80725">
        <ele>226</ele>
        <time>2020-10-31T08:51:35.000Z</time>
      </trkpt>
      <trkpt lat="49.75463" lon="4.80726">
        <ele>226</ele>
        <time>2020-10-31T08:51:36.000Z</time>
      </trkpt>
      <trkpt lat="49.75465" lon="4.80726">
        <ele>226</ele>
        <time>2020-10-31T08:51:37.000Z</time>
      </trkpt>
      <trkpt lat="49.75467" lon="4.80727">
        <ele>226</ele>
        <time>2020-10-31T08:51:38.000Z</time>
      </trkpt>
      <trkpt lat="49.75469" lon="4.80729">
        <ele>227</ele>
        <time>2020-10-31T08:51:39.000Z</time>
      </trkpt>
      <trkpt lat="49.75472" lon="4.8073">
        <ele>227</ele>
        <time>2020-10-31T08:51:40.000Z</time>
      </trkpt>
      <trkpt lat="49.75474" lon="4.80732">
        <ele>227</ele>
        <time>2020-10-31T08:51:41.000Z</time>
      </trkpt>
      <trkpt lat="49.75477" lon="4.80735">
        <ele>227</ele>
        <time>2020-10-31T08:51:42.000Z</time>
      </trkpt>
      <trkpt lat="49.7548" lon="4.80738">
        <ele>228</ele>
        <time>2020-10-31T08:51:43.000Z</time>
      </trkpt>
      <trkpt lat="49.75483" lon="4.8074">
        <ele>228</ele>
        <time>2020-10-31T08:51:44.000Z</time>
      </trkpt>
      <trkpt lat="49.75485" lon="4.80743">
        <ele>228</ele>
        <time>2020-10-31T08:51:45.000Z</time>
      </trkpt>
      <trkpt lat="49.75488" lon="4.80746">
        <ele>229</ele>
        <time>2020-10-31T08:51:46.000Z</time>
      </trkpt>
      <trkpt lat="49.75491" lon="4.80748">
        <ele>229</ele>
        <time>2020-10-31T08:51:47.000Z</time>
      </trkpt>
      <trkpt lat="49.75494" lon="4.8075">
        <ele>229</ele>
        <time>2020-10-31T08:51:48.000Z</time>
      </trkpt>
      <trkpt lat="49.75497" lon="4.80752">
        <ele>230</ele>
        <time>2020-10-31T08:51:49.000Z</time>
      </trkpt>
      <trkpt lat="49.755" lon="4.80754">
        <ele>230</ele>
        <time>2020-10-31T08:51:50.000Z</time>
      </trkpt>
      <trkpt lat="49.75502" lon="4.80756">
        <ele>230</ele>
        <time>2020-10-31T08:51:51.000Z</time>
      </trkpt>
      <trkpt lat="49.75505" lon="4.80758">
        <ele>230</ele>
        <time>2020-10-31T08:51:52.000Z</time>
      </trkpt>
      <trkpt lat="49.75508" lon="4.80759">
        <ele>231</ele>
        <time>2020-10-31T08:51:53.000Z</time>
      </trkpt>
      <trkpt lat="49.75511" lon="4.80762">
        <ele>231</ele>
        <time>2020-10-31T08:51:54.000Z</time>
      </trkpt>
      <trkpt lat="49.75515" lon="4.80765">
        <ele>231</ele>
        <time>2020-10-31T08:51:55.000Z</time>
      </trkpt>
      <trkpt lat="49.75518" lon="4.80767">
        <ele>231</ele>
        <time>2020-10-31T08:51:56.000Z</time>
      </trkpt>
      <trkpt lat="49.75521" lon="4.8077">
        <ele>232</ele>
        <time>2020-10-31T08:51:57.000Z</time>
      </trkpt>
      <trkpt lat="49.75524" lon="4.80773">
        <ele>232</ele>
        <time>2020-10-31T08:51:58.000Z</time>
      </trkpt>
      <trkpt lat="49.75526" lon="4.80776">
        <ele>232</ele>
        <time>2020-10-31T08:51:59.000Z</time>
      </trkpt>
      <trkpt lat="49.75528" lon="4.80778">
        <ele>232</ele>
        <time>2020-10-31T08:52:00.000Z</time>
      </trkpt>
      <trkpt lat="49.7553" lon="4.80781">
        <ele>232</ele>
        <time>2020-10-31T08:52:01.000Z</time>
      </trkpt>
      <trkpt lat="49.75531" lon="4.80784">
        <ele>233</ele>
        <time>2020-10-31T08:52:02.000Z</time>
      </trkpt>
      <trkpt lat="49.75533" lon="4.80787">
        <ele>233</ele>
        <time>2020-10-31T08:52:03.000Z</time>
      </trkpt>
      <trkpt lat="49.75536" lon="4.80791">
        <ele>233</ele>
        <time>2020-10-31T08:52:04.000Z</time>
      </trkpt>
      <trkpt lat="49.75539" lon="4.80794">
        <ele>233</ele>
        <time>2020-10-31T08:52:05.000Z</time>
      </trkpt>
      <trkpt lat="49.75542" lon="4.80797">
        <ele>233</ele>
        <time>2020-10-31T08:52:06.000Z</time>
      </trkpt>
      <trkpt lat="49.75544" lon="4.808">
        <ele>234</ele>
        <time>2020-10-31T08:52:07.000Z</time>
      </trkpt>
      <trkpt lat="49.75546" lon="4.80802">
        <ele>234</ele>
        <time>2020-10-31T08:52:08.000Z</time>
      </trkpt>
      <trkpt lat="49.75549" lon="4.80805">
        <ele>234</ele>
        <time>2020-10-31T08:52:09.000Z</time>
      </trkpt>
      <trkpt lat="49.75551" lon="4.80808">
        <ele>234</ele>
        <time>2020-10-31T08:52:10.000Z</time>
      </trkpt>
      <trkpt lat="49.75553" lon="4.8081">
        <ele>234</ele>
        <time>2020-10-31T08:52:11.000Z</time>
      </trkpt>
      <trkpt lat="49.75555" lon="4.80812">
        <ele>234</ele>
        <time>2020-10-31T08:52:12.000Z</time>
      </trkpt>
      <trkpt lat="49.75556" lon="4.80814">
        <ele>234</ele>
        <time>2020-10-31T08:52:13.000Z</time>
      </trkpt>
      <trkpt lat="49.75558" lon="4.80817">
        <ele>235</ele>
        <time>2020-10-31T08:52:14.000Z</time>
      </trkpt>
      <trkpt lat="49.7556" lon="4.80818">
        <ele>235</ele>
        <time>2020-10-31T08:52:15.000Z</time>
      </trkpt>
      <trkpt lat="49.75562" lon="4.8082">
        <ele>235</ele>
        <time>2020-10-31T08:52:16.000Z</time>
      </trkpt>
      <trkpt lat="49.75563" lon="4.80821">
        <ele>236</ele>
        <time>2020-10-31T08:52:17.000Z</time>
      </trkpt>
      <trkpt lat="49.75565" lon="4.80822">
        <ele>236</ele>
        <time>2020-10-31T08:52:18.000Z</time>
      </trkpt>
      <trkpt lat="49.75568" lon="4.80823">
        <ele>236</ele>
        <time>2020-10-31T08:52:19.000Z</time>
      </trkpt>
      <trkpt lat="49.75571" lon="4.80825">
        <ele>237</ele>
        <time>2020-10-31T08:52:20.000Z</time>
      </trkpt>
      <trkpt lat="49.75574" lon="4.80827">
        <ele>237</ele>
        <time>2020-10-31T08:52:21.000Z</time>
      </trkpt>
      <trkpt lat="49.75577" lon="4.80828">
        <ele>237</ele>
        <time>2020-10-31T08:52:22.000Z</time>
      </trkpt>
      <trkpt lat="49.75579" lon="4.80829">
        <ele>238</ele>
        <time>2020-10-31T08:52:23.000Z</time>
      </trkpt>
      <trkpt lat="49.75581" lon="4.8083">
        <ele>238</ele>
        <time>2020-10-31T08:52:24.000Z</time>
      </trkpt>
      <trkpt lat="49.75583" lon="4.80831">
        <ele>239</ele>
        <time>2020-10-31T08:52:25.000Z</time>
      </trkpt>
      <trkpt lat="49.75586" lon="4.80832">
        <ele>239</ele>
        <time>2020-10-31T08:52:26.000Z</time>
      </trkpt>
      <trkpt lat="49.75588" lon="4.80833">
        <ele>239</ele>
        <time>2020-10-31T08:52:27.000Z</time>
      </trkpt>
      <trkpt lat="49.7559" lon="4.80834">
        <ele>239</ele>
        <time>2020-10-31T08:52:28.000Z</time>
      </trkpt>
      <trkpt lat="49.75593" lon="4.80836">
        <ele>240</ele>
        <time>2020-10-31T08:52:29.000Z</time>
      </trkpt>
      <trkpt lat="49.75596" lon="4.80837">
        <ele>240</ele>
        <time>2020-10-31T08:52:30.000Z</time>
      </trkpt>
      <trkpt lat="49.75599" lon="4.80838">
        <ele>240</ele>
        <time>2020-10-31T08:52:31.000Z</time>
      </trkpt>
      <trkpt lat="49.75602" lon="4.8084">
        <ele>241</ele>
        <time>2020-10-31T08:52:32.000Z</time>
      </trkpt>
      <trkpt lat="49.75605" lon="4.80841">
        <ele>241</ele>
        <time>2020-10-31T08:52:33.000Z</time>
      </trkpt>
      <trkpt lat="49.75608" lon="4.80843">
        <ele>241</ele>
        <time>2020-10-31T08:52:34.000Z</time>
      </trkpt>
      <trkpt lat="49.75612" lon="4.80845">
        <ele>241</ele>
        <time>2020-10-31T08:52:35.000Z</time>
      </trkpt>
      <trkpt lat="49.75615" lon="4.80848">
        <ele>242</ele>
        <time>2020-10-31T08:52:36.000Z</time>
      </trkpt>
      <trkpt lat="49.75618" lon="4.8085">
        <ele>242</ele>
        <time>2020-10-31T08:52:37.000Z</time>
      </trkpt>
      <trkpt lat="49.75621" lon="4.80851">
        <ele>242</ele>
        <time>2020-10-31T08:52:38.000Z</time>
      </trkpt>
      <trkpt lat="49.75624" lon="4.80852">
        <ele>242</ele>
        <time>2020-10-31T08:52:39.000Z</time>
      </trkpt>
      <trkpt lat="49.75627" lon="4.80854">
        <ele>243</ele>
        <time>2020-10-31T08:52:40.000Z</time>
      </trkpt>
      <trkpt lat="49.75631" lon="4.80855">
        <ele>243</ele>
        <time>2020-10-31T08:52:41.000Z</time>
      </trkpt>
      <trkpt lat="49.75634" lon="4.80856">
        <ele>243</ele>
        <time>2020-10-31T08:52:42.000Z</time>
      </trkpt>
      <trkpt lat="49.75637" lon="4.80857">
        <ele>243</ele>
        <time>2020-10-31T08:52:43.000Z</time>
      </trkpt>
      <trkpt lat="49.7564" lon="4.80858">
        <ele>243</ele>
        <time>2020-10-31T08:52:44.000Z</time>
      </trkpt>
      <trkpt lat="49.75643" lon="4.80859">
        <ele>244</ele>
        <time>2020-10-31T08:52:45.000Z</time>
      </trkpt>
      <trkpt lat="49.75647" lon="4.8086">
        <ele>244</ele>
        <time>2020-10-31T08:52:46.000Z</time>
      </trkpt>
      <trkpt lat="49.7565" lon="4.80861">
        <ele>244</ele>
        <time>2020-10-31T08:52:47.000Z</time>
      </trkpt>
      <trkpt lat="49.75652" lon="4.80862">
        <ele>244</ele>
        <time>2020-10-31T08:52:48.000Z</time>
      </trkpt>
      <trkpt lat="49.75655" lon="4.80862">
        <ele>244</ele>
        <time>2020-10-31T08:52:49.000Z</time>
      </trkpt>
      <trkpt lat="49.75657" lon="4.80862">
        <ele>244</ele>
        <time>2020-10-31T08:52:50.000Z</time>
      </trkpt>
      <trkpt lat="49.75659" lon="4.80862">
        <ele>244</ele>
        <time>2020-10-31T08:52:51.000Z</time>
      </trkpt>
      <trkpt lat="49.7566" lon="4.80863">
        <ele>244</ele>
        <time>2020-10-31T08:52:52.000Z</time>
      </trkpt>
      <trkpt lat="49.75662" lon="4.80864">
        <ele>244</ele>
        <time>2020-10-31T08:52:53.000Z</time>
      </trkpt>
      <trkpt lat="49.75665" lon="4.80865">
        <ele>244</ele>
        <time>2020-10-31T08:52:54.000Z</time>
      </trkpt>
      <trkpt lat="49.75669" lon="4.80865">
        <ele>244</ele>
        <time>2020-10-31T08:52:55.000Z</time>
      </trkpt>
      <trkpt lat="49.75672" lon="4.80866">
        <ele>245</ele>
        <time>2020-10-31T08:52:56.000Z</time>
      </trkpt>
      <trkpt lat="49.75675" lon="4.80867">
        <ele>245</ele>
        <time>2020-10-31T08:52:57.000Z</time>
      </trkpt>
      <trkpt lat="49.75679" lon="4.80867">
        <ele>245</ele>
        <time>2020-10-31T08:52:58.000Z</time>
      </trkpt>
      <trkpt lat="49.75682" lon="4.80869">
        <ele>245</ele>
        <time>2020-10-31T08:52:59.000Z</time>
      </trkpt>
      <trkpt lat="49.75685" lon="4.80869">
        <ele>245</ele>
        <time>2020-10-31T08:53:00.000Z</time>
      </trkpt>
      <trkpt lat="49.75689" lon="4.8087">
        <ele>245</ele>
        <time>2020-10-31T08:53:01.000Z</time>
      </trkpt>
      <trkpt lat="49.75692" lon="4.80871">
        <ele>245</ele>
        <time>2020-10-31T08:53:02.000Z</time>
      </trkpt>
      <trkpt lat="49.75696" lon="4.80872">
        <ele>245</ele>
        <time>2020-10-31T08:53:03.000Z</time>
      </trkpt>
      <trkpt lat="49.75699" lon="4.80873">
        <ele>245</ele>
        <time>2020-10-31T08:53:04.000Z</time>
      </trkpt>
      <trkpt lat="49.75703" lon="4.80873">
        <ele>246</ele>
        <time>2020-10-31T08:53:05.000Z</time>
      </trkpt>
      <trkpt lat="49.75706" lon="4.80874">
        <ele>246</ele>
        <time>2020-10-31T08:53:06.000Z</time>
      </trkpt>
      <trkpt lat="49.75709" lon="4.80875">
        <ele>246</ele>
        <time>2020-10-31T08:53:07.000Z</time>
      </trkpt>
      <trkpt lat="49.75712" lon="4.80876">
        <ele>246</ele>
        <time>2020-10-31T08:53:08.000Z</time>
      </trkpt>
      <trkpt lat="49.75715" lon="4.80878">
        <ele>246</ele>
        <time>2020-10-31T08:53:09.000Z</time>
      </trkpt>
      <trkpt lat="49.75719" lon="4.80879">
        <ele>246</ele>
        <time>2020-10-31T08:53:10.000Z</time>
      </trkpt>
      <trkpt lat="49.75722" lon="4.8088">
        <ele>246</ele>
        <time>2020-10-31T08:53:11.000Z</time>
      </trkpt>
      <trkpt lat="49.75725" lon="4.80882">
        <ele>246</ele>
        <time>2020-10-31T08:53:12.000Z</time>
      </trkpt>
      <trkpt lat="49.75729" lon="4.80883">
        <ele>246</ele>
        <time>2020-10-31T08:53:13.000Z</time>
      </trkpt>
      <trkpt lat="49.75733" lon="4.80885">
        <ele>246</ele>
        <time>2020-10-31T08:53:14.000Z</time>
      </trkpt>
      <trkpt lat="49.75736" lon="4.80886">
        <ele>247</ele>
        <time>2020-10-31T08:53:15.000Z</time>
      </trkpt>
      <trkpt lat="49.7574" lon="4.80886">
        <ele>247</ele>
        <time>2020-10-31T08:53:16.000Z</time>
      </trkpt>
      <trkpt lat="49.75744" lon="4.80887">
        <ele>247</ele>
        <time>2020-10-31T08:53:17.000Z</time>
      </trkpt>
      <trkpt lat="49.75748" lon="4.80887">
        <ele>247</ele>
        <time>2020-10-31T08:53:18.000Z</time>
      </trkpt>
      <trkpt lat="49.75751" lon="4.80888">
        <ele>247</ele>
        <time>2020-10-31T08:53:19.000Z</time>
      </trkpt>
      <trkpt lat="49.75754" lon="4.80887">
        <ele>247</ele>
        <time>2020-10-31T08:53:20.000Z</time>
      </trkpt>
      <trkpt lat="49.75758" lon="4.80887">
        <ele>247</ele>
        <time>2020-10-31T08:53:21.000Z</time>
      </trkpt>
      <trkpt lat="49.75762" lon="4.80887">
        <ele>247</ele>
        <time>2020-10-31T08:53:22.000Z</time>
      </trkpt>
      <trkpt lat="49.75765" lon="4.80888">
        <ele>247</ele>
        <time>2020-10-31T08:53:23.000Z</time>
      </trkpt>
      <trkpt lat="49.75769" lon="4.80889">
        <ele>247</ele>
        <time>2020-10-31T08:53:24.000Z</time>
      </trkpt>
      <trkpt lat="49.75772" lon="4.80888">
        <ele>248</ele>
        <time>2020-10-31T08:53:25.000Z</time>
      </trkpt>
      <trkpt lat="49.75775" lon="4.80888">
        <ele>248</ele>
        <time>2020-10-31T08:53:26.000Z</time>
      </trkpt>
      <trkpt lat="49.75777" lon="4.80888">
        <ele>248</ele>
        <time>2020-10-31T08:53:27.000Z</time>
      </trkpt>
      <trkpt lat="49.7578" lon="4.80889">
        <ele>248</ele>
        <time>2020-10-31T08:53:28.000Z</time>
      </trkpt>
      <trkpt lat="49.75783" lon="4.8089">
        <ele>248</ele>
        <time>2020-10-31T08:53:29.000Z</time>
      </trkpt>
      <trkpt lat="49.75786" lon="4.80891">
        <ele>248</ele>
        <time>2020-10-31T08:53:30.000Z</time>
      </trkpt>
      <trkpt lat="49.75789" lon="4.80892">
        <ele>248</ele>
        <time>2020-10-31T08:53:31.000Z</time>
      </trkpt>
      <trkpt lat="49.75792" lon="4.80892">
        <ele>249</ele>
        <time>2020-10-31T08:53:32.000Z</time>
      </trkpt>
      <trkpt lat="49.75794" lon="4.80893">
        <ele>249</ele>
        <time>2020-10-31T08:53:33.000Z</time>
      </trkpt>
      <trkpt lat="49.75797" lon="4.80894">
        <ele>249</ele>
        <time>2020-10-31T08:53:34.000Z</time>
      </trkpt>
      <trkpt lat="49.758" lon="4.80896">
        <ele>249</ele>
        <time>2020-10-31T08:53:35.000Z</time>
      </trkpt>
      <trkpt lat="49.75804" lon="4.80898">
        <ele>249</ele>
        <time>2020-10-31T08:53:36.000Z</time>
      </trkpt>
      <trkpt lat="49.75807" lon="4.809">
        <ele>249</ele>
        <time>2020-10-31T08:53:37.000Z</time>
      </trkpt>
      <trkpt lat="49.7581" lon="4.80901">
        <ele>249</ele>
        <time>2020-10-31T08:53:38.000Z</time>
      </trkpt>
      <trkpt lat="49.75813" lon="4.80903">
        <ele>249</ele>
        <time>2020-10-31T08:53:39.000Z</time>
      </trkpt>
      <trkpt lat="49.75816" lon="4.80904">
        <ele>248</ele>
        <time>2020-10-31T08:53:40.000Z</time>
      </trkpt>
      <trkpt lat="49.75819" lon="4.80907">
        <ele>248</ele>
        <time>2020-10-31T08:53:41.000Z</time>
      </trkpt>
      <trkpt lat="49.75822" lon="4.8091">
        <ele>248</ele>
        <time>2020-10-31T08:53:42.000Z</time>
      </trkpt>
      <trkpt lat="49.75825" lon="4.80911">
        <ele>248</ele>
        <time>2020-10-31T08:53:43.000Z</time>
      </trkpt>
      <trkpt lat="49.75829" lon="4.80913">
        <ele>248</ele>
        <time>2020-10-31T08:53:44.000Z</time>
      </trkpt>
      <trkpt lat="49.75832" lon="4.80914">
        <ele>248</ele>
        <time>2020-10-31T08:53:45.000Z</time>
      </trkpt>
      <trkpt lat="49.75834" lon="4.80916">
        <ele>248</ele>
        <time>2020-10-31T08:53:46.000Z</time>
      </trkpt>
      <trkpt lat="49.75836" lon="4.80918">
        <ele>248</ele>
        <time>2020-10-31T08:53:47.000Z</time>
      </trkpt>
      <trkpt lat="49.75838" lon="4.80921">
        <ele>248</ele>
        <time>2020-10-31T08:53:48.000Z</time>
      </trkpt>
      <trkpt lat="49.75841" lon="4.80923">
        <ele>248</ele>
        <time>2020-10-31T08:53:49.000Z</time>
      </trkpt>
      <trkpt lat="49.75842" lon="4.80925">
        <ele>248</ele>
        <time>2020-10-31T08:53:50.000Z</time>
      </trkpt>
      <trkpt lat="49.75844" lon="4.80927">
        <ele>248</ele>
        <time>2020-10-31T08:53:51.000Z</time>
      </trkpt>
      <trkpt lat="49.75846" lon="4.80929">
        <ele>248</ele>
        <time>2020-10-31T08:53:52.000Z</time>
      </trkpt>
      <trkpt lat="49.75848" lon="4.80931">
        <ele>248</ele>
        <time>2020-10-31T08:53:53.000Z</time>
      </trkpt>
      <trkpt lat="49.7585" lon="4.80932">
        <ele>248</ele>
        <time>2020-10-31T08:53:54.000Z</time>
      </trkpt>
      <trkpt lat="49.75852" lon="4.80935">
        <ele>248</ele>
        <time>2020-10-31T08:53:55.000Z</time>
      </trkpt>
      <trkpt lat="49.75854" lon="4.80937">
        <ele>248</ele>
        <time>2020-10-31T08:53:56.000Z</time>
      </trkpt>
      <trkpt lat="49.75856" lon="4.80938">
        <ele>248</ele>
        <time>2020-10-31T08:53:57.000Z</time>
      </trkpt>
      <trkpt lat="49.75858" lon="4.8094">
        <ele>248</ele>
        <time>2020-10-31T08:53:58.000Z</time>
      </trkpt>
      <trkpt lat="49.7586" lon="4.80943">
        <ele>248</ele>
        <time>2020-10-31T08:53:59.000Z</time>
      </trkpt>
      <trkpt lat="49.75862" lon="4.80946">
        <ele>248</ele>
        <time>2020-10-31T08:54:00.000Z</time>
      </trkpt>
      <trkpt lat="49.75865" lon="4.80949">
        <ele>247</ele>
        <time>2020-10-31T08:54:01.000Z</time>
      </trkpt>
      <trkpt lat="49.75867" lon="4.80951">
        <ele>247</ele>
        <time>2020-10-31T08:54:02.000Z</time>
      </trkpt>
      <trkpt lat="49.7587" lon="4.80953">
        <ele>247</ele>
        <time>2020-10-31T08:54:03.000Z</time>
      </trkpt>
      <trkpt lat="49.75872" lon="4.80955">
        <ele>248</ele>
        <time>2020-10-31T08:54:04.000Z</time>
      </trkpt>
      <trkpt lat="49.75874" lon="4.80957">
        <ele>248</ele>
        <time>2020-10-31T08:54:05.000Z</time>
      </trkpt>
      <trkpt lat="49.75875" lon="4.80959">
        <ele>248</ele>
        <time>2020-10-31T08:54:06.000Z</time>
      </trkpt>
      <trkpt lat="49.75877" lon="4.80963">
        <ele>248</ele>
        <time>2020-10-31T08:54:07.000Z</time>
      </trkpt>
      <trkpt lat="49.75879" lon="4.80966">
        <ele>248</ele>
        <time>2020-10-31T08:54:08.000Z</time>
      </trkpt>
      <trkpt lat="49.75882" lon="4.80969">
        <ele>248</ele>
        <time>2020-10-31T08:54:09.000Z</time>
      </trkpt>
      <trkpt lat="49.75886" lon="4.80973">
        <ele>248</ele>
        <time>2020-10-31T08:54:10.000Z</time>
      </trkpt>
      <trkpt lat="49.75889" lon="4.80977">
        <ele>248</ele>
        <time>2020-10-31T08:54:11.000Z</time>
      </trkpt>
      <trkpt lat="49.75893" lon="4.80982">
        <ele>248</ele>
        <time>2020-10-31T08:54:12.000Z</time>
      </trkpt>
      <trkpt lat="49.75896" lon="4.80986">
        <ele>248</ele>
        <time>2020-10-31T08:54:13.000Z</time>
      </trkpt>
      <trkpt lat="49.75898" lon="4.8099">
        <ele>248</ele>
        <time>2020-10-31T08:54:14.000Z</time>
      </trkpt>
      <trkpt lat="49.759" lon="4.80994">
        <ele>248</ele>
        <time>2020-10-31T08:54:15.000Z</time>
      </trkpt>
      <trkpt lat="49.75901" lon="4.80997">
        <ele>248</ele>
        <time>2020-10-31T08:54:16.000Z</time>
      </trkpt>
      <trkpt lat="49.75903" lon="4.81001">
        <ele>249</ele>
        <time>2020-10-31T08:54:17.000Z</time>
      </trkpt>
      <trkpt lat="49.75905" lon="4.81005">
        <ele>249</ele>
        <time>2020-10-31T08:54:18.000Z</time>
      </trkpt>
      <trkpt lat="49.75906" lon="4.81009">
        <ele>249</ele>
        <time>2020-10-31T08:54:19.000Z</time>
      </trkpt>
      <trkpt lat="49.75908" lon="4.81013">
        <ele>249</ele>
        <time>2020-10-31T08:54:20.000Z</time>
      </trkpt>
      <trkpt lat="49.75909" lon="4.81017">
        <ele>249</ele>
        <time>2020-10-31T08:54:21.000Z</time>
      </trkpt>
      <trkpt lat="49.75911" lon="4.8102">
        <ele>249</ele>
        <time>2020-10-31T08:54:22.000Z</time>
      </trkpt>
      <trkpt lat="49.75913" lon="4.81023">
        <ele>249</ele>
        <time>2020-10-31T08:54:23.000Z</time>
      </trkpt>
      <trkpt lat="49.75914" lon="4.81026">
        <ele>249</ele>
        <time>2020-10-31T08:54:24.000Z</time>
      </trkpt>
      <trkpt lat="49.75915" lon="4.81028">
        <ele>250</ele>
        <time>2020-10-31T08:54:25.000Z</time>
      </trkpt>
      <trkpt lat="49.75916" lon="4.8103">
        <ele>250</ele>
        <time>2020-10-31T08:54:26.000Z</time>
      </trkpt>
      <trkpt lat="49.75918" lon="4.81032">
        <ele>250</ele>
        <time>2020-10-31T08:54:27.000Z</time>
      </trkpt>
      <trkpt lat="49.75919" lon="4.81035">
        <ele>251</ele>
        <time>2020-10-31T08:54:28.000Z</time>
      </trkpt>
      <trkpt lat="49.7592" lon="4.81037">
        <ele>251</ele>
        <time>2020-10-31T08:54:29.000Z</time>
      </trkpt>
      <trkpt lat="49.75921" lon="4.8104">
        <ele>251</ele>
        <time>2020-10-31T08:54:30.000Z</time>
      </trkpt>
      <trkpt lat="49.75922" lon="4.81043">
        <ele>251</ele>
        <time>2020-10-31T08:54:31.000Z</time>
      </trkpt>
      <trkpt lat="49.75924" lon="4.81046">
        <ele>252</ele>
        <time>2020-10-31T08:54:32.000Z</time>
      </trkpt>
      <trkpt lat="49.75926" lon="4.8105">
        <ele>252</ele>
        <time>2020-10-31T08:54:33.000Z</time>
      </trkpt>
      <trkpt lat="49.75928" lon="4.81053">
        <ele>252</ele>
        <time>2020-10-31T08:54:34.000Z</time>
      </trkpt>
      <trkpt lat="49.7593" lon="4.81056">
        <ele>252</ele>
        <time>2020-10-31T08:54:35.000Z</time>
      </trkpt>
      <trkpt lat="49.75932" lon="4.8106">
        <ele>252</ele>
        <time>2020-10-31T08:54:36.000Z</time>
      </trkpt>
      <trkpt lat="49.75933" lon="4.81064">
        <ele>253</ele>
        <time>2020-10-31T08:54:37.000Z</time>
      </trkpt>
      <trkpt lat="49.75935" lon="4.81068">
        <ele>253</ele>
        <time>2020-10-31T08:54:38.000Z</time>
      </trkpt>
      <trkpt lat="49.75937" lon="4.81072">
        <ele>253</ele>
        <time>2020-10-31T08:54:39.000Z</time>
      </trkpt>
      <trkpt lat="49.7594" lon="4.81075">
        <ele>253</ele>
        <time>2020-10-31T08:54:40.000Z</time>
      </trkpt>
      <trkpt lat="49.75942" lon="4.81079">
        <ele>254</ele>
        <time>2020-10-31T08:54:41.000Z</time>
      </trkpt>
      <trkpt lat="49.75944" lon="4.81082">
        <ele>254</ele>
        <time>2020-10-31T08:54:42.000Z</time>
      </trkpt>
      <trkpt lat="49.75946" lon="4.81084">
        <ele>254</ele>
        <time>2020-10-31T08:54:43.000Z</time>
      </trkpt>
      <trkpt lat="49.75948" lon="4.81087">
        <ele>254</ele>
        <time>2020-10-31T08:54:44.000Z</time>
      </trkpt>
      <trkpt lat="49.7595" lon="4.81089">
        <ele>254</ele>
        <time>2020-10-31T08:54:45.000Z</time>
      </trkpt>
      <trkpt lat="49.75951" lon="4.81092">
        <ele>255</ele>
        <time>2020-10-31T08:54:46.000Z</time>
      </trkpt>
      <trkpt lat="49.75953" lon="4.81095">
        <ele>255</ele>
        <time>2020-10-31T08:54:47.000Z</time>
      </trkpt>
      <trkpt lat="49.75955" lon="4.81098">
        <ele>255</ele>
        <time>2020-10-31T08:54:48.000Z</time>
      </trkpt>
      <trkpt lat="49.75957" lon="4.81101">
        <ele>255</ele>
        <time>2020-10-31T08:54:49.000Z</time>
      </trkpt>
      <trkpt lat="49.75959" lon="4.81103">
        <ele>256</ele>
        <time>2020-10-31T08:54:50.000Z</time>
      </trkpt>
      <trkpt lat="49.75962" lon="4.81106">
        <ele>256</ele>
        <time>2020-10-31T08:54:51.000Z</time>
      </trkpt>
      <trkpt lat="49.75964" lon="4.81109">
        <ele>256</ele>
        <time>2020-10-31T08:54:52.000Z</time>
      </trkpt>
      <trkpt lat="49.75966" lon="4.81112">
        <ele>256</ele>
        <time>2020-10-31T08:54:53.000Z</time>
      </trkpt>
      <trkpt lat="49.75968" lon="4.81114">
        <ele>257</ele>
        <time>2020-10-31T08:54:54.000Z</time>
      </trkpt>
      <trkpt lat="49.7597" lon="4.81116">
        <ele>257</ele>
        <time>2020-10-31T08:54:55.000Z</time>
      </trkpt>
      <trkpt lat="49.75972" lon="4.81119">
        <ele>257</ele>
        <time>2020-10-31T08:54:56.000Z</time>
      </trkpt>
      <trkpt lat="49.75975" lon="4.81122">
        <ele>257</ele>
        <time>2020-10-31T08:54:57.000Z</time>
      </trkpt>
      <trkpt lat="49.75977" lon="4.81125">
        <ele>257</ele>
        <time>2020-10-31T08:54:58.000Z</time>
      </trkpt>
      <trkpt lat="49.75979" lon="4.81127">
        <ele>258</ele>
        <time>2020-10-31T08:54:59.000Z</time>
      </trkpt>
      <trkpt lat="49.75981" lon="4.8113">
        <ele>258</ele>
        <time>2020-10-31T08:55:00.000Z</time>
      </trkpt>
      <trkpt lat="49.75983" lon="4.81133">
        <ele>258</ele>
        <time>2020-10-31T08:55:01.000Z</time>
      </trkpt>
      <trkpt lat="49.75985" lon="4.81136">
        <ele>258</ele>
        <time>2020-10-31T08:55:02.000Z</time>
      </trkpt>
      <trkpt lat="49.75987" lon="4.81139">
        <ele>258</ele>
        <time>2020-10-31T08:55:03.000Z</time>
      </trkpt>
      <trkpt lat="49.75988" lon="4.81142">
        <ele>259</ele>
        <time>2020-10-31T08:55:04.000Z</time>
      </trkpt>
      <trkpt lat="49.75991" lon="4.81144">
        <ele>259</ele>
        <time>2020-10-31T08:55:05.000Z</time>
      </trkpt>
      <trkpt lat="49.75993" lon="4.81146">
        <ele>259</ele>
        <time>2020-10-31T08:55:06.000Z</time>
      </trkpt>
      <trkpt lat="49.75995" lon="4.81149">
        <ele>259</ele>
        <time>2020-10-31T08:55:07.000Z</time>
      </trkpt>
      <trkpt lat="49.75997" lon="4.81152">
        <ele>259</ele>
        <time>2020-10-31T08:55:08.000Z</time>
      </trkpt>
      <trkpt lat="49.76" lon="4.81156">
        <ele>260</ele>
        <time>2020-10-31T08:55:09.000Z</time>
      </trkpt>
      <trkpt lat="49.76003" lon="4.8116">
        <ele>260</ele>
        <time>2020-10-31T08:55:10.000Z</time>
      </trkpt>
      <trkpt lat="49.76005" lon="4.81163">
        <ele>260</ele>
        <time>2020-10-31T08:55:11.000Z</time>
      </trkpt>
      <trkpt lat="49.76007" lon="4.81166">
        <ele>260</ele>
        <time>2020-10-31T08:55:12.000Z</time>
      </trkpt>
      <trkpt lat="49.76009" lon="4.8117">
        <ele>260</ele>
        <time>2020-10-31T08:55:13.000Z</time>
      </trkpt>
      <trkpt lat="49.7601" lon="4.81173">
        <ele>260</ele>
        <time>2020-10-31T08:55:14.000Z</time>
      </trkpt>
      <trkpt lat="49.76012" lon="4.81176">
        <ele>260</ele>
        <time>2020-10-31T08:55:15.000Z</time>
      </trkpt>
      <trkpt lat="49.76014" lon="4.81179">
        <ele>261</ele>
        <time>2020-10-31T08:55:16.000Z</time>
      </trkpt>
      <trkpt lat="49.76017" lon="4.81182">
        <ele>261</ele>
        <time>2020-10-31T08:55:17.000Z</time>
      </trkpt>
      <trkpt lat="49.76019" lon="4.81185">
        <ele>261</ele>
        <time>2020-10-31T08:55:18.000Z</time>
      </trkpt>
      <trkpt lat="49.76021" lon="4.81188">
        <ele>261</ele>
        <time>2020-10-31T08:55:19.000Z</time>
      </trkpt>
      <trkpt lat="49.76023" lon="4.81191">
        <ele>261</ele>
        <time>2020-10-31T08:55:20.000Z</time>
      </trkpt>
      <trkpt lat="49.76024" lon="4.81193">
        <ele>261</ele>
        <time>2020-10-31T08:55:21.000Z</time>
      </trkpt>
      <trkpt lat="49.76025" lon="4.81196">
        <ele>261</ele>
        <time>2020-10-31T08:55:22.000Z</time>
      </trkpt>
      <trkpt lat="49.76027" lon="4.81198">
        <ele>261</ele>
        <time>2020-10-31T08:55:23.000Z</time>
      </trkpt>
      <trkpt lat="49.76028" lon="4.81201">
        <ele>261</ele>
        <time>2020-10-31T08:55:24.000Z</time>
      </trkpt>
      <trkpt lat="49.7603" lon="4.81203">
        <ele>261</ele>
        <time>2020-10-31T08:55:25.000Z</time>
      </trkpt>
      <trkpt lat="49.76032" lon="4.81205">
        <ele>261</ele>
        <time>2020-10-31T08:55:26.000Z</time>
      </trkpt>
      <trkpt lat="49.76034" lon="4.81207">
        <ele>261</ele>
        <time>2020-10-31T08:55:27.000Z</time>
      </trkpt>
      <trkpt lat="49.76036" lon="4.8121">
        <ele>261</ele>
        <time>2020-10-31T08:55:28.000Z</time>
      </trkpt>
      <trkpt lat="49.76038" lon="4.81212">
        <ele>261</ele>
        <time>2020-10-31T08:55:29.000Z</time>
      </trkpt>
      <trkpt lat="49.76041" lon="4.81215">
        <ele>261</ele>
        <time>2020-10-31T08:55:30.000Z</time>
      </trkpt>
      <trkpt lat="49.76043" lon="4.81217">
        <ele>262</ele>
        <time>2020-10-31T08:55:31.000Z</time>
      </trkpt>
      <trkpt lat="49.76045" lon="4.8122">
        <ele>262</ele>
        <time>2020-10-31T08:55:32.000Z</time>
      </trkpt>
      <trkpt lat="49.76047" lon="4.81222">
        <ele>262</ele>
        <time>2020-10-31T08:55:33.000Z</time>
      </trkpt>
      <trkpt lat="49.76049" lon="4.81225">
        <ele>263</ele>
        <time>2020-10-31T08:55:34.000Z</time>
      </trkpt>
      <trkpt lat="49.76051" lon="4.81228">
        <ele>263</ele>
        <time>2020-10-31T08:55:35.000Z</time>
      </trkpt>
      <trkpt lat="49.76053" lon="4.8123">
        <ele>263</ele>
        <time>2020-10-31T08:55:36.000Z</time>
      </trkpt>
      <trkpt lat="49.76054" lon="4.81232">
        <ele>263</ele>
        <time>2020-10-31T08:55:37.000Z</time>
      </trkpt>
      <trkpt lat="49.76057" lon="4.81234">
        <ele>264</ele>
        <time>2020-10-31T08:55:38.000Z</time>
      </trkpt>
      <trkpt lat="49.76059" lon="4.81237">
        <ele>264</ele>
        <time>2020-10-31T08:55:39.000Z</time>
      </trkpt>
      <trkpt lat="49.76063" lon="4.8124">
        <ele>264</ele>
        <time>2020-10-31T08:55:40.000Z</time>
      </trkpt>
      <trkpt lat="49.76066" lon="4.81242">
        <ele>264</ele>
        <time>2020-10-31T08:55:41.000Z</time>
      </trkpt>
      <trkpt lat="49.76069" lon="4.81245">
        <ele>265</ele>
        <time>2020-10-31T08:55:42.000Z</time>
      </trkpt>
      <trkpt lat="49.76071" lon="4.81247">
        <ele>265</ele>
        <time>2020-10-31T08:55:43.000Z</time>
      </trkpt>
      <trkpt lat="49.76074" lon="4.8125">
        <ele>265</ele>
        <time>2020-10-31T08:55:44.000Z</time>
      </trkpt>
      <trkpt lat="49.76077" lon="4.81252">
        <ele>265</ele>
        <time>2020-10-31T08:55:45.000Z</time>
      </trkpt>
      <trkpt lat="49.7608" lon="4.81254">
        <ele>265</ele>
        <time>2020-10-31T08:55:46.000Z</time>
      </trkpt>
      <trkpt lat="49.76083" lon="4.81257">
        <ele>265</ele>
        <time>2020-10-31T08:55:47.000Z</time>
      </trkpt>
      <trkpt lat="49.76085" lon="4.81259">
        <ele>265</ele>
        <time>2020-10-31T08:55:48.000Z</time>
      </trkpt>
      <trkpt lat="49.76087" lon="4.81262">
        <ele>265</ele>
        <time>2020-10-31T08:55:49.000Z</time>
      </trkpt>
      <trkpt lat="49.7609" lon="4.81265">
        <ele>266</ele>
        <time>2020-10-31T08:55:50.000Z</time>
      </trkpt>
      <trkpt lat="49.76092" lon="4.81267">
        <ele>266</ele>
        <time>2020-10-31T08:55:51.000Z</time>
      </trkpt>
      <trkpt lat="49.76093" lon="4.81269">
        <ele>266</ele>
        <time>2020-10-31T08:55:52.000Z</time>
      </trkpt>
      <trkpt lat="49.76095" lon="4.81271">
        <ele>266</ele>
        <time>2020-10-31T08:55:53.000Z</time>
      </trkpt>
      <trkpt lat="49.76097" lon="4.81274">
        <ele>266</ele>
        <time>2020-10-31T08:55:54.000Z</time>
      </trkpt>
      <trkpt lat="49.761" lon="4.81276">
        <ele>266</ele>
        <time>2020-10-31T08:55:55.000Z</time>
      </trkpt>
      <trkpt lat="49.76102" lon="4.81278">
        <ele>267</ele>
        <time>2020-10-31T08:55:56.000Z</time>
      </trkpt>
      <trkpt lat="49.76105" lon="4.81279">
        <ele>267</ele>
        <time>2020-10-31T08:55:57.000Z</time>
      </trkpt>
      <trkpt lat="49.76107" lon="4.81281">
        <ele>267</ele>
        <time>2020-10-31T08:55:58.000Z</time>
      </trkpt>
      <trkpt lat="49.76109" lon="4.81283">
        <ele>267</ele>
        <time>2020-10-31T08:55:59.000Z</time>
      </trkpt>
      <trkpt lat="49.76111" lon="4.81285">
        <ele>267</ele>
        <time>2020-10-31T08:56:00.000Z</time>
      </trkpt>
      <trkpt lat="49.76113" lon="4.81287">
        <ele>267</ele>
        <time>2020-10-31T08:56:01.000Z</time>
      </trkpt>
      <trkpt lat="49.76115" lon="4.8129">
        <ele>267</ele>
        <time>2020-10-31T08:56:02.000Z</time>
      </trkpt>
      <trkpt lat="49.76117" lon="4.81294">
        <ele>267</ele>
        <time>2020-10-31T08:56:03.000Z</time>
      </trkpt>
      <trkpt lat="49.76119" lon="4.81297">
        <ele>268</ele>
        <time>2020-10-31T08:56:04.000Z</time>
      </trkpt>
      <trkpt lat="49.76121" lon="4.81301">
        <ele>268</ele>
        <time>2020-10-31T08:56:05.000Z</time>
      </trkpt>
      <trkpt lat="49.76121" lon="4.81304">
        <ele>268</ele>
        <time>2020-10-31T08:56:06.000Z</time>
      </trkpt>
      <trkpt lat="49.76122" lon="4.81308">
        <ele>268</ele>
        <time>2020-10-31T08:56:07.000Z</time>
      </trkpt>
      <trkpt lat="49.76123" lon="4.81311">
        <ele>268</ele>
        <time>2020-10-31T08:56:08.000Z</time>
      </trkpt>
      <trkpt lat="49.76123" lon="4.81315">
        <ele>268</ele>
        <time>2020-10-31T08:56:09.000Z</time>
      </trkpt>
      <trkpt lat="49.76124" lon="4.81319">
        <ele>268</ele>
        <time>2020-10-31T08:56:10.000Z</time>
      </trkpt>
      <trkpt lat="49.76124" lon="4.81323">
        <ele>268</ele>
        <time>2020-10-31T08:56:11.000Z</time>
      </trkpt>
      <trkpt lat="49.76125" lon="4.81327">
        <ele>268</ele>
        <time>2020-10-31T08:56:12.000Z</time>
      </trkpt>
      <trkpt lat="49.76126" lon="4.8133">
        <ele>268</ele>
        <time>2020-10-31T08:56:13.000Z</time>
      </trkpt>
      <trkpt lat="49.76126" lon="4.81334">
        <ele>268</ele>
        <time>2020-10-31T08:56:14.000Z</time>
      </trkpt>
      <trkpt lat="49.76126" lon="4.81337">
        <ele>269</ele>
        <time>2020-10-31T08:56:15.000Z</time>
      </trkpt>
      <trkpt lat="49.76127" lon="4.81339">
        <ele>269</ele>
        <time>2020-10-31T08:56:16.000Z</time>
      </trkpt>
      <trkpt lat="49.76127" lon="4.81341">
        <ele>269</ele>
        <time>2020-10-31T08:56:17.000Z</time>
      </trkpt>
      <trkpt lat="49.76128" lon="4.81344">
        <ele>269</ele>
        <time>2020-10-31T08:56:18.000Z</time>
      </trkpt>
      <trkpt lat="49.76128" lon="4.81347">
        <ele>269</ele>
        <time>2020-10-31T08:56:19.000Z</time>
      </trkpt>
      <trkpt lat="49.76128" lon="4.81349">
        <ele>269</ele>
        <time>2020-10-31T08:56:20.000Z</time>
      </trkpt>
      <trkpt lat="49.76128" lon="4.81352">
        <ele>269</ele>
        <time>2020-10-31T08:56:21.000Z</time>
      </trkpt>
      <trkpt lat="49.76129" lon="4.81354">
        <ele>269</ele>
        <time>2020-10-31T08:56:22.000Z</time>
      </trkpt>
      <trkpt lat="49.76129" lon="4.81357">
        <ele>269</ele>
        <time>2020-10-31T08:56:23.000Z</time>
      </trkpt>
      <trkpt lat="49.7613" lon="4.8136">
        <ele>269</ele>
        <time>2020-10-31T08:56:24.000Z</time>
      </trkpt>
      <trkpt lat="49.7613" lon="4.81362">
        <ele>269</ele>
        <time>2020-10-31T08:56:25.000Z</time>
      </trkpt>
      <trkpt lat="49.7613" lon="4.81364">
        <ele>269</ele>
        <time>2020-10-31T08:56:26.000Z</time>
      </trkpt>
      <trkpt lat="49.7613" lon="4.81367">
        <ele>269</ele>
        <time>2020-10-31T08:56:27.000Z</time>
      </trkpt>
      <trkpt lat="49.76129" lon="4.81369">
        <ele>268</ele>
        <time>2020-10-31T08:56:28.000Z</time>
      </trkpt>
      <trkpt lat="49.76129" lon="4.81372">
        <ele>268</ele>
        <time>2020-10-31T08:56:29.000Z</time>
      </trkpt>
      <trkpt lat="49.76128" lon="4.81375">
        <ele>268</ele>
        <time>2020-10-31T08:56:30.000Z</time>
      </trkpt>
      <trkpt lat="49.76128" lon="4.81377">
        <ele>268</ele>
        <time>2020-10-31T08:56:31.000Z</time>
      </trkpt>
      <trkpt lat="49.76128" lon="4.8138">
        <ele>268</ele>
        <time>2020-10-31T08:56:32.000Z</time>
      </trkpt>
      <trkpt lat="49.76128" lon="4.81383">
        <ele>268</ele>
        <time>2020-10-31T08:56:33.000Z</time>
      </trkpt>
      <trkpt lat="49.76128" lon="4.81387">
        <ele>268</ele>
        <time>2020-10-31T08:56:34.000Z</time>
      </trkpt>
      <trkpt lat="49.76128" lon="4.8139">
        <ele>268</ele>
        <time>2020-10-31T08:56:35.000Z</time>
      </trkpt>
      <trkpt lat="49.76128" lon="4.81393">
        <ele>268</ele>
        <time>2020-10-31T08:56:36.000Z</time>
      </trkpt>
      <trkpt lat="49.76128" lon="4.81397">
        <ele>268</ele>
        <time>2020-10-31T08:56:37.000Z</time>
      </trkpt>
      <trkpt lat="49.76128" lon="4.814">
        <ele>268</ele>
        <time>2020-10-31T08:56:38.000Z</time>
      </trkpt>
      <trkpt lat="49.76129" lon="4.81404">
        <ele>268</ele>
        <time>2020-10-31T08:56:39.000Z</time>
      </trkpt>
      <trkpt lat="49.76129" lon="4.81409">
        <ele>268</ele>
        <time>2020-10-31T08:56:40.000Z</time>
      </trkpt>
      <trkpt lat="49.76129" lon="4.81412">
        <ele>268</ele>
        <time>2020-10-31T08:56:41.000Z</time>
      </trkpt>
      <trkpt lat="49.7613" lon="4.81416">
        <ele>268</ele>
        <time>2020-10-31T08:56:42.000Z</time>
      </trkpt>
      <trkpt lat="49.76131" lon="4.81419">
        <ele>268</ele>
        <time>2020-10-31T08:56:43.000Z</time>
      </trkpt>
      <trkpt lat="49.76132" lon="4.81422">
        <ele>268</ele>
        <time>2020-10-31T08:56:44.000Z</time>
      </trkpt>
      <trkpt lat="49.76133" lon="4.81424">
        <ele>268</ele>
        <time>2020-10-31T08:56:45.000Z</time>
      </trkpt>
      <trkpt lat="49.76135" lon="4.81426">
        <ele>268</ele>
        <time>2020-10-31T08:56:46.000Z</time>
      </trkpt>
      <trkpt lat="49.76137" lon="4.81427">
        <ele>268</ele>
        <time>2020-10-31T08:56:47.000Z</time>
      </trkpt>
      <trkpt lat="49.76139" lon="4.81429">
        <ele>268</ele>
        <time>2020-10-31T08:56:48.000Z</time>
      </trkpt>
      <trkpt lat="49.76141" lon="4.81428">
        <ele>268</ele>
        <time>2020-10-31T08:56:49.000Z</time>
      </trkpt>
      <trkpt lat="49.76144" lon="4.81428">
        <ele>268</ele>
        <time>2020-10-31T08:56:50.000Z</time>
      </trkpt>
      <trkpt lat="49.76146" lon="4.81429">
        <ele>268</ele>
        <time>2020-10-31T08:56:51.000Z</time>
      </trkpt>
      <trkpt lat="49.76149" lon="4.8143">
        <ele>268</ele>
        <time>2020-10-31T08:56:52.000Z</time>
      </trkpt>
      <trkpt lat="49.76151" lon="4.8143">
        <ele>268</ele>
        <time>2020-10-31T08:56:53.000Z</time>
      </trkpt>
      <trkpt lat="49.76153" lon="4.81431">
        <ele>268</ele>
        <time>2020-10-31T08:56:54.000Z</time>
      </trkpt>
      <trkpt lat="49.76157" lon="4.81432">
        <ele>268</ele>
        <time>2020-10-31T08:56:55.000Z</time>
      </trkpt>
      <trkpt lat="49.7616" lon="4.81433">
        <ele>269</ele>
        <time>2020-10-31T08:56:56.000Z</time>
      </trkpt>
      <trkpt lat="49.76163" lon="4.81434">
        <ele>269</ele>
        <time>2020-10-31T08:56:57.000Z</time>
      </trkpt>
      <trkpt lat="49.76166" lon="4.81435">
        <ele>269</ele>
        <time>2020-10-31T08:56:58.000Z</time>
      </trkpt>
      <trkpt lat="49.76169" lon="4.81436">
        <ele>269</ele>
        <time>2020-10-31T08:56:59.000Z</time>
      </trkpt>
      <trkpt lat="49.76172" lon="4.81437">
        <ele>269</ele>
        <time>2020-10-31T08:57:00.000Z</time>
      </trkpt>
      <trkpt lat="49.76174" lon="4.81438">
        <ele>270</ele>
        <time>2020-10-31T08:57:01.000Z</time>
      </trkpt>
      <trkpt lat="49.76176" lon="4.81438">
        <ele>270</ele>
        <time>2020-10-31T08:57:02.000Z</time>
      </trkpt>
      <trkpt lat="49.76177" lon="4.81438">
        <ele>270</ele>
        <time>2020-10-31T08:57:03.000Z</time>
      </trkpt>
      <trkpt lat="49.76178" lon="4.81435">
        <ele>270</ele>
        <time>2020-10-31T08:57:04.000Z</time>
      </trkpt>
      <trkpt lat="49.76178" lon="4.81432">
        <ele>270</ele>
        <time>2020-10-31T08:57:05.000Z</time>
      </trkpt>
      <trkpt lat="49.76178" lon="4.81428">
        <ele>270</ele>
        <time>2020-10-31T08:57:06.000Z</time>
      </trkpt>
      <trkpt lat="49.76178" lon="4.81422">
        <ele>271</ele>
        <time>2020-10-31T08:57:07.000Z</time>
      </trkpt>
      <trkpt lat="49.76178" lon="4.81416">
        <ele>271</ele>
        <time>2020-10-31T08:57:08.000Z</time>
      </trkpt>
      <trkpt lat="49.76178" lon="4.81409">
        <ele>271</ele>
        <time>2020-10-31T08:57:09.000Z</time>
      </trkpt>
      <trkpt lat="49.76178" lon="4.81402">
        <ele>271</ele>
        <time>2020-10-31T08:57:10.000Z</time>
      </trkpt>
      <trkpt lat="49.76179" lon="4.81394">
        <ele>271</ele>
        <time>2020-10-31T08:57:11.000Z</time>
      </trkpt>
      <trkpt lat="49.76179" lon="4.81386">
        <ele>271</ele>
        <time>2020-10-31T08:57:12.000Z</time>
      </trkpt>
      <trkpt lat="49.76179" lon="4.81376">
        <ele>271</ele>
        <time>2020-10-31T08:57:13.000Z</time>
      </trkpt>
      <trkpt lat="49.76179" lon="4.81367">
        <ele>271</ele>
        <time>2020-10-31T08:57:14.000Z</time>
      </trkpt>
      <trkpt lat="49.76179" lon="4.81357">
        <ele>271</ele>
        <time>2020-10-31T08:57:15.000Z</time>
      </trkpt>
      <trkpt lat="49.7618" lon="4.81346">
        <ele>270</ele>
        <time>2020-10-31T08:57:16.000Z</time>
      </trkpt>
      <trkpt lat="49.7618" lon="4.81335">
        <ele>270</ele>
        <time>2020-10-31T08:57:17.000Z</time>
      </trkpt>
      <trkpt lat="49.7618" lon="4.81325">
        <ele>270</ele>
        <time>2020-10-31T08:57:18.000Z</time>
      </trkpt>
      <trkpt lat="49.7618" lon="4.81315">
        <ele>270</ele>
        <time>2020-10-31T08:57:19.000Z</time>
      </trkpt>
      <trkpt lat="49.76181" lon="4.81307">
        <ele>270</ele>
        <time>2020-10-31T08:57:20.000Z</time>
      </trkpt>
      <trkpt lat="49.76182" lon="4.813">
        <ele>270</ele>
        <time>2020-10-31T08:57:21.000Z</time>
      </trkpt>
      <trkpt lat="49.76183" lon="4.81295">
        <ele>270</ele>
        <time>2020-10-31T08:57:22.000Z</time>
      </trkpt>
      <trkpt lat="49.76183" lon="4.81291">
        <ele>269</ele>
        <time>2020-10-31T08:57:23.000Z</time>
      </trkpt>
      <trkpt lat="49.76184" lon="4.81288">
        <ele>269</ele>
        <time>2020-10-31T08:57:24.000Z</time>
      </trkpt>
      <trkpt lat="49.76184" lon="4.81285">
        <ele>269</ele>
        <time>2020-10-31T08:57:25.000Z</time>
      </trkpt>
      <trkpt lat="49.76184" lon="4.81281">
        <ele>269</ele>
        <time>2020-10-31T08:57:26.000Z</time>
      </trkpt>
      <trkpt lat="49.76184" lon="4.81276">
        <ele>269</ele>
        <time>2020-10-31T08:57:27.000Z</time>
      </trkpt>
      <trkpt lat="49.76184" lon="4.81272">
        <ele>269</ele>
        <time>2020-10-31T08:57:28.000Z</time>
      </trkpt>
      <trkpt lat="49.76184" lon="4.81268">
        <ele>269</ele>
        <time>2020-10-31T08:57:29.000Z</time>
      </trkpt>
      <trkpt lat="49.76184" lon="4.81264">
        <ele>269</ele>
        <time>2020-10-31T08:57:30.000Z</time>
      </trkpt>
      <trkpt lat="49.76185" lon="4.8126">
        <ele>269</ele>
        <time>2020-10-31T08:57:31.000Z</time>
      </trkpt>
      <trkpt lat="49.76186" lon="4.81257">
        <ele>269</ele>
        <time>2020-10-31T08:57:32.000Z</time>
      </trkpt>
      <trkpt lat="49.76187" lon="4.81252">
        <ele>269</ele>
        <time>2020-10-31T08:57:33.000Z</time>
      </trkpt>
      <trkpt lat="49.76189" lon="4.81249">
        <ele>269</ele>
        <time>2020-10-31T08:57:34.000Z</time>
      </trkpt>
      <trkpt lat="49.76191" lon="4.81246">
        <ele>269</ele>
        <time>2020-10-31T08:57:35.000Z</time>
      </trkpt>
      <trkpt lat="49.76192" lon="4.81243">
        <ele>269</ele>
        <time>2020-10-31T08:57:36.000Z</time>
      </trkpt>
      <trkpt lat="49.76193" lon="4.8124">
        <ele>269</ele>
        <time>2020-10-31T08:57:37.000Z</time>
      </trkpt>
      <trkpt lat="49.76194" lon="4.81237">
        <ele>269</ele>
        <time>2020-10-31T08:57:38.000Z</time>
      </trkpt>
      <trkpt lat="49.76194" lon="4.81235">
        <ele>269</ele>
        <time>2020-10-31T08:57:39.000Z</time>
      </trkpt>
      <trkpt lat="49.76194" lon="4.81231">
        <ele>269</ele>
        <time>2020-10-31T08:57:40.000Z</time>
      </trkpt>
      <trkpt lat="49.76193" lon="4.81226">
        <ele>269</ele>
        <time>2020-10-31T08:57:41.000Z</time>
      </trkpt>
      <trkpt lat="49.76193" lon="4.8122">
        <ele>269</ele>
        <time>2020-10-31T08:57:42.000Z</time>
      </trkpt>
      <trkpt lat="49.76193" lon="4.81215">
        <ele>268</ele>
        <time>2020-10-31T08:57:43.000Z</time>
      </trkpt>
      <trkpt lat="49.76194" lon="4.81209">
        <ele>268</ele>
        <time>2020-10-31T08:57:44.000Z</time>
      </trkpt>
      <trkpt lat="49.76194" lon="4.81204">
        <ele>268</ele>
        <time>2020-10-31T08:57:45.000Z</time>
      </trkpt>
      <trkpt lat="49.76195" lon="4.81198">
        <ele>268</ele>
        <time>2020-10-31T08:57:46.000Z</time>
      </trkpt>
      <trkpt lat="49.76196" lon="4.81192">
        <ele>268</ele>
        <time>2020-10-31T08:57:47.000Z</time>
      </trkpt>
      <trkpt lat="49.76196" lon="4.81187">
        <ele>268</ele>
        <time>2020-10-31T08:57:48.000Z</time>
      </trkpt>
      <trkpt lat="49.76196" lon="4.8118">
        <ele>268</ele>
        <time>2020-10-31T08:57:49.000Z</time>
      </trkpt>
      <trkpt lat="49.76195" lon="4.81173">
        <ele>268</ele>
        <time>2020-10-31T08:57:50.000Z</time>
      </trkpt>
      <trkpt lat="49.76195" lon="4.81165">
        <ele>268</ele>
        <time>2020-10-31T08:57:51.000Z</time>
      </trkpt>
      <trkpt lat="49.76196" lon="4.81157">
        <ele>268</ele>
        <time>2020-10-31T08:57:52.000Z</time>
      </trkpt>
      <trkpt lat="49.76196" lon="4.81149">
        <ele>268</ele>
        <time>2020-10-31T08:57:53.000Z</time>
      </trkpt>
      <trkpt lat="49.76197" lon="4.81141">
        <ele>268</ele>
        <time>2020-10-31T08:57:54.000Z</time>
      </trkpt>
      <trkpt lat="49.76197" lon="4.81133">
        <ele>267</ele>
        <time>2020-10-31T08:57:55.000Z</time>
      </trkpt>
      <trkpt lat="49.76197" lon="4.81124">
        <ele>267</ele>
        <time>2020-10-31T08:57:56.000Z</time>
      </trkpt>
      <trkpt lat="49.76197" lon="4.81115">
        <ele>267</ele>
        <time>2020-10-31T08:57:57.000Z</time>
      </trkpt>
      <trkpt lat="49.76197" lon="4.81107">
        <ele>267</ele>
        <time>2020-10-31T08:57:58.000Z</time>
      </trkpt>
      <trkpt lat="49.76197" lon="4.81098">
        <ele>267</ele>
        <time>2020-10-31T08:57:59.000Z</time>
      </trkpt>
      <trkpt lat="49.76197" lon="4.81089">
        <ele>267</ele>
        <time>2020-10-31T08:58:00.000Z</time>
      </trkpt>
      <trkpt lat="49.76197" lon="4.81079">
        <ele>266</ele>
        <time>2020-10-31T08:58:01.000Z</time>
      </trkpt>
      <trkpt lat="49.76198" lon="4.8107">
        <ele>266</ele>
        <time>2020-10-31T08:58:02.000Z</time>
      </trkpt>
      <trkpt lat="49.76198" lon="4.8106">
        <ele>266</ele>
        <time>2020-10-31T08:58:03.000Z</time>
      </trkpt>
      <trkpt lat="49.76198" lon="4.81051">
        <ele>266</ele>
        <time>2020-10-31T08:58:04.000Z</time>
      </trkpt>
      <trkpt lat="49.76198" lon="4.81042">
        <ele>266</ele>
        <time>2020-10-31T08:58:05.000Z</time>
      </trkpt>
      <trkpt lat="49.76198" lon="4.81034">
        <ele>265</ele>
        <time>2020-10-31T08:58:06.000Z</time>
      </trkpt>
      <trkpt lat="49.76198" lon="4.81026">
        <ele>265</ele>
        <time>2020-10-31T08:58:07.000Z</time>
      </trkpt>
      <trkpt lat="49.76198" lon="4.81018">
        <ele>265</ele>
        <time>2020-10-31T08:58:08.000Z</time>
      </trkpt>
      <trkpt lat="49.76198" lon="4.8101">
        <ele>265</ele>
        <time>2020-10-31T08:58:09.000Z</time>
      </trkpt>
      <trkpt lat="49.76198" lon="4.81003">
        <ele>265</ele>
        <time>2020-10-31T08:58:10.000Z</time>
      </trkpt>
      <trkpt lat="49.76198" lon="4.80996">
        <ele>265</ele>
        <time>2020-10-31T08:58:11.000Z</time>
      </trkpt>
      <trkpt lat="49.76199" lon="4.80989">
        <ele>265</ele>
        <time>2020-10-31T08:58:12.000Z</time>
      </trkpt>
      <trkpt lat="49.76199" lon="4.80983">
        <ele>265</ele>
        <time>2020-10-31T08:58:13.000Z</time>
      </trkpt>
      <trkpt lat="49.762" lon="4.80977">
        <ele>265</ele>
        <time>2020-10-31T08:58:14.000Z</time>
      </trkpt>
      <trkpt lat="49.762" lon="4.8097">
        <ele>265</ele>
        <time>2020-10-31T08:58:15.000Z</time>
      </trkpt>
      <trkpt lat="49.762" lon="4.80965">
        <ele>266</ele>
        <time>2020-10-31T08:58:16.000Z</time>
      </trkpt>
      <trkpt lat="49.762" lon="4.80959">
        <ele>266</ele>
        <time>2020-10-31T08:58:17.000Z</time>
      </trkpt>
      <trkpt lat="49.762" lon="4.80953">
        <ele>266</ele>
        <time>2020-10-31T08:58:18.000Z</time>
      </trkpt>
      <trkpt lat="49.762" lon="4.80948">
        <ele>266</ele>
        <time>2020-10-31T08:58:19.000Z</time>
      </trkpt>
      <trkpt lat="49.762" lon="4.80942">
        <ele>266</ele>
        <time>2020-10-31T08:58:20.000Z</time>
      </trkpt>
      <trkpt lat="49.76199" lon="4.80938">
        <ele>266</ele>
        <time>2020-10-31T08:58:21.000Z</time>
      </trkpt>
      <trkpt lat="49.76199" lon="4.80934">
        <ele>266</ele>
        <time>2020-10-31T08:58:22.000Z</time>
      </trkpt>
      <trkpt lat="49.76199" lon="4.80928">
        <ele>266</ele>
        <time>2020-10-31T08:58:23.000Z</time>
      </trkpt>
      <trkpt lat="49.76201" lon="4.80923">
        <ele>266</ele>
        <time>2020-10-31T08:58:24.000Z</time>
      </trkpt>
      <trkpt lat="49.76203" lon="4.80918">
        <ele>266</ele>
        <time>2020-10-31T08:58:25.000Z</time>
      </trkpt>
      <trkpt lat="49.76206" lon="4.80915">
        <ele>266</ele>
        <time>2020-10-31T08:58:26.000Z</time>
      </trkpt>
      <trkpt lat="49.76209" lon="4.80913">
        <ele>266</ele>
        <time>2020-10-31T08:58:27.000Z</time>
      </trkpt>
      <trkpt lat="49.76212" lon="4.80911">
        <ele>266</ele>
        <time>2020-10-31T08:58:28.000Z</time>
      </trkpt>
      <trkpt lat="49.76215" lon="4.8091">
        <ele>266</ele>
        <time>2020-10-31T08:58:29.000Z</time>
      </trkpt>
      <trkpt lat="49.76217" lon="4.80909">
        <ele>266</ele>
        <time>2020-10-31T08:58:30.000Z</time>
      </trkpt>
      <trkpt lat="49.7622" lon="4.80909">
        <ele>266</ele>
        <time>2020-10-31T08:58:31.000Z</time>
      </trkpt>
      <trkpt lat="49.76222" lon="4.80909">
        <ele>266</ele>
        <time>2020-10-31T08:58:32.000Z</time>
      </trkpt>
      <trkpt lat="49.76225" lon="4.80909">
        <ele>266</ele>
        <time>2020-10-31T08:58:33.000Z</time>
      </trkpt>
      <trkpt lat="49.76227" lon="4.80909">
        <ele>267</ele>
        <time>2020-10-31T08:58:34.000Z</time>
      </trkpt>
      <trkpt lat="49.76229" lon="4.8091">
        <ele>267</ele>
        <time>2020-10-31T08:58:35.000Z</time>
      </trkpt>
      <trkpt lat="49.76231" lon="4.8091">
        <ele>267</ele>
        <time>2020-10-31T08:58:36.000Z</time>
      </trkpt>
      <trkpt lat="49.76233" lon="4.80911">
        <ele>267</ele>
        <time>2020-10-31T08:58:37.000Z</time>
      </trkpt>
      <trkpt lat="49.76235" lon="4.80912">
        <ele>267</ele>
        <time>2020-10-31T08:58:38.000Z</time>
      </trkpt>
      <trkpt lat="49.76237" lon="4.80912">
        <ele>268</ele>
        <time>2020-10-31T08:58:39.000Z</time>
      </trkpt>
      <trkpt lat="49.76239" lon="4.80913">
        <ele>268</ele>
        <time>2020-10-31T08:58:40.000Z</time>
      </trkpt>
      <trkpt lat="49.76241" lon="4.80914">
        <ele>268</ele>
        <time>2020-10-31T08:58:41.000Z</time>
      </trkpt>
      <trkpt lat="49.76243" lon="4.80915">
        <ele>268</ele>
        <time>2020-10-31T08:58:42.000Z</time>
      </trkpt>
      <trkpt lat="49.76245" lon="4.80915">
        <ele>268</ele>
        <time>2020-10-31T08:58:43.000Z</time>
      </trkpt>
      <trkpt lat="49.76248" lon="4.80917">
        <ele>268</ele>
        <time>2020-10-31T08:58:44.000Z</time>
      </trkpt>
      <trkpt lat="49.7625" lon="4.80918">
        <ele>269</ele>
        <time>2020-10-31T08:58:45.000Z</time>
      </trkpt>
      <trkpt lat="49.76253" lon="4.80919">
        <ele>269</ele>
        <time>2020-10-31T08:58:46.000Z</time>
      </trkpt>
      <trkpt lat="49.76256" lon="4.8092">
        <ele>269</ele>
        <time>2020-10-31T08:58:47.000Z</time>
      </trkpt>
      <trkpt lat="49.76258" lon="4.80921">
        <ele>269</ele>
        <time>2020-10-31T08:58:48.000Z</time>
      </trkpt>
      <trkpt lat="49.76261" lon="4.80922">
        <ele>270</ele>
        <time>2020-10-31T08:58:49.000Z</time>
      </trkpt>
      <trkpt lat="49.76264" lon="4.80924">
        <ele>270</ele>
        <time>2020-10-31T08:58:50.000Z</time>
      </trkpt>
      <trkpt lat="49.76266" lon="4.80925">
        <ele>270</ele>
        <time>2020-10-31T08:58:51.000Z</time>
      </trkpt>
      <trkpt lat="49.76269" lon="4.80926">
        <ele>270</ele>
        <time>2020-10-31T08:58:52.000Z</time>
      </trkpt>
      <trkpt lat="49.76272" lon="4.80927">
        <ele>271</ele>
        <time>2020-10-31T08:58:53.000Z</time>
      </trkpt>
      <trkpt lat="49.76275" lon="4.80928">
        <ele>271</ele>
        <time>2020-10-31T08:58:54.000Z</time>
      </trkpt>
      <trkpt lat="49.76277" lon="4.80929">
        <ele>271</ele>
        <time>2020-10-31T08:58:55.000Z</time>
      </trkpt>
      <trkpt lat="49.7628" lon="4.8093">
        <ele>271</ele>
        <time>2020-10-31T08:58:56.000Z</time>
      </trkpt>
      <trkpt lat="49.76283" lon="4.80931">
        <ele>272</ele>
        <time>2020-10-31T08:58:57.000Z</time>
      </trkpt>
      <trkpt lat="49.76285" lon="4.80932">
        <ele>272</ele>
        <time>2020-10-31T08:58:58.000Z</time>
      </trkpt>
      <trkpt lat="49.76288" lon="4.80933">
        <ele>272</ele>
        <time>2020-10-31T08:58:59.000Z</time>
      </trkpt>
      <trkpt lat="49.7629" lon="4.80934">
        <ele>272</ele>
        <time>2020-10-31T08:59:00.000Z</time>
      </trkpt>
      <trkpt lat="49.76293" lon="4.80935">
        <ele>272</ele>
        <time>2020-10-31T08:59:01.000Z</time>
      </trkpt>
      <trkpt lat="49.76296" lon="4.80936">
        <ele>273</ele>
        <time>2020-10-31T08:59:02.000Z</time>
      </trkpt>
      <trkpt lat="49.76298" lon="4.80937">
        <ele>273</ele>
        <time>2020-10-31T08:59:03.000Z</time>
      </trkpt>
      <trkpt lat="49.76301" lon="4.80937">
        <ele>273</ele>
        <time>2020-10-31T08:59:04.000Z</time>
      </trkpt>
      <trkpt lat="49.76303" lon="4.80936">
        <ele>273</ele>
        <time>2020-10-31T08:59:05.000Z</time>
      </trkpt>
      <trkpt lat="49.76305" lon="4.80934">
        <ele>273</ele>
        <time>2020-10-31T08:59:06.000Z</time>
      </trkpt>
      <trkpt lat="49.76306" lon="4.8093">
        <ele>273</ele>
        <time>2020-10-31T08:59:07.000Z</time>
      </trkpt>
      <trkpt lat="49.76306" lon="4.80925">
        <ele>273</ele>
        <time>2020-10-31T08:59:08.000Z</time>
      </trkpt>
      <trkpt lat="49.76307" lon="4.8092">
        <ele>274</ele>
        <time>2020-10-31T08:59:09.000Z</time>
      </trkpt>
      <trkpt lat="49.76308" lon="4.80914">
        <ele>274</ele>
        <time>2020-10-31T08:59:10.000Z</time>
      </trkpt>
      <trkpt lat="49.76308" lon="4.80908">
        <ele>274</ele>
        <time>2020-10-31T08:59:11.000Z</time>
      </trkpt>
      <trkpt lat="49.76309" lon="4.80903">
        <ele>274</ele>
        <time>2020-10-31T08:59:12.000Z</time>
      </trkpt>
      <trkpt lat="49.7631" lon="4.80898">
        <ele>274</ele>
        <time>2020-10-31T08:59:13.000Z</time>
      </trkpt>
      <trkpt lat="49.76311" lon="4.80893">
        <ele>274</ele>
        <time>2020-10-31T08:59:14.000Z</time>
      </trkpt>
      <trkpt lat="49.76312" lon="4.80887">
        <ele>275</ele>
        <time>2020-10-31T08:59:15.000Z</time>
      </trkpt>
      <trkpt lat="49.76312" lon="4.80882">
        <ele>275</ele>
        <time>2020-10-31T08:59:16.000Z</time>
      </trkpt>
      <trkpt lat="49.76312" lon="4.80876">
        <ele>275</ele>
        <time>2020-10-31T08:59:17.000Z</time>
      </trkpt>
      <trkpt lat="49.76312" lon="4.8087">
        <ele>275</ele>
        <time>2020-10-31T08:59:18.000Z</time>
      </trkpt>
      <trkpt lat="49.76313" lon="4.80865">
        <ele>275</ele>
        <time>2020-10-31T08:59:19.000Z</time>
      </trkpt>
      <trkpt lat="49.76313" lon="4.8086">
        <ele>275</ele>
        <time>2020-10-31T08:59:20.000Z</time>
      </trkpt>
      <trkpt lat="49.76313" lon="4.80854">
        <ele>275</ele>
        <time>2020-10-31T08:59:21.000Z</time>
      </trkpt>
      <trkpt lat="49.76313" lon="4.80848">
        <ele>275</ele>
        <time>2020-10-31T08:59:22.000Z</time>
      </trkpt>
      <trkpt lat="49.76313" lon="4.80842">
        <ele>275</ele>
        <time>2020-10-31T08:59:23.000Z</time>
      </trkpt>
      <trkpt lat="49.76312" lon="4.80836">
        <ele>275</ele>
        <time>2020-10-31T08:59:24.000Z</time>
      </trkpt>
      <trkpt lat="49.76312" lon="4.8083">
        <ele>275</ele>
        <time>2020-10-31T08:59:25.000Z</time>
      </trkpt>
      <trkpt lat="49.76312" lon="4.80824">
        <ele>275</ele>
        <time>2020-10-31T08:59:26.000Z</time>
      </trkpt>
      <trkpt lat="49.76312" lon="4.80818">
        <ele>275</ele>
        <time>2020-10-31T08:59:27.000Z</time>
      </trkpt>
      <trkpt lat="49.76312" lon="4.80811">
        <ele>275</ele>
        <time>2020-10-31T08:59:28.000Z</time>
      </trkpt>
      <trkpt lat="49.76312" lon="4.80806">
        <ele>275</ele>
        <time>2020-10-31T08:59:29.000Z</time>
      </trkpt>
      <trkpt lat="49.76312" lon="4.80799">
        <ele>275</ele>
        <time>2020-10-31T08:59:30.000Z</time>
      </trkpt>
      <trkpt lat="49.76311" lon="4.80793">
        <ele>275</ele>
        <time>2020-10-31T08:59:31.000Z</time>
      </trkpt>
      <trkpt lat="49.76311" lon="4.80787">
        <ele>275</ele>
        <time>2020-10-31T08:59:32.000Z</time>
      </trkpt>
      <trkpt lat="49.7631" lon="4.8078">
        <ele>275</ele>
        <time>2020-10-31T08:59:33.000Z</time>
      </trkpt>
      <trkpt lat="49.7631" lon="4.80774">
        <ele>275</ele>
        <time>2020-10-31T08:59:34.000Z</time>
      </trkpt>
      <trkpt lat="49.76311" lon="4.80768">
        <ele>275</ele>
        <time>2020-10-31T08:59:35.000Z</time>
      </trkpt>
      <trkpt lat="49.76311" lon="4.80762">
        <ele>274</ele>
        <time>2020-10-31T08:59:36.000Z</time>
      </trkpt>
      <trkpt lat="49.76312" lon="4.80756">
        <ele>274</ele>
        <time>2020-10-31T08:59:37.000Z</time>
      </trkpt>
      <trkpt lat="49.76313" lon="4.8075">
        <ele>274</ele>
        <time>2020-10-31T08:59:38.000Z</time>
      </trkpt>
      <trkpt lat="49.76314" lon="4.80745">
        <ele>274</ele>
        <time>2020-10-31T08:59:39.000Z</time>
      </trkpt>
      <trkpt lat="49.76316" lon="4.80739">
        <ele>274</ele>
        <time>2020-10-31T08:59:40.000Z</time>
      </trkpt>
      <trkpt lat="49.76318" lon="4.80734">
        <ele>274</ele>
        <time>2020-10-31T08:59:41.000Z</time>
      </trkpt>
      <trkpt lat="49.7632" lon="4.80729">
        <ele>274</ele>
        <time>2020-10-31T08:59:42.000Z</time>
      </trkpt>
      <trkpt lat="49.76322" lon="4.80724">
        <ele>274</ele>
        <time>2020-10-31T08:59:43.000Z</time>
      </trkpt>
      <trkpt lat="49.76324" lon="4.80719">
        <ele>274</ele>
        <time>2020-10-31T08:59:44.000Z</time>
      </trkpt>
      <trkpt lat="49.76327" lon="4.80715">
        <ele>274</ele>
        <time>2020-10-31T08:59:45.000Z</time>
      </trkpt>
      <trkpt lat="49.7633" lon="4.8071">
        <ele>274</ele>
        <time>2020-10-31T08:59:46.000Z</time>
      </trkpt>
      <trkpt lat="49.76332" lon="4.80706">
        <ele>274</ele>
        <time>2020-10-31T08:59:47.000Z</time>
      </trkpt>
      <trkpt lat="49.76335" lon="4.807">
        <ele>274</ele>
        <time>2020-10-31T08:59:48.000Z</time>
      </trkpt>
      <trkpt lat="49.76338" lon="4.80696">
        <ele>274</ele>
        <time>2020-10-31T08:59:49.000Z</time>
      </trkpt>
      <trkpt lat="49.7634" lon="4.80691">
        <ele>273</ele>
        <time>2020-10-31T08:59:50.000Z</time>
      </trkpt>
      <trkpt lat="49.76343" lon="4.80687">
        <ele>273</ele>
        <time>2020-10-31T08:59:51.000Z</time>
      </trkpt>
      <trkpt lat="49.76346" lon="4.80682">
        <ele>273</ele>
        <time>2020-10-31T08:59:52.000Z</time>
      </trkpt>
      <trkpt lat="49.76348" lon="4.80677">
        <ele>273</ele>
        <time>2020-10-31T08:59:53.000Z</time>
      </trkpt>
      <trkpt lat="49.76351" lon="4.80673">
        <ele>273</ele>
        <time>2020-10-31T08:59:54.000Z</time>
      </trkpt>
      <trkpt lat="49.76354" lon="4.80667">
        <ele>273</ele>
        <time>2020-10-31T08:59:55.000Z</time>
      </trkpt>
      <trkpt lat="49.76358" lon="4.80662">
        <ele>273</ele>
        <time>2020-10-31T08:59:56.000Z</time>
      </trkpt>
      <trkpt lat="49.76361" lon="4.80658">
        <ele>273</ele>
        <time>2020-10-31T08:59:57.000Z</time>
      </trkpt>
      <trkpt lat="49.76365" lon="4.80653">
        <ele>273</ele>
        <time>2020-10-31T08:59:58.000Z</time>
      </trkpt>
      <trkpt lat="49.76368" lon="4.80649">
        <ele>273</ele>
        <time>2020-10-31T08:59:59.000Z</time>
      </trkpt>
      <trkpt lat="49.76372" lon="4.80646">
        <ele>273</ele>
        <time>2020-10-31T09:00:00.000Z</time>
      </trkpt>
      <trkpt lat="49.76376" lon="4.80642">
        <ele>273</ele>
        <time>2020-10-31T09:00:01.000Z</time>
      </trkpt>
      <trkpt lat="49.7638" lon="4.80639">
        <ele>272</ele>
        <time>2020-10-31T09:00:02.000Z</time>
      </trkpt>
      <trkpt lat="49.76384" lon="4.80636">
        <ele>272</ele>
        <time>2020-10-31T09:00:03.000Z</time>
      </trkpt>
      <trkpt lat="49.76388" lon="4.80632">
        <ele>272</ele>
        <time>2020-10-31T09:00:04.000Z</time>
      </trkpt>
      <trkpt lat="49.76392" lon="4.80629">
        <ele>272</ele>
        <time>2020-10-31T09:00:05.000Z</time>
      </trkpt>
      <trkpt lat="49.76397" lon="4.80626">
        <ele>272</ele>
        <time>2020-10-31T09:00:06.000Z</time>
      </trkpt>
      <trkpt lat="49.76401" lon="4.80622">
        <ele>272</ele>
        <time>2020-10-31T09:00:07.000Z</time>
      </trkpt>
      <trkpt lat="49.76406" lon="4.80619">
        <ele>272</ele>
        <time>2020-10-31T09:00:08.000Z</time>
      </trkpt>
      <trkpt lat="49.7641" lon="4.80617">
        <ele>272</ele>
        <time>2020-10-31T09:00:09.000Z</time>
      </trkpt>
      <trkpt lat="49.76414" lon="4.80614">
        <ele>272</ele>
        <time>2020-10-31T09:00:10.000Z</time>
      </trkpt>
      <trkpt lat="49.76418" lon="4.80611">
        <ele>272</ele>
        <time>2020-10-31T09:00:11.000Z</time>
      </trkpt>
      <trkpt lat="49.76423" lon="4.80608">
        <ele>272</ele>
        <time>2020-10-31T09:00:12.000Z</time>
      </trkpt>
      <trkpt lat="49.76427" lon="4.80605">
        <ele>272</ele>
        <time>2020-10-31T09:00:13.000Z</time>
      </trkpt>
      <trkpt lat="49.76431" lon="4.80602">
        <ele>272</ele>
        <time>2020-10-31T09:00:14.000Z</time>
      </trkpt>
      <trkpt lat="49.76435" lon="4.80599">
        <ele>272</ele>
        <time>2020-10-31T09:00:15.000Z</time>
      </trkpt>
      <trkpt lat="49.7644" lon="4.80596">
        <ele>272</ele>
        <time>2020-10-31T09:00:16.000Z</time>
      </trkpt>
      <trkpt lat="49.76444" lon="4.80593">
        <ele>272</ele>
        <time>2020-10-31T09:00:17.000Z</time>
      </trkpt>
      <trkpt lat="49.76449" lon="4.8059">
        <ele>272</ele>
        <time>2020-10-31T09:00:18.000Z</time>
      </trkpt>
      <trkpt lat="49.76453" lon="4.80586">
        <ele>272</ele>
        <time>2020-10-31T09:00:19.000Z</time>
      </trkpt>
      <trkpt lat="49.76458" lon="4.80583">
        <ele>272</ele>
        <time>2020-10-31T09:00:20.000Z</time>
      </trkpt>
      <trkpt lat="49.76462" lon="4.80579">
        <ele>271</ele>
        <time>2020-10-31T09:00:21.000Z</time>
      </trkpt>
      <trkpt lat="49.76467" lon="4.80576">
        <ele>271</ele>
        <time>2020-10-31T09:00:22.000Z</time>
      </trkpt>
      <trkpt lat="49.76471" lon="4.80572">
        <ele>271</ele>
        <time>2020-10-31T09:00:23.000Z</time>
      </trkpt>
      <trkpt lat="49.76476" lon="4.80568">
        <ele>271</ele>
        <time>2020-10-31T09:00:24.000Z</time>
      </trkpt>
      <trkpt lat="49.7648" lon="4.80564">
        <ele>271</ele>
        <time>2020-10-31T09:00:25.000Z</time>
      </trkpt>
      <trkpt lat="49.76484" lon="4.80561">
        <ele>271</ele>
        <time>2020-10-31T09:00:26.000Z</time>
      </trkpt>
      <trkpt lat="49.76488" lon="4.80557">
        <ele>271</ele>
        <time>2020-10-31T09:00:27.000Z</time>
      </trkpt>
      <trkpt lat="49.76493" lon="4.80553">
        <ele>271</ele>
        <time>2020-10-31T09:00:28.000Z</time>
      </trkpt>
      <trkpt lat="49.76496" lon="4.8055">
        <ele>271</ele>
        <time>2020-10-31T09:00:29.000Z</time>
      </trkpt>
      <trkpt lat="49.765" lon="4.80546">
        <ele>272</ele>
        <time>2020-10-31T09:00:30.000Z</time>
      </trkpt>
      <trkpt lat="49.76504" lon="4.80542">
        <ele>272</ele>
        <time>2020-10-31T09:00:31.000Z</time>
      </trkpt>
      <trkpt lat="49.76508" lon="4.80538">
        <ele>272</ele>
        <time>2020-10-31T09:00:32.000Z</time>
      </trkpt>
      <trkpt lat="49.76512" lon="4.80534">
        <ele>272</ele>
        <time>2020-10-31T09:00:33.000Z</time>
      </trkpt>
      <trkpt lat="49.76516" lon="4.8053">
        <ele>272</ele>
        <time>2020-10-31T09:00:34.000Z</time>
      </trkpt>
      <trkpt lat="49.7652" lon="4.80526">
        <ele>272</ele>
        <time>2020-10-31T09:00:35.000Z</time>
      </trkpt>
      <trkpt lat="49.76523" lon="4.80522">
        <ele>271</ele>
        <time>2020-10-31T09:00:36.000Z</time>
      </trkpt>
      <trkpt lat="49.76528" lon="4.8052">
        <ele>271</ele>
        <time>2020-10-31T09:00:37.000Z</time>
      </trkpt>
      <trkpt lat="49.76532" lon="4.80519">
        <ele>271</ele>
        <time>2020-10-31T09:00:38.000Z</time>
      </trkpt>
      <trkpt lat="49.76537" lon="4.80518">
        <ele>272</ele>
        <time>2020-10-31T09:00:39.000Z</time>
      </trkpt>
      <trkpt lat="49.76542" lon="4.80518">
        <ele>272</ele>
        <time>2020-10-31T09:00:40.000Z</time>
      </trkpt>
      <trkpt lat="49.76547" lon="4.80518">
        <ele>272</ele>
        <time>2020-10-31T09:00:41.000Z</time>
      </trkpt>
      <trkpt lat="49.76551" lon="4.80517">
        <ele>272</ele>
        <time>2020-10-31T09:00:42.000Z</time>
      </trkpt>
      <trkpt lat="49.76555" lon="4.80515">
        <ele>272</ele>
        <time>2020-10-31T09:00:43.000Z</time>
      </trkpt>
      <trkpt lat="49.76559" lon="4.80514">
        <ele>272</ele>
        <time>2020-10-31T09:00:44.000Z</time>
      </trkpt>
      <trkpt lat="49.76563" lon="4.80512">
        <ele>272</ele>
        <time>2020-10-31T09:00:45.000Z</time>
      </trkpt>
      <trkpt lat="49.76566" lon="4.80511">
        <ele>273</ele>
        <time>2020-10-31T09:00:46.000Z</time>
      </trkpt>
      <trkpt lat="49.7657" lon="4.80509">
        <ele>273</ele>
        <time>2020-10-31T09:00:47.000Z</time>
      </trkpt>
      <trkpt lat="49.76575" lon="4.80508">
        <ele>273</ele>
        <time>2020-10-31T09:00:48.000Z</time>
      </trkpt>
      <trkpt lat="49.76578" lon="4.80506">
        <ele>273</ele>
        <time>2020-10-31T09:00:49.000Z</time>
      </trkpt>
      <trkpt lat="49.76582" lon="4.80504">
        <ele>273</ele>
        <time>2020-10-31T09:00:50.000Z</time>
      </trkpt>
      <trkpt lat="49.76586" lon="4.80502">
        <ele>273</ele>
        <time>2020-10-31T09:00:51.000Z</time>
      </trkpt>
      <trkpt lat="49.76589" lon="4.80501">
        <ele>273</ele>
        <time>2020-10-31T09:00:52.000Z</time>
      </trkpt>
      <trkpt lat="49.76593" lon="4.80499">
        <ele>273</ele>
        <time>2020-10-31T09:00:53.000Z</time>
      </trkpt>
      <trkpt lat="49.76597" lon="4.80498">
        <ele>273</ele>
        <time>2020-10-31T09:00:54.000Z</time>
      </trkpt>
      <trkpt lat="49.76601" lon="4.80496">
        <ele>273</ele>
        <time>2020-10-31T09:00:55.000Z</time>
      </trkpt>
      <trkpt lat="49.76604" lon="4.80494">
        <ele>274</ele>
        <time>2020-10-31T09:00:56.000Z</time>
      </trkpt>
      <trkpt lat="49.76607" lon="4.80492">
        <ele>274</ele>
        <time>2020-10-31T09:00:57.000Z</time>
      </trkpt>
      <trkpt lat="49.76609" lon="4.80491">
        <ele>274</ele>
        <time>2020-10-31T09:00:58.000Z</time>
      </trkpt>
      <trkpt lat="49.76613" lon="4.8049">
        <ele>274</ele>
        <time>2020-10-31T09:00:59.000Z</time>
      </trkpt>
      <trkpt lat="49.76616" lon="4.80489">
        <ele>275</ele>
        <time>2020-10-31T09:01:00.000Z</time>
      </trkpt>
      <trkpt lat="49.7662" lon="4.80487">
        <ele>275</ele>
        <time>2020-10-31T09:01:01.000Z</time>
      </trkpt>
      <trkpt lat="49.76623" lon="4.80486">
        <ele>275</ele>
        <time>2020-10-31T09:01:02.000Z</time>
      </trkpt>
      <trkpt lat="49.76627" lon="4.80484">
        <ele>276</ele>
        <time>2020-10-31T09:01:03.000Z</time>
      </trkpt>
      <trkpt lat="49.76631" lon="4.80483">
        <ele>276</ele>
        <time>2020-10-31T09:01:04.000Z</time>
      </trkpt>
      <trkpt lat="49.76634" lon="4.80482">
        <ele>276</ele>
        <time>2020-10-31T09:01:05.000Z</time>
      </trkpt>
      <trkpt lat="49.76636" lon="4.80481">
        <ele>277</ele>
        <time>2020-10-31T09:01:06.000Z</time>
      </trkpt>
      <trkpt lat="49.76639" lon="4.80481">
        <ele>277</ele>
        <time>2020-10-31T09:01:07.000Z</time>
      </trkpt>
      <trkpt lat="49.76642" lon="4.8048">
        <ele>277</ele>
        <time>2020-10-31T09:01:08.000Z</time>
      </trkpt>
      <trkpt lat="49.76646" lon="4.8048">
        <ele>278</ele>
        <time>2020-10-31T09:01:09.000Z</time>
      </trkpt>
      <trkpt lat="49.76649" lon="4.80479">
        <ele>278</ele>
        <time>2020-10-31T09:01:10.000Z</time>
      </trkpt>
      <trkpt lat="49.76653" lon="4.80479">
        <ele>279</ele>
        <time>2020-10-31T09:01:11.000Z</time>
      </trkpt>
      <trkpt lat="49.76657" lon="4.80479">
        <ele>279</ele>
        <time>2020-10-31T09:01:12.000Z</time>
      </trkpt>
      <trkpt lat="49.76661" lon="4.80479">
        <ele>280</ele>
        <time>2020-10-31T09:01:13.000Z</time>
      </trkpt>
      <trkpt lat="49.76665" lon="4.80479">
        <ele>280</ele>
        <time>2020-10-31T09:01:14.000Z</time>
      </trkpt>
      <trkpt lat="49.76669" lon="4.8048">
        <ele>280</ele>
        <time>2020-10-31T09:01:15.000Z</time>
      </trkpt>
      <trkpt lat="49.76673" lon="4.80481">
        <ele>281</ele>
        <time>2020-10-31T09:01:16.000Z</time>
      </trkpt>
      <trkpt lat="49.76677" lon="4.80482">
        <ele>281</ele>
        <time>2020-10-31T09:01:17.000Z</time>
      </trkpt>
      <trkpt lat="49.7668" lon="4.80483">
        <ele>281</ele>
        <time>2020-10-31T09:01:18.000Z</time>
      </trkpt>
      <trkpt lat="49.76684" lon="4.80483">
        <ele>281</ele>
        <time>2020-10-31T09:01:19.000Z</time>
      </trkpt>
      <trkpt lat="49.76687" lon="4.80483">
        <ele>281</ele>
        <time>2020-10-31T09:01:20.000Z</time>
      </trkpt>
      <trkpt lat="49.76691" lon="4.80482">
        <ele>282</ele>
        <time>2020-10-31T09:01:21.000Z</time>
      </trkpt>
      <trkpt lat="49.76695" lon="4.80481">
        <ele>282</ele>
        <time>2020-10-31T09:01:22.000Z</time>
      </trkpt>
      <trkpt lat="49.76699" lon="4.8048">
        <ele>282</ele>
        <time>2020-10-31T09:01:23.000Z</time>
      </trkpt>
      <trkpt lat="49.76702" lon="4.80479">
        <ele>282</ele>
        <time>2020-10-31T09:01:24.000Z</time>
      </trkpt>
      <trkpt lat="49.76706" lon="4.80477">
        <ele>282</ele>
        <time>2020-10-31T09:01:25.000Z</time>
      </trkpt>
      <trkpt lat="49.7671" lon="4.80476">
        <ele>282</ele>
        <time>2020-10-31T09:01:26.000Z</time>
      </trkpt>
      <trkpt lat="49.76713" lon="4.80474">
        <ele>282</ele>
        <time>2020-10-31T09:01:27.000Z</time>
      </trkpt>
      <trkpt lat="49.76717" lon="4.80472">
        <ele>282</ele>
        <time>2020-10-31T09:01:28.000Z</time>
      </trkpt>
      <trkpt lat="49.76721" lon="4.80471">
        <ele>282</ele>
        <time>2020-10-31T09:01:29.000Z</time>
      </trkpt>
      <trkpt lat="49.76724" lon="4.8047">
        <ele>282</ele>
        <time>2020-10-31T09:01:30.000Z</time>
      </trkpt>
      <trkpt lat="49.76728" lon="4.8047">
        <ele>282</ele>
        <time>2020-10-31T09:01:31.000Z</time>
      </trkpt>
      <trkpt lat="49.76732" lon="4.80469">
        <ele>282</ele>
        <time>2020-10-31T09:01:32.000Z</time>
      </trkpt>
      <trkpt lat="49.76735" lon="4.80467">
        <ele>282</ele>
        <time>2020-10-31T09:01:33.000Z</time>
      </trkpt>
      <trkpt lat="49.76739" lon="4.80465">
        <ele>282</ele>
        <time>2020-10-31T09:01:34.000Z</time>
      </trkpt>
      <trkpt lat="49.76743" lon="4.80463">
        <ele>282</ele>
        <time>2020-10-31T09:01:35.000Z</time>
      </trkpt>
      <trkpt lat="49.76746" lon="4.80462">
        <ele>282</ele>
        <time>2020-10-31T09:01:36.000Z</time>
      </trkpt>
      <trkpt lat="49.7675" lon="4.80461">
        <ele>282</ele>
        <time>2020-10-31T09:01:37.000Z</time>
      </trkpt>
      <trkpt lat="49.76753" lon="4.8046">
        <ele>282</ele>
        <time>2020-10-31T09:01:38.000Z</time>
      </trkpt>
      <trkpt lat="49.76756" lon="4.80458">
        <ele>282</ele>
        <time>2020-10-31T09:01:39.000Z</time>
      </trkpt>
      <trkpt lat="49.76759" lon="4.80457">
        <ele>282</ele>
        <time>2020-10-31T09:01:40.000Z</time>
      </trkpt>
      <trkpt lat="49.76762" lon="4.80457">
        <ele>282</ele>
        <time>2020-10-31T09:01:41.000Z</time>
      </trkpt>
      <trkpt lat="49.76765" lon="4.80458">
        <ele>283</ele>
        <time>2020-10-31T09:01:42.000Z</time>
      </trkpt>
      <trkpt lat="49.76768" lon="4.80458">
        <ele>283</ele>
        <time>2020-10-31T09:01:43.000Z</time>
      </trkpt>
      <trkpt lat="49.76771" lon="4.80457">
        <ele>283</ele>
        <time>2020-10-31T09:01:44.000Z</time>
      </trkpt>
      <trkpt lat="49.76775" lon="4.80457">
        <ele>283</ele>
        <time>2020-10-31T09:01:45.000Z</time>
      </trkpt>
      <trkpt lat="49.76778" lon="4.80455">
        <ele>283</ele>
        <time>2020-10-31T09:01:46.000Z</time>
      </trkpt>
      <trkpt lat="49.76782" lon="4.80453">
        <ele>283</ele>
        <time>2020-10-31T09:01:47.000Z</time>
      </trkpt>
      <trkpt lat="49.76785" lon="4.80452">
        <ele>283</ele>
        <time>2020-10-31T09:01:48.000Z</time>
      </trkpt>
      <trkpt lat="49.76789" lon="4.8045">
        <ele>283</ele>
        <time>2020-10-31T09:01:49.000Z</time>
      </trkpt>
      <trkpt lat="49.76793" lon="4.80449">
        <ele>283</ele>
        <time>2020-10-31T09:01:50.000Z</time>
      </trkpt>
      <trkpt lat="49.76797" lon="4.80446">
        <ele>283</ele>
        <time>2020-10-31T09:01:51.000Z</time>
      </trkpt>
      <trkpt lat="49.76801" lon="4.80444">
        <ele>283</ele>
        <time>2020-10-31T09:01:52.000Z</time>
      </trkpt>
      <trkpt lat="49.76805" lon="4.80442">
        <ele>284</ele>
        <time>2020-10-31T09:01:53.000Z</time>
      </trkpt>
      <trkpt lat="49.76808" lon="4.8044">
        <ele>284</ele>
        <time>2020-10-31T09:01:54.000Z</time>
      </trkpt>
      <trkpt lat="49.76812" lon="4.80438">
        <ele>284</ele>
        <time>2020-10-31T09:01:55.000Z</time>
      </trkpt>
      <trkpt lat="49.76816" lon="4.80434">
        <ele>284</ele>
        <time>2020-10-31T09:01:56.000Z</time>
      </trkpt>
      <trkpt lat="49.76819" lon="4.80431">
        <ele>284</ele>
        <time>2020-10-31T09:01:57.000Z</time>
      </trkpt>
      <trkpt lat="49.76823" lon="4.80428">
        <ele>284</ele>
        <time>2020-10-31T09:01:58.000Z</time>
      </trkpt>
      <trkpt lat="49.76827" lon="4.80424">
        <ele>284</ele>
        <time>2020-10-31T09:01:59.000Z</time>
      </trkpt>
      <trkpt lat="49.76831" lon="4.80421">
        <ele>284</ele>
        <time>2020-10-31T09:02:00.000Z</time>
      </trkpt>
      <trkpt lat="49.76834" lon="4.80417">
        <ele>284</ele>
        <time>2020-10-31T09:02:01.000Z</time>
      </trkpt>
      <trkpt lat="49.76838" lon="4.80412">
        <ele>284</ele>
        <time>2020-10-31T09:02:02.000Z</time>
      </trkpt>
      <trkpt lat="49.76841" lon="4.80408">
        <ele>284</ele>
        <time>2020-10-31T09:02:03.000Z</time>
      </trkpt>
      <trkpt lat="49.76845" lon="4.80406">
        <ele>284</ele>
        <time>2020-10-31T09:02:04.000Z</time>
      </trkpt>
      <trkpt lat="49.76849" lon="4.80403">
        <ele>285</ele>
        <time>2020-10-31T09:02:05.000Z</time>
      </trkpt>
      <trkpt lat="49.76854" lon="4.804">
        <ele>285</ele>
        <time>2020-10-31T09:02:06.000Z</time>
      </trkpt>
      <trkpt lat="49.76858" lon="4.80398">
        <ele>285</ele>
        <time>2020-10-31T09:02:07.000Z</time>
      </trkpt>
      <trkpt lat="49.76862" lon="4.80395">
        <ele>285</ele>
        <time>2020-10-31T09:02:08.000Z</time>
      </trkpt>
      <trkpt lat="49.76867" lon="4.80393">
        <ele>286</ele>
        <time>2020-10-31T09:02:09.000Z</time>
      </trkpt>
      <trkpt lat="49.76871" lon="4.80391">
        <ele>286</ele>
        <time>2020-10-31T09:02:10.000Z</time>
      </trkpt>
      <trkpt lat="49.76876" lon="4.80388">
        <ele>286</ele>
        <time>2020-10-31T09:02:11.000Z</time>
      </trkpt>
      <trkpt lat="49.7688" lon="4.80386">
        <ele>286</ele>
        <time>2020-10-31T09:02:12.000Z</time>
      </trkpt>
      <trkpt lat="49.76885" lon="4.80383">
        <ele>286</ele>
        <time>2020-10-31T09:02:13.000Z</time>
      </trkpt>
      <trkpt lat="49.76889" lon="4.8038">
        <ele>286</ele>
        <time>2020-10-31T09:02:14.000Z</time>
      </trkpt>
      <trkpt lat="49.76893" lon="4.80376">
        <ele>286</ele>
        <time>2020-10-31T09:02:15.000Z</time>
      </trkpt>
      <trkpt lat="49.76897" lon="4.80372">
        <ele>286</ele>
        <time>2020-10-31T09:02:16.000Z</time>
      </trkpt>
      <trkpt lat="49.76901" lon="4.80367">
        <ele>286</ele>
        <time>2020-10-31T09:02:17.000Z</time>
      </trkpt>
      <trkpt lat="49.76905" lon="4.80362">
        <ele>286</ele>
        <time>2020-10-31T09:02:18.000Z</time>
      </trkpt>
      <trkpt lat="49.76908" lon="4.80357">
        <ele>286</ele>
        <time>2020-10-31T09:02:19.000Z</time>
      </trkpt>
      <trkpt lat="49.76912" lon="4.80352">
        <ele>286</ele>
        <time>2020-10-31T09:02:20.000Z</time>
      </trkpt>
      <trkpt lat="49.76916" lon="4.80347">
        <ele>286</ele>
        <time>2020-10-31T09:02:21.000Z</time>
      </trkpt>
      <trkpt lat="49.76919" lon="4.80342">
        <ele>286</ele>
        <time>2020-10-31T09:02:22.000Z</time>
      </trkpt>
      <trkpt lat="49.76923" lon="4.80337">
        <ele>286</ele>
        <time>2020-10-31T09:02:23.000Z</time>
      </trkpt>
      <trkpt lat="49.76927" lon="4.80334">
        <ele>286</ele>
        <time>2020-10-31T09:02:24.000Z</time>
      </trkpt>
      <trkpt lat="49.7693" lon="4.8033">
        <ele>286</ele>
        <time>2020-10-31T09:02:25.000Z</time>
      </trkpt>
      <trkpt lat="49.76933" lon="4.80327">
        <ele>286</ele>
        <time>2020-10-31T09:02:26.000Z</time>
      </trkpt>
      <trkpt lat="49.76936" lon="4.80324">
        <ele>286</ele>
        <time>2020-10-31T09:02:27.000Z</time>
      </trkpt>
      <trkpt lat="49.76939" lon="4.80321">
        <ele>286</ele>
        <time>2020-10-31T09:02:28.000Z</time>
      </trkpt>
      <trkpt lat="49.76942" lon="4.80318">
        <ele>286</ele>
        <time>2020-10-31T09:02:29.000Z</time>
      </trkpt>
      <trkpt lat="49.76944" lon="4.80315">
        <ele>286</ele>
        <time>2020-10-31T09:02:30.000Z</time>
      </trkpt>
      <trkpt lat="49.76946" lon="4.80312">
        <ele>287</ele>
        <time>2020-10-31T09:02:31.000Z</time>
      </trkpt>
      <trkpt lat="49.76948" lon="4.8031">
        <ele>287</ele>
        <time>2020-10-31T09:02:32.000Z</time>
      </trkpt>
      <trkpt lat="49.76951" lon="4.80307">
        <ele>287</ele>
        <time>2020-10-31T09:02:33.000Z</time>
      </trkpt>
      <trkpt lat="49.76953" lon="4.80304">
        <ele>287</ele>
        <time>2020-10-31T09:02:34.000Z</time>
      </trkpt>
      <trkpt lat="49.76955" lon="4.80301">
        <ele>287</ele>
        <time>2020-10-31T09:02:35.000Z</time>
      </trkpt>
      <trkpt lat="49.76958" lon="4.80299">
        <ele>287</ele>
        <time>2020-10-31T09:02:36.000Z</time>
      </trkpt>
      <trkpt lat="49.7696" lon="4.80296">
        <ele>287</ele>
        <time>2020-10-31T09:02:37.000Z</time>
      </trkpt>
      <trkpt lat="49.76962" lon="4.80294">
        <ele>287</ele>
        <time>2020-10-31T09:02:38.000Z</time>
      </trkpt>
      <trkpt lat="49.76964" lon="4.80291">
        <ele>287</ele>
        <time>2020-10-31T09:02:39.000Z</time>
      </trkpt>
      <trkpt lat="49.76966" lon="4.80288">
        <ele>287</ele>
        <time>2020-10-31T09:02:40.000Z</time>
      </trkpt>
      <trkpt lat="49.76969" lon="4.80286">
        <ele>287</ele>
        <time>2020-10-31T09:02:41.000Z</time>
      </trkpt>
      <trkpt lat="49.76971" lon="4.80283">
        <ele>287</ele>
        <time>2020-10-31T09:02:42.000Z</time>
      </trkpt>
      <trkpt lat="49.76972" lon="4.8028">
        <ele>287</ele>
        <time>2020-10-31T09:02:43.000Z</time>
      </trkpt>
      <trkpt lat="49.76974" lon="4.80277">
        <ele>287</ele>
        <time>2020-10-31T09:02:44.000Z</time>
      </trkpt>
      <trkpt lat="49.76976" lon="4.80273">
        <ele>287</ele>
        <time>2020-10-31T09:02:45.000Z</time>
      </trkpt>
      <trkpt lat="49.76977" lon="4.8027">
        <ele>287</ele>
        <time>2020-10-31T09:02:46.000Z</time>
      </trkpt>
      <trkpt lat="49.7698" lon="4.80267">
        <ele>287</ele>
        <time>2020-10-31T09:02:47.000Z</time>
      </trkpt>
      <trkpt lat="49.76982" lon="4.80265">
        <ele>287</ele>
        <time>2020-10-31T09:02:48.000Z</time>
      </trkpt>
      <trkpt lat="49.76985" lon="4.80262">
        <ele>287</ele>
        <time>2020-10-31T09:02:49.000Z</time>
      </trkpt>
      <trkpt lat="49.76987" lon="4.80259">
        <ele>287</ele>
        <time>2020-10-31T09:02:50.000Z</time>
      </trkpt>
      <trkpt lat="49.76989" lon="4.80255">
        <ele>288</ele>
        <time>2020-10-31T09:02:51.000Z</time>
      </trkpt>
      <trkpt lat="49.76991" lon="4.80251">
        <ele>288</ele>
        <time>2020-10-31T09:02:52.000Z</time>
      </trkpt>
      <trkpt lat="49.76994" lon="4.80248">
        <ele>288</ele>
        <time>2020-10-31T09:02:53.000Z</time>
      </trkpt>
      <trkpt lat="49.76996" lon="4.80245">
        <ele>289</ele>
        <time>2020-10-31T09:02:54.000Z</time>
      </trkpt>
      <trkpt lat="49.76999" lon="4.80241">
        <ele>289</ele>
        <time>2020-10-31T09:02:55.000Z</time>
      </trkpt>
      <trkpt lat="49.77002" lon="4.80238">
        <ele>290</ele>
        <time>2020-10-31T09:02:56.000Z</time>
      </trkpt>
      <trkpt lat="49.77004" lon="4.80235">
        <ele>290</ele>
        <time>2020-10-31T09:02:57.000Z</time>
      </trkpt>
      <trkpt lat="49.77007" lon="4.80232">
        <ele>290</ele>
        <time>2020-10-31T09:02:58.000Z</time>
      </trkpt>
      <trkpt lat="49.7701" lon="4.80229">
        <ele>291</ele>
        <time>2020-10-31T09:02:59.000Z</time>
      </trkpt>
      <trkpt lat="49.77013" lon="4.80227">
        <ele>291</ele>
        <time>2020-10-31T09:03:00.000Z</time>
      </trkpt>
      <trkpt lat="49.77016" lon="4.80226">
        <ele>291</ele>
        <time>2020-10-31T09:03:01.000Z</time>
      </trkpt>
      <trkpt lat="49.77018" lon="4.80223">
        <ele>291</ele>
        <time>2020-10-31T09:03:02.000Z</time>
      </trkpt>
      <trkpt lat="49.77021" lon="4.8022">
        <ele>292</ele>
        <time>2020-10-31T09:03:03.000Z</time>
      </trkpt>
      <trkpt lat="49.77023" lon="4.80217">
        <ele>292</ele>
        <time>2020-10-31T09:03:04.000Z</time>
      </trkpt>
      <trkpt lat="49.77026" lon="4.80215">
        <ele>292</ele>
        <time>2020-10-31T09:03:05.000Z</time>
      </trkpt>
      <trkpt lat="49.77029" lon="4.80213">
        <ele>292</ele>
        <time>2020-10-31T09:03:06.000Z</time>
      </trkpt>
      <trkpt lat="49.77031" lon="4.8021">
        <ele>293</ele>
        <time>2020-10-31T09:03:07.000Z</time>
      </trkpt>
      <trkpt lat="49.77034" lon="4.80207">
        <ele>293</ele>
        <time>2020-10-31T09:03:08.000Z</time>
      </trkpt>
      <trkpt lat="49.77036" lon="4.80205">
        <ele>293</ele>
        <time>2020-10-31T09:03:09.000Z</time>
      </trkpt>
      <trkpt lat="49.77039" lon="4.80202">
        <ele>293</ele>
        <time>2020-10-31T09:03:10.000Z</time>
      </trkpt>
      <trkpt lat="49.77041" lon="4.80199">
        <ele>293</ele>
        <time>2020-10-31T09:03:11.000Z</time>
      </trkpt>
      <trkpt lat="49.77044" lon="4.80197">
        <ele>294</ele>
        <time>2020-10-31T09:03:12.000Z</time>
      </trkpt>
      <trkpt lat="49.77046" lon="4.80195">
        <ele>294</ele>
        <time>2020-10-31T09:03:13.000Z</time>
      </trkpt>
      <trkpt lat="49.77048" lon="4.80192">
        <ele>294</ele>
        <time>2020-10-31T09:03:14.000Z</time>
      </trkpt>
      <trkpt lat="49.7705" lon="4.80189">
        <ele>294</ele>
        <time>2020-10-31T09:03:15.000Z</time>
      </trkpt>
      <trkpt lat="49.77052" lon="4.80185">
        <ele>294</ele>
        <time>2020-10-31T09:03:16.000Z</time>
      </trkpt>
      <trkpt lat="49.77053" lon="4.80181">
        <ele>295</ele>
        <time>2020-10-31T09:03:17.000Z</time>
      </trkpt>
      <trkpt lat="49.77055" lon="4.80177">
        <ele>295</ele>
        <time>2020-10-31T09:03:18.000Z</time>
      </trkpt>
      <trkpt lat="49.77057" lon="4.80173">
        <ele>295</ele>
        <time>2020-10-31T09:03:19.000Z</time>
      </trkpt>
      <trkpt lat="49.77059" lon="4.80169">
        <ele>295</ele>
        <time>2020-10-31T09:03:20.000Z</time>
      </trkpt>
      <trkpt lat="49.77061" lon="4.80165">
        <ele>295</ele>
        <time>2020-10-31T09:03:21.000Z</time>
      </trkpt>
      <trkpt lat="49.77062" lon="4.80161">
        <ele>296</ele>
        <time>2020-10-31T09:03:22.000Z</time>
      </trkpt>
      <trkpt lat="49.77065" lon="4.80157">
        <ele>296</ele>
        <time>2020-10-31T09:03:23.000Z</time>
      </trkpt>
      <trkpt lat="49.77068" lon="4.80154">
        <ele>296</ele>
        <time>2020-10-31T09:03:24.000Z</time>
      </trkpt>
      <trkpt lat="49.77071" lon="4.80153">
        <ele>297</ele>
        <time>2020-10-31T09:03:25.000Z</time>
      </trkpt>
      <trkpt lat="49.77074" lon="4.80152">
        <ele>297</ele>
        <time>2020-10-31T09:03:26.000Z</time>
      </trkpt>
      <trkpt lat="49.77076" lon="4.80153">
        <ele>297</ele>
        <time>2020-10-31T09:03:27.000Z</time>
      </trkpt>
      <trkpt lat="49.77079" lon="4.80155">
        <ele>298</ele>
        <time>2020-10-31T09:03:28.000Z</time>
      </trkpt>
      <trkpt lat="49.77081" lon="4.80157">
        <ele>298</ele>
        <time>2020-10-31T09:03:29.000Z</time>
      </trkpt>
      <trkpt lat="49.77084" lon="4.8016">
        <ele>298</ele>
        <time>2020-10-31T09:03:30.000Z</time>
      </trkpt>
      <trkpt lat="49.77088" lon="4.80163">
        <ele>298</ele>
        <time>2020-10-31T09:03:31.000Z</time>
      </trkpt>
      <trkpt lat="49.77091" lon="4.80165">
        <ele>299</ele>
        <time>2020-10-31T09:03:32.000Z</time>
      </trkpt>
      <trkpt lat="49.77094" lon="4.80168">
        <ele>299</ele>
        <time>2020-10-31T09:03:33.000Z</time>
      </trkpt>
      <trkpt lat="49.77097" lon="4.80171">
        <ele>299</ele>
        <time>2020-10-31T09:03:34.000Z</time>
      </trkpt>
      <trkpt lat="49.77099" lon="4.80174">
        <ele>300</ele>
        <time>2020-10-31T09:03:35.000Z</time>
      </trkpt>
      <trkpt lat="49.77101" lon="4.80178">
        <ele>300</ele>
        <time>2020-10-31T09:03:36.000Z</time>
      </trkpt>
      <trkpt lat="49.77104" lon="4.80183">
        <ele>300</ele>
        <time>2020-10-31T09:03:37.000Z</time>
      </trkpt>
      <trkpt lat="49.77107" lon="4.80187">
        <ele>300</ele>
        <time>2020-10-31T09:03:38.000Z</time>
      </trkpt>
      <trkpt lat="49.7711" lon="4.80191">
        <ele>301</ele>
        <time>2020-10-31T09:03:39.000Z</time>
      </trkpt>
      <trkpt lat="49.77113" lon="4.80195">
        <ele>301</ele>
        <time>2020-10-31T09:03:40.000Z</time>
      </trkpt>
      <trkpt lat="49.77117" lon="4.80199">
        <ele>301</ele>
        <time>2020-10-31T09:03:41.000Z</time>
      </trkpt>
      <trkpt lat="49.7712" lon="4.80203">
        <ele>301</ele>
        <time>2020-10-31T09:03:42.000Z</time>
      </trkpt>
      <trkpt lat="49.77123" lon="4.80206">
        <ele>302</ele>
        <time>2020-10-31T09:03:43.000Z</time>
      </trkpt>
      <trkpt lat="49.77127" lon="4.8021">
        <ele>302</ele>
        <time>2020-10-31T09:03:44.000Z</time>
      </trkpt>
      <trkpt lat="49.77131" lon="4.80215">
        <ele>302</ele>
        <time>2020-10-31T09:03:45.000Z</time>
      </trkpt>
      <trkpt lat="49.77135" lon="4.8022">
        <ele>302</ele>
        <time>2020-10-31T09:03:46.000Z</time>
      </trkpt>
      <trkpt lat="49.77139" lon="4.80225">
        <ele>302</ele>
        <time>2020-10-31T09:03:47.000Z</time>
      </trkpt>
      <trkpt lat="49.77143" lon="4.8023">
        <ele>302</ele>
        <time>2020-10-31T09:03:48.000Z</time>
      </trkpt>
      <trkpt lat="49.77147" lon="4.80235">
        <ele>302</ele>
        <time>2020-10-31T09:03:49.000Z</time>
      </trkpt>
      <trkpt lat="49.77151" lon="4.8024">
        <ele>302</ele>
        <time>2020-10-31T09:03:50.000Z</time>
      </trkpt>
      <trkpt lat="49.77155" lon="4.80245">
        <ele>301</ele>
        <time>2020-10-31T09:03:51.000Z</time>
      </trkpt>
      <trkpt lat="49.77158" lon="4.8025">
        <ele>301</ele>
        <time>2020-10-31T09:03:52.000Z</time>
      </trkpt>
      <trkpt lat="49.77161" lon="4.80254">
        <ele>301</ele>
        <time>2020-10-31T09:03:53.000Z</time>
      </trkpt>
      <trkpt lat="49.77165" lon="4.80258">
        <ele>301</ele>
        <time>2020-10-31T09:03:54.000Z</time>
      </trkpt>
      <trkpt lat="49.77169" lon="4.80263">
        <ele>301</ele>
        <time>2020-10-31T09:03:55.000Z</time>
      </trkpt>
      <trkpt lat="49.77174" lon="4.80267">
        <ele>301</ele>
        <time>2020-10-31T09:03:56.000Z</time>
      </trkpt>
      <trkpt lat="49.77178" lon="4.80272">
        <ele>300</ele>
        <time>2020-10-31T09:03:57.000Z</time>
      </trkpt>
      <trkpt lat="49.77182" lon="4.80277">
        <ele>300</ele>
        <time>2020-10-31T09:03:58.000Z</time>
      </trkpt>
      <trkpt lat="49.77185" lon="4.80282">
        <ele>300</ele>
        <time>2020-10-31T09:03:59.000Z</time>
      </trkpt>
      <trkpt lat="49.77189" lon="4.80287">
        <ele>299</ele>
        <time>2020-10-31T09:04:00.000Z</time>
      </trkpt>
      <trkpt lat="49.77192" lon="4.80291">
        <ele>299</ele>
        <time>2020-10-31T09:04:01.000Z</time>
      </trkpt>
      <trkpt lat="49.77194" lon="4.80297">
        <ele>299</ele>
        <time>2020-10-31T09:04:02.000Z</time>
      </trkpt>
      <trkpt lat="49.77196" lon="4.80304">
        <ele>299</ele>
        <time>2020-10-31T09:04:03.000Z</time>
      </trkpt>
      <trkpt lat="49.77196" lon="4.8031">
        <ele>298</ele>
        <time>2020-10-31T09:04:04.000Z</time>
      </trkpt>
      <trkpt lat="49.77197" lon="4.80317">
        <ele>298</ele>
        <time>2020-10-31T09:04:05.000Z</time>
      </trkpt>
      <trkpt lat="49.77198" lon="4.80323">
        <ele>297</ele>
        <time>2020-10-31T09:04:06.000Z</time>
      </trkpt>
      <trkpt lat="49.772" lon="4.80328">
        <ele>297</ele>
        <time>2020-10-31T09:04:07.000Z</time>
      </trkpt>
      <trkpt lat="49.77202" lon="4.80333">
        <ele>297</ele>
        <time>2020-10-31T09:04:08.000Z</time>
      </trkpt>
      <trkpt lat="49.77204" lon="4.80338">
        <ele>296</ele>
        <time>2020-10-31T09:04:09.000Z</time>
      </trkpt>
      <trkpt lat="49.77207" lon="4.80344">
        <ele>296</ele>
        <time>2020-10-31T09:04:10.000Z</time>
      </trkpt>
      <trkpt lat="49.77211" lon="4.8035">
        <ele>296</ele>
        <time>2020-10-31T09:04:11.000Z</time>
      </trkpt>
      <trkpt lat="49.77214" lon="4.80358">
        <ele>295</ele>
        <time>2020-10-31T09:04:12.000Z</time>
      </trkpt>
      <trkpt lat="49.77218" lon="4.80365">
        <ele>295</ele>
        <time>2020-10-31T09:04:13.000Z</time>
      </trkpt>
      <trkpt lat="49.77222" lon="4.8037">
        <ele>295</ele>
        <time>2020-10-31T09:04:14.000Z</time>
      </trkpt>
      <trkpt lat="49.77224" lon="4.80374">
        <ele>294</ele>
        <time>2020-10-31T09:04:15.000Z</time>
      </trkpt>
      <trkpt lat="49.77225" lon="4.80379">
        <ele>294</ele>
        <time>2020-10-31T09:04:16.000Z</time>
      </trkpt>
      <trkpt lat="49.77224" lon="4.80383">
        <ele>294</ele>
        <time>2020-10-31T09:04:17.000Z</time>
      </trkpt>
      <trkpt lat="49.77221" lon="4.80387">
        <ele>293</ele>
        <time>2020-10-31T09:04:18.000Z</time>
      </trkpt>
      <trkpt lat="49.77219" lon="4.80392">
        <ele>292</ele>
        <time>2020-10-31T09:04:19.000Z</time>
      </trkpt>
      <trkpt lat="49.77219" lon="4.80397">
        <ele>292</ele>
        <time>2020-10-31T09:04:20.000Z</time>
      </trkpt>
      <trkpt lat="49.7722" lon="4.80403">
        <ele>291</ele>
        <time>2020-10-31T09:04:21.000Z</time>
      </trkpt>
      <trkpt lat="49.77222" lon="4.80411">
        <ele>291</ele>
        <time>2020-10-31T09:04:22.000Z</time>
      </trkpt>
      <trkpt lat="49.77224" lon="4.80419">
        <ele>290</ele>
        <time>2020-10-31T09:04:23.000Z</time>
      </trkpt>
      <trkpt lat="49.77225" lon="4.80426">
        <ele>289</ele>
        <time>2020-10-31T09:04:24.000Z</time>
      </trkpt>
      <trkpt lat="49.77225" lon="4.80434">
        <ele>288</ele>
        <time>2020-10-31T09:04:25.000Z</time>
      </trkpt>
      <trkpt lat="49.77226" lon="4.80442">
        <ele>288</ele>
        <time>2020-10-31T09:04:26.000Z</time>
      </trkpt>
      <trkpt lat="49.77227" lon="4.8045">
        <ele>287</ele>
        <time>2020-10-31T09:04:27.000Z</time>
      </trkpt>
      <trkpt lat="49.77228" lon="4.80458">
        <ele>286</ele>
        <time>2020-10-31T09:04:28.000Z</time>
      </trkpt>
      <trkpt lat="49.7723" lon="4.80466">
        <ele>286</ele>
        <time>2020-10-31T09:04:29.000Z</time>
      </trkpt>
      <trkpt lat="49.77231" lon="4.80474">
        <ele>285</ele>
        <time>2020-10-31T09:04:30.000Z</time>
      </trkpt>
      <trkpt lat="49.77233" lon="4.80482">
        <ele>285</ele>
        <time>2020-10-31T09:04:31.000Z</time>
      </trkpt>
      <trkpt lat="49.77234" lon="4.8049">
        <ele>285</ele>
        <time>2020-10-31T09:04:32.000Z</time>
      </trkpt>
      <trkpt lat="49.77235" lon="4.80497">
        <ele>284</ele>
        <time>2020-10-31T09:04:33.000Z</time>
      </trkpt>
      <trkpt lat="49.77237" lon="4.80504">
        <ele>284</ele>
        <time>2020-10-31T09:04:34.000Z</time>
      </trkpt>
      <trkpt lat="49.77238" lon="4.80512">
        <ele>284</ele>
        <time>2020-10-31T09:04:35.000Z</time>
      </trkpt>
      <trkpt lat="49.77239" lon="4.80519">
        <ele>284</ele>
        <time>2020-10-31T09:04:36.000Z</time>
      </trkpt>
      <trkpt lat="49.77241" lon="4.80526">
        <ele>283</ele>
        <time>2020-10-31T09:04:37.000Z</time>
      </trkpt>
      <trkpt lat="49.77242" lon="4.80532">
        <ele>283</ele>
        <time>2020-10-31T09:04:38.000Z</time>
      </trkpt>
      <trkpt lat="49.77243" lon="4.80539">
        <ele>283</ele>
        <time>2020-10-31T09:04:39.000Z</time>
      </trkpt>
      <trkpt lat="49.77244" lon="4.80545">
        <ele>283</ele>
        <time>2020-10-31T09:04:40.000Z</time>
      </trkpt>
      <trkpt lat="49.77245" lon="4.80551">
        <ele>282</ele>
        <time>2020-10-31T09:04:41.000Z</time>
      </trkpt>
      <trkpt lat="49.77246" lon="4.80556">
        <ele>282</ele>
        <time>2020-10-31T09:04:42.000Z</time>
      </trkpt>
      <trkpt lat="49.77247" lon="4.8056">
        <ele>282</ele>
        <time>2020-10-31T09:04:43.000Z</time>
      </trkpt>
      <trkpt lat="49.77248" lon="4.80565">
        <ele>282</ele>
        <time>2020-10-31T09:04:44.000Z</time>
      </trkpt>
      <trkpt lat="49.77249" lon="4.80569">
        <ele>282</ele>
        <time>2020-10-31T09:04:45.000Z</time>
      </trkpt>
      <trkpt lat="49.7725" lon="4.80573">
        <ele>282</ele>
        <time>2020-10-31T09:04:46.000Z</time>
      </trkpt>
      <trkpt lat="49.77251" lon="4.80578">
        <ele>282</ele>
        <time>2020-10-31T09:04:47.000Z</time>
      </trkpt>
      <trkpt lat="49.77252" lon="4.80583">
        <ele>282</ele>
        <time>2020-10-31T09:04:48.000Z</time>
      </trkpt>
      <trkpt lat="49.77253" lon="4.80588">
        <ele>282</ele>
        <time>2020-10-31T09:04:49.000Z</time>
      </trkpt>
      <trkpt lat="49.77254" lon="4.80593">
        <ele>282</ele>
        <time>2020-10-31T09:04:50.000Z</time>
      </trkpt>
      <trkpt lat="49.77255" lon="4.80598">
        <ele>282</ele>
        <time>2020-10-31T09:04:51.000Z</time>
      </trkpt>
      <trkpt lat="49.77256" lon="4.80603">
        <ele>282</ele>
        <time>2020-10-31T09:04:52.000Z</time>
      </trkpt>
      <trkpt lat="49.77257" lon="4.80608">
        <ele>282</ele>
        <time>2020-10-31T09:04:53.000Z</time>
      </trkpt>
      <trkpt lat="49.77258" lon="4.80613">
        <ele>282</ele>
        <time>2020-10-31T09:04:54.000Z</time>
      </trkpt>
      <trkpt lat="49.77259" lon="4.80618">
        <ele>282</ele>
        <time>2020-10-31T09:04:55.000Z</time>
      </trkpt>
      <trkpt lat="49.7726" lon="4.80623">
        <ele>282</ele>
        <time>2020-10-31T09:04:56.000Z</time>
      </trkpt>
      <trkpt lat="49.77261" lon="4.80628">
        <ele>282</ele>
        <time>2020-10-31T09:04:57.000Z</time>
      </trkpt>
      <trkpt lat="49.77262" lon="4.80634">
        <ele>282</ele>
        <time>2020-10-31T09:04:58.000Z</time>
      </trkpt>
      <trkpt lat="49.77263" lon="4.80639">
        <ele>282</ele>
        <time>2020-10-31T09:04:59.000Z</time>
      </trkpt>
      <trkpt lat="49.77264" lon="4.80643">
        <ele>282</ele>
        <time>2020-10-31T09:05:00.000Z</time>
      </trkpt>
      <trkpt lat="49.77265" lon="4.80648">
        <ele>282</ele>
        <time>2020-10-31T09:05:01.000Z</time>
      </trkpt>
      <trkpt lat="49.77266" lon="4.80652">
        <ele>282</ele>
        <time>2020-10-31T09:05:02.000Z</time>
      </trkpt>
      <trkpt lat="49.77267" lon="4.80657">
        <ele>282</ele>
        <time>2020-10-31T09:05:03.000Z</time>
      </trkpt>
      <trkpt lat="49.77269" lon="4.80662">
        <ele>282</ele>
        <time>2020-10-31T09:05:04.000Z</time>
      </trkpt>
      <trkpt lat="49.7727" lon="4.80667">
        <ele>282</ele>
        <time>2020-10-31T09:05:05.000Z</time>
      </trkpt>
      <trkpt lat="49.77272" lon="4.80671">
        <ele>282</ele>
        <time>2020-10-31T09:05:06.000Z</time>
      </trkpt>
      <trkpt lat="49.77274" lon="4.80676">
        <ele>282</ele>
        <time>2020-10-31T09:05:07.000Z</time>
      </trkpt>
      <trkpt lat="49.77276" lon="4.80681">
        <ele>282</ele>
        <time>2020-10-31T09:05:08.000Z</time>
      </trkpt>
      <trkpt lat="49.77278" lon="4.80685">
        <ele>282</ele>
        <time>2020-10-31T09:05:09.000Z</time>
      </trkpt>
      <trkpt lat="49.7728" lon="4.80691">
        <ele>282</ele>
        <time>2020-10-31T09:05:10.000Z</time>
      </trkpt>
      <trkpt lat="49.77282" lon="4.80696">
        <ele>282</ele>
        <time>2020-10-31T09:05:11.000Z</time>
      </trkpt>
      <trkpt lat="49.77284" lon="4.80701">
        <ele>282</ele>
        <time>2020-10-31T09:05:12.000Z</time>
      </trkpt>
      <trkpt lat="49.77287" lon="4.80706">
        <ele>282</ele>
        <time>2020-10-31T09:05:13.000Z</time>
      </trkpt>
      <trkpt lat="49.77289" lon="4.80711">
        <ele>282</ele>
        <time>2020-10-31T09:05:14.000Z</time>
      </trkpt>
      <trkpt lat="49.77291" lon="4.80717">
        <ele>281</ele>
        <time>2020-10-31T09:05:15.000Z</time>
      </trkpt>
      <trkpt lat="49.77294" lon="4.80722">
        <ele>281</ele>
        <time>2020-10-31T09:05:16.000Z</time>
      </trkpt>
      <trkpt lat="49.77297" lon="4.80727">
        <ele>281</ele>
        <time>2020-10-31T09:05:17.000Z</time>
      </trkpt>
      <trkpt lat="49.77299" lon="4.80733">
        <ele>281</ele>
        <time>2020-10-31T09:05:18.000Z</time>
      </trkpt>
      <trkpt lat="49.77302" lon="4.80739">
        <ele>281</ele>
        <time>2020-10-31T09:05:19.000Z</time>
      </trkpt>
      <trkpt lat="49.77304" lon="4.80744">
        <ele>280</ele>
        <time>2020-10-31T09:05:20.000Z</time>
      </trkpt>
      <trkpt lat="49.77307" lon="4.80749">
        <ele>280</ele>
        <time>2020-10-31T09:05:21.000Z</time>
      </trkpt>
      <trkpt lat="49.7731" lon="4.80754">
        <ele>280</ele>
        <time>2020-10-31T09:05:22.000Z</time>
      </trkpt>
      <trkpt lat="49.77313" lon="4.8076">
        <ele>280</ele>
        <time>2020-10-31T09:05:23.000Z</time>
      </trkpt>
      <trkpt lat="49.77315" lon="4.80765">
        <ele>279</ele>
        <time>2020-10-31T09:05:24.000Z</time>
      </trkpt>
      <trkpt lat="49.77318" lon="4.8077">
        <ele>279</ele>
        <time>2020-10-31T09:05:25.000Z</time>
      </trkpt>
      <trkpt lat="49.7732" lon="4.80776">
        <ele>278</ele>
        <time>2020-10-31T09:05:26.000Z</time>
      </trkpt>
      <trkpt lat="49.77319" lon="4.80782">
        <ele>278</ele>
        <time>2020-10-31T09:05:27.000Z</time>
      </trkpt>
      <trkpt lat="49.77316" lon="4.80787">
        <ele>278</ele>
        <time>2020-10-31T09:05:28.000Z</time>
      </trkpt>
      <trkpt lat="49.77313" lon="4.80792">
        <ele>277</ele>
        <time>2020-10-31T09:05:29.000Z</time>
      </trkpt>
      <trkpt lat="49.7731" lon="4.80796">
        <ele>277</ele>
        <time>2020-10-31T09:05:30.000Z</time>
      </trkpt>
      <trkpt lat="49.77306" lon="4.80801">
        <ele>277</ele>
        <time>2020-10-31T09:05:31.000Z</time>
      </trkpt>
      <trkpt lat="49.77302" lon="4.80806">
        <ele>276</ele>
        <time>2020-10-31T09:05:32.000Z</time>
      </trkpt>
      <trkpt lat="49.77299" lon="4.8081">
        <ele>276</ele>
        <time>2020-10-31T09:05:33.000Z</time>
      </trkpt>
      <trkpt lat="49.77295" lon="4.80815">
        <ele>275</ele>
        <time>2020-10-31T09:05:34.000Z</time>
      </trkpt>
      <trkpt lat="49.77291" lon="4.8082">
        <ele>275</ele>
        <time>2020-10-31T09:05:35.000Z</time>
      </trkpt>
      <trkpt lat="49.77287" lon="4.80825">
        <ele>274</ele>
        <time>2020-10-31T09:05:36.000Z</time>
      </trkpt>
      <trkpt lat="49.77283" lon="4.80831">
        <ele>274</ele>
        <time>2020-10-31T09:05:37.000Z</time>
      </trkpt>
      <trkpt lat="49.77279" lon="4.80836">
        <ele>274</ele>
        <time>2020-10-31T09:05:38.000Z</time>
      </trkpt>
      <trkpt lat="49.77275" lon="4.8084">
        <ele>273</ele>
        <time>2020-10-31T09:05:39.000Z</time>
      </trkpt>
      <trkpt lat="49.77271" lon="4.80845">
        <ele>273</ele>
        <time>2020-10-31T09:05:40.000Z</time>
      </trkpt>
      <trkpt lat="49.77268" lon="4.8085">
        <ele>273</ele>
        <time>2020-10-31T09:05:41.000Z</time>
      </trkpt>
      <trkpt lat="49.77264" lon="4.80855">
        <ele>272</ele>
        <time>2020-10-31T09:05:42.000Z</time>
      </trkpt>
      <trkpt lat="49.77261" lon="4.80859">
        <ele>272</ele>
        <time>2020-10-31T09:05:43.000Z</time>
      </trkpt>
      <trkpt lat="49.77258" lon="4.80863">
        <ele>272</ele>
        <time>2020-10-31T09:05:44.000Z</time>
      </trkpt>
      <trkpt lat="49.77256" lon="4.80867">
        <ele>272</ele>
        <time>2020-10-31T09:05:45.000Z</time>
      </trkpt>
      <trkpt lat="49.77255" lon="4.80869">
        <ele>271</ele>
        <time>2020-10-31T09:05:46.000Z</time>
      </trkpt>
      <trkpt lat="49.77254" lon="4.80872">
        <ele>271</ele>
        <time>2020-10-31T09:05:47.000Z</time>
      </trkpt>
      <trkpt lat="49.77253" lon="4.80874">
        <ele>271</ele>
        <time>2020-10-31T09:05:48.000Z</time>
      </trkpt>
      <trkpt lat="49.77254" lon="4.80876">
        <ele>271</ele>
        <time>2020-10-31T09:05:49.000Z</time>
      </trkpt>
      <trkpt lat="49.77255" lon="4.80878">
        <ele>271</ele>
        <time>2020-10-31T09:05:50.000Z</time>
      </trkpt>
      <trkpt lat="49.77256" lon="4.80881">
        <ele>271</ele>
        <time>2020-10-31T09:05:51.000Z</time>
      </trkpt>
      <trkpt lat="49.77257" lon="4.80884">
        <ele>270</ele>
        <time>2020-10-31T09:05:52.000Z</time>
      </trkpt>
      <trkpt lat="49.77258" lon="4.80886">
        <ele>270</ele>
        <time>2020-10-31T09:05:53.000Z</time>
      </trkpt>
      <trkpt lat="49.77259" lon="4.8089">
        <ele>270</ele>
        <time>2020-10-31T09:05:54.000Z</time>
      </trkpt>
      <trkpt lat="49.77261" lon="4.80894">
        <ele>270</ele>
        <time>2020-10-31T09:05:55.000Z</time>
      </trkpt>
      <trkpt lat="49.77263" lon="4.80899">
        <ele>270</ele>
        <time>2020-10-31T09:05:56.000Z</time>
      </trkpt>
      <trkpt lat="49.77265" lon="4.80904">
        <ele>270</ele>
        <time>2020-10-31T09:05:57.000Z</time>
      </trkpt>
      <trkpt lat="49.77268" lon="4.8091">
        <ele>269</ele>
        <time>2020-10-31T09:05:58.000Z</time>
      </trkpt>
      <trkpt lat="49.7727" lon="4.80916">
        <ele>269</ele>
        <time>2020-10-31T09:05:59.000Z</time>
      </trkpt>
      <trkpt lat="49.77273" lon="4.80921">
        <ele>269</ele>
        <time>2020-10-31T09:06:00.000Z</time>
      </trkpt>
      <trkpt lat="49.77276" lon="4.80927">
        <ele>269</ele>
        <time>2020-10-31T09:06:01.000Z</time>
      </trkpt>
      <trkpt lat="49.77278" lon="4.80934">
        <ele>268</ele>
        <time>2020-10-31T09:06:02.000Z</time>
      </trkpt>
      <trkpt lat="49.77281" lon="4.80941">
        <ele>268</ele>
        <time>2020-10-31T09:06:03.000Z</time>
      </trkpt>
      <trkpt lat="49.77284" lon="4.80947">
        <ele>267</ele>
        <time>2020-10-31T09:06:04.000Z</time>
      </trkpt>
      <trkpt lat="49.77287" lon="4.80954">
        <ele>267</ele>
        <time>2020-10-31T09:06:05.000Z</time>
      </trkpt>
      <trkpt lat="49.7729" lon="4.80961">
        <ele>266</ele>
        <time>2020-10-31T09:06:06.000Z</time>
      </trkpt>
      <trkpt lat="49.77293" lon="4.80969">
        <ele>266</ele>
        <time>2020-10-31T09:06:07.000Z</time>
      </trkpt>
      <trkpt lat="49.77297" lon="4.80975">
        <ele>266</ele>
        <time>2020-10-31T09:06:08.000Z</time>
      </trkpt>
      <trkpt lat="49.773" lon="4.80982">
        <ele>265</ele>
        <time>2020-10-31T09:06:09.000Z</time>
      </trkpt>
      <trkpt lat="49.77303" lon="4.80989">
        <ele>265</ele>
        <time>2020-10-31T09:06:10.000Z</time>
      </trkpt>
      <trkpt lat="49.77306" lon="4.80995">
        <ele>265</ele>
        <time>2020-10-31T09:06:11.000Z</time>
      </trkpt>
      <trkpt lat="49.77308" lon="4.81002">
        <ele>265</ele>
        <time>2020-10-31T09:06:12.000Z</time>
      </trkpt>
      <trkpt lat="49.77311" lon="4.81008">
        <ele>264</ele>
        <time>2020-10-31T09:06:13.000Z</time>
      </trkpt>
      <trkpt lat="49.77314" lon="4.81014">
        <ele>264</ele>
        <time>2020-10-31T09:06:14.000Z</time>
      </trkpt>
      <trkpt lat="49.77317" lon="4.8102">
        <ele>264</ele>
        <time>2020-10-31T09:06:15.000Z</time>
      </trkpt>
      <trkpt lat="49.77319" lon="4.81026">
        <ele>264</ele>
        <time>2020-10-31T09:06:16.000Z</time>
      </trkpt>
      <trkpt lat="49.77321" lon="4.81031">
        <ele>264</ele>
        <time>2020-10-31T09:06:17.000Z</time>
      </trkpt>
      <trkpt lat="49.77324" lon="4.81036">
        <ele>264</ele>
        <time>2020-10-31T09:06:18.000Z</time>
      </trkpt>
      <trkpt lat="49.77326" lon="4.81039">
        <ele>264</ele>
        <time>2020-10-31T09:06:19.000Z</time>
      </trkpt>
      <trkpt lat="49.77329" lon="4.8104">
        <ele>264</ele>
        <time>2020-10-31T09:06:20.000Z</time>
      </trkpt>
      <trkpt lat="49.77331" lon="4.81039">
        <ele>264</ele>
        <time>2020-10-31T09:06:21.000Z</time>
      </trkpt>
      <trkpt lat="49.77335" lon="4.81036">
        <ele>264</ele>
        <time>2020-10-31T09:06:22.000Z</time>
      </trkpt>
      <trkpt lat="49.77338" lon="4.81032">
        <ele>264</ele>
        <time>2020-10-31T09:06:23.000Z</time>
      </trkpt>
      <trkpt lat="49.77341" lon="4.81027">
        <ele>264</ele>
        <time>2020-10-31T09:06:24.000Z</time>
      </trkpt>
      <trkpt lat="49.77345" lon="4.81022">
        <ele>264</ele>
        <time>2020-10-31T09:06:25.000Z</time>
      </trkpt>
      <trkpt lat="49.77348" lon="4.81017">
        <ele>264</ele>
        <time>2020-10-31T09:06:26.000Z</time>
      </trkpt>
      <trkpt lat="49.7735" lon="4.81011">
        <ele>265</ele>
        <time>2020-10-31T09:06:27.000Z</time>
      </trkpt>
      <trkpt lat="49.77353" lon="4.81006">
        <ele>265</ele>
        <time>2020-10-31T09:06:28.000Z</time>
      </trkpt>
      <trkpt lat="49.77357" lon="4.81002">
        <ele>265</ele>
        <time>2020-10-31T09:06:29.000Z</time>
      </trkpt>
      <trkpt lat="49.77361" lon="4.81">
        <ele>265</ele>
        <time>2020-10-31T09:06:30.000Z</time>
      </trkpt>
      <trkpt lat="49.77365" lon="4.80999">
        <ele>265</ele>
        <time>2020-10-31T09:06:31.000Z</time>
      </trkpt>
      <trkpt lat="49.77368" lon="4.81001">
        <ele>265</ele>
        <time>2020-10-31T09:06:32.000Z</time>
      </trkpt>
      <trkpt lat="49.77371" lon="4.81004">
        <ele>265</ele>
        <time>2020-10-31T09:06:33.000Z</time>
      </trkpt>
      <trkpt lat="49.77374" lon="4.81007">
        <ele>265</ele>
        <time>2020-10-31T09:06:34.000Z</time>
      </trkpt>
      <trkpt lat="49.77377" lon="4.81011">
        <ele>265</ele>
        <time>2020-10-31T09:06:35.000Z</time>
      </trkpt>
      <trkpt lat="49.77379" lon="4.81014">
        <ele>265</ele>
        <time>2020-10-31T09:06:36.000Z</time>
      </trkpt>
      <trkpt lat="49.77382" lon="4.81018">
        <ele>266</ele>
        <time>2020-10-31T09:06:37.000Z</time>
      </trkpt>
      <trkpt lat="49.77384" lon="4.81022">
        <ele>266</ele>
        <time>2020-10-31T09:06:38.000Z</time>
      </trkpt>
      <trkpt lat="49.77387" lon="4.81027">
        <ele>266</ele>
        <time>2020-10-31T09:06:39.000Z</time>
      </trkpt>
      <trkpt lat="49.77389" lon="4.81031">
        <ele>266</ele>
        <time>2020-10-31T09:06:40.000Z</time>
      </trkpt>
      <trkpt lat="49.77391" lon="4.81034">
        <ele>266</ele>
        <time>2020-10-31T09:06:41.000Z</time>
      </trkpt>
      <trkpt lat="49.77393" lon="4.81038">
        <ele>266</ele>
        <time>2020-10-31T09:06:42.000Z</time>
      </trkpt>
      <trkpt lat="49.77394" lon="4.81043">
        <ele>266</ele>
        <time>2020-10-31T09:06:43.000Z</time>
      </trkpt>
      <trkpt lat="49.77395" lon="4.81047">
        <ele>266</ele>
        <time>2020-10-31T09:06:44.000Z</time>
      </trkpt>
      <trkpt lat="49.77398" lon="4.81052">
        <ele>266</ele>
        <time>2020-10-31T09:06:45.000Z</time>
      </trkpt>
      <trkpt lat="49.774" lon="4.81057">
        <ele>266</ele>
        <time>2020-10-31T09:06:46.000Z</time>
      </trkpt>
      <trkpt lat="49.77403" lon="4.81061">
        <ele>266</ele>
        <time>2020-10-31T09:06:47.000Z</time>
      </trkpt>
      <trkpt lat="49.77405" lon="4.81066">
        <ele>267</ele>
        <time>2020-10-31T09:06:48.000Z</time>
      </trkpt>
      <trkpt lat="49.77408" lon="4.81071">
        <ele>267</ele>
        <time>2020-10-31T09:06:49.000Z</time>
      </trkpt>
      <trkpt lat="49.77411" lon="4.81075">
        <ele>267</ele>
        <time>2020-10-31T09:06:50.000Z</time>
      </trkpt>
      <trkpt lat="49.77413" lon="4.81079">
        <ele>267</ele>
        <time>2020-10-31T09:06:51.000Z</time>
      </trkpt>
      <trkpt lat="49.77417" lon="4.81082">
        <ele>267</ele>
        <time>2020-10-31T09:06:52.000Z</time>
      </trkpt>
      <trkpt lat="49.77421" lon="4.81083">
        <ele>267</ele>
        <time>2020-10-31T09:06:53.000Z</time>
      </trkpt>
      <trkpt lat="49.77424" lon="4.81082">
        <ele>267</ele>
        <time>2020-10-31T09:06:54.000Z</time>
      </trkpt>
      <trkpt lat="49.77428" lon="4.81079">
        <ele>268</ele>
        <time>2020-10-31T09:06:55.000Z</time>
      </trkpt>
      <trkpt lat="49.77431" lon="4.81076">
        <ele>268</ele>
        <time>2020-10-31T09:06:56.000Z</time>
      </trkpt>
      <trkpt lat="49.77435" lon="4.81073">
        <ele>268</ele>
        <time>2020-10-31T09:06:57.000Z</time>
      </trkpt>
      <trkpt lat="49.77438" lon="4.8107">
        <ele>268</ele>
        <time>2020-10-31T09:06:58.000Z</time>
      </trkpt>
      <trkpt lat="49.77442" lon="4.81067">
        <ele>268</ele>
        <time>2020-10-31T09:06:59.000Z</time>
      </trkpt>
      <trkpt lat="49.77445" lon="4.81065">
        <ele>269</ele>
        <time>2020-10-31T09:07:00.000Z</time>
      </trkpt>
      <trkpt lat="49.77449" lon="4.81064">
        <ele>269</ele>
        <time>2020-10-31T09:07:01.000Z</time>
      </trkpt>
      <trkpt lat="49.77453" lon="4.81065">
        <ele>269</ele>
        <time>2020-10-31T09:07:02.000Z</time>
      </trkpt>
      <trkpt lat="49.77456" lon="4.81067">
        <ele>269</ele>
        <time>2020-10-31T09:07:03.000Z</time>
      </trkpt>
      <trkpt lat="49.77458" lon="4.81072">
        <ele>269</ele>
        <time>2020-10-31T09:07:04.000Z</time>
      </trkpt>
      <trkpt lat="49.7746" lon="4.81077">
        <ele>270</ele>
        <time>2020-10-31T09:07:05.000Z</time>
      </trkpt>
      <trkpt lat="49.77462" lon="4.81082">
        <ele>270</ele>
        <time>2020-10-31T09:07:06.000Z</time>
      </trkpt>
      <trkpt lat="49.77463" lon="4.81088">
        <ele>270</ele>
        <time>2020-10-31T09:07:07.000Z</time>
      </trkpt>
      <trkpt lat="49.77465" lon="4.81094">
        <ele>270</ele>
        <time>2020-10-31T09:07:08.000Z</time>
      </trkpt>
      <trkpt lat="49.77466" lon="4.811">
        <ele>270</ele>
        <time>2020-10-31T09:07:09.000Z</time>
      </trkpt>
      <trkpt lat="49.77468" lon="4.81105">
        <ele>270</ele>
        <time>2020-10-31T09:07:10.000Z</time>
      </trkpt>
      <trkpt lat="49.7747" lon="4.81111">
        <ele>270</ele>
        <time>2020-10-31T09:07:11.000Z</time>
      </trkpt>
      <trkpt lat="49.77471" lon="4.81117">
        <ele>270</ele>
        <time>2020-10-31T09:07:12.000Z</time>
      </trkpt>
      <trkpt lat="49.77472" lon="4.81123">
        <ele>270</ele>
        <time>2020-10-31T09:07:13.000Z</time>
      </trkpt>
      <trkpt lat="49.77474" lon="4.81129">
        <ele>270</ele>
        <time>2020-10-31T09:07:14.000Z</time>
      </trkpt>
      <trkpt lat="49.77475" lon="4.81135">
        <ele>271</ele>
        <time>2020-10-31T09:07:15.000Z</time>
      </trkpt>
      <trkpt lat="49.77476" lon="4.81141">
        <ele>271</ele>
        <time>2020-10-31T09:07:16.000Z</time>
      </trkpt>
      <trkpt lat="49.77478" lon="4.81146">
        <ele>271</ele>
        <time>2020-10-31T09:07:17.000Z</time>
      </trkpt>
      <trkpt lat="49.7748" lon="4.81151">
        <ele>271</ele>
        <time>2020-10-31T09:07:18.000Z</time>
      </trkpt>
      <trkpt lat="49.77481" lon="4.81156">
        <ele>271</ele>
        <time>2020-10-31T09:07:19.000Z</time>
      </trkpt>
      <trkpt lat="49.77483" lon="4.81161">
        <ele>271</ele>
        <time>2020-10-31T09:07:20.000Z</time>
      </trkpt>
      <trkpt lat="49.77485" lon="4.81166">
        <ele>271</ele>
        <time>2020-10-31T09:07:21.000Z</time>
      </trkpt>
      <trkpt lat="49.77487" lon="4.81171">
        <ele>271</ele>
        <time>2020-10-31T09:07:22.000Z</time>
      </trkpt>
      <trkpt lat="49.77488" lon="4.81176">
        <ele>271</ele>
        <time>2020-10-31T09:07:23.000Z</time>
      </trkpt>
      <trkpt lat="49.7749" lon="4.81182">
        <ele>271</ele>
        <time>2020-10-31T09:07:24.000Z</time>
      </trkpt>
      <trkpt lat="49.77491" lon="4.81187">
        <ele>271</ele>
        <time>2020-10-31T09:07:25.000Z</time>
      </trkpt>
      <trkpt lat="49.77493" lon="4.81193">
        <ele>271</ele>
        <time>2020-10-31T09:07:26.000Z</time>
      </trkpt>
      <trkpt lat="49.77494" lon="4.812">
        <ele>271</ele>
        <time>2020-10-31T09:07:27.000Z</time>
      </trkpt>
      <trkpt lat="49.77496" lon="4.81206">
        <ele>271</ele>
        <time>2020-10-31T09:07:28.000Z</time>
      </trkpt>
      <trkpt lat="49.77498" lon="4.81212">
        <ele>271</ele>
        <time>2020-10-31T09:07:29.000Z</time>
      </trkpt>
      <trkpt lat="49.775" lon="4.81218">
        <ele>271</ele>
        <time>2020-10-31T09:07:30.000Z</time>
      </trkpt>
      <trkpt lat="49.77501" lon="4.81224">
        <ele>272</ele>
        <time>2020-10-31T09:07:31.000Z</time>
      </trkpt>
      <trkpt lat="49.77503" lon="4.8123">
        <ele>272</ele>
        <time>2020-10-31T09:07:32.000Z</time>
      </trkpt>
      <trkpt lat="49.77505" lon="4.81236">
        <ele>272</ele>
        <time>2020-10-31T09:07:33.000Z</time>
      </trkpt>
      <trkpt lat="49.77507" lon="4.81243">
        <ele>272</ele>
        <time>2020-10-31T09:07:34.000Z</time>
      </trkpt>
      <trkpt lat="49.77509" lon="4.81249">
        <ele>272</ele>
        <time>2020-10-31T09:07:35.000Z</time>
      </trkpt>
      <trkpt lat="49.7751" lon="4.81254">
        <ele>272</ele>
        <time>2020-10-31T09:07:36.000Z</time>
      </trkpt>
      <trkpt lat="49.77511" lon="4.81259">
        <ele>272</ele>
        <time>2020-10-31T09:07:37.000Z</time>
      </trkpt>
      <trkpt lat="49.77513" lon="4.81265">
        <ele>272</ele>
        <time>2020-10-31T09:07:38.000Z</time>
      </trkpt>
      <trkpt lat="49.77515" lon="4.8127">
        <ele>272</ele>
        <time>2020-10-31T09:07:39.000Z</time>
      </trkpt>
      <trkpt lat="49.77516" lon="4.81276">
        <ele>273</ele>
        <time>2020-10-31T09:07:40.000Z</time>
      </trkpt>
      <trkpt lat="49.77518" lon="4.81282">
        <ele>273</ele>
        <time>2020-10-31T09:07:41.000Z</time>
      </trkpt>
      <trkpt lat="49.7752" lon="4.81287">
        <ele>273</ele>
        <time>2020-10-31T09:07:42.000Z</time>
      </trkpt>
      <trkpt lat="49.77523" lon="4.8129">
        <ele>273</ele>
        <time>2020-10-31T09:07:43.000Z</time>
      </trkpt>
      <trkpt lat="49.77527" lon="4.81291">
        <ele>273</ele>
        <time>2020-10-31T09:07:44.000Z</time>
      </trkpt>
      <trkpt lat="49.7753" lon="4.81292">
        <ele>273</ele>
        <time>2020-10-31T09:07:45.000Z</time>
      </trkpt>
      <trkpt lat="49.77532" lon="4.81294">
        <ele>274</ele>
        <time>2020-10-31T09:07:46.000Z</time>
      </trkpt>
      <trkpt lat="49.77533" lon="4.81296">
        <ele>274</ele>
        <time>2020-10-31T09:07:47.000Z</time>
      </trkpt>
      <trkpt lat="49.77535" lon="4.81298">
        <ele>274</ele>
        <time>2020-10-31T09:07:48.000Z</time>
      </trkpt>
      <trkpt lat="49.77537" lon="4.81297">
        <ele>274</ele>
        <time>2020-10-31T09:07:49.000Z</time>
      </trkpt>
      <trkpt lat="49.7754" lon="4.81295">
        <ele>274</ele>
        <time>2020-10-31T09:07:50.000Z</time>
      </trkpt>
      <trkpt lat="49.77543" lon="4.81293">
        <ele>274</ele>
        <time>2020-10-31T09:07:51.000Z</time>
      </trkpt>
      <trkpt lat="49.77546" lon="4.8129">
        <ele>274</ele>
        <time>2020-10-31T09:07:52.000Z</time>
      </trkpt>
      <trkpt lat="49.77549" lon="4.81287">
        <ele>274</ele>
        <time>2020-10-31T09:07:53.000Z</time>
      </trkpt>
      <trkpt lat="49.77552" lon="4.81284">
        <ele>274</ele>
        <time>2020-10-31T09:07:54.000Z</time>
      </trkpt>
      <trkpt lat="49.77555" lon="4.81281">
        <ele>275</ele>
        <time>2020-10-31T09:07:55.000Z</time>
      </trkpt>
      <trkpt lat="49.77558" lon="4.81279">
        <ele>275</ele>
        <time>2020-10-31T09:07:56.000Z</time>
      </trkpt>
      <trkpt lat="49.77561" lon="4.81277">
        <ele>275</ele>
        <time>2020-10-31T09:07:57.000Z</time>
      </trkpt>
      <trkpt lat="49.77565" lon="4.81275">
        <ele>275</ele>
        <time>2020-10-31T09:07:58.000Z</time>
      </trkpt>
      <trkpt lat="49.77568" lon="4.81273">
        <ele>275</ele>
        <time>2020-10-31T09:07:59.000Z</time>
      </trkpt>
      <trkpt lat="49.77572" lon="4.81271">
        <ele>275</ele>
        <time>2020-10-31T09:08:00.000Z</time>
      </trkpt>
      <trkpt lat="49.77576" lon="4.81269">
        <ele>275</ele>
        <time>2020-10-31T09:08:01.000Z</time>
      </trkpt>
      <trkpt lat="49.77579" lon="4.81266">
        <ele>276</ele>
        <time>2020-10-31T09:08:02.000Z</time>
      </trkpt>
      <trkpt lat="49.77583" lon="4.81264">
        <ele>276</ele>
        <time>2020-10-31T09:08:03.000Z</time>
      </trkpt>
      <trkpt lat="49.77586" lon="4.81262">
        <ele>276</ele>
        <time>2020-10-31T09:08:04.000Z</time>
      </trkpt>
      <trkpt lat="49.7759" lon="4.8126">
        <ele>276</ele>
        <time>2020-10-31T09:08:05.000Z</time>
      </trkpt>
      <trkpt lat="49.77593" lon="4.81259">
        <ele>276</ele>
        <time>2020-10-31T09:08:06.000Z</time>
      </trkpt>
      <trkpt lat="49.77595" lon="4.81258">
        <ele>276</ele>
        <time>2020-10-31T09:08:07.000Z</time>
      </trkpt>
      <trkpt lat="49.77597" lon="4.81259">
        <ele>276</ele>
        <time>2020-10-31T09:08:08.000Z</time>
      </trkpt>
      <trkpt lat="49.77599" lon="4.81261">
        <ele>276</ele>
        <time>2020-10-31T09:08:09.000Z</time>
      </trkpt>
      <trkpt lat="49.77601" lon="4.81263">
        <ele>276</ele>
        <time>2020-10-31T09:08:10.000Z</time>
      </trkpt>
      <trkpt lat="49.77603" lon="4.81267">
        <ele>276</ele>
        <time>2020-10-31T09:08:11.000Z</time>
      </trkpt>
      <trkpt lat="49.77604" lon="4.81271">
        <ele>276</ele>
        <time>2020-10-31T09:08:12.000Z</time>
      </trkpt>
      <trkpt lat="49.77605" lon="4.81274">
        <ele>276</ele>
        <time>2020-10-31T09:08:13.000Z</time>
      </trkpt>
      <trkpt lat="49.77605" lon="4.81278">
        <ele>276</ele>
        <time>2020-10-31T09:08:14.000Z</time>
      </trkpt>
      <trkpt lat="49.77606" lon="4.81282">
        <ele>276</ele>
        <time>2020-10-31T09:08:15.000Z</time>
      </trkpt>
      <trkpt lat="49.77607" lon="4.81286">
        <ele>276</ele>
        <time>2020-10-31T09:08:16.000Z</time>
      </trkpt>
      <trkpt lat="49.77608" lon="4.8129">
        <ele>276</ele>
        <time>2020-10-31T09:08:17.000Z</time>
      </trkpt>
      <trkpt lat="49.77609" lon="4.81294">
        <ele>276</ele>
        <time>2020-10-31T09:08:18.000Z</time>
      </trkpt>
      <trkpt lat="49.7761" lon="4.81299">
        <ele>276</ele>
        <time>2020-10-31T09:08:19.000Z</time>
      </trkpt>
      <trkpt lat="49.77611" lon="4.81303">
        <ele>276</ele>
        <time>2020-10-31T09:08:20.000Z</time>
      </trkpt>
      <trkpt lat="49.77612" lon="4.81308">
        <ele>276</ele>
        <time>2020-10-31T09:08:21.000Z</time>
      </trkpt>
      <trkpt lat="49.77613" lon="4.81313">
        <ele>276</ele>
        <time>2020-10-31T09:08:22.000Z</time>
      </trkpt>
      <trkpt lat="49.77614" lon="4.81318">
        <ele>277</ele>
        <time>2020-10-31T09:08:23.000Z</time>
      </trkpt>
      <trkpt lat="49.77615" lon="4.81322">
        <ele>277</ele>
        <time>2020-10-31T09:08:24.000Z</time>
      </trkpt>
      <trkpt lat="49.77616" lon="4.81325">
        <ele>277</ele>
        <time>2020-10-31T09:08:25.000Z</time>
      </trkpt>
      <trkpt lat="49.77617" lon="4.8133">
        <ele>277</ele>
        <time>2020-10-31T09:08:26.000Z</time>
      </trkpt>
      <trkpt lat="49.77617" lon="4.81334">
        <ele>277</ele>
        <time>2020-10-31T09:08:27.000Z</time>
      </trkpt>
      <trkpt lat="49.77618" lon="4.81338">
        <ele>277</ele>
        <time>2020-10-31T09:08:28.000Z</time>
      </trkpt>
      <trkpt lat="49.77619" lon="4.81342">
        <ele>277</ele>
        <time>2020-10-31T09:08:29.000Z</time>
      </trkpt>
      <trkpt lat="49.7762" lon="4.81346">
        <ele>277</ele>
        <time>2020-10-31T09:08:30.000Z</time>
      </trkpt>
      <trkpt lat="49.77621" lon="4.81351">
        <ele>277</ele>
        <time>2020-10-31T09:08:31.000Z</time>
      </trkpt>
      <trkpt lat="49.77622" lon="4.81355">
        <ele>277</ele>
        <time>2020-10-31T09:08:32.000Z</time>
      </trkpt>
      <trkpt lat="49.77622" lon="4.81358">
        <ele>277</ele>
        <time>2020-10-31T09:08:33.000Z</time>
      </trkpt>
      <trkpt lat="49.77623" lon="4.81361">
        <ele>277</ele>
        <time>2020-10-31T09:08:34.000Z</time>
      </trkpt>
      <trkpt lat="49.77624" lon="4.81364">
        <ele>277</ele>
        <time>2020-10-31T09:08:35.000Z</time>
      </trkpt>
      <trkpt lat="49.77625" lon="4.81367">
        <ele>277</ele>
        <time>2020-10-31T09:08:36.000Z</time>
      </trkpt>
      <trkpt lat="49.77625" lon="4.8137">
        <ele>277</ele>
        <time>2020-10-31T09:08:37.000Z</time>
      </trkpt>
      <trkpt lat="49.77626" lon="4.81373">
        <ele>277</ele>
        <time>2020-10-31T09:08:38.000Z</time>
      </trkpt>
      <trkpt lat="49.77626" lon="4.81375">
        <ele>277</ele>
        <time>2020-10-31T09:08:39.000Z</time>
      </trkpt>
      <trkpt lat="49.77627" lon="4.81377">
        <ele>277</ele>
        <time>2020-10-31T09:08:40.000Z</time>
      </trkpt>
      <trkpt lat="49.77627" lon="4.81379">
        <ele>277</ele>
        <time>2020-10-31T09:08:41.000Z</time>
      </trkpt>
      <trkpt lat="49.77628" lon="4.81382">
        <ele>277</ele>
        <time>2020-10-31T09:08:42.000Z</time>
      </trkpt>
      <trkpt lat="49.77628" lon="4.81384">
        <ele>277</ele>
        <time>2020-10-31T09:08:43.000Z</time>
      </trkpt>
      <trkpt lat="49.77629" lon="4.81387">
        <ele>277</ele>
        <time>2020-10-31T09:08:44.000Z</time>
      </trkpt>
      <trkpt lat="49.77629" lon="4.81389">
        <ele>277</ele>
        <time>2020-10-31T09:08:45.000Z</time>
      </trkpt>
      <trkpt lat="49.7763" lon="4.81391">
        <ele>277</ele>
        <time>2020-10-31T09:08:46.000Z</time>
      </trkpt>
      <trkpt lat="49.7763" lon="4.81391">
        <ele>277</ele>
        <time>2020-10-31T09:08:47.000Z</time>
      </trkpt>
      <trkpt lat="49.77631" lon="4.81391">
        <ele>277</ele>
        <time>2020-10-31T09:08:48.000Z</time>
      </trkpt>
      <trkpt lat="49.77631" lon="4.81391">
        <ele>277</ele>
        <time>2020-10-31T09:08:49.000Z</time>
      </trkpt>
      <trkpt lat="49.77631" lon="4.81391">
        <ele>277</ele>
        <time>2020-10-31T09:08:50.000Z</time>
      </trkpt>
      <trkpt lat="49.77631" lon="4.81391">
        <ele>277</ele>
        <time>2020-10-31T09:08:51.000Z</time>
      </trkpt>
      <trkpt lat="49.77631" lon="4.81391">
        <ele>277</ele>
        <time>2020-10-31T09:08:52.000Z</time>
      </trkpt>
      <trkpt lat="49.77631" lon="4.81391">
        <ele>277</ele>
        <time>2020-10-31T09:08:53.000Z</time>
      </trkpt>
      <trkpt lat="49.77631" lon="4.81391">
        <ele>277</ele>
        <time>2020-10-31T09:08:54.000Z</time>
      </trkpt>
      <trkpt lat="49.77631" lon="4.8139">
        <ele>277</ele>
        <time>2020-10-31T09:08:55.000Z</time>
      </trkpt>
      <trkpt lat="49.77631" lon="4.81388">
        <ele>277</ele>
        <time>2020-10-31T09:08:56.000Z</time>
      </trkpt>
      <trkpt lat="49.77631" lon="4.81386">
        <ele>277</ele>
        <time>2020-10-31T09:08:57.000Z</time>
      </trkpt>
      <trkpt lat="49.7763" lon="4.81383">
        <ele>277</ele>
        <time>2020-10-31T09:08:58.000Z</time>
      </trkpt>
      <trkpt lat="49.7763" lon="4.81379">
        <ele>277</ele>
        <time>2020-10-31T09:08:59.000Z</time>
      </trkpt>
      <trkpt lat="49.77629" lon="4.81374">
        <ele>277</ele>
        <time>2020-10-31T09:09:00.000Z</time>
      </trkpt>
      <trkpt lat="49.77628" lon="4.8137">
        <ele>277</ele>
        <time>2020-10-31T09:09:01.000Z</time>
      </trkpt>
      <trkpt lat="49.77628" lon="4.81367">
        <ele>277</ele>
        <time>2020-10-31T09:09:02.000Z</time>
      </trkpt>
      <trkpt lat="49.77627" lon="4.81366">
        <ele>277</ele>
        <time>2020-10-31T09:09:03.000Z</time>
      </trkpt>
      <trkpt lat="49.77626" lon="4.81364">
        <ele>277</ele>
        <time>2020-10-31T09:09:04.000Z</time>
      </trkpt>
      <trkpt lat="49.77625" lon="4.81363">
        <ele>277</ele>
        <time>2020-10-31T09:09:05.000Z</time>
      </trkpt>
      <trkpt lat="49.77625" lon="4.81362">
        <ele>278</ele>
        <time>2020-10-31T09:09:06.000Z</time>
      </trkpt>
      <trkpt lat="49.77625" lon="4.81362">
        <ele>278</ele>
        <time>2020-10-31T09:09:07.000Z</time>
      </trkpt>
      <trkpt lat="49.77625" lon="4.81362">
        <ele>278</ele>
        <time>2020-10-31T09:09:08.000Z</time>
      </trkpt>
      <trkpt lat="49.77624" lon="4.81363">
        <ele>278</ele>
        <time>2020-10-31T09:09:09.000Z</time>
      </trkpt>
      <trkpt lat="49.77624" lon="4.81363">
        <ele>277</ele>
        <time>2020-10-31T09:09:10.000Z</time>
      </trkpt>
      <trkpt lat="49.77623" lon="4.81363">
        <ele>277</ele>
        <time>2020-10-31T09:09:11.000Z</time>
      </trkpt>
      <trkpt lat="49.77622" lon="4.81362">
        <ele>277</ele>
        <time>2020-10-31T09:09:12.000Z</time>
      </trkpt>
      <trkpt lat="49.77622" lon="4.81361">
        <ele>277</ele>
        <time>2020-10-31T09:09:13.000Z</time>
      </trkpt>
      <trkpt lat="49.77621" lon="4.81359">
        <ele>277</ele>
        <time>2020-10-31T09:09:14.000Z</time>
      </trkpt>
      <trkpt lat="49.77621" lon="4.81357">
        <ele>277</ele>
        <time>2020-10-31T09:09:15.000Z</time>
      </trkpt>
      <trkpt lat="49.77621" lon="4.81357">
        <ele>277</ele>
        <time>2020-10-31T09:09:16.000Z</time>
      </trkpt>
      <trkpt lat="49.7762" lon="4.81356">
        <ele>277</ele>
        <time>2020-10-31T09:09:17.000Z</time>
      </trkpt>
      <trkpt lat="49.7762" lon="4.81354">
        <ele>277</ele>
        <time>2020-10-31T09:09:18.000Z</time>
      </trkpt>
      <trkpt lat="49.7762" lon="4.81352">
        <ele>277</ele>
        <time>2020-10-31T09:09:19.000Z</time>
      </trkpt>
      <trkpt lat="49.77619" lon="4.81348">
        <ele>277</ele>
        <time>2020-10-31T09:09:20.000Z</time>
      </trkpt>
      <trkpt lat="49.77618" lon="4.81345">
        <ele>277</ele>
        <time>2020-10-31T09:09:21.000Z</time>
      </trkpt>
      <trkpt lat="49.77618" lon="4.81341">
        <ele>277</ele>
        <time>2020-10-31T09:09:22.000Z</time>
      </trkpt>
      <trkpt lat="49.77617" lon="4.81337">
        <ele>277</ele>
        <time>2020-10-31T09:09:23.000Z</time>
      </trkpt>
      <trkpt lat="49.77616" lon="4.81333">
        <ele>277</ele>
        <time>2020-10-31T09:09:24.000Z</time>
      </trkpt>
      <trkpt lat="49.77615" lon="4.81328">
        <ele>277</ele>
        <time>2020-10-31T09:09:25.000Z</time>
      </trkpt>
      <trkpt lat="49.77614" lon="4.81323">
        <ele>277</ele>
        <time>2020-10-31T09:09:26.000Z</time>
      </trkpt>
      <trkpt lat="49.77613" lon="4.81318">
        <ele>277</ele>
        <time>2020-10-31T09:09:27.000Z</time>
      </trkpt>
      <trkpt lat="49.77612" lon="4.81312">
        <ele>277</ele>
        <time>2020-10-31T09:09:28.000Z</time>
      </trkpt>
      <trkpt lat="49.7761" lon="4.81307">
        <ele>277</ele>
        <time>2020-10-31T09:09:29.000Z</time>
      </trkpt>
      <trkpt lat="49.77609" lon="4.81301">
        <ele>277</ele>
        <time>2020-10-31T09:09:30.000Z</time>
      </trkpt>
      <trkpt lat="49.77608" lon="4.81295">
        <ele>277</ele>
        <time>2020-10-31T09:09:31.000Z</time>
      </trkpt>
      <trkpt lat="49.77607" lon="4.8129">
        <ele>277</ele>
        <time>2020-10-31T09:09:32.000Z</time>
      </trkpt>
      <trkpt lat="49.77606" lon="4.81285">
        <ele>277</ele>
        <time>2020-10-31T09:09:33.000Z</time>
      </trkpt>
      <trkpt lat="49.77605" lon="4.81279">
        <ele>277</ele>
        <time>2020-10-31T09:09:34.000Z</time>
      </trkpt>
      <trkpt lat="49.77603" lon="4.81275">
        <ele>277</ele>
        <time>2020-10-31T09:09:35.000Z</time>
      </trkpt>
      <trkpt lat="49.77602" lon="4.81271">
        <ele>277</ele>
        <time>2020-10-31T09:09:36.000Z</time>
      </trkpt>
      <trkpt lat="49.77601" lon="4.81267">
        <ele>277</ele>
        <time>2020-10-31T09:09:37.000Z</time>
      </trkpt>
      <trkpt lat="49.776" lon="4.81264">
        <ele>277</ele>
        <time>2020-10-31T09:09:38.000Z</time>
      </trkpt>
      <trkpt lat="49.77599" lon="4.81261">
        <ele>277</ele>
        <time>2020-10-31T09:09:39.000Z</time>
      </trkpt>
      <trkpt lat="49.77597" lon="4.81259">
        <ele>277</ele>
        <time>2020-10-31T09:09:40.000Z</time>
      </trkpt>
      <trkpt lat="49.77595" lon="4.81259">
        <ele>277</ele>
        <time>2020-10-31T09:09:41.000Z</time>
      </trkpt>
      <trkpt lat="49.77592" lon="4.81259">
        <ele>277</ele>
        <time>2020-10-31T09:09:42.000Z</time>
      </trkpt>
      <trkpt lat="49.77589" lon="4.81261">
        <ele>277</ele>
        <time>2020-10-31T09:09:43.000Z</time>
      </trkpt>
      <trkpt lat="49.77585" lon="4.81263">
        <ele>277</ele>
        <time>2020-10-31T09:09:44.000Z</time>
      </trkpt>
      <trkpt lat="49.77582" lon="4.81265">
        <ele>277</ele>
        <time>2020-10-31T09:09:45.000Z</time>
      </trkpt>
      <trkpt lat="49.77578" lon="4.81267">
        <ele>277</ele>
        <time>2020-10-31T09:09:46.000Z</time>
      </trkpt>
      <trkpt lat="49.77575" lon="4.81269">
        <ele>277</ele>
        <time>2020-10-31T09:09:47.000Z</time>
      </trkpt>
      <trkpt lat="49.77571" lon="4.81271">
        <ele>277</ele>
        <time>2020-10-31T09:09:48.000Z</time>
      </trkpt>
      <trkpt lat="49.77567" lon="4.81274">
        <ele>277</ele>
        <time>2020-10-31T09:09:49.000Z</time>
      </trkpt>
      <trkpt lat="49.77563" lon="4.81276">
        <ele>277</ele>
        <time>2020-10-31T09:09:50.000Z</time>
      </trkpt>
      <trkpt lat="49.77559" lon="4.81278">
        <ele>277</ele>
        <time>2020-10-31T09:09:51.000Z</time>
      </trkpt>
      <trkpt lat="49.77556" lon="4.8128">
        <ele>277</ele>
        <time>2020-10-31T09:09:52.000Z</time>
      </trkpt>
      <trkpt lat="49.77554" lon="4.81282">
        <ele>277</ele>
        <time>2020-10-31T09:09:53.000Z</time>
      </trkpt>
      <trkpt lat="49.77552" lon="4.81286">
        <ele>277</ele>
        <time>2020-10-31T09:09:54.000Z</time>
      </trkpt>
      <trkpt lat="49.7755" lon="4.81288">
        <ele>277</ele>
        <time>2020-10-31T09:09:55.000Z</time>
      </trkpt>
      <trkpt lat="49.77546" lon="4.81291">
        <ele>277</ele>
        <time>2020-10-31T09:09:56.000Z</time>
      </trkpt>
      <trkpt lat="49.77543" lon="4.81293">
        <ele>276</ele>
        <time>2020-10-31T09:09:57.000Z</time>
      </trkpt>
      <trkpt lat="49.7754" lon="4.81295">
        <ele>276</ele>
        <time>2020-10-31T09:09:58.000Z</time>
      </trkpt>
      <trkpt lat="49.77537" lon="4.81297">
        <ele>276</ele>
        <time>2020-10-31T09:09:59.000Z</time>
      </trkpt>
      <trkpt lat="49.77533" lon="4.81298">
        <ele>276</ele>
        <time>2020-10-31T09:10:00.000Z</time>
      </trkpt>
      <trkpt lat="49.7753" lon="4.81297">
        <ele>276</ele>
        <time>2020-10-31T09:10:01.000Z</time>
      </trkpt>
      <trkpt lat="49.77528" lon="4.81295">
        <ele>276</ele>
        <time>2020-10-31T09:10:02.000Z</time>
      </trkpt>
      <trkpt lat="49.77525" lon="4.81293">
        <ele>276</ele>
        <time>2020-10-31T09:10:03.000Z</time>
      </trkpt>
      <trkpt lat="49.77522" lon="4.8129">
        <ele>276</ele>
        <time>2020-10-31T09:10:04.000Z</time>
      </trkpt>
      <trkpt lat="49.77519" lon="4.81286">
        <ele>276</ele>
        <time>2020-10-31T09:10:05.000Z</time>
      </trkpt>
      <trkpt lat="49.77518" lon="4.81282">
        <ele>276</ele>
        <time>2020-10-31T09:10:06.000Z</time>
      </trkpt>
      <trkpt lat="49.77516" lon="4.81277">
        <ele>276</ele>
        <time>2020-10-31T09:10:07.000Z</time>
      </trkpt>
      <trkpt lat="49.77515" lon="4.81271">
        <ele>276</ele>
        <time>2020-10-31T09:10:08.000Z</time>
      </trkpt>
      <trkpt lat="49.77513" lon="4.81266">
        <ele>276</ele>
        <time>2020-10-31T09:10:09.000Z</time>
      </trkpt>
      <trkpt lat="49.77511" lon="4.8126">
        <ele>275</ele>
        <time>2020-10-31T09:10:10.000Z</time>
      </trkpt>
      <trkpt lat="49.77509" lon="4.81253">
        <ele>275</ele>
        <time>2020-10-31T09:10:11.000Z</time>
      </trkpt>
      <trkpt lat="49.77507" lon="4.81246">
        <ele>275</ele>
        <time>2020-10-31T09:10:12.000Z</time>
      </trkpt>
      <trkpt lat="49.77505" lon="4.81239">
        <ele>275</ele>
        <time>2020-10-31T09:10:13.000Z</time>
      </trkpt>
      <trkpt lat="49.77503" lon="4.81232">
        <ele>275</ele>
        <time>2020-10-31T09:10:14.000Z</time>
      </trkpt>
      <trkpt lat="49.77501" lon="4.81225">
        <ele>275</ele>
        <time>2020-10-31T09:10:15.000Z</time>
      </trkpt>
      <trkpt lat="49.77499" lon="4.81217">
        <ele>275</ele>
        <time>2020-10-31T09:10:16.000Z</time>
      </trkpt>
      <trkpt lat="49.77497" lon="4.8121">
        <ele>275</ele>
        <time>2020-10-31T09:10:17.000Z</time>
      </trkpt>
      <trkpt lat="49.77495" lon="4.81202">
        <ele>275</ele>
        <time>2020-10-31T09:10:18.000Z</time>
      </trkpt>
      <trkpt lat="49.77492" lon="4.81194">
        <ele>275</ele>
        <time>2020-10-31T09:10:19.000Z</time>
      </trkpt>
      <trkpt lat="49.7749" lon="4.81187">
        <ele>275</ele>
        <time>2020-10-31T09:10:20.000Z</time>
      </trkpt>
      <trkpt lat="49.77487" lon="4.8118">
        <ele>274</ele>
        <time>2020-10-31T09:10:21.000Z</time>
      </trkpt>
      <trkpt lat="49.77485" lon="4.81173">
        <ele>274</ele>
        <time>2020-10-31T09:10:22.000Z</time>
      </trkpt>
      <trkpt lat="49.77483" lon="4.81166">
        <ele>274</ele>
        <time>2020-10-31T09:10:23.000Z</time>
      </trkpt>
      <trkpt lat="49.77481" lon="4.8116">
        <ele>274</ele>
        <time>2020-10-31T09:10:24.000Z</time>
      </trkpt>
      <trkpt lat="49.77479" lon="4.81153">
        <ele>274</ele>
        <time>2020-10-31T09:10:25.000Z</time>
      </trkpt>
      <trkpt lat="49.77478" lon="4.81147">
        <ele>274</ele>
        <time>2020-10-31T09:10:26.000Z</time>
      </trkpt>
      <trkpt lat="49.77476" lon="4.81141">
        <ele>274</ele>
        <time>2020-10-31T09:10:27.000Z</time>
      </trkpt>
      <trkpt lat="49.77474" lon="4.81134">
        <ele>274</ele>
        <time>2020-10-31T09:10:28.000Z</time>
      </trkpt>
      <trkpt lat="49.77473" lon="4.81128">
        <ele>274</ele>
        <time>2020-10-31T09:10:29.000Z</time>
      </trkpt>
      <trkpt lat="49.77471" lon="4.81121">
        <ele>274</ele>
        <time>2020-10-31T09:10:30.000Z</time>
      </trkpt>
      <trkpt lat="49.77469" lon="4.81114">
        <ele>274</ele>
        <time>2020-10-31T09:10:31.000Z</time>
      </trkpt>
      <trkpt lat="49.77467" lon="4.81107">
        <ele>274</ele>
        <time>2020-10-31T09:10:32.000Z</time>
      </trkpt>
      <trkpt lat="49.77465" lon="4.81099">
        <ele>274</ele>
        <time>2020-10-31T09:10:33.000Z</time>
      </trkpt>
      <trkpt lat="49.77463" lon="4.81091">
        <ele>273</ele>
        <time>2020-10-31T09:10:34.000Z</time>
      </trkpt>
      <trkpt lat="49.77461" lon="4.81083">
        <ele>273</ele>
        <time>2020-10-31T09:10:35.000Z</time>
      </trkpt>
      <trkpt lat="49.77459" lon="4.81075">
        <ele>273</ele>
        <time>2020-10-31T09:10:36.000Z</time>
      </trkpt>
      <trkpt lat="49.77455" lon="4.81069">
        <ele>273</ele>
        <time>2020-10-31T09:10:37.000Z</time>
      </trkpt>
      <trkpt lat="49.77451" lon="4.81065">
        <ele>272</ele>
        <time>2020-10-31T09:10:38.000Z</time>
      </trkpt>
      <trkpt lat="49.77446" lon="4.81065">
        <ele>272</ele>
        <time>2020-10-31T09:10:39.000Z</time>
      </trkpt>
      <trkpt lat="49.77441" lon="4.81068">
        <ele>272</ele>
        <time>2020-10-31T09:10:40.000Z</time>
      </trkpt>
      <trkpt lat="49.77437" lon="4.81072">
        <ele>272</ele>
        <time>2020-10-31T09:10:41.000Z</time>
      </trkpt>
      <trkpt lat="49.77433" lon="4.81075">
        <ele>271</ele>
        <time>2020-10-31T09:10:42.000Z</time>
      </trkpt>
      <trkpt lat="49.77429" lon="4.81078">
        <ele>271</ele>
        <time>2020-10-31T09:10:43.000Z</time>
      </trkpt>
      <trkpt lat="49.77424" lon="4.81081">
        <ele>271</ele>
        <time>2020-10-31T09:10:44.000Z</time>
      </trkpt>
      <trkpt lat="49.7742" lon="4.81082">
        <ele>271</ele>
        <time>2020-10-31T09:10:45.000Z</time>
      </trkpt>
      <trkpt lat="49.77415" lon="4.8108">
        <ele>270</ele>
        <time>2020-10-31T09:10:46.000Z</time>
      </trkpt>
      <trkpt lat="49.77411" lon="4.81075">
        <ele>270</ele>
        <time>2020-10-31T09:10:47.000Z</time>
      </trkpt>
      <trkpt lat="49.77408" lon="4.8107">
        <ele>270</ele>
        <time>2020-10-31T09:10:48.000Z</time>
      </trkpt>
      <trkpt lat="49.77405" lon="4.81064">
        <ele>270</ele>
        <time>2020-10-31T09:10:49.000Z</time>
      </trkpt>
      <trkpt lat="49.77402" lon="4.81058">
        <ele>269</ele>
        <time>2020-10-31T09:10:50.000Z</time>
      </trkpt>
      <trkpt lat="49.77399" lon="4.81053">
        <ele>269</ele>
        <time>2020-10-31T09:10:51.000Z</time>
      </trkpt>
      <trkpt lat="49.77396" lon="4.81046">
        <ele>269</ele>
        <time>2020-10-31T09:10:52.000Z</time>
      </trkpt>
      <trkpt lat="49.77394" lon="4.8104">
        <ele>269</ele>
        <time>2020-10-31T09:10:53.000Z</time>
      </trkpt>
      <trkpt lat="49.77391" lon="4.81036">
        <ele>269</ele>
        <time>2020-10-31T09:10:54.000Z</time>
      </trkpt>
      <trkpt lat="49.77389" lon="4.81032">
        <ele>269</ele>
        <time>2020-10-31T09:10:55.000Z</time>
      </trkpt>
      <trkpt lat="49.77387" lon="4.81028">
        <ele>268</ele>
        <time>2020-10-31T09:10:56.000Z</time>
      </trkpt>
      <trkpt lat="49.77385" lon="4.81024">
        <ele>268</ele>
        <time>2020-10-31T09:10:57.000Z</time>
      </trkpt>
      <trkpt lat="49.77382" lon="4.81019">
        <ele>268</ele>
        <time>2020-10-31T09:10:58.000Z</time>
      </trkpt>
      <trkpt lat="49.7738" lon="4.81015">
        <ele>268</ele>
        <time>2020-10-31T09:10:59.000Z</time>
      </trkpt>
      <trkpt lat="49.77376" lon="4.8101">
        <ele>268</ele>
        <time>2020-10-31T09:11:00.000Z</time>
      </trkpt>
      <trkpt lat="49.77373" lon="4.81005">
        <ele>268</ele>
        <time>2020-10-31T09:11:01.000Z</time>
      </trkpt>
      <trkpt lat="49.7737" lon="4.81001">
        <ele>268</ele>
        <time>2020-10-31T09:11:02.000Z</time>
      </trkpt>
      <trkpt lat="49.77366" lon="4.80998">
        <ele>268</ele>
        <time>2020-10-31T09:11:03.000Z</time>
      </trkpt>
      <trkpt lat="49.77362" lon="4.80998">
        <ele>268</ele>
        <time>2020-10-31T09:11:04.000Z</time>
      </trkpt>
      <trkpt lat="49.77359" lon="4.80999">
        <ele>267</ele>
        <time>2020-10-31T09:11:05.000Z</time>
      </trkpt>
      <trkpt lat="49.77355" lon="4.81003">
        <ele>267</ele>
        <time>2020-10-31T09:11:06.000Z</time>
      </trkpt>
      <trkpt lat="49.77351" lon="4.81008">
        <ele>267</ele>
        <time>2020-10-31T09:11:07.000Z</time>
      </trkpt>
      <trkpt lat="49.77347" lon="4.81013">
        <ele>267</ele>
        <time>2020-10-31T09:11:08.000Z</time>
      </trkpt>
      <trkpt lat="49.77342" lon="4.81019">
        <ele>266</ele>
        <time>2020-10-31T09:11:09.000Z</time>
      </trkpt>
      <trkpt lat="49.77338" lon="4.81026">
        <ele>266</ele>
        <time>2020-10-31T09:11:10.000Z</time>
      </trkpt>
      <trkpt lat="49.77333" lon="4.81033">
        <ele>266</ele>
        <time>2020-10-31T09:11:11.000Z</time>
      </trkpt>
      <trkpt lat="49.77329" lon="4.8104">
        <ele>265</ele>
        <time>2020-10-31T09:11:12.000Z</time>
      </trkpt>
      <trkpt lat="49.77324" lon="4.81047">
        <ele>265</ele>
        <time>2020-10-31T09:11:13.000Z</time>
      </trkpt>
      <trkpt lat="49.77319" lon="4.81055">
        <ele>265</ele>
        <time>2020-10-31T09:11:14.000Z</time>
      </trkpt>
      <trkpt lat="49.77314" lon="4.81062">
        <ele>265</ele>
        <time>2020-10-31T09:11:15.000Z</time>
      </trkpt>
      <trkpt lat="49.7731" lon="4.81069">
        <ele>264</ele>
        <time>2020-10-31T09:11:16.000Z</time>
      </trkpt>
      <trkpt lat="49.77305" lon="4.81076">
        <ele>264</ele>
        <time>2020-10-31T09:11:17.000Z</time>
      </trkpt>
      <trkpt lat="49.773" lon="4.81082">
        <ele>264</ele>
        <time>2020-10-31T09:11:18.000Z</time>
      </trkpt>
      <trkpt lat="49.77296" lon="4.81089">
        <ele>264</ele>
        <time>2020-10-31T09:11:19.000Z</time>
      </trkpt>
      <trkpt lat="49.77292" lon="4.81095">
        <ele>263</ele>
        <time>2020-10-31T09:11:20.000Z</time>
      </trkpt>
      <trkpt lat="49.77288" lon="4.81101">
        <ele>263</ele>
        <time>2020-10-31T09:11:21.000Z</time>
      </trkpt>
      <trkpt lat="49.77284" lon="4.81106">
        <ele>263</ele>
        <time>2020-10-31T09:11:22.000Z</time>
      </trkpt>
      <trkpt lat="49.77279" lon="4.81112">
        <ele>263</ele>
        <time>2020-10-31T09:11:23.000Z</time>
      </trkpt>
      <trkpt lat="49.77275" lon="4.81118">
        <ele>263</ele>
        <time>2020-10-31T09:11:24.000Z</time>
      </trkpt>
      <trkpt lat="49.77271" lon="4.81124">
        <ele>263</ele>
        <time>2020-10-31T09:11:25.000Z</time>
      </trkpt>
      <trkpt lat="49.77267" lon="4.8113">
        <ele>263</ele>
        <time>2020-10-31T09:11:26.000Z</time>
      </trkpt>
      <trkpt lat="49.77262" lon="4.81136">
        <ele>262</ele>
        <time>2020-10-31T09:11:27.000Z</time>
      </trkpt>
      <trkpt lat="49.77258" lon="4.81142">
        <ele>262</ele>
        <time>2020-10-31T09:11:28.000Z</time>
      </trkpt>
      <trkpt lat="49.77253" lon="4.81149">
        <ele>262</ele>
        <time>2020-10-31T09:11:29.000Z</time>
      </trkpt>
      <trkpt lat="49.77249" lon="4.81155">
        <ele>262</ele>
        <time>2020-10-31T09:11:30.000Z</time>
      </trkpt>
      <trkpt lat="49.77245" lon="4.81161">
        <ele>261</ele>
        <time>2020-10-31T09:11:31.000Z</time>
      </trkpt>
      <trkpt lat="49.7724" lon="4.81167">
        <ele>261</ele>
        <time>2020-10-31T09:11:32.000Z</time>
      </trkpt>
      <trkpt lat="49.77235" lon="4.81174">
        <ele>261</ele>
        <time>2020-10-31T09:11:33.000Z</time>
      </trkpt>
      <trkpt lat="49.77231" lon="4.8118">
        <ele>260</ele>
        <time>2020-10-31T09:11:34.000Z</time>
      </trkpt>
      <trkpt lat="49.77226" lon="4.81187">
        <ele>260</ele>
        <time>2020-10-31T09:11:35.000Z</time>
      </trkpt>
      <trkpt lat="49.77221" lon="4.81194">
        <ele>260</ele>
        <time>2020-10-31T09:11:36.000Z</time>
      </trkpt>
      <trkpt lat="49.77216" lon="4.81201">
        <ele>259</ele>
        <time>2020-10-31T09:11:37.000Z</time>
      </trkpt>
      <trkpt lat="49.77211" lon="4.81208">
        <ele>259</ele>
        <time>2020-10-31T09:11:38.000Z</time>
      </trkpt>
      <trkpt lat="49.77205" lon="4.81214">
        <ele>259</ele>
        <time>2020-10-31T09:11:39.000Z</time>
      </trkpt>
      <trkpt lat="49.772" lon="4.81221">
        <ele>258</ele>
        <time>2020-10-31T09:11:40.000Z</time>
      </trkpt>
      <trkpt lat="49.77194" lon="4.81227">
        <ele>258</ele>
        <time>2020-10-31T09:11:41.000Z</time>
      </trkpt>
      <trkpt lat="49.77189" lon="4.81233">
        <ele>258</ele>
        <time>2020-10-31T09:11:42.000Z</time>
      </trkpt>
      <trkpt lat="49.77183" lon="4.81239">
        <ele>257</ele>
        <time>2020-10-31T09:11:43.000Z</time>
      </trkpt>
      <trkpt lat="49.77177" lon="4.81245">
        <ele>257</ele>
        <time>2020-10-31T09:11:44.000Z</time>
      </trkpt>
      <trkpt lat="49.77171" lon="4.8125">
        <ele>256</ele>
        <time>2020-10-31T09:11:45.000Z</time>
      </trkpt>
      <trkpt lat="49.77165" lon="4.81256">
        <ele>256</ele>
        <time>2020-10-31T09:11:46.000Z</time>
      </trkpt>
      <trkpt lat="49.7716" lon="4.81261">
        <ele>255</ele>
        <time>2020-10-31T09:11:47.000Z</time>
      </trkpt>
      <trkpt lat="49.77154" lon="4.81267">
        <ele>255</ele>
        <time>2020-10-31T09:11:48.000Z</time>
      </trkpt>
      <trkpt lat="49.77149" lon="4.81272">
        <ele>255</ele>
        <time>2020-10-31T09:11:49.000Z</time>
      </trkpt>
      <trkpt lat="49.77143" lon="4.81277">
        <ele>255</ele>
        <time>2020-10-31T09:11:50.000Z</time>
      </trkpt>
      <trkpt lat="49.77138" lon="4.81282">
        <ele>255</ele>
        <time>2020-10-31T09:11:51.000Z</time>
      </trkpt>
      <trkpt lat="49.77133" lon="4.81287">
        <ele>255</ele>
        <time>2020-10-31T09:11:52.000Z</time>
      </trkpt>
      <trkpt lat="49.77128" lon="4.81291">
        <ele>255</ele>
        <time>2020-10-31T09:11:53.000Z</time>
      </trkpt>
      <trkpt lat="49.77123" lon="4.81296">
        <ele>254</ele>
        <time>2020-10-31T09:11:54.000Z</time>
      </trkpt>
      <trkpt lat="49.77118" lon="4.81301">
        <ele>254</ele>
        <time>2020-10-31T09:11:55.000Z</time>
      </trkpt>
      <trkpt lat="49.77113" lon="4.81305">
        <ele>254</ele>
        <time>2020-10-31T09:11:56.000Z</time>
      </trkpt>
      <trkpt lat="49.77108" lon="4.8131">
        <ele>254</ele>
        <time>2020-10-31T09:11:57.000Z</time>
      </trkpt>
      <trkpt lat="49.77103" lon="4.81315">
        <ele>254</ele>
        <time>2020-10-31T09:11:58.000Z</time>
      </trkpt>
      <trkpt lat="49.77098" lon="4.8132">
        <ele>254</ele>
        <time>2020-10-31T09:11:59.000Z</time>
      </trkpt>
      <trkpt lat="49.77093" lon="4.81324">
        <ele>254</ele>
        <time>2020-10-31T09:12:00.000Z</time>
      </trkpt>
      <trkpt lat="49.77088" lon="4.81329">
        <ele>254</ele>
        <time>2020-10-31T09:12:01.000Z</time>
      </trkpt>
      <trkpt lat="49.77083" lon="4.81333">
        <ele>254</ele>
        <time>2020-10-31T09:12:02.000Z</time>
      </trkpt>
      <trkpt lat="49.77078" lon="4.81338">
        <ele>254</ele>
        <time>2020-10-31T09:12:03.000Z</time>
      </trkpt>
      <trkpt lat="49.77074" lon="4.81343">
        <ele>254</ele>
        <time>2020-10-31T09:12:04.000Z</time>
      </trkpt>
      <trkpt lat="49.77069" lon="4.81348">
        <ele>254</ele>
        <time>2020-10-31T09:12:05.000Z</time>
      </trkpt>
      <trkpt lat="49.77064" lon="4.81353">
        <ele>254</ele>
        <time>2020-10-31T09:12:06.000Z</time>
      </trkpt>
      <trkpt lat="49.77059" lon="4.81357">
        <ele>254</ele>
        <time>2020-10-31T09:12:07.000Z</time>
      </trkpt>
      <trkpt lat="49.77054" lon="4.8136">
        <ele>254</ele>
        <time>2020-10-31T09:12:08.000Z</time>
      </trkpt>
      <trkpt lat="49.77049" lon="4.81364">
        <ele>254</ele>
        <time>2020-10-31T09:12:09.000Z</time>
      </trkpt>
      <trkpt lat="49.77045" lon="4.81368">
        <ele>254</ele>
        <time>2020-10-31T09:12:10.000Z</time>
      </trkpt>
      <trkpt lat="49.7704" lon="4.81372">
        <ele>254</ele>
        <time>2020-10-31T09:12:11.000Z</time>
      </trkpt>
      <trkpt lat="49.77037" lon="4.81376">
        <ele>254</ele>
        <time>2020-10-31T09:12:12.000Z</time>
      </trkpt>
      <trkpt lat="49.77034" lon="4.81383">
        <ele>254</ele>
        <time>2020-10-31T09:12:13.000Z</time>
      </trkpt>
      <trkpt lat="49.77034" lon="4.8139">
        <ele>254</ele>
        <time>2020-10-31T09:12:14.000Z</time>
      </trkpt>
      <trkpt lat="49.77035" lon="4.81397">
        <ele>254</ele>
        <time>2020-10-31T09:12:15.000Z</time>
      </trkpt>
      <trkpt lat="49.77036" lon="4.81404">
        <ele>254</ele>
        <time>2020-10-31T09:12:16.000Z</time>
      </trkpt>
      <trkpt lat="49.77038" lon="4.81409">
        <ele>255</ele>
        <time>2020-10-31T09:12:17.000Z</time>
      </trkpt>
      <trkpt lat="49.7704" lon="4.81414">
        <ele>255</ele>
        <time>2020-10-31T09:12:18.000Z</time>
      </trkpt>
      <trkpt lat="49.77042" lon="4.81419">
        <ele>255</ele>
        <time>2020-10-31T09:12:19.000Z</time>
      </trkpt>
      <trkpt lat="49.77043" lon="4.81424">
        <ele>255</ele>
        <time>2020-10-31T09:12:20.000Z</time>
      </trkpt>
      <trkpt lat="49.77044" lon="4.81429">
        <ele>255</ele>
        <time>2020-10-31T09:12:21.000Z</time>
      </trkpt>
      <trkpt lat="49.77045" lon="4.81435">
        <ele>255</ele>
        <time>2020-10-31T09:12:22.000Z</time>
      </trkpt>
      <trkpt lat="49.77046" lon="4.8144">
        <ele>255</ele>
        <time>2020-10-31T09:12:23.000Z</time>
      </trkpt>
      <trkpt lat="49.77047" lon="4.81446">
        <ele>255</ele>
        <time>2020-10-31T09:12:24.000Z</time>
      </trkpt>
      <trkpt lat="49.77047" lon="4.81452">
        <ele>255</ele>
        <time>2020-10-31T09:12:25.000Z</time>
      </trkpt>
      <trkpt lat="49.77047" lon="4.81458">
        <ele>255</ele>
        <time>2020-10-31T09:12:26.000Z</time>
      </trkpt>
      <trkpt lat="49.77045" lon="4.81464">
        <ele>255</ele>
        <time>2020-10-31T09:12:27.000Z</time>
      </trkpt>
      <trkpt lat="49.77042" lon="4.81468">
        <ele>255</ele>
        <time>2020-10-31T09:12:28.000Z</time>
      </trkpt>
      <trkpt lat="49.77038" lon="4.81471">
        <ele>254</ele>
        <time>2020-10-31T09:12:29.000Z</time>
      </trkpt>
      <trkpt lat="49.77034" lon="4.81471">
        <ele>254</ele>
        <time>2020-10-31T09:12:30.000Z</time>
      </trkpt>
      <trkpt lat="49.77029" lon="4.81471">
        <ele>254</ele>
        <time>2020-10-31T09:12:31.000Z</time>
      </trkpt>
      <trkpt lat="49.77024" lon="4.8147">
        <ele>254</ele>
        <time>2020-10-31T09:12:32.000Z</time>
      </trkpt>
      <trkpt lat="49.77019" lon="4.81469">
        <ele>253</ele>
        <time>2020-10-31T09:12:33.000Z</time>
      </trkpt>
      <trkpt lat="49.77014" lon="4.81468">
        <ele>253</ele>
        <time>2020-10-31T09:12:34.000Z</time>
      </trkpt>
      <trkpt lat="49.77008" lon="4.81467">
        <ele>253</ele>
        <time>2020-10-31T09:12:35.000Z</time>
      </trkpt>
      <trkpt lat="49.77003" lon="4.81467">
        <ele>252</ele>
        <time>2020-10-31T09:12:36.000Z</time>
      </trkpt>
      <trkpt lat="49.76997" lon="4.81467">
        <ele>252</ele>
        <time>2020-10-31T09:12:37.000Z</time>
      </trkpt>
      <trkpt lat="49.76992" lon="4.81466">
        <ele>252</ele>
        <time>2020-10-31T09:12:38.000Z</time>
      </trkpt>
      <trkpt lat="49.76989" lon="4.81464">
        <ele>252</ele>
        <time>2020-10-31T09:12:39.000Z</time>
      </trkpt>
      <trkpt lat="49.76987" lon="4.81463">
        <ele>252</ele>
        <time>2020-10-31T09:12:40.000Z</time>
      </trkpt>
      <trkpt lat="49.76986" lon="4.81465">
        <ele>251</ele>
        <time>2020-10-31T09:12:41.000Z</time>
      </trkpt>
      <trkpt lat="49.76987" lon="4.81467">
        <ele>251</ele>
        <time>2020-10-31T09:12:42.000Z</time>
      </trkpt>
      <trkpt lat="49.76989" lon="4.81468">
        <ele>251</ele>
        <time>2020-10-31T09:12:43.000Z</time>
      </trkpt>
      <trkpt lat="49.76993" lon="4.81467">
        <ele>252</ele>
        <time>2020-10-31T09:12:44.000Z</time>
      </trkpt>
      <trkpt lat="49.76997" lon="4.81467">
        <ele>252</ele>
        <time>2020-10-31T09:12:45.000Z</time>
      </trkpt>
      <trkpt lat="49.77001" lon="4.81466">
        <ele>252</ele>
        <time>2020-10-31T09:12:46.000Z</time>
      </trkpt>
      <trkpt lat="49.77006" lon="4.81467">
        <ele>252</ele>
        <time>2020-10-31T09:12:47.000Z</time>
      </trkpt>
      <trkpt lat="49.77011" lon="4.81468">
        <ele>252</ele>
        <time>2020-10-31T09:12:48.000Z</time>
      </trkpt>
      <trkpt lat="49.77015" lon="4.81469">
        <ele>253</ele>
        <time>2020-10-31T09:12:49.000Z</time>
      </trkpt>
      <trkpt lat="49.7702" lon="4.8147">
        <ele>253</ele>
        <time>2020-10-31T09:12:50.000Z</time>
      </trkpt>
      <trkpt lat="49.77024" lon="4.81471">
        <ele>253</ele>
        <time>2020-10-31T09:12:51.000Z</time>
      </trkpt>
      <trkpt lat="49.77029" lon="4.81472">
        <ele>253</ele>
        <time>2020-10-31T09:12:52.000Z</time>
      </trkpt>
      <trkpt lat="49.77034" lon="4.81472">
        <ele>253</ele>
        <time>2020-10-31T09:12:53.000Z</time>
      </trkpt>
      <trkpt lat="49.77038" lon="4.81471">
        <ele>254</ele>
        <time>2020-10-31T09:12:54.000Z</time>
      </trkpt>
      <trkpt lat="49.77042" lon="4.81467">
        <ele>254</ele>
        <time>2020-10-31T09:12:55.000Z</time>
      </trkpt>
      <trkpt lat="49.77046" lon="4.81462">
        <ele>254</ele>
        <time>2020-10-31T09:12:56.000Z</time>
      </trkpt>
      <trkpt lat="49.77048" lon="4.81456">
        <ele>254</ele>
        <time>2020-10-31T09:12:57.000Z</time>
      </trkpt>
      <trkpt lat="49.77048" lon="4.8145">
        <ele>254</ele>
        <time>2020-10-31T09:12:58.000Z</time>
      </trkpt>
      <trkpt lat="49.77048" lon="4.81444">
        <ele>254</ele>
        <time>2020-10-31T09:12:59.000Z</time>
      </trkpt>
      <trkpt lat="49.77047" lon="4.81437">
        <ele>254</ele>
        <time>2020-10-31T09:13:00.000Z</time>
      </trkpt>
      <trkpt lat="49.77046" lon="4.8143">
        <ele>254</ele>
        <time>2020-10-31T09:13:01.000Z</time>
      </trkpt>
      <trkpt lat="49.77045" lon="4.81423">
        <ele>254</ele>
        <time>2020-10-31T09:13:02.000Z</time>
      </trkpt>
      <trkpt lat="49.77043" lon="4.81416">
        <ele>254</ele>
        <time>2020-10-31T09:13:03.000Z</time>
      </trkpt>
      <trkpt lat="49.77041" lon="4.81409">
        <ele>254</ele>
        <time>2020-10-31T09:13:04.000Z</time>
      </trkpt>
      <trkpt lat="49.77039" lon="4.81401">
        <ele>254</ele>
        <time>2020-10-31T09:13:05.000Z</time>
      </trkpt>
      <trkpt lat="49.77036" lon="4.81394">
        <ele>253</ele>
        <time>2020-10-31T09:13:06.000Z</time>
      </trkpt>
      <trkpt lat="49.77034" lon="4.81389">
        <ele>253</ele>
        <time>2020-10-31T09:13:07.000Z</time>
      </trkpt>
      <trkpt lat="49.77033" lon="4.81388">
        <ele>253</ele>
        <time>2020-10-31T09:13:08.000Z</time>
      </trkpt>
      <trkpt lat="49.77032" lon="4.81388">
        <ele>253</ele>
        <time>2020-10-31T09:13:09.000Z</time>
      </trkpt>
      <trkpt lat="49.77031" lon="4.81387">
        <ele>253</ele>
        <time>2020-10-31T09:13:10.000Z</time>
      </trkpt>
      <trkpt lat="49.77028" lon="4.81387">
        <ele>253</ele>
        <time>2020-10-31T09:13:11.000Z</time>
      </trkpt>
      <trkpt lat="49.77024" lon="4.81388">
        <ele>253</ele>
        <time>2020-10-31T09:13:12.000Z</time>
      </trkpt>
      <trkpt lat="49.77019" lon="4.8139">
        <ele>253</ele>
        <time>2020-10-31T09:13:13.000Z</time>
      </trkpt>
      <trkpt lat="49.77015" lon="4.81394">
        <ele>253</ele>
        <time>2020-10-31T09:13:14.000Z</time>
      </trkpt>
      <trkpt lat="49.7701" lon="4.81398">
        <ele>253</ele>
        <time>2020-10-31T09:13:15.000Z</time>
      </trkpt>
      <trkpt lat="49.77005" lon="4.81402">
        <ele>252</ele>
        <time>2020-10-31T09:13:16.000Z</time>
      </trkpt>
      <trkpt lat="49.77" lon="4.81406">
        <ele>252</ele>
        <time>2020-10-31T09:13:17.000Z</time>
      </trkpt>
      <trkpt lat="49.76994" lon="4.8141">
        <ele>252</ele>
        <time>2020-10-31T09:13:18.000Z</time>
      </trkpt>
      <trkpt lat="49.76989" lon="4.81415">
        <ele>252</ele>
        <time>2020-10-31T09:13:19.000Z</time>
      </trkpt>
      <trkpt lat="49.76983" lon="4.8142">
        <ele>251</ele>
        <time>2020-10-31T09:13:20.000Z</time>
      </trkpt>
      <trkpt lat="49.76977" lon="4.81426">
        <ele>251</ele>
        <time>2020-10-31T09:13:21.000Z</time>
      </trkpt>
      <trkpt lat="49.76971" lon="4.81432">
        <ele>251</ele>
        <time>2020-10-31T09:13:22.000Z</time>
      </trkpt>
      <trkpt lat="49.76966" lon="4.81438">
        <ele>251</ele>
        <time>2020-10-31T09:13:23.000Z</time>
      </trkpt>
      <trkpt lat="49.7696" lon="4.81444">
        <ele>250</ele>
        <time>2020-10-31T09:13:24.000Z</time>
      </trkpt>
      <trkpt lat="49.76954" lon="4.81451">
        <ele>250</ele>
        <time>2020-10-31T09:13:25.000Z</time>
      </trkpt>
      <trkpt lat="49.76949" lon="4.81458">
        <ele>250</ele>
        <time>2020-10-31T09:13:26.000Z</time>
      </trkpt>
      <trkpt lat="49.76944" lon="4.81465">
        <ele>249</ele>
        <time>2020-10-31T09:13:27.000Z</time>
      </trkpt>
      <trkpt lat="49.76939" lon="4.81473">
        <ele>249</ele>
        <time>2020-10-31T09:13:28.000Z</time>
      </trkpt>
      <trkpt lat="49.76934" lon="4.81481">
        <ele>249</ele>
        <time>2020-10-31T09:13:29.000Z</time>
      </trkpt>
      <trkpt lat="49.76929" lon="4.8149">
        <ele>248</ele>
        <time>2020-10-31T09:13:30.000Z</time>
      </trkpt>
      <trkpt lat="49.76925" lon="4.81499">
        <ele>248</ele>
        <time>2020-10-31T09:13:31.000Z</time>
      </trkpt>
      <trkpt lat="49.76921" lon="4.81507">
        <ele>247</ele>
        <time>2020-10-31T09:13:32.000Z</time>
      </trkpt>
      <trkpt lat="49.76918" lon="4.81513">
        <ele>247</ele>
        <time>2020-10-31T09:13:33.000Z</time>
      </trkpt>
      <trkpt lat="49.76917" lon="4.81516">
        <ele>247</ele>
        <time>2020-10-31T09:13:34.000Z</time>
      </trkpt>
      <trkpt lat="49.76917" lon="4.81518">
        <ele>247</ele>
        <time>2020-10-31T09:13:35.000Z</time>
      </trkpt>
      <trkpt lat="49.76919" lon="4.81518">
        <ele>247</ele>
        <time>2020-10-31T09:13:36.000Z</time>
      </trkpt>
      <trkpt lat="49.7692" lon="4.81516">
        <ele>247</ele>
        <time>2020-10-31T09:13:37.000Z</time>
      </trkpt>
      <trkpt lat="49.76921" lon="4.81512">
        <ele>247</ele>
        <time>2020-10-31T09:13:38.000Z</time>
      </trkpt>
      <trkpt lat="49.76923" lon="4.81508">
        <ele>247</ele>
        <time>2020-10-31T09:13:39.000Z</time>
      </trkpt>
      <trkpt lat="49.76925" lon="4.81505">
        <ele>247</ele>
        <time>2020-10-31T09:13:40.000Z</time>
      </trkpt>
      <trkpt lat="49.76927" lon="4.81503">
        <ele>247</ele>
        <time>2020-10-31T09:13:41.000Z</time>
      </trkpt>
      <trkpt lat="49.76929" lon="4.81504">
        <ele>247</ele>
        <time>2020-10-31T09:13:42.000Z</time>
      </trkpt>
      <trkpt lat="49.76931" lon="4.81506">
        <ele>247</ele>
        <time>2020-10-31T09:13:43.000Z</time>
      </trkpt>
      <trkpt lat="49.76934" lon="4.81509">
        <ele>247</ele>
        <time>2020-10-31T09:13:44.000Z</time>
      </trkpt>
      <trkpt lat="49.76936" lon="4.81512">
        <ele>247</ele>
        <time>2020-10-31T09:13:45.000Z</time>
      </trkpt>
      <trkpt lat="49.76939" lon="4.81514">
        <ele>247</ele>
        <time>2020-10-31T09:13:46.000Z</time>
      </trkpt>
      <trkpt lat="49.76941" lon="4.81517">
        <ele>246</ele>
        <time>2020-10-31T09:13:47.000Z</time>
      </trkpt>
      <trkpt lat="49.76943" lon="4.8152">
        <ele>246</ele>
        <time>2020-10-31T09:13:48.000Z</time>
      </trkpt>
      <trkpt lat="49.76945" lon="4.81522">
        <ele>246</ele>
        <time>2020-10-31T09:13:49.000Z</time>
      </trkpt>
      <trkpt lat="49.76947" lon="4.81524">
        <ele>246</ele>
        <time>2020-10-31T09:13:50.000Z</time>
      </trkpt>
      <trkpt lat="49.76949" lon="4.81526">
        <ele>246</ele>
        <time>2020-10-31T09:13:51.000Z</time>
      </trkpt>
      <trkpt lat="49.76951" lon="4.81527">
        <ele>246</ele>
        <time>2020-10-31T09:13:52.000Z</time>
      </trkpt>
      <trkpt lat="49.76952" lon="4.81529">
        <ele>246</ele>
        <time>2020-10-31T09:13:53.000Z</time>
      </trkpt>
      <trkpt lat="49.76954" lon="4.81531">
        <ele>246</ele>
        <time>2020-10-31T09:13:54.000Z</time>
      </trkpt>
      <trkpt lat="49.76956" lon="4.81533">
        <ele>246</ele>
        <time>2020-10-31T09:13:55.000Z</time>
      </trkpt>
      <trkpt lat="49.76958" lon="4.81535">
        <ele>246</ele>
        <time>2020-10-31T09:13:56.000Z</time>
      </trkpt>
      <trkpt lat="49.7696" lon="4.81537">
        <ele>246</ele>
        <time>2020-10-31T09:13:57.000Z</time>
      </trkpt>
      <trkpt lat="49.76962" lon="4.81539">
        <ele>247</ele>
        <time>2020-10-31T09:13:58.000Z</time>
      </trkpt>
      <trkpt lat="49.76964" lon="4.81541">
        <ele>247</ele>
        <time>2020-10-31T09:13:59.000Z</time>
      </trkpt>
      <trkpt lat="49.76966" lon="4.81543">
        <ele>247</ele>
        <time>2020-10-31T09:14:00.000Z</time>
      </trkpt>
      <trkpt lat="49.76968" lon="4.81546">
        <ele>247</ele>
        <time>2020-10-31T09:14:01.000Z</time>
      </trkpt>
      <trkpt lat="49.76969" lon="4.81548">
        <ele>247</ele>
        <time>2020-10-31T09:14:02.000Z</time>
      </trkpt>
      <trkpt lat="49.76971" lon="4.81549">
        <ele>248</ele>
        <time>2020-10-31T09:14:03.000Z</time>
      </trkpt>
      <trkpt lat="49.76972" lon="4.81551">
        <ele>248</ele>
        <time>2020-10-31T09:14:04.000Z</time>
      </trkpt>
      <trkpt lat="49.76974" lon="4.81552">
        <ele>248</ele>
        <time>2020-10-31T09:14:05.000Z</time>
      </trkpt>
      <trkpt lat="49.76975" lon="4.81553">
        <ele>248</ele>
        <time>2020-10-31T09:14:06.000Z</time>
      </trkpt>
      <trkpt lat="49.76976" lon="4.81554">
        <ele>248</ele>
        <time>2020-10-31T09:14:07.000Z</time>
      </trkpt>
      <trkpt lat="49.76978" lon="4.81554">
        <ele>248</ele>
        <time>2020-10-31T09:14:08.000Z</time>
      </trkpt>
      <trkpt lat="49.7698" lon="4.81555">
        <ele>248</ele>
        <time>2020-10-31T09:14:09.000Z</time>
      </trkpt>
      <trkpt lat="49.76982" lon="4.81556">
        <ele>248</ele>
        <time>2020-10-31T09:14:10.000Z</time>
      </trkpt>
      <trkpt lat="49.76983" lon="4.81557">
        <ele>248</ele>
        <time>2020-10-31T09:14:11.000Z</time>
      </trkpt>
      <trkpt lat="49.76984" lon="4.81558">
        <ele>248</ele>
        <time>2020-10-31T09:14:12.000Z</time>
      </trkpt>
      <trkpt lat="49.76986" lon="4.81559">
        <ele>248</ele>
        <time>2020-10-31T09:14:13.000Z</time>
      </trkpt>
      <trkpt lat="49.76987" lon="4.8156">
        <ele>248</ele>
        <time>2020-10-31T09:14:14.000Z</time>
      </trkpt>
      <trkpt lat="49.76989" lon="4.8156">
        <ele>248</ele>
        <time>2020-10-31T09:14:15.000Z</time>
      </trkpt>
      <trkpt lat="49.76991" lon="4.81561">
        <ele>248</ele>
        <time>2020-10-31T09:14:16.000Z</time>
      </trkpt>
      <trkpt lat="49.76992" lon="4.81563">
        <ele>248</ele>
        <time>2020-10-31T09:14:17.000Z</time>
      </trkpt>
      <trkpt lat="49.76993" lon="4.81564">
        <ele>248</ele>
        <time>2020-10-31T09:14:18.000Z</time>
      </trkpt>
      <trkpt lat="49.76994" lon="4.81564">
        <ele>248</ele>
        <time>2020-10-31T09:14:19.000Z</time>
      </trkpt>
      <trkpt lat="49.76995" lon="4.81565">
        <ele>248</ele>
        <time>2020-10-31T09:14:20.000Z</time>
      </trkpt>
      <trkpt lat="49.76997" lon="4.81566">
        <ele>248</ele>
        <time>2020-10-31T09:14:21.000Z</time>
      </trkpt>
      <trkpt lat="49.76999" lon="4.81566">
        <ele>248</ele>
        <time>2020-10-31T09:14:22.000Z</time>
      </trkpt>
      <trkpt lat="49.77" lon="4.81567">
        <ele>248</ele>
        <time>2020-10-31T09:14:23.000Z</time>
      </trkpt>
      <trkpt lat="49.77002" lon="4.81568">
        <ele>248</ele>
        <time>2020-10-31T09:14:24.000Z</time>
      </trkpt>
      <trkpt lat="49.77004" lon="4.81568">
        <ele>248</ele>
        <time>2020-10-31T09:14:25.000Z</time>
      </trkpt>
      <trkpt lat="49.77005" lon="4.81569">
        <ele>248</ele>
        <time>2020-10-31T09:14:26.000Z</time>
      </trkpt>
      <trkpt lat="49.77007" lon="4.8157">
        <ele>248</ele>
        <time>2020-10-31T09:14:27.000Z</time>
      </trkpt>
      <trkpt lat="49.77008" lon="4.81571">
        <ele>248</ele>
        <time>2020-10-31T09:14:28.000Z</time>
      </trkpt>
      <trkpt lat="49.7701" lon="4.81572">
        <ele>248</ele>
        <time>2020-10-31T09:14:29.000Z</time>
      </trkpt>
      <trkpt lat="49.77012" lon="4.81573">
        <ele>248</ele>
        <time>2020-10-31T09:14:30.000Z</time>
      </trkpt>
      <trkpt lat="49.77014" lon="4.81574">
        <ele>248</ele>
        <time>2020-10-31T09:14:31.000Z</time>
      </trkpt>
      <trkpt lat="49.77016" lon="4.81575">
        <ele>248</ele>
        <time>2020-10-31T09:14:32.000Z</time>
      </trkpt>
      <trkpt lat="49.77017" lon="4.81575">
        <ele>248</ele>
        <time>2020-10-31T09:14:33.000Z</time>
      </trkpt>
      <trkpt lat="49.77019" lon="4.81575">
        <ele>248</ele>
        <time>2020-10-31T09:14:34.000Z</time>
      </trkpt>
      <trkpt lat="49.77021" lon="4.81576">
        <ele>248</ele>
        <time>2020-10-31T09:14:35.000Z</time>
      </trkpt>
      <trkpt lat="49.77023" lon="4.81577">
        <ele>248</ele>
        <time>2020-10-31T09:14:36.000Z</time>
      </trkpt>
      <trkpt lat="49.77025" lon="4.81578">
        <ele>248</ele>
        <time>2020-10-31T09:14:37.000Z</time>
      </trkpt>
      <trkpt lat="49.77026" lon="4.81579">
        <ele>248</ele>
        <time>2020-10-31T09:14:38.000Z</time>
      </trkpt>
      <trkpt lat="49.77028" lon="4.81579">
        <ele>248</ele>
        <time>2020-10-31T09:14:39.000Z</time>
      </trkpt>
      <trkpt lat="49.77029" lon="4.8158">
        <ele>248</ele>
        <time>2020-10-31T09:14:40.000Z</time>
      </trkpt>
      <trkpt lat="49.77031" lon="4.81581">
        <ele>248</ele>
        <time>2020-10-31T09:14:41.000Z</time>
      </trkpt>
      <trkpt lat="49.77033" lon="4.81581">
        <ele>248</ele>
        <time>2020-10-31T09:14:42.000Z</time>
      </trkpt>
      <trkpt lat="49.77035" lon="4.81582">
        <ele>248</ele>
        <time>2020-10-31T09:14:43.000Z</time>
      </trkpt>
      <trkpt lat="49.77037" lon="4.81583">
        <ele>248</ele>
        <time>2020-10-31T09:14:44.000Z</time>
      </trkpt>
      <trkpt lat="49.77039" lon="4.81584">
        <ele>248</ele>
        <time>2020-10-31T09:14:45.000Z</time>
      </trkpt>
      <trkpt lat="49.7704" lon="4.81585">
        <ele>249</ele>
        <time>2020-10-31T09:14:46.000Z</time>
      </trkpt>
      <trkpt lat="49.77042" lon="4.81586">
        <ele>249</ele>
        <time>2020-10-31T09:14:47.000Z</time>
      </trkpt>
      <trkpt lat="49.77044" lon="4.81586">
        <ele>249</ele>
        <time>2020-10-31T09:14:48.000Z</time>
      </trkpt>
      <trkpt lat="49.77046" lon="4.81586">
        <ele>249</ele>
        <time>2020-10-31T09:14:49.000Z</time>
      </trkpt>
      <trkpt lat="49.77048" lon="4.81587">
        <ele>249</ele>
        <time>2020-10-31T09:14:50.000Z</time>
      </trkpt>
      <trkpt lat="49.7705" lon="4.81587">
        <ele>249</ele>
        <time>2020-10-31T09:14:51.000Z</time>
      </trkpt>
      <trkpt lat="49.77051" lon="4.81588">
        <ele>249</ele>
        <time>2020-10-31T09:14:52.000Z</time>
      </trkpt>
      <trkpt lat="49.77053" lon="4.81589">
        <ele>249</ele>
        <time>2020-10-31T09:14:53.000Z</time>
      </trkpt>
      <trkpt lat="49.77055" lon="4.8159">
        <ele>249</ele>
        <time>2020-10-31T09:14:54.000Z</time>
      </trkpt>
      <trkpt lat="49.77056" lon="4.81591">
        <ele>249</ele>
        <time>2020-10-31T09:14:55.000Z</time>
      </trkpt>
      <trkpt lat="49.77058" lon="4.81592">
        <ele>249</ele>
        <time>2020-10-31T09:14:56.000Z</time>
      </trkpt>
      <trkpt lat="49.7706" lon="4.81593">
        <ele>249</ele>
        <time>2020-10-31T09:14:57.000Z</time>
      </trkpt>
      <trkpt lat="49.77062" lon="4.81594">
        <ele>249</ele>
        <time>2020-10-31T09:14:58.000Z</time>
      </trkpt>
      <trkpt lat="49.77063" lon="4.81595">
        <ele>249</ele>
        <time>2020-10-31T09:14:59.000Z</time>
      </trkpt>
      <trkpt lat="49.77065" lon="4.81597">
        <ele>249</ele>
        <time>2020-10-31T09:15:00.000Z</time>
      </trkpt>
      <trkpt lat="49.77067" lon="4.81598">
        <ele>249</ele>
        <time>2020-10-31T09:15:01.000Z</time>
      </trkpt>
      <trkpt lat="49.77068" lon="4.81599">
        <ele>249</ele>
        <time>2020-10-31T09:15:02.000Z</time>
      </trkpt>
      <trkpt lat="49.7707" lon="4.81601">
        <ele>249</ele>
        <time>2020-10-31T09:15:03.000Z</time>
      </trkpt>
      <trkpt lat="49.77072" lon="4.81602">
        <ele>249</ele>
        <time>2020-10-31T09:15:04.000Z</time>
      </trkpt>
      <trkpt lat="49.77074" lon="4.81603">
        <ele>249</ele>
        <time>2020-10-31T09:15:05.000Z</time>
      </trkpt>
      <trkpt lat="49.77076" lon="4.81605">
        <ele>249</ele>
        <time>2020-10-31T09:15:06.000Z</time>
      </trkpt>
      <trkpt lat="49.77078" lon="4.81606">
        <ele>249</ele>
        <time>2020-10-31T09:15:07.000Z</time>
      </trkpt>
      <trkpt lat="49.77079" lon="4.81608">
        <ele>249</ele>
        <time>2020-10-31T09:15:08.000Z</time>
      </trkpt>
      <trkpt lat="49.77081" lon="4.81609">
        <ele>249</ele>
        <time>2020-10-31T09:15:09.000Z</time>
      </trkpt>
      <trkpt lat="49.77083" lon="4.8161">
        <ele>249</ele>
        <time>2020-10-31T09:15:10.000Z</time>
      </trkpt>
      <trkpt lat="49.77085" lon="4.81612">
        <ele>249</ele>
        <time>2020-10-31T09:15:11.000Z</time>
      </trkpt>
      <trkpt lat="49.77087" lon="4.81613">
        <ele>250</ele>
        <time>2020-10-31T09:15:12.000Z</time>
      </trkpt>
      <trkpt lat="49.77089" lon="4.81614">
        <ele>250</ele>
        <time>2020-10-31T09:15:13.000Z</time>
      </trkpt>
      <trkpt lat="49.77091" lon="4.81615">
        <ele>250</ele>
        <time>2020-10-31T09:15:14.000Z</time>
      </trkpt>
      <trkpt lat="49.77093" lon="4.81616">
        <ele>250</ele>
        <time>2020-10-31T09:15:15.000Z</time>
      </trkpt>
      <trkpt lat="49.77095" lon="4.81617">
        <ele>250</ele>
        <time>2020-10-31T09:15:16.000Z</time>
      </trkpt>
      <trkpt lat="49.77096" lon="4.81618">
        <ele>250</ele>
        <time>2020-10-31T09:15:17.000Z</time>
      </trkpt>
      <trkpt lat="49.77098" lon="4.81619">
        <ele>250</ele>
        <time>2020-10-31T09:15:18.000Z</time>
      </trkpt>
      <trkpt lat="49.771" lon="4.8162">
        <ele>250</ele>
        <time>2020-10-31T09:15:19.000Z</time>
      </trkpt>
      <trkpt lat="49.77102" lon="4.81621">
        <ele>250</ele>
        <time>2020-10-31T09:15:20.000Z</time>
      </trkpt>
      <trkpt lat="49.77104" lon="4.81622">
        <ele>250</ele>
        <time>2020-10-31T09:15:21.000Z</time>
      </trkpt>
      <trkpt lat="49.77106" lon="4.81624">
        <ele>250</ele>
        <time>2020-10-31T09:15:22.000Z</time>
      </trkpt>
      <trkpt lat="49.77108" lon="4.81625">
        <ele>250</ele>
        <time>2020-10-31T09:15:23.000Z</time>
      </trkpt>
      <trkpt lat="49.7711" lon="4.81626">
        <ele>250</ele>
        <time>2020-10-31T09:15:24.000Z</time>
      </trkpt>
      <trkpt lat="49.77112" lon="4.81626">
        <ele>250</ele>
        <time>2020-10-31T09:15:25.000Z</time>
      </trkpt>
      <trkpt lat="49.77114" lon="4.81627">
        <ele>250</ele>
        <time>2020-10-31T09:15:26.000Z</time>
      </trkpt>
      <trkpt lat="49.77116" lon="4.81628">
        <ele>251</ele>
        <time>2020-10-31T09:15:27.000Z</time>
      </trkpt>
      <trkpt lat="49.77118" lon="4.81629">
        <ele>251</ele>
        <time>2020-10-31T09:15:28.000Z</time>
      </trkpt>
      <trkpt lat="49.7712" lon="4.81629">
        <ele>251</ele>
        <time>2020-10-31T09:15:29.000Z</time>
      </trkpt>
      <trkpt lat="49.77121" lon="4.81629">
        <ele>251</ele>
        <time>2020-10-31T09:15:30.000Z</time>
      </trkpt>
      <trkpt lat="49.77123" lon="4.8163">
        <ele>251</ele>
        <time>2020-10-31T09:15:31.000Z</time>
      </trkpt>
      <trkpt lat="49.77125" lon="4.81631">
        <ele>251</ele>
        <time>2020-10-31T09:15:32.000Z</time>
      </trkpt>
      <trkpt lat="49.77126" lon="4.81632">
        <ele>251</ele>
        <time>2020-10-31T09:15:33.000Z</time>
      </trkpt>
      <trkpt lat="49.77127" lon="4.81633">
        <ele>251</ele>
        <time>2020-10-31T09:15:34.000Z</time>
      </trkpt>
      <trkpt lat="49.77128" lon="4.81634">
        <ele>251</ele>
        <time>2020-10-31T09:15:35.000Z</time>
      </trkpt>
      <trkpt lat="49.77131" lon="4.81634">
        <ele>251</ele>
        <time>2020-10-31T09:15:36.000Z</time>
      </trkpt>
      <trkpt lat="49.77133" lon="4.81634">
        <ele>251</ele>
        <time>2020-10-31T09:15:37.000Z</time>
      </trkpt>
      <trkpt lat="49.77135" lon="4.81634">
        <ele>251</ele>
        <time>2020-10-31T09:15:38.000Z</time>
      </trkpt>
      <trkpt lat="49.77137" lon="4.81635">
        <ele>252</ele>
        <time>2020-10-31T09:15:39.000Z</time>
      </trkpt>
      <trkpt lat="49.7714" lon="4.81636">
        <ele>252</ele>
        <time>2020-10-31T09:15:40.000Z</time>
      </trkpt>
      <trkpt lat="49.77142" lon="4.81636">
        <ele>252</ele>
        <time>2020-10-31T09:15:41.000Z</time>
      </trkpt>
      <trkpt lat="49.77144" lon="4.81637">
        <ele>252</ele>
        <time>2020-10-31T09:15:42.000Z</time>
      </trkpt>
      <trkpt lat="49.77146" lon="4.81638">
        <ele>252</ele>
        <time>2020-10-31T09:15:43.000Z</time>
      </trkpt>
      <trkpt lat="49.77149" lon="4.81639">
        <ele>253</ele>
        <time>2020-10-31T09:15:44.000Z</time>
      </trkpt>
      <trkpt lat="49.77151" lon="4.8164">
        <ele>253</ele>
        <time>2020-10-31T09:15:45.000Z</time>
      </trkpt>
      <trkpt lat="49.77153" lon="4.81642">
        <ele>253</ele>
        <time>2020-10-31T09:15:46.000Z</time>
      </trkpt>
      <trkpt lat="49.77155" lon="4.81643">
        <ele>253</ele>
        <time>2020-10-31T09:15:47.000Z</time>
      </trkpt>
      <trkpt lat="49.77157" lon="4.81644">
        <ele>254</ele>
        <time>2020-10-31T09:15:48.000Z</time>
      </trkpt>
      <trkpt lat="49.77159" lon="4.81644">
        <ele>254</ele>
        <time>2020-10-31T09:15:49.000Z</time>
      </trkpt>
      <trkpt lat="49.77161" lon="4.81645">
        <ele>254</ele>
        <time>2020-10-31T09:15:50.000Z</time>
      </trkpt>
      <trkpt lat="49.77163" lon="4.81646">
        <ele>254</ele>
        <time>2020-10-31T09:15:51.000Z</time>
      </trkpt>
      <trkpt lat="49.77165" lon="4.81647">
        <ele>254</ele>
        <time>2020-10-31T09:15:52.000Z</time>
      </trkpt>
      <trkpt lat="49.77167" lon="4.81648">
        <ele>255</ele>
        <time>2020-10-31T09:15:53.000Z</time>
      </trkpt>
      <trkpt lat="49.77169" lon="4.81649">
        <ele>255</ele>
        <time>2020-10-31T09:15:54.000Z</time>
      </trkpt>
      <trkpt lat="49.7717" lon="4.81649">
        <ele>255</ele>
        <time>2020-10-31T09:15:55.000Z</time>
      </trkpt>
      <trkpt lat="49.77172" lon="4.8165">
        <ele>255</ele>
        <time>2020-10-31T09:15:56.000Z</time>
      </trkpt>
      <trkpt lat="49.77174" lon="4.81651">
        <ele>255</ele>
        <time>2020-10-31T09:15:57.000Z</time>
      </trkpt>
      <trkpt lat="49.77176" lon="4.81651">
        <ele>256</ele>
        <time>2020-10-31T09:15:58.000Z</time>
      </trkpt>
      <trkpt lat="49.77178" lon="4.81652">
        <ele>256</ele>
        <time>2020-10-31T09:15:59.000Z</time>
      </trkpt>
      <trkpt lat="49.77179" lon="4.81653">
        <ele>256</ele>
        <time>2020-10-31T09:16:00.000Z</time>
      </trkpt>
      <trkpt lat="49.7718" lon="4.81654">
        <ele>256</ele>
        <time>2020-10-31T09:16:01.000Z</time>
      </trkpt>
      <trkpt lat="49.77182" lon="4.81655">
        <ele>256</ele>
        <time>2020-10-31T09:16:02.000Z</time>
      </trkpt>
      <trkpt lat="49.77184" lon="4.81656">
        <ele>257</ele>
        <time>2020-10-31T09:16:03.000Z</time>
      </trkpt>
      <trkpt lat="49.77186" lon="4.81657">
        <ele>257</ele>
        <time>2020-10-31T09:16:04.000Z</time>
      </trkpt>
      <trkpt lat="49.77188" lon="4.81658">
        <ele>257</ele>
        <time>2020-10-31T09:16:05.000Z</time>
      </trkpt>
      <trkpt lat="49.7719" lon="4.81659">
        <ele>257</ele>
        <time>2020-10-31T09:16:06.000Z</time>
      </trkpt>
      <trkpt lat="49.77192" lon="4.81659">
        <ele>257</ele>
        <time>2020-10-31T09:16:07.000Z</time>
      </trkpt>
      <trkpt lat="49.77193" lon="4.8166">
        <ele>258</ele>
        <time>2020-10-31T09:16:08.000Z</time>
      </trkpt>
      <trkpt lat="49.77195" lon="4.81661">
        <ele>258</ele>
        <time>2020-10-31T09:16:09.000Z</time>
      </trkpt>
      <trkpt lat="49.77197" lon="4.81662">
        <ele>258</ele>
        <time>2020-10-31T09:16:10.000Z</time>
      </trkpt>
      <trkpt lat="49.77199" lon="4.81662">
        <ele>258</ele>
        <time>2020-10-31T09:16:11.000Z</time>
      </trkpt>
      <trkpt lat="49.77201" lon="4.81663">
        <ele>258</ele>
        <time>2020-10-31T09:16:12.000Z</time>
      </trkpt>
      <trkpt lat="49.77203" lon="4.81663">
        <ele>258</ele>
        <time>2020-10-31T09:16:13.000Z</time>
      </trkpt>
      <trkpt lat="49.77205" lon="4.81664">
        <ele>259</ele>
        <time>2020-10-31T09:16:14.000Z</time>
      </trkpt>
      <trkpt lat="49.77207" lon="4.81664">
        <ele>259</ele>
        <time>2020-10-31T09:16:15.000Z</time>
      </trkpt>
      <trkpt lat="49.77209" lon="4.81665">
        <ele>259</ele>
        <time>2020-10-31T09:16:16.000Z</time>
      </trkpt>
      <trkpt lat="49.77211" lon="4.81666">
        <ele>259</ele>
        <time>2020-10-31T09:16:17.000Z</time>
      </trkpt>
      <trkpt lat="49.77213" lon="4.81667">
        <ele>259</ele>
        <time>2020-10-31T09:16:18.000Z</time>
      </trkpt>
      <trkpt lat="49.77215" lon="4.81667">
        <ele>260</ele>
        <time>2020-10-31T09:16:19.000Z</time>
      </trkpt>
      <trkpt lat="49.77218" lon="4.81668">
        <ele>260</ele>
        <time>2020-10-31T09:16:20.000Z</time>
      </trkpt>
      <trkpt lat="49.7722" lon="4.81669">
        <ele>260</ele>
        <time>2020-10-31T09:16:21.000Z</time>
      </trkpt>
      <trkpt lat="49.77222" lon="4.8167">
        <ele>260</ele>
        <time>2020-10-31T09:16:22.000Z</time>
      </trkpt>
      <trkpt lat="49.77224" lon="4.81671">
        <ele>261</ele>
        <time>2020-10-31T09:16:23.000Z</time>
      </trkpt>
      <trkpt lat="49.77227" lon="4.81672">
        <ele>261</ele>
        <time>2020-10-31T09:16:24.000Z</time>
      </trkpt>
      <trkpt lat="49.77229" lon="4.81673">
        <ele>261</ele>
        <time>2020-10-31T09:16:25.000Z</time>
      </trkpt>
      <trkpt lat="49.77231" lon="4.81673">
        <ele>261</ele>
        <time>2020-10-31T09:16:26.000Z</time>
      </trkpt>
      <trkpt lat="49.77233" lon="4.81674">
        <ele>262</ele>
        <time>2020-10-31T09:16:27.000Z</time>
      </trkpt>
      <trkpt lat="49.77235" lon="4.81675">
        <ele>262</ele>
        <time>2020-10-31T09:16:28.000Z</time>
      </trkpt>
      <trkpt lat="49.77237" lon="4.81675">
        <ele>262</ele>
        <time>2020-10-31T09:16:29.000Z</time>
      </trkpt>
      <trkpt lat="49.7724" lon="4.81677">
        <ele>262</ele>
        <time>2020-10-31T09:16:30.000Z</time>
      </trkpt>
      <trkpt lat="49.77242" lon="4.81677">
        <ele>262</ele>
        <time>2020-10-31T09:16:31.000Z</time>
      </trkpt>
      <trkpt lat="49.77244" lon="4.81678">
        <ele>263</ele>
        <time>2020-10-31T09:16:32.000Z</time>
      </trkpt>
      <trkpt lat="49.77247" lon="4.81679">
        <ele>263</ele>
        <time>2020-10-31T09:16:33.000Z</time>
      </trkpt>
      <trkpt lat="49.77249" lon="4.8168">
        <ele>263</ele>
        <time>2020-10-31T09:16:34.000Z</time>
      </trkpt>
      <trkpt lat="49.77252" lon="4.81681">
        <ele>263</ele>
        <time>2020-10-31T09:16:35.000Z</time>
      </trkpt>
      <trkpt lat="49.77253" lon="4.81681">
        <ele>263</ele>
        <time>2020-10-31T09:16:36.000Z</time>
      </trkpt>
      <trkpt lat="49.77255" lon="4.81682">
        <ele>264</ele>
        <time>2020-10-31T09:16:37.000Z</time>
      </trkpt>
      <trkpt lat="49.77258" lon="4.81683">
        <ele>264</ele>
        <time>2020-10-31T09:16:38.000Z</time>
      </trkpt>
      <trkpt lat="49.7726" lon="4.81684">
        <ele>264</ele>
        <time>2020-10-31T09:16:39.000Z</time>
      </trkpt>
      <trkpt lat="49.77262" lon="4.81685">
        <ele>264</ele>
        <time>2020-10-31T09:16:40.000Z</time>
      </trkpt>
      <trkpt lat="49.77265" lon="4.81685">
        <ele>264</ele>
        <time>2020-10-31T09:16:41.000Z</time>
      </trkpt>
      <trkpt lat="49.77267" lon="4.81686">
        <ele>264</ele>
        <time>2020-10-31T09:16:42.000Z</time>
      </trkpt>
      <trkpt lat="49.77269" lon="4.81686">
        <ele>265</ele>
        <time>2020-10-31T09:16:43.000Z</time>
      </trkpt>
      <trkpt lat="49.77271" lon="4.81686">
        <ele>265</ele>
        <time>2020-10-31T09:16:44.000Z</time>
      </trkpt>
      <trkpt lat="49.77273" lon="4.81687">
        <ele>265</ele>
        <time>2020-10-31T09:16:45.000Z</time>
      </trkpt>
      <trkpt lat="49.77275" lon="4.81687">
        <ele>265</ele>
        <time>2020-10-31T09:16:46.000Z</time>
      </trkpt>
      <trkpt lat="49.77278" lon="4.81688">
        <ele>265</ele>
        <time>2020-10-31T09:16:47.000Z</time>
      </trkpt>
      <trkpt lat="49.7728" lon="4.81689">
        <ele>265</ele>
        <time>2020-10-31T09:16:48.000Z</time>
      </trkpt>
      <trkpt lat="49.77283" lon="4.81689">
        <ele>265</ele>
        <time>2020-10-31T09:16:49.000Z</time>
      </trkpt>
      <trkpt lat="49.77285" lon="4.8169">
        <ele>265</ele>
        <time>2020-10-31T09:16:50.000Z</time>
      </trkpt>
      <trkpt lat="49.77287" lon="4.8169">
        <ele>265</ele>
        <time>2020-10-31T09:16:51.000Z</time>
      </trkpt>
      <trkpt lat="49.77289" lon="4.81691">
        <ele>266</ele>
        <time>2020-10-31T09:16:52.000Z</time>
      </trkpt>
      <trkpt lat="49.77292" lon="4.81692">
        <ele>266</ele>
        <time>2020-10-31T09:16:53.000Z</time>
      </trkpt>
      <trkpt lat="49.77294" lon="4.81692">
        <ele>266</ele>
        <time>2020-10-31T09:16:54.000Z</time>
      </trkpt>
      <trkpt lat="49.77297" lon="4.81692">
        <ele>266</ele>
        <time>2020-10-31T09:16:55.000Z</time>
      </trkpt>
      <trkpt lat="49.77299" lon="4.81692">
        <ele>266</ele>
        <time>2020-10-31T09:16:56.000Z</time>
      </trkpt>
      <trkpt lat="49.77301" lon="4.81693">
        <ele>266</ele>
        <time>2020-10-31T09:16:57.000Z</time>
      </trkpt>
      <trkpt lat="49.77304" lon="4.81694">
        <ele>266</ele>
        <time>2020-10-31T09:16:58.000Z</time>
      </trkpt>
      <trkpt lat="49.77306" lon="4.81694">
        <ele>266</ele>
        <time>2020-10-31T09:16:59.000Z</time>
      </trkpt>
      <trkpt lat="49.77308" lon="4.81695">
        <ele>266</ele>
        <time>2020-10-31T09:17:00.000Z</time>
      </trkpt>
      <trkpt lat="49.77311" lon="4.81695">
        <ele>266</ele>
        <time>2020-10-31T09:17:01.000Z</time>
      </trkpt>
      <trkpt lat="49.77313" lon="4.81695">
        <ele>266</ele>
        <time>2020-10-31T09:17:02.000Z</time>
      </trkpt>
      <trkpt lat="49.77316" lon="4.81696">
        <ele>267</ele>
        <time>2020-10-31T09:17:03.000Z</time>
      </trkpt>
      <trkpt lat="49.77318" lon="4.81696">
        <ele>267</ele>
        <time>2020-10-31T09:17:04.000Z</time>
      </trkpt>
      <trkpt lat="49.7732" lon="4.81696">
        <ele>267</ele>
        <time>2020-10-31T09:17:05.000Z</time>
      </trkpt>
      <trkpt lat="49.77322" lon="4.81697">
        <ele>267</ele>
        <time>2020-10-31T09:17:06.000Z</time>
      </trkpt>
      <trkpt lat="49.77325" lon="4.81698">
        <ele>267</ele>
        <time>2020-10-31T09:17:07.000Z</time>
      </trkpt>
      <trkpt lat="49.77327" lon="4.81698">
        <ele>267</ele>
        <time>2020-10-31T09:17:08.000Z</time>
      </trkpt>
      <trkpt lat="49.77329" lon="4.81698">
        <ele>268</ele>
        <time>2020-10-31T09:17:09.000Z</time>
      </trkpt>
      <trkpt lat="49.77331" lon="4.81699">
        <ele>268</ele>
        <time>2020-10-31T09:17:10.000Z</time>
      </trkpt>
      <trkpt lat="49.77334" lon="4.81699">
        <ele>268</ele>
        <time>2020-10-31T09:17:11.000Z</time>
      </trkpt>
      <trkpt lat="49.77337" lon="4.817">
        <ele>268</ele>
        <time>2020-10-31T09:17:12.000Z</time>
      </trkpt>
      <trkpt lat="49.77339" lon="4.817">
        <ele>268</ele>
        <time>2020-10-31T09:17:13.000Z</time>
      </trkpt>
      <trkpt lat="49.77341" lon="4.81701">
        <ele>268</ele>
        <time>2020-10-31T09:17:14.000Z</time>
      </trkpt>
      <trkpt lat="49.77343" lon="4.81701">
        <ele>268</ele>
        <time>2020-10-31T09:17:15.000Z</time>
      </trkpt>
      <trkpt lat="49.77346" lon="4.81701">
        <ele>269</ele>
        <time>2020-10-31T09:17:16.000Z</time>
      </trkpt>
      <trkpt lat="49.77348" lon="4.81702">
        <ele>269</ele>
        <time>2020-10-31T09:17:17.000Z</time>
      </trkpt>
      <trkpt lat="49.7735" lon="4.81702">
        <ele>269</ele>
        <time>2020-10-31T09:17:18.000Z</time>
      </trkpt>
      <trkpt lat="49.77351" lon="4.81703">
        <ele>269</ele>
        <time>2020-10-31T09:17:19.000Z</time>
      </trkpt>
      <trkpt lat="49.77353" lon="4.81702">
        <ele>269</ele>
        <time>2020-10-31T09:17:20.000Z</time>
      </trkpt>
      <trkpt lat="49.77355" lon="4.81703">
        <ele>269</ele>
        <time>2020-10-31T09:17:21.000Z</time>
      </trkpt>
      <trkpt lat="49.77356" lon="4.81702">
        <ele>269</ele>
        <time>2020-10-31T09:17:22.000Z</time>
      </trkpt>
      <trkpt lat="49.77359" lon="4.81703">
        <ele>269</ele>
        <time>2020-10-31T09:17:23.000Z</time>
      </trkpt>
      <trkpt lat="49.7736" lon="4.81703">
        <ele>269</ele>
        <time>2020-10-31T09:17:24.000Z</time>
      </trkpt>
      <trkpt lat="49.77362" lon="4.81703">
        <ele>269</ele>
        <time>2020-10-31T09:17:25.000Z</time>
      </trkpt>
      <trkpt lat="49.77364" lon="4.81704">
        <ele>269</ele>
        <time>2020-10-31T09:17:26.000Z</time>
      </trkpt>
      <trkpt lat="49.77366" lon="4.81704">
        <ele>269</ele>
        <time>2020-10-31T09:17:27.000Z</time>
      </trkpt>
      <trkpt lat="49.77368" lon="4.81705">
        <ele>269</ele>
        <time>2020-10-31T09:17:28.000Z</time>
      </trkpt>
      <trkpt lat="49.7737" lon="4.81705">
        <ele>270</ele>
        <time>2020-10-31T09:17:29.000Z</time>
      </trkpt>
      <trkpt lat="49.77372" lon="4.81705">
        <ele>270</ele>
        <time>2020-10-31T09:17:30.000Z</time>
      </trkpt>
      <trkpt lat="49.77374" lon="4.81705">
        <ele>270</ele>
        <time>2020-10-31T09:17:31.000Z</time>
      </trkpt>
      <trkpt lat="49.77375" lon="4.81705">
        <ele>270</ele>
        <time>2020-10-31T09:17:32.000Z</time>
      </trkpt>
      <trkpt lat="49.77377" lon="4.81706">
        <ele>270</ele>
        <time>2020-10-31T09:17:33.000Z</time>
      </trkpt>
      <trkpt lat="49.77378" lon="4.81706">
        <ele>270</ele>
        <time>2020-10-31T09:17:34.000Z</time>
      </trkpt>
      <trkpt lat="49.77379" lon="4.81706">
        <ele>270</ele>
        <time>2020-10-31T09:17:35.000Z</time>
      </trkpt>
      <trkpt lat="49.77379" lon="4.81707">
        <ele>270</ele>
        <time>2020-10-31T09:17:36.000Z</time>
      </trkpt>
      <trkpt lat="49.77379" lon="4.81707">
        <ele>270</ele>
        <time>2020-10-31T09:17:37.000Z</time>
      </trkpt>
      <trkpt lat="49.77379" lon="4.81707">
        <ele>270</ele>
        <time>2020-10-31T09:17:38.000Z</time>
      </trkpt>
      <trkpt lat="49.7738" lon="4.81708">
        <ele>270</ele>
        <time>2020-10-31T09:17:39.000Z</time>
      </trkpt>
      <trkpt lat="49.7738" lon="4.81709">
        <ele>270</ele>
        <time>2020-10-31T09:17:40.000Z</time>
      </trkpt>
      <trkpt lat="49.77381" lon="4.81709">
        <ele>270</ele>
        <time>2020-10-31T09:17:41.000Z</time>
      </trkpt>
      <trkpt lat="49.77382" lon="4.81709">
        <ele>271</ele>
        <time>2020-10-31T09:17:42.000Z</time>
      </trkpt>
      <trkpt lat="49.77383" lon="4.81709">
        <ele>271</ele>
        <time>2020-10-31T09:17:43.000Z</time>
      </trkpt>
      <trkpt lat="49.77384" lon="4.81709">
        <ele>271</ele>
        <time>2020-10-31T09:17:44.000Z</time>
      </trkpt>
      <trkpt lat="49.77385" lon="4.81708">
        <ele>271</ele>
        <time>2020-10-31T09:17:45.000Z</time>
      </trkpt>
      <trkpt lat="49.77386" lon="4.81708">
        <ele>271</ele>
        <time>2020-10-31T09:17:46.000Z</time>
      </trkpt>
      <trkpt lat="49.77386" lon="4.81708">
        <ele>271</ele>
        <time>2020-10-31T09:17:47.000Z</time>
      </trkpt>
      <trkpt lat="49.77387" lon="4.81708">
        <ele>271</ele>
        <time>2020-10-31T09:17:48.000Z</time>
      </trkpt>
      <trkpt lat="49.77388" lon="4.81708">
        <ele>271</ele>
        <time>2020-10-31T09:17:49.000Z</time>
      </trkpt>
      <trkpt lat="49.7739" lon="4.81708">
        <ele>271</ele>
        <time>2020-10-31T09:17:50.000Z</time>
      </trkpt>
      <trkpt lat="49.77392" lon="4.81709">
        <ele>271</ele>
        <time>2020-10-31T09:17:51.000Z</time>
      </trkpt>
      <trkpt lat="49.77393" lon="4.81709">
        <ele>271</ele>
        <time>2020-10-31T09:17:52.000Z</time>
      </trkpt>
      <trkpt lat="49.77395" lon="4.81709">
        <ele>271</ele>
        <time>2020-10-31T09:17:53.000Z</time>
      </trkpt>
      <trkpt lat="49.77397" lon="4.81709">
        <ele>271</ele>
        <time>2020-10-31T09:17:54.000Z</time>
      </trkpt>
      <trkpt lat="49.77399" lon="4.81709">
        <ele>271</ele>
        <time>2020-10-31T09:17:55.000Z</time>
      </trkpt>
      <trkpt lat="49.77401" lon="4.81709">
        <ele>271</ele>
        <time>2020-10-31T09:17:56.000Z</time>
      </trkpt>
      <trkpt lat="49.77402" lon="4.81709">
        <ele>271</ele>
        <time>2020-10-31T09:17:57.000Z</time>
      </trkpt>
      <trkpt lat="49.77403" lon="4.81708">
        <ele>271</ele>
        <time>2020-10-31T09:17:58.000Z</time>
      </trkpt>
      <trkpt lat="49.77403" lon="4.81708">
        <ele>271</ele>
        <time>2020-10-31T09:17:59.000Z</time>
      </trkpt>
      <trkpt lat="49.77403" lon="4.81708">
        <ele>271</ele>
        <time>2020-10-31T09:18:00.000Z</time>
      </trkpt>
      <trkpt lat="49.77404" lon="4.81708">
        <ele>271</ele>
        <time>2020-10-31T09:18:01.000Z</time>
      </trkpt>
      <trkpt lat="49.77404" lon="4.81708">
        <ele>271</ele>
        <time>2020-10-31T09:18:02.000Z</time>
      </trkpt>
      <trkpt lat="49.77405" lon="4.81708">
        <ele>271</ele>
        <time>2020-10-31T09:18:03.000Z</time>
      </trkpt>
      <trkpt lat="49.77406" lon="4.81708">
        <ele>271</ele>
        <time>2020-10-31T09:18:04.000Z</time>
      </trkpt>
      <trkpt lat="49.77406" lon="4.81709">
        <ele>271</ele>
        <time>2020-10-31T09:18:05.000Z</time>
      </trkpt>
      <trkpt lat="49.77407" lon="4.81709">
        <ele>271</ele>
        <time>2020-10-31T09:18:06.000Z</time>
      </trkpt>
      <trkpt lat="49.77408" lon="4.81709">
        <ele>271</ele>
        <time>2020-10-31T09:18:07.000Z</time>
      </trkpt>
      <trkpt lat="49.77409" lon="4.81709">
        <ele>271</ele>
        <time>2020-10-31T09:18:08.000Z</time>
      </trkpt>
      <trkpt lat="49.7741" lon="4.81709">
        <ele>271</ele>
        <time>2020-10-31T09:18:09.000Z</time>
      </trkpt>
      <trkpt lat="49.77411" lon="4.81709">
        <ele>271</ele>
        <time>2020-10-31T09:18:10.000Z</time>
      </trkpt>
      <trkpt lat="49.77412" lon="4.81709">
        <ele>271</ele>
        <time>2020-10-31T09:18:11.000Z</time>
      </trkpt>
      <trkpt lat="49.77413" lon="4.81709">
        <ele>271</ele>
        <time>2020-10-31T09:18:12.000Z</time>
      </trkpt>
      <trkpt lat="49.77414" lon="4.81709">
        <ele>271</ele>
        <time>2020-10-31T09:18:13.000Z</time>
      </trkpt>
      <trkpt lat="49.77415" lon="4.81708">
        <ele>271</ele>
        <time>2020-10-31T09:18:14.000Z</time>
      </trkpt>
      <trkpt lat="49.77416" lon="4.81708">
        <ele>271</ele>
        <time>2020-10-31T09:18:15.000Z</time>
      </trkpt>
      <trkpt lat="49.77417" lon="4.81708">
        <ele>271</ele>
        <time>2020-10-31T09:18:16.000Z</time>
      </trkpt>
      <trkpt lat="49.77418" lon="4.81708">
        <ele>272</ele>
        <time>2020-10-31T09:18:17.000Z</time>
      </trkpt>
      <trkpt lat="49.77419" lon="4.81707">
        <ele>272</ele>
        <time>2020-10-31T09:18:18.000Z</time>
      </trkpt>
      <trkpt lat="49.7742" lon="4.81707">
        <ele>272</ele>
        <time>2020-10-31T09:18:19.000Z</time>
      </trkpt>
      <trkpt lat="49.77421" lon="4.81707">
        <ele>272</ele>
        <time>2020-10-31T09:18:20.000Z</time>
      </trkpt>
      <trkpt lat="49.77422" lon="4.81706">
        <ele>272</ele>
        <time>2020-10-31T09:18:21.000Z</time>
      </trkpt>
      <trkpt lat="49.77423" lon="4.81705">
        <ele>272</ele>
        <time>2020-10-31T09:18:22.000Z</time>
      </trkpt>
      <trkpt lat="49.77424" lon="4.81704">
        <ele>272</ele>
        <time>2020-10-31T09:18:23.000Z</time>
      </trkpt>
      <trkpt lat="49.77425" lon="4.81704">
        <ele>272</ele>
        <time>2020-10-31T09:18:24.000Z</time>
      </trkpt>
      <trkpt lat="49.77426" lon="4.81704">
        <ele>272</ele>
        <time>2020-10-31T09:18:25.000Z</time>
      </trkpt>
      <trkpt lat="49.77427" lon="4.81703">
        <ele>272</ele>
        <time>2020-10-31T09:18:26.000Z</time>
      </trkpt>
      <trkpt lat="49.77428" lon="4.81703">
        <ele>272</ele>
        <time>2020-10-31T09:18:27.000Z</time>
      </trkpt>
      <trkpt lat="49.7743" lon="4.81703">
        <ele>272</ele>
        <time>2020-10-31T09:18:28.000Z</time>
      </trkpt>
      <trkpt lat="49.77431" lon="4.81703">
        <ele>272</ele>
        <time>2020-10-31T09:18:29.000Z</time>
      </trkpt>
      <trkpt lat="49.77432" lon="4.81702">
        <ele>272</ele>
        <time>2020-10-31T09:18:30.000Z</time>
      </trkpt>
      <trkpt lat="49.77433" lon="4.81701">
        <ele>272</ele>
        <time>2020-10-31T09:18:31.000Z</time>
      </trkpt>
      <trkpt lat="49.77434" lon="4.817">
        <ele>272</ele>
        <time>2020-10-31T09:18:32.000Z</time>
      </trkpt>
      <trkpt lat="49.77434" lon="4.817">
        <ele>272</ele>
        <time>2020-10-31T09:18:33.000Z</time>
      </trkpt>
      <trkpt lat="49.77435" lon="4.817">
        <ele>272</ele>
        <time>2020-10-31T09:18:34.000Z</time>
      </trkpt>
      <trkpt lat="49.77435" lon="4.817">
        <ele>272</ele>
        <time>2020-10-31T09:18:35.000Z</time>
      </trkpt>
      <trkpt lat="49.77436" lon="4.81701">
        <ele>272</ele>
        <time>2020-10-31T09:18:36.000Z</time>
      </trkpt>
      <trkpt lat="49.77436" lon="4.81701">
        <ele>272</ele>
        <time>2020-10-31T09:18:37.000Z</time>
      </trkpt>
      <trkpt lat="49.77437" lon="4.81701">
        <ele>272</ele>
        <time>2020-10-31T09:18:38.000Z</time>
      </trkpt>
      <trkpt lat="49.77439" lon="4.817">
        <ele>272</ele>
        <time>2020-10-31T09:18:39.000Z</time>
      </trkpt>
      <trkpt lat="49.7744" lon="4.817">
        <ele>272</ele>
        <time>2020-10-31T09:18:40.000Z</time>
      </trkpt>
      <trkpt lat="49.77441" lon="4.817">
        <ele>272</ele>
        <time>2020-10-31T09:18:41.000Z</time>
      </trkpt>
      <trkpt lat="49.77441" lon="4.817">
        <ele>272</ele>
        <time>2020-10-31T09:18:42.000Z</time>
      </trkpt>
      <trkpt lat="49.77441" lon="4.817">
        <ele>272</ele>
        <time>2020-10-31T09:18:43.000Z</time>
      </trkpt>
      <trkpt lat="49.77441" lon="4.817">
        <ele>272</ele>
        <time>2020-10-31T09:18:44.000Z</time>
      </trkpt>
      <trkpt lat="49.77441" lon="4.817">
        <ele>272</ele>
        <time>2020-10-31T09:18:45.000Z</time>
      </trkpt>
      <trkpt lat="49.77442" lon="4.817">
        <ele>272</ele>
        <time>2020-10-31T09:18:46.000Z</time>
      </trkpt>
      <trkpt lat="49.77443" lon="4.81699">
        <ele>272</ele>
        <time>2020-10-31T09:18:47.000Z</time>
      </trkpt>
      <trkpt lat="49.77444" lon="4.81698">
        <ele>272</ele>
        <time>2020-10-31T09:18:48.000Z</time>
      </trkpt>
      <trkpt lat="49.77446" lon="4.81697">
        <ele>272</ele>
        <time>2020-10-31T09:18:49.000Z</time>
      </trkpt>
      <trkpt lat="49.77447" lon="4.81696">
        <ele>272</ele>
        <time>2020-10-31T09:18:50.000Z</time>
      </trkpt>
      <trkpt lat="49.77449" lon="4.81695">
        <ele>272</ele>
        <time>2020-10-31T09:18:51.000Z</time>
      </trkpt>
      <trkpt lat="49.77451" lon="4.81694">
        <ele>272</ele>
        <time>2020-10-31T09:18:52.000Z</time>
      </trkpt>
      <trkpt lat="49.77453" lon="4.81694">
        <ele>272</ele>
        <time>2020-10-31T09:18:53.000Z</time>
      </trkpt>
      <trkpt lat="49.77454" lon="4.81693">
        <ele>272</ele>
        <time>2020-10-31T09:18:54.000Z</time>
      </trkpt>
      <trkpt lat="49.77455" lon="4.81692">
        <ele>272</ele>
        <time>2020-10-31T09:18:55.000Z</time>
      </trkpt>
      <trkpt lat="49.77456" lon="4.81691">
        <ele>272</ele>
        <time>2020-10-31T09:18:56.000Z</time>
      </trkpt>
      <trkpt lat="49.77458" lon="4.8169">
        <ele>272</ele>
        <time>2020-10-31T09:18:57.000Z</time>
      </trkpt>
      <trkpt lat="49.77459" lon="4.81689">
        <ele>272</ele>
        <time>2020-10-31T09:18:58.000Z</time>
      </trkpt>
      <trkpt lat="49.7746" lon="4.81689">
        <ele>272</ele>
        <time>2020-10-31T09:18:59.000Z</time>
      </trkpt>
      <trkpt lat="49.77462" lon="4.81688">
        <ele>272</ele>
        <time>2020-10-31T09:19:00.000Z</time>
      </trkpt>
      <trkpt lat="49.77462" lon="4.81687">
        <ele>272</ele>
        <time>2020-10-31T09:19:01.000Z</time>
      </trkpt>
      <trkpt lat="49.77463" lon="4.81687">
        <ele>272</ele>
        <time>2020-10-31T09:19:02.000Z</time>
      </trkpt>
      <trkpt lat="49.77463" lon="4.81687">
        <ele>272</ele>
        <time>2020-10-31T09:19:03.000Z</time>
      </trkpt>
      <trkpt lat="49.77463" lon="4.81687">
        <ele>271</ele>
        <time>2020-10-31T09:19:04.000Z</time>
      </trkpt>
      <trkpt lat="49.77463" lon="4.81687">
        <ele>271</ele>
        <time>2020-10-31T09:19:05.000Z</time>
      </trkpt>
      <trkpt lat="49.77463" lon="4.81687">
        <ele>271</ele>
        <time>2020-10-31T09:19:06.000Z</time>
      </trkpt>
      <trkpt lat="49.77463" lon="4.81687">
        <ele>271</ele>
        <time>2020-10-31T09:19:07.000Z</time>
      </trkpt>
      <trkpt lat="49.77463" lon="4.81687">
        <ele>271</ele>
        <time>2020-10-31T09:19:08.000Z</time>
      </trkpt>
      <trkpt lat="49.77464" lon="4.81686">
        <ele>271</ele>
        <time>2020-10-31T09:19:09.000Z</time>
      </trkpt>
      <trkpt lat="49.77464" lon="4.81686">
        <ele>271</ele>
        <time>2020-10-31T09:19:10.000Z</time>
      </trkpt>
      <trkpt lat="49.77465" lon="4.81685">
        <ele>271</ele>
        <time>2020-10-31T09:19:11.000Z</time>
      </trkpt>
      <trkpt lat="49.77466" lon="4.81685">
        <ele>271</ele>
        <time>2020-10-31T09:19:12.000Z</time>
      </trkpt>
      <trkpt lat="49.77466" lon="4.81684">
        <ele>271</ele>
        <time>2020-10-31T09:19:13.000Z</time>
      </trkpt>
      <trkpt lat="49.77467" lon="4.81683">
        <ele>271</ele>
        <time>2020-10-31T09:19:14.000Z</time>
      </trkpt>
      <trkpt lat="49.77469" lon="4.81682">
        <ele>271</ele>
        <time>2020-10-31T09:19:15.000Z</time>
      </trkpt>
      <trkpt lat="49.77471" lon="4.81681">
        <ele>271</ele>
        <time>2020-10-31T09:19:16.000Z</time>
      </trkpt>
      <trkpt lat="49.77472" lon="4.8168">
        <ele>271</ele>
        <time>2020-10-31T09:19:17.000Z</time>
      </trkpt>
      <trkpt lat="49.77474" lon="4.8168">
        <ele>271</ele>
        <time>2020-10-31T09:19:18.000Z</time>
      </trkpt>
      <trkpt lat="49.77474" lon="4.81679">
        <ele>271</ele>
        <time>2020-10-31T09:19:19.000Z</time>
      </trkpt>
      <trkpt lat="49.77474" lon="4.81679">
        <ele>271</ele>
        <time>2020-10-31T09:19:20.000Z</time>
      </trkpt>
      <trkpt lat="49.77475" lon="4.81678">
        <ele>271</ele>
        <time>2020-10-31T09:19:21.000Z</time>
      </trkpt>
      <trkpt lat="49.77476" lon="4.81677">
        <ele>271</ele>
        <time>2020-10-31T09:19:22.000Z</time>
      </trkpt>
      <trkpt lat="49.77477" lon="4.81676">
        <ele>271</ele>
        <time>2020-10-31T09:19:23.000Z</time>
      </trkpt>
      <trkpt lat="49.77478" lon="4.81675">
        <ele>271</ele>
        <time>2020-10-31T09:19:24.000Z</time>
      </trkpt>
      <trkpt lat="49.77479" lon="4.81674">
        <ele>271</ele>
        <time>2020-10-31T09:19:25.000Z</time>
      </trkpt>
      <trkpt lat="49.77481" lon="4.81674">
        <ele>271</ele>
        <time>2020-10-31T09:19:26.000Z</time>
      </trkpt>
      <trkpt lat="49.77482" lon="4.81673">
        <ele>271</ele>
        <time>2020-10-31T09:19:27.000Z</time>
      </trkpt>
      <trkpt lat="49.77482" lon="4.81673">
        <ele>271</ele>
        <time>2020-10-31T09:19:28.000Z</time>
      </trkpt>
      <trkpt lat="49.77482" lon="4.81673">
        <ele>271</ele>
        <time>2020-10-31T09:19:29.000Z</time>
      </trkpt>
      <trkpt lat="49.77482" lon="4.81673">
        <ele>271</ele>
        <time>2020-10-31T09:19:30.000Z</time>
      </trkpt>
      <trkpt lat="49.77483" lon="4.81672">
        <ele>271</ele>
        <time>2020-10-31T09:19:31.000Z</time>
      </trkpt>
      <trkpt lat="49.77484" lon="4.81672">
        <ele>271</ele>
        <time>2020-10-31T09:19:32.000Z</time>
      </trkpt>
      <trkpt lat="49.77485" lon="4.81671">
        <ele>271</ele>
        <time>2020-10-31T09:19:33.000Z</time>
      </trkpt>
      <trkpt lat="49.77486" lon="4.81671">
        <ele>271</ele>
        <time>2020-10-31T09:19:34.000Z</time>
      </trkpt>
      <trkpt lat="49.77487" lon="4.8167">
        <ele>271</ele>
        <time>2020-10-31T09:19:35.000Z</time>
      </trkpt>
      <trkpt lat="49.77488" lon="4.8167">
        <ele>271</ele>
        <time>2020-10-31T09:19:36.000Z</time>
      </trkpt>
      <trkpt lat="49.77489" lon="4.81669">
        <ele>271</ele>
        <time>2020-10-31T09:19:37.000Z</time>
      </trkpt>
      <trkpt lat="49.7749" lon="4.81668">
        <ele>271</ele>
        <time>2020-10-31T09:19:38.000Z</time>
      </trkpt>
      <trkpt lat="49.77491" lon="4.81668">
        <ele>271</ele>
        <time>2020-10-31T09:19:39.000Z</time>
      </trkpt>
      <trkpt lat="49.77493" lon="4.81667">
        <ele>271</ele>
        <time>2020-10-31T09:19:40.000Z</time>
      </trkpt>
      <trkpt lat="49.77493" lon="4.81667">
        <ele>271</ele>
        <time>2020-10-31T09:19:41.000Z</time>
      </trkpt>
      <trkpt lat="49.77493" lon="4.81667">
        <ele>271</ele>
        <time>2020-10-31T09:19:42.000Z</time>
      </trkpt>
      <trkpt lat="49.77493" lon="4.81667">
        <ele>271</ele>
        <time>2020-10-31T09:19:43.000Z</time>
      </trkpt>
      <trkpt lat="49.77494" lon="4.81666">
        <ele>271</ele>
        <time>2020-10-31T09:19:44.000Z</time>
      </trkpt>
      <trkpt lat="49.77495" lon="4.81666">
        <ele>271</ele>
        <time>2020-10-31T09:19:45.000Z</time>
      </trkpt>
      <trkpt lat="49.77495" lon="4.81665">
        <ele>271</ele>
        <time>2020-10-31T09:19:46.000Z</time>
      </trkpt>
      <trkpt lat="49.77495" lon="4.81666">
        <ele>271</ele>
        <time>2020-10-31T09:19:47.000Z</time>
      </trkpt>
      <trkpt lat="49.77495" lon="4.81666">
        <ele>271</ele>
        <time>2020-10-31T09:19:48.000Z</time>
      </trkpt>
      <trkpt lat="49.77494" lon="4.81666">
        <ele>271</ele>
        <time>2020-10-31T09:19:49.000Z</time>
      </trkpt>
      <trkpt lat="49.77494" lon="4.81666">
        <ele>271</ele>
        <time>2020-10-31T09:19:50.000Z</time>
      </trkpt>
      <trkpt lat="49.77494" lon="4.81666">
        <ele>271</ele>
        <time>2020-10-31T09:19:51.000Z</time>
      </trkpt>
      <trkpt lat="49.77494" lon="4.81666">
        <ele>270</ele>
        <time>2020-10-31T09:19:52.000Z</time>
      </trkpt>
      <trkpt lat="49.77494" lon="4.81666">
        <ele>270</ele>
        <time>2020-10-31T09:19:53.000Z</time>
      </trkpt>
      <trkpt lat="49.77494" lon="4.81666">
        <ele>270</ele>
        <time>2020-10-31T09:19:54.000Z</time>
      </trkpt>
      <trkpt lat="49.77494" lon="4.81666">
        <ele>270</ele>
        <time>2020-10-31T09:19:55.000Z</time>
      </trkpt>
      <trkpt lat="49.77495" lon="4.81667">
        <ele>270</ele>
        <time>2020-10-31T09:19:56.000Z</time>
      </trkpt>
      <trkpt lat="49.77494" lon="4.81666">
        <ele>270</ele>
        <time>2020-10-31T09:19:57.000Z</time>
      </trkpt>
      <trkpt lat="49.77495" lon="4.81666">
        <ele>270</ele>
        <time>2020-10-31T09:19:58.000Z</time>
      </trkpt>
      <trkpt lat="49.77494" lon="4.81667">
        <ele>270</ele>
        <time>2020-10-31T09:19:59.000Z</time>
      </trkpt>
      <trkpt lat="49.77494" lon="4.81667">
        <ele>270</ele>
        <time>2020-10-31T09:20:00.000Z</time>
      </trkpt>
      <trkpt lat="49.77494" lon="4.81667">
        <ele>270</ele>
        <time>2020-10-31T09:20:01.000Z</time>
      </trkpt>
      <trkpt lat="49.77495" lon="4.81666">
        <ele>270</ele>
        <time>2020-10-31T09:20:02.000Z</time>
      </trkpt>
      <trkpt lat="49.77495" lon="4.81667">
        <ele>270</ele>
        <time>2020-10-31T09:20:03.000Z</time>
      </trkpt>
      <trkpt lat="49.77495" lon="4.81667">
        <ele>270</ele>
        <time>2020-10-31T09:20:04.000Z</time>
      </trkpt>
      <trkpt lat="49.77495" lon="4.81666">
        <ele>270</ele>
        <time>2020-10-31T09:20:05.000Z</time>
      </trkpt>
      <trkpt lat="49.77496" lon="4.81666">
        <ele>270</ele>
        <time>2020-10-31T09:20:06.000Z</time>
      </trkpt>
      <trkpt lat="49.77497" lon="4.81666">
        <ele>271</ele>
        <time>2020-10-31T09:20:07.000Z</time>
      </trkpt>
      <trkpt lat="49.77498" lon="4.81665">
        <ele>271</ele>
        <time>2020-10-31T09:20:08.000Z</time>
      </trkpt>
      <trkpt lat="49.77499" lon="4.81664">
        <ele>271</ele>
        <time>2020-10-31T09:20:09.000Z</time>
      </trkpt>
      <trkpt lat="49.77501" lon="4.81664">
        <ele>271</ele>
        <time>2020-10-31T09:20:10.000Z</time>
      </trkpt>
      <trkpt lat="49.77502" lon="4.81663">
        <ele>270</ele>
        <time>2020-10-31T09:20:11.000Z</time>
      </trkpt>
      <trkpt lat="49.77504" lon="4.81662">
        <ele>271</ele>
        <time>2020-10-31T09:20:12.000Z</time>
      </trkpt>
      <trkpt lat="49.77505" lon="4.81662">
        <ele>270</ele>
        <time>2020-10-31T09:20:13.000Z</time>
      </trkpt>
      <trkpt lat="49.77507" lon="4.81661">
        <ele>270</ele>
        <time>2020-10-31T09:20:14.000Z</time>
      </trkpt>
      <trkpt lat="49.77509" lon="4.8166">
        <ele>270</ele>
        <time>2020-10-31T09:20:15.000Z</time>
      </trkpt>
      <trkpt lat="49.77512" lon="4.81659">
        <ele>270</ele>
        <time>2020-10-31T09:20:16.000Z</time>
      </trkpt>
      <trkpt lat="49.77514" lon="4.81657">
        <ele>270</ele>
        <time>2020-10-31T09:20:17.000Z</time>
      </trkpt>
      <trkpt lat="49.77518" lon="4.81656">
        <ele>270</ele>
        <time>2020-10-31T09:20:18.000Z</time>
      </trkpt>
      <trkpt lat="49.77521" lon="4.81654">
        <ele>270</ele>
        <time>2020-10-31T09:20:19.000Z</time>
      </trkpt>
      <trkpt lat="49.77524" lon="4.81653">
        <ele>270</ele>
        <time>2020-10-31T09:20:20.000Z</time>
      </trkpt>
      <trkpt lat="49.77527" lon="4.81651">
        <ele>270</ele>
        <time>2020-10-31T09:20:21.000Z</time>
      </trkpt>
      <trkpt lat="49.7753" lon="4.8165">
        <ele>270</ele>
        <time>2020-10-31T09:20:22.000Z</time>
      </trkpt>
      <trkpt lat="49.77533" lon="4.81649">
        <ele>270</ele>
        <time>2020-10-31T09:20:23.000Z</time>
      </trkpt>
      <trkpt lat="49.77536" lon="4.81647">
        <ele>269</ele>
        <time>2020-10-31T09:20:24.000Z</time>
      </trkpt>
      <trkpt lat="49.77539" lon="4.81646">
        <ele>269</ele>
        <time>2020-10-31T09:20:25.000Z</time>
      </trkpt>
      <trkpt lat="49.77542" lon="4.81645">
        <ele>269</ele>
        <time>2020-10-31T09:20:26.000Z</time>
      </trkpt>
      <trkpt lat="49.77545" lon="4.81643">
        <ele>269</ele>
        <time>2020-10-31T09:20:27.000Z</time>
      </trkpt>
      <trkpt lat="49.77548" lon="4.81642">
        <ele>269</ele>
        <time>2020-10-31T09:20:28.000Z</time>
      </trkpt>
      <trkpt lat="49.77551" lon="4.81641">
        <ele>269</ele>
        <time>2020-10-31T09:20:29.000Z</time>
      </trkpt>
      <trkpt lat="49.77553" lon="4.81641">
        <ele>269</ele>
        <time>2020-10-31T09:20:30.000Z</time>
      </trkpt>
      <trkpt lat="49.77556" lon="4.8164">
        <ele>269</ele>
        <time>2020-10-31T09:20:31.000Z</time>
      </trkpt>
      <trkpt lat="49.77558" lon="4.81639">
        <ele>269</ele>
        <time>2020-10-31T09:20:32.000Z</time>
      </trkpt>
      <trkpt lat="49.77561" lon="4.81638">
        <ele>268</ele>
        <time>2020-10-31T09:20:33.000Z</time>
      </trkpt>
      <trkpt lat="49.77565" lon="4.81637">
        <ele>268</ele>
        <time>2020-10-31T09:20:34.000Z</time>
      </trkpt>
      <trkpt lat="49.77568" lon="4.81636">
        <ele>268</ele>
        <time>2020-10-31T09:20:35.000Z</time>
      </trkpt>
      <trkpt lat="49.7757" lon="4.81634">
        <ele>268</ele>
        <time>2020-10-31T09:20:36.000Z</time>
      </trkpt>
      <trkpt lat="49.77573" lon="4.81633">
        <ele>268</ele>
        <time>2020-10-31T09:20:37.000Z</time>
      </trkpt>
      <trkpt lat="49.77576" lon="4.81632">
        <ele>268</ele>
        <time>2020-10-31T09:20:38.000Z</time>
      </trkpt>
      <trkpt lat="49.77579" lon="4.8163">
        <ele>268</ele>
        <time>2020-10-31T09:20:39.000Z</time>
      </trkpt>
      <trkpt lat="49.77582" lon="4.81629">
        <ele>268</ele>
        <time>2020-10-31T09:20:40.000Z</time>
      </trkpt>
      <trkpt lat="49.77585" lon="4.81627">
        <ele>268</ele>
        <time>2020-10-31T09:20:41.000Z</time>
      </trkpt>
      <trkpt lat="49.77588" lon="4.81626">
        <ele>267</ele>
        <time>2020-10-31T09:20:42.000Z</time>
      </trkpt>
      <trkpt lat="49.77592" lon="4.81625">
        <ele>267</ele>
        <time>2020-10-31T09:20:43.000Z</time>
      </trkpt>
      <trkpt lat="49.77595" lon="4.81625">
        <ele>267</ele>
        <time>2020-10-31T09:20:44.000Z</time>
      </trkpt>
      <trkpt lat="49.77598" lon="4.81624">
        <ele>267</ele>
        <time>2020-10-31T09:20:45.000Z</time>
      </trkpt>
      <trkpt lat="49.77601" lon="4.81624">
        <ele>267</ele>
        <time>2020-10-31T09:20:46.000Z</time>
      </trkpt>
      <trkpt lat="49.77604" lon="4.81624">
        <ele>267</ele>
        <time>2020-10-31T09:20:47.000Z</time>
      </trkpt>
      <trkpt lat="49.77606" lon="4.81623">
        <ele>267</ele>
        <time>2020-10-31T09:20:48.000Z</time>
      </trkpt>
      <trkpt lat="49.77609" lon="4.81623">
        <ele>267</ele>
        <time>2020-10-31T09:20:49.000Z</time>
      </trkpt>
      <trkpt lat="49.77611" lon="4.81623">
        <ele>267</ele>
        <time>2020-10-31T09:20:50.000Z</time>
      </trkpt>
      <trkpt lat="49.77614" lon="4.81623">
        <ele>267</ele>
        <time>2020-10-31T09:20:51.000Z</time>
      </trkpt>
      <trkpt lat="49.77616" lon="4.81623">
        <ele>267</ele>
        <time>2020-10-31T09:20:52.000Z</time>
      </trkpt>
      <trkpt lat="49.77619" lon="4.81623">
        <ele>267</ele>
        <time>2020-10-31T09:20:53.000Z</time>
      </trkpt>
      <trkpt lat="49.77622" lon="4.81622">
        <ele>267</ele>
        <time>2020-10-31T09:20:54.000Z</time>
      </trkpt>
      <trkpt lat="49.77625" lon="4.81622">
        <ele>267</ele>
        <time>2020-10-31T09:20:55.000Z</time>
      </trkpt>
      <trkpt lat="49.77628" lon="4.81622">
        <ele>267</ele>
        <time>2020-10-31T09:20:56.000Z</time>
      </trkpt>
      <trkpt lat="49.77631" lon="4.81623">
        <ele>267</ele>
        <time>2020-10-31T09:20:57.000Z</time>
      </trkpt>
      <trkpt lat="49.77635" lon="4.81623">
        <ele>267</ele>
        <time>2020-10-31T09:20:58.000Z</time>
      </trkpt>
      <trkpt lat="49.77637" lon="4.81623">
        <ele>267</ele>
        <time>2020-10-31T09:20:59.000Z</time>
      </trkpt>
      <trkpt lat="49.77638" lon="4.81623">
        <ele>267</ele>
        <time>2020-10-31T09:21:00.000Z</time>
      </trkpt>
      <trkpt lat="49.77639" lon="4.81622">
        <ele>267</ele>
        <time>2020-10-31T09:21:01.000Z</time>
      </trkpt>
      <trkpt lat="49.7764" lon="4.81623">
        <ele>267</ele>
        <time>2020-10-31T09:21:02.000Z</time>
      </trkpt>
      <trkpt lat="49.77642" lon="4.81624">
        <ele>267</ele>
        <time>2020-10-31T09:21:03.000Z</time>
      </trkpt>
      <trkpt lat="49.77643" lon="4.81624">
        <ele>267</ele>
        <time>2020-10-31T09:21:04.000Z</time>
      </trkpt>
      <trkpt lat="49.77644" lon="4.81624">
        <ele>267</ele>
        <time>2020-10-31T09:21:05.000Z</time>
      </trkpt>
      <trkpt lat="49.77645" lon="4.81625">
        <ele>267</ele>
        <time>2020-10-31T09:21:06.000Z</time>
      </trkpt>
      <trkpt lat="49.77646" lon="4.81625">
        <ele>266</ele>
        <time>2020-10-31T09:21:07.000Z</time>
      </trkpt>
      <trkpt lat="49.77647" lon="4.81625">
        <ele>266</ele>
        <time>2020-10-31T09:21:08.000Z</time>
      </trkpt>
      <trkpt lat="49.77648" lon="4.81625">
        <ele>266</ele>
        <time>2020-10-31T09:21:09.000Z</time>
      </trkpt>
      <trkpt lat="49.77649" lon="4.81626">
        <ele>266</ele>
        <time>2020-10-31T09:21:10.000Z</time>
      </trkpt>
      <trkpt lat="49.7765" lon="4.81626">
        <ele>266</ele>
        <time>2020-10-31T09:21:11.000Z</time>
      </trkpt>
      <trkpt lat="49.77652" lon="4.81627">
        <ele>266</ele>
        <time>2020-10-31T09:21:12.000Z</time>
      </trkpt>
      <trkpt lat="49.77653" lon="4.81627">
        <ele>266</ele>
        <time>2020-10-31T09:21:13.000Z</time>
      </trkpt>
      <trkpt lat="49.77655" lon="4.81626">
        <ele>266</ele>
        <time>2020-10-31T09:21:14.000Z</time>
      </trkpt>
      <trkpt lat="49.77656" lon="4.81627">
        <ele>266</ele>
        <time>2020-10-31T09:21:15.000Z</time>
      </trkpt>
      <trkpt lat="49.77658" lon="4.81628">
        <ele>266</ele>
        <time>2020-10-31T09:21:16.000Z</time>
      </trkpt>
      <trkpt lat="49.77659" lon="4.81628">
        <ele>266</ele>
        <time>2020-10-31T09:21:17.000Z</time>
      </trkpt>
      <trkpt lat="49.77661" lon="4.81629">
        <ele>266</ele>
        <time>2020-10-31T09:21:18.000Z</time>
      </trkpt>
      <trkpt lat="49.77662" lon="4.81629">
        <ele>266</ele>
        <time>2020-10-31T09:21:19.000Z</time>
      </trkpt>
      <trkpt lat="49.77664" lon="4.8163">
        <ele>266</ele>
        <time>2020-10-31T09:21:20.000Z</time>
      </trkpt>
      <trkpt lat="49.77665" lon="4.8163">
        <ele>266</ele>
        <time>2020-10-31T09:21:21.000Z</time>
      </trkpt>
      <trkpt lat="49.77667" lon="4.81631">
        <ele>266</ele>
        <time>2020-10-31T09:21:22.000Z</time>
      </trkpt>
      <trkpt lat="49.77668" lon="4.81632">
        <ele>265</ele>
        <time>2020-10-31T09:21:23.000Z</time>
      </trkpt>
      <trkpt lat="49.77669" lon="4.81632">
        <ele>265</ele>
        <time>2020-10-31T09:21:24.000Z</time>
      </trkpt>
      <trkpt lat="49.77671" lon="4.81633">
        <ele>265</ele>
        <time>2020-10-31T09:21:25.000Z</time>
      </trkpt>
      <trkpt lat="49.77672" lon="4.81633">
        <ele>265</ele>
        <time>2020-10-31T09:21:26.000Z</time>
      </trkpt>
      <trkpt lat="49.77674" lon="4.81634">
        <ele>265</ele>
        <time>2020-10-31T09:21:27.000Z</time>
      </trkpt>
      <trkpt lat="49.77675" lon="4.81635">
        <ele>265</ele>
        <time>2020-10-31T09:21:28.000Z</time>
      </trkpt>
      <trkpt lat="49.77676" lon="4.81636">
        <ele>265</ele>
        <time>2020-10-31T09:21:29.000Z</time>
      </trkpt>
      <trkpt lat="49.77678" lon="4.81637">
        <ele>265</ele>
        <time>2020-10-31T09:21:30.000Z</time>
      </trkpt>
      <trkpt lat="49.77679" lon="4.81637">
        <ele>265</ele>
        <time>2020-10-31T09:21:31.000Z</time>
      </trkpt>
      <trkpt lat="49.7768" lon="4.81638">
        <ele>265</ele>
        <time>2020-10-31T09:21:32.000Z</time>
      </trkpt>
      <trkpt lat="49.77682" lon="4.81639">
        <ele>265</ele>
        <time>2020-10-31T09:21:33.000Z</time>
      </trkpt>
      <trkpt lat="49.77683" lon="4.8164">
        <ele>265</ele>
        <time>2020-10-31T09:21:34.000Z</time>
      </trkpt>
      <trkpt lat="49.77684" lon="4.8164">
        <ele>265</ele>
        <time>2020-10-31T09:21:35.000Z</time>
      </trkpt>
      <trkpt lat="49.77685" lon="4.81641">
        <ele>265</ele>
        <time>2020-10-31T09:21:36.000Z</time>
      </trkpt>
      <trkpt lat="49.77686" lon="4.81642">
        <ele>265</ele>
        <time>2020-10-31T09:21:37.000Z</time>
      </trkpt>
      <trkpt lat="49.77688" lon="4.81642">
        <ele>265</ele>
        <time>2020-10-31T09:21:38.000Z</time>
      </trkpt>
      <trkpt lat="49.77689" lon="4.81643">
        <ele>265</ele>
        <time>2020-10-31T09:21:39.000Z</time>
      </trkpt>
      <trkpt lat="49.7769" lon="4.81643">
        <ele>265</ele>
        <time>2020-10-31T09:21:40.000Z</time>
      </trkpt>
      <trkpt lat="49.7769" lon="4.81644">
        <ele>265</ele>
        <time>2020-10-31T09:21:41.000Z</time>
      </trkpt>
      <trkpt lat="49.77691" lon="4.81644">
        <ele>265</ele>
        <time>2020-10-31T09:21:42.000Z</time>
      </trkpt>
      <trkpt lat="49.77692" lon="4.81645">
        <ele>264</ele>
        <time>2020-10-31T09:21:43.000Z</time>
      </trkpt>
      <trkpt lat="49.77693" lon="4.81646">
        <ele>264</ele>
        <time>2020-10-31T09:21:44.000Z</time>
      </trkpt>
      <trkpt lat="49.77694" lon="4.81646">
        <ele>264</ele>
        <time>2020-10-31T09:21:45.000Z</time>
      </trkpt>
      <trkpt lat="49.77695" lon="4.81647">
        <ele>264</ele>
        <time>2020-10-31T09:21:46.000Z</time>
      </trkpt>
      <trkpt lat="49.77696" lon="4.81647">
        <ele>264</ele>
        <time>2020-10-31T09:21:47.000Z</time>
      </trkpt>
      <trkpt lat="49.77697" lon="4.81648">
        <ele>264</ele>
        <time>2020-10-31T09:21:48.000Z</time>
      </trkpt>
      <trkpt lat="49.77698" lon="4.81649">
        <ele>264</ele>
        <time>2020-10-31T09:21:49.000Z</time>
      </trkpt>
      <trkpt lat="49.77699" lon="4.8165">
        <ele>264</ele>
        <time>2020-10-31T09:21:50.000Z</time>
      </trkpt>
      <trkpt lat="49.777" lon="4.81651">
        <ele>263</ele>
        <time>2020-10-31T09:21:51.000Z</time>
      </trkpt>
      <trkpt lat="49.77702" lon="4.81653">
        <ele>263</ele>
        <time>2020-10-31T09:21:52.000Z</time>
      </trkpt>
      <trkpt lat="49.77703" lon="4.81653">
        <ele>263</ele>
        <time>2020-10-31T09:21:53.000Z</time>
      </trkpt>
      <trkpt lat="49.77704" lon="4.81655">
        <ele>263</ele>
        <time>2020-10-31T09:21:54.000Z</time>
      </trkpt>
      <trkpt lat="49.77706" lon="4.81656">
        <ele>263</ele>
        <time>2020-10-31T09:21:55.000Z</time>
      </trkpt>
      <trkpt lat="49.77707" lon="4.81657">
        <ele>263</ele>
        <time>2020-10-31T09:21:56.000Z</time>
      </trkpt>
      <trkpt lat="49.77709" lon="4.81658">
        <ele>263</ele>
        <time>2020-10-31T09:21:57.000Z</time>
      </trkpt>
      <trkpt lat="49.7771" lon="4.81659">
        <ele>263</ele>
        <time>2020-10-31T09:21:58.000Z</time>
      </trkpt>
      <trkpt lat="49.77711" lon="4.8166">
        <ele>263</ele>
        <time>2020-10-31T09:21:59.000Z</time>
      </trkpt>
      <trkpt lat="49.77713" lon="4.81661">
        <ele>263</ele>
        <time>2020-10-31T09:22:00.000Z</time>
      </trkpt>
      <trkpt lat="49.77714" lon="4.81662">
        <ele>263</ele>
        <time>2020-10-31T09:22:01.000Z</time>
      </trkpt>
      <trkpt lat="49.77715" lon="4.81663">
        <ele>263</ele>
        <time>2020-10-31T09:22:02.000Z</time>
      </trkpt>
      <trkpt lat="49.77716" lon="4.81665">
        <ele>263</ele>
        <time>2020-10-31T09:22:03.000Z</time>
      </trkpt>
      <trkpt lat="49.77718" lon="4.81666">
        <ele>263</ele>
        <time>2020-10-31T09:22:04.000Z</time>
      </trkpt>
      <trkpt lat="49.77719" lon="4.81667">
        <ele>263</ele>
        <time>2020-10-31T09:22:05.000Z</time>
      </trkpt>
      <trkpt lat="49.77719" lon="4.81669">
        <ele>263</ele>
        <time>2020-10-31T09:22:06.000Z</time>
      </trkpt>
      <trkpt lat="49.7772" lon="4.8167">
        <ele>263</ele>
        <time>2020-10-31T09:22:07.000Z</time>
      </trkpt>
      <trkpt lat="49.77721" lon="4.81672">
        <ele>263</ele>
        <time>2020-10-31T09:22:08.000Z</time>
      </trkpt>
      <trkpt lat="49.77723" lon="4.81673">
        <ele>263</ele>
        <time>2020-10-31T09:22:09.000Z</time>
      </trkpt>
      <trkpt lat="49.77724" lon="4.81674">
        <ele>263</ele>
        <time>2020-10-31T09:22:10.000Z</time>
      </trkpt>
      <trkpt lat="49.77724" lon="4.81676">
        <ele>263</ele>
        <time>2020-10-31T09:22:11.000Z</time>
      </trkpt>
      <trkpt lat="49.77725" lon="4.81677">
        <ele>264</ele>
        <time>2020-10-31T09:22:12.000Z</time>
      </trkpt>
      <trkpt lat="49.77725" lon="4.81678">
        <ele>263</ele>
        <time>2020-10-31T09:22:13.000Z</time>
      </trkpt>
      <trkpt lat="49.77726" lon="4.8168">
        <ele>263</ele>
        <time>2020-10-31T09:22:14.000Z</time>
      </trkpt>
      <trkpt lat="49.77726" lon="4.81682">
        <ele>263</ele>
        <time>2020-10-31T09:22:15.000Z</time>
      </trkpt>
      <trkpt lat="49.77727" lon="4.81684">
        <ele>264</ele>
        <time>2020-10-31T09:22:16.000Z</time>
      </trkpt>
      <trkpt lat="49.77728" lon="4.81686">
        <ele>264</ele>
        <time>2020-10-31T09:22:17.000Z</time>
      </trkpt>
      <trkpt lat="49.77729" lon="4.81689">
        <ele>264</ele>
        <time>2020-10-31T09:22:18.000Z</time>
      </trkpt>
      <trkpt lat="49.7773" lon="4.81691">
        <ele>264</ele>
        <time>2020-10-31T09:22:19.000Z</time>
      </trkpt>
      <trkpt lat="49.77731" lon="4.81694">
        <ele>264</ele>
        <time>2020-10-31T09:22:20.000Z</time>
      </trkpt>
      <trkpt lat="49.77733" lon="4.81698">
        <ele>264</ele>
        <time>2020-10-31T09:22:21.000Z</time>
      </trkpt>
      <trkpt lat="49.77734" lon="4.81702">
        <ele>264</ele>
        <time>2020-10-31T09:22:22.000Z</time>
      </trkpt>
      <trkpt lat="49.77736" lon="4.81705">
        <ele>264</ele>
        <time>2020-10-31T09:22:23.000Z</time>
      </trkpt>
      <trkpt lat="49.77739" lon="4.81709">
        <ele>264</ele>
        <time>2020-10-31T09:22:24.000Z</time>
      </trkpt>
      <trkpt lat="49.77741" lon="4.81714">
        <ele>264</ele>
        <time>2020-10-31T09:22:25.000Z</time>
      </trkpt>
      <trkpt lat="49.77744" lon="4.81719">
        <ele>264</ele>
        <time>2020-10-31T09:22:26.000Z</time>
      </trkpt>
      <trkpt lat="49.77746" lon="4.81723">
        <ele>264</ele>
        <time>2020-10-31T09:22:27.000Z</time>
      </trkpt>
      <trkpt lat="49.77749" lon="4.81727">
        <ele>264</ele>
        <time>2020-10-31T09:22:28.000Z</time>
      </trkpt>
      <trkpt lat="49.77752" lon="4.81731">
        <ele>264</ele>
        <time>2020-10-31T09:22:29.000Z</time>
      </trkpt>
      <trkpt lat="49.77754" lon="4.81735">
        <ele>264</ele>
        <time>2020-10-31T09:22:30.000Z</time>
      </trkpt>
      <trkpt lat="49.77757" lon="4.81738">
        <ele>264</ele>
        <time>2020-10-31T09:22:31.000Z</time>
      </trkpt>
      <trkpt lat="49.77759" lon="4.81742">
        <ele>264</ele>
        <time>2020-10-31T09:22:32.000Z</time>
      </trkpt>
      <trkpt lat="49.77761" lon="4.81746">
        <ele>264</ele>
        <time>2020-10-31T09:22:33.000Z</time>
      </trkpt>
      <trkpt lat="49.77763" lon="4.8175">
        <ele>264</ele>
        <time>2020-10-31T09:22:34.000Z</time>
      </trkpt>
      <trkpt lat="49.77765" lon="4.81754">
        <ele>263</ele>
        <time>2020-10-31T09:22:35.000Z</time>
      </trkpt>
      <trkpt lat="49.77767" lon="4.81757">
        <ele>263</ele>
        <time>2020-10-31T09:22:36.000Z</time>
      </trkpt>
      <trkpt lat="49.77769" lon="4.8176">
        <ele>263</ele>
        <time>2020-10-31T09:22:37.000Z</time>
      </trkpt>
      <trkpt lat="49.77769" lon="4.81761">
        <ele>263</ele>
        <time>2020-10-31T09:22:38.000Z</time>
      </trkpt>
      <trkpt lat="49.7777" lon="4.81761">
        <ele>264</ele>
        <time>2020-10-31T09:22:39.000Z</time>
      </trkpt>
      <trkpt lat="49.7777" lon="4.81762">
        <ele>264</ele>
        <time>2020-10-31T09:22:40.000Z</time>
      </trkpt>
      <trkpt lat="49.7777" lon="4.81762">
        <ele>264</ele>
        <time>2020-10-31T09:22:41.000Z</time>
      </trkpt>
      <trkpt lat="49.77771" lon="4.81764">
        <ele>264</ele>
        <time>2020-10-31T09:22:42.000Z</time>
      </trkpt>
      <trkpt lat="49.77771" lon="4.81765">
        <ele>264</ele>
        <time>2020-10-31T09:22:43.000Z</time>
      </trkpt>
      <trkpt lat="49.77772" lon="4.81767">
        <ele>264</ele>
        <time>2020-10-31T09:22:44.000Z</time>
      </trkpt>
      <trkpt lat="49.77774" lon="4.81768">
        <ele>264</ele>
        <time>2020-10-31T09:22:45.000Z</time>
      </trkpt>
      <trkpt lat="49.77775" lon="4.8177">
        <ele>264</ele>
        <time>2020-10-31T09:22:46.000Z</time>
      </trkpt>
      <trkpt lat="49.77776" lon="4.81771">
        <ele>264</ele>
        <time>2020-10-31T09:22:47.000Z</time>
      </trkpt>
      <trkpt lat="49.77776" lon="4.81772">
        <ele>264</ele>
        <time>2020-10-31T09:22:48.000Z</time>
      </trkpt>
      <trkpt lat="49.77777" lon="4.81773">
        <ele>264</ele>
        <time>2020-10-31T09:22:49.000Z</time>
      </trkpt>
      <trkpt lat="49.77777" lon="4.81773">
        <ele>264</ele>
        <time>2020-10-31T09:22:50.000Z</time>
      </trkpt>
      <trkpt lat="49.77777" lon="4.81773">
        <ele>265</ele>
        <time>2020-10-31T09:22:51.000Z</time>
      </trkpt>
      <trkpt lat="49.77777" lon="4.81774">
        <ele>265</ele>
        <time>2020-10-31T09:22:52.000Z</time>
      </trkpt>
      <trkpt lat="49.77777" lon="4.81774">
        <ele>265</ele>
        <time>2020-10-31T09:22:53.000Z</time>
      </trkpt>
      <trkpt lat="49.77777" lon="4.81774">
        <ele>265</ele>
        <time>2020-10-31T09:22:54.000Z</time>
      </trkpt>
      <trkpt lat="49.77778" lon="4.81774">
        <ele>265</ele>
        <time>2020-10-31T09:22:55.000Z</time>
      </trkpt>
      <trkpt lat="49.77778" lon="4.81774">
        <ele>265</ele>
        <time>2020-10-31T09:22:56.000Z</time>
      </trkpt>
      <trkpt lat="49.77779" lon="4.81776">
        <ele>265</ele>
        <time>2020-10-31T09:22:57.000Z</time>
      </trkpt>
      <trkpt lat="49.77779" lon="4.81777">
        <ele>265</ele>
        <time>2020-10-31T09:22:58.000Z</time>
      </trkpt>
      <trkpt lat="49.77781" lon="4.81778">
        <ele>265</ele>
        <time>2020-10-31T09:22:59.000Z</time>
      </trkpt>
      <trkpt lat="49.77782" lon="4.81781">
        <ele>265</ele>
        <time>2020-10-31T09:23:00.000Z</time>
      </trkpt>
      <trkpt lat="49.77783" lon="4.81783">
        <ele>265</ele>
        <time>2020-10-31T09:23:01.000Z</time>
      </trkpt>
      <trkpt lat="49.77785" lon="4.81786">
        <ele>265</ele>
        <time>2020-10-31T09:23:02.000Z</time>
      </trkpt>
      <trkpt lat="49.77787" lon="4.81789">
        <ele>265</ele>
        <time>2020-10-31T09:23:03.000Z</time>
      </trkpt>
      <trkpt lat="49.77789" lon="4.81792">
        <ele>265</ele>
        <time>2020-10-31T09:23:04.000Z</time>
      </trkpt>
      <trkpt lat="49.77791" lon="4.81795">
        <ele>264</ele>
        <time>2020-10-31T09:23:05.000Z</time>
      </trkpt>
      <trkpt lat="49.77794" lon="4.81799">
        <ele>264</ele>
        <time>2020-10-31T09:23:06.000Z</time>
      </trkpt>
      <trkpt lat="49.77796" lon="4.81802">
        <ele>264</ele>
        <time>2020-10-31T09:23:07.000Z</time>
      </trkpt>
      <trkpt lat="49.77798" lon="4.81805">
        <ele>264</ele>
        <time>2020-10-31T09:23:08.000Z</time>
      </trkpt>
      <trkpt lat="49.778" lon="4.81809">
        <ele>264</ele>
        <time>2020-10-31T09:23:09.000Z</time>
      </trkpt>
      <trkpt lat="49.77803" lon="4.81812">
        <ele>264</ele>
        <time>2020-10-31T09:23:10.000Z</time>
      </trkpt>
      <trkpt lat="49.77804" lon="4.81815">
        <ele>264</ele>
        <time>2020-10-31T09:23:11.000Z</time>
      </trkpt>
      <trkpt lat="49.77807" lon="4.81818">
        <ele>264</ele>
        <time>2020-10-31T09:23:12.000Z</time>
      </trkpt>
      <trkpt lat="49.77809" lon="4.81822">
        <ele>264</ele>
        <time>2020-10-31T09:23:13.000Z</time>
      </trkpt>
      <trkpt lat="49.77811" lon="4.81825">
        <ele>264</ele>
        <time>2020-10-31T09:23:14.000Z</time>
      </trkpt>
      <trkpt lat="49.77814" lon="4.81829">
        <ele>265</ele>
        <time>2020-10-31T09:23:15.000Z</time>
      </trkpt>
      <trkpt lat="49.77817" lon="4.81832">
        <ele>265</ele>
        <time>2020-10-31T09:23:16.000Z</time>
      </trkpt>
      <trkpt lat="49.77819" lon="4.81836">
        <ele>265</ele>
        <time>2020-10-31T09:23:17.000Z</time>
      </trkpt>
      <trkpt lat="49.77821" lon="4.8184">
        <ele>265</ele>
        <time>2020-10-31T09:23:18.000Z</time>
      </trkpt>
      <trkpt lat="49.77824" lon="4.81844">
        <ele>265</ele>
        <time>2020-10-31T09:23:19.000Z</time>
      </trkpt>
      <trkpt lat="49.77825" lon="4.81848">
        <ele>265</ele>
        <time>2020-10-31T09:23:20.000Z</time>
      </trkpt>
      <trkpt lat="49.77826" lon="4.8185">
        <ele>265</ele>
        <time>2020-10-31T09:23:21.000Z</time>
      </trkpt>
      <trkpt lat="49.77828" lon="4.81852">
        <ele>265</ele>
        <time>2020-10-31T09:23:22.000Z</time>
      </trkpt>
      <trkpt lat="49.77828" lon="4.81853">
        <ele>265</ele>
        <time>2020-10-31T09:23:23.000Z</time>
      </trkpt>
      <trkpt lat="49.77828" lon="4.81854">
        <ele>265</ele>
        <time>2020-10-31T09:23:24.000Z</time>
      </trkpt>
      <trkpt lat="49.77829" lon="4.81854">
        <ele>265</ele>
        <time>2020-10-31T09:23:25.000Z</time>
      </trkpt>
      <trkpt lat="49.77829" lon="4.81855">
        <ele>265</ele>
        <time>2020-10-31T09:23:26.000Z</time>
      </trkpt>
      <trkpt lat="49.77829" lon="4.81856">
        <ele>265</ele>
        <time>2020-10-31T09:23:27.000Z</time>
      </trkpt>
      <trkpt lat="49.77829" lon="4.81857">
        <ele>266</ele>
        <time>2020-10-31T09:23:28.000Z</time>
      </trkpt>
      <trkpt lat="49.7783" lon="4.81858">
        <ele>266</ele>
        <time>2020-10-31T09:23:29.000Z</time>
      </trkpt>
      <trkpt lat="49.7783" lon="4.81858">
        <ele>266</ele>
        <time>2020-10-31T09:23:30.000Z</time>
      </trkpt>
      <trkpt lat="49.7783" lon="4.81858">
        <ele>266</ele>
        <time>2020-10-31T09:23:31.000Z</time>
      </trkpt>
      <trkpt lat="49.77831" lon="4.81859">
        <ele>266</ele>
        <time>2020-10-31T09:23:32.000Z</time>
      </trkpt>
      <trkpt lat="49.77831" lon="4.8186">
        <ele>266</ele>
        <time>2020-10-31T09:23:33.000Z</time>
      </trkpt>
      <trkpt lat="49.77832" lon="4.81862">
        <ele>266</ele>
        <time>2020-10-31T09:23:34.000Z</time>
      </trkpt>
      <trkpt lat="49.77832" lon="4.81864">
        <ele>266</ele>
        <time>2020-10-31T09:23:35.000Z</time>
      </trkpt>
      <trkpt lat="49.77833" lon="4.81866">
        <ele>266</ele>
        <time>2020-10-31T09:23:36.000Z</time>
      </trkpt>
      <trkpt lat="49.77834" lon="4.81868">
        <ele>266</ele>
        <time>2020-10-31T09:23:37.000Z</time>
      </trkpt>
      <trkpt lat="49.77835" lon="4.81871">
        <ele>266</ele>
        <time>2020-10-31T09:23:38.000Z</time>
      </trkpt>
      <trkpt lat="49.77837" lon="4.81874">
        <ele>266</ele>
        <time>2020-10-31T09:23:39.000Z</time>
      </trkpt>
      <trkpt lat="49.77839" lon="4.81878">
        <ele>266</ele>
        <time>2020-10-31T09:23:40.000Z</time>
      </trkpt>
      <trkpt lat="49.77841" lon="4.81883">
        <ele>266</ele>
        <time>2020-10-31T09:23:41.000Z</time>
      </trkpt>
      <trkpt lat="49.77842" lon="4.81888">
        <ele>266</ele>
        <time>2020-10-31T09:23:42.000Z</time>
      </trkpt>
      <trkpt lat="49.77844" lon="4.81891">
        <ele>266</ele>
        <time>2020-10-31T09:23:43.000Z</time>
      </trkpt>
      <trkpt lat="49.77845" lon="4.81895">
        <ele>266</ele>
        <time>2020-10-31T09:23:44.000Z</time>
      </trkpt>
      <trkpt lat="49.77846" lon="4.81898">
        <ele>266</ele>
        <time>2020-10-31T09:23:45.000Z</time>
      </trkpt>
      <trkpt lat="49.77848" lon="4.81901">
        <ele>266</ele>
        <time>2020-10-31T09:23:46.000Z</time>
      </trkpt>
      <trkpt lat="49.77849" lon="4.81904">
        <ele>266</ele>
        <time>2020-10-31T09:23:47.000Z</time>
      </trkpt>
      <trkpt lat="49.77851" lon="4.81907">
        <ele>266</ele>
        <time>2020-10-31T09:23:48.000Z</time>
      </trkpt>
      <trkpt lat="49.77852" lon="4.81911">
        <ele>266</ele>
        <time>2020-10-31T09:23:49.000Z</time>
      </trkpt>
      <trkpt lat="49.77854" lon="4.81915">
        <ele>266</ele>
        <time>2020-10-31T09:23:50.000Z</time>
      </trkpt>
      <trkpt lat="49.77855" lon="4.81919">
        <ele>266</ele>
        <time>2020-10-31T09:23:51.000Z</time>
      </trkpt>
      <trkpt lat="49.77857" lon="4.81923">
        <ele>266</ele>
        <time>2020-10-31T09:23:52.000Z</time>
      </trkpt>
      <trkpt lat="49.77859" lon="4.81928">
        <ele>266</ele>
        <time>2020-10-31T09:23:53.000Z</time>
      </trkpt>
      <trkpt lat="49.77862" lon="4.81933">
        <ele>266</ele>
        <time>2020-10-31T09:23:54.000Z</time>
      </trkpt>
      <trkpt lat="49.77864" lon="4.81938">
        <ele>267</ele>
        <time>2020-10-31T09:23:55.000Z</time>
      </trkpt>
      <trkpt lat="49.77866" lon="4.81942">
        <ele>267</ele>
        <time>2020-10-31T09:23:56.000Z</time>
      </trkpt>
      <trkpt lat="49.77868" lon="4.81947">
        <ele>267</ele>
        <time>2020-10-31T09:23:57.000Z</time>
      </trkpt>
      <trkpt lat="49.7787" lon="4.81951">
        <ele>267</ele>
        <time>2020-10-31T09:23:58.000Z</time>
      </trkpt>
      <trkpt lat="49.77872" lon="4.81955">
        <ele>267</ele>
        <time>2020-10-31T09:23:59.000Z</time>
      </trkpt>
      <trkpt lat="49.77873" lon="4.81959">
        <ele>267</ele>
        <time>2020-10-31T09:24:00.000Z</time>
      </trkpt>
      <trkpt lat="49.77875" lon="4.81963">
        <ele>267</ele>
        <time>2020-10-31T09:24:01.000Z</time>
      </trkpt>
      <trkpt lat="49.77877" lon="4.81967">
        <ele>267</ele>
        <time>2020-10-31T09:24:02.000Z</time>
      </trkpt>
      <trkpt lat="49.77879" lon="4.81972">
        <ele>268</ele>
        <time>2020-10-31T09:24:03.000Z</time>
      </trkpt>
      <trkpt lat="49.77881" lon="4.81976">
        <ele>268</ele>
        <time>2020-10-31T09:24:04.000Z</time>
      </trkpt>
      <trkpt lat="49.77883" lon="4.8198">
        <ele>268</ele>
        <time>2020-10-31T09:24:05.000Z</time>
      </trkpt>
      <trkpt lat="49.77884" lon="4.81984">
        <ele>268</ele>
        <time>2020-10-31T09:24:06.000Z</time>
      </trkpt>
      <trkpt lat="49.77886" lon="4.81987">
        <ele>268</ele>
        <time>2020-10-31T09:24:07.000Z</time>
      </trkpt>
      <trkpt lat="49.77886" lon="4.81991">
        <ele>268</ele>
        <time>2020-10-31T09:24:08.000Z</time>
      </trkpt>
      <trkpt lat="49.77887" lon="4.81993">
        <ele>268</ele>
        <time>2020-10-31T09:24:09.000Z</time>
      </trkpt>
      <trkpt lat="49.77887" lon="4.81996">
        <ele>268</ele>
        <time>2020-10-31T09:24:10.000Z</time>
      </trkpt>
      <trkpt lat="49.77888" lon="4.81999">
        <ele>268</ele>
        <time>2020-10-31T09:24:11.000Z</time>
      </trkpt>
      <trkpt lat="49.7789" lon="4.82002">
        <ele>268</ele>
        <time>2020-10-31T09:24:12.000Z</time>
      </trkpt>
      <trkpt lat="49.77891" lon="4.82005">
        <ele>269</ele>
        <time>2020-10-31T09:24:13.000Z</time>
      </trkpt>
      <trkpt lat="49.77892" lon="4.82007">
        <ele>269</ele>
        <time>2020-10-31T09:24:14.000Z</time>
      </trkpt>
      <trkpt lat="49.77894" lon="4.8201">
        <ele>269</ele>
        <time>2020-10-31T09:24:15.000Z</time>
      </trkpt>
      <trkpt lat="49.77895" lon="4.82013">
        <ele>269</ele>
        <time>2020-10-31T09:24:16.000Z</time>
      </trkpt>
      <trkpt lat="49.77896" lon="4.82015">
        <ele>269</ele>
        <time>2020-10-31T09:24:17.000Z</time>
      </trkpt>
      <trkpt lat="49.77898" lon="4.82018">
        <ele>269</ele>
        <time>2020-10-31T09:24:18.000Z</time>
      </trkpt>
      <trkpt lat="49.779" lon="4.82021">
        <ele>269</ele>
        <time>2020-10-31T09:24:19.000Z</time>
      </trkpt>
      <trkpt lat="49.77901" lon="4.82023">
        <ele>269</ele>
        <time>2020-10-31T09:24:20.000Z</time>
      </trkpt>
      <trkpt lat="49.77903" lon="4.82026">
        <ele>270</ele>
        <time>2020-10-31T09:24:21.000Z</time>
      </trkpt>
      <trkpt lat="49.77904" lon="4.82028">
        <ele>270</ele>
        <time>2020-10-31T09:24:22.000Z</time>
      </trkpt>
      <trkpt lat="49.77905" lon="4.82031">
        <ele>270</ele>
        <time>2020-10-31T09:24:23.000Z</time>
      </trkpt>
      <trkpt lat="49.77906" lon="4.82034">
        <ele>270</ele>
        <time>2020-10-31T09:24:24.000Z</time>
      </trkpt>
      <trkpt lat="49.77907" lon="4.82037">
        <ele>270</ele>
        <time>2020-10-31T09:24:25.000Z</time>
      </trkpt>
      <trkpt lat="49.77908" lon="4.8204">
        <ele>270</ele>
        <time>2020-10-31T09:24:26.000Z</time>
      </trkpt>
      <trkpt lat="49.77907" lon="4.82043">
        <ele>270</ele>
        <time>2020-10-31T09:24:27.000Z</time>
      </trkpt>
      <trkpt lat="49.77907" lon="4.82048">
        <ele>270</ele>
        <time>2020-10-31T09:24:28.000Z</time>
      </trkpt>
      <trkpt lat="49.77907" lon="4.82051">
        <ele>270</ele>
        <time>2020-10-31T09:24:29.000Z</time>
      </trkpt>
      <trkpt lat="49.77906" lon="4.82056">
        <ele>270</ele>
        <time>2020-10-31T09:24:30.000Z</time>
      </trkpt>
      <trkpt lat="49.77904" lon="4.82061">
        <ele>271</ele>
        <time>2020-10-31T09:24:31.000Z</time>
      </trkpt>
      <trkpt lat="49.77903" lon="4.82066">
        <ele>271</ele>
        <time>2020-10-31T09:24:32.000Z</time>
      </trkpt>
      <trkpt lat="49.77902" lon="4.82071">
        <ele>271</ele>
        <time>2020-10-31T09:24:33.000Z</time>
      </trkpt>
      <trkpt lat="49.77901" lon="4.82075">
        <ele>271</ele>
        <time>2020-10-31T09:24:34.000Z</time>
      </trkpt>
      <trkpt lat="49.77901" lon="4.82079">
        <ele>271</ele>
        <time>2020-10-31T09:24:35.000Z</time>
      </trkpt>
      <trkpt lat="49.77901" lon="4.82083">
        <ele>272</ele>
        <time>2020-10-31T09:24:36.000Z</time>
      </trkpt>
      <trkpt lat="49.779" lon="4.82086">
        <ele>272</ele>
        <time>2020-10-31T09:24:37.000Z</time>
      </trkpt>
      <trkpt lat="49.77898" lon="4.82089">
        <ele>272</ele>
        <time>2020-10-31T09:24:38.000Z</time>
      </trkpt>
      <trkpt lat="49.77897" lon="4.82092">
        <ele>272</ele>
        <time>2020-10-31T09:24:39.000Z</time>
      </trkpt>
      <trkpt lat="49.77896" lon="4.82096">
        <ele>273</ele>
        <time>2020-10-31T09:24:40.000Z</time>
      </trkpt>
      <trkpt lat="49.77895" lon="4.82101">
        <ele>273</ele>
        <time>2020-10-31T09:24:41.000Z</time>
      </trkpt>
      <trkpt lat="49.77895" lon="4.82106">
        <ele>273</ele>
        <time>2020-10-31T09:24:42.000Z</time>
      </trkpt>
      <trkpt lat="49.77894" lon="4.82111">
        <ele>273</ele>
        <time>2020-10-31T09:24:43.000Z</time>
      </trkpt>
      <trkpt lat="49.77893" lon="4.82117">
        <ele>274</ele>
        <time>2020-10-31T09:24:44.000Z</time>
      </trkpt>
      <trkpt lat="49.77892" lon="4.82124">
        <ele>274</ele>
        <time>2020-10-31T09:24:45.000Z</time>
      </trkpt>
      <trkpt lat="49.77891" lon="4.82131">
        <ele>274</ele>
        <time>2020-10-31T09:24:46.000Z</time>
      </trkpt>
      <trkpt lat="49.7789" lon="4.82137">
        <ele>274</ele>
        <time>2020-10-31T09:24:47.000Z</time>
      </trkpt>
      <trkpt lat="49.77889" lon="4.82143">
        <ele>275</ele>
        <time>2020-10-31T09:24:48.000Z</time>
      </trkpt>
      <trkpt lat="49.77888" lon="4.8215">
        <ele>275</ele>
        <time>2020-10-31T09:24:49.000Z</time>
      </trkpt>
      <trkpt lat="49.77887" lon="4.82156">
        <ele>275</ele>
        <time>2020-10-31T09:24:50.000Z</time>
      </trkpt>
      <trkpt lat="49.77886" lon="4.82162">
        <ele>275</ele>
        <time>2020-10-31T09:24:51.000Z</time>
      </trkpt>
      <trkpt lat="49.77885" lon="4.82169">
        <ele>275</ele>
        <time>2020-10-31T09:24:52.000Z</time>
      </trkpt>
      <trkpt lat="49.77883" lon="4.82176">
        <ele>275</ele>
        <time>2020-10-31T09:24:53.000Z</time>
      </trkpt>
      <trkpt lat="49.77882" lon="4.82183">
        <ele>275</ele>
        <time>2020-10-31T09:24:54.000Z</time>
      </trkpt>
      <trkpt lat="49.77881" lon="4.8219">
        <ele>275</ele>
        <time>2020-10-31T09:24:55.000Z</time>
      </trkpt>
      <trkpt lat="49.7788" lon="4.82197">
        <ele>275</ele>
        <time>2020-10-31T09:24:56.000Z</time>
      </trkpt>
      <trkpt lat="49.77878" lon="4.82204">
        <ele>275</ele>
        <time>2020-10-31T09:24:57.000Z</time>
      </trkpt>
      <trkpt lat="49.77877" lon="4.82211">
        <ele>274</ele>
        <time>2020-10-31T09:24:58.000Z</time>
      </trkpt>
      <trkpt lat="49.77876" lon="4.82218">
        <ele>274</ele>
        <time>2020-10-31T09:24:59.000Z</time>
      </trkpt>
      <trkpt lat="49.77875" lon="4.82225">
        <ele>274</ele>
        <time>2020-10-31T09:25:00.000Z</time>
      </trkpt>
      <trkpt lat="49.77873" lon="4.82232">
        <ele>274</ele>
        <time>2020-10-31T09:25:01.000Z</time>
      </trkpt>
      <trkpt lat="49.77873" lon="4.82239">
        <ele>274</ele>
        <time>2020-10-31T09:25:02.000Z</time>
      </trkpt>
      <trkpt lat="49.77871" lon="4.82244">
        <ele>274</ele>
        <time>2020-10-31T09:25:03.000Z</time>
      </trkpt>
      <trkpt lat="49.77871" lon="4.8225">
        <ele>274</ele>
        <time>2020-10-31T09:25:04.000Z</time>
      </trkpt>
      <trkpt lat="49.7787" lon="4.82257">
        <ele>274</ele>
        <time>2020-10-31T09:25:05.000Z</time>
      </trkpt>
      <trkpt lat="49.77869" lon="4.82262">
        <ele>274</ele>
        <time>2020-10-31T09:25:06.000Z</time>
      </trkpt>
      <trkpt lat="49.77868" lon="4.82268">
        <ele>274</ele>
        <time>2020-10-31T09:25:07.000Z</time>
      </trkpt>
      <trkpt lat="49.77867" lon="4.82273">
        <ele>274</ele>
        <time>2020-10-31T09:25:08.000Z</time>
      </trkpt>
      <trkpt lat="49.77867" lon="4.82279">
        <ele>274</ele>
        <time>2020-10-31T09:25:09.000Z</time>
      </trkpt>
      <trkpt lat="49.77866" lon="4.82284">
        <ele>274</ele>
        <time>2020-10-31T09:25:10.000Z</time>
      </trkpt>
      <trkpt lat="49.77866" lon="4.8229">
        <ele>274</ele>
        <time>2020-10-31T09:25:11.000Z</time>
      </trkpt>
      <trkpt lat="49.77865" lon="4.82295">
        <ele>274</ele>
        <time>2020-10-31T09:25:12.000Z</time>
      </trkpt>
      <trkpt lat="49.77865" lon="4.823">
        <ele>274</ele>
        <time>2020-10-31T09:25:13.000Z</time>
      </trkpt>
      <trkpt lat="49.77864" lon="4.82305">
        <ele>274</ele>
        <time>2020-10-31T09:25:14.000Z</time>
      </trkpt>
      <trkpt lat="49.77865" lon="4.8231">
        <ele>274</ele>
        <time>2020-10-31T09:25:15.000Z</time>
      </trkpt>
      <trkpt lat="49.77864" lon="4.82315">
        <ele>274</ele>
        <time>2020-10-31T09:25:16.000Z</time>
      </trkpt>
      <trkpt lat="49.77864" lon="4.8232">
        <ele>274</ele>
        <time>2020-10-31T09:25:17.000Z</time>
      </trkpt>
      <trkpt lat="49.77864" lon="4.82325">
        <ele>274</ele>
        <time>2020-10-31T09:25:18.000Z</time>
      </trkpt>
      <trkpt lat="49.77863" lon="4.8233">
        <ele>274</ele>
        <time>2020-10-31T09:25:19.000Z</time>
      </trkpt>
      <trkpt lat="49.77863" lon="4.82335">
        <ele>274</ele>
        <time>2020-10-31T09:25:20.000Z</time>
      </trkpt>
      <trkpt lat="49.77864" lon="4.8234">
        <ele>274</ele>
        <time>2020-10-31T09:25:21.000Z</time>
      </trkpt>
      <trkpt lat="49.77864" lon="4.82344">
        <ele>274</ele>
        <time>2020-10-31T09:25:22.000Z</time>
      </trkpt>
      <trkpt lat="49.77865" lon="4.8235">
        <ele>274</ele>
        <time>2020-10-31T09:25:23.000Z</time>
      </trkpt>
      <trkpt lat="49.77865" lon="4.82355">
        <ele>274</ele>
        <time>2020-10-31T09:25:24.000Z</time>
      </trkpt>
      <trkpt lat="49.77865" lon="4.8236">
        <ele>274</ele>
        <time>2020-10-31T09:25:25.000Z</time>
      </trkpt>
      <trkpt lat="49.77865" lon="4.82363">
        <ele>274</ele>
        <time>2020-10-31T09:25:26.000Z</time>
      </trkpt>
      <trkpt lat="49.77865" lon="4.82365">
        <ele>274</ele>
        <time>2020-10-31T09:25:27.000Z</time>
      </trkpt>
      <trkpt lat="49.77865" lon="4.82366">
        <ele>274</ele>
        <time>2020-10-31T09:25:28.000Z</time>
      </trkpt>
      <trkpt lat="49.77866" lon="4.82366">
        <ele>274</ele>
        <time>2020-10-31T09:25:29.000Z</time>
      </trkpt>
      <trkpt lat="49.77866" lon="4.82367">
        <ele>274</ele>
        <time>2020-10-31T09:25:30.000Z</time>
      </trkpt>
      <trkpt lat="49.77866" lon="4.82367">
        <ele>274</ele>
        <time>2020-10-31T09:25:31.000Z</time>
      </trkpt>
      <trkpt lat="49.77866" lon="4.82367">
        <ele>274</ele>
        <time>2020-10-31T09:25:32.000Z</time>
      </trkpt>
      <trkpt lat="49.77866" lon="4.82368">
        <ele>274</ele>
        <time>2020-10-31T09:25:33.000Z</time>
      </trkpt>
      <trkpt lat="49.77866" lon="4.82369">
        <ele>275</ele>
        <time>2020-10-31T09:25:34.000Z</time>
      </trkpt>
      <trkpt lat="49.77867" lon="4.82369">
        <ele>275</ele>
        <time>2020-10-31T09:25:35.000Z</time>
      </trkpt>
      <trkpt lat="49.77867" lon="4.8237">
        <ele>275</ele>
        <time>2020-10-31T09:25:36.000Z</time>
      </trkpt>
      <trkpt lat="49.77867" lon="4.8237">
        <ele>275</ele>
        <time>2020-10-31T09:25:37.000Z</time>
      </trkpt>
      <trkpt lat="49.77867" lon="4.82371">
        <ele>275</ele>
        <time>2020-10-31T09:25:38.000Z</time>
      </trkpt>
      <trkpt lat="49.77867" lon="4.82371">
        <ele>275</ele>
        <time>2020-10-31T09:25:39.000Z</time>
      </trkpt>
      <trkpt lat="49.77867" lon="4.82373">
        <ele>275</ele>
        <time>2020-10-31T09:25:40.000Z</time>
      </trkpt>
      <trkpt lat="49.77867" lon="4.82374">
        <ele>276</ele>
        <time>2020-10-31T09:25:41.000Z</time>
      </trkpt>
      <trkpt lat="49.77867" lon="4.82374">
        <ele>276</ele>
        <time>2020-10-31T09:25:42.000Z</time>
      </trkpt>
      <trkpt lat="49.77867" lon="4.82375">
        <ele>276</ele>
        <time>2020-10-31T09:25:43.000Z</time>
      </trkpt>
      <trkpt lat="49.77868" lon="4.82376">
        <ele>276</ele>
        <time>2020-10-31T09:25:44.000Z</time>
      </trkpt>
      <trkpt lat="49.77868" lon="4.82376">
        <ele>276</ele>
        <time>2020-10-31T09:25:45.000Z</time>
      </trkpt>
      <trkpt lat="49.77868" lon="4.82377">
        <ele>276</ele>
        <time>2020-10-31T09:25:46.000Z</time>
      </trkpt>
      <trkpt lat="49.77868" lon="4.82377">
        <ele>276</ele>
        <time>2020-10-31T09:25:47.000Z</time>
      </trkpt>
      <trkpt lat="49.77868" lon="4.82377">
        <ele>275</ele>
        <time>2020-10-31T09:25:48.000Z</time>
      </trkpt>
      <trkpt lat="49.77868" lon="4.82378">
        <ele>275</ele>
        <time>2020-10-31T09:25:49.000Z</time>
      </trkpt>
      <trkpt lat="49.77868" lon="4.82378">
        <ele>275</ele>
        <time>2020-10-31T09:25:50.000Z</time>
      </trkpt>
      <trkpt lat="49.77868" lon="4.82378">
        <ele>275</ele>
        <time>2020-10-31T09:25:51.000Z</time>
      </trkpt>
      <trkpt lat="49.77868" lon="4.82379">
        <ele>275</ele>
        <time>2020-10-31T09:25:52.000Z</time>
      </trkpt>
      <trkpt lat="49.77868" lon="4.82379">
        <ele>275</ele>
        <time>2020-10-31T09:25:53.000Z</time>
      </trkpt>
      <trkpt lat="49.77869" lon="4.8238">
        <ele>275</ele>
        <time>2020-10-31T09:25:54.000Z</time>
      </trkpt>
      <trkpt lat="49.77869" lon="4.82382">
        <ele>275</ele>
        <time>2020-10-31T09:25:55.000Z</time>
      </trkpt>
      <trkpt lat="49.77869" lon="4.82386">
        <ele>275</ele>
        <time>2020-10-31T09:25:56.000Z</time>
      </trkpt>
      <trkpt lat="49.77868" lon="4.82391">
        <ele>275</ele>
        <time>2020-10-31T09:25:57.000Z</time>
      </trkpt>
      <trkpt lat="49.77868" lon="4.82396">
        <ele>275</ele>
        <time>2020-10-31T09:25:58.000Z</time>
      </trkpt>
      <trkpt lat="49.77868" lon="4.82401">
        <ele>275</ele>
        <time>2020-10-31T09:25:59.000Z</time>
      </trkpt>
      <trkpt lat="49.77867" lon="4.82406">
        <ele>275</ele>
        <time>2020-10-31T09:26:00.000Z</time>
      </trkpt>
      <trkpt lat="49.77867" lon="4.82412">
        <ele>275</ele>
        <time>2020-10-31T09:26:01.000Z</time>
      </trkpt>
      <trkpt lat="49.77866" lon="4.82417">
        <ele>275</ele>
        <time>2020-10-31T09:26:02.000Z</time>
      </trkpt>
      <trkpt lat="49.77865" lon="4.82423">
        <ele>274</ele>
        <time>2020-10-31T09:26:03.000Z</time>
      </trkpt>
      <trkpt lat="49.77864" lon="4.82429">
        <ele>274</ele>
        <time>2020-10-31T09:26:04.000Z</time>
      </trkpt>
      <trkpt lat="49.77864" lon="4.82435">
        <ele>275</ele>
        <time>2020-10-31T09:26:05.000Z</time>
      </trkpt>
      <trkpt lat="49.77863" lon="4.82442">
        <ele>275</ele>
        <time>2020-10-31T09:26:06.000Z</time>
      </trkpt>
      <trkpt lat="49.77863" lon="4.82448">
        <ele>275</ele>
        <time>2020-10-31T09:26:07.000Z</time>
      </trkpt>
      <trkpt lat="49.77863" lon="4.82455">
        <ele>275</ele>
        <time>2020-10-31T09:26:08.000Z</time>
      </trkpt>
      <trkpt lat="49.77863" lon="4.82462">
        <ele>275</ele>
        <time>2020-10-31T09:26:09.000Z</time>
      </trkpt>
      <trkpt lat="49.77862" lon="4.82468">
        <ele>275</ele>
        <time>2020-10-31T09:26:10.000Z</time>
      </trkpt>
      <trkpt lat="49.77861" lon="4.82474">
        <ele>275</ele>
        <time>2020-10-31T09:26:11.000Z</time>
      </trkpt>
      <trkpt lat="49.7786" lon="4.82481">
        <ele>275</ele>
        <time>2020-10-31T09:26:12.000Z</time>
      </trkpt>
      <trkpt lat="49.77858" lon="4.82487">
        <ele>275</ele>
        <time>2020-10-31T09:26:13.000Z</time>
      </trkpt>
      <trkpt lat="49.77858" lon="4.82494">
        <ele>275</ele>
        <time>2020-10-31T09:26:14.000Z</time>
      </trkpt>
      <trkpt lat="49.77857" lon="4.82501">
        <ele>275</ele>
        <time>2020-10-31T09:26:15.000Z</time>
      </trkpt>
      <trkpt lat="49.77856" lon="4.82508">
        <ele>275</ele>
        <time>2020-10-31T09:26:16.000Z</time>
      </trkpt>
      <trkpt lat="49.77855" lon="4.82515">
        <ele>275</ele>
        <time>2020-10-31T09:26:17.000Z</time>
      </trkpt>
      <trkpt lat="49.77855" lon="4.82522">
        <ele>275</ele>
        <time>2020-10-31T09:26:18.000Z</time>
      </trkpt>
      <trkpt lat="49.77854" lon="4.82529">
        <ele>275</ele>
        <time>2020-10-31T09:26:19.000Z</time>
      </trkpt>
      <trkpt lat="49.77852" lon="4.82535">
        <ele>275</ele>
        <time>2020-10-31T09:26:20.000Z</time>
      </trkpt>
      <trkpt lat="49.77851" lon="4.8254">
        <ele>275</ele>
        <time>2020-10-31T09:26:21.000Z</time>
      </trkpt>
      <trkpt lat="49.7785" lon="4.82546">
        <ele>275</ele>
        <time>2020-10-31T09:26:22.000Z</time>
      </trkpt>
      <trkpt lat="49.7785" lon="4.82551">
        <ele>275</ele>
        <time>2020-10-31T09:26:23.000Z</time>
      </trkpt>
      <trkpt lat="49.7785" lon="4.82556">
        <ele>276</ele>
        <time>2020-10-31T09:26:24.000Z</time>
      </trkpt>
      <trkpt lat="49.77849" lon="4.82561">
        <ele>276</ele>
        <time>2020-10-31T09:26:25.000Z</time>
      </trkpt>
      <trkpt lat="49.77849" lon="4.82567">
        <ele>276</ele>
        <time>2020-10-31T09:26:26.000Z</time>
      </trkpt>
      <trkpt lat="49.77848" lon="4.82574">
        <ele>276</ele>
        <time>2020-10-31T09:26:27.000Z</time>
      </trkpt>
      <trkpt lat="49.77847" lon="4.8258">
        <ele>276</ele>
        <time>2020-10-31T09:26:28.000Z</time>
      </trkpt>
      <trkpt lat="49.77847" lon="4.82585">
        <ele>276</ele>
        <time>2020-10-31T09:26:29.000Z</time>
      </trkpt>
      <trkpt lat="49.77846" lon="4.82589">
        <ele>276</ele>
        <time>2020-10-31T09:26:30.000Z</time>
      </trkpt>
      <trkpt lat="49.77845" lon="4.82592">
        <ele>276</ele>
        <time>2020-10-31T09:26:31.000Z</time>
      </trkpt>
      <trkpt lat="49.77844" lon="4.82596">
        <ele>276</ele>
        <time>2020-10-31T09:26:32.000Z</time>
      </trkpt>
      <trkpt lat="49.77842" lon="4.826">
        <ele>277</ele>
        <time>2020-10-31T09:26:33.000Z</time>
      </trkpt>
      <trkpt lat="49.7784" lon="4.82603">
        <ele>277</ele>
        <time>2020-10-31T09:26:34.000Z</time>
      </trkpt>
      <trkpt lat="49.77838" lon="4.82607">
        <ele>276</ele>
        <time>2020-10-31T09:26:35.000Z</time>
      </trkpt>
      <trkpt lat="49.77836" lon="4.8261">
        <ele>276</ele>
        <time>2020-10-31T09:26:36.000Z</time>
      </trkpt>
      <trkpt lat="49.77833" lon="4.82613">
        <ele>276</ele>
        <time>2020-10-31T09:26:37.000Z</time>
      </trkpt>
      <trkpt lat="49.7783" lon="4.82615">
        <ele>276</ele>
        <time>2020-10-31T09:26:38.000Z</time>
      </trkpt>
      <trkpt lat="49.77828" lon="4.82617">
        <ele>276</ele>
        <time>2020-10-31T09:26:39.000Z</time>
      </trkpt>
      <trkpt lat="49.77824" lon="4.82618">
        <ele>276</ele>
        <time>2020-10-31T09:26:40.000Z</time>
      </trkpt>
      <trkpt lat="49.7782" lon="4.82619">
        <ele>276</ele>
        <time>2020-10-31T09:26:41.000Z</time>
      </trkpt>
      <trkpt lat="49.77816" lon="4.82619">
        <ele>276</ele>
        <time>2020-10-31T09:26:42.000Z</time>
      </trkpt>
      <trkpt lat="49.77812" lon="4.82619">
        <ele>276</ele>
        <time>2020-10-31T09:26:43.000Z</time>
      </trkpt>
      <trkpt lat="49.77809" lon="4.8262">
        <ele>276</ele>
        <time>2020-10-31T09:26:44.000Z</time>
      </trkpt>
      <trkpt lat="49.77807" lon="4.8262">
        <ele>277</ele>
        <time>2020-10-31T09:26:45.000Z</time>
      </trkpt>
      <trkpt lat="49.77806" lon="4.82619">
        <ele>277</ele>
        <time>2020-10-31T09:26:46.000Z</time>
      </trkpt>
      <trkpt lat="49.77804" lon="4.82619">
        <ele>277</ele>
        <time>2020-10-31T09:26:47.000Z</time>
      </trkpt>
      <trkpt lat="49.77804" lon="4.8262">
        <ele>277</ele>
        <time>2020-10-31T09:26:48.000Z</time>
      </trkpt>
      <trkpt lat="49.77803" lon="4.82621">
        <ele>277</ele>
        <time>2020-10-31T09:26:49.000Z</time>
      </trkpt>
      <trkpt lat="49.77803" lon="4.82623">
        <ele>277</ele>
        <time>2020-10-31T09:26:50.000Z</time>
      </trkpt>
      <trkpt lat="49.77804" lon="4.82624">
        <ele>277</ele>
        <time>2020-10-31T09:26:51.000Z</time>
      </trkpt>
      <trkpt lat="49.77805" lon="4.82623">
        <ele>277</ele>
        <time>2020-10-31T09:26:52.000Z</time>
      </trkpt>
      <trkpt lat="49.77806" lon="4.82622">
        <ele>277</ele>
        <time>2020-10-31T09:26:53.000Z</time>
      </trkpt>
      <trkpt lat="49.77808" lon="4.82622">
        <ele>277</ele>
        <time>2020-10-31T09:26:54.000Z</time>
      </trkpt>
      <trkpt lat="49.77811" lon="4.82622">
        <ele>277</ele>
        <time>2020-10-31T09:26:55.000Z</time>
      </trkpt>
      <trkpt lat="49.77813" lon="4.82622">
        <ele>276</ele>
        <time>2020-10-31T09:26:56.000Z</time>
      </trkpt>
      <trkpt lat="49.77816" lon="4.82623">
        <ele>276</ele>
        <time>2020-10-31T09:26:57.000Z</time>
      </trkpt>
      <trkpt lat="49.77819" lon="4.82624">
        <ele>276</ele>
        <time>2020-10-31T09:26:58.000Z</time>
      </trkpt>
      <trkpt lat="49.77821" lon="4.82625">
        <ele>276</ele>
        <time>2020-10-31T09:26:59.000Z</time>
      </trkpt>
      <trkpt lat="49.77823" lon="4.82627">
        <ele>276</ele>
        <time>2020-10-31T09:27:00.000Z</time>
      </trkpt>
      <trkpt lat="49.77824" lon="4.82629">
        <ele>276</ele>
        <time>2020-10-31T09:27:01.000Z</time>
      </trkpt>
      <trkpt lat="49.77826" lon="4.82631">
        <ele>276</ele>
        <time>2020-10-31T09:27:02.000Z</time>
      </trkpt>
      <trkpt lat="49.77828" lon="4.82634">
        <ele>276</ele>
        <time>2020-10-31T09:27:03.000Z</time>
      </trkpt>
      <trkpt lat="49.7783" lon="4.82636">
        <ele>276</ele>
        <time>2020-10-31T09:27:04.000Z</time>
      </trkpt>
      <trkpt lat="49.77832" lon="4.82638">
        <ele>277</ele>
        <time>2020-10-31T09:27:05.000Z</time>
      </trkpt>
      <trkpt lat="49.77834" lon="4.82641">
        <ele>277</ele>
        <time>2020-10-31T09:27:06.000Z</time>
      </trkpt>
      <trkpt lat="49.77836" lon="4.82644">
        <ele>277</ele>
        <time>2020-10-31T09:27:07.000Z</time>
      </trkpt>
      <trkpt lat="49.77838" lon="4.82649">
        <ele>277</ele>
        <time>2020-10-31T09:27:08.000Z</time>
      </trkpt>
      <trkpt lat="49.7784" lon="4.82655">
        <ele>277</ele>
        <time>2020-10-31T09:27:09.000Z</time>
      </trkpt>
      <trkpt lat="49.77842" lon="4.82661">
        <ele>277</ele>
        <time>2020-10-31T09:27:10.000Z</time>
      </trkpt>
      <trkpt lat="49.77843" lon="4.82666">
        <ele>276</ele>
        <time>2020-10-31T09:27:11.000Z</time>
      </trkpt>
      <trkpt lat="49.77845" lon="4.82672">
        <ele>276</ele>
        <time>2020-10-31T09:27:12.000Z</time>
      </trkpt>
      <trkpt lat="49.77847" lon="4.82677">
        <ele>276</ele>
        <time>2020-10-31T09:27:13.000Z</time>
      </trkpt>
      <trkpt lat="49.77849" lon="4.82683">
        <ele>276</ele>
        <time>2020-10-31T09:27:14.000Z</time>
      </trkpt>
      <trkpt lat="49.77851" lon="4.82688">
        <ele>276</ele>
        <time>2020-10-31T09:27:15.000Z</time>
      </trkpt>
      <trkpt lat="49.77853" lon="4.82692">
        <ele>276</ele>
        <time>2020-10-31T09:27:16.000Z</time>
      </trkpt>
      <trkpt lat="49.77855" lon="4.82697">
        <ele>276</ele>
        <time>2020-10-31T09:27:17.000Z</time>
      </trkpt>
      <trkpt lat="49.77857" lon="4.82702">
        <ele>276</ele>
        <time>2020-10-31T09:27:18.000Z</time>
      </trkpt>
      <trkpt lat="49.77859" lon="4.82707">
        <ele>276</ele>
        <time>2020-10-31T09:27:19.000Z</time>
      </trkpt>
      <trkpt lat="49.77861" lon="4.82712">
        <ele>276</ele>
        <time>2020-10-31T09:27:20.000Z</time>
      </trkpt>
      <trkpt lat="49.77863" lon="4.82717">
        <ele>276</ele>
        <time>2020-10-31T09:27:21.000Z</time>
      </trkpt>
      <trkpt lat="49.77865" lon="4.82722">
        <ele>276</ele>
        <time>2020-10-31T09:27:22.000Z</time>
      </trkpt>
      <trkpt lat="49.77867" lon="4.82727">
        <ele>276</ele>
        <time>2020-10-31T09:27:23.000Z</time>
      </trkpt>
      <trkpt lat="49.7787" lon="4.82732">
        <ele>276</ele>
        <time>2020-10-31T09:27:24.000Z</time>
      </trkpt>
      <trkpt lat="49.77872" lon="4.82737">
        <ele>276</ele>
        <time>2020-10-31T09:27:25.000Z</time>
      </trkpt>
      <trkpt lat="49.77874" lon="4.82741">
        <ele>276</ele>
        <time>2020-10-31T09:27:26.000Z</time>
      </trkpt>
      <trkpt lat="49.77876" lon="4.82746">
        <ele>276</ele>
        <time>2020-10-31T09:27:27.000Z</time>
      </trkpt>
      <trkpt lat="49.77879" lon="4.82752">
        <ele>276</ele>
        <time>2020-10-31T09:27:28.000Z</time>
      </trkpt>
      <trkpt lat="49.77881" lon="4.82757">
        <ele>276</ele>
        <time>2020-10-31T09:27:29.000Z</time>
      </trkpt>
      <trkpt lat="49.77884" lon="4.82762">
        <ele>276</ele>
        <time>2020-10-31T09:27:30.000Z</time>
      </trkpt>
      <trkpt lat="49.77886" lon="4.82768">
        <ele>276</ele>
        <time>2020-10-31T09:27:31.000Z</time>
      </trkpt>
      <trkpt lat="49.77888" lon="4.82773">
        <ele>276</ele>
        <time>2020-10-31T09:27:32.000Z</time>
      </trkpt>
      <trkpt lat="49.7789" lon="4.82779">
        <ele>276</ele>
        <time>2020-10-31T09:27:33.000Z</time>
      </trkpt>
      <trkpt lat="49.77893" lon="4.82784">
        <ele>276</ele>
        <time>2020-10-31T09:27:34.000Z</time>
      </trkpt>
      <trkpt lat="49.77895" lon="4.82789">
        <ele>276</ele>
        <time>2020-10-31T09:27:35.000Z</time>
      </trkpt>
      <trkpt lat="49.77897" lon="4.82792">
        <ele>276</ele>
        <time>2020-10-31T09:27:36.000Z</time>
      </trkpt>
      <trkpt lat="49.77898" lon="4.82794">
        <ele>276</ele>
        <time>2020-10-31T09:27:37.000Z</time>
      </trkpt>
      <trkpt lat="49.77899" lon="4.82795">
        <ele>275</ele>
        <time>2020-10-31T09:27:38.000Z</time>
      </trkpt>
      <trkpt lat="49.779" lon="4.82795">
        <ele>275</ele>
        <time>2020-10-31T09:27:39.000Z</time>
      </trkpt>
      <trkpt lat="49.77901" lon="4.82795">
        <ele>275</ele>
        <time>2020-10-31T09:27:40.000Z</time>
      </trkpt>
      <trkpt lat="49.77902" lon="4.82794">
        <ele>275</ele>
        <time>2020-10-31T09:27:41.000Z</time>
      </trkpt>
      <trkpt lat="49.77904" lon="4.82793">
        <ele>275</ele>
        <time>2020-10-31T09:27:42.000Z</time>
      </trkpt>
      <trkpt lat="49.77906" lon="4.82792">
        <ele>275</ele>
        <time>2020-10-31T09:27:43.000Z</time>
      </trkpt>
      <trkpt lat="49.77908" lon="4.82791">
        <ele>275</ele>
        <time>2020-10-31T09:27:44.000Z</time>
      </trkpt>
      <trkpt lat="49.7791" lon="4.8279">
        <ele>275</ele>
        <time>2020-10-31T09:27:45.000Z</time>
      </trkpt>
      <trkpt lat="49.77912" lon="4.82789">
        <ele>275</ele>
        <time>2020-10-31T09:27:46.000Z</time>
      </trkpt>
      <trkpt lat="49.77914" lon="4.82788">
        <ele>275</ele>
        <time>2020-10-31T09:27:47.000Z</time>
      </trkpt>
      <trkpt lat="49.77916" lon="4.82787">
        <ele>275</ele>
        <time>2020-10-31T09:27:48.000Z</time>
      </trkpt>
      <trkpt lat="49.77918" lon="4.82786">
        <ele>275</ele>
        <time>2020-10-31T09:27:49.000Z</time>
      </trkpt>
      <trkpt lat="49.7792" lon="4.82785">
        <ele>275</ele>
        <time>2020-10-31T09:27:50.000Z</time>
      </trkpt>
      <trkpt lat="49.77921" lon="4.82783">
        <ele>275</ele>
        <time>2020-10-31T09:27:51.000Z</time>
      </trkpt>
      <trkpt lat="49.77923" lon="4.82781">
        <ele>275</ele>
        <time>2020-10-31T09:27:52.000Z</time>
      </trkpt>
      <trkpt lat="49.77925" lon="4.82779">
        <ele>275</ele>
        <time>2020-10-31T09:27:53.000Z</time>
      </trkpt>
      <trkpt lat="49.77927" lon="4.82777">
        <ele>275</ele>
        <time>2020-10-31T09:27:54.000Z</time>
      </trkpt>
      <trkpt lat="49.77929" lon="4.82776">
        <ele>275</ele>
        <time>2020-10-31T09:27:55.000Z</time>
      </trkpt>
      <trkpt lat="49.77931" lon="4.82774">
        <ele>275</ele>
        <time>2020-10-31T09:27:56.000Z</time>
      </trkpt>
      <trkpt lat="49.77933" lon="4.82772">
        <ele>275</ele>
        <time>2020-10-31T09:27:57.000Z</time>
      </trkpt>
      <trkpt lat="49.77935" lon="4.8277">
        <ele>276</ele>
        <time>2020-10-31T09:27:58.000Z</time>
      </trkpt>
      <trkpt lat="49.77937" lon="4.82768">
        <ele>276</ele>
        <time>2020-10-31T09:27:59.000Z</time>
      </trkpt>
      <trkpt lat="49.77939" lon="4.82766">
        <ele>276</ele>
        <time>2020-10-31T09:28:00.000Z</time>
      </trkpt>
      <trkpt lat="49.77941" lon="4.82764">
        <ele>276</ele>
        <time>2020-10-31T09:28:01.000Z</time>
      </trkpt>
      <trkpt lat="49.77943" lon="4.82762">
        <ele>276</ele>
        <time>2020-10-31T09:28:02.000Z</time>
      </trkpt>
      <trkpt lat="49.77944" lon="4.82759">
        <ele>277</ele>
        <time>2020-10-31T09:28:03.000Z</time>
      </trkpt>
      <trkpt lat="49.77946" lon="4.82757">
        <ele>277</ele>
        <time>2020-10-31T09:28:04.000Z</time>
      </trkpt>
      <trkpt lat="49.77949" lon="4.82753">
        <ele>277</ele>
        <time>2020-10-31T09:28:05.000Z</time>
      </trkpt>
      <trkpt lat="49.77951" lon="4.82751">
        <ele>278</ele>
        <time>2020-10-31T09:28:06.000Z</time>
      </trkpt>
      <trkpt lat="49.77954" lon="4.82748">
        <ele>278</ele>
        <time>2020-10-31T09:28:07.000Z</time>
      </trkpt>
      <trkpt lat="49.77956" lon="4.82746">
        <ele>278</ele>
        <time>2020-10-31T09:28:08.000Z</time>
      </trkpt>
      <trkpt lat="49.77958" lon="4.82744">
        <ele>278</ele>
        <time>2020-10-31T09:28:09.000Z</time>
      </trkpt>
      <trkpt lat="49.77961" lon="4.82742">
        <ele>279</ele>
        <time>2020-10-31T09:28:10.000Z</time>
      </trkpt>
      <trkpt lat="49.77963" lon="4.82739">
        <ele>279</ele>
        <time>2020-10-31T09:28:11.000Z</time>
      </trkpt>
      <trkpt lat="49.77966" lon="4.82737">
        <ele>279</ele>
        <time>2020-10-31T09:28:12.000Z</time>
      </trkpt>
      <trkpt lat="49.77968" lon="4.82735">
        <ele>280</ele>
        <time>2020-10-31T09:28:13.000Z</time>
      </trkpt>
      <trkpt lat="49.7797" lon="4.82733">
        <ele>280</ele>
        <time>2020-10-31T09:28:14.000Z</time>
      </trkpt>
      <trkpt lat="49.77973" lon="4.8273">
        <ele>280</ele>
        <time>2020-10-31T09:28:15.000Z</time>
      </trkpt>
      <trkpt lat="49.77975" lon="4.82727">
        <ele>280</ele>
        <time>2020-10-31T09:28:16.000Z</time>
      </trkpt>
      <trkpt lat="49.77978" lon="4.82724">
        <ele>281</ele>
        <time>2020-10-31T09:28:17.000Z</time>
      </trkpt>
      <trkpt lat="49.7798" lon="4.82722">
        <ele>281</ele>
        <time>2020-10-31T09:28:18.000Z</time>
      </trkpt>
      <trkpt lat="49.77983" lon="4.82719">
        <ele>281</ele>
        <time>2020-10-31T09:28:19.000Z</time>
      </trkpt>
      <trkpt lat="49.77985" lon="4.82716">
        <ele>281</ele>
        <time>2020-10-31T09:28:20.000Z</time>
      </trkpt>
      <trkpt lat="49.77988" lon="4.82713">
        <ele>281</ele>
        <time>2020-10-31T09:28:21.000Z</time>
      </trkpt>
      <trkpt lat="49.7799" lon="4.82711">
        <ele>281</ele>
        <time>2020-10-31T09:28:22.000Z</time>
      </trkpt>
      <trkpt lat="49.77993" lon="4.82708">
        <ele>282</ele>
        <time>2020-10-31T09:28:23.000Z</time>
      </trkpt>
      <trkpt lat="49.77995" lon="4.82705">
        <ele>282</ele>
        <time>2020-10-31T09:28:24.000Z</time>
      </trkpt>
      <trkpt lat="49.77997" lon="4.82702">
        <ele>282</ele>
        <time>2020-10-31T09:28:25.000Z</time>
      </trkpt>
      <trkpt lat="49.77999" lon="4.82699">
        <ele>282</ele>
        <time>2020-10-31T09:28:26.000Z</time>
      </trkpt>
      <trkpt lat="49.78001" lon="4.82696">
        <ele>282</ele>
        <time>2020-10-31T09:28:27.000Z</time>
      </trkpt>
      <trkpt lat="49.78004" lon="4.82694">
        <ele>282</ele>
        <time>2020-10-31T09:28:28.000Z</time>
      </trkpt>
      <trkpt lat="49.78006" lon="4.82691">
        <ele>283</ele>
        <time>2020-10-31T09:28:29.000Z</time>
      </trkpt>
      <trkpt lat="49.78008" lon="4.82688">
        <ele>283</ele>
        <time>2020-10-31T09:28:30.000Z</time>
      </trkpt>
      <trkpt lat="49.78011" lon="4.82685">
        <ele>283</ele>
        <time>2020-10-31T09:28:31.000Z</time>
      </trkpt>
      <trkpt lat="49.78014" lon="4.82682">
        <ele>283</ele>
        <time>2020-10-31T09:28:32.000Z</time>
      </trkpt>
      <trkpt lat="49.78017" lon="4.82678">
        <ele>283</ele>
        <time>2020-10-31T09:28:33.000Z</time>
      </trkpt>
      <trkpt lat="49.7802" lon="4.82675">
        <ele>284</ele>
        <time>2020-10-31T09:28:34.000Z</time>
      </trkpt>
      <trkpt lat="49.78023" lon="4.82672">
        <ele>284</ele>
        <time>2020-10-31T09:28:35.000Z</time>
      </trkpt>
      <trkpt lat="49.78026" lon="4.8267">
        <ele>284</ele>
        <time>2020-10-31T09:28:36.000Z</time>
      </trkpt>
      <trkpt lat="49.78029" lon="4.82667">
        <ele>284</ele>
        <time>2020-10-31T09:28:37.000Z</time>
      </trkpt>
      <trkpt lat="49.78031" lon="4.82664">
        <ele>284</ele>
        <time>2020-10-31T09:28:38.000Z</time>
      </trkpt>
      <trkpt lat="49.78034" lon="4.82661">
        <ele>285</ele>
        <time>2020-10-31T09:28:39.000Z</time>
      </trkpt>
      <trkpt lat="49.78037" lon="4.82659">
        <ele>285</ele>
        <time>2020-10-31T09:28:40.000Z</time>
      </trkpt>
      <trkpt lat="49.7804" lon="4.82657">
        <ele>285</ele>
        <time>2020-10-31T09:28:41.000Z</time>
      </trkpt>
      <trkpt lat="49.78043" lon="4.82654">
        <ele>285</ele>
        <time>2020-10-31T09:28:42.000Z</time>
      </trkpt>
      <trkpt lat="49.78046" lon="4.82652">
        <ele>285</ele>
        <time>2020-10-31T09:28:43.000Z</time>
      </trkpt>
      <trkpt lat="49.78049" lon="4.82648">
        <ele>285</ele>
        <time>2020-10-31T09:28:44.000Z</time>
      </trkpt>
      <trkpt lat="49.78053" lon="4.82645">
        <ele>285</ele>
        <time>2020-10-31T09:28:45.000Z</time>
      </trkpt>
      <trkpt lat="49.78056" lon="4.82642">
        <ele>285</ele>
        <time>2020-10-31T09:28:46.000Z</time>
      </trkpt>
      <trkpt lat="49.78059" lon="4.82638">
        <ele>286</ele>
        <time>2020-10-31T09:28:47.000Z</time>
      </trkpt>
      <trkpt lat="49.7806" lon="4.82634">
        <ele>286</ele>
        <time>2020-10-31T09:28:48.000Z</time>
      </trkpt>
      <trkpt lat="49.78061" lon="4.8263">
        <ele>286</ele>
        <time>2020-10-31T09:28:49.000Z</time>
      </trkpt>
      <trkpt lat="49.78061" lon="4.82629">
        <ele>286</ele>
        <time>2020-10-31T09:28:50.000Z</time>
      </trkpt>
      <trkpt lat="49.78062" lon="4.82629">
        <ele>286</ele>
        <time>2020-10-31T09:28:51.000Z</time>
      </trkpt>
      <trkpt lat="49.78062" lon="4.82628">
        <ele>286</ele>
        <time>2020-10-31T09:28:52.000Z</time>
      </trkpt>
      <trkpt lat="49.78063" lon="4.82626">
        <ele>286</ele>
        <time>2020-10-31T09:28:53.000Z</time>
      </trkpt>
      <trkpt lat="49.78063" lon="4.82624">
        <ele>287</ele>
        <time>2020-10-31T09:28:54.000Z</time>
      </trkpt>
      <trkpt lat="49.78063" lon="4.8262">
        <ele>287</ele>
        <time>2020-10-31T09:28:55.000Z</time>
      </trkpt>
      <trkpt lat="49.78064" lon="4.82615">
        <ele>287</ele>
        <time>2020-10-31T09:28:56.000Z</time>
      </trkpt>
      <trkpt lat="49.78065" lon="4.8261">
        <ele>287</ele>
        <time>2020-10-31T09:28:57.000Z</time>
      </trkpt>
      <trkpt lat="49.78065" lon="4.82605">
        <ele>287</ele>
        <time>2020-10-31T09:28:58.000Z</time>
      </trkpt>
      <trkpt lat="49.78066" lon="4.826">
        <ele>287</ele>
        <time>2020-10-31T09:28:59.000Z</time>
      </trkpt>
      <trkpt lat="49.78066" lon="4.82594">
        <ele>287</ele>
        <time>2020-10-31T09:29:00.000Z</time>
      </trkpt>
      <trkpt lat="49.78066" lon="4.82587">
        <ele>288</ele>
        <time>2020-10-31T09:29:01.000Z</time>
      </trkpt>
      <trkpt lat="49.78067" lon="4.82581">
        <ele>288</ele>
        <time>2020-10-31T09:29:02.000Z</time>
      </trkpt>
      <trkpt lat="49.78068" lon="4.82575">
        <ele>288</ele>
        <time>2020-10-31T09:29:03.000Z</time>
      </trkpt>
      <trkpt lat="49.78068" lon="4.82569">
        <ele>288</ele>
        <time>2020-10-31T09:29:04.000Z</time>
      </trkpt>
      <trkpt lat="49.78069" lon="4.82564">
        <ele>288</ele>
        <time>2020-10-31T09:29:05.000Z</time>
      </trkpt>
      <trkpt lat="49.7807" lon="4.82559">
        <ele>288</ele>
        <time>2020-10-31T09:29:06.000Z</time>
      </trkpt>
      <trkpt lat="49.78071" lon="4.82554">
        <ele>288</ele>
        <time>2020-10-31T09:29:07.000Z</time>
      </trkpt>
      <trkpt lat="49.78072" lon="4.82549">
        <ele>288</ele>
        <time>2020-10-31T09:29:08.000Z</time>
      </trkpt>
      <trkpt lat="49.78073" lon="4.82545">
        <ele>288</ele>
        <time>2020-10-31T09:29:09.000Z</time>
      </trkpt>
      <trkpt lat="49.78074" lon="4.8254">
        <ele>288</ele>
        <time>2020-10-31T09:29:10.000Z</time>
      </trkpt>
      <trkpt lat="49.78075" lon="4.82535">
        <ele>288</ele>
        <time>2020-10-31T09:29:11.000Z</time>
      </trkpt>
      <trkpt lat="49.78076" lon="4.8253">
        <ele>288</ele>
        <time>2020-10-31T09:29:12.000Z</time>
      </trkpt>
      <trkpt lat="49.78076" lon="4.82524">
        <ele>288</ele>
        <time>2020-10-31T09:29:13.000Z</time>
      </trkpt>
      <trkpt lat="49.78077" lon="4.82518">
        <ele>288</ele>
        <time>2020-10-31T09:29:14.000Z</time>
      </trkpt>
      <trkpt lat="49.78078" lon="4.82511">
        <ele>288</ele>
        <time>2020-10-31T09:29:15.000Z</time>
      </trkpt>
      <trkpt lat="49.78078" lon="4.82505">
        <ele>288</ele>
        <time>2020-10-31T09:29:16.000Z</time>
      </trkpt>
      <trkpt lat="49.78079" lon="4.82498">
        <ele>288</ele>
        <time>2020-10-31T09:29:17.000Z</time>
      </trkpt>
      <trkpt lat="49.7808" lon="4.82492">
        <ele>287</ele>
        <time>2020-10-31T09:29:18.000Z</time>
      </trkpt>
      <trkpt lat="49.78081" lon="4.82486">
        <ele>287</ele>
        <time>2020-10-31T09:29:19.000Z</time>
      </trkpt>
      <trkpt lat="49.78082" lon="4.82479">
        <ele>287</ele>
        <time>2020-10-31T09:29:20.000Z</time>
      </trkpt>
      <trkpt lat="49.78083" lon="4.82473">
        <ele>287</ele>
        <time>2020-10-31T09:29:21.000Z</time>
      </trkpt>
      <trkpt lat="49.78083" lon="4.82467">
        <ele>287</ele>
        <time>2020-10-31T09:29:22.000Z</time>
      </trkpt>
      <trkpt lat="49.78084" lon="4.82461">
        <ele>287</ele>
        <time>2020-10-31T09:29:23.000Z</time>
      </trkpt>
      <trkpt lat="49.78084" lon="4.82456">
        <ele>287</ele>
        <time>2020-10-31T09:29:24.000Z</time>
      </trkpt>
      <trkpt lat="49.78085" lon="4.8245">
        <ele>286</ele>
        <time>2020-10-31T09:29:25.000Z</time>
      </trkpt>
      <trkpt lat="49.78086" lon="4.82443">
        <ele>286</ele>
        <time>2020-10-31T09:29:26.000Z</time>
      </trkpt>
      <trkpt lat="49.78086" lon="4.82437">
        <ele>286</ele>
        <time>2020-10-31T09:29:27.000Z</time>
      </trkpt>
      <trkpt lat="49.78086" lon="4.82431">
        <ele>286</ele>
        <time>2020-10-31T09:29:28.000Z</time>
      </trkpt>
      <trkpt lat="49.78086" lon="4.82424">
        <ele>286</ele>
        <time>2020-10-31T09:29:29.000Z</time>
      </trkpt>
      <trkpt lat="49.78087" lon="4.82418">
        <ele>286</ele>
        <time>2020-10-31T09:29:30.000Z</time>
      </trkpt>
      <trkpt lat="49.78086" lon="4.82413">
        <ele>286</ele>
        <time>2020-10-31T09:29:31.000Z</time>
      </trkpt>
      <trkpt lat="49.78086" lon="4.82407">
        <ele>286</ele>
        <time>2020-10-31T09:29:32.000Z</time>
      </trkpt>
      <trkpt lat="49.78086" lon="4.82402">
        <ele>286</ele>
        <time>2020-10-31T09:29:33.000Z</time>
      </trkpt>
      <trkpt lat="49.78087" lon="4.82397">
        <ele>286</ele>
        <time>2020-10-31T09:29:34.000Z</time>
      </trkpt>
      <trkpt lat="49.78088" lon="4.82392">
        <ele>287</ele>
        <time>2020-10-31T09:29:35.000Z</time>
      </trkpt>
      <trkpt lat="49.7809" lon="4.82387">
        <ele>286</ele>
        <time>2020-10-31T09:29:36.000Z</time>
      </trkpt>
      <trkpt lat="49.78091" lon="4.82381">
        <ele>286</ele>
        <time>2020-10-31T09:29:37.000Z</time>
      </trkpt>
      <trkpt lat="49.78093" lon="4.82376">
        <ele>286</ele>
        <time>2020-10-31T09:29:38.000Z</time>
      </trkpt>
      <trkpt lat="49.78094" lon="4.8237">
        <ele>286</ele>
        <time>2020-10-31T09:29:39.000Z</time>
      </trkpt>
      <trkpt lat="49.78095" lon="4.82365">
        <ele>286</ele>
        <time>2020-10-31T09:29:40.000Z</time>
      </trkpt>
      <trkpt lat="49.78096" lon="4.8236">
        <ele>286</ele>
        <time>2020-10-31T09:29:41.000Z</time>
      </trkpt>
      <trkpt lat="49.78097" lon="4.82356">
        <ele>286</ele>
        <time>2020-10-31T09:29:42.000Z</time>
      </trkpt>
      <trkpt lat="49.78099" lon="4.82351">
        <ele>286</ele>
        <time>2020-10-31T09:29:43.000Z</time>
      </trkpt>
      <trkpt lat="49.781" lon="4.82347">
        <ele>285</ele>
        <time>2020-10-31T09:29:44.000Z</time>
      </trkpt>
      <trkpt lat="49.78101" lon="4.82342">
        <ele>285</ele>
        <time>2020-10-31T09:29:45.000Z</time>
      </trkpt>
      <trkpt lat="49.78103" lon="4.82338">
        <ele>285</ele>
        <time>2020-10-31T09:29:46.000Z</time>
      </trkpt>
      <trkpt lat="49.78104" lon="4.82334">
        <ele>285</ele>
        <time>2020-10-31T09:29:47.000Z</time>
      </trkpt>
      <trkpt lat="49.78105" lon="4.8233">
        <ele>285</ele>
        <time>2020-10-31T09:29:48.000Z</time>
      </trkpt>
      <trkpt lat="49.78106" lon="4.82326">
        <ele>284</ele>
        <time>2020-10-31T09:29:49.000Z</time>
      </trkpt>
      <trkpt lat="49.78107" lon="4.82323">
        <ele>284</ele>
        <time>2020-10-31T09:29:50.000Z</time>
      </trkpt>
      <trkpt lat="49.78108" lon="4.82318">
        <ele>284</ele>
        <time>2020-10-31T09:29:51.000Z</time>
      </trkpt>
      <trkpt lat="49.78109" lon="4.82314">
        <ele>284</ele>
        <time>2020-10-31T09:29:52.000Z</time>
      </trkpt>
      <trkpt lat="49.78109" lon="4.82309">
        <ele>284</ele>
        <time>2020-10-31T09:29:53.000Z</time>
      </trkpt>
      <trkpt lat="49.78109" lon="4.82305">
        <ele>284</ele>
        <time>2020-10-31T09:29:54.000Z</time>
      </trkpt>
      <trkpt lat="49.7811" lon="4.82301">
        <ele>284</ele>
        <time>2020-10-31T09:29:55.000Z</time>
      </trkpt>
      <trkpt lat="49.7811" lon="4.82296">
        <ele>284</ele>
        <time>2020-10-31T09:29:56.000Z</time>
      </trkpt>
      <trkpt lat="49.7811" lon="4.82292">
        <ele>284</ele>
        <time>2020-10-31T09:29:57.000Z</time>
      </trkpt>
      <trkpt lat="49.7811" lon="4.82287">
        <ele>284</ele>
        <time>2020-10-31T09:29:58.000Z</time>
      </trkpt>
      <trkpt lat="49.7811" lon="4.82282">
        <ele>284</ele>
        <time>2020-10-31T09:29:59.000Z</time>
      </trkpt>
      <trkpt lat="49.7811" lon="4.82277">
        <ele>284</ele>
        <time>2020-10-31T09:30:00.000Z</time>
      </trkpt>
      <trkpt lat="49.78111" lon="4.82273">
        <ele>284</ele>
        <time>2020-10-31T09:30:01.000Z</time>
      </trkpt>
      <trkpt lat="49.78111" lon="4.82269">
        <ele>284</ele>
        <time>2020-10-31T09:30:02.000Z</time>
      </trkpt>
      <trkpt lat="49.7811" lon="4.82265">
        <ele>284</ele>
        <time>2020-10-31T09:30:03.000Z</time>
      </trkpt>
      <trkpt lat="49.7811" lon="4.8226">
        <ele>284</ele>
        <time>2020-10-31T09:30:04.000Z</time>
      </trkpt>
      <trkpt lat="49.7811" lon="4.82256">
        <ele>284</ele>
        <time>2020-10-31T09:30:05.000Z</time>
      </trkpt>
      <trkpt lat="49.7811" lon="4.82252">
        <ele>284</ele>
        <time>2020-10-31T09:30:06.000Z</time>
      </trkpt>
      <trkpt lat="49.7811" lon="4.82248">
        <ele>284</ele>
        <time>2020-10-31T09:30:07.000Z</time>
      </trkpt>
      <trkpt lat="49.7811" lon="4.82244">
        <ele>284</ele>
        <time>2020-10-31T09:30:08.000Z</time>
      </trkpt>
      <trkpt lat="49.78109" lon="4.8224">
        <ele>284</ele>
        <time>2020-10-31T09:30:09.000Z</time>
      </trkpt>
      <trkpt lat="49.78109" lon="4.82235">
        <ele>284</ele>
        <time>2020-10-31T09:30:10.000Z</time>
      </trkpt>
      <trkpt lat="49.78109" lon="4.8223">
        <ele>284</ele>
        <time>2020-10-31T09:30:11.000Z</time>
      </trkpt>
      <trkpt lat="49.78109" lon="4.82225">
        <ele>284</ele>
        <time>2020-10-31T09:30:12.000Z</time>
      </trkpt>
      <trkpt lat="49.7811" lon="4.82221">
        <ele>284</ele>
        <time>2020-10-31T09:30:13.000Z</time>
      </trkpt>
      <trkpt lat="49.78111" lon="4.82217">
        <ele>284</ele>
        <time>2020-10-31T09:30:14.000Z</time>
      </trkpt>
      <trkpt lat="49.78113" lon="4.82213">
        <ele>284</ele>
        <time>2020-10-31T09:30:15.000Z</time>
      </trkpt>
      <trkpt lat="49.78114" lon="4.82209">
        <ele>284</ele>
        <time>2020-10-31T09:30:16.000Z</time>
      </trkpt>
      <trkpt lat="49.78115" lon="4.82205">
        <ele>284</ele>
        <time>2020-10-31T09:30:17.000Z</time>
      </trkpt>
      <trkpt lat="49.78116" lon="4.82202">
        <ele>284</ele>
        <time>2020-10-31T09:30:18.000Z</time>
      </trkpt>
      <trkpt lat="49.78116" lon="4.82198">
        <ele>284</ele>
        <time>2020-10-31T09:30:19.000Z</time>
      </trkpt>
      <trkpt lat="49.78118" lon="4.82196">
        <ele>284</ele>
        <time>2020-10-31T09:30:20.000Z</time>
      </trkpt>
      <trkpt lat="49.7812" lon="4.82194">
        <ele>284</ele>
        <time>2020-10-31T09:30:21.000Z</time>
      </trkpt>
      <trkpt lat="49.78122" lon="4.82192">
        <ele>284</ele>
        <time>2020-10-31T09:30:22.000Z</time>
      </trkpt>
      <trkpt lat="49.78124" lon="4.82191">
        <ele>284</ele>
        <time>2020-10-31T09:30:23.000Z</time>
      </trkpt>
      <trkpt lat="49.78127" lon="4.82191">
        <ele>284</ele>
        <time>2020-10-31T09:30:24.000Z</time>
      </trkpt>
      <trkpt lat="49.78131" lon="4.8219">
        <ele>284</ele>
        <time>2020-10-31T09:30:25.000Z</time>
      </trkpt>
      <trkpt lat="49.78134" lon="4.82188">
        <ele>284</ele>
        <time>2020-10-31T09:30:26.000Z</time>
      </trkpt>
      <trkpt lat="49.78137" lon="4.82186">
        <ele>284</ele>
        <time>2020-10-31T09:30:27.000Z</time>
      </trkpt>
      <trkpt lat="49.78141" lon="4.82184">
        <ele>284</ele>
        <time>2020-10-31T09:30:28.000Z</time>
      </trkpt>
      <trkpt lat="49.78145" lon="4.82182">
        <ele>284</ele>
        <time>2020-10-31T09:30:29.000Z</time>
      </trkpt>
      <trkpt lat="49.78149" lon="4.82179">
        <ele>284</ele>
        <time>2020-10-31T09:30:30.000Z</time>
      </trkpt>
      <trkpt lat="49.78152" lon="4.82176">
        <ele>284</ele>
        <time>2020-10-31T09:30:31.000Z</time>
      </trkpt>
      <trkpt lat="49.78156" lon="4.82173">
        <ele>284</ele>
        <time>2020-10-31T09:30:32.000Z</time>
      </trkpt>
      <trkpt lat="49.7816" lon="4.8217">
        <ele>284</ele>
        <time>2020-10-31T09:30:33.000Z</time>
      </trkpt>
      <trkpt lat="49.78165" lon="4.82168">
        <ele>284</ele>
        <time>2020-10-31T09:30:34.000Z</time>
      </trkpt>
      <trkpt lat="49.78169" lon="4.82166">
        <ele>284</ele>
        <time>2020-10-31T09:30:35.000Z</time>
      </trkpt>
      <trkpt lat="49.78173" lon="4.82166">
        <ele>284</ele>
        <time>2020-10-31T09:30:36.000Z</time>
      </trkpt>
      <trkpt lat="49.78177" lon="4.82165">
        <ele>284</ele>
        <time>2020-10-31T09:30:37.000Z</time>
      </trkpt>
      <trkpt lat="49.78181" lon="4.82165">
        <ele>284</ele>
        <time>2020-10-31T09:30:38.000Z</time>
      </trkpt>
      <trkpt lat="49.78185" lon="4.82165">
        <ele>284</ele>
        <time>2020-10-31T09:30:39.000Z</time>
      </trkpt>
      <trkpt lat="49.78188" lon="4.82166">
        <ele>284</ele>
        <time>2020-10-31T09:30:40.000Z</time>
      </trkpt>
      <trkpt lat="49.78191" lon="4.82167">
        <ele>284</ele>
        <time>2020-10-31T09:30:41.000Z</time>
      </trkpt>
      <trkpt lat="49.78193" lon="4.82169">
        <ele>284</ele>
        <time>2020-10-31T09:30:42.000Z</time>
      </trkpt>
      <trkpt lat="49.78196" lon="4.8217">
        <ele>284</ele>
        <time>2020-10-31T09:30:43.000Z</time>
      </trkpt>
      <trkpt lat="49.78198" lon="4.82171">
        <ele>284</ele>
        <time>2020-10-31T09:30:44.000Z</time>
      </trkpt>
      <trkpt lat="49.782" lon="4.82172">
        <ele>284</ele>
        <time>2020-10-31T09:30:45.000Z</time>
      </trkpt>
      <trkpt lat="49.78201" lon="4.82172">
        <ele>284</ele>
        <time>2020-10-31T09:30:46.000Z</time>
      </trkpt>
      <trkpt lat="49.78203" lon="4.82171">
        <ele>283</ele>
        <time>2020-10-31T09:30:47.000Z</time>
      </trkpt>
      <trkpt lat="49.78205" lon="4.82171">
        <ele>283</ele>
        <time>2020-10-31T09:30:48.000Z</time>
      </trkpt>
      <trkpt lat="49.78206" lon="4.82169">
        <ele>283</ele>
        <time>2020-10-31T09:30:49.000Z</time>
      </trkpt>
      <trkpt lat="49.78206" lon="4.82166">
        <ele>283</ele>
        <time>2020-10-31T09:30:50.000Z</time>
      </trkpt>
      <trkpt lat="49.78206" lon="4.82165">
        <ele>283</ele>
        <time>2020-10-31T09:30:51.000Z</time>
      </trkpt>
      <trkpt lat="49.78205" lon="4.82164">
        <ele>283</ele>
        <time>2020-10-31T09:30:52.000Z</time>
      </trkpt>
      <trkpt lat="49.78205" lon="4.82163">
        <ele>282</ele>
        <time>2020-10-31T09:30:53.000Z</time>
      </trkpt>
      <trkpt lat="49.78205" lon="4.82161">
        <ele>282</ele>
        <time>2020-10-31T09:30:54.000Z</time>
      </trkpt>
      <trkpt lat="49.78205" lon="4.8216">
        <ele>282</ele>
        <time>2020-10-31T09:30:55.000Z</time>
      </trkpt>
      <trkpt lat="49.78205" lon="4.82158">
        <ele>282</ele>
        <time>2020-10-31T09:30:56.000Z</time>
      </trkpt>
      <trkpt lat="49.78206" lon="4.82155">
        <ele>282</ele>
        <time>2020-10-31T09:30:57.000Z</time>
      </trkpt>
      <trkpt lat="49.78206" lon="4.82152">
        <ele>282</ele>
        <time>2020-10-31T09:30:58.000Z</time>
      </trkpt>
      <trkpt lat="49.78207" lon="4.82148">
        <ele>282</ele>
        <time>2020-10-31T09:30:59.000Z</time>
      </trkpt>
      <trkpt lat="49.78208" lon="4.82144">
        <ele>282</ele>
        <time>2020-10-31T09:31:00.000Z</time>
      </trkpt>
      <trkpt lat="49.78209" lon="4.8214">
        <ele>282</ele>
        <time>2020-10-31T09:31:01.000Z</time>
      </trkpt>
      <trkpt lat="49.78209" lon="4.82138">
        <ele>282</ele>
        <time>2020-10-31T09:31:02.000Z</time>
      </trkpt>
      <trkpt lat="49.7821" lon="4.82138">
        <ele>281</ele>
        <time>2020-10-31T09:31:03.000Z</time>
      </trkpt>
      <trkpt lat="49.7821" lon="4.82137">
        <ele>282</ele>
        <time>2020-10-31T09:31:04.000Z</time>
      </trkpt>
      <trkpt lat="49.7821" lon="4.82137">
        <ele>281</ele>
        <time>2020-10-31T09:31:05.000Z</time>
      </trkpt>
      <trkpt lat="49.7821" lon="4.82136">
        <ele>281</ele>
        <time>2020-10-31T09:31:06.000Z</time>
      </trkpt>
      <trkpt lat="49.7821" lon="4.82136">
        <ele>281</ele>
        <time>2020-10-31T09:31:07.000Z</time>
      </trkpt>
      <trkpt lat="49.78211" lon="4.82134">
        <ele>281</ele>
        <time>2020-10-31T09:31:08.000Z</time>
      </trkpt>
      <trkpt lat="49.78212" lon="4.82132">
        <ele>281</ele>
        <time>2020-10-31T09:31:09.000Z</time>
      </trkpt>
      <trkpt lat="49.78212" lon="4.82129">
        <ele>281</ele>
        <time>2020-10-31T09:31:10.000Z</time>
      </trkpt>
      <trkpt lat="49.78213" lon="4.82125">
        <ele>281</ele>
        <time>2020-10-31T09:31:11.000Z</time>
      </trkpt>
      <trkpt lat="49.78214" lon="4.8212">
        <ele>281</ele>
        <time>2020-10-31T09:31:12.000Z</time>
      </trkpt>
      <trkpt lat="49.78215" lon="4.82114">
        <ele>281</ele>
        <time>2020-10-31T09:31:13.000Z</time>
      </trkpt>
      <trkpt lat="49.78216" lon="4.82107">
        <ele>281</ele>
        <time>2020-10-31T09:31:14.000Z</time>
      </trkpt>
      <trkpt lat="49.78217" lon="4.82101">
        <ele>281</ele>
        <time>2020-10-31T09:31:15.000Z</time>
      </trkpt>
      <trkpt lat="49.78219" lon="4.82094">
        <ele>281</ele>
        <time>2020-10-31T09:31:16.000Z</time>
      </trkpt>
      <trkpt lat="49.7822" lon="4.82087">
        <ele>281</ele>
        <time>2020-10-31T09:31:17.000Z</time>
      </trkpt>
      <trkpt lat="49.78221" lon="4.82081">
        <ele>281</ele>
        <time>2020-10-31T09:31:18.000Z</time>
      </trkpt>
      <trkpt lat="49.78222" lon="4.82075">
        <ele>280</ele>
        <time>2020-10-31T09:31:19.000Z</time>
      </trkpt>
      <trkpt lat="49.78222" lon="4.82068">
        <ele>280</ele>
        <time>2020-10-31T09:31:20.000Z</time>
      </trkpt>
      <trkpt lat="49.78223" lon="4.82062">
        <ele>280</ele>
        <time>2020-10-31T09:31:21.000Z</time>
      </trkpt>
      <trkpt lat="49.78225" lon="4.82056">
        <ele>280</ele>
        <time>2020-10-31T09:31:22.000Z</time>
      </trkpt>
      <trkpt lat="49.78227" lon="4.8205">
        <ele>280</ele>
        <time>2020-10-31T09:31:23.000Z</time>
      </trkpt>
      <trkpt lat="49.78228" lon="4.82043">
        <ele>280</ele>
        <time>2020-10-31T09:31:24.000Z</time>
      </trkpt>
      <trkpt lat="49.78229" lon="4.82036">
        <ele>279</ele>
        <time>2020-10-31T09:31:25.000Z</time>
      </trkpt>
      <trkpt lat="49.78231" lon="4.8203">
        <ele>279</ele>
        <time>2020-10-31T09:31:26.000Z</time>
      </trkpt>
      <trkpt lat="49.78232" lon="4.82024">
        <ele>279</ele>
        <time>2020-10-31T09:31:27.000Z</time>
      </trkpt>
      <trkpt lat="49.78234" lon="4.82018">
        <ele>279</ele>
        <time>2020-10-31T09:31:28.000Z</time>
      </trkpt>
      <trkpt lat="49.78235" lon="4.82011">
        <ele>279</ele>
        <time>2020-10-31T09:31:29.000Z</time>
      </trkpt>
      <trkpt lat="49.78237" lon="4.82004">
        <ele>278</ele>
        <time>2020-10-31T09:31:30.000Z</time>
      </trkpt>
      <trkpt lat="49.78237" lon="4.81997">
        <ele>278</ele>
        <time>2020-10-31T09:31:31.000Z</time>
      </trkpt>
      <trkpt lat="49.78238" lon="4.8199">
        <ele>278</ele>
        <time>2020-10-31T09:31:32.000Z</time>
      </trkpt>
      <trkpt lat="49.78239" lon="4.81982">
        <ele>278</ele>
        <time>2020-10-31T09:31:33.000Z</time>
      </trkpt>
      <trkpt lat="49.7824" lon="4.81974">
        <ele>278</ele>
        <time>2020-10-31T09:31:34.000Z</time>
      </trkpt>
      <trkpt lat="49.78241" lon="4.81968">
        <ele>278</ele>
        <time>2020-10-31T09:31:35.000Z</time>
      </trkpt>
      <trkpt lat="49.78242" lon="4.81962">
        <ele>277</ele>
        <time>2020-10-31T09:31:36.000Z</time>
      </trkpt>
      <trkpt lat="49.78243" lon="4.81957">
        <ele>277</ele>
        <time>2020-10-31T09:31:37.000Z</time>
      </trkpt>
      <trkpt lat="49.78244" lon="4.81951">
        <ele>277</ele>
        <time>2020-10-31T09:31:38.000Z</time>
      </trkpt>
      <trkpt lat="49.78246" lon="4.81947">
        <ele>277</ele>
        <time>2020-10-31T09:31:39.000Z</time>
      </trkpt>
      <trkpt lat="49.78247" lon="4.81942">
        <ele>277</ele>
        <time>2020-10-31T09:31:40.000Z</time>
      </trkpt>
      <trkpt lat="49.78247" lon="4.81937">
        <ele>277</ele>
        <time>2020-10-31T09:31:41.000Z</time>
      </trkpt>
      <trkpt lat="49.78248" lon="4.81934">
        <ele>276</ele>
        <time>2020-10-31T09:31:42.000Z</time>
      </trkpt>
      <trkpt lat="49.78249" lon="4.81931">
        <ele>276</ele>
        <time>2020-10-31T09:31:43.000Z</time>
      </trkpt>
      <trkpt lat="49.7825" lon="4.8193">
        <ele>276</ele>
        <time>2020-10-31T09:31:44.000Z</time>
      </trkpt>
      <trkpt lat="49.7825" lon="4.8193">
        <ele>275</ele>
        <time>2020-10-31T09:31:45.000Z</time>
      </trkpt>
      <trkpt lat="49.78251" lon="4.81929">
        <ele>275</ele>
        <time>2020-10-31T09:31:46.000Z</time>
      </trkpt>
      <trkpt lat="49.78252" lon="4.81929">
        <ele>275</ele>
        <time>2020-10-31T09:31:47.000Z</time>
      </trkpt>
      <trkpt lat="49.78254" lon="4.8193">
        <ele>275</ele>
        <time>2020-10-31T09:31:48.000Z</time>
      </trkpt>
      <trkpt lat="49.78255" lon="4.8193">
        <ele>274</ele>
        <time>2020-10-31T09:31:49.000Z</time>
      </trkpt>
      <trkpt lat="49.78257" lon="4.81932">
        <ele>274</ele>
        <time>2020-10-31T09:31:50.000Z</time>
      </trkpt>
      <trkpt lat="49.78259" lon="4.81934">
        <ele>273</ele>
        <time>2020-10-31T09:31:51.000Z</time>
      </trkpt>
      <trkpt lat="49.78261" lon="4.81937">
        <ele>273</ele>
        <time>2020-10-31T09:31:52.000Z</time>
      </trkpt>
      <trkpt lat="49.78263" lon="4.8194">
        <ele>272</ele>
        <time>2020-10-31T09:31:53.000Z</time>
      </trkpt>
      <trkpt lat="49.78266" lon="4.81944">
        <ele>272</ele>
        <time>2020-10-31T09:31:54.000Z</time>
      </trkpt>
      <trkpt lat="49.78269" lon="4.81949">
        <ele>271</ele>
        <time>2020-10-31T09:31:55.000Z</time>
      </trkpt>
      <trkpt lat="49.78271" lon="4.81954">
        <ele>271</ele>
        <time>2020-10-31T09:31:56.000Z</time>
      </trkpt>
      <trkpt lat="49.78273" lon="4.81959">
        <ele>270</ele>
        <time>2020-10-31T09:31:57.000Z</time>
      </trkpt>
      <trkpt lat="49.78275" lon="4.81965">
        <ele>270</ele>
        <time>2020-10-31T09:31:58.000Z</time>
      </trkpt>
      <trkpt lat="49.78277" lon="4.81972">
        <ele>269</ele>
        <time>2020-10-31T09:31:59.000Z</time>
      </trkpt>
      <trkpt lat="49.78279" lon="4.81979">
        <ele>269</ele>
        <time>2020-10-31T09:32:00.000Z</time>
      </trkpt>
      <trkpt lat="49.7828" lon="4.81985">
        <ele>269</ele>
        <time>2020-10-31T09:32:01.000Z</time>
      </trkpt>
      <trkpt lat="49.78281" lon="4.81992">
        <ele>268</ele>
        <time>2020-10-31T09:32:02.000Z</time>
      </trkpt>
      <trkpt lat="49.78283" lon="4.81998">
        <ele>268</ele>
        <time>2020-10-31T09:32:03.000Z</time>
      </trkpt>
      <trkpt lat="49.78285" lon="4.82005">
        <ele>267</ele>
        <time>2020-10-31T09:32:04.000Z</time>
      </trkpt>
      <trkpt lat="49.78287" lon="4.82011">
        <ele>266</ele>
        <time>2020-10-31T09:32:05.000Z</time>
      </trkpt>
      <trkpt lat="49.7829" lon="4.82017">
        <ele>266</ele>
        <time>2020-10-31T09:32:06.000Z</time>
      </trkpt>
      <trkpt lat="49.78292" lon="4.82023">
        <ele>265</ele>
        <time>2020-10-31T09:32:07.000Z</time>
      </trkpt>
      <trkpt lat="49.78295" lon="4.8203">
        <ele>264</ele>
        <time>2020-10-31T09:32:08.000Z</time>
      </trkpt>
      <trkpt lat="49.78298" lon="4.82036">
        <ele>263</ele>
        <time>2020-10-31T09:32:09.000Z</time>
      </trkpt>
      <trkpt lat="49.783" lon="4.82043">
        <ele>263</ele>
        <time>2020-10-31T09:32:10.000Z</time>
      </trkpt>
      <trkpt lat="49.78303" lon="4.8205">
        <ele>262</ele>
        <time>2020-10-31T09:32:11.000Z</time>
      </trkpt>
      <trkpt lat="49.78305" lon="4.82058">
        <ele>261</ele>
        <time>2020-10-31T09:32:12.000Z</time>
      </trkpt>
      <trkpt lat="49.78306" lon="4.82066">
        <ele>261</ele>
        <time>2020-10-31T09:32:13.000Z</time>
      </trkpt>
      <trkpt lat="49.78307" lon="4.82072">
        <ele>260</ele>
        <time>2020-10-31T09:32:14.000Z</time>
      </trkpt>
      <trkpt lat="49.78309" lon="4.82078">
        <ele>259</ele>
        <time>2020-10-31T09:32:15.000Z</time>
      </trkpt>
      <trkpt lat="49.7831" lon="4.82083">
        <ele>259</ele>
        <time>2020-10-31T09:32:16.000Z</time>
      </trkpt>
      <trkpt lat="49.78313" lon="4.82086">
        <ele>258</ele>
        <time>2020-10-31T09:32:17.000Z</time>
      </trkpt>
      <trkpt lat="49.78315" lon="4.82089">
        <ele>257</ele>
        <time>2020-10-31T09:32:18.000Z</time>
      </trkpt>
      <trkpt lat="49.78318" lon="4.82092">
        <ele>257</ele>
        <time>2020-10-31T09:32:19.000Z</time>
      </trkpt>
      <trkpt lat="49.7832" lon="4.82096">
        <ele>256</ele>
        <time>2020-10-31T09:32:20.000Z</time>
      </trkpt>
      <trkpt lat="49.78323" lon="4.82098">
        <ele>255</ele>
        <time>2020-10-31T09:32:21.000Z</time>
      </trkpt>
      <trkpt lat="49.78327" lon="4.82101">
        <ele>255</ele>
        <time>2020-10-31T09:32:22.000Z</time>
      </trkpt>
      <trkpt lat="49.78329" lon="4.82103">
        <ele>254</ele>
        <time>2020-10-31T09:32:23.000Z</time>
      </trkpt>
      <trkpt lat="49.78331" lon="4.82105">
        <ele>253</ele>
        <time>2020-10-31T09:32:24.000Z</time>
      </trkpt>
      <trkpt lat="49.78334" lon="4.82107">
        <ele>252</ele>
        <time>2020-10-31T09:32:25.000Z</time>
      </trkpt>
      <trkpt lat="49.78336" lon="4.82109">
        <ele>252</ele>
        <time>2020-10-31T09:32:26.000Z</time>
      </trkpt>
      <trkpt lat="49.78339" lon="4.8211">
        <ele>251</ele>
        <time>2020-10-31T09:32:27.000Z</time>
      </trkpt>
      <trkpt lat="49.78342" lon="4.82112">
        <ele>250</ele>
        <time>2020-10-31T09:32:28.000Z</time>
      </trkpt>
      <trkpt lat="49.78344" lon="4.82113">
        <ele>250</ele>
        <time>2020-10-31T09:32:29.000Z</time>
      </trkpt>
      <trkpt lat="49.78347" lon="4.82113">
        <ele>249</ele>
        <time>2020-10-31T09:32:30.000Z</time>
      </trkpt>
      <trkpt lat="49.78349" lon="4.82112">
        <ele>248</ele>
        <time>2020-10-31T09:32:31.000Z</time>
      </trkpt>
      <trkpt lat="49.78352" lon="4.82112">
        <ele>247</ele>
        <time>2020-10-31T09:32:32.000Z</time>
      </trkpt>
      <trkpt lat="49.78354" lon="4.82113">
        <ele>247</ele>
        <time>2020-10-31T09:32:33.000Z</time>
      </trkpt>
      <trkpt lat="49.78356" lon="4.82114">
        <ele>246</ele>
        <time>2020-10-31T09:32:34.000Z</time>
      </trkpt>
      <trkpt lat="49.78358" lon="4.82116">
        <ele>245</ele>
        <time>2020-10-31T09:32:35.000Z</time>
      </trkpt>
      <trkpt lat="49.78359" lon="4.82119">
        <ele>245</ele>
        <time>2020-10-31T09:32:36.000Z</time>
      </trkpt>
      <trkpt lat="49.7836" lon="4.82122">
        <ele>244</ele>
        <time>2020-10-31T09:32:37.000Z</time>
      </trkpt>
      <trkpt lat="49.78361" lon="4.82127">
        <ele>243</ele>
        <time>2020-10-31T09:32:38.000Z</time>
      </trkpt>
      <trkpt lat="49.78362" lon="4.82131">
        <ele>243</ele>
        <time>2020-10-31T09:32:39.000Z</time>
      </trkpt>
      <trkpt lat="49.78362" lon="4.82135">
        <ele>242</ele>
        <time>2020-10-31T09:32:40.000Z</time>
      </trkpt>
      <trkpt lat="49.78363" lon="4.82139">
        <ele>242</ele>
        <time>2020-10-31T09:32:41.000Z</time>
      </trkpt>
      <trkpt lat="49.78364" lon="4.82143">
        <ele>242</ele>
        <time>2020-10-31T09:32:42.000Z</time>
      </trkpt>
      <trkpt lat="49.78364" lon="4.82146">
        <ele>241</ele>
        <time>2020-10-31T09:32:43.000Z</time>
      </trkpt>
      <trkpt lat="49.78364" lon="4.82149">
        <ele>241</ele>
        <time>2020-10-31T09:32:44.000Z</time>
      </trkpt>
      <trkpt lat="49.78364" lon="4.82153">
        <ele>241</ele>
        <time>2020-10-31T09:32:45.000Z</time>
      </trkpt>
      <trkpt lat="49.78364" lon="4.82156">
        <ele>240</ele>
        <time>2020-10-31T09:32:46.000Z</time>
      </trkpt>
      <trkpt lat="49.78364" lon="4.82159">
        <ele>240</ele>
        <time>2020-10-31T09:32:47.000Z</time>
      </trkpt>
      <trkpt lat="49.78364" lon="4.82162">
        <ele>239</ele>
        <time>2020-10-31T09:32:48.000Z</time>
      </trkpt>
      <trkpt lat="49.78364" lon="4.82165">
        <ele>239</ele>
        <time>2020-10-31T09:32:49.000Z</time>
      </trkpt>
      <trkpt lat="49.78364" lon="4.82168">
        <ele>239</ele>
        <time>2020-10-31T09:32:50.000Z</time>
      </trkpt>
      <trkpt lat="49.78363" lon="4.8217">
        <ele>239</ele>
        <time>2020-10-31T09:32:51.000Z</time>
      </trkpt>
      <trkpt lat="49.78363" lon="4.82172">
        <ele>238</ele>
        <time>2020-10-31T09:32:52.000Z</time>
      </trkpt>
      <trkpt lat="49.78363" lon="4.82174">
        <ele>238</ele>
        <time>2020-10-31T09:32:53.000Z</time>
      </trkpt>
      <trkpt lat="49.78363" lon="4.82177">
        <ele>238</ele>
        <time>2020-10-31T09:32:54.000Z</time>
      </trkpt>
      <trkpt lat="49.78363" lon="4.82181">
        <ele>238</ele>
        <time>2020-10-31T09:32:55.000Z</time>
      </trkpt>
      <trkpt lat="49.78363" lon="4.82185">
        <ele>238</ele>
        <time>2020-10-31T09:32:56.000Z</time>
      </trkpt>
      <trkpt lat="49.78364" lon="4.82189">
        <ele>238</ele>
        <time>2020-10-31T09:32:57.000Z</time>
      </trkpt>
      <trkpt lat="49.78364" lon="4.82193">
        <ele>238</ele>
        <time>2020-10-31T09:32:58.000Z</time>
      </trkpt>
      <trkpt lat="49.78364" lon="4.82197">
        <ele>238</ele>
        <time>2020-10-31T09:32:59.000Z</time>
      </trkpt>
      <trkpt lat="49.78364" lon="4.82201">
        <ele>238</ele>
        <time>2020-10-31T09:33:00.000Z</time>
      </trkpt>
      <trkpt lat="49.78364" lon="4.82205">
        <ele>238</ele>
        <time>2020-10-31T09:33:01.000Z</time>
      </trkpt>
      <trkpt lat="49.78364" lon="4.82209">
        <ele>238</ele>
        <time>2020-10-31T09:33:02.000Z</time>
      </trkpt>
      <trkpt lat="49.78364" lon="4.82213">
        <ele>238</ele>
        <time>2020-10-31T09:33:03.000Z</time>
      </trkpt>
      <trkpt lat="49.78364" lon="4.82217">
        <ele>238</ele>
        <time>2020-10-31T09:33:04.000Z</time>
      </trkpt>
      <trkpt lat="49.78365" lon="4.82221">
        <ele>238</ele>
        <time>2020-10-31T09:33:05.000Z</time>
      </trkpt>
      <trkpt lat="49.78366" lon="4.82225">
        <ele>238</ele>
        <time>2020-10-31T09:33:06.000Z</time>
      </trkpt>
      <trkpt lat="49.78366" lon="4.82229">
        <ele>238</ele>
        <time>2020-10-31T09:33:07.000Z</time>
      </trkpt>
      <trkpt lat="49.78367" lon="4.82233">
        <ele>238</ele>
        <time>2020-10-31T09:33:08.000Z</time>
      </trkpt>
      <trkpt lat="49.78368" lon="4.82237">
        <ele>238</ele>
        <time>2020-10-31T09:33:09.000Z</time>
      </trkpt>
      <trkpt lat="49.7837" lon="4.82241">
        <ele>238</ele>
        <time>2020-10-31T09:33:10.000Z</time>
      </trkpt>
      <trkpt lat="49.7837" lon="4.82245">
        <ele>238</ele>
        <time>2020-10-31T09:33:11.000Z</time>
      </trkpt>
      <trkpt lat="49.78371" lon="4.82249">
        <ele>239</ele>
        <time>2020-10-31T09:33:12.000Z</time>
      </trkpt>
      <trkpt lat="49.78373" lon="4.82253">
        <ele>239</ele>
        <time>2020-10-31T09:33:13.000Z</time>
      </trkpt>
      <trkpt lat="49.78374" lon="4.82258">
        <ele>239</ele>
        <time>2020-10-31T09:33:14.000Z</time>
      </trkpt>
      <trkpt lat="49.78375" lon="4.82262">
        <ele>239</ele>
        <time>2020-10-31T09:33:15.000Z</time>
      </trkpt>
      <trkpt lat="49.78375" lon="4.82265">
        <ele>239</ele>
        <time>2020-10-31T09:33:16.000Z</time>
      </trkpt>
      <trkpt lat="49.78376" lon="4.82269">
        <ele>239</ele>
        <time>2020-10-31T09:33:17.000Z</time>
      </trkpt>
      <trkpt lat="49.78378" lon="4.82273">
        <ele>239</ele>
        <time>2020-10-31T09:33:18.000Z</time>
      </trkpt>
      <trkpt lat="49.78379" lon="4.82276">
        <ele>240</ele>
        <time>2020-10-31T09:33:19.000Z</time>
      </trkpt>
      <trkpt lat="49.78379" lon="4.8228">
        <ele>240</ele>
        <time>2020-10-31T09:33:20.000Z</time>
      </trkpt>
      <trkpt lat="49.7838" lon="4.82282">
        <ele>240</ele>
        <time>2020-10-31T09:33:21.000Z</time>
      </trkpt>
      <trkpt lat="49.7838" lon="4.82285">
        <ele>240</ele>
        <time>2020-10-31T09:33:22.000Z</time>
      </trkpt>
      <trkpt lat="49.7838" lon="4.82288">
        <ele>241</ele>
        <time>2020-10-31T09:33:23.000Z</time>
      </trkpt>
      <trkpt lat="49.7838" lon="4.82291">
        <ele>241</ele>
        <time>2020-10-31T09:33:24.000Z</time>
      </trkpt>
      <trkpt lat="49.7838" lon="4.82294">
        <ele>241</ele>
        <time>2020-10-31T09:33:25.000Z</time>
      </trkpt>
      <trkpt lat="49.7838" lon="4.82296">
        <ele>241</ele>
        <time>2020-10-31T09:33:26.000Z</time>
      </trkpt>
      <trkpt lat="49.7838" lon="4.82299">
        <ele>241</ele>
        <time>2020-10-31T09:33:27.000Z</time>
      </trkpt>
      <trkpt lat="49.7838" lon="4.82302">
        <ele>241</ele>
        <time>2020-10-31T09:33:28.000Z</time>
      </trkpt>
      <trkpt lat="49.78381" lon="4.82306">
        <ele>241</ele>
        <time>2020-10-31T09:33:29.000Z</time>
      </trkpt>
      <trkpt lat="49.78381" lon="4.82309">
        <ele>242</ele>
        <time>2020-10-31T09:33:30.000Z</time>
      </trkpt>
      <trkpt lat="49.78381" lon="4.82312">
        <ele>242</ele>
        <time>2020-10-31T09:33:31.000Z</time>
      </trkpt>
      <trkpt lat="49.7838" lon="4.82315">
        <ele>242</ele>
        <time>2020-10-31T09:33:32.000Z</time>
      </trkpt>
      <trkpt lat="49.7838" lon="4.82319">
        <ele>242</ele>
        <time>2020-10-31T09:33:33.000Z</time>
      </trkpt>
      <trkpt lat="49.7838" lon="4.82321">
        <ele>242</ele>
        <time>2020-10-31T09:33:34.000Z</time>
      </trkpt>
      <trkpt lat="49.7838" lon="4.82325">
        <ele>243</ele>
        <time>2020-10-31T09:33:35.000Z</time>
      </trkpt>
      <trkpt lat="49.7838" lon="4.82327">
        <ele>243</ele>
        <time>2020-10-31T09:33:36.000Z</time>
      </trkpt>
      <trkpt lat="49.7838" lon="4.8233">
        <ele>243</ele>
        <time>2020-10-31T09:33:37.000Z</time>
      </trkpt>
      <trkpt lat="49.7838" lon="4.82333">
        <ele>243</ele>
        <time>2020-10-31T09:33:38.000Z</time>
      </trkpt>
      <trkpt lat="49.7838" lon="4.82337">
        <ele>243</ele>
        <time>2020-10-31T09:33:39.000Z</time>
      </trkpt>
      <trkpt lat="49.7838" lon="4.8234">
        <ele>243</ele>
        <time>2020-10-31T09:33:40.000Z</time>
      </trkpt>
      <trkpt lat="49.7838" lon="4.82344">
        <ele>243</ele>
        <time>2020-10-31T09:33:41.000Z</time>
      </trkpt>
      <trkpt lat="49.78379" lon="4.82348">
        <ele>244</ele>
        <time>2020-10-31T09:33:42.000Z</time>
      </trkpt>
      <trkpt lat="49.78379" lon="4.82352">
        <ele>244</ele>
        <time>2020-10-31T09:33:43.000Z</time>
      </trkpt>
      <trkpt lat="49.78378" lon="4.82355">
        <ele>244</ele>
        <time>2020-10-31T09:33:44.000Z</time>
      </trkpt>
      <trkpt lat="49.78378" lon="4.82359">
        <ele>244</ele>
        <time>2020-10-31T09:33:45.000Z</time>
      </trkpt>
      <trkpt lat="49.78377" lon="4.82363">
        <ele>244</ele>
        <time>2020-10-31T09:33:46.000Z</time>
      </trkpt>
      <trkpt lat="49.78377" lon="4.82367">
        <ele>244</ele>
        <time>2020-10-31T09:33:47.000Z</time>
      </trkpt>
      <trkpt lat="49.78376" lon="4.82371">
        <ele>244</ele>
        <time>2020-10-31T09:33:48.000Z</time>
      </trkpt>
      <trkpt lat="49.78376" lon="4.82374">
        <ele>245</ele>
        <time>2020-10-31T09:33:49.000Z</time>
      </trkpt>
      <trkpt lat="49.78375" lon="4.82378">
        <ele>245</ele>
        <time>2020-10-31T09:33:50.000Z</time>
      </trkpt>
      <trkpt lat="49.78375" lon="4.82382">
        <ele>245</ele>
        <time>2020-10-31T09:33:51.000Z</time>
      </trkpt>
      <trkpt lat="49.78374" lon="4.82386">
        <ele>245</ele>
        <time>2020-10-31T09:33:52.000Z</time>
      </trkpt>
      <trkpt lat="49.78373" lon="4.8239">
        <ele>245</ele>
        <time>2020-10-31T09:33:53.000Z</time>
      </trkpt>
      <trkpt lat="49.78371" lon="4.82394">
        <ele>245</ele>
        <time>2020-10-31T09:33:54.000Z</time>
      </trkpt>
      <trkpt lat="49.78369" lon="4.82398">
        <ele>245</ele>
        <time>2020-10-31T09:33:55.000Z</time>
      </trkpt>
      <trkpt lat="49.78368" lon="4.82402">
        <ele>245</ele>
        <time>2020-10-31T09:33:56.000Z</time>
      </trkpt>
      <trkpt lat="49.78367" lon="4.82405">
        <ele>245</ele>
        <time>2020-10-31T09:33:57.000Z</time>
      </trkpt>
      <trkpt lat="49.78366" lon="4.82408">
        <ele>246</ele>
        <time>2020-10-31T09:33:58.000Z</time>
      </trkpt>
      <trkpt lat="49.78365" lon="4.8241">
        <ele>246</ele>
        <time>2020-10-31T09:33:59.000Z</time>
      </trkpt>
      <trkpt lat="49.78363" lon="4.82413">
        <ele>246</ele>
        <time>2020-10-31T09:34:00.000Z</time>
      </trkpt>
      <trkpt lat="49.78362" lon="4.82416">
        <ele>246</ele>
        <time>2020-10-31T09:34:01.000Z</time>
      </trkpt>
      <trkpt lat="49.78361" lon="4.82419">
        <ele>246</ele>
        <time>2020-10-31T09:34:02.000Z</time>
      </trkpt>
      <trkpt lat="49.78359" lon="4.82423">
        <ele>245</ele>
        <time>2020-10-31T09:34:03.000Z</time>
      </trkpt>
      <trkpt lat="49.78357" lon="4.82426">
        <ele>245</ele>
        <time>2020-10-31T09:34:04.000Z</time>
      </trkpt>
      <trkpt lat="49.78355" lon="4.82431">
        <ele>245</ele>
        <time>2020-10-31T09:34:05.000Z</time>
      </trkpt>
      <trkpt lat="49.78353" lon="4.82435">
        <ele>245</ele>
        <time>2020-10-31T09:34:06.000Z</time>
      </trkpt>
      <trkpt lat="49.78351" lon="4.8244">
        <ele>245</ele>
        <time>2020-10-31T09:34:07.000Z</time>
      </trkpt>
      <trkpt lat="49.78349" lon="4.82444">
        <ele>245</ele>
        <time>2020-10-31T09:34:08.000Z</time>
      </trkpt>
      <trkpt lat="49.78347" lon="4.82448">
        <ele>245</ele>
        <time>2020-10-31T09:34:09.000Z</time>
      </trkpt>
      <trkpt lat="49.78345" lon="4.82451">
        <ele>244</ele>
        <time>2020-10-31T09:34:10.000Z</time>
      </trkpt>
      <trkpt lat="49.78344" lon="4.82453">
        <ele>244</ele>
        <time>2020-10-31T09:34:11.000Z</time>
      </trkpt>
      <trkpt lat="49.78342" lon="4.82455">
        <ele>244</ele>
        <time>2020-10-31T09:34:12.000Z</time>
      </trkpt>
      <trkpt lat="49.78341" lon="4.82457">
        <ele>244</ele>
        <time>2020-10-31T09:34:13.000Z</time>
      </trkpt>
      <trkpt lat="49.78339" lon="4.82459">
        <ele>244</ele>
        <time>2020-10-31T09:34:14.000Z</time>
      </trkpt>
      <trkpt lat="49.78337" lon="4.82461">
        <ele>244</ele>
        <time>2020-10-31T09:34:15.000Z</time>
      </trkpt>
      <trkpt lat="49.78336" lon="4.82464">
        <ele>244</ele>
        <time>2020-10-31T09:34:16.000Z</time>
      </trkpt>
      <trkpt lat="49.78333" lon="4.82466">
        <ele>244</ele>
        <time>2020-10-31T09:34:17.000Z</time>
      </trkpt>
      <trkpt lat="49.78331" lon="4.82468">
        <ele>244</ele>
        <time>2020-10-31T09:34:18.000Z</time>
      </trkpt>
      <trkpt lat="49.78329" lon="4.8247">
        <ele>244</ele>
        <time>2020-10-31T09:34:19.000Z</time>
      </trkpt>
      <trkpt lat="49.78327" lon="4.82472">
        <ele>244</ele>
        <time>2020-10-31T09:34:20.000Z</time>
      </trkpt>
      <trkpt lat="49.78324" lon="4.82475">
        <ele>244</ele>
        <time>2020-10-31T09:34:21.000Z</time>
      </trkpt>
      <trkpt lat="49.78322" lon="4.82477">
        <ele>245</ele>
        <time>2020-10-31T09:34:22.000Z</time>
      </trkpt>
      <trkpt lat="49.7832" lon="4.8248">
        <ele>245</ele>
        <time>2020-10-31T09:34:23.000Z</time>
      </trkpt>
      <trkpt lat="49.78318" lon="4.82482">
        <ele>245</ele>
        <time>2020-10-31T09:34:24.000Z</time>
      </trkpt>
      <trkpt lat="49.78316" lon="4.82485">
        <ele>245</ele>
        <time>2020-10-31T09:34:25.000Z</time>
      </trkpt>
      <trkpt lat="49.78314" lon="4.82489">
        <ele>245</ele>
        <time>2020-10-31T09:34:26.000Z</time>
      </trkpt>
      <trkpt lat="49.78311" lon="4.82493">
        <ele>245</ele>
        <time>2020-10-31T09:34:27.000Z</time>
      </trkpt>
      <trkpt lat="49.78309" lon="4.82496">
        <ele>245</ele>
        <time>2020-10-31T09:34:28.000Z</time>
      </trkpt>
      <trkpt lat="49.78307" lon="4.825">
        <ele>245</ele>
        <time>2020-10-31T09:34:29.000Z</time>
      </trkpt>
      <trkpt lat="49.78305" lon="4.82504">
        <ele>245</ele>
        <time>2020-10-31T09:34:30.000Z</time>
      </trkpt>
      <trkpt lat="49.78303" lon="4.82508">
        <ele>245</ele>
        <time>2020-10-31T09:34:31.000Z</time>
      </trkpt>
      <trkpt lat="49.78301" lon="4.82512">
        <ele>245</ele>
        <time>2020-10-31T09:34:32.000Z</time>
      </trkpt>
      <trkpt lat="49.78299" lon="4.82516">
        <ele>245</ele>
        <time>2020-10-31T09:34:33.000Z</time>
      </trkpt>
      <trkpt lat="49.78298" lon="4.8252">
        <ele>244</ele>
        <time>2020-10-31T09:34:34.000Z</time>
      </trkpt>
      <trkpt lat="49.78296" lon="4.82523">
        <ele>244</ele>
        <time>2020-10-31T09:34:35.000Z</time>
      </trkpt>
      <trkpt lat="49.78295" lon="4.82526">
        <ele>244</ele>
        <time>2020-10-31T09:34:36.000Z</time>
      </trkpt>
      <trkpt lat="49.78293" lon="4.8253">
        <ele>244</ele>
        <time>2020-10-31T09:34:37.000Z</time>
      </trkpt>
      <trkpt lat="49.78291" lon="4.82534">
        <ele>244</ele>
        <time>2020-10-31T09:34:38.000Z</time>
      </trkpt>
      <trkpt lat="49.7829" lon="4.82538">
        <ele>245</ele>
        <time>2020-10-31T09:34:39.000Z</time>
      </trkpt>
      <trkpt lat="49.78288" lon="4.82542">
        <ele>245</ele>
        <time>2020-10-31T09:34:40.000Z</time>
      </trkpt>
      <trkpt lat="49.78286" lon="4.82545">
        <ele>245</ele>
        <time>2020-10-31T09:34:41.000Z</time>
      </trkpt>
      <trkpt lat="49.78285" lon="4.82549">
        <ele>245</ele>
        <time>2020-10-31T09:34:42.000Z</time>
      </trkpt>
      <trkpt lat="49.78283" lon="4.82553">
        <ele>245</ele>
        <time>2020-10-31T09:34:43.000Z</time>
      </trkpt>
      <trkpt lat="49.78281" lon="4.82557">
        <ele>245</ele>
        <time>2020-10-31T09:34:44.000Z</time>
      </trkpt>
      <trkpt lat="49.78279" lon="4.82561">
        <ele>245</ele>
        <time>2020-10-31T09:34:45.000Z</time>
      </trkpt>
      <trkpt lat="49.78278" lon="4.82566">
        <ele>245</ele>
        <time>2020-10-31T09:34:46.000Z</time>
      </trkpt>
      <trkpt lat="49.78276" lon="4.82571">
        <ele>245</ele>
        <time>2020-10-31T09:34:47.000Z</time>
      </trkpt>
      <trkpt lat="49.78275" lon="4.82576">
        <ele>245</ele>
        <time>2020-10-31T09:34:48.000Z</time>
      </trkpt>
      <trkpt lat="49.78273" lon="4.82581">
        <ele>245</ele>
        <time>2020-10-31T09:34:49.000Z</time>
      </trkpt>
      <trkpt lat="49.78272" lon="4.82585">
        <ele>245</ele>
        <time>2020-10-31T09:34:50.000Z</time>
      </trkpt>
      <trkpt lat="49.78271" lon="4.82591">
        <ele>245</ele>
        <time>2020-10-31T09:34:51.000Z</time>
      </trkpt>
      <trkpt lat="49.7827" lon="4.82596">
        <ele>245</ele>
        <time>2020-10-31T09:34:52.000Z</time>
      </trkpt>
      <trkpt lat="49.78269" lon="4.82601">
        <ele>245</ele>
        <time>2020-10-31T09:34:53.000Z</time>
      </trkpt>
      <trkpt lat="49.78267" lon="4.82608">
        <ele>245</ele>
        <time>2020-10-31T09:34:54.000Z</time>
      </trkpt>
      <trkpt lat="49.78266" lon="4.82615">
        <ele>246</ele>
        <time>2020-10-31T09:34:55.000Z</time>
      </trkpt>
      <trkpt lat="49.78264" lon="4.82621">
        <ele>246</ele>
        <time>2020-10-31T09:34:56.000Z</time>
      </trkpt>
      <trkpt lat="49.78263" lon="4.82627">
        <ele>246</ele>
        <time>2020-10-31T09:34:57.000Z</time>
      </trkpt>
      <trkpt lat="49.78262" lon="4.82633">
        <ele>246</ele>
        <time>2020-10-31T09:34:58.000Z</time>
      </trkpt>
      <trkpt lat="49.78261" lon="4.82639">
        <ele>246</ele>
        <time>2020-10-31T09:34:59.000Z</time>
      </trkpt>
      <trkpt lat="49.7826" lon="4.82645">
        <ele>246</ele>
        <time>2020-10-31T09:35:00.000Z</time>
      </trkpt>
      <trkpt lat="49.78258" lon="4.82651">
        <ele>246</ele>
        <time>2020-10-31T09:35:01.000Z</time>
      </trkpt>
      <trkpt lat="49.78257" lon="4.82657">
        <ele>246</ele>
        <time>2020-10-31T09:35:02.000Z</time>
      </trkpt>
      <trkpt lat="49.78255" lon="4.82663">
        <ele>246</ele>
        <time>2020-10-31T09:35:03.000Z</time>
      </trkpt>
      <trkpt lat="49.78253" lon="4.8267">
        <ele>246</ele>
        <time>2020-10-31T09:35:04.000Z</time>
      </trkpt>
      <trkpt lat="49.78251" lon="4.82677">
        <ele>246</ele>
        <time>2020-10-31T09:35:05.000Z</time>
      </trkpt>
      <trkpt lat="49.78249" lon="4.82685">
        <ele>246</ele>
        <time>2020-10-31T09:35:06.000Z</time>
      </trkpt>
      <trkpt lat="49.78247" lon="4.82692">
        <ele>246</ele>
        <time>2020-10-31T09:35:07.000Z</time>
      </trkpt>
      <trkpt lat="49.78245" lon="4.827">
        <ele>246</ele>
        <time>2020-10-31T09:35:08.000Z</time>
      </trkpt>
      <trkpt lat="49.78243" lon="4.82707">
        <ele>246</ele>
        <time>2020-10-31T09:35:09.000Z</time>
      </trkpt>
      <trkpt lat="49.78242" lon="4.82714">
        <ele>246</ele>
        <time>2020-10-31T09:35:10.000Z</time>
      </trkpt>
      <trkpt lat="49.7824" lon="4.82722">
        <ele>246</ele>
        <time>2020-10-31T09:35:11.000Z</time>
      </trkpt>
      <trkpt lat="49.78238" lon="4.82729">
        <ele>246</ele>
        <time>2020-10-31T09:35:12.000Z</time>
      </trkpt>
      <trkpt lat="49.78236" lon="4.82737">
        <ele>246</ele>
        <time>2020-10-31T09:35:13.000Z</time>
      </trkpt>
      <trkpt lat="49.78233" lon="4.82746">
        <ele>246</ele>
        <time>2020-10-31T09:35:14.000Z</time>
      </trkpt>
      <trkpt lat="49.78231" lon="4.82754">
        <ele>246</ele>
        <time>2020-10-31T09:35:15.000Z</time>
      </trkpt>
      <trkpt lat="49.78229" lon="4.82761">
        <ele>246</ele>
        <time>2020-10-31T09:35:16.000Z</time>
      </trkpt>
      <trkpt lat="49.78227" lon="4.82769">
        <ele>246</ele>
        <time>2020-10-31T09:35:17.000Z</time>
      </trkpt>
      <trkpt lat="49.78225" lon="4.82776">
        <ele>246</ele>
        <time>2020-10-31T09:35:18.000Z</time>
      </trkpt>
      <trkpt lat="49.78222" lon="4.82784">
        <ele>246</ele>
        <time>2020-10-31T09:35:19.000Z</time>
      </trkpt>
      <trkpt lat="49.78219" lon="4.82793">
        <ele>246</ele>
        <time>2020-10-31T09:35:20.000Z</time>
      </trkpt>
      <trkpt lat="49.78217" lon="4.82802">
        <ele>246</ele>
        <time>2020-10-31T09:35:21.000Z</time>
      </trkpt>
      <trkpt lat="49.78215" lon="4.8281">
        <ele>246</ele>
        <time>2020-10-31T09:35:22.000Z</time>
      </trkpt>
      <trkpt lat="49.78212" lon="4.82819">
        <ele>246</ele>
        <time>2020-10-31T09:35:23.000Z</time>
      </trkpt>
      <trkpt lat="49.7821" lon="4.82827">
        <ele>246</ele>
        <time>2020-10-31T09:35:24.000Z</time>
      </trkpt>
      <trkpt lat="49.78207" lon="4.82835">
        <ele>246</ele>
        <time>2020-10-31T09:35:25.000Z</time>
      </trkpt>
      <trkpt lat="49.78205" lon="4.82842">
        <ele>246</ele>
        <time>2020-10-31T09:35:26.000Z</time>
      </trkpt>
      <trkpt lat="49.78202" lon="4.82849">
        <ele>246</ele>
        <time>2020-10-31T09:35:27.000Z</time>
      </trkpt>
      <trkpt lat="49.782" lon="4.82855">
        <ele>246</ele>
        <time>2020-10-31T09:35:28.000Z</time>
      </trkpt>
      <trkpt lat="49.78197" lon="4.82861">
        <ele>246</ele>
        <time>2020-10-31T09:35:29.000Z</time>
      </trkpt>
      <trkpt lat="49.78194" lon="4.82866">
        <ele>246</ele>
        <time>2020-10-31T09:35:30.000Z</time>
      </trkpt>
      <trkpt lat="49.78191" lon="4.82872">
        <ele>247</ele>
        <time>2020-10-31T09:35:31.000Z</time>
      </trkpt>
      <trkpt lat="49.78187" lon="4.82878">
        <ele>247</ele>
        <time>2020-10-31T09:35:32.000Z</time>
      </trkpt>
      <trkpt lat="49.78184" lon="4.82884">
        <ele>247</ele>
        <time>2020-10-31T09:35:33.000Z</time>
      </trkpt>
      <trkpt lat="49.7818" lon="4.82891">
        <ele>247</ele>
        <time>2020-10-31T09:35:34.000Z</time>
      </trkpt>
      <trkpt lat="49.78177" lon="4.82897">
        <ele>247</ele>
        <time>2020-10-31T09:35:35.000Z</time>
      </trkpt>
      <trkpt lat="49.78175" lon="4.82904">
        <ele>247</ele>
        <time>2020-10-31T09:35:36.000Z</time>
      </trkpt>
      <trkpt lat="49.78172" lon="4.82911">
        <ele>247</ele>
        <time>2020-10-31T09:35:37.000Z</time>
      </trkpt>
      <trkpt lat="49.7817" lon="4.82917">
        <ele>246</ele>
        <time>2020-10-31T09:35:38.000Z</time>
      </trkpt>
      <trkpt lat="49.78168" lon="4.82924">
        <ele>246</ele>
        <time>2020-10-31T09:35:39.000Z</time>
      </trkpt>
      <trkpt lat="49.78166" lon="4.8293">
        <ele>246</ele>
        <time>2020-10-31T09:35:40.000Z</time>
      </trkpt>
      <trkpt lat="49.78164" lon="4.82937">
        <ele>246</ele>
        <time>2020-10-31T09:35:41.000Z</time>
      </trkpt>
      <trkpt lat="49.78162" lon="4.82943">
        <ele>246</ele>
        <time>2020-10-31T09:35:42.000Z</time>
      </trkpt>
      <trkpt lat="49.7816" lon="4.82949">
        <ele>245</ele>
        <time>2020-10-31T09:35:43.000Z</time>
      </trkpt>
      <trkpt lat="49.78158" lon="4.82956">
        <ele>245</ele>
        <time>2020-10-31T09:35:44.000Z</time>
      </trkpt>
      <trkpt lat="49.78157" lon="4.82964">
        <ele>245</ele>
        <time>2020-10-31T09:35:45.000Z</time>
      </trkpt>
      <trkpt lat="49.78155" lon="4.82972">
        <ele>245</ele>
        <time>2020-10-31T09:35:46.000Z</time>
      </trkpt>
      <trkpt lat="49.78154" lon="4.82978">
        <ele>245</ele>
        <time>2020-10-31T09:35:47.000Z</time>
      </trkpt>
      <trkpt lat="49.78153" lon="4.82984">
        <ele>245</ele>
        <time>2020-10-31T09:35:48.000Z</time>
      </trkpt>
      <trkpt lat="49.78153" lon="4.82988">
        <ele>245</ele>
        <time>2020-10-31T09:35:49.000Z</time>
      </trkpt>
      <trkpt lat="49.78152" lon="4.82992">
        <ele>244</ele>
        <time>2020-10-31T09:35:50.000Z</time>
      </trkpt>
      <trkpt lat="49.78152" lon="4.82995">
        <ele>244</ele>
        <time>2020-10-31T09:35:51.000Z</time>
      </trkpt>
      <trkpt lat="49.78152" lon="4.83">
        <ele>244</ele>
        <time>2020-10-31T09:35:52.000Z</time>
      </trkpt>
      <trkpt lat="49.78152" lon="4.83005">
        <ele>244</ele>
        <time>2020-10-31T09:35:53.000Z</time>
      </trkpt>
      <trkpt lat="49.78152" lon="4.83011">
        <ele>244</ele>
        <time>2020-10-31T09:35:54.000Z</time>
      </trkpt>
      <trkpt lat="49.78151" lon="4.83018">
        <ele>244</ele>
        <time>2020-10-31T09:35:55.000Z</time>
      </trkpt>
      <trkpt lat="49.78151" lon="4.83024">
        <ele>244</ele>
        <time>2020-10-31T09:35:56.000Z</time>
      </trkpt>
      <trkpt lat="49.78151" lon="4.83031">
        <ele>244</ele>
        <time>2020-10-31T09:35:57.000Z</time>
      </trkpt>
      <trkpt lat="49.7815" lon="4.83037">
        <ele>244</ele>
        <time>2020-10-31T09:35:58.000Z</time>
      </trkpt>
      <trkpt lat="49.78151" lon="4.83044">
        <ele>243</ele>
        <time>2020-10-31T09:35:59.000Z</time>
      </trkpt>
      <trkpt lat="49.78151" lon="4.83051">
        <ele>243</ele>
        <time>2020-10-31T09:36:00.000Z</time>
      </trkpt>
      <trkpt lat="49.78151" lon="4.83058">
        <ele>243</ele>
        <time>2020-10-31T09:36:01.000Z</time>
      </trkpt>
      <trkpt lat="49.78151" lon="4.83065">
        <ele>243</ele>
        <time>2020-10-31T09:36:02.000Z</time>
      </trkpt>
      <trkpt lat="49.78151" lon="4.83073">
        <ele>242</ele>
        <time>2020-10-31T09:36:03.000Z</time>
      </trkpt>
      <trkpt lat="49.78151" lon="4.83081">
        <ele>242</ele>
        <time>2020-10-31T09:36:04.000Z</time>
      </trkpt>
      <trkpt lat="49.7815" lon="4.83089">
        <ele>242</ele>
        <time>2020-10-31T09:36:05.000Z</time>
      </trkpt>
      <trkpt lat="49.7815" lon="4.83097">
        <ele>242</ele>
        <time>2020-10-31T09:36:06.000Z</time>
      </trkpt>
      <trkpt lat="49.78151" lon="4.83106">
        <ele>242</ele>
        <time>2020-10-31T09:36:07.000Z</time>
      </trkpt>
      <trkpt lat="49.78152" lon="4.83114">
        <ele>241</ele>
        <time>2020-10-31T09:36:08.000Z</time>
      </trkpt>
      <trkpt lat="49.78153" lon="4.83122">
        <ele>241</ele>
        <time>2020-10-31T09:36:09.000Z</time>
      </trkpt>
      <trkpt lat="49.78155" lon="4.83129">
        <ele>241</ele>
        <time>2020-10-31T09:36:10.000Z</time>
      </trkpt>
      <trkpt lat="49.78156" lon="4.83138">
        <ele>241</ele>
        <time>2020-10-31T09:36:11.000Z</time>
      </trkpt>
      <trkpt lat="49.78156" lon="4.83146">
        <ele>240</ele>
        <time>2020-10-31T09:36:12.000Z</time>
      </trkpt>
      <trkpt lat="49.78156" lon="4.83155">
        <ele>240</ele>
        <time>2020-10-31T09:36:13.000Z</time>
      </trkpt>
      <trkpt lat="49.78156" lon="4.83162">
        <ele>240</ele>
        <time>2020-10-31T09:36:14.000Z</time>
      </trkpt>
      <trkpt lat="49.78155" lon="4.83167">
        <ele>240</ele>
        <time>2020-10-31T09:36:15.000Z</time>
      </trkpt>
      <trkpt lat="49.78154" lon="4.83171">
        <ele>240</ele>
        <time>2020-10-31T09:36:16.000Z</time>
      </trkpt>
      <trkpt lat="49.78152" lon="4.83175">
        <ele>239</ele>
        <time>2020-10-31T09:36:17.000Z</time>
      </trkpt>
      <trkpt lat="49.7815" lon="4.83179">
        <ele>239</ele>
        <time>2020-10-31T09:36:18.000Z</time>
      </trkpt>
      <trkpt lat="49.78149" lon="4.83182">
        <ele>238</ele>
        <time>2020-10-31T09:36:19.000Z</time>
      </trkpt>
      <trkpt lat="49.78146" lon="4.83184">
        <ele>238</ele>
        <time>2020-10-31T09:36:20.000Z</time>
      </trkpt>
      <trkpt lat="49.78144" lon="4.83185">
        <ele>238</ele>
        <time>2020-10-31T09:36:21.000Z</time>
      </trkpt>
      <trkpt lat="49.78141" lon="4.83186">
        <ele>237</ele>
        <time>2020-10-31T09:36:22.000Z</time>
      </trkpt>
      <trkpt lat="49.78139" lon="4.83187">
        <ele>237</ele>
        <time>2020-10-31T09:36:23.000Z</time>
      </trkpt>
      <trkpt lat="49.78136" lon="4.83189">
        <ele>237</ele>
        <time>2020-10-31T09:36:24.000Z</time>
      </trkpt>
      <trkpt lat="49.78133" lon="4.8319">
        <ele>237</ele>
        <time>2020-10-31T09:36:25.000Z</time>
      </trkpt>
      <trkpt lat="49.78129" lon="4.83191">
        <ele>236</ele>
        <time>2020-10-31T09:36:26.000Z</time>
      </trkpt>
      <trkpt lat="49.78125" lon="4.83193">
        <ele>236</ele>
        <time>2020-10-31T09:36:27.000Z</time>
      </trkpt>
      <trkpt lat="49.78121" lon="4.83194">
        <ele>236</ele>
        <time>2020-10-31T09:36:28.000Z</time>
      </trkpt>
      <trkpt lat="49.78118" lon="4.83194">
        <ele>236</ele>
        <time>2020-10-31T09:36:29.000Z</time>
      </trkpt>
      <trkpt lat="49.78114" lon="4.83195">
        <ele>236</ele>
        <time>2020-10-31T09:36:30.000Z</time>
      </trkpt>
      <trkpt lat="49.78111" lon="4.83196">
        <ele>235</ele>
        <time>2020-10-31T09:36:31.000Z</time>
      </trkpt>
      <trkpt lat="49.78108" lon="4.83198">
        <ele>235</ele>
        <time>2020-10-31T09:36:32.000Z</time>
      </trkpt>
      <trkpt lat="49.78104" lon="4.83199">
        <ele>235</ele>
        <time>2020-10-31T09:36:33.000Z</time>
      </trkpt>
      <trkpt lat="49.781" lon="4.832">
        <ele>235</ele>
        <time>2020-10-31T09:36:34.000Z</time>
      </trkpt>
      <trkpt lat="49.78097" lon="4.83201">
        <ele>235</ele>
        <time>2020-10-31T09:36:35.000Z</time>
      </trkpt>
      <trkpt lat="49.78094" lon="4.83202">
        <ele>234</ele>
        <time>2020-10-31T09:36:36.000Z</time>
      </trkpt>
      <trkpt lat="49.78091" lon="4.83202">
        <ele>234</ele>
        <time>2020-10-31T09:36:37.000Z</time>
      </trkpt>
      <trkpt lat="49.78088" lon="4.83202">
        <ele>234</ele>
        <time>2020-10-31T09:36:38.000Z</time>
      </trkpt>
      <trkpt lat="49.78085" lon="4.83204">
        <ele>233</ele>
        <time>2020-10-31T09:36:39.000Z</time>
      </trkpt>
      <trkpt lat="49.78084" lon="4.83206">
        <ele>233</ele>
        <time>2020-10-31T09:36:40.000Z</time>
      </trkpt>
      <trkpt lat="49.78083" lon="4.83209">
        <ele>233</ele>
        <time>2020-10-31T09:36:41.000Z</time>
      </trkpt>
      <trkpt lat="49.78083" lon="4.83213">
        <ele>232</ele>
        <time>2020-10-31T09:36:42.000Z</time>
      </trkpt>
      <trkpt lat="49.78083" lon="4.83217">
        <ele>232</ele>
        <time>2020-10-31T09:36:43.000Z</time>
      </trkpt>
      <trkpt lat="49.78084" lon="4.83221">
        <ele>231</ele>
        <time>2020-10-31T09:36:44.000Z</time>
      </trkpt>
      <trkpt lat="49.78086" lon="4.83226">
        <ele>231</ele>
        <time>2020-10-31T09:36:45.000Z</time>
      </trkpt>
      <trkpt lat="49.78088" lon="4.83232">
        <ele>230</ele>
        <time>2020-10-31T09:36:46.000Z</time>
      </trkpt>
      <trkpt lat="49.7809" lon="4.83238">
        <ele>230</ele>
        <time>2020-10-31T09:36:47.000Z</time>
      </trkpt>
      <trkpt lat="49.78093" lon="4.83244">
        <ele>229</ele>
        <time>2020-10-31T09:36:48.000Z</time>
      </trkpt>
      <trkpt lat="49.78096" lon="4.83252">
        <ele>229</ele>
        <time>2020-10-31T09:36:49.000Z</time>
      </trkpt>
      <trkpt lat="49.781" lon="4.8326">
        <ele>228</ele>
        <time>2020-10-31T09:36:50.000Z</time>
      </trkpt>
      <trkpt lat="49.78105" lon="4.83269">
        <ele>228</ele>
        <time>2020-10-31T09:36:51.000Z</time>
      </trkpt>
      <trkpt lat="49.78109" lon="4.83278">
        <ele>227</ele>
        <time>2020-10-31T09:36:52.000Z</time>
      </trkpt>
      <trkpt lat="49.78114" lon="4.83288">
        <ele>226</ele>
        <time>2020-10-31T09:36:53.000Z</time>
      </trkpt>
      <trkpt lat="49.78118" lon="4.83298">
        <ele>225</ele>
        <time>2020-10-31T09:36:54.000Z</time>
      </trkpt>
      <trkpt lat="49.78123" lon="4.83309">
        <ele>225</ele>
        <time>2020-10-31T09:36:55.000Z</time>
      </trkpt>
      <trkpt lat="49.78127" lon="4.83319">
        <ele>224</ele>
        <time>2020-10-31T09:36:56.000Z</time>
      </trkpt>
      <trkpt lat="49.78132" lon="4.83329">
        <ele>223</ele>
        <time>2020-10-31T09:36:57.000Z</time>
      </trkpt>
      <trkpt lat="49.78136" lon="4.83339">
        <ele>222</ele>
        <time>2020-10-31T09:36:58.000Z</time>
      </trkpt>
      <trkpt lat="49.78141" lon="4.83349">
        <ele>221</ele>
        <time>2020-10-31T09:36:59.000Z</time>
      </trkpt>
      <trkpt lat="49.78145" lon="4.83359">
        <ele>220</ele>
        <time>2020-10-31T09:37:00.000Z</time>
      </trkpt>
      <trkpt lat="49.78148" lon="4.83367">
        <ele>220</ele>
        <time>2020-10-31T09:37:01.000Z</time>
      </trkpt>
      <trkpt lat="49.78151" lon="4.83374">
        <ele>219</ele>
        <time>2020-10-31T09:37:02.000Z</time>
      </trkpt>
      <trkpt lat="49.78153" lon="4.8338">
        <ele>218</ele>
        <time>2020-10-31T09:37:03.000Z</time>
      </trkpt>
      <trkpt lat="49.78155" lon="4.83386">
        <ele>218</ele>
        <time>2020-10-31T09:37:04.000Z</time>
      </trkpt>
      <trkpt lat="49.78155" lon="4.83394">
        <ele>217</ele>
        <time>2020-10-31T09:37:05.000Z</time>
      </trkpt>
      <trkpt lat="49.78155" lon="4.83401">
        <ele>217</ele>
        <time>2020-10-31T09:37:06.000Z</time>
      </trkpt>
      <trkpt lat="49.78155" lon="4.83408">
        <ele>217</ele>
        <time>2020-10-31T09:37:07.000Z</time>
      </trkpt>
      <trkpt lat="49.78155" lon="4.83416">
        <ele>216</ele>
        <time>2020-10-31T09:37:08.000Z</time>
      </trkpt>
      <trkpt lat="49.78156" lon="4.83423">
        <ele>216</ele>
        <time>2020-10-31T09:37:09.000Z</time>
      </trkpt>
      <trkpt lat="49.78156" lon="4.83431">
        <ele>216</ele>
        <time>2020-10-31T09:37:10.000Z</time>
      </trkpt>
      <trkpt lat="49.78156" lon="4.83439">
        <ele>216</ele>
        <time>2020-10-31T09:37:11.000Z</time>
      </trkpt>
      <trkpt lat="49.78156" lon="4.83447">
        <ele>216</ele>
        <time>2020-10-31T09:37:12.000Z</time>
      </trkpt>
      <trkpt lat="49.78156" lon="4.83456">
        <ele>216</ele>
        <time>2020-10-31T09:37:13.000Z</time>
      </trkpt>
      <trkpt lat="49.78156" lon="4.83465">
        <ele>216</ele>
        <time>2020-10-31T09:37:14.000Z</time>
      </trkpt>
      <trkpt lat="49.78156" lon="4.83473">
        <ele>216</ele>
        <time>2020-10-31T09:37:15.000Z</time>
      </trkpt>
      <trkpt lat="49.78155" lon="4.8348">
        <ele>216</ele>
        <time>2020-10-31T09:37:16.000Z</time>
      </trkpt>
      <trkpt lat="49.78154" lon="4.83486">
        <ele>216</ele>
        <time>2020-10-31T09:37:17.000Z</time>
      </trkpt>
      <trkpt lat="49.78152" lon="4.83491">
        <ele>216</ele>
        <time>2020-10-31T09:37:18.000Z</time>
      </trkpt>
      <trkpt lat="49.78151" lon="4.83495">
        <ele>216</ele>
        <time>2020-10-31T09:37:19.000Z</time>
      </trkpt>
      <trkpt lat="49.7815" lon="4.835">
        <ele>216</ele>
        <time>2020-10-31T09:37:20.000Z</time>
      </trkpt>
      <trkpt lat="49.78149" lon="4.83505">
        <ele>215</ele>
        <time>2020-10-31T09:37:21.000Z</time>
      </trkpt>
      <trkpt lat="49.78149" lon="4.8351">
        <ele>215</ele>
        <time>2020-10-31T09:37:22.000Z</time>
      </trkpt>
      <trkpt lat="49.78149" lon="4.83514">
        <ele>215</ele>
        <time>2020-10-31T09:37:23.000Z</time>
      </trkpt>
      <trkpt lat="49.78149" lon="4.83518">
        <ele>215</ele>
        <time>2020-10-31T09:37:24.000Z</time>
      </trkpt>
      <trkpt lat="49.7815" lon="4.83522">
        <ele>215</ele>
        <time>2020-10-31T09:37:25.000Z</time>
      </trkpt>
      <trkpt lat="49.7815" lon="4.83527">
        <ele>215</ele>
        <time>2020-10-31T09:37:26.000Z</time>
      </trkpt>
      <trkpt lat="49.78151" lon="4.83531">
        <ele>215</ele>
        <time>2020-10-31T09:37:27.000Z</time>
      </trkpt>
      <trkpt lat="49.78153" lon="4.83537">
        <ele>215</ele>
        <time>2020-10-31T09:37:28.000Z</time>
      </trkpt>
      <trkpt lat="49.78155" lon="4.83542">
        <ele>215</ele>
        <time>2020-10-31T09:37:29.000Z</time>
      </trkpt>
      <trkpt lat="49.78158" lon="4.83547">
        <ele>214</ele>
        <time>2020-10-31T09:37:30.000Z</time>
      </trkpt>
      <trkpt lat="49.7816" lon="4.83551">
        <ele>214</ele>
        <time>2020-10-31T09:37:31.000Z</time>
      </trkpt>
      <trkpt lat="49.78163" lon="4.83554">
        <ele>214</ele>
        <time>2020-10-31T09:37:32.000Z</time>
      </trkpt>
      <trkpt lat="49.78167" lon="4.83556">
        <ele>213</ele>
        <time>2020-10-31T09:37:33.000Z</time>
      </trkpt>
      <trkpt lat="49.7817" lon="4.83559">
        <ele>213</ele>
        <time>2020-10-31T09:37:34.000Z</time>
      </trkpt>
      <trkpt lat="49.78173" lon="4.83563">
        <ele>213</ele>
        <time>2020-10-31T09:37:35.000Z</time>
      </trkpt>
      <trkpt lat="49.78175" lon="4.83569">
        <ele>213</ele>
        <time>2020-10-31T09:37:36.000Z</time>
      </trkpt>
      <trkpt lat="49.78177" lon="4.83573">
        <ele>213</ele>
        <time>2020-10-31T09:37:37.000Z</time>
      </trkpt>
      <trkpt lat="49.78178" lon="4.83577">
        <ele>212</ele>
        <time>2020-10-31T09:37:38.000Z</time>
      </trkpt>
      <trkpt lat="49.78179" lon="4.8358">
        <ele>212</ele>
        <time>2020-10-31T09:37:39.000Z</time>
      </trkpt>
      <trkpt lat="49.78181" lon="4.83583">
        <ele>212</ele>
        <time>2020-10-31T09:37:40.000Z</time>
      </trkpt>
      <trkpt lat="49.78183" lon="4.83587">
        <ele>212</ele>
        <time>2020-10-31T09:37:41.000Z</time>
      </trkpt>
      <trkpt lat="49.78186" lon="4.83592">
        <ele>211</ele>
        <time>2020-10-31T09:37:42.000Z</time>
      </trkpt>
      <trkpt lat="49.78189" lon="4.83599">
        <ele>211</ele>
        <time>2020-10-31T09:37:43.000Z</time>
      </trkpt>
      <trkpt lat="49.78191" lon="4.83606">
        <ele>211</ele>
        <time>2020-10-31T09:37:44.000Z</time>
      </trkpt>
      <trkpt lat="49.78194" lon="4.83613">
        <ele>211</ele>
        <time>2020-10-31T09:37:45.000Z</time>
      </trkpt>
      <trkpt lat="49.78195" lon="4.8362">
        <ele>211</ele>
        <time>2020-10-31T09:37:46.000Z</time>
      </trkpt>
      <trkpt lat="49.78196" lon="4.83628">
        <ele>210</ele>
        <time>2020-10-31T09:37:47.000Z</time>
      </trkpt>
      <trkpt lat="49.78196" lon="4.83635">
        <ele>210</ele>
        <time>2020-10-31T09:37:48.000Z</time>
      </trkpt>
      <trkpt lat="49.78197" lon="4.83642">
        <ele>210</ele>
        <time>2020-10-31T09:37:49.000Z</time>
      </trkpt>
      <trkpt lat="49.78199" lon="4.83649">
        <ele>210</ele>
        <time>2020-10-31T09:37:50.000Z</time>
      </trkpt>
      <trkpt lat="49.78202" lon="4.83656">
        <ele>210</ele>
        <time>2020-10-31T09:37:51.000Z</time>
      </trkpt>
      <trkpt lat="49.78206" lon="4.83664">
        <ele>209</ele>
        <time>2020-10-31T09:37:52.000Z</time>
      </trkpt>
      <trkpt lat="49.7821" lon="4.83672">
        <ele>209</ele>
        <time>2020-10-31T09:37:53.000Z</time>
      </trkpt>
      <trkpt lat="49.78213" lon="4.83681">
        <ele>209</ele>
        <time>2020-10-31T09:37:54.000Z</time>
      </trkpt>
      <trkpt lat="49.78217" lon="4.83688">
        <ele>209</ele>
        <time>2020-10-31T09:37:55.000Z</time>
      </trkpt>
      <trkpt lat="49.78219" lon="4.83696">
        <ele>209</ele>
        <time>2020-10-31T09:37:56.000Z</time>
      </trkpt>
      <trkpt lat="49.78219" lon="4.83704">
        <ele>209</ele>
        <time>2020-10-31T09:37:57.000Z</time>
      </trkpt>
      <trkpt lat="49.7822" lon="4.8371">
        <ele>208</ele>
        <time>2020-10-31T09:37:58.000Z</time>
      </trkpt>
      <trkpt lat="49.7822" lon="4.83718">
        <ele>208</ele>
        <time>2020-10-31T09:37:59.000Z</time>
      </trkpt>
      <trkpt lat="49.7822" lon="4.83725">
        <ele>208</ele>
        <time>2020-10-31T09:38:00.000Z</time>
      </trkpt>
      <trkpt lat="49.78221" lon="4.83732">
        <ele>208</ele>
        <time>2020-10-31T09:38:01.000Z</time>
      </trkpt>
      <trkpt lat="49.78222" lon="4.8374">
        <ele>208</ele>
        <time>2020-10-31T09:38:02.000Z</time>
      </trkpt>
      <trkpt lat="49.78222" lon="4.83747">
        <ele>207</ele>
        <time>2020-10-31T09:38:03.000Z</time>
      </trkpt>
      <trkpt lat="49.78221" lon="4.83753">
        <ele>207</ele>
        <time>2020-10-31T09:38:04.000Z</time>
      </trkpt>
      <trkpt lat="49.78221" lon="4.83759">
        <ele>207</ele>
        <time>2020-10-31T09:38:05.000Z</time>
      </trkpt>
      <trkpt lat="49.78222" lon="4.83764">
        <ele>206</ele>
        <time>2020-10-31T09:38:06.000Z</time>
      </trkpt>
      <trkpt lat="49.78223" lon="4.8377">
        <ele>206</ele>
        <time>2020-10-31T09:38:07.000Z</time>
      </trkpt>
      <trkpt lat="49.78224" lon="4.83775">
        <ele>206</ele>
        <time>2020-10-31T09:38:08.000Z</time>
      </trkpt>
      <trkpt lat="49.78223" lon="4.83779">
        <ele>206</ele>
        <time>2020-10-31T09:38:09.000Z</time>
      </trkpt>
      <trkpt lat="49.78222" lon="4.83781">
        <ele>205</ele>
        <time>2020-10-31T09:38:10.000Z</time>
      </trkpt>
      <trkpt lat="49.7822" lon="4.83785">
        <ele>205</ele>
        <time>2020-10-31T09:38:11.000Z</time>
      </trkpt>
      <trkpt lat="49.78218" lon="4.83789">
        <ele>205</ele>
        <time>2020-10-31T09:38:12.000Z</time>
      </trkpt>
      <trkpt lat="49.78215" lon="4.83792">
        <ele>204</ele>
        <time>2020-10-31T09:38:13.000Z</time>
      </trkpt>
      <trkpt lat="49.78211" lon="4.83795">
        <ele>204</ele>
        <time>2020-10-31T09:38:14.000Z</time>
      </trkpt>
      <trkpt lat="49.78208" lon="4.83799">
        <ele>204</ele>
        <time>2020-10-31T09:38:15.000Z</time>
      </trkpt>
      <trkpt lat="49.78205" lon="4.83803">
        <ele>203</ele>
        <time>2020-10-31T09:38:16.000Z</time>
      </trkpt>
      <trkpt lat="49.78202" lon="4.83807">
        <ele>203</ele>
        <time>2020-10-31T09:38:17.000Z</time>
      </trkpt>
      <trkpt lat="49.78198" lon="4.83811">
        <ele>203</ele>
        <time>2020-10-31T09:38:18.000Z</time>
      </trkpt>
      <trkpt lat="49.78196" lon="4.83814">
        <ele>203</ele>
        <time>2020-10-31T09:38:19.000Z</time>
      </trkpt>
      <trkpt lat="49.78194" lon="4.83817">
        <ele>202</ele>
        <time>2020-10-31T09:38:20.000Z</time>
      </trkpt>
      <trkpt lat="49.78191" lon="4.8382">
        <ele>202</ele>
        <time>2020-10-31T09:38:21.000Z</time>
      </trkpt>
      <trkpt lat="49.78189" lon="4.83823">
        <ele>202</ele>
        <time>2020-10-31T09:38:22.000Z</time>
      </trkpt>
      <trkpt lat="49.78187" lon="4.83825">
        <ele>202</ele>
        <time>2020-10-31T09:38:23.000Z</time>
      </trkpt>
      <trkpt lat="49.78184" lon="4.83827">
        <ele>201</ele>
        <time>2020-10-31T09:38:24.000Z</time>
      </trkpt>
      <trkpt lat="49.78181" lon="4.83829">
        <ele>201</ele>
        <time>2020-10-31T09:38:25.000Z</time>
      </trkpt>
      <trkpt lat="49.78178" lon="4.83832">
        <ele>200</ele>
        <time>2020-10-31T09:38:26.000Z</time>
      </trkpt>
      <trkpt lat="49.78175" lon="4.83834">
        <ele>200</ele>
        <time>2020-10-31T09:38:27.000Z</time>
      </trkpt>
      <trkpt lat="49.78171" lon="4.83836">
        <ele>199</ele>
        <time>2020-10-31T09:38:28.000Z</time>
      </trkpt>
      <trkpt lat="49.78168" lon="4.83839">
        <ele>199</ele>
        <time>2020-10-31T09:38:29.000Z</time>
      </trkpt>
      <trkpt lat="49.78164" lon="4.83842">
        <ele>199</ele>
        <time>2020-10-31T09:38:30.000Z</time>
      </trkpt>
      <trkpt lat="49.7816" lon="4.83844">
        <ele>198</ele>
        <time>2020-10-31T09:38:31.000Z</time>
      </trkpt>
      <trkpt lat="49.78156" lon="4.83846">
        <ele>198</ele>
        <time>2020-10-31T09:38:32.000Z</time>
      </trkpt>
      <trkpt lat="49.78152" lon="4.83848">
        <ele>198</ele>
        <time>2020-10-31T09:38:33.000Z</time>
      </trkpt>
      <trkpt lat="49.78148" lon="4.83849">
        <ele>198</ele>
        <time>2020-10-31T09:38:34.000Z</time>
      </trkpt>
      <trkpt lat="49.78144" lon="4.8385">
        <ele>197</ele>
        <time>2020-10-31T09:38:35.000Z</time>
      </trkpt>
      <trkpt lat="49.7814" lon="4.83851">
        <ele>197</ele>
        <time>2020-10-31T09:38:36.000Z</time>
      </trkpt>
      <trkpt lat="49.78136" lon="4.83851">
        <ele>197</ele>
        <time>2020-10-31T09:38:37.000Z</time>
      </trkpt>
      <trkpt lat="49.78132" lon="4.83851">
        <ele>197</ele>
        <time>2020-10-31T09:38:38.000Z</time>
      </trkpt>
      <trkpt lat="49.78128" lon="4.83851">
        <ele>196</ele>
        <time>2020-10-31T09:38:39.000Z</time>
      </trkpt>
      <trkpt lat="49.78124" lon="4.83852">
        <ele>196</ele>
        <time>2020-10-31T09:38:40.000Z</time>
      </trkpt>
      <trkpt lat="49.78121" lon="4.83852">
        <ele>196</ele>
        <time>2020-10-31T09:38:41.000Z</time>
      </trkpt>
      <trkpt lat="49.78117" lon="4.83851">
        <ele>195</ele>
        <time>2020-10-31T09:38:42.000Z</time>
      </trkpt>
      <trkpt lat="49.78114" lon="4.83852">
        <ele>195</ele>
        <time>2020-10-31T09:38:43.000Z</time>
      </trkpt>
      <trkpt lat="49.78111" lon="4.83852">
        <ele>195</ele>
        <time>2020-10-31T09:38:44.000Z</time>
      </trkpt>
      <trkpt lat="49.78108" lon="4.83852">
        <ele>195</ele>
        <time>2020-10-31T09:38:45.000Z</time>
      </trkpt>
      <trkpt lat="49.78105" lon="4.83851">
        <ele>194</ele>
        <time>2020-10-31T09:38:46.000Z</time>
      </trkpt>
      <trkpt lat="49.78102" lon="4.83851">
        <ele>194</ele>
        <time>2020-10-31T09:38:47.000Z</time>
      </trkpt>
      <trkpt lat="49.78098" lon="4.83851">
        <ele>194</ele>
        <time>2020-10-31T09:38:48.000Z</time>
      </trkpt>
      <trkpt lat="49.78095" lon="4.83851">
        <ele>194</ele>
        <time>2020-10-31T09:38:49.000Z</time>
      </trkpt>
      <trkpt lat="49.78092" lon="4.83851">
        <ele>193</ele>
        <time>2020-10-31T09:38:50.000Z</time>
      </trkpt>
      <trkpt lat="49.78088" lon="4.83851">
        <ele>193</ele>
        <time>2020-10-31T09:38:51.000Z</time>
      </trkpt>
      <trkpt lat="49.78085" lon="4.83851">
        <ele>193</ele>
        <time>2020-10-31T09:38:52.000Z</time>
      </trkpt>
      <trkpt lat="49.78082" lon="4.83851">
        <ele>193</ele>
        <time>2020-10-31T09:38:53.000Z</time>
      </trkpt>
      <trkpt lat="49.78079" lon="4.83851">
        <ele>192</ele>
        <time>2020-10-31T09:38:54.000Z</time>
      </trkpt>
      <trkpt lat="49.78076" lon="4.8385">
        <ele>192</ele>
        <time>2020-10-31T09:38:55.000Z</time>
      </trkpt>
      <trkpt lat="49.78072" lon="4.8385">
        <ele>192</ele>
        <time>2020-10-31T09:38:56.000Z</time>
      </trkpt>
      <trkpt lat="49.78069" lon="4.8385">
        <ele>192</ele>
        <time>2020-10-31T09:38:57.000Z</time>
      </trkpt>
      <trkpt lat="49.78066" lon="4.8385">
        <ele>192</ele>
        <time>2020-10-31T09:38:58.000Z</time>
      </trkpt>
      <trkpt lat="49.78063" lon="4.8385">
        <ele>192</ele>
        <time>2020-10-31T09:38:59.000Z</time>
      </trkpt>
      <trkpt lat="49.7806" lon="4.83851">
        <ele>192</ele>
        <time>2020-10-31T09:39:00.000Z</time>
      </trkpt>
      <trkpt lat="49.78056" lon="4.83851">
        <ele>192</ele>
        <time>2020-10-31T09:39:01.000Z</time>
      </trkpt>
      <trkpt lat="49.78053" lon="4.83851">
        <ele>192</ele>
        <time>2020-10-31T09:39:02.000Z</time>
      </trkpt>
      <trkpt lat="49.7805" lon="4.83851">
        <ele>192</ele>
        <time>2020-10-31T09:39:03.000Z</time>
      </trkpt>
      <trkpt lat="49.78046" lon="4.83851">
        <ele>192</ele>
        <time>2020-10-31T09:39:04.000Z</time>
      </trkpt>
      <trkpt lat="49.78043" lon="4.83851">
        <ele>191</ele>
        <time>2020-10-31T09:39:05.000Z</time>
      </trkpt>
      <trkpt lat="49.78039" lon="4.8385">
        <ele>191</ele>
        <time>2020-10-31T09:39:06.000Z</time>
      </trkpt>
      <trkpt lat="49.78036" lon="4.8385">
        <ele>191</ele>
        <time>2020-10-31T09:39:07.000Z</time>
      </trkpt>
      <trkpt lat="49.78033" lon="4.8385">
        <ele>192</ele>
        <time>2020-10-31T09:39:08.000Z</time>
      </trkpt>
      <trkpt lat="49.78029" lon="4.8385">
        <ele>191</ele>
        <time>2020-10-31T09:39:09.000Z</time>
      </trkpt>
      <trkpt lat="49.78026" lon="4.8385">
        <ele>191</ele>
        <time>2020-10-31T09:39:10.000Z</time>
      </trkpt>
      <trkpt lat="49.78023" lon="4.8385">
        <ele>191</ele>
        <time>2020-10-31T09:39:11.000Z</time>
      </trkpt>
      <trkpt lat="49.7802" lon="4.8385">
        <ele>191</ele>
        <time>2020-10-31T09:39:12.000Z</time>
      </trkpt>
      <trkpt lat="49.78017" lon="4.8385">
        <ele>191</ele>
        <time>2020-10-31T09:39:13.000Z</time>
      </trkpt>
      <trkpt lat="49.78014" lon="4.83849">
        <ele>191</ele>
        <time>2020-10-31T09:39:14.000Z</time>
      </trkpt>
      <trkpt lat="49.78011" lon="4.83849">
        <ele>191</ele>
        <time>2020-10-31T09:39:15.000Z</time>
      </trkpt>
      <trkpt lat="49.78007" lon="4.83849">
        <ele>191</ele>
        <time>2020-10-31T09:39:16.000Z</time>
      </trkpt>
      <trkpt lat="49.78004" lon="4.83849">
        <ele>191</ele>
        <time>2020-10-31T09:39:17.000Z</time>
      </trkpt>
      <trkpt lat="49.78" lon="4.83849">
        <ele>191</ele>
        <time>2020-10-31T09:39:18.000Z</time>
      </trkpt>
      <trkpt lat="49.77997" lon="4.8385">
        <ele>191</ele>
        <time>2020-10-31T09:39:19.000Z</time>
      </trkpt>
      <trkpt lat="49.77994" lon="4.83851">
        <ele>191</ele>
        <time>2020-10-31T09:39:20.000Z</time>
      </trkpt>
      <trkpt lat="49.77991" lon="4.83853">
        <ele>191</ele>
        <time>2020-10-31T09:39:21.000Z</time>
      </trkpt>
      <trkpt lat="49.77987" lon="4.83856">
        <ele>191</ele>
        <time>2020-10-31T09:39:22.000Z</time>
      </trkpt>
      <trkpt lat="49.77985" lon="4.83859">
        <ele>191</ele>
        <time>2020-10-31T09:39:23.000Z</time>
      </trkpt>
      <trkpt lat="49.77982" lon="4.83863">
        <ele>191</ele>
        <time>2020-10-31T09:39:24.000Z</time>
      </trkpt>
      <trkpt lat="49.77979" lon="4.83866">
        <ele>191</ele>
        <time>2020-10-31T09:39:25.000Z</time>
      </trkpt>
      <trkpt lat="49.77976" lon="4.83869">
        <ele>191</ele>
        <time>2020-10-31T09:39:26.000Z</time>
      </trkpt>
      <trkpt lat="49.77972" lon="4.83873">
        <ele>191</ele>
        <time>2020-10-31T09:39:27.000Z</time>
      </trkpt>
      <trkpt lat="49.77969" lon="4.83876">
        <ele>191</ele>
        <time>2020-10-31T09:39:28.000Z</time>
      </trkpt>
      <trkpt lat="49.77966" lon="4.83879">
        <ele>191</ele>
        <time>2020-10-31T09:39:29.000Z</time>
      </trkpt>
      <trkpt lat="49.77963" lon="4.83883">
        <ele>191</ele>
        <time>2020-10-31T09:39:30.000Z</time>
      </trkpt>
      <trkpt lat="49.77959" lon="4.83886">
        <ele>191</ele>
        <time>2020-10-31T09:39:31.000Z</time>
      </trkpt>
      <trkpt lat="49.77957" lon="4.83889">
        <ele>192</ele>
        <time>2020-10-31T09:39:32.000Z</time>
      </trkpt>
      <trkpt lat="49.77954" lon="4.83892">
        <ele>192</ele>
        <time>2020-10-31T09:39:33.000Z</time>
      </trkpt>
      <trkpt lat="49.77952" lon="4.83894">
        <ele>192</ele>
        <time>2020-10-31T09:39:34.000Z</time>
      </trkpt>
      <trkpt lat="49.7795" lon="4.83896">
        <ele>193</ele>
        <time>2020-10-31T09:39:35.000Z</time>
      </trkpt>
      <trkpt lat="49.77948" lon="4.83898">
        <ele>193</ele>
        <time>2020-10-31T09:39:36.000Z</time>
      </trkpt>
      <trkpt lat="49.77946" lon="4.839">
        <ele>193</ele>
        <time>2020-10-31T09:39:37.000Z</time>
      </trkpt>
      <trkpt lat="49.77944" lon="4.83902">
        <ele>193</ele>
        <time>2020-10-31T09:39:38.000Z</time>
      </trkpt>
      <trkpt lat="49.77942" lon="4.83904">
        <ele>194</ele>
        <time>2020-10-31T09:39:39.000Z</time>
      </trkpt>
      <trkpt lat="49.7794" lon="4.83906">
        <ele>194</ele>
        <time>2020-10-31T09:39:40.000Z</time>
      </trkpt>
      <trkpt lat="49.77938" lon="4.83908">
        <ele>194</ele>
        <time>2020-10-31T09:39:41.000Z</time>
      </trkpt>
      <trkpt lat="49.77937" lon="4.83911">
        <ele>194</ele>
        <time>2020-10-31T09:39:42.000Z</time>
      </trkpt>
      <trkpt lat="49.77937" lon="4.83914">
        <ele>194</ele>
        <time>2020-10-31T09:39:43.000Z</time>
      </trkpt>
      <trkpt lat="49.77938" lon="4.83917">
        <ele>195</ele>
        <time>2020-10-31T09:39:44.000Z</time>
      </trkpt>
      <trkpt lat="49.77939" lon="4.8392">
        <ele>195</ele>
        <time>2020-10-31T09:39:45.000Z</time>
      </trkpt>
      <trkpt lat="49.77941" lon="4.83924">
        <ele>195</ele>
        <time>2020-10-31T09:39:46.000Z</time>
      </trkpt>
      <trkpt lat="49.77944" lon="4.83928">
        <ele>195</ele>
        <time>2020-10-31T09:39:47.000Z</time>
      </trkpt>
      <trkpt lat="49.77946" lon="4.83933">
        <ele>195</ele>
        <time>2020-10-31T09:39:48.000Z</time>
      </trkpt>
      <trkpt lat="49.77949" lon="4.83938">
        <ele>195</ele>
        <time>2020-10-31T09:39:49.000Z</time>
      </trkpt>
      <trkpt lat="49.77952" lon="4.83942">
        <ele>195</ele>
        <time>2020-10-31T09:39:50.000Z</time>
      </trkpt>
      <trkpt lat="49.77955" lon="4.83947">
        <ele>195</ele>
        <time>2020-10-31T09:39:51.000Z</time>
      </trkpt>
      <trkpt lat="49.77959" lon="4.83951">
        <ele>195</ele>
        <time>2020-10-31T09:39:52.000Z</time>
      </trkpt>
      <trkpt lat="49.77963" lon="4.83956">
        <ele>195</ele>
        <time>2020-10-31T09:39:53.000Z</time>
      </trkpt>
      <trkpt lat="49.77966" lon="4.83961">
        <ele>195</ele>
        <time>2020-10-31T09:39:54.000Z</time>
      </trkpt>
      <trkpt lat="49.7797" lon="4.83966">
        <ele>195</ele>
        <time>2020-10-31T09:39:55.000Z</time>
      </trkpt>
      <trkpt lat="49.77973" lon="4.83971">
        <ele>195</ele>
        <time>2020-10-31T09:39:56.000Z</time>
      </trkpt>
      <trkpt lat="49.77976" lon="4.83975">
        <ele>195</ele>
        <time>2020-10-31T09:39:57.000Z</time>
      </trkpt>
      <trkpt lat="49.77979" lon="4.83979">
        <ele>195</ele>
        <time>2020-10-31T09:39:58.000Z</time>
      </trkpt>
      <trkpt lat="49.77983" lon="4.83984">
        <ele>196</ele>
        <time>2020-10-31T09:39:59.000Z</time>
      </trkpt>
      <trkpt lat="49.77987" lon="4.83988">
        <ele>196</ele>
        <time>2020-10-31T09:40:00.000Z</time>
      </trkpt>
      <trkpt lat="49.77991" lon="4.83993">
        <ele>196</ele>
        <time>2020-10-31T09:40:01.000Z</time>
      </trkpt>
      <trkpt lat="49.77996" lon="4.83997">
        <ele>196</ele>
        <time>2020-10-31T09:40:02.000Z</time>
      </trkpt>
      <trkpt lat="49.78" lon="4.84002">
        <ele>196</ele>
        <time>2020-10-31T09:40:03.000Z</time>
      </trkpt>
      <trkpt lat="49.78005" lon="4.84006">
        <ele>196</ele>
        <time>2020-10-31T09:40:04.000Z</time>
      </trkpt>
      <trkpt lat="49.7801" lon="4.84009">
        <ele>197</ele>
        <time>2020-10-31T09:40:05.000Z</time>
      </trkpt>
      <trkpt lat="49.78015" lon="4.84012">
        <ele>197</ele>
        <time>2020-10-31T09:40:06.000Z</time>
      </trkpt>
      <trkpt lat="49.78019" lon="4.84016">
        <ele>197</ele>
        <time>2020-10-31T09:40:07.000Z</time>
      </trkpt>
      <trkpt lat="49.78023" lon="4.84019">
        <ele>197</ele>
        <time>2020-10-31T09:40:08.000Z</time>
      </trkpt>
      <trkpt lat="49.78027" lon="4.84023">
        <ele>197</ele>
        <time>2020-10-31T09:40:09.000Z</time>
      </trkpt>
      <trkpt lat="49.78032" lon="4.84027">
        <ele>197</ele>
        <time>2020-10-31T09:40:10.000Z</time>
      </trkpt>
      <trkpt lat="49.78039" lon="4.84031">
        <ele>197</ele>
        <time>2020-10-31T09:40:11.000Z</time>
      </trkpt>
      <trkpt lat="49.78045" lon="4.84035">
        <ele>197</ele>
        <time>2020-10-31T09:40:12.000Z</time>
      </trkpt>
      <trkpt lat="49.78052" lon="4.84039">
        <ele>197</ele>
        <time>2020-10-31T09:40:13.000Z</time>
      </trkpt>
      <trkpt lat="49.78059" lon="4.84042">
        <ele>197</ele>
        <time>2020-10-31T09:40:14.000Z</time>
      </trkpt>
      <trkpt lat="49.78066" lon="4.84046">
        <ele>197</ele>
        <time>2020-10-31T09:40:15.000Z</time>
      </trkpt>
      <trkpt lat="49.78073" lon="4.8405">
        <ele>197</ele>
        <time>2020-10-31T09:40:16.000Z</time>
      </trkpt>
      <trkpt lat="49.7808" lon="4.84053">
        <ele>197</ele>
        <time>2020-10-31T09:40:17.000Z</time>
      </trkpt>
      <trkpt lat="49.78087" lon="4.84057">
        <ele>197</ele>
        <time>2020-10-31T09:40:18.000Z</time>
      </trkpt>
      <trkpt lat="49.78094" lon="4.8406">
        <ele>196</ele>
        <time>2020-10-31T09:40:19.000Z</time>
      </trkpt>
      <trkpt lat="49.781" lon="4.84065">
        <ele>196</ele>
        <time>2020-10-31T09:40:20.000Z</time>
      </trkpt>
      <trkpt lat="49.78107" lon="4.84069">
        <ele>196</ele>
        <time>2020-10-31T09:40:21.000Z</time>
      </trkpt>
      <trkpt lat="49.78114" lon="4.84073">
        <ele>196</ele>
        <time>2020-10-31T09:40:22.000Z</time>
      </trkpt>
      <trkpt lat="49.78121" lon="4.84077">
        <ele>196</ele>
        <time>2020-10-31T09:40:23.000Z</time>
      </trkpt>
      <trkpt lat="49.78128" lon="4.84081">
        <ele>195</ele>
        <time>2020-10-31T09:40:24.000Z</time>
      </trkpt>
      <trkpt lat="49.78136" lon="4.84084">
        <ele>195</ele>
        <time>2020-10-31T09:40:25.000Z</time>
      </trkpt>
      <trkpt lat="49.78143" lon="4.84088">
        <ele>195</ele>
        <time>2020-10-31T09:40:26.000Z</time>
      </trkpt>
      <trkpt lat="49.7815" lon="4.84091">
        <ele>195</ele>
        <time>2020-10-31T09:40:27.000Z</time>
      </trkpt>
      <trkpt lat="49.78156" lon="4.84094">
        <ele>194</ele>
        <time>2020-10-31T09:40:28.000Z</time>
      </trkpt>
      <trkpt lat="49.78161" lon="4.84099">
        <ele>194</ele>
        <time>2020-10-31T09:40:29.000Z</time>
      </trkpt>
      <trkpt lat="49.78164" lon="4.84105">
        <ele>194</ele>
        <time>2020-10-31T09:40:30.000Z</time>
      </trkpt>
      <trkpt lat="49.78167" lon="4.84111">
        <ele>193</ele>
        <time>2020-10-31T09:40:31.000Z</time>
      </trkpt>
      <trkpt lat="49.78168" lon="4.84116">
        <ele>193</ele>
        <time>2020-10-31T09:40:32.000Z</time>
      </trkpt>
      <trkpt lat="49.78167" lon="4.8412">
        <ele>193</ele>
        <time>2020-10-31T09:40:33.000Z</time>
      </trkpt>
      <trkpt lat="49.78164" lon="4.84123">
        <ele>192</ele>
        <time>2020-10-31T09:40:34.000Z</time>
      </trkpt>
      <trkpt lat="49.78161" lon="4.84127">
        <ele>192</ele>
        <time>2020-10-31T09:40:35.000Z</time>
      </trkpt>
      <trkpt lat="49.78159" lon="4.84131">
        <ele>192</ele>
        <time>2020-10-31T09:40:36.000Z</time>
      </trkpt>
      <trkpt lat="49.78157" lon="4.84134">
        <ele>192</ele>
        <time>2020-10-31T09:40:37.000Z</time>
      </trkpt>
      <trkpt lat="49.78154" lon="4.84138">
        <ele>192</ele>
        <time>2020-10-31T09:40:38.000Z</time>
      </trkpt>
      <trkpt lat="49.7815" lon="4.84142">
        <ele>192</ele>
        <time>2020-10-31T09:40:39.000Z</time>
      </trkpt>
      <trkpt lat="49.78147" lon="4.84146">
        <ele>192</ele>
        <time>2020-10-31T09:40:40.000Z</time>
      </trkpt>
      <trkpt lat="49.78143" lon="4.84149">
        <ele>191</ele>
        <time>2020-10-31T09:40:41.000Z</time>
      </trkpt>
      <trkpt lat="49.78139" lon="4.84151">
        <ele>191</ele>
        <time>2020-10-31T09:40:42.000Z</time>
      </trkpt>
      <trkpt lat="49.78135" lon="4.84154">
        <ele>191</ele>
        <time>2020-10-31T09:40:43.000Z</time>
      </trkpt>
      <trkpt lat="49.78131" lon="4.84159">
        <ele>191</ele>
        <time>2020-10-31T09:40:44.000Z</time>
      </trkpt>
      <trkpt lat="49.78127" lon="4.84164">
        <ele>191</ele>
        <time>2020-10-31T09:40:45.000Z</time>
      </trkpt>
      <trkpt lat="49.78122" lon="4.84169">
        <ele>191</ele>
        <time>2020-10-31T09:40:46.000Z</time>
      </trkpt>
      <trkpt lat="49.78118" lon="4.84173">
        <ele>191</ele>
        <time>2020-10-31T09:40:47.000Z</time>
      </trkpt>
      <trkpt lat="49.78114" lon="4.84176">
        <ele>191</ele>
        <time>2020-10-31T09:40:48.000Z</time>
      </trkpt>
      <trkpt lat="49.7811" lon="4.84179">
        <ele>191</ele>
        <time>2020-10-31T09:40:49.000Z</time>
      </trkpt>
      <trkpt lat="49.78106" lon="4.84182">
        <ele>191</ele>
        <time>2020-10-31T09:40:50.000Z</time>
      </trkpt>
      <trkpt lat="49.78102" lon="4.84186">
        <ele>191</ele>
        <time>2020-10-31T09:40:51.000Z</time>
      </trkpt>
      <trkpt lat="49.78097" lon="4.84189">
        <ele>191</ele>
        <time>2020-10-31T09:40:52.000Z</time>
      </trkpt>
      <trkpt lat="49.78092" lon="4.84191">
        <ele>191</ele>
        <time>2020-10-31T09:40:53.000Z</time>
      </trkpt>
      <trkpt lat="49.78087" lon="4.84193">
        <ele>191</ele>
        <time>2020-10-31T09:40:54.000Z</time>
      </trkpt>
      <trkpt lat="49.78082" lon="4.84195">
        <ele>191</ele>
        <time>2020-10-31T09:40:55.000Z</time>
      </trkpt>
      <trkpt lat="49.78077" lon="4.84197">
        <ele>191</ele>
        <time>2020-10-31T09:40:56.000Z</time>
      </trkpt>
      <trkpt lat="49.78072" lon="4.84198">
        <ele>192</ele>
        <time>2020-10-31T09:40:57.000Z</time>
      </trkpt>
      <trkpt lat="49.78067" lon="4.84198">
        <ele>192</ele>
        <time>2020-10-31T09:40:58.000Z</time>
      </trkpt>
      <trkpt lat="49.78062" lon="4.84198">
        <ele>192</ele>
        <time>2020-10-31T09:40:59.000Z</time>
      </trkpt>
      <trkpt lat="49.78056" lon="4.84198">
        <ele>192</ele>
        <time>2020-10-31T09:41:00.000Z</time>
      </trkpt>
      <trkpt lat="49.7805" lon="4.84199">
        <ele>192</ele>
        <time>2020-10-31T09:41:01.000Z</time>
      </trkpt>
      <trkpt lat="49.78044" lon="4.842">
        <ele>192</ele>
        <time>2020-10-31T09:41:02.000Z</time>
      </trkpt>
      <trkpt lat="49.78037" lon="4.84202">
        <ele>192</ele>
        <time>2020-10-31T09:41:03.000Z</time>
      </trkpt>
      <trkpt lat="49.7803" lon="4.84205">
        <ele>192</ele>
        <time>2020-10-31T09:41:04.000Z</time>
      </trkpt>
      <trkpt lat="49.78024" lon="4.84207">
        <ele>192</ele>
        <time>2020-10-31T09:41:05.000Z</time>
      </trkpt>
      <trkpt lat="49.78017" lon="4.84208">
        <ele>192</ele>
        <time>2020-10-31T09:41:06.000Z</time>
      </trkpt>
      <trkpt lat="49.78011" lon="4.84209">
        <ele>192</ele>
        <time>2020-10-31T09:41:07.000Z</time>
      </trkpt>
      <trkpt lat="49.78005" lon="4.8421">
        <ele>192</ele>
        <time>2020-10-31T09:41:08.000Z</time>
      </trkpt>
      <trkpt lat="49.77999" lon="4.84211">
        <ele>193</ele>
        <time>2020-10-31T09:41:09.000Z</time>
      </trkpt>
      <trkpt lat="49.77993" lon="4.84211">
        <ele>193</ele>
        <time>2020-10-31T09:41:10.000Z</time>
      </trkpt>
      <trkpt lat="49.77987" lon="4.8421">
        <ele>193</ele>
        <time>2020-10-31T09:41:11.000Z</time>
      </trkpt>
      <trkpt lat="49.77982" lon="4.84209">
        <ele>193</ele>
        <time>2020-10-31T09:41:12.000Z</time>
      </trkpt>
      <trkpt lat="49.77977" lon="4.84209">
        <ele>193</ele>
        <time>2020-10-31T09:41:13.000Z</time>
      </trkpt>
      <trkpt lat="49.77972" lon="4.84209">
        <ele>193</ele>
        <time>2020-10-31T09:41:14.000Z</time>
      </trkpt>
      <trkpt lat="49.77967" lon="4.84207">
        <ele>193</ele>
        <time>2020-10-31T09:41:15.000Z</time>
      </trkpt>
      <trkpt lat="49.77961" lon="4.84206">
        <ele>193</ele>
        <time>2020-10-31T09:41:16.000Z</time>
      </trkpt>
      <trkpt lat="49.77956" lon="4.84205">
        <ele>193</ele>
        <time>2020-10-31T09:41:17.000Z</time>
      </trkpt>
      <trkpt lat="49.7795" lon="4.84204">
        <ele>193</ele>
        <time>2020-10-31T09:41:18.000Z</time>
      </trkpt>
      <trkpt lat="49.77944" lon="4.84202">
        <ele>193</ele>
        <time>2020-10-31T09:41:19.000Z</time>
      </trkpt>
      <trkpt lat="49.77939" lon="4.84201">
        <ele>193</ele>
        <time>2020-10-31T09:41:20.000Z</time>
      </trkpt>
      <trkpt lat="49.77934" lon="4.842">
        <ele>193</ele>
        <time>2020-10-31T09:41:21.000Z</time>
      </trkpt>
      <trkpt lat="49.77929" lon="4.84199">
        <ele>193</ele>
        <time>2020-10-31T09:41:22.000Z</time>
      </trkpt>
      <trkpt lat="49.77923" lon="4.84199">
        <ele>194</ele>
        <time>2020-10-31T09:41:23.000Z</time>
      </trkpt>
      <trkpt lat="49.77917" lon="4.84198">
        <ele>194</ele>
        <time>2020-10-31T09:41:24.000Z</time>
      </trkpt>
      <trkpt lat="49.77912" lon="4.84196">
        <ele>194</ele>
        <time>2020-10-31T09:41:25.000Z</time>
      </trkpt>
      <trkpt lat="49.77907" lon="4.84195">
        <ele>194</ele>
        <time>2020-10-31T09:41:26.000Z</time>
      </trkpt>
      <trkpt lat="49.77901" lon="4.84194">
        <ele>194</ele>
        <time>2020-10-31T09:41:27.000Z</time>
      </trkpt>
      <trkpt lat="49.77896" lon="4.84193">
        <ele>194</ele>
        <time>2020-10-31T09:41:28.000Z</time>
      </trkpt>
      <trkpt lat="49.7789" lon="4.84193">
        <ele>195</ele>
        <time>2020-10-31T09:41:29.000Z</time>
      </trkpt>
      <trkpt lat="49.77885" lon="4.84192">
        <ele>195</ele>
        <time>2020-10-31T09:41:30.000Z</time>
      </trkpt>
      <trkpt lat="49.77879" lon="4.84191">
        <ele>195</ele>
        <time>2020-10-31T09:41:31.000Z</time>
      </trkpt>
      <trkpt lat="49.77873" lon="4.8419">
        <ele>196</ele>
        <time>2020-10-31T09:41:32.000Z</time>
      </trkpt>
      <trkpt lat="49.77868" lon="4.8419">
        <ele>196</ele>
        <time>2020-10-31T09:41:33.000Z</time>
      </trkpt>
      <trkpt lat="49.77862" lon="4.84189">
        <ele>196</ele>
        <time>2020-10-31T09:41:34.000Z</time>
      </trkpt>
      <trkpt lat="49.77855" lon="4.84189">
        <ele>197</ele>
        <time>2020-10-31T09:41:35.000Z</time>
      </trkpt>
      <trkpt lat="49.77849" lon="4.84188">
        <ele>197</ele>
        <time>2020-10-31T09:41:36.000Z</time>
      </trkpt>
      <trkpt lat="49.77843" lon="4.84188">
        <ele>197</ele>
        <time>2020-10-31T09:41:37.000Z</time>
      </trkpt>
      <trkpt lat="49.77837" lon="4.84188">
        <ele>197</ele>
        <time>2020-10-31T09:41:38.000Z</time>
      </trkpt>
      <trkpt lat="49.77831" lon="4.84188">
        <ele>198</ele>
        <time>2020-10-31T09:41:39.000Z</time>
      </trkpt>
      <trkpt lat="49.77825" lon="4.84188">
        <ele>198</ele>
        <time>2020-10-31T09:41:40.000Z</time>
      </trkpt>
      <trkpt lat="49.77818" lon="4.84188">
        <ele>198</ele>
        <time>2020-10-31T09:41:41.000Z</time>
      </trkpt>
      <trkpt lat="49.77813" lon="4.84186">
        <ele>198</ele>
        <time>2020-10-31T09:41:42.000Z</time>
      </trkpt>
      <trkpt lat="49.77807" lon="4.84185">
        <ele>198</ele>
        <time>2020-10-31T09:41:43.000Z</time>
      </trkpt>
      <trkpt lat="49.778" lon="4.84185">
        <ele>199</ele>
        <time>2020-10-31T09:41:44.000Z</time>
      </trkpt>
      <trkpt lat="49.77794" lon="4.84183">
        <ele>199</ele>
        <time>2020-10-31T09:41:45.000Z</time>
      </trkpt>
      <trkpt lat="49.77788" lon="4.84181">
        <ele>199</ele>
        <time>2020-10-31T09:41:46.000Z</time>
      </trkpt>
      <trkpt lat="49.77782" lon="4.84179">
        <ele>199</ele>
        <time>2020-10-31T09:41:47.000Z</time>
      </trkpt>
      <trkpt lat="49.77776" lon="4.84178">
        <ele>199</ele>
        <time>2020-10-31T09:41:48.000Z</time>
      </trkpt>
      <trkpt lat="49.7777" lon="4.84177">
        <ele>199</ele>
        <time>2020-10-31T09:41:49.000Z</time>
      </trkpt>
      <trkpt lat="49.77764" lon="4.84176">
        <ele>199</ele>
        <time>2020-10-31T09:41:50.000Z</time>
      </trkpt>
      <trkpt lat="49.77758" lon="4.84174">
        <ele>199</ele>
        <time>2020-10-31T09:41:51.000Z</time>
      </trkpt>
      <trkpt lat="49.77753" lon="4.84173">
        <ele>199</ele>
        <time>2020-10-31T09:41:52.000Z</time>
      </trkpt>
      <trkpt lat="49.77747" lon="4.84171">
        <ele>199</ele>
        <time>2020-10-31T09:41:53.000Z</time>
      </trkpt>
      <trkpt lat="49.77741" lon="4.84169">
        <ele>199</ele>
        <time>2020-10-31T09:41:54.000Z</time>
      </trkpt>
      <trkpt lat="49.77736" lon="4.84167">
        <ele>199</ele>
        <time>2020-10-31T09:41:55.000Z</time>
      </trkpt>
      <trkpt lat="49.77731" lon="4.84166">
        <ele>199</ele>
        <time>2020-10-31T09:41:56.000Z</time>
      </trkpt>
      <trkpt lat="49.77725" lon="4.84165">
        <ele>199</ele>
        <time>2020-10-31T09:41:57.000Z</time>
      </trkpt>
      <trkpt lat="49.7772" lon="4.84163">
        <ele>199</ele>
        <time>2020-10-31T09:41:58.000Z</time>
      </trkpt>
      <trkpt lat="49.77715" lon="4.84161">
        <ele>199</ele>
        <time>2020-10-31T09:41:59.000Z</time>
      </trkpt>
      <trkpt lat="49.77711" lon="4.84159">
        <ele>198</ele>
        <time>2020-10-31T09:42:00.000Z</time>
      </trkpt>
      <trkpt lat="49.77706" lon="4.84158">
        <ele>198</ele>
        <time>2020-10-31T09:42:01.000Z</time>
      </trkpt>
      <trkpt lat="49.77702" lon="4.84158">
        <ele>198</ele>
        <time>2020-10-31T09:42:02.000Z</time>
      </trkpt>
      <trkpt lat="49.77697" lon="4.84157">
        <ele>198</ele>
        <time>2020-10-31T09:42:03.000Z</time>
      </trkpt>
      <trkpt lat="49.77692" lon="4.84155">
        <ele>198</ele>
        <time>2020-10-31T09:42:04.000Z</time>
      </trkpt>
      <trkpt lat="49.77687" lon="4.84153">
        <ele>198</ele>
        <time>2020-10-31T09:42:05.000Z</time>
      </trkpt>
      <trkpt lat="49.77681" lon="4.84151">
        <ele>198</ele>
        <time>2020-10-31T09:42:06.000Z</time>
      </trkpt>
      <trkpt lat="49.77676" lon="4.8415">
        <ele>198</ele>
        <time>2020-10-31T09:42:07.000Z</time>
      </trkpt>
      <trkpt lat="49.7767" lon="4.84149">
        <ele>199</ele>
        <time>2020-10-31T09:42:08.000Z</time>
      </trkpt>
      <trkpt lat="49.77665" lon="4.84148">
        <ele>199</ele>
        <time>2020-10-31T09:42:09.000Z</time>
      </trkpt>
      <trkpt lat="49.7766" lon="4.84148">
        <ele>199</ele>
        <time>2020-10-31T09:42:10.000Z</time>
      </trkpt>
      <trkpt lat="49.77654" lon="4.84146">
        <ele>199</ele>
        <time>2020-10-31T09:42:11.000Z</time>
      </trkpt>
      <trkpt lat="49.77649" lon="4.84145">
        <ele>199</ele>
        <time>2020-10-31T09:42:12.000Z</time>
      </trkpt>
      <trkpt lat="49.77644" lon="4.84144">
        <ele>199</ele>
        <time>2020-10-31T09:42:13.000Z</time>
      </trkpt>
      <trkpt lat="49.77638" lon="4.84143">
        <ele>199</ele>
        <time>2020-10-31T09:42:14.000Z</time>
      </trkpt>
      <trkpt lat="49.77633" lon="4.84142">
        <ele>199</ele>
        <time>2020-10-31T09:42:15.000Z</time>
      </trkpt>
      <trkpt lat="49.77628" lon="4.84141">
        <ele>199</ele>
        <time>2020-10-31T09:42:16.000Z</time>
      </trkpt>
      <trkpt lat="49.77623" lon="4.8414">
        <ele>199</ele>
        <time>2020-10-31T09:42:17.000Z</time>
      </trkpt>
      <trkpt lat="49.77618" lon="4.84139">
        <ele>199</ele>
        <time>2020-10-31T09:42:18.000Z</time>
      </trkpt>
      <trkpt lat="49.77613" lon="4.84138">
        <ele>199</ele>
        <time>2020-10-31T09:42:19.000Z</time>
      </trkpt>
      <trkpt lat="49.77608" lon="4.84136">
        <ele>199</ele>
        <time>2020-10-31T09:42:20.000Z</time>
      </trkpt>
      <trkpt lat="49.77603" lon="4.84135">
        <ele>199</ele>
        <time>2020-10-31T09:42:21.000Z</time>
      </trkpt>
      <trkpt lat="49.77598" lon="4.84134">
        <ele>199</ele>
        <time>2020-10-31T09:42:22.000Z</time>
      </trkpt>
      <trkpt lat="49.77592" lon="4.84132">
        <ele>199</ele>
        <time>2020-10-31T09:42:23.000Z</time>
      </trkpt>
      <trkpt lat="49.77587" lon="4.84131">
        <ele>199</ele>
        <time>2020-10-31T09:42:24.000Z</time>
      </trkpt>
      <trkpt lat="49.77582" lon="4.8413">
        <ele>199</ele>
        <time>2020-10-31T09:42:25.000Z</time>
      </trkpt>
      <trkpt lat="49.77576" lon="4.84129">
        <ele>199</ele>
        <time>2020-10-31T09:42:26.000Z</time>
      </trkpt>
      <trkpt lat="49.77571" lon="4.84128">
        <ele>199</ele>
        <time>2020-10-31T09:42:27.000Z</time>
      </trkpt>
      <trkpt lat="49.77566" lon="4.84127">
        <ele>199</ele>
        <time>2020-10-31T09:42:28.000Z</time>
      </trkpt>
      <trkpt lat="49.77561" lon="4.84125">
        <ele>199</ele>
        <time>2020-10-31T09:42:29.000Z</time>
      </trkpt>
      <trkpt lat="49.77556" lon="4.84124">
        <ele>199</ele>
        <time>2020-10-31T09:42:30.000Z</time>
      </trkpt>
      <trkpt lat="49.7755" lon="4.84123">
        <ele>199</ele>
        <time>2020-10-31T09:42:31.000Z</time>
      </trkpt>
      <trkpt lat="49.77545" lon="4.84122">
        <ele>198</ele>
        <time>2020-10-31T09:42:32.000Z</time>
      </trkpt>
      <trkpt lat="49.7754" lon="4.8412">
        <ele>198</ele>
        <time>2020-10-31T09:42:33.000Z</time>
      </trkpt>
      <trkpt lat="49.77535" lon="4.84119">
        <ele>198</ele>
        <time>2020-10-31T09:42:34.000Z</time>
      </trkpt>
      <trkpt lat="49.7753" lon="4.84118">
        <ele>198</ele>
        <time>2020-10-31T09:42:35.000Z</time>
      </trkpt>
      <trkpt lat="49.77525" lon="4.84118">
        <ele>198</ele>
        <time>2020-10-31T09:42:36.000Z</time>
      </trkpt>
      <trkpt lat="49.7752" lon="4.84116">
        <ele>198</ele>
        <time>2020-10-31T09:42:37.000Z</time>
      </trkpt>
      <trkpt lat="49.77514" lon="4.84115">
        <ele>198</ele>
        <time>2020-10-31T09:42:38.000Z</time>
      </trkpt>
      <trkpt lat="49.77509" lon="4.84114">
        <ele>198</ele>
        <time>2020-10-31T09:42:39.000Z</time>
      </trkpt>
      <trkpt lat="49.77504" lon="4.84112">
        <ele>198</ele>
        <time>2020-10-31T09:42:40.000Z</time>
      </trkpt>
      <trkpt lat="49.77498" lon="4.84112">
        <ele>199</ele>
        <time>2020-10-31T09:42:41.000Z</time>
      </trkpt>
      <trkpt lat="49.77493" lon="4.8411">
        <ele>199</ele>
        <time>2020-10-31T09:42:42.000Z</time>
      </trkpt>
      <trkpt lat="49.77488" lon="4.84109">
        <ele>199</ele>
        <time>2020-10-31T09:42:43.000Z</time>
      </trkpt>
      <trkpt lat="49.77483" lon="4.84108">
        <ele>199</ele>
        <time>2020-10-31T09:42:44.000Z</time>
      </trkpt>
      <trkpt lat="49.77477" lon="4.84106">
        <ele>199</ele>
        <time>2020-10-31T09:42:45.000Z</time>
      </trkpt>
      <trkpt lat="49.77472" lon="4.84106">
        <ele>199</ele>
        <time>2020-10-31T09:42:46.000Z</time>
      </trkpt>
      <trkpt lat="49.77467" lon="4.84106">
        <ele>199</ele>
        <time>2020-10-31T09:42:47.000Z</time>
      </trkpt>
      <trkpt lat="49.77461" lon="4.84106">
        <ele>199</ele>
        <time>2020-10-31T09:42:48.000Z</time>
      </trkpt>
      <trkpt lat="49.77456" lon="4.84106">
        <ele>199</ele>
        <time>2020-10-31T09:42:49.000Z</time>
      </trkpt>
      <trkpt lat="49.7745" lon="4.84106">
        <ele>199</ele>
        <time>2020-10-31T09:42:50.000Z</time>
      </trkpt>
      <trkpt lat="49.77445" lon="4.84106">
        <ele>200</ele>
        <time>2020-10-31T09:42:51.000Z</time>
      </trkpt>
      <trkpt lat="49.77439" lon="4.84106">
        <ele>200</ele>
        <time>2020-10-31T09:42:52.000Z</time>
      </trkpt>
      <trkpt lat="49.77433" lon="4.84106">
        <ele>200</ele>
        <time>2020-10-31T09:42:53.000Z</time>
      </trkpt>
      <trkpt lat="49.77427" lon="4.84106">
        <ele>200</ele>
        <time>2020-10-31T09:42:54.000Z</time>
      </trkpt>
      <trkpt lat="49.77421" lon="4.84105">
        <ele>200</ele>
        <time>2020-10-31T09:42:55.000Z</time>
      </trkpt>
      <trkpt lat="49.77414" lon="4.84105">
        <ele>200</ele>
        <time>2020-10-31T09:42:56.000Z</time>
      </trkpt>
      <trkpt lat="49.77408" lon="4.84105">
        <ele>200</ele>
        <time>2020-10-31T09:42:57.000Z</time>
      </trkpt>
      <trkpt lat="49.77401" lon="4.84105">
        <ele>200</ele>
        <time>2020-10-31T09:42:58.000Z</time>
      </trkpt>
      <trkpt lat="49.77395" lon="4.84105">
        <ele>201</ele>
        <time>2020-10-31T09:42:59.000Z</time>
      </trkpt>
      <trkpt lat="49.77389" lon="4.84105">
        <ele>201</ele>
        <time>2020-10-31T09:43:00.000Z</time>
      </trkpt>
      <trkpt lat="49.77382" lon="4.84105">
        <ele>201</ele>
        <time>2020-10-31T09:43:01.000Z</time>
      </trkpt>
      <trkpt lat="49.77376" lon="4.84105">
        <ele>201</ele>
        <time>2020-10-31T09:43:02.000Z</time>
      </trkpt>
      <trkpt lat="49.7737" lon="4.84106">
        <ele>201</ele>
        <time>2020-10-31T09:43:03.000Z</time>
      </trkpt>
      <trkpt lat="49.77364" lon="4.84105">
        <ele>201</ele>
        <time>2020-10-31T09:43:04.000Z</time>
      </trkpt>
      <trkpt lat="49.77358" lon="4.84103">
        <ele>201</ele>
        <time>2020-10-31T09:43:05.000Z</time>
      </trkpt>
      <trkpt lat="49.77352" lon="4.841">
        <ele>201</ele>
        <time>2020-10-31T09:43:06.000Z</time>
      </trkpt>
      <trkpt lat="49.77347" lon="4.84098">
        <ele>201</ele>
        <time>2020-10-31T09:43:07.000Z</time>
      </trkpt>
      <trkpt lat="49.77341" lon="4.84096">
        <ele>202</ele>
        <time>2020-10-31T09:43:08.000Z</time>
      </trkpt>
      <trkpt lat="49.77334" lon="4.84095">
        <ele>202</ele>
        <time>2020-10-31T09:43:09.000Z</time>
      </trkpt>
      <trkpt lat="49.77328" lon="4.84095">
        <ele>202</ele>
        <time>2020-10-31T09:43:10.000Z</time>
      </trkpt>
      <trkpt lat="49.77322" lon="4.84095">
        <ele>202</ele>
        <time>2020-10-31T09:43:11.000Z</time>
      </trkpt>
      <trkpt lat="49.77316" lon="4.84094">
        <ele>202</ele>
        <time>2020-10-31T09:43:12.000Z</time>
      </trkpt>
      <trkpt lat="49.7731" lon="4.84093">
        <ele>202</ele>
        <time>2020-10-31T09:43:13.000Z</time>
      </trkpt>
      <trkpt lat="49.77304" lon="4.84091">
        <ele>202</ele>
        <time>2020-10-31T09:43:14.000Z</time>
      </trkpt>
      <trkpt lat="49.77299" lon="4.84089">
        <ele>202</ele>
        <time>2020-10-31T09:43:15.000Z</time>
      </trkpt>
      <trkpt lat="49.77293" lon="4.84087">
        <ele>202</ele>
        <time>2020-10-31T09:43:16.000Z</time>
      </trkpt>
      <trkpt lat="49.77288" lon="4.84085">
        <ele>202</ele>
        <time>2020-10-31T09:43:17.000Z</time>
      </trkpt>
      <trkpt lat="49.77283" lon="4.84083">
        <ele>202</ele>
        <time>2020-10-31T09:43:18.000Z</time>
      </trkpt>
      <trkpt lat="49.77277" lon="4.84081">
        <ele>202</ele>
        <time>2020-10-31T09:43:19.000Z</time>
      </trkpt>
      <trkpt lat="49.77272" lon="4.84079">
        <ele>201</ele>
        <time>2020-10-31T09:43:20.000Z</time>
      </trkpt>
      <trkpt lat="49.77266" lon="4.84076">
        <ele>201</ele>
        <time>2020-10-31T09:43:21.000Z</time>
      </trkpt>
      <trkpt lat="49.77261" lon="4.84074">
        <ele>201</ele>
        <time>2020-10-31T09:43:22.000Z</time>
      </trkpt>
      <trkpt lat="49.77255" lon="4.84071">
        <ele>201</ele>
        <time>2020-10-31T09:43:23.000Z</time>
      </trkpt>
      <trkpt lat="49.7725" lon="4.84069">
        <ele>201</ele>
        <time>2020-10-31T09:43:24.000Z</time>
      </trkpt>
      <trkpt lat="49.77245" lon="4.84067">
        <ele>201</ele>
        <time>2020-10-31T09:43:25.000Z</time>
      </trkpt>
      <trkpt lat="49.77239" lon="4.84064">
        <ele>200</ele>
        <time>2020-10-31T09:43:26.000Z</time>
      </trkpt>
      <trkpt lat="49.77233" lon="4.84063">
        <ele>200</ele>
        <time>2020-10-31T09:43:27.000Z</time>
      </trkpt>
      <trkpt lat="49.77228" lon="4.84061">
        <ele>200</ele>
        <time>2020-10-31T09:43:28.000Z</time>
      </trkpt>
      <trkpt lat="49.77222" lon="4.84059">
        <ele>200</ele>
        <time>2020-10-31T09:43:29.000Z</time>
      </trkpt>
      <trkpt lat="49.77216" lon="4.84058">
        <ele>200</ele>
        <time>2020-10-31T09:43:30.000Z</time>
      </trkpt>
      <trkpt lat="49.7721" lon="4.84056">
        <ele>200</ele>
        <time>2020-10-31T09:43:31.000Z</time>
      </trkpt>
      <trkpt lat="49.77204" lon="4.84053">
        <ele>200</ele>
        <time>2020-10-31T09:43:32.000Z</time>
      </trkpt>
      <trkpt lat="49.77198" lon="4.84051">
        <ele>199</ele>
        <time>2020-10-31T09:43:33.000Z</time>
      </trkpt>
      <trkpt lat="49.77192" lon="4.84049">
        <ele>199</ele>
        <time>2020-10-31T09:43:34.000Z</time>
      </trkpt>
      <trkpt lat="49.77186" lon="4.84047">
        <ele>199</ele>
        <time>2020-10-31T09:43:35.000Z</time>
      </trkpt>
      <trkpt lat="49.7718" lon="4.84045">
        <ele>199</ele>
        <time>2020-10-31T09:43:36.000Z</time>
      </trkpt>
      <trkpt lat="49.77174" lon="4.84044">
        <ele>199</ele>
        <time>2020-10-31T09:43:37.000Z</time>
      </trkpt>
      <trkpt lat="49.77168" lon="4.84043">
        <ele>199</ele>
        <time>2020-10-31T09:43:38.000Z</time>
      </trkpt>
      <trkpt lat="49.77162" lon="4.84042">
        <ele>199</ele>
        <time>2020-10-31T09:43:39.000Z</time>
      </trkpt>
      <trkpt lat="49.77156" lon="4.84042">
        <ele>199</ele>
        <time>2020-10-31T09:43:40.000Z</time>
      </trkpt>
      <trkpt lat="49.77151" lon="4.8404">
        <ele>199</ele>
        <time>2020-10-31T09:43:41.000Z</time>
      </trkpt>
      <trkpt lat="49.77145" lon="4.84039">
        <ele>199</ele>
        <time>2020-10-31T09:43:42.000Z</time>
      </trkpt>
      <trkpt lat="49.77139" lon="4.84038">
        <ele>198</ele>
        <time>2020-10-31T09:43:43.000Z</time>
      </trkpt>
      <trkpt lat="49.77133" lon="4.84036">
        <ele>198</ele>
        <time>2020-10-31T09:43:44.000Z</time>
      </trkpt>
      <trkpt lat="49.77128" lon="4.84034">
        <ele>198</ele>
        <time>2020-10-31T09:43:45.000Z</time>
      </trkpt>
      <trkpt lat="49.77122" lon="4.84032">
        <ele>197</ele>
        <time>2020-10-31T09:43:46.000Z</time>
      </trkpt>
      <trkpt lat="49.77117" lon="4.8403">
        <ele>197</ele>
        <time>2020-10-31T09:43:47.000Z</time>
      </trkpt>
      <trkpt lat="49.77111" lon="4.84028">
        <ele>197</ele>
        <time>2020-10-31T09:43:48.000Z</time>
      </trkpt>
      <trkpt lat="49.77106" lon="4.84026">
        <ele>196</ele>
        <time>2020-10-31T09:43:49.000Z</time>
      </trkpt>
      <trkpt lat="49.771" lon="4.84025">
        <ele>196</ele>
        <time>2020-10-31T09:43:50.000Z</time>
      </trkpt>
      <trkpt lat="49.77095" lon="4.84023">
        <ele>195</ele>
        <time>2020-10-31T09:43:51.000Z</time>
      </trkpt>
      <trkpt lat="49.77089" lon="4.84021">
        <ele>195</ele>
        <time>2020-10-31T09:43:52.000Z</time>
      </trkpt>
      <trkpt lat="49.77084" lon="4.84019">
        <ele>195</ele>
        <time>2020-10-31T09:43:53.000Z</time>
      </trkpt>
      <trkpt lat="49.77078" lon="4.84018">
        <ele>194</ele>
        <time>2020-10-31T09:43:54.000Z</time>
      </trkpt>
      <trkpt lat="49.77073" lon="4.84016">
        <ele>194</ele>
        <time>2020-10-31T09:43:55.000Z</time>
      </trkpt>
      <trkpt lat="49.77068" lon="4.84014">
        <ele>194</ele>
        <time>2020-10-31T09:43:56.000Z</time>
      </trkpt>
      <trkpt lat="49.77063" lon="4.84012">
        <ele>194</ele>
        <time>2020-10-31T09:43:57.000Z</time>
      </trkpt>
      <trkpt lat="49.77058" lon="4.8401">
        <ele>193</ele>
        <time>2020-10-31T09:43:58.000Z</time>
      </trkpt>
      <trkpt lat="49.77053" lon="4.84008">
        <ele>193</ele>
        <time>2020-10-31T09:43:59.000Z</time>
      </trkpt>
      <trkpt lat="49.77048" lon="4.84006">
        <ele>193</ele>
        <time>2020-10-31T09:44:00.000Z</time>
      </trkpt>
      <trkpt lat="49.77043" lon="4.84003">
        <ele>192</ele>
        <time>2020-10-31T09:44:01.000Z</time>
      </trkpt>
      <trkpt lat="49.77037" lon="4.84">
        <ele>192</ele>
        <time>2020-10-31T09:44:02.000Z</time>
      </trkpt>
      <trkpt lat="49.77032" lon="4.83998">
        <ele>192</ele>
        <time>2020-10-31T09:44:03.000Z</time>
      </trkpt>
      <trkpt lat="49.77027" lon="4.83994">
        <ele>192</ele>
        <time>2020-10-31T09:44:04.000Z</time>
      </trkpt>
      <trkpt lat="49.77021" lon="4.83991">
        <ele>191</ele>
        <time>2020-10-31T09:44:05.000Z</time>
      </trkpt>
      <trkpt lat="49.77016" lon="4.83988">
        <ele>191</ele>
        <time>2020-10-31T09:44:06.000Z</time>
      </trkpt>
      <trkpt lat="49.7701" lon="4.83984">
        <ele>191</ele>
        <time>2020-10-31T09:44:07.000Z</time>
      </trkpt>
      <trkpt lat="49.77005" lon="4.83981">
        <ele>191</ele>
        <time>2020-10-31T09:44:08.000Z</time>
      </trkpt>
      <trkpt lat="49.76999" lon="4.83977">
        <ele>191</ele>
        <time>2020-10-31T09:44:09.000Z</time>
      </trkpt>
      <trkpt lat="49.76993" lon="4.83974">
        <ele>191</ele>
        <time>2020-10-31T09:44:10.000Z</time>
      </trkpt>
      <trkpt lat="49.76987" lon="4.83971">
        <ele>191</ele>
        <time>2020-10-31T09:44:11.000Z</time>
      </trkpt>
      <trkpt lat="49.76981" lon="4.83967">
        <ele>190</ele>
        <time>2020-10-31T09:44:12.000Z</time>
      </trkpt>
      <trkpt lat="49.76976" lon="4.83964">
        <ele>190</ele>
        <time>2020-10-31T09:44:13.000Z</time>
      </trkpt>
      <trkpt lat="49.7697" lon="4.8396">
        <ele>190</ele>
        <time>2020-10-31T09:44:14.000Z</time>
      </trkpt>
      <trkpt lat="49.76964" lon="4.83957">
        <ele>190</ele>
        <time>2020-10-31T09:44:15.000Z</time>
      </trkpt>
      <trkpt lat="49.76959" lon="4.83955">
        <ele>190</ele>
        <time>2020-10-31T09:44:16.000Z</time>
      </trkpt>
      <trkpt lat="49.76953" lon="4.83953">
        <ele>190</ele>
        <time>2020-10-31T09:44:17.000Z</time>
      </trkpt>
      <trkpt lat="49.76948" lon="4.83952">
        <ele>190</ele>
        <time>2020-10-31T09:44:18.000Z</time>
      </trkpt>
      <trkpt lat="49.76942" lon="4.8395">
        <ele>189</ele>
        <time>2020-10-31T09:44:19.000Z</time>
      </trkpt>
      <trkpt lat="49.76936" lon="4.83948">
        <ele>189</ele>
        <time>2020-10-31T09:44:20.000Z</time>
      </trkpt>
      <trkpt lat="49.7693" lon="4.83946">
        <ele>189</ele>
        <time>2020-10-31T09:44:21.000Z</time>
      </trkpt>
      <trkpt lat="49.76925" lon="4.83944">
        <ele>189</ele>
        <time>2020-10-31T09:44:22.000Z</time>
      </trkpt>
      <trkpt lat="49.76919" lon="4.83944">
        <ele>189</ele>
        <time>2020-10-31T09:44:23.000Z</time>
      </trkpt>
      <trkpt lat="49.76913" lon="4.83944">
        <ele>189</ele>
        <time>2020-10-31T09:44:24.000Z</time>
      </trkpt>
      <trkpt lat="49.76907" lon="4.83944">
        <ele>189</ele>
        <time>2020-10-31T09:44:25.000Z</time>
      </trkpt>
      <trkpt lat="49.76901" lon="4.83944">
        <ele>189</ele>
        <time>2020-10-31T09:44:26.000Z</time>
      </trkpt>
      <trkpt lat="49.76894" lon="4.83943">
        <ele>189</ele>
        <time>2020-10-31T09:44:27.000Z</time>
      </trkpt>
      <trkpt lat="49.76888" lon="4.83943">
        <ele>189</ele>
        <time>2020-10-31T09:44:28.000Z</time>
      </trkpt>
      <trkpt lat="49.76882" lon="4.83942">
        <ele>189</ele>
        <time>2020-10-31T09:44:29.000Z</time>
      </trkpt>
      <trkpt lat="49.76876" lon="4.83941">
        <ele>189</ele>
        <time>2020-10-31T09:44:30.000Z</time>
      </trkpt>
      <trkpt lat="49.7687" lon="4.83941">
        <ele>189</ele>
        <time>2020-10-31T09:44:31.000Z</time>
      </trkpt>
      <trkpt lat="49.76864" lon="4.8394">
        <ele>189</ele>
        <time>2020-10-31T09:44:32.000Z</time>
      </trkpt>
      <trkpt lat="49.76858" lon="4.8394">
        <ele>189</ele>
        <time>2020-10-31T09:44:33.000Z</time>
      </trkpt>
      <trkpt lat="49.76851" lon="4.8394">
        <ele>189</ele>
        <time>2020-10-31T09:44:34.000Z</time>
      </trkpt>
      <trkpt lat="49.76845" lon="4.8394">
        <ele>189</ele>
        <time>2020-10-31T09:44:35.000Z</time>
      </trkpt>
      <trkpt lat="49.76838" lon="4.83939">
        <ele>189</ele>
        <time>2020-10-31T09:44:36.000Z</time>
      </trkpt>
      <trkpt lat="49.76832" lon="4.83939">
        <ele>189</ele>
        <time>2020-10-31T09:44:37.000Z</time>
      </trkpt>
      <trkpt lat="49.76826" lon="4.83939">
        <ele>189</ele>
        <time>2020-10-31T09:44:38.000Z</time>
      </trkpt>
      <trkpt lat="49.7682" lon="4.83938">
        <ele>189</ele>
        <time>2020-10-31T09:44:39.000Z</time>
      </trkpt>
      <trkpt lat="49.76814" lon="4.83938">
        <ele>189</ele>
        <time>2020-10-31T09:44:40.000Z</time>
      </trkpt>
      <trkpt lat="49.76809" lon="4.83938">
        <ele>190</ele>
        <time>2020-10-31T09:44:41.000Z</time>
      </trkpt>
      <trkpt lat="49.76805" lon="4.83938">
        <ele>190</ele>
        <time>2020-10-31T09:44:42.000Z</time>
      </trkpt>
      <trkpt lat="49.76802" lon="4.83937">
        <ele>190</ele>
        <time>2020-10-31T09:44:43.000Z</time>
      </trkpt>
      <trkpt lat="49.76798" lon="4.83937">
        <ele>190</ele>
        <time>2020-10-31T09:44:44.000Z</time>
      </trkpt>
      <trkpt lat="49.76794" lon="4.83937">
        <ele>190</ele>
        <time>2020-10-31T09:44:45.000Z</time>
      </trkpt>
      <trkpt lat="49.76789" lon="4.83938">
        <ele>190</ele>
        <time>2020-10-31T09:44:46.000Z</time>
      </trkpt>
      <trkpt lat="49.76784" lon="4.83938">
        <ele>191</ele>
        <time>2020-10-31T09:44:47.000Z</time>
      </trkpt>
      <trkpt lat="49.76778" lon="4.83938">
        <ele>191</ele>
        <time>2020-10-31T09:44:48.000Z</time>
      </trkpt>
      <trkpt lat="49.76772" lon="4.83937">
        <ele>191</ele>
        <time>2020-10-31T09:44:49.000Z</time>
      </trkpt>
      <trkpt lat="49.76766" lon="4.83936">
        <ele>191</ele>
        <time>2020-10-31T09:44:50.000Z</time>
      </trkpt>
      <trkpt lat="49.7676" lon="4.83935">
        <ele>191</ele>
        <time>2020-10-31T09:44:51.000Z</time>
      </trkpt>
      <trkpt lat="49.76754" lon="4.83935">
        <ele>191</ele>
        <time>2020-10-31T09:44:52.000Z</time>
      </trkpt>
      <trkpt lat="49.76748" lon="4.83935">
        <ele>191</ele>
        <time>2020-10-31T09:44:53.000Z</time>
      </trkpt>
      <trkpt lat="49.76742" lon="4.83935">
        <ele>191</ele>
        <time>2020-10-31T09:44:54.000Z</time>
      </trkpt>
      <trkpt lat="49.76735" lon="4.83935">
        <ele>191</ele>
        <time>2020-10-31T09:44:55.000Z</time>
      </trkpt>
      <trkpt lat="49.76729" lon="4.83935">
        <ele>191</ele>
        <time>2020-10-31T09:44:56.000Z</time>
      </trkpt>
      <trkpt lat="49.76722" lon="4.83937">
        <ele>191</ele>
        <time>2020-10-31T09:44:57.000Z</time>
      </trkpt>
      <trkpt lat="49.76716" lon="4.83937">
        <ele>191</ele>
        <time>2020-10-31T09:44:58.000Z</time>
      </trkpt>
      <trkpt lat="49.7671" lon="4.83939">
        <ele>191</ele>
        <time>2020-10-31T09:44:59.000Z</time>
      </trkpt>
      <trkpt lat="49.76704" lon="4.83941">
        <ele>191</ele>
        <time>2020-10-31T09:45:00.000Z</time>
      </trkpt>
      <trkpt lat="49.76698" lon="4.83943">
        <ele>191</ele>
        <time>2020-10-31T09:45:01.000Z</time>
      </trkpt>
      <trkpt lat="49.76692" lon="4.83945">
        <ele>191</ele>
        <time>2020-10-31T09:45:02.000Z</time>
      </trkpt>
      <trkpt lat="49.76686" lon="4.83947">
        <ele>191</ele>
        <time>2020-10-31T09:45:03.000Z</time>
      </trkpt>
      <trkpt lat="49.76679" lon="4.8395">
        <ele>191</ele>
        <time>2020-10-31T09:45:04.000Z</time>
      </trkpt>
      <trkpt lat="49.76674" lon="4.83952">
        <ele>191</ele>
        <time>2020-10-31T09:45:05.000Z</time>
      </trkpt>
      <trkpt lat="49.76667" lon="4.83954">
        <ele>191</ele>
        <time>2020-10-31T09:45:06.000Z</time>
      </trkpt>
      <trkpt lat="49.76661" lon="4.83957">
        <ele>191</ele>
        <time>2020-10-31T09:45:07.000Z</time>
      </trkpt>
      <trkpt lat="49.76655" lon="4.8396">
        <ele>190</ele>
        <time>2020-10-31T09:45:08.000Z</time>
      </trkpt>
      <trkpt lat="49.76648" lon="4.83963">
        <ele>190</ele>
        <time>2020-10-31T09:45:09.000Z</time>
      </trkpt>
      <trkpt lat="49.76642" lon="4.83966">
        <ele>189</ele>
        <time>2020-10-31T09:45:10.000Z</time>
      </trkpt>
      <trkpt lat="49.76636" lon="4.83969">
        <ele>189</ele>
        <time>2020-10-31T09:45:11.000Z</time>
      </trkpt>
      <trkpt lat="49.7663" lon="4.83973">
        <ele>189</ele>
        <time>2020-10-31T09:45:12.000Z</time>
      </trkpt>
      <trkpt lat="49.76624" lon="4.83976">
        <ele>188</ele>
        <time>2020-10-31T09:45:13.000Z</time>
      </trkpt>
      <trkpt lat="49.76618" lon="4.83979">
        <ele>188</ele>
        <time>2020-10-31T09:45:14.000Z</time>
      </trkpt>
      <trkpt lat="49.76612" lon="4.83981">
        <ele>188</ele>
        <time>2020-10-31T09:45:15.000Z</time>
      </trkpt>
      <trkpt lat="49.76606" lon="4.83983">
        <ele>188</ele>
        <time>2020-10-31T09:45:16.000Z</time>
      </trkpt>
      <trkpt lat="49.766" lon="4.83984">
        <ele>187</ele>
        <time>2020-10-31T09:45:17.000Z</time>
      </trkpt>
      <trkpt lat="49.76595" lon="4.83986">
        <ele>187</ele>
        <time>2020-10-31T09:45:18.000Z</time>
      </trkpt>
      <trkpt lat="49.76589" lon="4.83987">
        <ele>187</ele>
        <time>2020-10-31T09:45:19.000Z</time>
      </trkpt>
      <trkpt lat="49.76584" lon="4.83988">
        <ele>186</ele>
        <time>2020-10-31T09:45:20.000Z</time>
      </trkpt>
      <trkpt lat="49.76578" lon="4.83988">
        <ele>186</ele>
        <time>2020-10-31T09:45:21.000Z</time>
      </trkpt>
      <trkpt lat="49.76573" lon="4.83988">
        <ele>186</ele>
        <time>2020-10-31T09:45:22.000Z</time>
      </trkpt>
      <trkpt lat="49.76568" lon="4.83988">
        <ele>185</ele>
        <time>2020-10-31T09:45:23.000Z</time>
      </trkpt>
      <trkpt lat="49.76562" lon="4.83989">
        <ele>185</ele>
        <time>2020-10-31T09:45:24.000Z</time>
      </trkpt>
      <trkpt lat="49.76557" lon="4.8399">
        <ele>185</ele>
        <time>2020-10-31T09:45:25.000Z</time>
      </trkpt>
      <trkpt lat="49.76551" lon="4.8399">
        <ele>184</ele>
        <time>2020-10-31T09:45:26.000Z</time>
      </trkpt>
      <trkpt lat="49.76546" lon="4.8399">
        <ele>184</ele>
        <time>2020-10-31T09:45:27.000Z</time>
      </trkpt>
      <trkpt lat="49.7654" lon="4.8399">
        <ele>184</ele>
        <time>2020-10-31T09:45:28.000Z</time>
      </trkpt>
      <trkpt lat="49.76534" lon="4.8399">
        <ele>184</ele>
        <time>2020-10-31T09:45:29.000Z</time>
      </trkpt>
      <trkpt lat="49.76529" lon="4.83989">
        <ele>183</ele>
        <time>2020-10-31T09:45:30.000Z</time>
      </trkpt>
      <trkpt lat="49.76524" lon="4.83989">
        <ele>183</ele>
        <time>2020-10-31T09:45:31.000Z</time>
      </trkpt>
      <trkpt lat="49.76518" lon="4.83989">
        <ele>183</ele>
        <time>2020-10-31T09:45:32.000Z</time>
      </trkpt>
      <trkpt lat="49.76513" lon="4.83988">
        <ele>183</ele>
        <time>2020-10-31T09:45:33.000Z</time>
      </trkpt>
      <trkpt lat="49.76507" lon="4.83987">
        <ele>182</ele>
        <time>2020-10-31T09:45:34.000Z</time>
      </trkpt>
      <trkpt lat="49.76502" lon="4.83987">
        <ele>182</ele>
        <time>2020-10-31T09:45:35.000Z</time>
      </trkpt>
      <trkpt lat="49.76496" lon="4.83987">
        <ele>182</ele>
        <time>2020-10-31T09:45:36.000Z</time>
      </trkpt>
      <trkpt lat="49.76491" lon="4.83987">
        <ele>182</ele>
        <time>2020-10-31T09:45:37.000Z</time>
      </trkpt>
      <trkpt lat="49.76485" lon="4.83986">
        <ele>182</ele>
        <time>2020-10-31T09:45:38.000Z</time>
      </trkpt>
      <trkpt lat="49.76479" lon="4.83986">
        <ele>182</ele>
        <time>2020-10-31T09:45:39.000Z</time>
      </trkpt>
      <trkpt lat="49.76474" lon="4.83985">
        <ele>181</ele>
        <time>2020-10-31T09:45:40.000Z</time>
      </trkpt>
      <trkpt lat="49.76468" lon="4.83984">
        <ele>181</ele>
        <time>2020-10-31T09:45:41.000Z</time>
      </trkpt>
      <trkpt lat="49.76462" lon="4.83983">
        <ele>181</ele>
        <time>2020-10-31T09:45:42.000Z</time>
      </trkpt>
      <trkpt lat="49.76457" lon="4.83982">
        <ele>180</ele>
        <time>2020-10-31T09:45:43.000Z</time>
      </trkpt>
      <trkpt lat="49.76451" lon="4.83982">
        <ele>180</ele>
        <time>2020-10-31T09:45:44.000Z</time>
      </trkpt>
      <trkpt lat="49.76446" lon="4.83981">
        <ele>180</ele>
        <time>2020-10-31T09:45:45.000Z</time>
      </trkpt>
      <trkpt lat="49.7644" lon="4.83981">
        <ele>180</ele>
        <time>2020-10-31T09:45:46.000Z</time>
      </trkpt>
      <trkpt lat="49.76435" lon="4.83981">
        <ele>180</ele>
        <time>2020-10-31T09:45:47.000Z</time>
      </trkpt>
      <trkpt lat="49.76429" lon="4.8398">
        <ele>180</ele>
        <time>2020-10-31T09:45:48.000Z</time>
      </trkpt>
      <trkpt lat="49.76424" lon="4.8398">
        <ele>180</ele>
        <time>2020-10-31T09:45:49.000Z</time>
      </trkpt>
      <trkpt lat="49.76418" lon="4.83979">
        <ele>179</ele>
        <time>2020-10-31T09:45:50.000Z</time>
      </trkpt>
      <trkpt lat="49.76413" lon="4.83979">
        <ele>179</ele>
        <time>2020-10-31T09:45:51.000Z</time>
      </trkpt>
      <trkpt lat="49.76408" lon="4.83979">
        <ele>179</ele>
        <time>2020-10-31T09:45:52.000Z</time>
      </trkpt>
      <trkpt lat="49.76402" lon="4.83978">
        <ele>179</ele>
        <time>2020-10-31T09:45:53.000Z</time>
      </trkpt>
      <trkpt lat="49.76397" lon="4.83978">
        <ele>179</ele>
        <time>2020-10-31T09:45:54.000Z</time>
      </trkpt>
      <trkpt lat="49.76391" lon="4.83978">
        <ele>179</ele>
        <time>2020-10-31T09:45:55.000Z</time>
      </trkpt>
      <trkpt lat="49.76386" lon="4.83977">
        <ele>179</ele>
        <time>2020-10-31T09:45:56.000Z</time>
      </trkpt>
      <trkpt lat="49.7638" lon="4.83977">
        <ele>178</ele>
        <time>2020-10-31T09:45:57.000Z</time>
      </trkpt>
      <trkpt lat="49.76374" lon="4.83976">
        <ele>178</ele>
        <time>2020-10-31T09:45:58.000Z</time>
      </trkpt>
      <trkpt lat="49.76369" lon="4.83976">
        <ele>178</ele>
        <time>2020-10-31T09:45:59.000Z</time>
      </trkpt>
      <trkpt lat="49.76363" lon="4.83976">
        <ele>178</ele>
        <time>2020-10-31T09:46:00.000Z</time>
      </trkpt>
      <trkpt lat="49.76357" lon="4.83975">
        <ele>178</ele>
        <time>2020-10-31T09:46:01.000Z</time>
      </trkpt>
      <trkpt lat="49.76352" lon="4.83975">
        <ele>178</ele>
        <time>2020-10-31T09:46:02.000Z</time>
      </trkpt>
      <trkpt lat="49.76346" lon="4.83975">
        <ele>178</ele>
        <time>2020-10-31T09:46:03.000Z</time>
      </trkpt>
      <trkpt lat="49.7634" lon="4.83974">
        <ele>178</ele>
        <time>2020-10-31T09:46:04.000Z</time>
      </trkpt>
      <trkpt lat="49.76334" lon="4.83973">
        <ele>178</ele>
        <time>2020-10-31T09:46:05.000Z</time>
      </trkpt>
      <trkpt lat="49.76328" lon="4.83971">
        <ele>177</ele>
        <time>2020-10-31T09:46:06.000Z</time>
      </trkpt>
      <trkpt lat="49.76323" lon="4.8397">
        <ele>177</ele>
        <time>2020-10-31T09:46:07.000Z</time>
      </trkpt>
      <trkpt lat="49.76317" lon="4.83967">
        <ele>177</ele>
        <time>2020-10-31T09:46:08.000Z</time>
      </trkpt>
      <trkpt lat="49.76311" lon="4.83964">
        <ele>177</ele>
        <time>2020-10-31T09:46:09.000Z</time>
      </trkpt>
      <trkpt lat="49.76306" lon="4.83961">
        <ele>177</ele>
        <time>2020-10-31T09:46:10.000Z</time>
      </trkpt>
      <trkpt lat="49.763" lon="4.83957">
        <ele>177</ele>
        <time>2020-10-31T09:46:11.000Z</time>
      </trkpt>
      <trkpt lat="49.76295" lon="4.83952">
        <ele>177</ele>
        <time>2020-10-31T09:46:12.000Z</time>
      </trkpt>
      <trkpt lat="49.7629" lon="4.83948">
        <ele>177</ele>
        <time>2020-10-31T09:46:13.000Z</time>
      </trkpt>
      <trkpt lat="49.76285" lon="4.83943">
        <ele>177</ele>
        <time>2020-10-31T09:46:14.000Z</time>
      </trkpt>
      <trkpt lat="49.7628" lon="4.83938">
        <ele>177</ele>
        <time>2020-10-31T09:46:15.000Z</time>
      </trkpt>
      <trkpt lat="49.76276" lon="4.83932">
        <ele>177</ele>
        <time>2020-10-31T09:46:16.000Z</time>
      </trkpt>
      <trkpt lat="49.76272" lon="4.83925">
        <ele>177</ele>
        <time>2020-10-31T09:46:17.000Z</time>
      </trkpt>
      <trkpt lat="49.76268" lon="4.83917">
        <ele>177</ele>
        <time>2020-10-31T09:46:18.000Z</time>
      </trkpt>
      <trkpt lat="49.76265" lon="4.83909">
        <ele>177</ele>
        <time>2020-10-31T09:46:19.000Z</time>
      </trkpt>
      <trkpt lat="49.76264" lon="4.83901">
        <ele>177</ele>
        <time>2020-10-31T09:46:20.000Z</time>
      </trkpt>
      <trkpt lat="49.76263" lon="4.83891">
        <ele>177</ele>
        <time>2020-10-31T09:46:21.000Z</time>
      </trkpt>
      <trkpt lat="49.76263" lon="4.83882">
        <ele>176</ele>
        <time>2020-10-31T09:46:22.000Z</time>
      </trkpt>
      <trkpt lat="49.76264" lon="4.83872">
        <ele>176</ele>
        <time>2020-10-31T09:46:23.000Z</time>
      </trkpt>
      <trkpt lat="49.76265" lon="4.83863">
        <ele>176</ele>
        <time>2020-10-31T09:46:24.000Z</time>
      </trkpt>
      <trkpt lat="49.76266" lon="4.83854">
        <ele>176</ele>
        <time>2020-10-31T09:46:25.000Z</time>
      </trkpt>
      <trkpt lat="49.76268" lon="4.83845">
        <ele>176</ele>
        <time>2020-10-31T09:46:26.000Z</time>
      </trkpt>
      <trkpt lat="49.76271" lon="4.83836">
        <ele>176</ele>
        <time>2020-10-31T09:46:27.000Z</time>
      </trkpt>
      <trkpt lat="49.76273" lon="4.83827">
        <ele>176</ele>
        <time>2020-10-31T09:46:28.000Z</time>
      </trkpt>
      <trkpt lat="49.76276" lon="4.83818">
        <ele>176</ele>
        <time>2020-10-31T09:46:29.000Z</time>
      </trkpt>
      <trkpt lat="49.76278" lon="4.8381">
        <ele>176</ele>
        <time>2020-10-31T09:46:30.000Z</time>
      </trkpt>
      <trkpt lat="49.76281" lon="4.83801">
        <ele>176</ele>
        <time>2020-10-31T09:46:31.000Z</time>
      </trkpt>
      <trkpt lat="49.76284" lon="4.83792">
        <ele>176</ele>
        <time>2020-10-31T09:46:32.000Z</time>
      </trkpt>
      <trkpt lat="49.76286" lon="4.83783">
        <ele>176</ele>
        <time>2020-10-31T09:46:33.000Z</time>
      </trkpt>
      <trkpt lat="49.76289" lon="4.83774">
        <ele>176</ele>
        <time>2020-10-31T09:46:34.000Z</time>
      </trkpt>
      <trkpt lat="49.76291" lon="4.83765">
        <ele>177</ele>
        <time>2020-10-31T09:46:35.000Z</time>
      </trkpt>
      <trkpt lat="49.76294" lon="4.83756">
        <ele>176</ele>
        <time>2020-10-31T09:46:36.000Z</time>
      </trkpt>
      <trkpt lat="49.76296" lon="4.83747">
        <ele>176</ele>
        <time>2020-10-31T09:46:37.000Z</time>
      </trkpt>
      <trkpt lat="49.76299" lon="4.83739">
        <ele>176</ele>
        <time>2020-10-31T09:46:38.000Z</time>
      </trkpt>
      <trkpt lat="49.76302" lon="4.83731">
        <ele>176</ele>
        <time>2020-10-31T09:46:39.000Z</time>
      </trkpt>
      <trkpt lat="49.76305" lon="4.83722">
        <ele>176</ele>
        <time>2020-10-31T09:46:40.000Z</time>
      </trkpt>
      <trkpt lat="49.76308" lon="4.83714">
        <ele>177</ele>
        <time>2020-10-31T09:46:41.000Z</time>
      </trkpt>
      <trkpt lat="49.7631" lon="4.83706">
        <ele>177</ele>
        <time>2020-10-31T09:46:42.000Z</time>
      </trkpt>
      <trkpt lat="49.76313" lon="4.83697">
        <ele>177</ele>
        <time>2020-10-31T09:46:43.000Z</time>
      </trkpt>
      <trkpt lat="49.76316" lon="4.83689">
        <ele>177</ele>
        <time>2020-10-31T09:46:44.000Z</time>
      </trkpt>
      <trkpt lat="49.76318" lon="4.83681">
        <ele>177</ele>
        <time>2020-10-31T09:46:45.000Z</time>
      </trkpt>
      <trkpt lat="49.76321" lon="4.83673">
        <ele>177</ele>
        <time>2020-10-31T09:46:46.000Z</time>
      </trkpt>
      <trkpt lat="49.76324" lon="4.83665">
        <ele>177</ele>
        <time>2020-10-31T09:46:47.000Z</time>
      </trkpt>
      <trkpt lat="49.76326" lon="4.83657">
        <ele>177</ele>
        <time>2020-10-31T09:46:48.000Z</time>
      </trkpt>
      <trkpt lat="49.76329" lon="4.83649">
        <ele>177</ele>
        <time>2020-10-31T09:46:49.000Z</time>
      </trkpt>
      <trkpt lat="49.76331" lon="4.83641">
        <ele>177</ele>
        <time>2020-10-31T09:46:50.000Z</time>
      </trkpt>
      <trkpt lat="49.76334" lon="4.83633">
        <ele>178</ele>
        <time>2020-10-31T09:46:51.000Z</time>
      </trkpt>
      <trkpt lat="49.76336" lon="4.83625">
        <ele>178</ele>
        <time>2020-10-31T09:46:52.000Z</time>
      </trkpt>
      <trkpt lat="49.76339" lon="4.83617">
        <ele>178</ele>
        <time>2020-10-31T09:46:53.000Z</time>
      </trkpt>
      <trkpt lat="49.76341" lon="4.83609">
        <ele>178</ele>
        <time>2020-10-31T09:46:54.000Z</time>
      </trkpt>
      <trkpt lat="49.76343" lon="4.83601">
        <ele>178</ele>
        <time>2020-10-31T09:46:55.000Z</time>
      </trkpt>
      <trkpt lat="49.76345" lon="4.83593">
        <ele>178</ele>
        <time>2020-10-31T09:46:56.000Z</time>
      </trkpt>
      <trkpt lat="49.76347" lon="4.83585">
        <ele>178</ele>
        <time>2020-10-31T09:46:57.000Z</time>
      </trkpt>
      <trkpt lat="49.7635" lon="4.83577">
        <ele>178</ele>
        <time>2020-10-31T09:46:58.000Z</time>
      </trkpt>
      <trkpt lat="49.76352" lon="4.83569">
        <ele>179</ele>
        <time>2020-10-31T09:46:59.000Z</time>
      </trkpt>
      <trkpt lat="49.76354" lon="4.83561">
        <ele>179</ele>
        <time>2020-10-31T09:47:00.000Z</time>
      </trkpt>
      <trkpt lat="49.76356" lon="4.83553">
        <ele>179</ele>
        <time>2020-10-31T09:47:01.000Z</time>
      </trkpt>
      <trkpt lat="49.76358" lon="4.83545">
        <ele>179</ele>
        <time>2020-10-31T09:47:02.000Z</time>
      </trkpt>
      <trkpt lat="49.7636" lon="4.83536">
        <ele>179</ele>
        <time>2020-10-31T09:47:03.000Z</time>
      </trkpt>
      <trkpt lat="49.76362" lon="4.83528">
        <ele>179</ele>
        <time>2020-10-31T09:47:04.000Z</time>
      </trkpt>
      <trkpt lat="49.76363" lon="4.8352">
        <ele>179</ele>
        <time>2020-10-31T09:47:05.000Z</time>
      </trkpt>
      <trkpt lat="49.76365" lon="4.83512">
        <ele>180</ele>
        <time>2020-10-31T09:47:06.000Z</time>
      </trkpt>
      <trkpt lat="49.76367" lon="4.83504">
        <ele>180</ele>
        <time>2020-10-31T09:47:07.000Z</time>
      </trkpt>
      <trkpt lat="49.76368" lon="4.83496">
        <ele>180</ele>
        <time>2020-10-31T09:47:08.000Z</time>
      </trkpt>
      <trkpt lat="49.7637" lon="4.83488">
        <ele>180</ele>
        <time>2020-10-31T09:47:09.000Z</time>
      </trkpt>
      <trkpt lat="49.76372" lon="4.8348">
        <ele>180</ele>
        <time>2020-10-31T09:47:10.000Z</time>
      </trkpt>
      <trkpt lat="49.76373" lon="4.83472">
        <ele>180</ele>
        <time>2020-10-31T09:47:11.000Z</time>
      </trkpt>
      <trkpt lat="49.76374" lon="4.83464">
        <ele>180</ele>
        <time>2020-10-31T09:47:12.000Z</time>
      </trkpt>
      <trkpt lat="49.76376" lon="4.83456">
        <ele>180</ele>
        <time>2020-10-31T09:47:13.000Z</time>
      </trkpt>
      <trkpt lat="49.76377" lon="4.83448">
        <ele>181</ele>
        <time>2020-10-31T09:47:14.000Z</time>
      </trkpt>
      <trkpt lat="49.76377" lon="4.8344">
        <ele>181</ele>
        <time>2020-10-31T09:47:15.000Z</time>
      </trkpt>
      <trkpt lat="49.76378" lon="4.83432">
        <ele>181</ele>
        <time>2020-10-31T09:47:16.000Z</time>
      </trkpt>
      <trkpt lat="49.76379" lon="4.83423">
        <ele>181</ele>
        <time>2020-10-31T09:47:17.000Z</time>
      </trkpt>
      <trkpt lat="49.7638" lon="4.83415">
        <ele>181</ele>
        <time>2020-10-31T09:47:18.000Z</time>
      </trkpt>
      <trkpt lat="49.76381" lon="4.83406">
        <ele>181</ele>
        <time>2020-10-31T09:47:19.000Z</time>
      </trkpt>
      <trkpt lat="49.76381" lon="4.83397">
        <ele>181</ele>
        <time>2020-10-31T09:47:20.000Z</time>
      </trkpt>
      <trkpt lat="49.76381" lon="4.83388">
        <ele>181</ele>
        <time>2020-10-31T09:47:21.000Z</time>
      </trkpt>
      <trkpt lat="49.76382" lon="4.83378">
        <ele>180</ele>
        <time>2020-10-31T09:47:22.000Z</time>
      </trkpt>
      <trkpt lat="49.76382" lon="4.83369">
        <ele>180</ele>
        <time>2020-10-31T09:47:23.000Z</time>
      </trkpt>
      <trkpt lat="49.76381" lon="4.8336">
        <ele>180</ele>
        <time>2020-10-31T09:47:24.000Z</time>
      </trkpt>
      <trkpt lat="49.76381" lon="4.8335">
        <ele>180</ele>
        <time>2020-10-31T09:47:25.000Z</time>
      </trkpt>
      <trkpt lat="49.7638" lon="4.8334">
        <ele>180</ele>
        <time>2020-10-31T09:47:26.000Z</time>
      </trkpt>
      <trkpt lat="49.76379" lon="4.8333">
        <ele>180</ele>
        <time>2020-10-31T09:47:27.000Z</time>
      </trkpt>
      <trkpt lat="49.76377" lon="4.8332">
        <ele>180</ele>
        <time>2020-10-31T09:47:28.000Z</time>
      </trkpt>
      <trkpt lat="49.76373" lon="4.83311">
        <ele>180</ele>
        <time>2020-10-31T09:47:29.000Z</time>
      </trkpt>
      <trkpt lat="49.7637" lon="4.83303">
        <ele>180</ele>
        <time>2020-10-31T09:47:30.000Z</time>
      </trkpt>
      <trkpt lat="49.76366" lon="4.83295">
        <ele>180</ele>
        <time>2020-10-31T09:47:31.000Z</time>
      </trkpt>
      <trkpt lat="49.76361" lon="4.83287">
        <ele>180</ele>
        <time>2020-10-31T09:47:32.000Z</time>
      </trkpt>
      <trkpt lat="49.76357" lon="4.8328">
        <ele>180</ele>
        <time>2020-10-31T09:47:33.000Z</time>
      </trkpt>
      <trkpt lat="49.76352" lon="4.83273">
        <ele>180</ele>
        <time>2020-10-31T09:47:34.000Z</time>
      </trkpt>
      <trkpt lat="49.76347" lon="4.83266">
        <ele>180</ele>
        <time>2020-10-31T09:47:35.000Z</time>
      </trkpt>
      <trkpt lat="49.76342" lon="4.83258">
        <ele>180</ele>
        <time>2020-10-31T09:47:36.000Z</time>
      </trkpt>
      <trkpt lat="49.76338" lon="4.83251">
        <ele>179</ele>
        <time>2020-10-31T09:47:37.000Z</time>
      </trkpt>
      <trkpt lat="49.76334" lon="4.83243">
        <ele>179</ele>
        <time>2020-10-31T09:47:38.000Z</time>
      </trkpt>
      <trkpt lat="49.7633" lon="4.83235">
        <ele>179</ele>
        <time>2020-10-31T09:47:39.000Z</time>
      </trkpt>
      <trkpt lat="49.76326" lon="4.83227">
        <ele>179</ele>
        <time>2020-10-31T09:47:40.000Z</time>
      </trkpt>
      <trkpt lat="49.76323" lon="4.83219">
        <ele>179</ele>
        <time>2020-10-31T09:47:41.000Z</time>
      </trkpt>
      <trkpt lat="49.76321" lon="4.8321">
        <ele>179</ele>
        <time>2020-10-31T09:47:42.000Z</time>
      </trkpt>
      <trkpt lat="49.76318" lon="4.83202">
        <ele>179</ele>
        <time>2020-10-31T09:47:43.000Z</time>
      </trkpt>
      <trkpt lat="49.76316" lon="4.83194">
        <ele>179</ele>
        <time>2020-10-31T09:47:44.000Z</time>
      </trkpt>
      <trkpt lat="49.76313" lon="4.83186">
        <ele>180</ele>
        <time>2020-10-31T09:47:45.000Z</time>
      </trkpt>
      <trkpt lat="49.7631" lon="4.83179">
        <ele>180</ele>
        <time>2020-10-31T09:47:46.000Z</time>
      </trkpt>
      <trkpt lat="49.76308" lon="4.83171">
        <ele>180</ele>
        <time>2020-10-31T09:47:47.000Z</time>
      </trkpt>
      <trkpt lat="49.76305" lon="4.83164">
        <ele>180</ele>
        <time>2020-10-31T09:47:48.000Z</time>
      </trkpt>
      <trkpt lat="49.76302" lon="4.83157">
        <ele>180</ele>
        <time>2020-10-31T09:47:49.000Z</time>
      </trkpt>
      <trkpt lat="49.76299" lon="4.8315">
        <ele>180</ele>
        <time>2020-10-31T09:47:50.000Z</time>
      </trkpt>
      <trkpt lat="49.76297" lon="4.83143">
        <ele>180</ele>
        <time>2020-10-31T09:47:51.000Z</time>
      </trkpt>
      <trkpt lat="49.76294" lon="4.83136">
        <ele>180</ele>
        <time>2020-10-31T09:47:52.000Z</time>
      </trkpt>
      <trkpt lat="49.7629" lon="4.83129">
        <ele>180</ele>
        <time>2020-10-31T09:47:53.000Z</time>
      </trkpt>
      <trkpt lat="49.76286" lon="4.83121">
        <ele>180</ele>
        <time>2020-10-31T09:47:54.000Z</time>
      </trkpt>
      <trkpt lat="49.76281" lon="4.83113">
        <ele>180</ele>
        <time>2020-10-31T09:47:55.000Z</time>
      </trkpt>
      <trkpt lat="49.76277" lon="4.83105">
        <ele>180</ele>
        <time>2020-10-31T09:47:56.000Z</time>
      </trkpt>
      <trkpt lat="49.76272" lon="4.83097">
        <ele>180</ele>
        <time>2020-10-31T09:47:57.000Z</time>
      </trkpt>
      <trkpt lat="49.76267" lon="4.83089">
        <ele>180</ele>
        <time>2020-10-31T09:47:58.000Z</time>
      </trkpt>
      <trkpt lat="49.76263" lon="4.8308">
        <ele>180</ele>
        <time>2020-10-31T09:47:59.000Z</time>
      </trkpt>
      <trkpt lat="49.76258" lon="4.83072">
        <ele>180</ele>
        <time>2020-10-31T09:48:00.000Z</time>
      </trkpt>
      <trkpt lat="49.76253" lon="4.83064">
        <ele>180</ele>
        <time>2020-10-31T09:48:01.000Z</time>
      </trkpt>
      <trkpt lat="49.76248" lon="4.83056">
        <ele>180</ele>
        <time>2020-10-31T09:48:02.000Z</time>
      </trkpt>
      <trkpt lat="49.76244" lon="4.83048">
        <ele>180</ele>
        <time>2020-10-31T09:48:03.000Z</time>
      </trkpt>
      <trkpt lat="49.76239" lon="4.83041">
        <ele>180</ele>
        <time>2020-10-31T09:48:04.000Z</time>
      </trkpt>
      <trkpt lat="49.76234" lon="4.83035">
        <ele>180</ele>
        <time>2020-10-31T09:48:05.000Z</time>
      </trkpt>
      <trkpt lat="49.76228" lon="4.83029">
        <ele>180</ele>
        <time>2020-10-31T09:48:06.000Z</time>
      </trkpt>
      <trkpt lat="49.76222" lon="4.83024">
        <ele>180</ele>
        <time>2020-10-31T09:48:07.000Z</time>
      </trkpt>
      <trkpt lat="49.76217" lon="4.83018">
        <ele>180</ele>
        <time>2020-10-31T09:48:08.000Z</time>
      </trkpt>
      <trkpt lat="49.76211" lon="4.83012">
        <ele>180</ele>
        <time>2020-10-31T09:48:09.000Z</time>
      </trkpt>
      <trkpt lat="49.76205" lon="4.83006">
        <ele>180</ele>
        <time>2020-10-31T09:48:10.000Z</time>
      </trkpt>
      <trkpt lat="49.76199" lon="4.83">
        <ele>180</ele>
        <time>2020-10-31T09:48:11.000Z</time>
      </trkpt>
      <trkpt lat="49.76194" lon="4.82994">
        <ele>181</ele>
        <time>2020-10-31T09:48:12.000Z</time>
      </trkpt>
      <trkpt lat="49.76188" lon="4.8299">
        <ele>181</ele>
        <time>2020-10-31T09:48:13.000Z</time>
      </trkpt>
      <trkpt lat="49.76183" lon="4.82985">
        <ele>181</ele>
        <time>2020-10-31T09:48:14.000Z</time>
      </trkpt>
      <trkpt lat="49.76179" lon="4.8298">
        <ele>181</ele>
        <time>2020-10-31T09:48:15.000Z</time>
      </trkpt>
      <trkpt lat="49.76176" lon="4.82973">
        <ele>181</ele>
        <time>2020-10-31T09:48:16.000Z</time>
      </trkpt>
      <trkpt lat="49.76174" lon="4.82966">
        <ele>181</ele>
        <time>2020-10-31T09:48:17.000Z</time>
      </trkpt>
      <trkpt lat="49.76174" lon="4.82958">
        <ele>181</ele>
        <time>2020-10-31T09:48:18.000Z</time>
      </trkpt>
      <trkpt lat="49.76175" lon="4.8295">
        <ele>181</ele>
        <time>2020-10-31T09:48:19.000Z</time>
      </trkpt>
      <trkpt lat="49.76175" lon="4.82942">
        <ele>182</ele>
        <time>2020-10-31T09:48:20.000Z</time>
      </trkpt>
      <trkpt lat="49.76172" lon="4.82936">
        <ele>182</ele>
        <time>2020-10-31T09:48:21.000Z</time>
      </trkpt>
      <trkpt lat="49.76169" lon="4.8293">
        <ele>182</ele>
        <time>2020-10-31T09:48:22.000Z</time>
      </trkpt>
      <trkpt lat="49.76163" lon="4.82925">
        <ele>181</ele>
        <time>2020-10-31T09:48:23.000Z</time>
      </trkpt>
      <trkpt lat="49.76158" lon="4.82921">
        <ele>181</ele>
        <time>2020-10-31T09:48:24.000Z</time>
      </trkpt>
      <trkpt lat="49.76152" lon="4.82916">
        <ele>181</ele>
        <time>2020-10-31T09:48:25.000Z</time>
      </trkpt>
      <trkpt lat="49.76146" lon="4.82912">
        <ele>181</ele>
        <time>2020-10-31T09:48:26.000Z</time>
      </trkpt>
      <trkpt lat="49.7614" lon="4.82908">
        <ele>181</ele>
        <time>2020-10-31T09:48:27.000Z</time>
      </trkpt>
      <trkpt lat="49.76134" lon="4.82904">
        <ele>181</ele>
        <time>2020-10-31T09:48:28.000Z</time>
      </trkpt>
      <trkpt lat="49.76128" lon="4.82902">
        <ele>182</ele>
        <time>2020-10-31T09:48:29.000Z</time>
      </trkpt>
      <trkpt lat="49.76122" lon="4.829">
        <ele>182</ele>
        <time>2020-10-31T09:48:30.000Z</time>
      </trkpt>
      <trkpt lat="49.76116" lon="4.82898">
        <ele>182</ele>
        <time>2020-10-31T09:48:31.000Z</time>
      </trkpt>
      <trkpt lat="49.76111" lon="4.82896">
        <ele>182</ele>
        <time>2020-10-31T09:48:32.000Z</time>
      </trkpt>
      <trkpt lat="49.76105" lon="4.82895">
        <ele>182</ele>
        <time>2020-10-31T09:48:33.000Z</time>
      </trkpt>
      <trkpt lat="49.76099" lon="4.82893">
        <ele>182</ele>
        <time>2020-10-31T09:48:34.000Z</time>
      </trkpt>
      <trkpt lat="49.76093" lon="4.82892">
        <ele>182</ele>
        <time>2020-10-31T09:48:35.000Z</time>
      </trkpt>
      <trkpt lat="49.76087" lon="4.82889">
        <ele>182</ele>
        <time>2020-10-31T09:48:36.000Z</time>
      </trkpt>
      <trkpt lat="49.76082" lon="4.82885">
        <ele>182</ele>
        <time>2020-10-31T09:48:37.000Z</time>
      </trkpt>
      <trkpt lat="49.76078" lon="4.82881">
        <ele>182</ele>
        <time>2020-10-31T09:48:38.000Z</time>
      </trkpt>
      <trkpt lat="49.76073" lon="4.82875">
        <ele>182</ele>
        <time>2020-10-31T09:48:39.000Z</time>
      </trkpt>
      <trkpt lat="49.76069" lon="4.8287">
        <ele>182</ele>
        <time>2020-10-31T09:48:40.000Z</time>
      </trkpt>
      <trkpt lat="49.76065" lon="4.82864">
        <ele>182</ele>
        <time>2020-10-31T09:48:41.000Z</time>
      </trkpt>
      <trkpt lat="49.76061" lon="4.82858">
        <ele>182</ele>
        <time>2020-10-31T09:48:42.000Z</time>
      </trkpt>
      <trkpt lat="49.76058" lon="4.82853">
        <ele>182</ele>
        <time>2020-10-31T09:48:43.000Z</time>
      </trkpt>
      <trkpt lat="49.76054" lon="4.82847">
        <ele>182</ele>
        <time>2020-10-31T09:48:44.000Z</time>
      </trkpt>
      <trkpt lat="49.7605" lon="4.82841">
        <ele>182</ele>
        <time>2020-10-31T09:48:45.000Z</time>
      </trkpt>
      <trkpt lat="49.76046" lon="4.82834">
        <ele>182</ele>
        <time>2020-10-31T09:48:46.000Z</time>
      </trkpt>
      <trkpt lat="49.76042" lon="4.82828">
        <ele>182</ele>
        <time>2020-10-31T09:48:47.000Z</time>
      </trkpt>
      <trkpt lat="49.76038" lon="4.82822">
        <ele>182</ele>
        <time>2020-10-31T09:48:48.000Z</time>
      </trkpt>
      <trkpt lat="49.76033" lon="4.82817">
        <ele>182</ele>
        <time>2020-10-31T09:48:49.000Z</time>
      </trkpt>
      <trkpt lat="49.76029" lon="4.82811">
        <ele>182</ele>
        <time>2020-10-31T09:48:50.000Z</time>
      </trkpt>
      <trkpt lat="49.76024" lon="4.82806">
        <ele>183</ele>
        <time>2020-10-31T09:48:51.000Z</time>
      </trkpt>
      <trkpt lat="49.7602" lon="4.828">
        <ele>183</ele>
        <time>2020-10-31T09:48:52.000Z</time>
      </trkpt>
      <trkpt lat="49.76015" lon="4.82795">
        <ele>183</ele>
        <time>2020-10-31T09:48:53.000Z</time>
      </trkpt>
      <trkpt lat="49.76011" lon="4.82791">
        <ele>183</ele>
        <time>2020-10-31T09:48:54.000Z</time>
      </trkpt>
      <trkpt lat="49.76006" lon="4.82787">
        <ele>183</ele>
        <time>2020-10-31T09:48:55.000Z</time>
      </trkpt>
      <trkpt lat="49.76001" lon="4.82783">
        <ele>183</ele>
        <time>2020-10-31T09:48:56.000Z</time>
      </trkpt>
      <trkpt lat="49.75996" lon="4.82778">
        <ele>183</ele>
        <time>2020-10-31T09:48:57.000Z</time>
      </trkpt>
      <trkpt lat="49.75992" lon="4.82775">
        <ele>183</ele>
        <time>2020-10-31T09:48:58.000Z</time>
      </trkpt>
      <trkpt lat="49.75987" lon="4.82771">
        <ele>183</ele>
        <time>2020-10-31T09:48:59.000Z</time>
      </trkpt>
      <trkpt lat="49.75983" lon="4.82767">
        <ele>183</ele>
        <time>2020-10-31T09:49:00.000Z</time>
      </trkpt>
      <trkpt lat="49.75979" lon="4.82764">
        <ele>183</ele>
        <time>2020-10-31T09:49:01.000Z</time>
      </trkpt>
      <trkpt lat="49.75974" lon="4.82761">
        <ele>183</ele>
        <time>2020-10-31T09:49:02.000Z</time>
      </trkpt>
      <trkpt lat="49.7597" lon="4.82758">
        <ele>184</ele>
        <time>2020-10-31T09:49:03.000Z</time>
      </trkpt>
      <trkpt lat="49.75966" lon="4.82754">
        <ele>184</ele>
        <time>2020-10-31T09:49:04.000Z</time>
      </trkpt>
      <trkpt lat="49.75962" lon="4.82751">
        <ele>184</ele>
        <time>2020-10-31T09:49:05.000Z</time>
      </trkpt>
      <trkpt lat="49.75958" lon="4.82747">
        <ele>184</ele>
        <time>2020-10-31T09:49:06.000Z</time>
      </trkpt>
      <trkpt lat="49.75953" lon="4.82743">
        <ele>184</ele>
        <time>2020-10-31T09:49:07.000Z</time>
      </trkpt>
      <trkpt lat="49.75949" lon="4.82739">
        <ele>184</ele>
        <time>2020-10-31T09:49:08.000Z</time>
      </trkpt>
      <trkpt lat="49.75944" lon="4.82734">
        <ele>185</ele>
        <time>2020-10-31T09:49:09.000Z</time>
      </trkpt>
      <trkpt lat="49.7594" lon="4.82729">
        <ele>185</ele>
        <time>2020-10-31T09:49:10.000Z</time>
      </trkpt>
      <trkpt lat="49.75936" lon="4.82724">
        <ele>185</ele>
        <time>2020-10-31T09:49:11.000Z</time>
      </trkpt>
      <trkpt lat="49.75931" lon="4.82718">
        <ele>185</ele>
        <time>2020-10-31T09:49:12.000Z</time>
      </trkpt>
      <trkpt lat="49.75927" lon="4.82713">
        <ele>185</ele>
        <time>2020-10-31T09:49:13.000Z</time>
      </trkpt>
      <trkpt lat="49.75923" lon="4.82707">
        <ele>185</ele>
        <time>2020-10-31T09:49:14.000Z</time>
      </trkpt>
      <trkpt lat="49.75919" lon="4.82702">
        <ele>185</ele>
        <time>2020-10-31T09:49:15.000Z</time>
      </trkpt>
      <trkpt lat="49.75914" lon="4.82696">
        <ele>185</ele>
        <time>2020-10-31T09:49:16.000Z</time>
      </trkpt>
      <trkpt lat="49.7591" lon="4.82691">
        <ele>185</ele>
        <time>2020-10-31T09:49:17.000Z</time>
      </trkpt>
      <trkpt lat="49.75906" lon="4.82686">
        <ele>186</ele>
        <time>2020-10-31T09:49:18.000Z</time>
      </trkpt>
      <trkpt lat="49.75901" lon="4.8268">
        <ele>185</ele>
        <time>2020-10-31T09:49:19.000Z</time>
      </trkpt>
      <trkpt lat="49.75897" lon="4.82675">
        <ele>185</ele>
        <time>2020-10-31T09:49:20.000Z</time>
      </trkpt>
      <trkpt lat="49.75892" lon="4.82669">
        <ele>185</ele>
        <time>2020-10-31T09:49:21.000Z</time>
      </trkpt>
      <trkpt lat="49.75888" lon="4.82663">
        <ele>185</ele>
        <time>2020-10-31T09:49:22.000Z</time>
      </trkpt>
      <trkpt lat="49.75883" lon="4.82657">
        <ele>185</ele>
        <time>2020-10-31T09:49:23.000Z</time>
      </trkpt>
      <trkpt lat="49.75878" lon="4.8265">
        <ele>185</ele>
        <time>2020-10-31T09:49:24.000Z</time>
      </trkpt>
      <trkpt lat="49.75873" lon="4.82644">
        <ele>185</ele>
        <time>2020-10-31T09:49:25.000Z</time>
      </trkpt>
      <trkpt lat="49.75869" lon="4.82637">
        <ele>185</ele>
        <time>2020-10-31T09:49:26.000Z</time>
      </trkpt>
      <trkpt lat="49.75864" lon="4.8263">
        <ele>184</ele>
        <time>2020-10-31T09:49:27.000Z</time>
      </trkpt>
      <trkpt lat="49.75859" lon="4.82623">
        <ele>184</ele>
        <time>2020-10-31T09:49:28.000Z</time>
      </trkpt>
      <trkpt lat="49.75854" lon="4.82616">
        <ele>184</ele>
        <time>2020-10-31T09:49:29.000Z</time>
      </trkpt>
      <trkpt lat="49.75849" lon="4.82608">
        <ele>184</ele>
        <time>2020-10-31T09:49:30.000Z</time>
      </trkpt>
      <trkpt lat="49.75844" lon="4.82601">
        <ele>184</ele>
        <time>2020-10-31T09:49:31.000Z</time>
      </trkpt>
      <trkpt lat="49.75839" lon="4.82595">
        <ele>183</ele>
        <time>2020-10-31T09:49:32.000Z</time>
      </trkpt>
      <trkpt lat="49.75833" lon="4.82589">
        <ele>183</ele>
        <time>2020-10-31T09:49:33.000Z</time>
      </trkpt>
      <trkpt lat="49.75827" lon="4.82584">
        <ele>183</ele>
        <time>2020-10-31T09:49:34.000Z</time>
      </trkpt>
      <trkpt lat="49.7582" lon="4.8258">
        <ele>183</ele>
        <time>2020-10-31T09:49:35.000Z</time>
      </trkpt>
      <trkpt lat="49.75814" lon="4.82577">
        <ele>183</ele>
        <time>2020-10-31T09:49:36.000Z</time>
      </trkpt>
      <trkpt lat="49.75807" lon="4.82574">
        <ele>183</ele>
        <time>2020-10-31T09:49:37.000Z</time>
      </trkpt>
      <trkpt lat="49.758" lon="4.82571">
        <ele>182</ele>
        <time>2020-10-31T09:49:38.000Z</time>
      </trkpt>
      <trkpt lat="49.75793" lon="4.82568">
        <ele>182</ele>
        <time>2020-10-31T09:49:39.000Z</time>
      </trkpt>
      <trkpt lat="49.75786" lon="4.82565">
        <ele>182</ele>
        <time>2020-10-31T09:49:40.000Z</time>
      </trkpt>
      <trkpt lat="49.7578" lon="4.82562">
        <ele>182</ele>
        <time>2020-10-31T09:49:41.000Z</time>
      </trkpt>
      <trkpt lat="49.75773" lon="4.82559">
        <ele>182</ele>
        <time>2020-10-31T09:49:42.000Z</time>
      </trkpt>
      <trkpt lat="49.75767" lon="4.82556">
        <ele>182</ele>
        <time>2020-10-31T09:49:43.000Z</time>
      </trkpt>
      <trkpt lat="49.75761" lon="4.82553">
        <ele>182</ele>
        <time>2020-10-31T09:49:44.000Z</time>
      </trkpt>
      <trkpt lat="49.75755" lon="4.8255">
        <ele>182</ele>
        <time>2020-10-31T09:49:45.000Z</time>
      </trkpt>
      <trkpt lat="49.75749" lon="4.82547">
        <ele>182</ele>
        <time>2020-10-31T09:49:46.000Z</time>
      </trkpt>
      <trkpt lat="49.75743" lon="4.82544">
        <ele>182</ele>
        <time>2020-10-31T09:49:47.000Z</time>
      </trkpt>
      <trkpt lat="49.75737" lon="4.8254">
        <ele>182</ele>
        <time>2020-10-31T09:49:48.000Z</time>
      </trkpt>
      <trkpt lat="49.75731" lon="4.82537">
        <ele>182</ele>
        <time>2020-10-31T09:49:49.000Z</time>
      </trkpt>
      <trkpt lat="49.75725" lon="4.82532">
        <ele>182</ele>
        <time>2020-10-31T09:49:50.000Z</time>
      </trkpt>
      <trkpt lat="49.7572" lon="4.82526">
        <ele>182</ele>
        <time>2020-10-31T09:49:51.000Z</time>
      </trkpt>
      <trkpt lat="49.75715" lon="4.8252">
        <ele>182</ele>
        <time>2020-10-31T09:49:52.000Z</time>
      </trkpt>
      <trkpt lat="49.75709" lon="4.82515">
        <ele>182</ele>
        <time>2020-10-31T09:49:53.000Z</time>
      </trkpt>
      <trkpt lat="49.75704" lon="4.82509">
        <ele>182</ele>
        <time>2020-10-31T09:49:54.000Z</time>
      </trkpt>
      <trkpt lat="49.75698" lon="4.82504">
        <ele>182</ele>
        <time>2020-10-31T09:49:55.000Z</time>
      </trkpt>
      <trkpt lat="49.75693" lon="4.82499">
        <ele>182</ele>
        <time>2020-10-31T09:49:56.000Z</time>
      </trkpt>
      <trkpt lat="49.75688" lon="4.82493">
        <ele>182</ele>
        <time>2020-10-31T09:49:57.000Z</time>
      </trkpt>
      <trkpt lat="49.75683" lon="4.82488">
        <ele>182</ele>
        <time>2020-10-31T09:49:58.000Z</time>
      </trkpt>
      <trkpt lat="49.75678" lon="4.82483">
        <ele>182</ele>
        <time>2020-10-31T09:49:59.000Z</time>
      </trkpt>
      <trkpt lat="49.75672" lon="4.82478">
        <ele>182</ele>
        <time>2020-10-31T09:50:00.000Z</time>
      </trkpt>
      <trkpt lat="49.75667" lon="4.82472">
        <ele>182</ele>
        <time>2020-10-31T09:50:01.000Z</time>
      </trkpt>
      <trkpt lat="49.75662" lon="4.82467">
        <ele>182</ele>
        <time>2020-10-31T09:50:02.000Z</time>
      </trkpt>
      <trkpt lat="49.75658" lon="4.82461">
        <ele>182</ele>
        <time>2020-10-31T09:50:03.000Z</time>
      </trkpt>
      <trkpt lat="49.75653" lon="4.82456">
        <ele>182</ele>
        <time>2020-10-31T09:50:04.000Z</time>
      </trkpt>
      <trkpt lat="49.75648" lon="4.8245">
        <ele>182</ele>
        <time>2020-10-31T09:50:05.000Z</time>
      </trkpt>
      <trkpt lat="49.75644" lon="4.82443">
        <ele>182</ele>
        <time>2020-10-31T09:50:06.000Z</time>
      </trkpt>
      <trkpt lat="49.7564" lon="4.82437">
        <ele>182</ele>
        <time>2020-10-31T09:50:07.000Z</time>
      </trkpt>
      <trkpt lat="49.75636" lon="4.8243">
        <ele>182</ele>
        <time>2020-10-31T09:50:08.000Z</time>
      </trkpt>
      <trkpt lat="49.75632" lon="4.82424">
        <ele>182</ele>
        <time>2020-10-31T09:50:09.000Z</time>
      </trkpt>
      <trkpt lat="49.75628" lon="4.82417">
        <ele>182</ele>
        <time>2020-10-31T09:50:10.000Z</time>
      </trkpt>
      <trkpt lat="49.75624" lon="4.8241">
        <ele>182</ele>
        <time>2020-10-31T09:50:11.000Z</time>
      </trkpt>
      <trkpt lat="49.7562" lon="4.82404">
        <ele>182</ele>
        <time>2020-10-31T09:50:12.000Z</time>
      </trkpt>
      <trkpt lat="49.75616" lon="4.82397">
        <ele>183</ele>
        <time>2020-10-31T09:50:13.000Z</time>
      </trkpt>
      <trkpt lat="49.75612" lon="4.8239">
        <ele>183</ele>
        <time>2020-10-31T09:50:14.000Z</time>
      </trkpt>
      <trkpt lat="49.75608" lon="4.82383">
        <ele>183</ele>
        <time>2020-10-31T09:50:15.000Z</time>
      </trkpt>
      <trkpt lat="49.75604" lon="4.82376">
        <ele>183</ele>
        <time>2020-10-31T09:50:16.000Z</time>
      </trkpt>
      <trkpt lat="49.756" lon="4.82369">
        <ele>183</ele>
        <time>2020-10-31T09:50:17.000Z</time>
      </trkpt>
      <trkpt lat="49.75597" lon="4.82363">
        <ele>183</ele>
        <time>2020-10-31T09:50:18.000Z</time>
      </trkpt>
      <trkpt lat="49.75592" lon="4.82356">
        <ele>183</ele>
        <time>2020-10-31T09:50:19.000Z</time>
      </trkpt>
      <trkpt lat="49.75588" lon="4.82349">
        <ele>183</ele>
        <time>2020-10-31T09:50:20.000Z</time>
      </trkpt>
      <trkpt lat="49.75584" lon="4.82342">
        <ele>183</ele>
        <time>2020-10-31T09:50:21.000Z</time>
      </trkpt>
      <trkpt lat="49.7558" lon="4.82336">
        <ele>183</ele>
        <time>2020-10-31T09:50:22.000Z</time>
      </trkpt>
      <trkpt lat="49.75575" lon="4.82329">
        <ele>183</ele>
        <time>2020-10-31T09:50:23.000Z</time>
      </trkpt>
      <trkpt lat="49.7557" lon="4.82323">
        <ele>183</ele>
        <time>2020-10-31T09:50:24.000Z</time>
      </trkpt>
      <trkpt lat="49.75566" lon="4.82317">
        <ele>183</ele>
        <time>2020-10-31T09:50:25.000Z</time>
      </trkpt>
      <trkpt lat="49.75561" lon="4.82311">
        <ele>183</ele>
        <time>2020-10-31T09:50:26.000Z</time>
      </trkpt>
      <trkpt lat="49.75557" lon="4.82306">
        <ele>183</ele>
        <time>2020-10-31T09:50:27.000Z</time>
      </trkpt>
      <trkpt lat="49.75552" lon="4.82301">
        <ele>184</ele>
        <time>2020-10-31T09:50:28.000Z</time>
      </trkpt>
      <trkpt lat="49.75548" lon="4.82296">
        <ele>184</ele>
        <time>2020-10-31T09:50:29.000Z</time>
      </trkpt>
      <trkpt lat="49.75545" lon="4.82289">
        <ele>184</ele>
        <time>2020-10-31T09:50:30.000Z</time>
      </trkpt>
      <trkpt lat="49.75545" lon="4.8228">
        <ele>184</ele>
        <time>2020-10-31T09:50:31.000Z</time>
      </trkpt>
      <trkpt lat="49.75547" lon="4.82273">
        <ele>184</ele>
        <time>2020-10-31T09:50:32.000Z</time>
      </trkpt>
      <trkpt lat="49.75547" lon="4.82266">
        <ele>184</ele>
        <time>2020-10-31T09:50:33.000Z</time>
      </trkpt>
      <trkpt lat="49.75545" lon="4.82258">
        <ele>184</ele>
        <time>2020-10-31T09:50:34.000Z</time>
      </trkpt>
      <trkpt lat="49.75543" lon="4.82251">
        <ele>184</ele>
        <time>2020-10-31T09:50:35.000Z</time>
      </trkpt>
      <trkpt lat="49.7554" lon="4.82244">
        <ele>184</ele>
        <time>2020-10-31T09:50:36.000Z</time>
      </trkpt>
      <trkpt lat="49.75537" lon="4.82237">
        <ele>184</ele>
        <time>2020-10-31T09:50:37.000Z</time>
      </trkpt>
      <trkpt lat="49.75534" lon="4.8223">
        <ele>184</ele>
        <time>2020-10-31T09:50:38.000Z</time>
      </trkpt>
      <trkpt lat="49.75531" lon="4.82223">
        <ele>184</ele>
        <time>2020-10-31T09:50:39.000Z</time>
      </trkpt>
      <trkpt lat="49.75527" lon="4.82215">
        <ele>185</ele>
        <time>2020-10-31T09:50:40.000Z</time>
      </trkpt>
      <trkpt lat="49.75524" lon="4.82209">
        <ele>185</ele>
        <time>2020-10-31T09:50:41.000Z</time>
      </trkpt>
      <trkpt lat="49.7552" lon="4.82202">
        <ele>185</ele>
        <time>2020-10-31T09:50:42.000Z</time>
      </trkpt>
      <trkpt lat="49.75517" lon="4.82194">
        <ele>185</ele>
        <time>2020-10-31T09:50:43.000Z</time>
      </trkpt>
      <trkpt lat="49.75514" lon="4.82187">
        <ele>185</ele>
        <time>2020-10-31T09:50:44.000Z</time>
      </trkpt>
      <trkpt lat="49.75511" lon="4.8218">
        <ele>185</ele>
        <time>2020-10-31T09:50:45.000Z</time>
      </trkpt>
      <trkpt lat="49.75508" lon="4.82173">
        <ele>185</ele>
        <time>2020-10-31T09:50:46.000Z</time>
      </trkpt>
      <trkpt lat="49.75504" lon="4.82167">
        <ele>186</ele>
        <time>2020-10-31T09:50:47.000Z</time>
      </trkpt>
      <trkpt lat="49.755" lon="4.8216">
        <ele>186</ele>
        <time>2020-10-31T09:50:48.000Z</time>
      </trkpt>
      <trkpt lat="49.75496" lon="4.82154">
        <ele>186</ele>
        <time>2020-10-31T09:50:49.000Z</time>
      </trkpt>
      <trkpt lat="49.75493" lon="4.82147">
        <ele>186</ele>
        <time>2020-10-31T09:50:50.000Z</time>
      </trkpt>
      <trkpt lat="49.75489" lon="4.82141">
        <ele>186</ele>
        <time>2020-10-31T09:50:51.000Z</time>
      </trkpt>
      <trkpt lat="49.75486" lon="4.82135">
        <ele>186</ele>
        <time>2020-10-31T09:50:52.000Z</time>
      </trkpt>
      <trkpt lat="49.75482" lon="4.8213">
        <ele>187</ele>
        <time>2020-10-31T09:50:53.000Z</time>
      </trkpt>
      <trkpt lat="49.75479" lon="4.82124">
        <ele>187</ele>
        <time>2020-10-31T09:50:54.000Z</time>
      </trkpt>
      <trkpt lat="49.75475" lon="4.82118">
        <ele>187</ele>
        <time>2020-10-31T09:50:55.000Z</time>
      </trkpt>
      <trkpt lat="49.75472" lon="4.82113">
        <ele>187</ele>
        <time>2020-10-31T09:50:56.000Z</time>
      </trkpt>
      <trkpt lat="49.75469" lon="4.82108">
        <ele>187</ele>
        <time>2020-10-31T09:50:57.000Z</time>
      </trkpt>
      <trkpt lat="49.75465" lon="4.82103">
        <ele>188</ele>
        <time>2020-10-31T09:50:58.000Z</time>
      </trkpt>
      <trkpt lat="49.75462" lon="4.82098">
        <ele>188</ele>
        <time>2020-10-31T09:50:59.000Z</time>
      </trkpt>
      <trkpt lat="49.7546" lon="4.82093">
        <ele>188</ele>
        <time>2020-10-31T09:51:00.000Z</time>
      </trkpt>
      <trkpt lat="49.75459" lon="4.82089">
        <ele>188</ele>
        <time>2020-10-31T09:51:01.000Z</time>
      </trkpt>
      <trkpt lat="49.75459" lon="4.82085">
        <ele>188</ele>
        <time>2020-10-31T09:51:02.000Z</time>
      </trkpt>
      <trkpt lat="49.75459" lon="4.82084">
        <ele>188</ele>
        <time>2020-10-31T09:51:03.000Z</time>
      </trkpt>
      <trkpt lat="49.75459" lon="4.82084">
        <ele>188</ele>
        <time>2020-10-31T09:51:04.000Z</time>
      </trkpt>
      <trkpt lat="49.75459" lon="4.82084">
        <ele>188</ele>
        <time>2020-10-31T09:51:05.000Z</time>
      </trkpt>
      <trkpt lat="49.75459" lon="4.82084">
        <ele>188</ele>
        <time>2020-10-31T09:51:06.000Z</time>
      </trkpt>
      <trkpt lat="49.75459" lon="4.82085">
        <ele>188</ele>
        <time>2020-10-31T09:51:07.000Z</time>
      </trkpt>
      <trkpt lat="49.7546" lon="4.82085">
        <ele>188</ele>
        <time>2020-10-31T09:51:08.000Z</time>
      </trkpt>
      <trkpt lat="49.75459" lon="4.82086">
        <ele>188</ele>
        <time>2020-10-31T09:51:09.000Z</time>
      </trkpt>
      <trkpt lat="49.75459" lon="4.82085">
        <ele>188</ele>
        <time>2020-10-31T09:51:10.000Z</time>
      </trkpt>
      <trkpt lat="49.75458" lon="4.82084">
        <ele>188</ele>
        <time>2020-10-31T09:51:11.000Z</time>
      </trkpt>
      <trkpt lat="49.75458" lon="4.82084">
        <ele>188</ele>
        <time>2020-10-31T09:51:12.000Z</time>
      </trkpt>
      <trkpt lat="49.75458" lon="4.82084">
        <ele>188</ele>
        <time>2020-10-31T09:51:13.000Z</time>
      </trkpt>
      <trkpt lat="49.75458" lon="4.82084">
        <ele>188</ele>
        <time>2020-10-31T09:51:14.000Z</time>
      </trkpt>
      <trkpt lat="49.75458" lon="4.82084">
        <ele>188</ele>
        <time>2020-10-31T09:51:15.000Z</time>
      </trkpt>
      <trkpt lat="49.75458" lon="4.82084">
        <ele>188</ele>
        <time>2020-10-31T09:51:16.000Z</time>
      </trkpt>
      <trkpt lat="49.75458" lon="4.82084">
        <ele>188</ele>
        <time>2020-10-31T09:51:17.000Z</time>
      </trkpt>
      <trkpt lat="49.75458" lon="4.82084">
        <ele>188</ele>
        <time>2020-10-31T09:51:18.000Z</time>
      </trkpt>
      <trkpt lat="49.75458" lon="4.82084">
        <ele>188</ele>
        <time>2020-10-31T09:51:19.000Z</time>
      </trkpt>
      <trkpt lat="49.75458" lon="4.82083">
        <ele>188</ele>
        <time>2020-10-31T09:51:20.000Z</time>
      </trkpt>
      <trkpt lat="49.75459" lon="4.82083">
        <ele>188</ele>
        <time>2020-10-31T09:51:21.000Z</time>
      </trkpt>
      <trkpt lat="49.75459" lon="4.82083">
        <ele>188</ele>
        <time>2020-10-31T09:51:22.000Z</time>
      </trkpt>
      <trkpt lat="49.75459" lon="4.82083">
        <ele>188</ele>
        <time>2020-10-31T09:51:23.000Z</time>
      </trkpt>
      <trkpt lat="49.75459" lon="4.82083">
        <ele>188</ele>
        <time>2020-10-31T09:51:24.000Z</time>
      </trkpt>
      <trkpt lat="49.75459" lon="4.82083">
        <ele>188</ele>
        <time>2020-10-31T09:51:25.000Z</time>
      </trkpt>
      <trkpt lat="49.75459" lon="4.82083">
        <ele>188</ele>
        <time>2020-10-31T09:51:26.000Z</time>
      </trkpt>
      <trkpt lat="49.75459" lon="4.82083">
        <ele>188</ele>
        <time>2020-10-31T09:51:27.000Z</time>
      </trkpt>
      <trkpt lat="49.75459" lon="4.82084">
        <ele>188</ele>
        <time>2020-10-31T09:51:28.000Z</time>
      </trkpt>
      <trkpt lat="49.75459" lon="4.82084">
        <ele>188</ele>
        <time>2020-10-31T09:51:29.000Z</time>
      </trkpt>
      <trkpt lat="49.75459" lon="4.82084">
        <ele>188</ele>
        <time>2020-10-31T09:51:30.000Z</time>
      </trkpt>
      <trkpt lat="49.75459" lon="4.82083">
        <ele>188</ele>
        <time>2020-10-31T09:51:31.000Z</time>
      </trkpt>
      <trkpt lat="49.75459" lon="4.82083">
        <ele>188</ele>
        <time>2020-10-31T09:51:32.000Z</time>
      </trkpt>
      <trkpt lat="49.75459" lon="4.82083">
        <ele>188</ele>
        <time>2020-10-31T09:51:33.000Z</time>
      </trkpt>
      <trkpt lat="49.75459" lon="4.82083">
        <ele>188</ele>
        <time>2020-10-31T09:51:34.000Z</time>
      </trkpt>
      <trkpt lat="49.75459" lon="4.82083">
        <ele>188</ele>
        <time>2020-10-31T09:51:35.000Z</time>
      </trkpt>
      <trkpt lat="49.75459" lon="4.82083">
        <ele>188</ele>
        <time>2020-10-31T09:51:36.000Z</time>
      </trkpt>
      <trkpt lat="49.75459" lon="4.82083">
        <ele>188</ele>
        <time>2020-10-31T09:51:37.000Z</time>
      </trkpt>
      <trkpt lat="49.75459" lon="4.82083">
        <ele>188</ele>
        <time>2020-10-31T09:51:38.000Z</time>
      </trkpt>
      <trkpt lat="49.75459" lon="4.82083">
        <ele>188</ele>
        <time>2020-10-31T09:51:39.000Z</time>
      </trkpt>
      <trkpt lat="49.75459" lon="4.82083">
        <ele>188</ele>
        <time>2020-10-31T09:51:40.000Z</time>
      </trkpt>
      <trkpt lat="49.75459" lon="4.82083">
        <ele>188</ele>
        <time>2020-10-31T09:51:41.000Z</time>
      </trkpt>
      <trkpt lat="49.75459" lon="4.82083">
        <ele>188</ele>
        <time>2020-10-31T09:51:42.000Z</time>
      </trkpt>
      <trkpt lat="49.75459" lon="4.82083">
        <ele>188</ele>
        <time>2020-10-31T09:51:43.000Z</time>
      </trkpt>
      <trkpt lat="49.75458" lon="4.82083">
        <ele>188</ele>
        <time>2020-10-31T09:51:44.000Z</time>
      </trkpt>
      <trkpt lat="49.75459" lon="4.82083">
        <ele>188</ele>
        <time>2020-10-31T09:51:45.000Z</time>
      </trkpt>
      <trkpt lat="49.75458" lon="4.82083">
        <ele>188</ele>
        <time>2020-10-31T09:51:46.000Z</time>
      </trkpt>
      <trkpt lat="49.75458" lon="4.82083">
        <ele>188</ele>
        <time>2020-10-31T09:51:47.000Z</time>
      </trkpt>
      <trkpt lat="49.75458" lon="4.82082">
        <ele>188</ele>
        <time>2020-10-31T09:51:48.000Z</time>
      </trkpt>
      <trkpt lat="49.75458" lon="4.82082">
        <ele>188</ele>
        <time>2020-10-31T09:51:49.000Z</time>
      </trkpt>
      <trkpt lat="49.75458" lon="4.82083">
        <ele>188</ele>
        <time>2020-10-31T09:51:50.000Z</time>
      </trkpt>
      <trkpt lat="49.75458" lon="4.82083">
        <ele>188</ele>
        <time>2020-10-31T09:51:51.000Z</time>
      </trkpt>
      <trkpt lat="49.75458" lon="4.82083">
        <ele>188</ele>
        <time>2020-10-31T09:51:52.000Z</time>
      </trkpt>
      <trkpt lat="49.75458" lon="4.82082">
        <ele>188</ele>
        <time>2020-10-31T09:51:53.000Z</time>
      </trkpt>
      <trkpt lat="49.75458" lon="4.82082">
        <ele>188</ele>
        <time>2020-10-31T09:51:54.000Z</time>
      </trkpt>
      <trkpt lat="49.75459" lon="4.82082">
        <ele>188</ele>
        <time>2020-10-31T09:51:55.000Z</time>
      </trkpt>
      <trkpt lat="49.75459" lon="4.82083">
        <ele>188</ele>
        <time>2020-10-31T09:51:56.000Z</time>
      </trkpt>
      <trkpt lat="49.75459" lon="4.82083">
        <ele>188</ele>
        <time>2020-10-31T09:51:57.000Z</time>
      </trkpt>
      <trkpt lat="49.75459" lon="4.82084">
        <ele>188</ele>
        <time>2020-10-31T09:51:58.000Z</time>
      </trkpt>
      <trkpt lat="49.75459" lon="4.82084">
        <ele>188</ele>
        <time>2020-10-31T09:51:59.000Z</time>
      </trkpt>
      <trkpt lat="49.75459" lon="4.82084">
        <ele>188</ele>
        <time>2020-10-31T09:52:00.000Z</time>
      </trkpt>
      <trkpt lat="49.75459" lon="4.82084">
        <ele>188</ele>
        <time>2020-10-31T09:52:01.000Z</time>
      </trkpt>
      <trkpt lat="49.75459" lon="4.82084">
        <ele>188</ele>
        <time>2020-10-31T09:52:02.000Z</time>
      </trkpt>
      <trkpt lat="49.75459" lon="4.82084">
        <ele>188</ele>
        <time>2020-10-31T09:52:03.000Z</time>
      </trkpt>
      <trkpt lat="49.75459" lon="4.82084">
        <ele>188</ele>
        <time>2020-10-31T09:52:04.000Z</time>
      </trkpt>
      <trkpt lat="49.75459" lon="4.82084">
        <ele>188</ele>
        <time>2020-10-31T09:52:05.000Z</time>
      </trkpt>
      <trkpt lat="49.75459" lon="4.82084">
        <ele>188</ele>
        <time>2020-10-31T09:52:06.000Z</time>
      </trkpt>
      <trkpt lat="49.75459" lon="4.82084">
        <ele>188</ele>
        <time>2020-10-31T09:52:07.000Z</time>
      </trkpt>
      <trkpt lat="49.75459" lon="4.82083">
        <ele>188</ele>
        <time>2020-10-31T09:52:08.000Z</time>
      </trkpt>
      <trkpt lat="49.75459" lon="4.82083">
        <ele>188</ele>
        <time>2020-10-31T09:52:09.000Z</time>
      </trkpt>
      <trkpt lat="49.75459" lon="4.82083">
        <ele>188</ele>
        <time>2020-10-31T09:52:10.000Z</time>
      </trkpt>
      <trkpt lat="49.75458" lon="4.82083">
        <ele>188</ele>
        <time>2020-10-31T09:52:11.000Z</time>
      </trkpt>
      <trkpt lat="49.75458" lon="4.82084">
        <ele>188</ele>
        <time>2020-10-31T09:52:12.000Z</time>
      </trkpt>
      <trkpt lat="49.75458" lon="4.82084">
        <ele>188</ele>
        <time>2020-10-31T09:52:13.000Z</time>
      </trkpt>
      <trkpt lat="49.75458" lon="4.82084">
        <ele>188</ele>
        <time>2020-10-31T09:52:14.000Z</time>
      </trkpt>
      <trkpt lat="49.75458" lon="4.82084">
        <ele>188</ele>
        <time>2020-10-31T09:52:15.000Z</time>
      </trkpt>
      <trkpt lat="49.75458" lon="4.82084">
        <ele>188</ele>
        <time>2020-10-31T09:52:16.000Z</time>
      </trkpt>
      <trkpt lat="49.75458" lon="4.82084">
        <ele>188</ele>
        <time>2020-10-31T09:52:17.000Z</time>
      </trkpt>
      <trkpt lat="49.75458" lon="4.82085">
        <ele>188</ele>
        <time>2020-10-31T09:52:18.000Z</time>
      </trkpt>
      <trkpt lat="49.75458" lon="4.82084">
        <ele>188</ele>
        <time>2020-10-31T09:52:19.000Z</time>
      </trkpt>
      <trkpt lat="49.75458" lon="4.82085">
        <ele>188</ele>
        <time>2020-10-31T09:52:20.000Z</time>
      </trkpt>
      <trkpt lat="49.75458" lon="4.82085">
        <ele>188</ele>
        <time>2020-10-31T09:52:21.000Z</time>
      </trkpt>
      <trkpt lat="49.75458" lon="4.82085">
        <ele>188</ele>
        <time>2020-10-31T09:52:22.000Z</time>
      </trkpt>
      <trkpt lat="49.75458" lon="4.82085">
        <ele>188</ele>
        <time>2020-10-31T09:52:23.000Z</time>
      </trkpt>
      <trkpt lat="49.75458" lon="4.82085">
        <ele>188</ele>
        <time>2020-10-31T09:52:24.000Z</time>
      </trkpt>
      <trkpt lat="49.75458" lon="4.82085">
        <ele>188</ele>
        <time>2020-10-31T09:52:25.000Z</time>
      </trkpt>
      <trkpt lat="49.75458" lon="4.82085">
        <ele>188</ele>
        <time>2020-10-31T09:52:26.000Z</time>
      </trkpt>
      <trkpt lat="49.75458" lon="4.82085">
        <ele>188</ele>
        <time>2020-10-31T09:52:27.000Z</time>
      </trkpt>
      <trkpt lat="49.75458" lon="4.82085">
        <ele>188</ele>
        <time>2020-10-31T09:52:28.000Z</time>
      </trkpt>
      <trkpt lat="49.75458" lon="4.82085">
        <ele>188</ele>
        <time>2020-10-31T09:52:29.000Z</time>
      </trkpt>
      <trkpt lat="49.75458" lon="4.82085">
        <ele>188</ele>
        <time>2020-10-31T09:52:30.000Z</time>
      </trkpt>
      <trkpt lat="49.75458" lon="4.82085">
        <ele>188</ele>
        <time>2020-10-31T09:52:31.000Z</time>
      </trkpt>
      <trkpt lat="49.75458" lon="4.82085">
        <ele>188</ele>
        <time>2020-10-31T09:52:32.000Z</time>
      </trkpt>
      <trkpt lat="49.75458" lon="4.82085">
        <ele>188</ele>
        <time>2020-10-31T09:52:33.000Z</time>
      </trkpt>
      <trkpt lat="49.75459" lon="4.82085">
        <ele>188</ele>
        <time>2020-10-31T09:52:34.000Z</time>
      </trkpt>
      <trkpt lat="49.75459" lon="4.82085">
        <ele>188</ele>
        <time>2020-10-31T09:52:35.000Z</time>
      </trkpt>
      <trkpt lat="49.75459" lon="4.82085">
        <ele>188</ele>
        <time>2020-10-31T09:52:36.000Z</time>
      </trkpt>
      <trkpt lat="49.75459" lon="4.82085">
        <ele>188</ele>
        <time>2020-10-31T09:52:37.000Z</time>
      </trkpt>
      <trkpt lat="49.75459" lon="4.82085">
        <ele>188</ele>
        <time>2020-10-31T09:52:38.000Z</time>
      </trkpt>
      <trkpt lat="49.75459" lon="4.82085">
        <ele>187</ele>
        <time>2020-10-31T09:52:39.000Z</time>
      </trkpt>
      <trkpt lat="49.75458" lon="4.82085">
        <ele>187</ele>
        <time>2020-10-31T09:52:40.000Z</time>
      </trkpt>
      <trkpt lat="49.75458" lon="4.82085">
        <ele>187</ele>
        <time>2020-10-31T09:52:41.000Z</time>
      </trkpt>
      <trkpt lat="49.75458" lon="4.82085">
        <ele>187</ele>
        <time>2020-10-31T09:52:42.000Z</time>
      </trkpt>
      <trkpt lat="49.75458" lon="4.82085">
        <ele>187</ele>
        <time>2020-10-31T09:52:43.000Z</time>
      </trkpt>
      <trkpt lat="49.75458" lon="4.82085">
        <ele>187</ele>
        <time>2020-10-31T09:52:44.000Z</time>
      </trkpt>
      <trkpt lat="49.75458" lon="4.82085">
        <ele>187</ele>
        <time>2020-10-31T09:52:45.000Z</time>
      </trkpt>
      <trkpt lat="49.75458" lon="4.82085">
        <ele>187</ele>
        <time>2020-10-31T09:52:46.000Z</time>
      </trkpt>
      <trkpt lat="49.75458" lon="4.82085">
        <ele>187</ele>
        <time>2020-10-31T09:52:47.000Z</time>
      </trkpt>
      <trkpt lat="49.75458" lon="4.82085">
        <ele>187</ele>
        <time>2020-10-31T09:52:48.000Z</time>
      </trkpt>
      <trkpt lat="49.75458" lon="4.82085">
        <ele>187</ele>
        <time>2020-10-31T09:52:49.000Z</time>
      </trkpt>
      <trkpt lat="49.75458" lon="4.82085">
        <ele>187</ele>
        <time>2020-10-31T09:52:50.000Z</time>
      </trkpt>
      <trkpt lat="49.75458" lon="4.82084">
        <ele>187</ele>
        <time>2020-10-31T09:52:51.000Z</time>
      </trkpt>
      <trkpt lat="49.75458" lon="4.82084">
        <ele>187</ele>
        <time>2020-10-31T09:52:52.000Z</time>
      </trkpt>
      <trkpt lat="49.75458" lon="4.82084">
        <ele>187</ele>
        <time>2020-10-31T09:52:53.000Z</time>
      </trkpt>
      <trkpt lat="49.75458" lon="4.82084">
        <ele>187</ele>
        <time>2020-10-31T09:52:54.000Z</time>
      </trkpt>
      <trkpt lat="49.75458" lon="4.82084">
        <ele>187</ele>
        <time>2020-10-31T09:52:55.000Z</time>
      </trkpt>
      <trkpt lat="49.75458" lon="4.82084">
        <ele>187</ele>
        <time>2020-10-31T09:52:56.000Z</time>
      </trkpt>
      <trkpt lat="49.75458" lon="4.82084">
        <ele>187</ele>
        <time>2020-10-31T09:52:57.000Z</time>
      </trkpt>
      <trkpt lat="49.75458" lon="4.82084">
        <ele>187</ele>
        <time>2020-10-31T09:52:58.000Z</time>
      </trkpt>
      <trkpt lat="49.75458" lon="4.82084">
        <ele>187</ele>
        <time>2020-10-31T09:52:59.000Z</time>
      </trkpt>
      <trkpt lat="49.75458" lon="4.82084">
        <ele>187</ele>
        <time>2020-10-31T09:53:00.000Z</time>
      </trkpt>
      <trkpt lat="49.75458" lon="4.82084">
        <ele>187</ele>
        <time>2020-10-31T09:53:01.000Z</time>
      </trkpt>
      <trkpt lat="49.75458" lon="4.82084">
        <ele>187</ele>
        <time>2020-10-31T09:53:02.000Z</time>
      </trkpt>
      <trkpt lat="49.75458" lon="4.82084">
        <ele>187</ele>
        <time>2020-10-31T09:53:03.000Z</time>
      </trkpt>
      <trkpt lat="49.75458" lon="4.82084">
        <ele>187</ele>
        <time>2020-10-31T09:53:04.000Z</time>
      </trkpt>
      <trkpt lat="49.75458" lon="4.82084">
        <ele>187</ele>
        <time>2020-10-31T09:53:05.000Z</time>
      </trkpt>
      <trkpt lat="49.75458" lon="4.82084">
        <ele>187</ele>
        <time>2020-10-31T09:53:06.000Z</time>
      </trkpt>
      <trkpt lat="49.75458" lon="4.82084">
        <ele>187</ele>
        <time>2020-10-31T09:53:07.000Z</time>
      </trkpt>
      <trkpt lat="49.75458" lon="4.82084">
        <ele>186</ele>
        <time>2020-10-31T09:53:08.000Z</time>
      </trkpt>
      <trkpt lat="49.75458" lon="4.82084">
        <ele>186</ele>
        <time>2020-10-31T09:53:09.000Z</time>
      </trkpt>
      <trkpt lat="49.75458" lon="4.82084">
        <ele>186</ele>
        <time>2020-10-31T09:53:10.000Z</time>
      </trkpt>
      <trkpt lat="49.75458" lon="4.82084">
        <ele>186</ele>
        <time>2020-10-31T09:53:11.000Z</time>
      </trkpt>
      <trkpt lat="49.75458" lon="4.82084">
        <ele>186</ele>
        <time>2020-10-31T09:53:12.000Z</time>
      </trkpt>
      <trkpt lat="49.75458" lon="4.82083">
        <ele>186</ele>
        <time>2020-10-31T09:53:13.000Z</time>
      </trkpt>
      <trkpt lat="49.75459" lon="4.82083">
        <ele>186</ele>
        <time>2020-10-31T09:53:14.000Z</time>
      </trkpt>
      <trkpt lat="49.75459" lon="4.82083">
        <ele>186</ele>
        <time>2020-10-31T09:53:15.000Z</time>
      </trkpt>
      <trkpt lat="49.75459" lon="4.82083">
        <ele>186</ele>
        <time>2020-10-31T09:53:16.000Z</time>
      </trkpt>
      <trkpt lat="49.75459" lon="4.82083">
        <ele>186</ele>
        <time>2020-10-31T09:53:17.000Z</time>
      </trkpt>
      <trkpt lat="49.75459" lon="4.82083">
        <ele>186</ele>
        <time>2020-10-31T09:53:18.000Z</time>
      </trkpt>
      <trkpt lat="49.75459" lon="4.82083">
        <ele>186</ele>
        <time>2020-10-31T09:53:19.000Z</time>
      </trkpt>
      <trkpt lat="49.75459" lon="4.82083">
        <ele>186</ele>
        <time>2020-10-31T09:53:20.000Z</time>
      </trkpt>
      <trkpt lat="49.7546" lon="4.82083">
        <ele>186</ele>
        <time>2020-10-31T09:53:21.000Z</time>
      </trkpt>
      <trkpt lat="49.75459" lon="4.82083">
        <ele>186</ele>
        <time>2020-10-31T09:53:22.000Z</time>
      </trkpt>
      <trkpt lat="49.75459" lon="4.82084">
        <ele>186</ele>
        <time>2020-10-31T09:53:23.000Z</time>
      </trkpt>
      <trkpt lat="49.75459" lon="4.82084">
        <ele>186</ele>
        <time>2020-10-31T09:53:24.000Z</time>
      </trkpt>
      <trkpt lat="49.75459" lon="4.82084">
        <ele>186</ele>
        <time>2020-10-31T09:53:25.000Z</time>
      </trkpt>
      <trkpt lat="49.75459" lon="4.82084">
        <ele>186</ele>
        <time>2020-10-31T09:53:26.000Z</time>
      </trkpt>
      <trkpt lat="49.75459" lon="4.82084">
        <ele>186</ele>
        <time>2020-10-31T09:53:27.000Z</time>
      </trkpt>
      <trkpt lat="49.75459" lon="4.82084">
        <ele>186</ele>
        <time>2020-10-31T09:53:28.000Z</time>
      </trkpt>
      <trkpt lat="49.75459" lon="4.82084">
        <ele>186</ele>
        <time>2020-10-31T09:53:29.000Z</time>
      </trkpt>
      <trkpt lat="49.7546" lon="4.82084">
        <ele>186</ele>
        <time>2020-10-31T09:53:30.000Z</time>
      </trkpt>
      <trkpt lat="49.7546" lon="4.82084">
        <ele>186</ele>
        <time>2020-10-31T09:53:31.000Z</time>
      </trkpt>
      <trkpt lat="49.7546" lon="4.82084">
        <ele>186</ele>
        <time>2020-10-31T09:53:32.000Z</time>
      </trkpt>
      <trkpt lat="49.75459" lon="4.82084">
        <ele>186</ele>
        <time>2020-10-31T09:53:33.000Z</time>
      </trkpt>
      <trkpt lat="49.7546" lon="4.82084">
        <ele>186</ele>
        <time>2020-10-31T09:53:34.000Z</time>
      </trkpt>
      <trkpt lat="49.7546" lon="4.82084">
        <ele>186</ele>
        <time>2020-10-31T09:53:35.000Z</time>
      </trkpt>
      <trkpt lat="49.7546" lon="4.82084">
        <ele>186</ele>
        <time>2020-10-31T09:53:36.000Z</time>
      </trkpt>
      <trkpt lat="49.7546" lon="4.82084">
        <ele>186</ele>
        <time>2020-10-31T09:53:37.000Z</time>
      </trkpt>
      <trkpt lat="49.7546" lon="4.82084">
        <ele>186</ele>
        <time>2020-10-31T09:53:38.000Z</time>
      </trkpt>
      <trkpt lat="49.7546" lon="4.82084">
        <ele>186</ele>
        <time>2020-10-31T09:53:39.000Z</time>
      </trkpt>
      <trkpt lat="49.7546" lon="4.82084">
        <ele>186</ele>
        <time>2020-10-31T09:53:40.000Z</time>
      </trkpt>
      <trkpt lat="49.7546" lon="4.82084">
        <ele>186</ele>
        <time>2020-10-31T09:53:41.000Z</time>
      </trkpt>
      <trkpt lat="49.7546" lon="4.82084">
        <ele>186</ele>
        <time>2020-10-31T09:53:42.000Z</time>
      </trkpt>
      <trkpt lat="49.7546" lon="4.82084">
        <ele>186</ele>
        <time>2020-10-31T09:53:43.000Z</time>
      </trkpt>
      <trkpt lat="49.75461" lon="4.82084">
        <ele>186</ele>
        <time>2020-10-31T09:53:44.000Z</time>
      </trkpt>
      <trkpt lat="49.7546" lon="4.82084">
        <ele>186</ele>
        <time>2020-10-31T09:53:45.000Z</time>
      </trkpt>
      <trkpt lat="49.75461" lon="4.82084">
        <ele>186</ele>
        <time>2020-10-31T09:53:46.000Z</time>
      </trkpt>
      <trkpt lat="49.75461" lon="4.82084">
        <ele>186</ele>
        <time>2020-10-31T09:53:47.000Z</time>
      </trkpt>
      <trkpt lat="49.75461" lon="4.82085">
        <ele>186</ele>
        <time>2020-10-31T09:53:48.000Z</time>
      </trkpt>
      <trkpt lat="49.75461" lon="4.82086">
        <ele>186</ele>
        <time>2020-10-31T09:53:49.000Z</time>
      </trkpt>
      <trkpt lat="49.75461" lon="4.82085">
        <ele>186</ele>
        <time>2020-10-31T09:53:50.000Z</time>
      </trkpt>
      <trkpt lat="49.75461" lon="4.82085">
        <ele>186</ele>
        <time>2020-10-31T09:53:51.000Z</time>
      </trkpt>
      <trkpt lat="49.75461" lon="4.82084">
        <ele>186</ele>
        <time>2020-10-31T09:53:52.000Z</time>
      </trkpt>
      <trkpt lat="49.75462" lon="4.82084">
        <ele>186</ele>
        <time>2020-10-31T09:53:53.000Z</time>
      </trkpt>
      <trkpt lat="49.75462" lon="4.82084">
        <ele>185</ele>
        <time>2020-10-31T09:53:54.000Z</time>
      </trkpt>
      <trkpt lat="49.75462" lon="4.82084">
        <ele>185</ele>
        <time>2020-10-31T09:53:55.000Z</time>
      </trkpt>
      <trkpt lat="49.75462" lon="4.82084">
        <ele>185</ele>
        <time>2020-10-31T09:53:56.000Z</time>
      </trkpt>
      <trkpt lat="49.75462" lon="4.82084">
        <ele>185</ele>
        <time>2020-10-31T09:53:57.000Z</time>
      </trkpt>
      <trkpt lat="49.75462" lon="4.82084">
        <ele>185</ele>
        <time>2020-10-31T09:53:58.000Z</time>
      </trkpt>
      <trkpt lat="49.75461" lon="4.82084">
        <ele>185</ele>
        <time>2020-10-31T09:53:59.000Z</time>
      </trkpt>
      <trkpt lat="49.75461" lon="4.82084">
        <ele>185</ele>
        <time>2020-10-31T09:54:00.000Z</time>
      </trkpt>
      <trkpt lat="49.75462" lon="4.82084">
        <ele>185</ele>
        <time>2020-10-31T09:54:01.000Z</time>
      </trkpt>
      <trkpt lat="49.75461" lon="4.82084">
        <ele>185</ele>
        <time>2020-10-31T09:54:02.000Z</time>
      </trkpt>
      <trkpt lat="49.75461" lon="4.82084">
        <ele>185</ele>
        <time>2020-10-31T09:54:03.000Z</time>
      </trkpt>
      <trkpt lat="49.75461" lon="4.82084">
        <ele>185</ele>
        <time>2020-10-31T09:54:04.000Z</time>
      </trkpt>
      <trkpt lat="49.75461" lon="4.82084">
        <ele>185</ele>
        <time>2020-10-31T09:54:05.000Z</time>
      </trkpt>
      <trkpt lat="49.75461" lon="4.82084">
        <ele>185</ele>
        <time>2020-10-31T09:54:06.000Z</time>
      </trkpt>
      <trkpt lat="49.75461" lon="4.82084">
        <ele>185</ele>
        <time>2020-10-31T09:54:07.000Z</time>
      </trkpt>
      <trkpt lat="49.75461" lon="4.82084">
        <ele>185</ele>
        <time>2020-10-31T09:54:08.000Z</time>
      </trkpt>
      <trkpt lat="49.75461" lon="4.82084">
        <ele>185</ele>
        <time>2020-10-31T09:54:09.000Z</time>
      </trkpt>
      <trkpt lat="49.75461" lon="4.82084">
        <ele>185</ele>
        <time>2020-10-31T09:54:10.000Z</time>
      </trkpt>
      <trkpt lat="49.75461" lon="4.82085">
        <ele>185</ele>
        <time>2020-10-31T09:54:11.000Z</time>
      </trkpt>
      <trkpt lat="49.75461" lon="4.82085">
        <ele>186</ele>
        <time>2020-10-31T09:54:12.000Z</time>
      </trkpt>
      <trkpt lat="49.75461" lon="4.82085">
        <ele>186</ele>
        <time>2020-10-31T09:54:13.000Z</time>
      </trkpt>
      <trkpt lat="49.7546" lon="4.82085">
        <ele>186</ele>
        <time>2020-10-31T09:54:14.000Z</time>
      </trkpt>
      <trkpt lat="49.7546" lon="4.82085">
        <ele>186</ele>
        <time>2020-10-31T09:54:15.000Z</time>
      </trkpt>
      <trkpt lat="49.7546" lon="4.82085">
        <ele>186</ele>
        <time>2020-10-31T09:54:16.000Z</time>
      </trkpt>
      <trkpt lat="49.7546" lon="4.82085">
        <ele>186</ele>
        <time>2020-10-31T09:54:17.000Z</time>
      </trkpt>
      <trkpt lat="49.7546" lon="4.82085">
        <ele>186</ele>
        <time>2020-10-31T09:54:18.000Z</time>
      </trkpt>
      <trkpt lat="49.7546" lon="4.82085">
        <ele>186</ele>
        <time>2020-10-31T09:54:19.000Z</time>
      </trkpt>
      <trkpt lat="49.7546" lon="4.82085">
        <ele>186</ele>
        <time>2020-10-31T09:54:20.000Z</time>
      </trkpt>
      <trkpt lat="49.7546" lon="4.82085">
        <ele>186</ele>
        <time>2020-10-31T09:54:21.000Z</time>
      </trkpt>
      <trkpt lat="49.7546" lon="4.82085">
        <ele>186</ele>
        <time>2020-10-31T09:54:22.000Z</time>
      </trkpt>
      <trkpt lat="49.7546" lon="4.82085">
        <ele>186</ele>
        <time>2020-10-31T09:54:23.000Z</time>
      </trkpt>
      <trkpt lat="49.7546" lon="4.82085">
        <ele>186</ele>
        <time>2020-10-31T09:54:24.000Z</time>
      </trkpt>
      <trkpt lat="49.7546" lon="4.82085">
        <ele>186</ele>
        <time>2020-10-31T09:54:25.000Z</time>
      </trkpt>
      <trkpt lat="49.7546" lon="4.82085">
        <ele>186</ele>
        <time>2020-10-31T09:54:26.000Z</time>
      </trkpt>
      <trkpt lat="49.7546" lon="4.82085">
        <ele>186</ele>
        <time>2020-10-31T09:54:27.000Z</time>
      </trkpt>
      <trkpt lat="49.7546" lon="4.82085">
        <ele>186</ele>
        <time>2020-10-31T09:54:28.000Z</time>
      </trkpt>
      <trkpt lat="49.7546" lon="4.82084">
        <ele>186</ele>
        <time>2020-10-31T09:54:29.000Z</time>
      </trkpt>
      <trkpt lat="49.7546" lon="4.82084">
        <ele>186</ele>
        <time>2020-10-31T09:54:30.000Z</time>
      </trkpt>
      <trkpt lat="49.7546" lon="4.82084">
        <ele>186</ele>
        <time>2020-10-31T09:54:31.000Z</time>
      </trkpt>
      <trkpt lat="49.75459" lon="4.82084">
        <ele>186</ele>
        <time>2020-10-31T09:54:32.000Z</time>
      </trkpt>
      <trkpt lat="49.75459" lon="4.82084">
        <ele>186</ele>
        <time>2020-10-31T09:54:33.000Z</time>
      </trkpt>
      <trkpt lat="49.75459" lon="4.82084">
        <ele>186</ele>
        <time>2020-10-31T09:54:34.000Z</time>
      </trkpt>
      <trkpt lat="49.75459" lon="4.82083">
        <ele>186</ele>
        <time>2020-10-31T09:54:35.000Z</time>
      </trkpt>
      <trkpt lat="49.75459" lon="4.82083">
        <ele>186</ele>
        <time>2020-10-31T09:54:36.000Z</time>
      </trkpt>
      <trkpt lat="49.75459" lon="4.82084">
        <ele>186</ele>
        <time>2020-10-31T09:54:37.000Z</time>
      </trkpt>
      <trkpt lat="49.75459" lon="4.82084">
        <ele>186</ele>
        <time>2020-10-31T09:54:38.000Z</time>
      </trkpt>
      <trkpt lat="49.75459" lon="4.82084">
        <ele>185</ele>
        <time>2020-10-31T09:54:39.000Z</time>
      </trkpt>
      <trkpt lat="49.75459" lon="4.82084">
        <ele>185</ele>
        <time>2020-10-31T09:54:40.000Z</time>
      </trkpt>
      <trkpt lat="49.75459" lon="4.82084">
        <ele>185</ele>
        <time>2020-10-31T09:54:41.000Z</time>
      </trkpt>
      <trkpt lat="49.75459" lon="4.82084">
        <ele>185</ele>
        <time>2020-10-31T09:54:42.000Z</time>
      </trkpt>
      <trkpt lat="49.75459" lon="4.82084">
        <ele>185</ele>
        <time>2020-10-31T09:54:43.000Z</time>
      </trkpt>
      <trkpt lat="49.75459" lon="4.82084">
        <ele>185</ele>
        <time>2020-10-31T09:54:44.000Z</time>
      </trkpt>
      <trkpt lat="49.75459" lon="4.82084">
        <ele>185</ele>
        <time>2020-10-31T09:54:45.000Z</time>
      </trkpt>
      <trkpt lat="49.75459" lon="4.82084">
        <ele>185</ele>
        <time>2020-10-31T09:54:46.000Z</time>
      </trkpt>
      <trkpt lat="49.75459" lon="4.82085">
        <ele>185</ele>
        <time>2020-10-31T09:54:47.000Z</time>
      </trkpt>
      <trkpt lat="49.7546" lon="4.82085">
        <ele>185</ele>
        <time>2020-10-31T09:54:48.000Z</time>
      </trkpt>
      <trkpt lat="49.7546" lon="4.82084">
        <ele>185</ele>
        <time>2020-10-31T09:54:49.000Z</time>
      </trkpt>
      <trkpt lat="49.7546" lon="4.82084">
        <ele>185</ele>
        <time>2020-10-31T09:54:50.000Z</time>
      </trkpt>
      <trkpt lat="49.7546" lon="4.82084">
        <ele>185</ele>
        <time>2020-10-31T09:54:51.000Z</time>
      </trkpt>
      <trkpt lat="49.7546" lon="4.82084">
        <ele>185</ele>
        <time>2020-10-31T09:54:52.000Z</time>
      </trkpt>
      <trkpt lat="49.7546" lon="4.82084">
        <ele>185</ele>
        <time>2020-10-31T09:54:53.000Z</time>
      </trkpt>
      <trkpt lat="49.7546" lon="4.82084">
        <ele>185</ele>
        <time>2020-10-31T09:54:54.000Z</time>
      </trkpt>
      <trkpt lat="49.7546" lon="4.82084">
        <ele>185</ele>
        <time>2020-10-31T09:54:55.000Z</time>
      </trkpt>
      <trkpt lat="49.7546" lon="4.82085">
        <ele>184</ele>
        <time>2020-10-31T09:54:56.000Z</time>
      </trkpt>
      <trkpt lat="49.7546" lon="4.82085">
        <ele>184</ele>
        <time>2020-10-31T09:54:57.000Z</time>
      </trkpt>
      <trkpt lat="49.7546" lon="4.82084">
        <ele>184</ele>
        <time>2020-10-31T09:54:58.000Z</time>
      </trkpt>
      <trkpt lat="49.7546" lon="4.82084">
        <ele>184</ele>
        <time>2020-10-31T09:54:59.000Z</time>
      </trkpt>
      <trkpt lat="49.7546" lon="4.82084">
        <ele>184</ele>
        <time>2020-10-31T09:55:00.000Z</time>
      </trkpt>
      <trkpt lat="49.7546" lon="4.82084">
        <ele>184</ele>
        <time>2020-10-31T09:55:01.000Z</time>
      </trkpt>
      <trkpt lat="49.7546" lon="4.82084">
        <ele>184</ele>
        <time>2020-10-31T09:55:02.000Z</time>
      </trkpt>
      <trkpt lat="49.7546" lon="4.82084">
        <ele>184</ele>
        <time>2020-10-31T09:55:03.000Z</time>
      </trkpt>
      <trkpt lat="49.7546" lon="4.82084">
        <ele>184</ele>
        <time>2020-10-31T09:55:04.000Z</time>
      </trkpt>
      <trkpt lat="49.7546" lon="4.82084">
        <ele>184</ele>
        <time>2020-10-31T09:55:05.000Z</time>
      </trkpt>
      <trkpt lat="49.7546" lon="4.82084">
        <ele>184</ele>
        <time>2020-10-31T09:55:06.000Z</time>
      </trkpt>
      <trkpt lat="49.7546" lon="4.82084">
        <ele>184</ele>
        <time>2020-10-31T09:55:07.000Z</time>
      </trkpt>
      <trkpt lat="49.7546" lon="4.82084">
        <ele>184</ele>
        <time>2020-10-31T09:55:08.000Z</time>
      </trkpt>
      <trkpt lat="49.7546" lon="4.82084">
        <ele>184</ele>
        <time>2020-10-31T09:55:09.000Z</time>
      </trkpt>
      <trkpt lat="49.7546" lon="4.82084">
        <ele>184</ele>
        <time>2020-10-31T09:55:10.000Z</time>
      </trkpt>
      <trkpt lat="49.7546" lon="4.82084">
        <ele>184</ele>
        <time>2020-10-31T09:55:11.000Z</time>
      </trkpt>
      <trkpt lat="49.7546" lon="4.82084">
        <ele>184</ele>
        <time>2020-10-31T09:55:12.000Z</time>
      </trkpt>
      <trkpt lat="49.7546" lon="4.82084">
        <ele>184</ele>
        <time>2020-10-31T09:55:13.000Z</time>
      </trkpt>
      <trkpt lat="49.7546" lon="4.82084">
        <ele>184</ele>
        <time>2020-10-31T09:55:14.000Z</time>
      </trkpt>
      <trkpt lat="49.7546" lon="4.82084">
        <ele>184</ele>
        <time>2020-10-31T09:55:15.000Z</time>
      </trkpt>
      <trkpt lat="49.7546" lon="4.82084">
        <ele>183</ele>
        <time>2020-10-31T09:55:16.000Z</time>
      </trkpt>
      <trkpt lat="49.7546" lon="4.82083">
        <ele>183</ele>
        <time>2020-10-31T09:55:17.000Z</time>
      </trkpt>
      <trkpt lat="49.7546" lon="4.82083">
        <ele>183</ele>
        <time>2020-10-31T09:55:18.000Z</time>
      </trkpt>
      <trkpt lat="49.75461" lon="4.82084">
        <ele>183</ele>
        <time>2020-10-31T09:55:19.000Z</time>
      </trkpt>
      <trkpt lat="49.75461" lon="4.82084">
        <ele>183</ele>
        <time>2020-10-31T09:55:20.000Z</time>
      </trkpt>
      <trkpt lat="49.75461" lon="4.82084">
        <ele>183</ele>
        <time>2020-10-31T09:55:21.000Z</time>
      </trkpt>
      <trkpt lat="49.75461" lon="4.82084">
        <ele>183</ele>
        <time>2020-10-31T09:55:22.000Z</time>
      </trkpt>
      <trkpt lat="49.75461" lon="4.82084">
        <ele>183</ele>
        <time>2020-10-31T09:55:23.000Z</time>
      </trkpt>
      <trkpt lat="49.75461" lon="4.82084">
        <ele>183</ele>
        <time>2020-10-31T09:55:24.000Z</time>
      </trkpt>
      <trkpt lat="49.75461" lon="4.82084">
        <ele>183</ele>
        <time>2020-10-31T09:55:25.000Z</time>
      </trkpt>
      <trkpt lat="49.7546" lon="4.82083">
        <ele>183</ele>
        <time>2020-10-31T09:55:26.000Z</time>
      </trkpt>
      <trkpt lat="49.7546" lon="4.82084">
        <ele>183</ele>
        <time>2020-10-31T09:55:27.000Z</time>
      </trkpt>
      <trkpt lat="49.7546" lon="4.82083">
        <ele>183</ele>
        <time>2020-10-31T09:55:28.000Z</time>
      </trkpt>
      <trkpt lat="49.7546" lon="4.82083">
        <ele>183</ele>
        <time>2020-10-31T09:55:29.000Z</time>
      </trkpt>
      <trkpt lat="49.7546" lon="4.82083">
        <ele>183</ele>
        <time>2020-10-31T09:55:30.000Z</time>
      </trkpt>
      <trkpt lat="49.7546" lon="4.82083">
        <ele>183</ele>
        <time>2020-10-31T09:55:31.000Z</time>
      </trkpt>
      <trkpt lat="49.7546" lon="4.82083">
        <ele>183</ele>
        <time>2020-10-31T09:55:32.000Z</time>
      </trkpt>
      <trkpt lat="49.7546" lon="4.82083">
        <ele>183</ele>
        <time>2020-10-31T09:55:33.000Z</time>
      </trkpt>
      <trkpt lat="49.7546" lon="4.82083">
        <ele>183</ele>
        <time>2020-10-31T09:55:34.000Z</time>
      </trkpt>
      <trkpt lat="49.7546" lon="4.82083">
        <ele>183</ele>
        <time>2020-10-31T09:55:35.000Z</time>
      </trkpt>
      <trkpt lat="49.7546" lon="4.82083">
        <ele>183</ele>
        <time>2020-10-31T09:55:36.000Z</time>
      </trkpt>
      <trkpt lat="49.7546" lon="4.82083">
        <ele>183</ele>
        <time>2020-10-31T09:55:37.000Z</time>
      </trkpt>
      <trkpt lat="49.7546" lon="4.82083">
        <ele>183</ele>
        <time>2020-10-31T09:55:38.000Z</time>
      </trkpt>
      <trkpt lat="49.7546" lon="4.82083">
        <ele>183</ele>
        <time>2020-10-31T09:55:39.000Z</time>
      </trkpt>
      <trkpt lat="49.7546" lon="4.82083">
        <ele>183</ele>
        <time>2020-10-31T09:55:40.000Z</time>
      </trkpt>
      <trkpt lat="49.7546" lon="4.82083">
        <ele>183</ele>
        <time>2020-10-31T09:55:41.000Z</time>
      </trkpt>
      <trkpt lat="49.7546" lon="4.82083">
        <ele>183</ele>
        <time>2020-10-31T09:55:42.000Z</time>
      </trkpt>
      <trkpt lat="49.75459" lon="4.82083">
        <ele>183</ele>
        <time>2020-10-31T09:55:43.000Z</time>
      </trkpt>
      <trkpt lat="49.75459" lon="4.82083">
        <ele>183</ele>
        <time>2020-10-31T09:55:44.000Z</time>
      </trkpt>
      <trkpt lat="49.75459" lon="4.82083">
        <ele>183</ele>
        <time>2020-10-31T09:55:45.000Z</time>
      </trkpt>
      <trkpt lat="49.75459" lon="4.82083">
        <ele>183</ele>
        <time>2020-10-31T09:55:46.000Z</time>
      </trkpt>
      <trkpt lat="49.75459" lon="4.82084">
        <ele>183</ele>
        <time>2020-10-31T09:55:47.000Z</time>
      </trkpt>
      <trkpt lat="49.75459" lon="4.82084">
        <ele>183</ele>
        <time>2020-10-31T09:55:48.000Z</time>
      </trkpt>
      <trkpt lat="49.7546" lon="4.82084">
        <ele>183</ele>
        <time>2020-10-31T09:55:49.000Z</time>
      </trkpt>
      <trkpt lat="49.7546" lon="4.82084">
        <ele>183</ele>
        <time>2020-10-31T09:55:50.000Z</time>
      </trkpt>
      <trkpt lat="49.7546" lon="4.82084">
        <ele>183</ele>
        <time>2020-10-31T09:55:51.000Z</time>
      </trkpt>
      <trkpt lat="49.75459" lon="4.82084">
        <ele>183</ele>
        <time>2020-10-31T09:55:52.000Z</time>
      </trkpt>
      <trkpt lat="49.75459" lon="4.82084">
        <ele>183</ele>
        <time>2020-10-31T09:55:53.000Z</time>
      </trkpt>
      <trkpt lat="49.75459" lon="4.82084">
        <ele>183</ele>
        <time>2020-10-31T09:55:54.000Z</time>
      </trkpt>
      <trkpt lat="49.75459" lon="4.82084">
        <ele>183</ele>
        <time>2020-10-31T09:55:55.000Z</time>
      </trkpt>
      <trkpt lat="49.75459" lon="4.82084">
        <ele>183</ele>
        <time>2020-10-31T09:55:56.000Z</time>
      </trkpt>
      <trkpt lat="49.75459" lon="4.82084">
        <ele>183</ele>
        <time>2020-10-31T09:55:57.000Z</time>
      </trkpt>
      <trkpt lat="49.75459" lon="4.82084">
        <ele>183</ele>
        <time>2020-10-31T09:55:58.000Z</time>
      </trkpt>
      <trkpt lat="49.75459" lon="4.82084">
        <ele>183</ele>
        <time>2020-10-31T09:55:59.000Z</time>
      </trkpt>
      <trkpt lat="49.75459" lon="4.82084">
        <ele>183</ele>
        <time>2020-10-31T09:56:00.000Z</time>
      </trkpt>
      <trkpt lat="49.75459" lon="4.82084">
        <ele>183</ele>
        <time>2020-10-31T09:56:01.000Z</time>
      </trkpt>
      <trkpt lat="49.75459" lon="4.82084">
        <ele>183</ele>
        <time>2020-10-31T09:56:02.000Z</time>
      </trkpt>
      <trkpt lat="49.75459" lon="4.82084">
        <ele>183</ele>
        <time>2020-10-31T09:56:03.000Z</time>
      </trkpt>
      <trkpt lat="49.75459" lon="4.82084">
        <ele>183</ele>
        <time>2020-10-31T09:56:04.000Z</time>
      </trkpt>
      <trkpt lat="49.75459" lon="4.82083">
        <ele>183</ele>
        <time>2020-10-31T09:56:05.000Z</time>
      </trkpt>
      <trkpt lat="49.75459" lon="4.82084">
        <ele>183</ele>
        <time>2020-10-31T09:56:06.000Z</time>
      </trkpt>
      <trkpt lat="49.75459" lon="4.82085">
        <ele>183</ele>
        <time>2020-10-31T09:56:07.000Z</time>
      </trkpt>
      <trkpt lat="49.75459" lon="4.82086">
        <ele>183</ele>
        <time>2020-10-31T09:56:08.000Z</time>
      </trkpt>
      <trkpt lat="49.75459" lon="4.82086">
        <ele>183</ele>
        <time>2020-10-31T09:56:09.000Z</time>
      </trkpt>
      <trkpt lat="49.75459" lon="4.82086">
        <ele>183</ele>
        <time>2020-10-31T09:56:10.000Z</time>
      </trkpt>
      <trkpt lat="49.75459" lon="4.82086">
        <ele>183</ele>
        <time>2020-10-31T09:56:11.000Z</time>
      </trkpt>
      <trkpt lat="49.75459" lon="4.82086">
        <ele>183</ele>
        <time>2020-10-31T09:56:12.000Z</time>
      </trkpt>
      <trkpt lat="49.75459" lon="4.82086">
        <ele>183</ele>
        <time>2020-10-31T09:56:13.000Z</time>
      </trkpt>
      <trkpt lat="49.75459" lon="4.82086">
        <ele>183</ele>
        <time>2020-10-31T09:56:14.000Z</time>
      </trkpt>
      <trkpt lat="49.75459" lon="4.82086">
        <ele>183</ele>
        <time>2020-10-31T09:56:15.000Z</time>
      </trkpt>
      <trkpt lat="49.75458" lon="4.82086">
        <ele>183</ele>
        <time>2020-10-31T09:56:16.000Z</time>
      </trkpt>
      <trkpt lat="49.75458" lon="4.82086">
        <ele>183</ele>
        <time>2020-10-31T09:56:17.000Z</time>
      </trkpt>
      <trkpt lat="49.75458" lon="4.82086">
        <ele>183</ele>
        <time>2020-10-31T09:56:18.000Z</time>
      </trkpt>
      <trkpt lat="49.75458" lon="4.82086">
        <ele>183</ele>
        <time>2020-10-31T09:56:19.000Z</time>
      </trkpt>
      <trkpt lat="49.75458" lon="4.82086">
        <ele>183</ele>
        <time>2020-10-31T09:56:20.000Z</time>
      </trkpt>
      <trkpt lat="49.75458" lon="4.82086">
        <ele>183</ele>
        <time>2020-10-31T09:56:21.000Z</time>
      </trkpt>
      <trkpt lat="49.75458" lon="4.82086">
        <ele>183</ele>
        <time>2020-10-31T09:56:22.000Z</time>
      </trkpt>
      <trkpt lat="49.75458" lon="4.82086">
        <ele>183</ele>
        <time>2020-10-31T09:56:23.000Z</time>
      </trkpt>
      <trkpt lat="49.75458" lon="4.82086">
        <ele>183</ele>
        <time>2020-10-31T09:56:24.000Z</time>
      </trkpt>
      <trkpt lat="49.75458" lon="4.82086">
        <ele>183</ele>
        <time>2020-10-31T09:56:25.000Z</time>
      </trkpt>
      <trkpt lat="49.75458" lon="4.82086">
        <ele>183</ele>
        <time>2020-10-31T09:56:26.000Z</time>
      </trkpt>
      <trkpt lat="49.75458" lon="4.82086">
        <ele>183</ele>
        <time>2020-10-31T09:56:27.000Z</time>
      </trkpt>
      <trkpt lat="49.75458" lon="4.82086">
        <ele>183</ele>
        <time>2020-10-31T09:56:28.000Z</time>
      </trkpt>
      <trkpt lat="49.75458" lon="4.82086">
        <ele>183</ele>
        <time>2020-10-31T09:56:29.000Z</time>
      </trkpt>
      <trkpt lat="49.75458" lon="4.82086">
        <ele>183</ele>
        <time>2020-10-31T09:56:30.000Z</time>
      </trkpt>
      <trkpt lat="49.75458" lon="4.82086">
        <ele>183</ele>
        <time>2020-10-31T09:56:31.000Z</time>
      </trkpt>
      <trkpt lat="49.75458" lon="4.82086">
        <ele>183</ele>
        <time>2020-10-31T09:56:32.000Z</time>
      </trkpt>
      <trkpt lat="49.75458" lon="4.82086">
        <ele>183</ele>
        <time>2020-10-31T09:56:33.000Z</time>
      </trkpt>
      <trkpt lat="49.75458" lon="4.82086">
        <ele>183</ele>
        <time>2020-10-31T09:56:34.000Z</time>
      </trkpt>
      <trkpt lat="49.75458" lon="4.82086">
        <ele>183</ele>
        <time>2020-10-31T09:56:35.000Z</time>
      </trkpt>
      <trkpt lat="49.75458" lon="4.82086">
        <ele>183</ele>
        <time>2020-10-31T09:56:36.000Z</time>
      </trkpt>
      <trkpt lat="49.75458" lon="4.82086">
        <ele>183</ele>
        <time>2020-10-31T09:56:37.000Z</time>
      </trkpt>
      <trkpt lat="49.75459" lon="4.82086">
        <ele>183</ele>
        <time>2020-10-31T09:56:38.000Z</time>
      </trkpt>
      <trkpt lat="49.75459" lon="4.82086">
        <ele>183</ele>
        <time>2020-10-31T09:56:39.000Z</time>
      </trkpt>
      <trkpt lat="49.75459" lon="4.82086">
        <ele>183</ele>
        <time>2020-10-31T09:56:40.000Z</time>
      </trkpt>
      <trkpt lat="49.75459" lon="4.82086">
        <ele>183</ele>
        <time>2020-10-31T09:56:41.000Z</time>
      </trkpt>
      <trkpt lat="49.75459" lon="4.82086">
        <ele>183</ele>
        <time>2020-10-31T09:56:42.000Z</time>
      </trkpt>
      <trkpt lat="49.75459" lon="4.82086">
        <ele>183</ele>
        <time>2020-10-31T09:56:43.000Z</time>
      </trkpt>
      <trkpt lat="49.75459" lon="4.82086">
        <ele>184</ele>
        <time>2020-10-31T09:56:44.000Z</time>
      </trkpt>
      <trkpt lat="49.75459" lon="4.82086">
        <ele>184</ele>
        <time>2020-10-31T09:56:45.000Z</time>
      </trkpt>
      <trkpt lat="49.75459" lon="4.82086">
        <ele>184</ele>
        <time>2020-10-31T09:56:46.000Z</time>
      </trkpt>
      <trkpt lat="49.75459" lon="4.82086">
        <ele>184</ele>
        <time>2020-10-31T09:56:47.000Z</time>
      </trkpt>
      <trkpt lat="49.75459" lon="4.82086">
        <ele>184</ele>
        <time>2020-10-31T09:56:48.000Z</time>
      </trkpt>
      <trkpt lat="49.75459" lon="4.82086">
        <ele>184</ele>
        <time>2020-10-31T09:56:49.000Z</time>
      </trkpt>
      <trkpt lat="49.75459" lon="4.82086">
        <ele>184</ele>
        <time>2020-10-31T09:56:50.000Z</time>
      </trkpt>
      <trkpt lat="49.75459" lon="4.82086">
        <ele>184</ele>
        <time>2020-10-31T09:56:51.000Z</time>
      </trkpt>
      <trkpt lat="49.75459" lon="4.82086">
        <ele>184</ele>
        <time>2020-10-31T09:56:52.000Z</time>
      </trkpt>
      <trkpt lat="49.7546" lon="4.82087">
        <ele>184</ele>
        <time>2020-10-31T09:56:53.000Z</time>
      </trkpt>
      <trkpt lat="49.75459" lon="4.82087">
        <ele>184</ele>
        <time>2020-10-31T09:56:54.000Z</time>
      </trkpt>
      <trkpt lat="49.75459" lon="4.82087">
        <ele>184</ele>
        <time>2020-10-31T09:56:55.000Z</time>
      </trkpt>
      <trkpt lat="49.7546" lon="4.82087">
        <ele>184</ele>
        <time>2020-10-31T09:56:56.000Z</time>
      </trkpt>
      <trkpt lat="49.75459" lon="4.82087">
        <ele>184</ele>
        <time>2020-10-31T09:56:57.000Z</time>
      </trkpt>
      <trkpt lat="49.75459" lon="4.82087">
        <ele>184</ele>
        <time>2020-10-31T09:56:58.000Z</time>
      </trkpt>
      <trkpt lat="49.75459" lon="4.82086">
        <ele>184</ele>
        <time>2020-10-31T09:56:59.000Z</time>
      </trkpt>
      <trkpt lat="49.75459" lon="4.82086">
        <ele>184</ele>
        <time>2020-10-31T09:57:00.000Z</time>
      </trkpt>
      <trkpt lat="49.75459" lon="4.82086">
        <ele>184</ele>
        <time>2020-10-31T09:57:01.000Z</time>
      </trkpt>
      <trkpt lat="49.75459" lon="4.82086">
        <ele>184</ele>
        <time>2020-10-31T09:57:02.000Z</time>
      </trkpt>
      <trkpt lat="49.75459" lon="4.82086">
        <ele>184</ele>
        <time>2020-10-31T09:57:03.000Z</time>
      </trkpt>
      <trkpt lat="49.75459" lon="4.82086">
        <ele>184</ele>
        <time>2020-10-31T09:57:04.000Z</time>
      </trkpt>
      <trkpt lat="49.75458" lon="4.82086">
        <ele>184</ele>
        <time>2020-10-31T09:57:05.000Z</time>
      </trkpt>
      <trkpt lat="49.75458" lon="4.82085">
        <ele>184</ele>
        <time>2020-10-31T09:57:06.000Z</time>
      </trkpt>
      <trkpt lat="49.75458" lon="4.82085">
        <ele>184</ele>
        <time>2020-10-31T09:57:07.000Z</time>
      </trkpt>
      <trkpt lat="49.75459" lon="4.82084">
        <ele>184</ele>
        <time>2020-10-31T09:57:08.000Z</time>
      </trkpt>
      <trkpt lat="49.75458" lon="4.82084">
        <ele>184</ele>
        <time>2020-10-31T09:57:09.000Z</time>
      </trkpt>
      <trkpt lat="49.75458" lon="4.82084">
        <ele>184</ele>
        <time>2020-10-31T09:57:10.000Z</time>
      </trkpt>
      <trkpt lat="49.75458" lon="4.82085">
        <ele>184</ele>
        <time>2020-10-31T09:57:11.000Z</time>
      </trkpt>
      <trkpt lat="49.75459" lon="4.82085">
        <ele>184</ele>
        <time>2020-10-31T09:57:12.000Z</time>
      </trkpt>
      <trkpt lat="49.75459" lon="4.82085">
        <ele>184</ele>
        <time>2020-10-31T09:57:13.000Z</time>
      </trkpt>
      <trkpt lat="49.75459" lon="4.82085">
        <ele>184</ele>
        <time>2020-10-31T09:57:14.000Z</time>
      </trkpt>
      <trkpt lat="49.75459" lon="4.82085">
        <ele>184</ele>
        <time>2020-10-31T09:57:15.000Z</time>
      </trkpt>
      <trkpt lat="49.75458" lon="4.82084">
        <ele>184</ele>
        <time>2020-10-31T09:57:16.000Z</time>
      </trkpt>
      <trkpt lat="49.75458" lon="4.82084">
        <ele>184</ele>
        <time>2020-10-31T09:57:17.000Z</time>
      </trkpt>
      <trkpt lat="49.75458" lon="4.82084">
        <ele>184</ele>
        <time>2020-10-31T09:57:18.000Z</time>
      </trkpt>
      <trkpt lat="49.75458" lon="4.82083">
        <ele>184</ele>
        <time>2020-10-31T09:57:19.000Z</time>
      </trkpt>
      <trkpt lat="49.75458" lon="4.82084">
        <ele>184</ele>
        <time>2020-10-31T09:57:20.000Z</time>
      </trkpt>
      <trkpt lat="49.75459" lon="4.82084">
        <ele>184</ele>
        <time>2020-10-31T09:57:21.000Z</time>
      </trkpt>
      <trkpt lat="49.75459" lon="4.82083">
        <ele>184</ele>
        <time>2020-10-31T09:57:22.000Z</time>
      </trkpt>
      <trkpt lat="49.75459" lon="4.82084">
        <ele>184</ele>
        <time>2020-10-31T09:57:23.000Z</time>
      </trkpt>
      <trkpt lat="49.75459" lon="4.82084">
        <ele>184</ele>
        <time>2020-10-31T09:57:24.000Z</time>
      </trkpt>
      <trkpt lat="49.75459" lon="4.82085">
        <ele>184</ele>
        <time>2020-10-31T09:57:25.000Z</time>
      </trkpt>
      <trkpt lat="49.75459" lon="4.82085">
        <ele>184</ele>
        <time>2020-10-31T09:57:26.000Z</time>
      </trkpt>
      <trkpt lat="49.75459" lon="4.82085">
        <ele>184</ele>
        <time>2020-10-31T09:57:27.000Z</time>
      </trkpt>
      <trkpt lat="49.75459" lon="4.82085">
        <ele>184</ele>
        <time>2020-10-31T09:57:28.000Z</time>
      </trkpt>
      <trkpt lat="49.75459" lon="4.82085">
        <ele>184</ele>
        <time>2020-10-31T09:57:29.000Z</time>
      </trkpt>
      <trkpt lat="49.75458" lon="4.82085">
        <ele>184</ele>
        <time>2020-10-31T09:57:30.000Z</time>
      </trkpt>
      <trkpt lat="49.75457" lon="4.82086">
        <ele>184</ele>
        <time>2020-10-31T09:57:31.000Z</time>
      </trkpt>
      <trkpt lat="49.75458" lon="4.82089">
        <ele>184</ele>
        <time>2020-10-31T09:57:32.000Z</time>
      </trkpt>
      <trkpt lat="49.75459" lon="4.82093">
        <ele>184</ele>
        <time>2020-10-31T09:57:33.000Z</time>
      </trkpt>
      <trkpt lat="49.75461" lon="4.82097">
        <ele>184</ele>
        <time>2020-10-31T09:57:34.000Z</time>
      </trkpt>
      <trkpt lat="49.75463" lon="4.821">
        <ele>184</ele>
        <time>2020-10-31T09:57:35.000Z</time>
      </trkpt>
      <trkpt lat="49.75466" lon="4.82103">
        <ele>184</ele>
        <time>2020-10-31T09:57:36.000Z</time>
      </trkpt>
      <trkpt lat="49.75469" lon="4.82107">
        <ele>184</ele>
        <time>2020-10-31T09:57:37.000Z</time>
      </trkpt>
      <trkpt lat="49.75471" lon="4.82112">
        <ele>184</ele>
        <time>2020-10-31T09:57:38.000Z</time>
      </trkpt>
      <trkpt lat="49.75474" lon="4.82117">
        <ele>184</ele>
        <time>2020-10-31T09:57:39.000Z</time>
      </trkpt>
      <trkpt lat="49.75478" lon="4.82122">
        <ele>184</ele>
        <time>2020-10-31T09:57:40.000Z</time>
      </trkpt>
      <trkpt lat="49.75481" lon="4.82128">
        <ele>184</ele>
        <time>2020-10-31T09:57:41.000Z</time>
      </trkpt>
      <trkpt lat="49.75485" lon="4.82134">
        <ele>184</ele>
        <time>2020-10-31T09:57:42.000Z</time>
      </trkpt>
      <trkpt lat="49.75489" lon="4.82141">
        <ele>183</ele>
        <time>2020-10-31T09:57:43.000Z</time>
      </trkpt>
      <trkpt lat="49.75493" lon="4.82148">
        <ele>183</ele>
        <time>2020-10-31T09:57:44.000Z</time>
      </trkpt>
      <trkpt lat="49.75498" lon="4.82154">
        <ele>183</ele>
        <time>2020-10-31T09:57:45.000Z</time>
      </trkpt>
      <trkpt lat="49.75502" lon="4.82161">
        <ele>183</ele>
        <time>2020-10-31T09:57:46.000Z</time>
      </trkpt>
      <trkpt lat="49.75505" lon="4.82169">
        <ele>183</ele>
        <time>2020-10-31T09:57:47.000Z</time>
      </trkpt>
      <trkpt lat="49.75509" lon="4.82176">
        <ele>183</ele>
        <time>2020-10-31T09:57:48.000Z</time>
      </trkpt>
      <trkpt lat="49.75512" lon="4.82183">
        <ele>183</ele>
        <time>2020-10-31T09:57:49.000Z</time>
      </trkpt>
      <trkpt lat="49.75515" lon="4.8219">
        <ele>183</ele>
        <time>2020-10-31T09:57:50.000Z</time>
      </trkpt>
      <trkpt lat="49.75519" lon="4.82197">
        <ele>183</ele>
        <time>2020-10-31T09:57:51.000Z</time>
      </trkpt>
      <trkpt lat="49.75522" lon="4.82204">
        <ele>182</ele>
        <time>2020-10-31T09:57:52.000Z</time>
      </trkpt>
      <trkpt lat="49.75526" lon="4.82211">
        <ele>182</ele>
        <time>2020-10-31T09:57:53.000Z</time>
      </trkpt>
      <trkpt lat="49.75529" lon="4.82218">
        <ele>182</ele>
        <time>2020-10-31T09:57:54.000Z</time>
      </trkpt>
      <trkpt lat="49.75533" lon="4.82225">
        <ele>182</ele>
        <time>2020-10-31T09:57:55.000Z</time>
      </trkpt>
      <trkpt lat="49.75537" lon="4.82233">
        <ele>182</ele>
        <time>2020-10-31T09:57:56.000Z</time>
      </trkpt>
      <trkpt lat="49.7554" lon="4.8224">
        <ele>182</ele>
        <time>2020-10-31T09:57:57.000Z</time>
      </trkpt>
      <trkpt lat="49.75544" lon="4.82247">
        <ele>182</ele>
        <time>2020-10-31T09:57:58.000Z</time>
      </trkpt>
      <trkpt lat="49.75547" lon="4.82254">
        <ele>182</ele>
        <time>2020-10-31T09:57:59.000Z</time>
      </trkpt>
      <trkpt lat="49.75548" lon="4.82263">
        <ele>182</ele>
        <time>2020-10-31T09:58:00.000Z</time>
      </trkpt>
      <trkpt lat="49.75547" lon="4.8227">
        <ele>182</ele>
        <time>2020-10-31T09:58:01.000Z</time>
      </trkpt>
      <trkpt lat="49.75543" lon="4.82275">
        <ele>182</ele>
        <time>2020-10-31T09:58:02.000Z</time>
      </trkpt>
      <trkpt lat="49.75538" lon="4.82277">
        <ele>181</ele>
        <time>2020-10-31T09:58:03.000Z</time>
      </trkpt>
      <trkpt lat="49.75533" lon="4.82275">
        <ele>181</ele>
        <time>2020-10-31T09:58:04.000Z</time>
      </trkpt>
      <trkpt lat="49.75528" lon="4.82273">
        <ele>181</ele>
        <time>2020-10-31T09:58:05.000Z</time>
      </trkpt>
      <trkpt lat="49.75522" lon="4.82271">
        <ele>181</ele>
        <time>2020-10-31T09:58:06.000Z</time>
      </trkpt>
      <trkpt lat="49.75516" lon="4.82268">
        <ele>181</ele>
        <time>2020-10-31T09:58:07.000Z</time>
      </trkpt>
      <trkpt lat="49.7551" lon="4.82265">
        <ele>181</ele>
        <time>2020-10-31T09:58:08.000Z</time>
      </trkpt>
      <trkpt lat="49.75504" lon="4.82262">
        <ele>181</ele>
        <time>2020-10-31T09:58:09.000Z</time>
      </trkpt>
      <trkpt lat="49.75498" lon="4.82259">
        <ele>181</ele>
        <time>2020-10-31T09:58:10.000Z</time>
      </trkpt>
      <trkpt lat="49.75493" lon="4.82255">
        <ele>181</ele>
        <time>2020-10-31T09:58:11.000Z</time>
      </trkpt>
      <trkpt lat="49.75487" lon="4.8225">
        <ele>181</ele>
        <time>2020-10-31T09:58:12.000Z</time>
      </trkpt>
      <trkpt lat="49.75482" lon="4.82245">
        <ele>181</ele>
        <time>2020-10-31T09:58:13.000Z</time>
      </trkpt>
      <trkpt lat="49.75477" lon="4.82239">
        <ele>181</ele>
        <time>2020-10-31T09:58:14.000Z</time>
      </trkpt>
      <trkpt lat="49.75473" lon="4.82233">
        <ele>181</ele>
        <time>2020-10-31T09:58:15.000Z</time>
      </trkpt>
      <trkpt lat="49.75468" lon="4.82228">
        <ele>181</ele>
        <time>2020-10-31T09:58:16.000Z</time>
      </trkpt>
      <trkpt lat="49.75463" lon="4.82224">
        <ele>181</ele>
        <time>2020-10-31T09:58:17.000Z</time>
      </trkpt>
      <trkpt lat="49.75458" lon="4.82222">
        <ele>181</ele>
        <time>2020-10-31T09:58:18.000Z</time>
      </trkpt>
      <trkpt lat="49.75453" lon="4.82219">
        <ele>181</ele>
        <time>2020-10-31T09:58:19.000Z</time>
      </trkpt>
      <trkpt lat="49.75448" lon="4.82218">
        <ele>182</ele>
        <time>2020-10-31T09:58:20.000Z</time>
      </trkpt>
      <trkpt lat="49.75444" lon="4.82219">
        <ele>182</ele>
        <time>2020-10-31T09:58:21.000Z</time>
      </trkpt>
      <trkpt lat="49.75441" lon="4.82224">
        <ele>182</ele>
        <time>2020-10-31T09:58:22.000Z</time>
      </trkpt>
      <trkpt lat="49.75438" lon="4.82231">
        <ele>182</ele>
        <time>2020-10-31T09:58:23.000Z</time>
      </trkpt>
      <trkpt lat="49.75437" lon="4.82237">
        <ele>182</ele>
        <time>2020-10-31T09:58:24.000Z</time>
      </trkpt>
      <trkpt lat="49.75435" lon="4.82244">
        <ele>182</ele>
        <time>2020-10-31T09:58:25.000Z</time>
      </trkpt>
      <trkpt lat="49.75433" lon="4.8225">
        <ele>182</ele>
        <time>2020-10-31T09:58:26.000Z</time>
      </trkpt>
      <trkpt lat="49.75432" lon="4.82257">
        <ele>182</ele>
        <time>2020-10-31T09:58:27.000Z</time>
      </trkpt>
      <trkpt lat="49.75431" lon="4.82263">
        <ele>182</ele>
        <time>2020-10-31T09:58:28.000Z</time>
      </trkpt>
      <trkpt lat="49.75429" lon="4.82269">
        <ele>183</ele>
        <time>2020-10-31T09:58:29.000Z</time>
      </trkpt>
      <trkpt lat="49.75428" lon="4.82275">
        <ele>183</ele>
        <time>2020-10-31T09:58:30.000Z</time>
      </trkpt>
      <trkpt lat="49.75427" lon="4.82282">
        <ele>183</ele>
        <time>2020-10-31T09:58:31.000Z</time>
      </trkpt>
      <trkpt lat="49.75426" lon="4.82288">
        <ele>183</ele>
        <time>2020-10-31T09:58:32.000Z</time>
      </trkpt>
      <trkpt lat="49.75426" lon="4.82295">
        <ele>183</ele>
        <time>2020-10-31T09:58:33.000Z</time>
      </trkpt>
      <trkpt lat="49.75427" lon="4.82301">
        <ele>183</ele>
        <time>2020-10-31T09:58:34.000Z</time>
      </trkpt>
      <trkpt lat="49.75427" lon="4.82308">
        <ele>183</ele>
        <time>2020-10-31T09:58:35.000Z</time>
      </trkpt>
      <trkpt lat="49.75427" lon="4.82314">
        <ele>184</ele>
        <time>2020-10-31T09:58:36.000Z</time>
      </trkpt>
      <trkpt lat="49.75427" lon="4.8232">
        <ele>184</ele>
        <time>2020-10-31T09:58:37.000Z</time>
      </trkpt>
      <trkpt lat="49.75427" lon="4.82327">
        <ele>184</ele>
        <time>2020-10-31T09:58:38.000Z</time>
      </trkpt>
      <trkpt lat="49.75427" lon="4.82333">
        <ele>184</ele>
        <time>2020-10-31T09:58:39.000Z</time>
      </trkpt>
      <trkpt lat="49.75427" lon="4.82339">
        <ele>185</ele>
        <time>2020-10-31T09:58:40.000Z</time>
      </trkpt>
      <trkpt lat="49.75428" lon="4.82346">
        <ele>185</ele>
        <time>2020-10-31T09:58:41.000Z</time>
      </trkpt>
      <trkpt lat="49.75428" lon="4.82352">
        <ele>185</ele>
        <time>2020-10-31T09:58:42.000Z</time>
      </trkpt>
      <trkpt lat="49.75429" lon="4.82359">
        <ele>185</ele>
        <time>2020-10-31T09:58:43.000Z</time>
      </trkpt>
      <trkpt lat="49.7543" lon="4.82364">
        <ele>185</ele>
        <time>2020-10-31T09:58:44.000Z</time>
      </trkpt>
      <trkpt lat="49.75431" lon="4.8237">
        <ele>186</ele>
        <time>2020-10-31T09:58:45.000Z</time>
      </trkpt>
      <trkpt lat="49.75433" lon="4.82376">
        <ele>186</ele>
        <time>2020-10-31T09:58:46.000Z</time>
      </trkpt>
      <trkpt lat="49.75433" lon="4.82382">
        <ele>186</ele>
        <time>2020-10-31T09:58:47.000Z</time>
      </trkpt>
      <trkpt lat="49.75434" lon="4.82388">
        <ele>186</ele>
        <time>2020-10-31T09:58:48.000Z</time>
      </trkpt>
      <trkpt lat="49.75435" lon="4.82395">
        <ele>186</ele>
        <time>2020-10-31T09:58:49.000Z</time>
      </trkpt>
      <trkpt lat="49.75436" lon="4.824">
        <ele>186</ele>
        <time>2020-10-31T09:58:50.000Z</time>
      </trkpt>
      <trkpt lat="49.75437" lon="4.82406">
        <ele>187</ele>
        <time>2020-10-31T09:58:51.000Z</time>
      </trkpt>
      <trkpt lat="49.75437" lon="4.82412">
        <ele>187</ele>
        <time>2020-10-31T09:58:52.000Z</time>
      </trkpt>
      <trkpt lat="49.75437" lon="4.82418">
        <ele>187</ele>
        <time>2020-10-31T09:58:53.000Z</time>
      </trkpt>
      <trkpt lat="49.75438" lon="4.82424">
        <ele>187</ele>
        <time>2020-10-31T09:58:54.000Z</time>
      </trkpt>
      <trkpt lat="49.75438" lon="4.82429">
        <ele>187</ele>
        <time>2020-10-31T09:58:55.000Z</time>
      </trkpt>
      <trkpt lat="49.75439" lon="4.82435">
        <ele>188</ele>
        <time>2020-10-31T09:58:56.000Z</time>
      </trkpt>
      <trkpt lat="49.75439" lon="4.82441">
        <ele>188</ele>
        <time>2020-10-31T09:58:57.000Z</time>
      </trkpt>
      <trkpt lat="49.75439" lon="4.82446">
        <ele>188</ele>
        <time>2020-10-31T09:58:58.000Z</time>
      </trkpt>
      <trkpt lat="49.75439" lon="4.82451">
        <ele>188</ele>
        <time>2020-10-31T09:58:59.000Z</time>
      </trkpt>
      <trkpt lat="49.75439" lon="4.82456">
        <ele>188</ele>
        <time>2020-10-31T09:59:00.000Z</time>
      </trkpt>
      <trkpt lat="49.75439" lon="4.82462">
        <ele>189</ele>
        <time>2020-10-31T09:59:01.000Z</time>
      </trkpt>
      <trkpt lat="49.7544" lon="4.82467">
        <ele>189</ele>
        <time>2020-10-31T09:59:02.000Z</time>
      </trkpt>
      <trkpt lat="49.7544" lon="4.82473">
        <ele>189</ele>
        <time>2020-10-31T09:59:03.000Z</time>
      </trkpt>
      <trkpt lat="49.75441" lon="4.82479">
        <ele>189</ele>
        <time>2020-10-31T09:59:04.000Z</time>
      </trkpt>
      <trkpt lat="49.75442" lon="4.82484">
        <ele>189</ele>
        <time>2020-10-31T09:59:05.000Z</time>
      </trkpt>
      <trkpt lat="49.75443" lon="4.8249">
        <ele>190</ele>
        <time>2020-10-31T09:59:06.000Z</time>
      </trkpt>
      <trkpt lat="49.75445" lon="4.82495">
        <ele>190</ele>
        <time>2020-10-31T09:59:07.000Z</time>
      </trkpt>
      <trkpt lat="49.75446" lon="4.82501">
        <ele>190</ele>
        <time>2020-10-31T09:59:08.000Z</time>
      </trkpt>
      <trkpt lat="49.75447" lon="4.82506">
        <ele>190</ele>
        <time>2020-10-31T09:59:09.000Z</time>
      </trkpt>
      <trkpt lat="49.75448" lon="4.82511">
        <ele>191</ele>
        <time>2020-10-31T09:59:10.000Z</time>
      </trkpt>
      <trkpt lat="49.75449" lon="4.82516">
        <ele>191</ele>
        <time>2020-10-31T09:59:11.000Z</time>
      </trkpt>
      <trkpt lat="49.7545" lon="4.82521">
        <ele>191</ele>
        <time>2020-10-31T09:59:12.000Z</time>
      </trkpt>
      <trkpt lat="49.75451" lon="4.82526">
        <ele>191</ele>
        <time>2020-10-31T09:59:13.000Z</time>
      </trkpt>
      <trkpt lat="49.75452" lon="4.82532">
        <ele>191</ele>
        <time>2020-10-31T09:59:14.000Z</time>
      </trkpt>
      <trkpt lat="49.75454" lon="4.82537">
        <ele>192</ele>
        <time>2020-10-31T09:59:15.000Z</time>
      </trkpt>
      <trkpt lat="49.75455" lon="4.82543">
        <ele>192</ele>
        <time>2020-10-31T09:59:16.000Z</time>
      </trkpt>
      <trkpt lat="49.75456" lon="4.82548">
        <ele>192</ele>
        <time>2020-10-31T09:59:17.000Z</time>
      </trkpt>
      <trkpt lat="49.75458" lon="4.82554">
        <ele>192</ele>
        <time>2020-10-31T09:59:18.000Z</time>
      </trkpt>
      <trkpt lat="49.75459" lon="4.82559">
        <ele>193</ele>
        <time>2020-10-31T09:59:19.000Z</time>
      </trkpt>
      <trkpt lat="49.7546" lon="4.82565">
        <ele>193</ele>
        <time>2020-10-31T09:59:20.000Z</time>
      </trkpt>
      <trkpt lat="49.75462" lon="4.8257">
        <ele>193</ele>
        <time>2020-10-31T09:59:21.000Z</time>
      </trkpt>
      <trkpt lat="49.75463" lon="4.82575">
        <ele>193</ele>
        <time>2020-10-31T09:59:22.000Z</time>
      </trkpt>
      <trkpt lat="49.75464" lon="4.8258">
        <ele>194</ele>
        <time>2020-10-31T09:59:23.000Z</time>
      </trkpt>
      <trkpt lat="49.75465" lon="4.82584">
        <ele>194</ele>
        <time>2020-10-31T09:59:24.000Z</time>
      </trkpt>
      <trkpt lat="49.75466" lon="4.8259">
        <ele>194</ele>
        <time>2020-10-31T09:59:25.000Z</time>
      </trkpt>
      <trkpt lat="49.75468" lon="4.82595">
        <ele>194</ele>
        <time>2020-10-31T09:59:26.000Z</time>
      </trkpt>
      <trkpt lat="49.75469" lon="4.826">
        <ele>195</ele>
        <time>2020-10-31T09:59:27.000Z</time>
      </trkpt>
      <trkpt lat="49.7547" lon="4.82604">
        <ele>195</ele>
        <time>2020-10-31T09:59:28.000Z</time>
      </trkpt>
      <trkpt lat="49.75471" lon="4.82609">
        <ele>195</ele>
        <time>2020-10-31T09:59:29.000Z</time>
      </trkpt>
      <trkpt lat="49.75473" lon="4.82614">
        <ele>195</ele>
        <time>2020-10-31T09:59:30.000Z</time>
      </trkpt>
      <trkpt lat="49.75474" lon="4.82618">
        <ele>195</ele>
        <time>2020-10-31T09:59:31.000Z</time>
      </trkpt>
      <trkpt lat="49.75475" lon="4.82622">
        <ele>196</ele>
        <time>2020-10-31T09:59:32.000Z</time>
      </trkpt>
      <trkpt lat="49.75476" lon="4.82627">
        <ele>196</ele>
        <time>2020-10-31T09:59:33.000Z</time>
      </trkpt>
      <trkpt lat="49.75477" lon="4.82631">
        <ele>196</ele>
        <time>2020-10-31T09:59:34.000Z</time>
      </trkpt>
      <trkpt lat="49.75478" lon="4.82636">
        <ele>196</ele>
        <time>2020-10-31T09:59:35.000Z</time>
      </trkpt>
      <trkpt lat="49.75478" lon="4.82641">
        <ele>196</ele>
        <time>2020-10-31T09:59:36.000Z</time>
      </trkpt>
      <trkpt lat="49.75479" lon="4.82645">
        <ele>196</ele>
        <time>2020-10-31T09:59:37.000Z</time>
      </trkpt>
      <trkpt lat="49.7548" lon="4.8265">
        <ele>197</ele>
        <time>2020-10-31T09:59:38.000Z</time>
      </trkpt>
      <trkpt lat="49.75482" lon="4.82655">
        <ele>197</ele>
        <time>2020-10-31T09:59:39.000Z</time>
      </trkpt>
      <trkpt lat="49.75483" lon="4.8266">
        <ele>197</ele>
        <time>2020-10-31T09:59:40.000Z</time>
      </trkpt>
      <trkpt lat="49.75484" lon="4.82665">
        <ele>197</ele>
        <time>2020-10-31T09:59:41.000Z</time>
      </trkpt>
      <trkpt lat="49.75485" lon="4.8267">
        <ele>197</ele>
        <time>2020-10-31T09:59:42.000Z</time>
      </trkpt>
      <trkpt lat="49.75487" lon="4.82676">
        <ele>197</ele>
        <time>2020-10-31T09:59:43.000Z</time>
      </trkpt>
      <trkpt lat="49.75488" lon="4.82681">
        <ele>197</ele>
        <time>2020-10-31T09:59:44.000Z</time>
      </trkpt>
      <trkpt lat="49.75489" lon="4.82687">
        <ele>198</ele>
        <time>2020-10-31T09:59:45.000Z</time>
      </trkpt>
      <trkpt lat="49.75491" lon="4.82693">
        <ele>198</ele>
        <time>2020-10-31T09:59:46.000Z</time>
      </trkpt>
      <trkpt lat="49.75492" lon="4.82698">
        <ele>198</ele>
        <time>2020-10-31T09:59:47.000Z</time>
      </trkpt>
      <trkpt lat="49.75494" lon="4.82704">
        <ele>198</ele>
        <time>2020-10-31T09:59:48.000Z</time>
      </trkpt>
      <trkpt lat="49.75495" lon="4.8271">
        <ele>198</ele>
        <time>2020-10-31T09:59:49.000Z</time>
      </trkpt>
      <trkpt lat="49.75496" lon="4.82715">
        <ele>198</ele>
        <time>2020-10-31T09:59:50.000Z</time>
      </trkpt>
      <trkpt lat="49.75498" lon="4.82721">
        <ele>199</ele>
        <time>2020-10-31T09:59:51.000Z</time>
      </trkpt>
      <trkpt lat="49.75499" lon="4.82726">
        <ele>199</ele>
        <time>2020-10-31T09:59:52.000Z</time>
      </trkpt>
      <trkpt lat="49.755" lon="4.82732">
        <ele>199</ele>
        <time>2020-10-31T09:59:53.000Z</time>
      </trkpt>
      <trkpt lat="49.75501" lon="4.82738">
        <ele>199</ele>
        <time>2020-10-31T09:59:54.000Z</time>
      </trkpt>
      <trkpt lat="49.75502" lon="4.82743">
        <ele>200</ele>
        <time>2020-10-31T09:59:55.000Z</time>
      </trkpt>
      <trkpt lat="49.75503" lon="4.82749">
        <ele>200</ele>
        <time>2020-10-31T09:59:56.000Z</time>
      </trkpt>
      <trkpt lat="49.75503" lon="4.82755">
        <ele>200</ele>
        <time>2020-10-31T09:59:57.000Z</time>
      </trkpt>
      <trkpt lat="49.75503" lon="4.8276">
        <ele>200</ele>
        <time>2020-10-31T09:59:58.000Z</time>
      </trkpt>
      <trkpt lat="49.75502" lon="4.82765">
        <ele>200</ele>
        <time>2020-10-31T09:59:59.000Z</time>
      </trkpt>
      <trkpt lat="49.75501" lon="4.8277">
        <ele>201</ele>
        <time>2020-10-31T10:00:00.000Z</time>
      </trkpt>
      <trkpt lat="49.75501" lon="4.82775">
        <ele>201</ele>
        <time>2020-10-31T10:00:01.000Z</time>
      </trkpt>
      <trkpt lat="49.755" lon="4.82779">
        <ele>201</ele>
        <time>2020-10-31T10:00:02.000Z</time>
      </trkpt>
      <trkpt lat="49.75499" lon="4.82784">
        <ele>201</ele>
        <time>2020-10-31T10:00:03.000Z</time>
      </trkpt>
      <trkpt lat="49.75498" lon="4.82788">
        <ele>201</ele>
        <time>2020-10-31T10:00:04.000Z</time>
      </trkpt>
      <trkpt lat="49.75496" lon="4.82792">
        <ele>202</ele>
        <time>2020-10-31T10:00:05.000Z</time>
      </trkpt>
      <trkpt lat="49.75494" lon="4.82796">
        <ele>202</ele>
        <time>2020-10-31T10:00:06.000Z</time>
      </trkpt>
      <trkpt lat="49.75493" lon="4.82799">
        <ele>202</ele>
        <time>2020-10-31T10:00:07.000Z</time>
      </trkpt>
      <trkpt lat="49.75491" lon="4.82802">
        <ele>202</ele>
        <time>2020-10-31T10:00:08.000Z</time>
      </trkpt>
      <trkpt lat="49.75489" lon="4.82806">
        <ele>202</ele>
        <time>2020-10-31T10:00:09.000Z</time>
      </trkpt>
      <trkpt lat="49.75488" lon="4.82809">
        <ele>202</ele>
        <time>2020-10-31T10:00:10.000Z</time>
      </trkpt>
      <trkpt lat="49.75486" lon="4.82813">
        <ele>203</ele>
        <time>2020-10-31T10:00:11.000Z</time>
      </trkpt>
      <trkpt lat="49.75484" lon="4.82816">
        <ele>203</ele>
        <time>2020-10-31T10:00:12.000Z</time>
      </trkpt>
      <trkpt lat="49.75482" lon="4.82819">
        <ele>203</ele>
        <time>2020-10-31T10:00:13.000Z</time>
      </trkpt>
      <trkpt lat="49.7548" lon="4.82823">
        <ele>203</ele>
        <time>2020-10-31T10:00:14.000Z</time>
      </trkpt>
      <trkpt lat="49.75478" lon="4.82826">
        <ele>204</ele>
        <time>2020-10-31T10:00:15.000Z</time>
      </trkpt>
      <trkpt lat="49.75475" lon="4.82829">
        <ele>204</ele>
        <time>2020-10-31T10:00:16.000Z</time>
      </trkpt>
      <trkpt lat="49.75473" lon="4.82832">
        <ele>204</ele>
        <time>2020-10-31T10:00:17.000Z</time>
      </trkpt>
      <trkpt lat="49.7547" lon="4.82835">
        <ele>204</ele>
        <time>2020-10-31T10:00:18.000Z</time>
      </trkpt>
      <trkpt lat="49.75468" lon="4.82838">
        <ele>204</ele>
        <time>2020-10-31T10:00:19.000Z</time>
      </trkpt>
      <trkpt lat="49.75465" lon="4.8284">
        <ele>204</ele>
        <time>2020-10-31T10:00:20.000Z</time>
      </trkpt>
      <trkpt lat="49.75462" lon="4.82843">
        <ele>204</ele>
        <time>2020-10-31T10:00:21.000Z</time>
      </trkpt>
      <trkpt lat="49.75459" lon="4.82846">
        <ele>205</ele>
        <time>2020-10-31T10:00:22.000Z</time>
      </trkpt>
      <trkpt lat="49.75457" lon="4.82849">
        <ele>205</ele>
        <time>2020-10-31T10:00:23.000Z</time>
      </trkpt>
      <trkpt lat="49.75456" lon="4.8285">
        <ele>205</ele>
        <time>2020-10-31T10:00:24.000Z</time>
      </trkpt>
      <trkpt lat="49.75456" lon="4.82851">
        <ele>205</ele>
        <time>2020-10-31T10:00:25.000Z</time>
      </trkpt>
      <trkpt lat="49.75456" lon="4.82851">
        <ele>205</ele>
        <time>2020-10-31T10:00:26.000Z</time>
      </trkpt>
      <trkpt lat="49.75456" lon="4.82851">
        <ele>205</ele>
        <time>2020-10-31T10:00:27.000Z</time>
      </trkpt>
      <trkpt lat="49.75456" lon="4.82851">
        <ele>205</ele>
        <time>2020-10-31T10:00:28.000Z</time>
      </trkpt>
      <trkpt lat="49.75456" lon="4.82851">
        <ele>205</ele>
        <time>2020-10-31T10:00:29.000Z</time>
      </trkpt>
      <trkpt lat="49.75455" lon="4.82851">
        <ele>205</ele>
        <time>2020-10-31T10:00:30.000Z</time>
      </trkpt>
      <trkpt lat="49.75455" lon="4.82851">
        <ele>205</ele>
        <time>2020-10-31T10:00:31.000Z</time>
      </trkpt>
      <trkpt lat="49.75455" lon="4.82853">
        <ele>205</ele>
        <time>2020-10-31T10:00:32.000Z</time>
      </trkpt>
      <trkpt lat="49.75454" lon="4.82855">
        <ele>205</ele>
        <time>2020-10-31T10:00:33.000Z</time>
      </trkpt>
      <trkpt lat="49.75453" lon="4.82857">
        <ele>206</ele>
        <time>2020-10-31T10:00:34.000Z</time>
      </trkpt>
      <trkpt lat="49.75453" lon="4.8286">
        <ele>206</ele>
        <time>2020-10-31T10:00:35.000Z</time>
      </trkpt>
      <trkpt lat="49.75453" lon="4.82864">
        <ele>206</ele>
        <time>2020-10-31T10:00:36.000Z</time>
      </trkpt>
      <trkpt lat="49.75453" lon="4.82868">
        <ele>206</ele>
        <time>2020-10-31T10:00:37.000Z</time>
      </trkpt>
      <trkpt lat="49.75453" lon="4.82873">
        <ele>205</ele>
        <time>2020-10-31T10:00:38.000Z</time>
      </trkpt>
      <trkpt lat="49.75454" lon="4.82879">
        <ele>205</ele>
        <time>2020-10-31T10:00:39.000Z</time>
      </trkpt>
      <trkpt lat="49.75456" lon="4.82886">
        <ele>205</ele>
        <time>2020-10-31T10:00:40.000Z</time>
      </trkpt>
      <trkpt lat="49.75458" lon="4.82893">
        <ele>205</ele>
        <time>2020-10-31T10:00:41.000Z</time>
      </trkpt>
      <trkpt lat="49.7546" lon="4.82902">
        <ele>204</ele>
        <time>2020-10-31T10:00:42.000Z</time>
      </trkpt>
      <trkpt lat="49.75463" lon="4.82911">
        <ele>204</ele>
        <time>2020-10-31T10:00:43.000Z</time>
      </trkpt>
      <trkpt lat="49.75466" lon="4.8292">
        <ele>204</ele>
        <time>2020-10-31T10:00:44.000Z</time>
      </trkpt>
      <trkpt lat="49.75469" lon="4.82931">
        <ele>203</ele>
        <time>2020-10-31T10:00:45.000Z</time>
      </trkpt>
      <trkpt lat="49.75472" lon="4.82941">
        <ele>203</ele>
        <time>2020-10-31T10:00:46.000Z</time>
      </trkpt>
      <trkpt lat="49.75476" lon="4.82952">
        <ele>203</ele>
        <time>2020-10-31T10:00:47.000Z</time>
      </trkpt>
      <trkpt lat="49.75479" lon="4.82964">
        <ele>202</ele>
        <time>2020-10-31T10:00:48.000Z</time>
      </trkpt>
      <trkpt lat="49.75483" lon="4.82975">
        <ele>202</ele>
        <time>2020-10-31T10:00:49.000Z</time>
      </trkpt>
      <trkpt lat="49.75488" lon="4.82988">
        <ele>201</ele>
        <time>2020-10-31T10:00:50.000Z</time>
      </trkpt>
      <trkpt lat="49.75492" lon="4.83001">
        <ele>201</ele>
        <time>2020-10-31T10:00:51.000Z</time>
      </trkpt>
      <trkpt lat="49.75496" lon="4.83014">
        <ele>200</ele>
        <time>2020-10-31T10:00:52.000Z</time>
      </trkpt>
      <trkpt lat="49.75501" lon="4.83028">
        <ele>200</ele>
        <time>2020-10-31T10:00:53.000Z</time>
      </trkpt>
      <trkpt lat="49.75506" lon="4.83042">
        <ele>199</ele>
        <time>2020-10-31T10:00:54.000Z</time>
      </trkpt>
      <trkpt lat="49.7551" lon="4.83057">
        <ele>198</ele>
        <time>2020-10-31T10:00:55.000Z</time>
      </trkpt>
      <trkpt lat="49.75515" lon="4.83072">
        <ele>197</ele>
        <time>2020-10-31T10:00:56.000Z</time>
      </trkpt>
      <trkpt lat="49.75519" lon="4.83086">
        <ele>196</ele>
        <time>2020-10-31T10:00:57.000Z</time>
      </trkpt>
      <trkpt lat="49.75521" lon="4.83097">
        <ele>196</ele>
        <time>2020-10-31T10:00:58.000Z</time>
      </trkpt>
      <trkpt lat="49.75523" lon="4.83105">
        <ele>195</ele>
        <time>2020-10-31T10:00:59.000Z</time>
      </trkpt>
      <trkpt lat="49.75524" lon="4.8311">
        <ele>195</ele>
        <time>2020-10-31T10:01:00.000Z</time>
      </trkpt>
      <trkpt lat="49.75525" lon="4.83113">
        <ele>194</ele>
        <time>2020-10-31T10:01:01.000Z</time>
      </trkpt>
      <trkpt lat="49.75527" lon="4.83115">
        <ele>194</ele>
        <time>2020-10-31T10:01:02.000Z</time>
      </trkpt>
      <trkpt lat="49.75528" lon="4.83118">
        <ele>194</ele>
        <time>2020-10-31T10:01:03.000Z</time>
      </trkpt>
      <trkpt lat="49.75528" lon="4.83121">
        <ele>194</ele>
        <time>2020-10-31T10:01:04.000Z</time>
      </trkpt>
      <trkpt lat="49.75528" lon="4.83124">
        <ele>194</ele>
        <time>2020-10-31T10:01:05.000Z</time>
      </trkpt>
      <trkpt lat="49.75527" lon="4.83126">
        <ele>193</ele>
        <time>2020-10-31T10:01:06.000Z</time>
      </trkpt>
      <trkpt lat="49.75526" lon="4.83127">
        <ele>193</ele>
        <time>2020-10-31T10:01:07.000Z</time>
      </trkpt>
      <trkpt lat="49.75525" lon="4.83128">
        <ele>193</ele>
        <time>2020-10-31T10:01:08.000Z</time>
      </trkpt>
      <trkpt lat="49.75524" lon="4.83129">
        <ele>193</ele>
        <time>2020-10-31T10:01:09.000Z</time>
      </trkpt>
      <trkpt lat="49.75522" lon="4.8313">
        <ele>193</ele>
        <time>2020-10-31T10:01:10.000Z</time>
      </trkpt>
      <trkpt lat="49.75519" lon="4.83131">
        <ele>193</ele>
        <time>2020-10-31T10:01:11.000Z</time>
      </trkpt>
      <trkpt lat="49.75517" lon="4.83133">
        <ele>193</ele>
        <time>2020-10-31T10:01:12.000Z</time>
      </trkpt>
      <trkpt lat="49.75514" lon="4.83134">
        <ele>193</ele>
        <time>2020-10-31T10:01:13.000Z</time>
      </trkpt>
      <trkpt lat="49.7551" lon="4.83135">
        <ele>193</ele>
        <time>2020-10-31T10:01:14.000Z</time>
      </trkpt>
      <trkpt lat="49.75507" lon="4.83137">
        <ele>193</ele>
        <time>2020-10-31T10:01:15.000Z</time>
      </trkpt>
      <trkpt lat="49.75504" lon="4.83138">
        <ele>193</ele>
        <time>2020-10-31T10:01:16.000Z</time>
      </trkpt>
      <trkpt lat="49.755" lon="4.8314">
        <ele>193</ele>
        <time>2020-10-31T10:01:17.000Z</time>
      </trkpt>
      <trkpt lat="49.75497" lon="4.83141">
        <ele>193</ele>
        <time>2020-10-31T10:01:18.000Z</time>
      </trkpt>
      <trkpt lat="49.75493" lon="4.83143">
        <ele>193</ele>
        <time>2020-10-31T10:01:19.000Z</time>
      </trkpt>
      <trkpt lat="49.75489" lon="4.83144">
        <ele>193</ele>
        <time>2020-10-31T10:01:20.000Z</time>
      </trkpt>
      <trkpt lat="49.75486" lon="4.83145">
        <ele>193</ele>
        <time>2020-10-31T10:01:21.000Z</time>
      </trkpt>
      <trkpt lat="49.75482" lon="4.83146">
        <ele>193</ele>
        <time>2020-10-31T10:01:22.000Z</time>
      </trkpt>
      <trkpt lat="49.75478" lon="4.83147">
        <ele>193</ele>
        <time>2020-10-31T10:01:23.000Z</time>
      </trkpt>
      <trkpt lat="49.75474" lon="4.83148">
        <ele>193</ele>
        <time>2020-10-31T10:01:24.000Z</time>
      </trkpt>
      <trkpt lat="49.7547" lon="4.83149">
        <ele>193</ele>
        <time>2020-10-31T10:01:25.000Z</time>
      </trkpt>
      <trkpt lat="49.75466" lon="4.8315">
        <ele>193</ele>
        <time>2020-10-31T10:01:26.000Z</time>
      </trkpt>
      <trkpt lat="49.75463" lon="4.83152">
        <ele>193</ele>
        <time>2020-10-31T10:01:27.000Z</time>
      </trkpt>
      <trkpt lat="49.75459" lon="4.83153">
        <ele>193</ele>
        <time>2020-10-31T10:01:28.000Z</time>
      </trkpt>
      <trkpt lat="49.75456" lon="4.83154">
        <ele>193</ele>
        <time>2020-10-31T10:01:29.000Z</time>
      </trkpt>
      <trkpt lat="49.75452" lon="4.83155">
        <ele>193</ele>
        <time>2020-10-31T10:01:30.000Z</time>
      </trkpt>
      <trkpt lat="49.75449" lon="4.83156">
        <ele>193</ele>
        <time>2020-10-31T10:01:31.000Z</time>
      </trkpt>
      <trkpt lat="49.75445" lon="4.83157">
        <ele>193</ele>
        <time>2020-10-31T10:01:32.000Z</time>
      </trkpt>
      <trkpt lat="49.75442" lon="4.83158">
        <ele>193</ele>
        <time>2020-10-31T10:01:33.000Z</time>
      </trkpt>
      <trkpt lat="49.75439" lon="4.83159">
        <ele>193</ele>
        <time>2020-10-31T10:01:34.000Z</time>
      </trkpt>
      <trkpt lat="49.75436" lon="4.8316">
        <ele>193</ele>
        <time>2020-10-31T10:01:35.000Z</time>
      </trkpt>
      <trkpt lat="49.75432" lon="4.83161">
        <ele>193</ele>
        <time>2020-10-31T10:01:36.000Z</time>
      </trkpt>
      <trkpt lat="49.75429" lon="4.83162">
        <ele>193</ele>
        <time>2020-10-31T10:01:37.000Z</time>
      </trkpt>
      <trkpt lat="49.75426" lon="4.83163">
        <ele>193</ele>
        <time>2020-10-31T10:01:38.000Z</time>
      </trkpt>
      <trkpt lat="49.75423" lon="4.83164">
        <ele>193</ele>
        <time>2020-10-31T10:01:39.000Z</time>
      </trkpt>
      <trkpt lat="49.7542" lon="4.83164">
        <ele>193</ele>
        <time>2020-10-31T10:01:40.000Z</time>
      </trkpt>
      <trkpt lat="49.75417" lon="4.83165">
        <ele>193</ele>
        <time>2020-10-31T10:01:41.000Z</time>
      </trkpt>
      <trkpt lat="49.75413" lon="4.83165">
        <ele>193</ele>
        <time>2020-10-31T10:01:42.000Z</time>
      </trkpt>
      <trkpt lat="49.7541" lon="4.83165">
        <ele>193</ele>
        <time>2020-10-31T10:01:43.000Z</time>
      </trkpt>
      <trkpt lat="49.75406" lon="4.83166">
        <ele>193</ele>
        <time>2020-10-31T10:01:44.000Z</time>
      </trkpt>
      <trkpt lat="49.75403" lon="4.83166">
        <ele>194</ele>
        <time>2020-10-31T10:01:45.000Z</time>
      </trkpt>
      <trkpt lat="49.754" lon="4.83167">
        <ele>194</ele>
        <time>2020-10-31T10:01:46.000Z</time>
      </trkpt>
      <trkpt lat="49.75396" lon="4.83168">
        <ele>194</ele>
        <time>2020-10-31T10:01:47.000Z</time>
      </trkpt>
      <trkpt lat="49.75393" lon="4.83168">
        <ele>194</ele>
        <time>2020-10-31T10:01:48.000Z</time>
      </trkpt>
      <trkpt lat="49.7539" lon="4.83169">
        <ele>194</ele>
        <time>2020-10-31T10:01:49.000Z</time>
      </trkpt>
      <trkpt lat="49.75386" lon="4.8317">
        <ele>194</ele>
        <time>2020-10-31T10:01:50.000Z</time>
      </trkpt>
      <trkpt lat="49.75383" lon="4.83171">
        <ele>194</ele>
        <time>2020-10-31T10:01:51.000Z</time>
      </trkpt>
      <trkpt lat="49.75379" lon="4.83171">
        <ele>194</ele>
        <time>2020-10-31T10:01:52.000Z</time>
      </trkpt>
      <trkpt lat="49.75375" lon="4.83172">
        <ele>194</ele>
        <time>2020-10-31T10:01:53.000Z</time>
      </trkpt>
      <trkpt lat="49.75372" lon="4.83172">
        <ele>194</ele>
        <time>2020-10-31T10:01:54.000Z</time>
      </trkpt>
      <trkpt lat="49.75369" lon="4.83173">
        <ele>194</ele>
        <time>2020-10-31T10:01:55.000Z</time>
      </trkpt>
      <trkpt lat="49.75365" lon="4.83174">
        <ele>194</ele>
        <time>2020-10-31T10:01:56.000Z</time>
      </trkpt>
      <trkpt lat="49.75361" lon="4.83175">
        <ele>194</ele>
        <time>2020-10-31T10:01:57.000Z</time>
      </trkpt>
      <trkpt lat="49.75357" lon="4.83175">
        <ele>194</ele>
        <time>2020-10-31T10:01:58.000Z</time>
      </trkpt>
      <trkpt lat="49.75354" lon="4.83175">
        <ele>194</ele>
        <time>2020-10-31T10:01:59.000Z</time>
      </trkpt>
      <trkpt lat="49.7535" lon="4.83175">
        <ele>195</ele>
        <time>2020-10-31T10:02:00.000Z</time>
      </trkpt>
      <trkpt lat="49.75346" lon="4.83175">
        <ele>195</ele>
        <time>2020-10-31T10:02:01.000Z</time>
      </trkpt>
      <trkpt lat="49.75342" lon="4.83175">
        <ele>195</ele>
        <time>2020-10-31T10:02:02.000Z</time>
      </trkpt>
      <trkpt lat="49.75338" lon="4.83176">
        <ele>195</ele>
        <time>2020-10-31T10:02:03.000Z</time>
      </trkpt>
      <trkpt lat="49.75335" lon="4.83176">
        <ele>195</ele>
        <time>2020-10-31T10:02:04.000Z</time>
      </trkpt>
      <trkpt lat="49.75331" lon="4.83176">
        <ele>195</ele>
        <time>2020-10-31T10:02:05.000Z</time>
      </trkpt>
      <trkpt lat="49.75327" lon="4.83176">
        <ele>196</ele>
        <time>2020-10-31T10:02:06.000Z</time>
      </trkpt>
      <trkpt lat="49.75323" lon="4.83176">
        <ele>196</ele>
        <time>2020-10-31T10:02:07.000Z</time>
      </trkpt>
      <trkpt lat="49.75319" lon="4.83175">
        <ele>196</ele>
        <time>2020-10-31T10:02:08.000Z</time>
      </trkpt>
      <trkpt lat="49.75316" lon="4.83175">
        <ele>196</ele>
        <time>2020-10-31T10:02:09.000Z</time>
      </trkpt>
      <trkpt lat="49.75312" lon="4.83175">
        <ele>196</ele>
        <time>2020-10-31T10:02:10.000Z</time>
      </trkpt>
      <trkpt lat="49.75309" lon="4.83176">
        <ele>196</ele>
        <time>2020-10-31T10:02:11.000Z</time>
      </trkpt>
      <trkpt lat="49.75306" lon="4.83176">
        <ele>196</ele>
        <time>2020-10-31T10:02:12.000Z</time>
      </trkpt>
      <trkpt lat="49.75302" lon="4.83176">
        <ele>197</ele>
        <time>2020-10-31T10:02:13.000Z</time>
      </trkpt>
      <trkpt lat="49.75299" lon="4.83176">
        <ele>197</ele>
        <time>2020-10-31T10:02:14.000Z</time>
      </trkpt>
      <trkpt lat="49.75296" lon="4.83176">
        <ele>197</ele>
        <time>2020-10-31T10:02:15.000Z</time>
      </trkpt>
      <trkpt lat="49.75293" lon="4.83177">
        <ele>197</ele>
        <time>2020-10-31T10:02:16.000Z</time>
      </trkpt>
      <trkpt lat="49.75289" lon="4.83177">
        <ele>197</ele>
        <time>2020-10-31T10:02:17.000Z</time>
      </trkpt>
      <trkpt lat="49.75286" lon="4.83177">
        <ele>197</ele>
        <time>2020-10-31T10:02:18.000Z</time>
      </trkpt>
      <trkpt lat="49.75283" lon="4.83177">
        <ele>197</ele>
        <time>2020-10-31T10:02:19.000Z</time>
      </trkpt>
      <trkpt lat="49.75279" lon="4.83177">
        <ele>197</ele>
        <time>2020-10-31T10:02:20.000Z</time>
      </trkpt>
      <trkpt lat="49.75276" lon="4.83177">
        <ele>198</ele>
        <time>2020-10-31T10:02:21.000Z</time>
      </trkpt>
      <trkpt lat="49.75273" lon="4.83177">
        <ele>198</ele>
        <time>2020-10-31T10:02:22.000Z</time>
      </trkpt>
      <trkpt lat="49.7527" lon="4.83177">
        <ele>198</ele>
        <time>2020-10-31T10:02:23.000Z</time>
      </trkpt>
      <trkpt lat="49.75267" lon="4.83178">
        <ele>198</ele>
        <time>2020-10-31T10:02:24.000Z</time>
      </trkpt>
      <trkpt lat="49.75264" lon="4.83178">
        <ele>198</ele>
        <time>2020-10-31T10:02:25.000Z</time>
      </trkpt>
      <trkpt lat="49.75261" lon="4.83178">
        <ele>198</ele>
        <time>2020-10-31T10:02:26.000Z</time>
      </trkpt>
      <trkpt lat="49.75258" lon="4.83178">
        <ele>198</ele>
        <time>2020-10-31T10:02:27.000Z</time>
      </trkpt>
      <trkpt lat="49.75255" lon="4.83178">
        <ele>198</ele>
        <time>2020-10-31T10:02:28.000Z</time>
      </trkpt>
      <trkpt lat="49.75252" lon="4.83178">
        <ele>198</ele>
        <time>2020-10-31T10:02:29.000Z</time>
      </trkpt>
      <trkpt lat="49.7525" lon="4.83178">
        <ele>198</ele>
        <time>2020-10-31T10:02:30.000Z</time>
      </trkpt>
      <trkpt lat="49.75247" lon="4.83177">
        <ele>199</ele>
        <time>2020-10-31T10:02:31.000Z</time>
      </trkpt>
      <trkpt lat="49.75244" lon="4.83177">
        <ele>199</ele>
        <time>2020-10-31T10:02:32.000Z</time>
      </trkpt>
      <trkpt lat="49.75241" lon="4.83177">
        <ele>199</ele>
        <time>2020-10-31T10:02:33.000Z</time>
      </trkpt>
      <trkpt lat="49.75237" lon="4.83178">
        <ele>199</ele>
        <time>2020-10-31T10:02:34.000Z</time>
      </trkpt>
      <trkpt lat="49.75234" lon="4.83179">
        <ele>199</ele>
        <time>2020-10-31T10:02:35.000Z</time>
      </trkpt>
      <trkpt lat="49.75231" lon="4.83181">
        <ele>199</ele>
        <time>2020-10-31T10:02:36.000Z</time>
      </trkpt>
      <trkpt lat="49.75227" lon="4.83182">
        <ele>200</ele>
        <time>2020-10-31T10:02:37.000Z</time>
      </trkpt>
      <trkpt lat="49.75224" lon="4.83183">
        <ele>200</ele>
        <time>2020-10-31T10:02:38.000Z</time>
      </trkpt>
      <trkpt lat="49.75221" lon="4.83184">
        <ele>200</ele>
        <time>2020-10-31T10:02:39.000Z</time>
      </trkpt>
      <trkpt lat="49.75217" lon="4.83185">
        <ele>200</ele>
        <time>2020-10-31T10:02:40.000Z</time>
      </trkpt>
      <trkpt lat="49.75214" lon="4.83186">
        <ele>200</ele>
        <time>2020-10-31T10:02:41.000Z</time>
      </trkpt>
      <trkpt lat="49.75211" lon="4.83187">
        <ele>200</ele>
        <time>2020-10-31T10:02:42.000Z</time>
      </trkpt>
      <trkpt lat="49.75207" lon="4.83188">
        <ele>200</ele>
        <time>2020-10-31T10:02:43.000Z</time>
      </trkpt>
      <trkpt lat="49.75204" lon="4.83189">
        <ele>200</ele>
        <time>2020-10-31T10:02:44.000Z</time>
      </trkpt>
      <trkpt lat="49.75201" lon="4.8319">
        <ele>200</ele>
        <time>2020-10-31T10:02:45.000Z</time>
      </trkpt>
      <trkpt lat="49.75198" lon="4.83191">
        <ele>201</ele>
        <time>2020-10-31T10:02:46.000Z</time>
      </trkpt>
      <trkpt lat="49.75194" lon="4.83192">
        <ele>201</ele>
        <time>2020-10-31T10:02:47.000Z</time>
      </trkpt>
      <trkpt lat="49.75191" lon="4.83193">
        <ele>201</ele>
        <time>2020-10-31T10:02:48.000Z</time>
      </trkpt>
      <trkpt lat="49.75188" lon="4.83194">
        <ele>201</ele>
        <time>2020-10-31T10:02:49.000Z</time>
      </trkpt>
      <trkpt lat="49.75185" lon="4.83195">
        <ele>201</ele>
        <time>2020-10-31T10:02:50.000Z</time>
      </trkpt>
      <trkpt lat="49.75182" lon="4.83196">
        <ele>201</ele>
        <time>2020-10-31T10:02:51.000Z</time>
      </trkpt>
      <trkpt lat="49.75179" lon="4.83197">
        <ele>201</ele>
        <time>2020-10-31T10:02:52.000Z</time>
      </trkpt>
      <trkpt lat="49.75176" lon="4.83198">
        <ele>201</ele>
        <time>2020-10-31T10:02:53.000Z</time>
      </trkpt>
      <trkpt lat="49.75173" lon="4.83199">
        <ele>201</ele>
        <time>2020-10-31T10:02:54.000Z</time>
      </trkpt>
      <trkpt lat="49.7517" lon="4.832">
        <ele>201</ele>
        <time>2020-10-31T10:02:55.000Z</time>
      </trkpt>
      <trkpt lat="49.75167" lon="4.832">
        <ele>201</ele>
        <time>2020-10-31T10:02:56.000Z</time>
      </trkpt>
      <trkpt lat="49.75164" lon="4.83201">
        <ele>201</ele>
        <time>2020-10-31T10:02:57.000Z</time>
      </trkpt>
      <trkpt lat="49.75161" lon="4.83202">
        <ele>201</ele>
        <time>2020-10-31T10:02:58.000Z</time>
      </trkpt>
      <trkpt lat="49.75158" lon="4.83203">
        <ele>201</ele>
        <time>2020-10-31T10:02:59.000Z</time>
      </trkpt>
      <trkpt lat="49.75156" lon="4.83204">
        <ele>201</ele>
        <time>2020-10-31T10:03:00.000Z</time>
      </trkpt>
      <trkpt lat="49.75153" lon="4.83205">
        <ele>201</ele>
        <time>2020-10-31T10:03:01.000Z</time>
      </trkpt>
      <trkpt lat="49.7515" lon="4.83206">
        <ele>201</ele>
        <time>2020-10-31T10:03:02.000Z</time>
      </trkpt>
      <trkpt lat="49.75147" lon="4.83207">
        <ele>201</ele>
        <time>2020-10-31T10:03:03.000Z</time>
      </trkpt>
      <trkpt lat="49.75144" lon="4.83208">
        <ele>201</ele>
        <time>2020-10-31T10:03:04.000Z</time>
      </trkpt>
      <trkpt lat="49.75141" lon="4.83209">
        <ele>202</ele>
        <time>2020-10-31T10:03:05.000Z</time>
      </trkpt>
      <trkpt lat="49.75139" lon="4.8321">
        <ele>202</ele>
        <time>2020-10-31T10:03:06.000Z</time>
      </trkpt>
      <trkpt lat="49.75136" lon="4.8321">
        <ele>202</ele>
        <time>2020-10-31T10:03:07.000Z</time>
      </trkpt>
      <trkpt lat="49.75133" lon="4.83211">
        <ele>202</ele>
        <time>2020-10-31T10:03:08.000Z</time>
      </trkpt>
      <trkpt lat="49.75131" lon="4.83212">
        <ele>202</ele>
        <time>2020-10-31T10:03:09.000Z</time>
      </trkpt>
      <trkpt lat="49.75128" lon="4.83212">
        <ele>202</ele>
        <time>2020-10-31T10:03:10.000Z</time>
      </trkpt>
      <trkpt lat="49.75125" lon="4.83213">
        <ele>202</ele>
        <time>2020-10-31T10:03:11.000Z</time>
      </trkpt>
      <trkpt lat="49.75122" lon="4.83214">
        <ele>202</ele>
        <time>2020-10-31T10:03:12.000Z</time>
      </trkpt>
      <trkpt lat="49.75119" lon="4.83215">
        <ele>203</ele>
        <time>2020-10-31T10:03:13.000Z</time>
      </trkpt>
      <trkpt lat="49.75116" lon="4.83216">
        <ele>203</ele>
        <time>2020-10-31T10:03:14.000Z</time>
      </trkpt>
      <trkpt lat="49.75113" lon="4.83217">
        <ele>203</ele>
        <time>2020-10-31T10:03:15.000Z</time>
      </trkpt>
      <trkpt lat="49.7511" lon="4.83217">
        <ele>203</ele>
        <time>2020-10-31T10:03:16.000Z</time>
      </trkpt>
      <trkpt lat="49.75107" lon="4.83217">
        <ele>203</ele>
        <time>2020-10-31T10:03:17.000Z</time>
      </trkpt>
      <trkpt lat="49.75103" lon="4.83218">
        <ele>203</ele>
        <time>2020-10-31T10:03:18.000Z</time>
      </trkpt>
      <trkpt lat="49.751" lon="4.83219">
        <ele>203</ele>
        <time>2020-10-31T10:03:19.000Z</time>
      </trkpt>
      <trkpt lat="49.75096" lon="4.8322">
        <ele>203</ele>
        <time>2020-10-31T10:03:20.000Z</time>
      </trkpt>
      <trkpt lat="49.75093" lon="4.83221">
        <ele>203</ele>
        <time>2020-10-31T10:03:21.000Z</time>
      </trkpt>
      <trkpt lat="49.75089" lon="4.83221">
        <ele>203</ele>
        <time>2020-10-31T10:03:22.000Z</time>
      </trkpt>
      <trkpt lat="49.75086" lon="4.83222">
        <ele>203</ele>
        <time>2020-10-31T10:03:23.000Z</time>
      </trkpt>
      <trkpt lat="49.75082" lon="4.83223">
        <ele>203</ele>
        <time>2020-10-31T10:03:24.000Z</time>
      </trkpt>
      <trkpt lat="49.75079" lon="4.83225">
        <ele>204</ele>
        <time>2020-10-31T10:03:25.000Z</time>
      </trkpt>
      <trkpt lat="49.75075" lon="4.83226">
        <ele>204</ele>
        <time>2020-10-31T10:03:26.000Z</time>
      </trkpt>
      <trkpt lat="49.75072" lon="4.83227">
        <ele>204</ele>
        <time>2020-10-31T10:03:27.000Z</time>
      </trkpt>
      <trkpt lat="49.75069" lon="4.83228">
        <ele>204</ele>
        <time>2020-10-31T10:03:28.000Z</time>
      </trkpt>
      <trkpt lat="49.75065" lon="4.83228">
        <ele>204</ele>
        <time>2020-10-31T10:03:29.000Z</time>
      </trkpt>
      <trkpt lat="49.75061" lon="4.8323">
        <ele>204</ele>
        <time>2020-10-31T10:03:30.000Z</time>
      </trkpt>
      <trkpt lat="49.75058" lon="4.83231">
        <ele>205</ele>
        <time>2020-10-31T10:03:31.000Z</time>
      </trkpt>
      <trkpt lat="49.75054" lon="4.83232">
        <ele>205</ele>
        <time>2020-10-31T10:03:32.000Z</time>
      </trkpt>
      <trkpt lat="49.75051" lon="4.83233">
        <ele>205</ele>
        <time>2020-10-31T10:03:33.000Z</time>
      </trkpt>
      <trkpt lat="49.75047" lon="4.83234">
        <ele>205</ele>
        <time>2020-10-31T10:03:34.000Z</time>
      </trkpt>
      <trkpt lat="49.75044" lon="4.83236">
        <ele>205</ele>
        <time>2020-10-31T10:03:35.000Z</time>
      </trkpt>
      <trkpt lat="49.7504" lon="4.83237">
        <ele>205</ele>
        <time>2020-10-31T10:03:36.000Z</time>
      </trkpt>
      <trkpt lat="49.75037" lon="4.83237">
        <ele>205</ele>
        <time>2020-10-31T10:03:37.000Z</time>
      </trkpt>
      <trkpt lat="49.75033" lon="4.83237">
        <ele>205</ele>
        <time>2020-10-31T10:03:38.000Z</time>
      </trkpt>
      <trkpt lat="49.7503" lon="4.83237">
        <ele>206</ele>
        <time>2020-10-31T10:03:39.000Z</time>
      </trkpt>
      <trkpt lat="49.75027" lon="4.83238">
        <ele>206</ele>
        <time>2020-10-31T10:03:40.000Z</time>
      </trkpt>
      <trkpt lat="49.75024" lon="4.83239">
        <ele>206</ele>
        <time>2020-10-31T10:03:41.000Z</time>
      </trkpt>
      <trkpt lat="49.75022" lon="4.83241">
        <ele>206</ele>
        <time>2020-10-31T10:03:42.000Z</time>
      </trkpt>
      <trkpt lat="49.7502" lon="4.83243">
        <ele>206</ele>
        <time>2020-10-31T10:03:43.000Z</time>
      </trkpt>
      <trkpt lat="49.75018" lon="4.83246">
        <ele>206</ele>
        <time>2020-10-31T10:03:44.000Z</time>
      </trkpt>
      <trkpt lat="49.75018" lon="4.83249">
        <ele>206</ele>
        <time>2020-10-31T10:03:45.000Z</time>
      </trkpt>
      <trkpt lat="49.75018" lon="4.83252">
        <ele>207</ele>
        <time>2020-10-31T10:03:46.000Z</time>
      </trkpt>
      <trkpt lat="49.75019" lon="4.83255">
        <ele>207</ele>
        <time>2020-10-31T10:03:47.000Z</time>
      </trkpt>
      <trkpt lat="49.75019" lon="4.83258">
        <ele>207</ele>
        <time>2020-10-31T10:03:48.000Z</time>
      </trkpt>
      <trkpt lat="49.7502" lon="4.83261">
        <ele>207</ele>
        <time>2020-10-31T10:03:49.000Z</time>
      </trkpt>
      <trkpt lat="49.75022" lon="4.83263">
        <ele>207</ele>
        <time>2020-10-31T10:03:50.000Z</time>
      </trkpt>
      <trkpt lat="49.75023" lon="4.83266">
        <ele>207</ele>
        <time>2020-10-31T10:03:51.000Z</time>
      </trkpt>
      <trkpt lat="49.75025" lon="4.83268">
        <ele>207</ele>
        <time>2020-10-31T10:03:52.000Z</time>
      </trkpt>
      <trkpt lat="49.75026" lon="4.83269">
        <ele>207</ele>
        <time>2020-10-31T10:03:53.000Z</time>
      </trkpt>
      <trkpt lat="49.75027" lon="4.8327">
        <ele>207</ele>
        <time>2020-10-31T10:03:54.000Z</time>
      </trkpt>
      <trkpt lat="49.75028" lon="4.83271">
        <ele>207</ele>
        <time>2020-10-31T10:03:55.000Z</time>
      </trkpt>
      <trkpt lat="49.7503" lon="4.83273">
        <ele>207</ele>
        <time>2020-10-31T10:03:56.000Z</time>
      </trkpt>
      <trkpt lat="49.75031" lon="4.83274">
        <ele>207</ele>
        <time>2020-10-31T10:03:57.000Z</time>
      </trkpt>
      <trkpt lat="49.75032" lon="4.83276">
        <ele>207</ele>
        <time>2020-10-31T10:03:58.000Z</time>
      </trkpt>
      <trkpt lat="49.75034" lon="4.83278">
        <ele>207</ele>
        <time>2020-10-31T10:03:59.000Z</time>
      </trkpt>
      <trkpt lat="49.75035" lon="4.83281">
        <ele>207</ele>
        <time>2020-10-31T10:04:00.000Z</time>
      </trkpt>
      <trkpt lat="49.75036" lon="4.83283">
        <ele>208</ele>
        <time>2020-10-31T10:04:01.000Z</time>
      </trkpt>
      <trkpt lat="49.75037" lon="4.83286">
        <ele>208</ele>
        <time>2020-10-31T10:04:02.000Z</time>
      </trkpt>
      <trkpt lat="49.75037" lon="4.83289">
        <ele>208</ele>
        <time>2020-10-31T10:04:03.000Z</time>
      </trkpt>
      <trkpt lat="49.75038" lon="4.83292">
        <ele>208</ele>
        <time>2020-10-31T10:04:04.000Z</time>
      </trkpt>
      <trkpt lat="49.75038" lon="4.83295">
        <ele>208</ele>
        <time>2020-10-31T10:04:05.000Z</time>
      </trkpt>
      <trkpt lat="49.75038" lon="4.83298">
        <ele>208</ele>
        <time>2020-10-31T10:04:06.000Z</time>
      </trkpt>
      <trkpt lat="49.75038" lon="4.833">
        <ele>209</ele>
        <time>2020-10-31T10:04:07.000Z</time>
      </trkpt>
      <trkpt lat="49.75038" lon="4.83303">
        <ele>209</ele>
        <time>2020-10-31T10:04:08.000Z</time>
      </trkpt>
      <trkpt lat="49.75039" lon="4.83306">
        <ele>209</ele>
        <time>2020-10-31T10:04:09.000Z</time>
      </trkpt>
      <trkpt lat="49.75039" lon="4.83309">
        <ele>209</ele>
        <time>2020-10-31T10:04:10.000Z</time>
      </trkpt>
      <trkpt lat="49.75039" lon="4.83312">
        <ele>209</ele>
        <time>2020-10-31T10:04:11.000Z</time>
      </trkpt>
      <trkpt lat="49.7504" lon="4.83315">
        <ele>210</ele>
        <time>2020-10-31T10:04:12.000Z</time>
      </trkpt>
      <trkpt lat="49.7504" lon="4.83319">
        <ele>210</ele>
        <time>2020-10-31T10:04:13.000Z</time>
      </trkpt>
      <trkpt lat="49.7504" lon="4.83322">
        <ele>210</ele>
        <time>2020-10-31T10:04:14.000Z</time>
      </trkpt>
      <trkpt lat="49.75041" lon="4.83325">
        <ele>211</ele>
        <time>2020-10-31T10:04:15.000Z</time>
      </trkpt>
      <trkpt lat="49.75041" lon="4.83329">
        <ele>211</ele>
        <time>2020-10-31T10:04:16.000Z</time>
      </trkpt>
      <trkpt lat="49.75041" lon="4.83332">
        <ele>211</ele>
        <time>2020-10-31T10:04:17.000Z</time>
      </trkpt>
      <trkpt lat="49.75042" lon="4.83335">
        <ele>212</ele>
        <time>2020-10-31T10:04:18.000Z</time>
      </trkpt>
      <trkpt lat="49.75042" lon="4.83338">
        <ele>212</ele>
        <time>2020-10-31T10:04:19.000Z</time>
      </trkpt>
      <trkpt lat="49.75043" lon="4.83341">
        <ele>213</ele>
        <time>2020-10-31T10:04:20.000Z</time>
      </trkpt>
      <trkpt lat="49.75043" lon="4.83345">
        <ele>213</ele>
        <time>2020-10-31T10:04:21.000Z</time>
      </trkpt>
      <trkpt lat="49.75043" lon="4.83348">
        <ele>213</ele>
        <time>2020-10-31T10:04:22.000Z</time>
      </trkpt>
      <trkpt lat="49.75044" lon="4.83351">
        <ele>214</ele>
        <time>2020-10-31T10:04:23.000Z</time>
      </trkpt>
      <trkpt lat="49.75044" lon="4.83354">
        <ele>214</ele>
        <time>2020-10-31T10:04:24.000Z</time>
      </trkpt>
      <trkpt lat="49.75045" lon="4.83358">
        <ele>214</ele>
        <time>2020-10-31T10:04:25.000Z</time>
      </trkpt>
      <trkpt lat="49.75045" lon="4.83361">
        <ele>215</ele>
        <time>2020-10-31T10:04:26.000Z</time>
      </trkpt>
      <trkpt lat="49.75046" lon="4.83365">
        <ele>215</ele>
        <time>2020-10-31T10:04:27.000Z</time>
      </trkpt>
      <trkpt lat="49.75047" lon="4.83368">
        <ele>216</ele>
        <time>2020-10-31T10:04:28.000Z</time>
      </trkpt>
      <trkpt lat="49.75047" lon="4.83371">
        <ele>216</ele>
        <time>2020-10-31T10:04:29.000Z</time>
      </trkpt>
      <trkpt lat="49.75048" lon="4.83375">
        <ele>216</ele>
        <time>2020-10-31T10:04:30.000Z</time>
      </trkpt>
      <trkpt lat="49.75048" lon="4.83378">
        <ele>217</ele>
        <time>2020-10-31T10:04:31.000Z</time>
      </trkpt>
      <trkpt lat="49.75049" lon="4.83381">
        <ele>217</ele>
        <time>2020-10-31T10:04:32.000Z</time>
      </trkpt>
      <trkpt lat="49.7505" lon="4.83385">
        <ele>217</ele>
        <time>2020-10-31T10:04:33.000Z</time>
      </trkpt>
      <trkpt lat="49.7505" lon="4.83388">
        <ele>218</ele>
        <time>2020-10-31T10:04:34.000Z</time>
      </trkpt>
      <trkpt lat="49.75051" lon="4.83392">
        <ele>218</ele>
        <time>2020-10-31T10:04:35.000Z</time>
      </trkpt>
      <trkpt lat="49.75051" lon="4.83395">
        <ele>219</ele>
        <time>2020-10-31T10:04:36.000Z</time>
      </trkpt>
      <trkpt lat="49.75052" lon="4.83398">
        <ele>219</ele>
        <time>2020-10-31T10:04:37.000Z</time>
      </trkpt>
      <trkpt lat="49.75052" lon="4.83401">
        <ele>219</ele>
        <time>2020-10-31T10:04:38.000Z</time>
      </trkpt>
      <trkpt lat="49.75052" lon="4.83404">
        <ele>220</ele>
        <time>2020-10-31T10:04:39.000Z</time>
      </trkpt>
      <trkpt lat="49.75053" lon="4.83408">
        <ele>220</ele>
        <time>2020-10-31T10:04:40.000Z</time>
      </trkpt>
      <trkpt lat="49.75054" lon="4.83411">
        <ele>220</ele>
        <time>2020-10-31T10:04:41.000Z</time>
      </trkpt>
      <trkpt lat="49.75054" lon="4.83414">
        <ele>221</ele>
        <time>2020-10-31T10:04:42.000Z</time>
      </trkpt>
      <trkpt lat="49.75054" lon="4.83417">
        <ele>221</ele>
        <time>2020-10-31T10:04:43.000Z</time>
      </trkpt>
      <trkpt lat="49.75054" lon="4.8342">
        <ele>222</ele>
        <time>2020-10-31T10:04:44.000Z</time>
      </trkpt>
      <trkpt lat="49.75054" lon="4.83423">
        <ele>222</ele>
        <time>2020-10-31T10:04:45.000Z</time>
      </trkpt>
      <trkpt lat="49.75055" lon="4.83425">
        <ele>222</ele>
        <time>2020-10-31T10:04:46.000Z</time>
      </trkpt>
      <trkpt lat="49.75055" lon="4.83428">
        <ele>223</ele>
        <time>2020-10-31T10:04:47.000Z</time>
      </trkpt>
      <trkpt lat="49.75056" lon="4.83431">
        <ele>223</ele>
        <time>2020-10-31T10:04:48.000Z</time>
      </trkpt>
      <trkpt lat="49.75057" lon="4.83434">
        <ele>224</ele>
        <time>2020-10-31T10:04:49.000Z</time>
      </trkpt>
      <trkpt lat="49.75057" lon="4.83437">
        <ele>224</ele>
        <time>2020-10-31T10:04:50.000Z</time>
      </trkpt>
      <trkpt lat="49.75057" lon="4.83441">
        <ele>225</ele>
        <time>2020-10-31T10:04:51.000Z</time>
      </trkpt>
      <trkpt lat="49.75058" lon="4.83444">
        <ele>225</ele>
        <time>2020-10-31T10:04:52.000Z</time>
      </trkpt>
      <trkpt lat="49.75058" lon="4.83447">
        <ele>226</ele>
        <time>2020-10-31T10:04:53.000Z</time>
      </trkpt>
      <trkpt lat="49.75058" lon="4.8345">
        <ele>226</ele>
        <time>2020-10-31T10:04:54.000Z</time>
      </trkpt>
      <trkpt lat="49.75059" lon="4.83453">
        <ele>227</ele>
        <time>2020-10-31T10:04:55.000Z</time>
      </trkpt>
      <trkpt lat="49.75059" lon="4.83456">
        <ele>227</ele>
        <time>2020-10-31T10:04:56.000Z</time>
      </trkpt>
      <trkpt lat="49.7506" lon="4.83459">
        <ele>228</ele>
        <time>2020-10-31T10:04:57.000Z</time>
      </trkpt>
      <trkpt lat="49.75061" lon="4.83463">
        <ele>228</ele>
        <time>2020-10-31T10:04:58.000Z</time>
      </trkpt>
      <trkpt lat="49.75062" lon="4.83466">
        <ele>229</ele>
        <time>2020-10-31T10:04:59.000Z</time>
      </trkpt>
      <trkpt lat="49.75062" lon="4.83469">
        <ele>229</ele>
        <time>2020-10-31T10:05:00.000Z</time>
      </trkpt>
      <trkpt lat="49.75062" lon="4.83472">
        <ele>229</ele>
        <time>2020-10-31T10:05:01.000Z</time>
      </trkpt>
      <trkpt lat="49.75062" lon="4.83473">
        <ele>230</ele>
        <time>2020-10-31T10:05:02.000Z</time>
      </trkpt>
      <trkpt lat="49.75062" lon="4.83476">
        <ele>230</ele>
        <time>2020-10-31T10:05:03.000Z</time>
      </trkpt>
      <trkpt lat="49.75062" lon="4.83478">
        <ele>230</ele>
        <time>2020-10-31T10:05:04.000Z</time>
      </trkpt>
      <trkpt lat="49.75062" lon="4.83481">
        <ele>231</ele>
        <time>2020-10-31T10:05:05.000Z</time>
      </trkpt>
      <trkpt lat="49.75062" lon="4.83483">
        <ele>231</ele>
        <time>2020-10-31T10:05:06.000Z</time>
      </trkpt>
      <trkpt lat="49.75062" lon="4.83486">
        <ele>231</ele>
        <time>2020-10-31T10:05:07.000Z</time>
      </trkpt>
      <trkpt lat="49.75063" lon="4.83488">
        <ele>232</ele>
        <time>2020-10-31T10:05:08.000Z</time>
      </trkpt>
      <trkpt lat="49.75062" lon="4.83491">
        <ele>232</ele>
        <time>2020-10-31T10:05:09.000Z</time>
      </trkpt>
      <trkpt lat="49.75062" lon="4.83493">
        <ele>232</ele>
        <time>2020-10-31T10:05:10.000Z</time>
      </trkpt>
      <trkpt lat="49.75062" lon="4.83495">
        <ele>232</ele>
        <time>2020-10-31T10:05:11.000Z</time>
      </trkpt>
      <trkpt lat="49.75061" lon="4.83497">
        <ele>233</ele>
        <time>2020-10-31T10:05:12.000Z</time>
      </trkpt>
      <trkpt lat="49.75062" lon="4.835">
        <ele>233</ele>
        <time>2020-10-31T10:05:13.000Z</time>
      </trkpt>
      <trkpt lat="49.75062" lon="4.83503">
        <ele>233</ele>
        <time>2020-10-31T10:05:14.000Z</time>
      </trkpt>
      <trkpt lat="49.75062" lon="4.83505">
        <ele>233</ele>
        <time>2020-10-31T10:05:15.000Z</time>
      </trkpt>
      <trkpt lat="49.75062" lon="4.83508">
        <ele>234</ele>
        <time>2020-10-31T10:05:16.000Z</time>
      </trkpt>
      <trkpt lat="49.75062" lon="4.8351">
        <ele>234</ele>
        <time>2020-10-31T10:05:17.000Z</time>
      </trkpt>
      <trkpt lat="49.75062" lon="4.83513">
        <ele>234</ele>
        <time>2020-10-31T10:05:18.000Z</time>
      </trkpt>
      <trkpt lat="49.75061" lon="4.83516">
        <ele>234</ele>
        <time>2020-10-31T10:05:19.000Z</time>
      </trkpt>
      <trkpt lat="49.7506" lon="4.8352">
        <ele>234</ele>
        <time>2020-10-31T10:05:20.000Z</time>
      </trkpt>
      <trkpt lat="49.75059" lon="4.83523">
        <ele>234</ele>
        <time>2020-10-31T10:05:21.000Z</time>
      </trkpt>
      <trkpt lat="49.75058" lon="4.83525">
        <ele>235</ele>
        <time>2020-10-31T10:05:22.000Z</time>
      </trkpt>
      <trkpt lat="49.75056" lon="4.83527">
        <ele>235</ele>
        <time>2020-10-31T10:05:23.000Z</time>
      </trkpt>
      <trkpt lat="49.75053" lon="4.83526">
        <ele>235</ele>
        <time>2020-10-31T10:05:24.000Z</time>
      </trkpt>
      <trkpt lat="49.75051" lon="4.83526">
        <ele>235</ele>
        <time>2020-10-31T10:05:25.000Z</time>
      </trkpt>
      <trkpt lat="49.75049" lon="4.83525">
        <ele>235</ele>
        <time>2020-10-31T10:05:26.000Z</time>
      </trkpt>
      <trkpt lat="49.75047" lon="4.83524">
        <ele>235</ele>
        <time>2020-10-31T10:05:27.000Z</time>
      </trkpt>
      <trkpt lat="49.75045" lon="4.83523">
        <ele>236</ele>
        <time>2020-10-31T10:05:28.000Z</time>
      </trkpt>
      <trkpt lat="49.75043" lon="4.83522">
        <ele>236</ele>
        <time>2020-10-31T10:05:29.000Z</time>
      </trkpt>
      <trkpt lat="49.75041" lon="4.83521">
        <ele>236</ele>
        <time>2020-10-31T10:05:30.000Z</time>
      </trkpt>
      <trkpt lat="49.75039" lon="4.8352">
        <ele>236</ele>
        <time>2020-10-31T10:05:31.000Z</time>
      </trkpt>
      <trkpt lat="49.75037" lon="4.8352">
        <ele>236</ele>
        <time>2020-10-31T10:05:32.000Z</time>
      </trkpt>
      <trkpt lat="49.75035" lon="4.83519">
        <ele>236</ele>
        <time>2020-10-31T10:05:33.000Z</time>
      </trkpt>
      <trkpt lat="49.75033" lon="4.83518">
        <ele>237</ele>
        <time>2020-10-31T10:05:34.000Z</time>
      </trkpt>
      <trkpt lat="49.75031" lon="4.83519">
        <ele>237</ele>
        <time>2020-10-31T10:05:35.000Z</time>
      </trkpt>
      <trkpt lat="49.75029" lon="4.8352">
        <ele>236</ele>
        <time>2020-10-31T10:05:36.000Z</time>
      </trkpt>
      <trkpt lat="49.75026" lon="4.83521">
        <ele>236</ele>
        <time>2020-10-31T10:05:37.000Z</time>
      </trkpt>
      <trkpt lat="49.75024" lon="4.83523">
        <ele>236</ele>
        <time>2020-10-31T10:05:38.000Z</time>
      </trkpt>
      <trkpt lat="49.75023" lon="4.83526">
        <ele>236</ele>
        <time>2020-10-31T10:05:39.000Z</time>
      </trkpt>
      <trkpt lat="49.75022" lon="4.8353">
        <ele>237</ele>
        <time>2020-10-31T10:05:40.000Z</time>
      </trkpt>
      <trkpt lat="49.75022" lon="4.83533">
        <ele>237</ele>
        <time>2020-10-31T10:05:41.000Z</time>
      </trkpt>
      <trkpt lat="49.75023" lon="4.83537">
        <ele>237</ele>
        <time>2020-10-31T10:05:42.000Z</time>
      </trkpt>
      <trkpt lat="49.75024" lon="4.83542">
        <ele>237</ele>
        <time>2020-10-31T10:05:43.000Z</time>
      </trkpt>
      <trkpt lat="49.75024" lon="4.83546">
        <ele>237</ele>
        <time>2020-10-31T10:05:44.000Z</time>
      </trkpt>
      <trkpt lat="49.75025" lon="4.8355">
        <ele>237</ele>
        <time>2020-10-31T10:05:45.000Z</time>
      </trkpt>
      <trkpt lat="49.75025" lon="4.83554">
        <ele>237</ele>
        <time>2020-10-31T10:05:46.000Z</time>
      </trkpt>
      <trkpt lat="49.75026" lon="4.83559">
        <ele>237</ele>
        <time>2020-10-31T10:05:47.000Z</time>
      </trkpt>
      <trkpt lat="49.75026" lon="4.83563">
        <ele>237</ele>
        <time>2020-10-31T10:05:48.000Z</time>
      </trkpt>
      <trkpt lat="49.75027" lon="4.83568">
        <ele>237</ele>
        <time>2020-10-31T10:05:49.000Z</time>
      </trkpt>
      <trkpt lat="49.75027" lon="4.83572">
        <ele>237</ele>
        <time>2020-10-31T10:05:50.000Z</time>
      </trkpt>
      <trkpt lat="49.75028" lon="4.83576">
        <ele>237</ele>
        <time>2020-10-31T10:05:51.000Z</time>
      </trkpt>
      <trkpt lat="49.75028" lon="4.8358">
        <ele>237</ele>
        <time>2020-10-31T10:05:52.000Z</time>
      </trkpt>
      <trkpt lat="49.75029" lon="4.83585">
        <ele>237</ele>
        <time>2020-10-31T10:05:53.000Z</time>
      </trkpt>
      <trkpt lat="49.75029" lon="4.83589">
        <ele>237</ele>
        <time>2020-10-31T10:05:54.000Z</time>
      </trkpt>
      <trkpt lat="49.75029" lon="4.83593">
        <ele>237</ele>
        <time>2020-10-31T10:05:55.000Z</time>
      </trkpt>
      <trkpt lat="49.7503" lon="4.83596">
        <ele>237</ele>
        <time>2020-10-31T10:05:56.000Z</time>
      </trkpt>
      <trkpt lat="49.7503" lon="4.836">
        <ele>237</ele>
        <time>2020-10-31T10:05:57.000Z</time>
      </trkpt>
      <trkpt lat="49.75031" lon="4.83604">
        <ele>237</ele>
        <time>2020-10-31T10:05:58.000Z</time>
      </trkpt>
      <trkpt lat="49.75031" lon="4.83608">
        <ele>237</ele>
        <time>2020-10-31T10:05:59.000Z</time>
      </trkpt>
      <trkpt lat="49.75031" lon="4.83612">
        <ele>237</ele>
        <time>2020-10-31T10:06:00.000Z</time>
      </trkpt>
      <trkpt lat="49.75032" lon="4.83617">
        <ele>237</ele>
        <time>2020-10-31T10:06:01.000Z</time>
      </trkpt>
      <trkpt lat="49.75032" lon="4.83621">
        <ele>238</ele>
        <time>2020-10-31T10:06:02.000Z</time>
      </trkpt>
      <trkpt lat="49.75033" lon="4.83625">
        <ele>238</ele>
        <time>2020-10-31T10:06:03.000Z</time>
      </trkpt>
      <trkpt lat="49.75033" lon="4.83629">
        <ele>238</ele>
        <time>2020-10-31T10:06:04.000Z</time>
      </trkpt>
      <trkpt lat="49.75034" lon="4.83634">
        <ele>238</ele>
        <time>2020-10-31T10:06:05.000Z</time>
      </trkpt>
      <trkpt lat="49.75034" lon="4.83638">
        <ele>238</ele>
        <time>2020-10-31T10:06:06.000Z</time>
      </trkpt>
      <trkpt lat="49.75035" lon="4.83642">
        <ele>238</ele>
        <time>2020-10-31T10:06:07.000Z</time>
      </trkpt>
      <trkpt lat="49.75035" lon="4.83646">
        <ele>238</ele>
        <time>2020-10-31T10:06:08.000Z</time>
      </trkpt>
      <trkpt lat="49.75036" lon="4.8365">
        <ele>238</ele>
        <time>2020-10-31T10:06:09.000Z</time>
      </trkpt>
      <trkpt lat="49.75036" lon="4.83654">
        <ele>239</ele>
        <time>2020-10-31T10:06:10.000Z</time>
      </trkpt>
      <trkpt lat="49.75037" lon="4.83659">
        <ele>239</ele>
        <time>2020-10-31T10:06:11.000Z</time>
      </trkpt>
      <trkpt lat="49.75037" lon="4.83663">
        <ele>239</ele>
        <time>2020-10-31T10:06:12.000Z</time>
      </trkpt>
      <trkpt lat="49.75037" lon="4.83667">
        <ele>239</ele>
        <time>2020-10-31T10:06:13.000Z</time>
      </trkpt>
      <trkpt lat="49.75038" lon="4.83671">
        <ele>239</ele>
        <time>2020-10-31T10:06:14.000Z</time>
      </trkpt>
      <trkpt lat="49.75038" lon="4.83675">
        <ele>240</ele>
        <time>2020-10-31T10:06:15.000Z</time>
      </trkpt>
      <trkpt lat="49.75038" lon="4.83679">
        <ele>240</ele>
        <time>2020-10-31T10:06:16.000Z</time>
      </trkpt>
      <trkpt lat="49.75039" lon="4.83684">
        <ele>240</ele>
        <time>2020-10-31T10:06:17.000Z</time>
      </trkpt>
      <trkpt lat="49.75039" lon="4.83688">
        <ele>240</ele>
        <time>2020-10-31T10:06:18.000Z</time>
      </trkpt>
      <trkpt lat="49.75039" lon="4.83692">
        <ele>240</ele>
        <time>2020-10-31T10:06:19.000Z</time>
      </trkpt>
      <trkpt lat="49.75039" lon="4.83696">
        <ele>240</ele>
        <time>2020-10-31T10:06:20.000Z</time>
      </trkpt>
      <trkpt lat="49.7504" lon="4.837">
        <ele>240</ele>
        <time>2020-10-31T10:06:21.000Z</time>
      </trkpt>
      <trkpt lat="49.7504" lon="4.83704">
        <ele>241</ele>
        <time>2020-10-31T10:06:22.000Z</time>
      </trkpt>
      <trkpt lat="49.75041" lon="4.83707">
        <ele>241</ele>
        <time>2020-10-31T10:06:23.000Z</time>
      </trkpt>
      <trkpt lat="49.75041" lon="4.83711">
        <ele>241</ele>
        <time>2020-10-31T10:06:24.000Z</time>
      </trkpt>
      <trkpt lat="49.75041" lon="4.83715">
        <ele>241</ele>
        <time>2020-10-31T10:06:25.000Z</time>
      </trkpt>
      <trkpt lat="49.75042" lon="4.83719">
        <ele>241</ele>
        <time>2020-10-31T10:06:26.000Z</time>
      </trkpt>
      <trkpt lat="49.75042" lon="4.83723">
        <ele>241</ele>
        <time>2020-10-31T10:06:27.000Z</time>
      </trkpt>
      <trkpt lat="49.75043" lon="4.83728">
        <ele>241</ele>
        <time>2020-10-31T10:06:28.000Z</time>
      </trkpt>
      <trkpt lat="49.75043" lon="4.83732">
        <ele>242</ele>
        <time>2020-10-31T10:06:29.000Z</time>
      </trkpt>
      <trkpt lat="49.75044" lon="4.83736">
        <ele>242</ele>
        <time>2020-10-31T10:06:30.000Z</time>
      </trkpt>
      <trkpt lat="49.75044" lon="4.8374">
        <ele>242</ele>
        <time>2020-10-31T10:06:31.000Z</time>
      </trkpt>
      <trkpt lat="49.75045" lon="4.83745">
        <ele>242</ele>
        <time>2020-10-31T10:06:32.000Z</time>
      </trkpt>
      <trkpt lat="49.75045" lon="4.83749">
        <ele>242</ele>
        <time>2020-10-31T10:06:33.000Z</time>
      </trkpt>
      <trkpt lat="49.75046" lon="4.83754">
        <ele>243</ele>
        <time>2020-10-31T10:06:34.000Z</time>
      </trkpt>
      <trkpt lat="49.75046" lon="4.83758">
        <ele>243</ele>
        <time>2020-10-31T10:06:35.000Z</time>
      </trkpt>
      <trkpt lat="49.75047" lon="4.83763">
        <ele>243</ele>
        <time>2020-10-31T10:06:36.000Z</time>
      </trkpt>
      <trkpt lat="49.75047" lon="4.83768">
        <ele>243</ele>
        <time>2020-10-31T10:06:37.000Z</time>
      </trkpt>
      <trkpt lat="49.75047" lon="4.83773">
        <ele>243</ele>
        <time>2020-10-31T10:06:38.000Z</time>
      </trkpt>
      <trkpt lat="49.75048" lon="4.83778">
        <ele>243</ele>
        <time>2020-10-31T10:06:39.000Z</time>
      </trkpt>
      <trkpt lat="49.75048" lon="4.83783">
        <ele>243</ele>
        <time>2020-10-31T10:06:40.000Z</time>
      </trkpt>
      <trkpt lat="49.75049" lon="4.83787">
        <ele>243</ele>
        <time>2020-10-31T10:06:41.000Z</time>
      </trkpt>
      <trkpt lat="49.75049" lon="4.83791">
        <ele>244</ele>
        <time>2020-10-31T10:06:42.000Z</time>
      </trkpt>
      <trkpt lat="49.7505" lon="4.83796">
        <ele>244</ele>
        <time>2020-10-31T10:06:43.000Z</time>
      </trkpt>
      <trkpt lat="49.7505" lon="4.83801">
        <ele>244</ele>
        <time>2020-10-31T10:06:44.000Z</time>
      </trkpt>
      <trkpt lat="49.75051" lon="4.83805">
        <ele>244</ele>
        <time>2020-10-31T10:06:45.000Z</time>
      </trkpt>
      <trkpt lat="49.75051" lon="4.8381">
        <ele>244</ele>
        <time>2020-10-31T10:06:46.000Z</time>
      </trkpt>
      <trkpt lat="49.75052" lon="4.83815">
        <ele>244</ele>
        <time>2020-10-31T10:06:47.000Z</time>
      </trkpt>
      <trkpt lat="49.75052" lon="4.8382">
        <ele>245</ele>
        <time>2020-10-31T10:06:48.000Z</time>
      </trkpt>
      <trkpt lat="49.75053" lon="4.83825">
        <ele>245</ele>
        <time>2020-10-31T10:06:49.000Z</time>
      </trkpt>
      <trkpt lat="49.75053" lon="4.83829">
        <ele>245</ele>
        <time>2020-10-31T10:06:50.000Z</time>
      </trkpt>
      <trkpt lat="49.75054" lon="4.83834">
        <ele>245</ele>
        <time>2020-10-31T10:06:51.000Z</time>
      </trkpt>
      <trkpt lat="49.75054" lon="4.83839">
        <ele>245</ele>
        <time>2020-10-31T10:06:52.000Z</time>
      </trkpt>
      <trkpt lat="49.75054" lon="4.83844">
        <ele>245</ele>
        <time>2020-10-31T10:06:53.000Z</time>
      </trkpt>
      <trkpt lat="49.75054" lon="4.83848">
        <ele>245</ele>
        <time>2020-10-31T10:06:54.000Z</time>
      </trkpt>
      <trkpt lat="49.75055" lon="4.83852">
        <ele>245</ele>
        <time>2020-10-31T10:06:55.000Z</time>
      </trkpt>
      <trkpt lat="49.75055" lon="4.83857">
        <ele>246</ele>
        <time>2020-10-31T10:06:56.000Z</time>
      </trkpt>
      <trkpt lat="49.75056" lon="4.83861">
        <ele>246</ele>
        <time>2020-10-31T10:06:57.000Z</time>
      </trkpt>
      <trkpt lat="49.75056" lon="4.83866">
        <ele>246</ele>
        <time>2020-10-31T10:06:58.000Z</time>
      </trkpt>
      <trkpt lat="49.75057" lon="4.8387">
        <ele>246</ele>
        <time>2020-10-31T10:06:59.000Z</time>
      </trkpt>
      <trkpt lat="49.75057" lon="4.83875">
        <ele>246</ele>
        <time>2020-10-31T10:07:00.000Z</time>
      </trkpt>
      <trkpt lat="49.75058" lon="4.8388">
        <ele>246</ele>
        <time>2020-10-31T10:07:01.000Z</time>
      </trkpt>
      <trkpt lat="49.75059" lon="4.83886">
        <ele>247</ele>
        <time>2020-10-31T10:07:02.000Z</time>
      </trkpt>
      <trkpt lat="49.7506" lon="4.83891">
        <ele>247</ele>
        <time>2020-10-31T10:07:03.000Z</time>
      </trkpt>
      <trkpt lat="49.75061" lon="4.83897">
        <ele>247</ele>
        <time>2020-10-31T10:07:04.000Z</time>
      </trkpt>
      <trkpt lat="49.75062" lon="4.83902">
        <ele>247</ele>
        <time>2020-10-31T10:07:05.000Z</time>
      </trkpt>
      <trkpt lat="49.75063" lon="4.83907">
        <ele>247</ele>
        <time>2020-10-31T10:07:06.000Z</time>
      </trkpt>
      <trkpt lat="49.75063" lon="4.83912">
        <ele>247</ele>
        <time>2020-10-31T10:07:07.000Z</time>
      </trkpt>
      <trkpt lat="49.75064" lon="4.83917">
        <ele>247</ele>
        <time>2020-10-31T10:07:08.000Z</time>
      </trkpt>
      <trkpt lat="49.75066" lon="4.83922">
        <ele>247</ele>
        <time>2020-10-31T10:07:09.000Z</time>
      </trkpt>
      <trkpt lat="49.75067" lon="4.83927">
        <ele>248</ele>
        <time>2020-10-31T10:07:10.000Z</time>
      </trkpt>
      <trkpt lat="49.75069" lon="4.83933">
        <ele>248</ele>
        <time>2020-10-31T10:07:11.000Z</time>
      </trkpt>
      <trkpt lat="49.75071" lon="4.83938">
        <ele>248</ele>
        <time>2020-10-31T10:07:12.000Z</time>
      </trkpt>
      <trkpt lat="49.75073" lon="4.83943">
        <ele>248</ele>
        <time>2020-10-31T10:07:13.000Z</time>
      </trkpt>
      <trkpt lat="49.75075" lon="4.83947">
        <ele>248</ele>
        <time>2020-10-31T10:07:14.000Z</time>
      </trkpt>
      <trkpt lat="49.75076" lon="4.83952">
        <ele>248</ele>
        <time>2020-10-31T10:07:15.000Z</time>
      </trkpt>
      <trkpt lat="49.75078" lon="4.83956">
        <ele>248</ele>
        <time>2020-10-31T10:07:16.000Z</time>
      </trkpt>
      <trkpt lat="49.75079" lon="4.83961">
        <ele>248</ele>
        <time>2020-10-31T10:07:17.000Z</time>
      </trkpt>
      <trkpt lat="49.75081" lon="4.83965">
        <ele>248</ele>
        <time>2020-10-31T10:07:18.000Z</time>
      </trkpt>
      <trkpt lat="49.75083" lon="4.8397">
        <ele>248</ele>
        <time>2020-10-31T10:07:19.000Z</time>
      </trkpt>
      <trkpt lat="49.75084" lon="4.83973">
        <ele>248</ele>
        <time>2020-10-31T10:07:20.000Z</time>
      </trkpt>
      <trkpt lat="49.75086" lon="4.83977">
        <ele>248</ele>
        <time>2020-10-31T10:07:21.000Z</time>
      </trkpt>
      <trkpt lat="49.75087" lon="4.83982">
        <ele>248</ele>
        <time>2020-10-31T10:07:22.000Z</time>
      </trkpt>
      <trkpt lat="49.75089" lon="4.83986">
        <ele>248</ele>
        <time>2020-10-31T10:07:23.000Z</time>
      </trkpt>
      <trkpt lat="49.75091" lon="4.83991">
        <ele>248</ele>
        <time>2020-10-31T10:07:24.000Z</time>
      </trkpt>
      <trkpt lat="49.75093" lon="4.83994">
        <ele>248</ele>
        <time>2020-10-31T10:07:25.000Z</time>
      </trkpt>
      <trkpt lat="49.75094" lon="4.83998">
        <ele>248</ele>
        <time>2020-10-31T10:07:26.000Z</time>
      </trkpt>
      <trkpt lat="49.75096" lon="4.84003">
        <ele>249</ele>
        <time>2020-10-31T10:07:27.000Z</time>
      </trkpt>
      <trkpt lat="49.75097" lon="4.84008">
        <ele>249</ele>
        <time>2020-10-31T10:07:28.000Z</time>
      </trkpt>
      <trkpt lat="49.75099" lon="4.84012">
        <ele>249</ele>
        <time>2020-10-31T10:07:29.000Z</time>
      </trkpt>
      <trkpt lat="49.75101" lon="4.84017">
        <ele>249</ele>
        <time>2020-10-31T10:07:30.000Z</time>
      </trkpt>
      <trkpt lat="49.75103" lon="4.84022">
        <ele>249</ele>
        <time>2020-10-31T10:07:31.000Z</time>
      </trkpt>
      <trkpt lat="49.75105" lon="4.84027">
        <ele>249</ele>
        <time>2020-10-31T10:07:32.000Z</time>
      </trkpt>
      <trkpt lat="49.75108" lon="4.84033">
        <ele>249</ele>
        <time>2020-10-31T10:07:33.000Z</time>
      </trkpt>
      <trkpt lat="49.7511" lon="4.84037">
        <ele>249</ele>
        <time>2020-10-31T10:07:34.000Z</time>
      </trkpt>
      <trkpt lat="49.75114" lon="4.84041">
        <ele>249</ele>
        <time>2020-10-31T10:07:35.000Z</time>
      </trkpt>
      <trkpt lat="49.75116" lon="4.84046">
        <ele>249</ele>
        <time>2020-10-31T10:07:36.000Z</time>
      </trkpt>
      <trkpt lat="49.75119" lon="4.84051">
        <ele>250</ele>
        <time>2020-10-31T10:07:37.000Z</time>
      </trkpt>
      <trkpt lat="49.75121" lon="4.84056">
        <ele>250</ele>
        <time>2020-10-31T10:07:38.000Z</time>
      </trkpt>
      <trkpt lat="49.75123" lon="4.84061">
        <ele>250</ele>
        <time>2020-10-31T10:07:39.000Z</time>
      </trkpt>
      <trkpt lat="49.75126" lon="4.84065">
        <ele>250</ele>
        <time>2020-10-31T10:07:40.000Z</time>
      </trkpt>
      <trkpt lat="49.75128" lon="4.8407">
        <ele>250</ele>
        <time>2020-10-31T10:07:41.000Z</time>
      </trkpt>
      <trkpt lat="49.75131" lon="4.84075">
        <ele>250</ele>
        <time>2020-10-31T10:07:42.000Z</time>
      </trkpt>
      <trkpt lat="49.75134" lon="4.8408">
        <ele>250</ele>
        <time>2020-10-31T10:07:43.000Z</time>
      </trkpt>
      <trkpt lat="49.75137" lon="4.84085">
        <ele>250</ele>
        <time>2020-10-31T10:07:44.000Z</time>
      </trkpt>
      <trkpt lat="49.7514" lon="4.84091">
        <ele>250</ele>
        <time>2020-10-31T10:07:45.000Z</time>
      </trkpt>
      <trkpt lat="49.75142" lon="4.84098">
        <ele>250</ele>
        <time>2020-10-31T10:07:46.000Z</time>
      </trkpt>
      <trkpt lat="49.75142" lon="4.84106">
        <ele>251</ele>
        <time>2020-10-31T10:07:47.000Z</time>
      </trkpt>
      <trkpt lat="49.7514" lon="4.84112">
        <ele>251</ele>
        <time>2020-10-31T10:07:48.000Z</time>
      </trkpt>
      <trkpt lat="49.75137" lon="4.84119">
        <ele>251</ele>
        <time>2020-10-31T10:07:49.000Z</time>
      </trkpt>
      <trkpt lat="49.75134" lon="4.84125">
        <ele>251</ele>
        <time>2020-10-31T10:07:50.000Z</time>
      </trkpt>
      <trkpt lat="49.75129" lon="4.84131">
        <ele>251</ele>
        <time>2020-10-31T10:07:51.000Z</time>
      </trkpt>
      <trkpt lat="49.75125" lon="4.84138">
        <ele>250</ele>
        <time>2020-10-31T10:07:52.000Z</time>
      </trkpt>
      <trkpt lat="49.7512" lon="4.84145">
        <ele>250</ele>
        <time>2020-10-31T10:07:53.000Z</time>
      </trkpt>
      <trkpt lat="49.75116" lon="4.84151">
        <ele>250</ele>
        <time>2020-10-31T10:07:54.000Z</time>
      </trkpt>
      <trkpt lat="49.75111" lon="4.84157">
        <ele>251</ele>
        <time>2020-10-31T10:07:55.000Z</time>
      </trkpt>
      <trkpt lat="49.75107" lon="4.84164">
        <ele>251</ele>
        <time>2020-10-31T10:07:56.000Z</time>
      </trkpt>
      <trkpt lat="49.75103" lon="4.84171">
        <ele>251</ele>
        <time>2020-10-31T10:07:57.000Z</time>
      </trkpt>
      <trkpt lat="49.75099" lon="4.84178">
        <ele>251</ele>
        <time>2020-10-31T10:07:58.000Z</time>
      </trkpt>
      <trkpt lat="49.75094" lon="4.84184">
        <ele>251</ele>
        <time>2020-10-31T10:07:59.000Z</time>
      </trkpt>
      <trkpt lat="49.7509" lon="4.84191">
        <ele>251</ele>
        <time>2020-10-31T10:08:00.000Z</time>
      </trkpt>
      <trkpt lat="49.75086" lon="4.84197">
        <ele>251</ele>
        <time>2020-10-31T10:08:01.000Z</time>
      </trkpt>
      <trkpt lat="49.75081" lon="4.84204">
        <ele>251</ele>
        <time>2020-10-31T10:08:02.000Z</time>
      </trkpt>
      <trkpt lat="49.75076" lon="4.8421">
        <ele>251</ele>
        <time>2020-10-31T10:08:03.000Z</time>
      </trkpt>
      <trkpt lat="49.75072" lon="4.84217">
        <ele>251</ele>
        <time>2020-10-31T10:08:04.000Z</time>
      </trkpt>
      <trkpt lat="49.75067" lon="4.84224">
        <ele>251</ele>
        <time>2020-10-31T10:08:05.000Z</time>
      </trkpt>
      <trkpt lat="49.75062" lon="4.84231">
        <ele>251</ele>
        <time>2020-10-31T10:08:06.000Z</time>
      </trkpt>
      <trkpt lat="49.75057" lon="4.84238">
        <ele>251</ele>
        <time>2020-10-31T10:08:07.000Z</time>
      </trkpt>
      <trkpt lat="49.75052" lon="4.84245">
        <ele>251</ele>
        <time>2020-10-31T10:08:08.000Z</time>
      </trkpt>
      <trkpt lat="49.75046" lon="4.84252">
        <ele>251</ele>
        <time>2020-10-31T10:08:09.000Z</time>
      </trkpt>
      <trkpt lat="49.75041" lon="4.84256">
        <ele>251</ele>
        <time>2020-10-31T10:08:10.000Z</time>
      </trkpt>
      <trkpt lat="49.75037" lon="4.84259">
        <ele>251</ele>
        <time>2020-10-31T10:08:11.000Z</time>
      </trkpt>
      <trkpt lat="49.75033" lon="4.84261">
        <ele>251</ele>
        <time>2020-10-31T10:08:12.000Z</time>
      </trkpt>
      <trkpt lat="49.75029" lon="4.84262">
        <ele>251</ele>
        <time>2020-10-31T10:08:13.000Z</time>
      </trkpt>
      <trkpt lat="49.75026" lon="4.84264">
        <ele>251</ele>
        <time>2020-10-31T10:08:14.000Z</time>
      </trkpt>
      <trkpt lat="49.75025" lon="4.84267">
        <ele>251</ele>
        <time>2020-10-31T10:08:15.000Z</time>
      </trkpt>
      <trkpt lat="49.75026" lon="4.84271">
        <ele>250</ele>
        <time>2020-10-31T10:08:16.000Z</time>
      </trkpt>
      <trkpt lat="49.75027" lon="4.84273">
        <ele>250</ele>
        <time>2020-10-31T10:08:17.000Z</time>
      </trkpt>
      <trkpt lat="49.75029" lon="4.84274">
        <ele>250</ele>
        <time>2020-10-31T10:08:18.000Z</time>
      </trkpt>
      <trkpt lat="49.75031" lon="4.84273">
        <ele>250</ele>
        <time>2020-10-31T10:08:19.000Z</time>
      </trkpt>
      <trkpt lat="49.75033" lon="4.8427">
        <ele>250</ele>
        <time>2020-10-31T10:08:20.000Z</time>
      </trkpt>
      <trkpt lat="49.75035" lon="4.84266">
        <ele>250</ele>
        <time>2020-10-31T10:08:21.000Z</time>
      </trkpt>
      <trkpt lat="49.75036" lon="4.84262">
        <ele>250</ele>
        <time>2020-10-31T10:08:22.000Z</time>
      </trkpt>
      <trkpt lat="49.75037" lon="4.84258">
        <ele>250</ele>
        <time>2020-10-31T10:08:23.000Z</time>
      </trkpt>
      <trkpt lat="49.75038" lon="4.84254">
        <ele>250</ele>
        <time>2020-10-31T10:08:24.000Z</time>
      </trkpt>
      <trkpt lat="49.7504" lon="4.8425">
        <ele>250</ele>
        <time>2020-10-31T10:08:25.000Z</time>
      </trkpt>
      <trkpt lat="49.75042" lon="4.84247">
        <ele>250</ele>
        <time>2020-10-31T10:08:26.000Z</time>
      </trkpt>
      <trkpt lat="49.75043" lon="4.84245">
        <ele>250</ele>
        <time>2020-10-31T10:08:27.000Z</time>
      </trkpt>
      <trkpt lat="49.75045" lon="4.84246">
        <ele>250</ele>
        <time>2020-10-31T10:08:28.000Z</time>
      </trkpt>
      <trkpt lat="49.75046" lon="4.84248">
        <ele>250</ele>
        <time>2020-10-31T10:08:29.000Z</time>
      </trkpt>
      <trkpt lat="49.75046" lon="4.84251">
        <ele>250</ele>
        <time>2020-10-31T10:08:30.000Z</time>
      </trkpt>
      <trkpt lat="49.75044" lon="4.84254">
        <ele>249</ele>
        <time>2020-10-31T10:08:31.000Z</time>
      </trkpt>
      <trkpt lat="49.7504" lon="4.84256">
        <ele>249</ele>
        <time>2020-10-31T10:08:32.000Z</time>
      </trkpt>
      <trkpt lat="49.75037" lon="4.84258">
        <ele>249</ele>
        <time>2020-10-31T10:08:33.000Z</time>
      </trkpt>
      <trkpt lat="49.75033" lon="4.84258">
        <ele>249</ele>
        <time>2020-10-31T10:08:34.000Z</time>
      </trkpt>
      <trkpt lat="49.75029" lon="4.8426">
        <ele>249</ele>
        <time>2020-10-31T10:08:35.000Z</time>
      </trkpt>
      <trkpt lat="49.75024" lon="4.84263">
        <ele>249</ele>
        <time>2020-10-31T10:08:36.000Z</time>
      </trkpt>
      <trkpt lat="49.7502" lon="4.84267">
        <ele>248</ele>
        <time>2020-10-31T10:08:37.000Z</time>
      </trkpt>
      <trkpt lat="49.75016" lon="4.84268">
        <ele>248</ele>
        <time>2020-10-31T10:08:38.000Z</time>
      </trkpt>
      <trkpt lat="49.75013" lon="4.84267">
        <ele>248</ele>
        <time>2020-10-31T10:08:39.000Z</time>
      </trkpt>
      <trkpt lat="49.75011" lon="4.84264">
        <ele>248</ele>
        <time>2020-10-31T10:08:40.000Z</time>
      </trkpt>
      <trkpt lat="49.75009" lon="4.8426">
        <ele>248</ele>
        <time>2020-10-31T10:08:41.000Z</time>
      </trkpt>
      <trkpt lat="49.75006" lon="4.84256">
        <ele>248</ele>
        <time>2020-10-31T10:08:42.000Z</time>
      </trkpt>
      <trkpt lat="49.75004" lon="4.84251">
        <ele>248</ele>
        <time>2020-10-31T10:08:43.000Z</time>
      </trkpt>
      <trkpt lat="49.75002" lon="4.84245">
        <ele>248</ele>
        <time>2020-10-31T10:08:44.000Z</time>
      </trkpt>
      <trkpt lat="49.75" lon="4.8424">
        <ele>248</ele>
        <time>2020-10-31T10:08:45.000Z</time>
      </trkpt>
      <trkpt lat="49.74999" lon="4.84235">
        <ele>248</ele>
        <time>2020-10-31T10:08:46.000Z</time>
      </trkpt>
      <trkpt lat="49.74998" lon="4.84229">
        <ele>248</ele>
        <time>2020-10-31T10:08:47.000Z</time>
      </trkpt>
      <trkpt lat="49.74996" lon="4.84225">
        <ele>248</ele>
        <time>2020-10-31T10:08:48.000Z</time>
      </trkpt>
      <trkpt lat="49.74994" lon="4.84221">
        <ele>248</ele>
        <time>2020-10-31T10:08:49.000Z</time>
      </trkpt>
      <trkpt lat="49.74993" lon="4.84217">
        <ele>248</ele>
        <time>2020-10-31T10:08:50.000Z</time>
      </trkpt>
      <trkpt lat="49.74991" lon="4.84212">
        <ele>248</ele>
        <time>2020-10-31T10:08:51.000Z</time>
      </trkpt>
      <trkpt lat="49.7499" lon="4.84207">
        <ele>248</ele>
        <time>2020-10-31T10:08:52.000Z</time>
      </trkpt>
      <trkpt lat="49.74988" lon="4.84202">
        <ele>248</ele>
        <time>2020-10-31T10:08:53.000Z</time>
      </trkpt>
      <trkpt lat="49.74986" lon="4.84196">
        <ele>248</ele>
        <time>2020-10-31T10:08:54.000Z</time>
      </trkpt>
      <trkpt lat="49.74984" lon="4.8419">
        <ele>248</ele>
        <time>2020-10-31T10:08:55.000Z</time>
      </trkpt>
      <trkpt lat="49.74982" lon="4.84183">
        <ele>248</ele>
        <time>2020-10-31T10:08:56.000Z</time>
      </trkpt>
      <trkpt lat="49.74981" lon="4.84177">
        <ele>248</ele>
        <time>2020-10-31T10:08:57.000Z</time>
      </trkpt>
      <trkpt lat="49.7498" lon="4.84172">
        <ele>248</ele>
        <time>2020-10-31T10:08:58.000Z</time>
      </trkpt>
      <trkpt lat="49.7498" lon="4.84167">
        <ele>248</ele>
        <time>2020-10-31T10:08:59.000Z</time>
      </trkpt>
      <trkpt lat="49.74979" lon="4.84162">
        <ele>248</ele>
        <time>2020-10-31T10:09:00.000Z</time>
      </trkpt>
      <trkpt lat="49.74979" lon="4.8416">
        <ele>248</ele>
        <time>2020-10-31T10:09:01.000Z</time>
      </trkpt>
      <trkpt lat="49.74978" lon="4.84157">
        <ele>248</ele>
        <time>2020-10-31T10:09:02.000Z</time>
      </trkpt>
      <trkpt lat="49.74976" lon="4.84154">
        <ele>248</ele>
        <time>2020-10-31T10:09:03.000Z</time>
      </trkpt>
      <trkpt lat="49.74975" lon="4.8415">
        <ele>248</ele>
        <time>2020-10-31T10:09:04.000Z</time>
      </trkpt>
      <trkpt lat="49.74974" lon="4.84148">
        <ele>248</ele>
        <time>2020-10-31T10:09:05.000Z</time>
      </trkpt>
      <trkpt lat="49.74974" lon="4.84147">
        <ele>248</ele>
        <time>2020-10-31T10:09:06.000Z</time>
      </trkpt>
      <trkpt lat="49.74974" lon="4.84146">
        <ele>248</ele>
        <time>2020-10-31T10:09:07.000Z</time>
      </trkpt>
      <trkpt lat="49.74974" lon="4.84146">
        <ele>247</ele>
        <time>2020-10-31T10:09:08.000Z</time>
      </trkpt>
      <trkpt lat="49.74973" lon="4.84146">
        <ele>247</ele>
        <time>2020-10-31T10:09:09.000Z</time>
      </trkpt>
      <trkpt lat="49.74973" lon="4.84146">
        <ele>247</ele>
        <time>2020-10-31T10:09:10.000Z</time>
      </trkpt>
      <trkpt lat="49.74973" lon="4.84146">
        <ele>247</ele>
        <time>2020-10-31T10:09:11.000Z</time>
      </trkpt>
      <trkpt lat="49.74973" lon="4.84145">
        <ele>247</ele>
        <time>2020-10-31T10:09:12.000Z</time>
      </trkpt>
      <trkpt lat="49.74973" lon="4.84145">
        <ele>247</ele>
        <time>2020-10-31T10:09:13.000Z</time>
      </trkpt>
      <trkpt lat="49.74973" lon="4.84144">
        <ele>247</ele>
        <time>2020-10-31T10:09:14.000Z</time>
      </trkpt>
      <trkpt lat="49.74973" lon="4.84144">
        <ele>247</ele>
        <time>2020-10-31T10:09:15.000Z</time>
      </trkpt>
      <trkpt lat="49.74974" lon="4.84144">
        <ele>247</ele>
        <time>2020-10-31T10:09:16.000Z</time>
      </trkpt>
      <trkpt lat="49.74974" lon="4.84144">
        <ele>247</ele>
        <time>2020-10-31T10:09:17.000Z</time>
      </trkpt>
      <trkpt lat="49.74974" lon="4.84143">
        <ele>247</ele>
        <time>2020-10-31T10:09:18.000Z</time>
      </trkpt>
      <trkpt lat="49.74974" lon="4.84143">
        <ele>247</ele>
        <time>2020-10-31T10:09:19.000Z</time>
      </trkpt>
      <trkpt lat="49.74974" lon="4.84143">
        <ele>247</ele>
        <time>2020-10-31T10:09:20.000Z</time>
      </trkpt>
      <trkpt lat="49.74974" lon="4.84142">
        <ele>247</ele>
        <time>2020-10-31T10:09:21.000Z</time>
      </trkpt>
      <trkpt lat="49.74973" lon="4.84141">
        <ele>247</ele>
        <time>2020-10-31T10:09:22.000Z</time>
      </trkpt>
      <trkpt lat="49.74972" lon="4.84141">
        <ele>248</ele>
        <time>2020-10-31T10:09:23.000Z</time>
      </trkpt>
      <trkpt lat="49.74971" lon="4.84142">
        <ele>248</ele>
        <time>2020-10-31T10:09:24.000Z</time>
      </trkpt>
      <trkpt lat="49.74969" lon="4.84144">
        <ele>248</ele>
        <time>2020-10-31T10:09:25.000Z</time>
      </trkpt>
      <trkpt lat="49.74967" lon="4.84147">
        <ele>247</ele>
        <time>2020-10-31T10:09:26.000Z</time>
      </trkpt>
      <trkpt lat="49.74964" lon="4.84151">
        <ele>247</ele>
        <time>2020-10-31T10:09:27.000Z</time>
      </trkpt>
      <trkpt lat="49.74961" lon="4.84156">
        <ele>247</ele>
        <time>2020-10-31T10:09:28.000Z</time>
      </trkpt>
      <trkpt lat="49.74958" lon="4.84161">
        <ele>247</ele>
        <time>2020-10-31T10:09:29.000Z</time>
      </trkpt>
      <trkpt lat="49.74955" lon="4.84165">
        <ele>247</ele>
        <time>2020-10-31T10:09:30.000Z</time>
      </trkpt>
      <trkpt lat="49.74951" lon="4.84172">
        <ele>246</ele>
        <time>2020-10-31T10:09:31.000Z</time>
      </trkpt>
      <trkpt lat="49.74947" lon="4.84178">
        <ele>246</ele>
        <time>2020-10-31T10:09:32.000Z</time>
      </trkpt>
      <trkpt lat="49.74943" lon="4.84184">
        <ele>246</ele>
        <time>2020-10-31T10:09:33.000Z</time>
      </trkpt>
      <trkpt lat="49.74939" lon="4.8419">
        <ele>245</ele>
        <time>2020-10-31T10:09:34.000Z</time>
      </trkpt>
      <trkpt lat="49.74936" lon="4.84197">
        <ele>245</ele>
        <time>2020-10-31T10:09:35.000Z</time>
      </trkpt>
      <trkpt lat="49.74932" lon="4.84205">
        <ele>245</ele>
        <time>2020-10-31T10:09:36.000Z</time>
      </trkpt>
      <trkpt lat="49.74929" lon="4.84211">
        <ele>245</ele>
        <time>2020-10-31T10:09:37.000Z</time>
      </trkpt>
      <trkpt lat="49.74925" lon="4.84218">
        <ele>244</ele>
        <time>2020-10-31T10:09:38.000Z</time>
      </trkpt>
      <trkpt lat="49.74921" lon="4.84226">
        <ele>244</ele>
        <time>2020-10-31T10:09:39.000Z</time>
      </trkpt>
      <trkpt lat="49.74916" lon="4.84234">
        <ele>243</ele>
        <time>2020-10-31T10:09:40.000Z</time>
      </trkpt>
      <trkpt lat="49.74913" lon="4.84241">
        <ele>243</ele>
        <time>2020-10-31T10:09:41.000Z</time>
      </trkpt>
      <trkpt lat="49.74909" lon="4.84249">
        <ele>243</ele>
        <time>2020-10-31T10:09:42.000Z</time>
      </trkpt>
      <trkpt lat="49.74905" lon="4.84257">
        <ele>242</ele>
        <time>2020-10-31T10:09:43.000Z</time>
      </trkpt>
      <trkpt lat="49.74901" lon="4.84264">
        <ele>242</ele>
        <time>2020-10-31T10:09:44.000Z</time>
      </trkpt>
      <trkpt lat="49.74898" lon="4.84271">
        <ele>241</ele>
        <time>2020-10-31T10:09:45.000Z</time>
      </trkpt>
      <trkpt lat="49.74895" lon="4.8428">
        <ele>241</ele>
        <time>2020-10-31T10:09:46.000Z</time>
      </trkpt>
      <trkpt lat="49.74892" lon="4.84288">
        <ele>240</ele>
        <time>2020-10-31T10:09:47.000Z</time>
      </trkpt>
      <trkpt lat="49.7489" lon="4.84296">
        <ele>240</ele>
        <time>2020-10-31T10:09:48.000Z</time>
      </trkpt>
      <trkpt lat="49.7489" lon="4.84304">
        <ele>239</ele>
        <time>2020-10-31T10:09:49.000Z</time>
      </trkpt>
      <trkpt lat="49.7489" lon="4.84313">
        <ele>239</ele>
        <time>2020-10-31T10:09:50.000Z</time>
      </trkpt>
      <trkpt lat="49.74892" lon="4.84322">
        <ele>238</ele>
        <time>2020-10-31T10:09:51.000Z</time>
      </trkpt>
      <trkpt lat="49.74894" lon="4.8433">
        <ele>238</ele>
        <time>2020-10-31T10:09:52.000Z</time>
      </trkpt>
      <trkpt lat="49.74895" lon="4.84339">
        <ele>237</ele>
        <time>2020-10-31T10:09:53.000Z</time>
      </trkpt>
      <trkpt lat="49.74897" lon="4.84347">
        <ele>237</ele>
        <time>2020-10-31T10:09:54.000Z</time>
      </trkpt>
      <trkpt lat="49.74899" lon="4.84355">
        <ele>236</ele>
        <time>2020-10-31T10:09:55.000Z</time>
      </trkpt>
      <trkpt lat="49.74901" lon="4.84363">
        <ele>236</ele>
        <time>2020-10-31T10:09:56.000Z</time>
      </trkpt>
      <trkpt lat="49.74903" lon="4.84371">
        <ele>235</ele>
        <time>2020-10-31T10:09:57.000Z</time>
      </trkpt>
      <trkpt lat="49.74905" lon="4.84379">
        <ele>235</ele>
        <time>2020-10-31T10:09:58.000Z</time>
      </trkpt>
      <trkpt lat="49.74907" lon="4.84386">
        <ele>234</ele>
        <time>2020-10-31T10:09:59.000Z</time>
      </trkpt>
      <trkpt lat="49.74908" lon="4.84394">
        <ele>234</ele>
        <time>2020-10-31T10:10:00.000Z</time>
      </trkpt>
      <trkpt lat="49.7491" lon="4.84401">
        <ele>233</ele>
        <time>2020-10-31T10:10:01.000Z</time>
      </trkpt>
      <trkpt lat="49.74912" lon="4.84407">
        <ele>233</ele>
        <time>2020-10-31T10:10:02.000Z</time>
      </trkpt>
      <trkpt lat="49.74914" lon="4.84413">
        <ele>232</ele>
        <time>2020-10-31T10:10:03.000Z</time>
      </trkpt>
      <trkpt lat="49.74915" lon="4.84418">
        <ele>232</ele>
        <time>2020-10-31T10:10:04.000Z</time>
      </trkpt>
      <trkpt lat="49.74915" lon="4.84423">
        <ele>231</ele>
        <time>2020-10-31T10:10:05.000Z</time>
      </trkpt>
      <trkpt lat="49.74913" lon="4.84427">
        <ele>231</ele>
        <time>2020-10-31T10:10:06.000Z</time>
      </trkpt>
      <trkpt lat="49.74911" lon="4.84432">
        <ele>230</ele>
        <time>2020-10-31T10:10:07.000Z</time>
      </trkpt>
      <trkpt lat="49.74908" lon="4.84438">
        <ele>229</ele>
        <time>2020-10-31T10:10:08.000Z</time>
      </trkpt>
      <trkpt lat="49.74905" lon="4.84445">
        <ele>229</ele>
        <time>2020-10-31T10:10:09.000Z</time>
      </trkpt>
      <trkpt lat="49.74901" lon="4.84452">
        <ele>228</ele>
        <time>2020-10-31T10:10:10.000Z</time>
      </trkpt>
      <trkpt lat="49.74898" lon="4.84458">
        <ele>227</ele>
        <time>2020-10-31T10:10:11.000Z</time>
      </trkpt>
      <trkpt lat="49.74894" lon="4.84462">
        <ele>226</ele>
        <time>2020-10-31T10:10:12.000Z</time>
      </trkpt>
      <trkpt lat="49.74891" lon="4.84466">
        <ele>226</ele>
        <time>2020-10-31T10:10:13.000Z</time>
      </trkpt>
      <trkpt lat="49.74887" lon="4.8447">
        <ele>225</ele>
        <time>2020-10-31T10:10:14.000Z</time>
      </trkpt>
      <trkpt lat="49.74883" lon="4.84475">
        <ele>224</ele>
        <time>2020-10-31T10:10:15.000Z</time>
      </trkpt>
      <trkpt lat="49.74879" lon="4.84479">
        <ele>223</ele>
        <time>2020-10-31T10:10:16.000Z</time>
      </trkpt>
      <trkpt lat="49.74875" lon="4.84483">
        <ele>223</ele>
        <time>2020-10-31T10:10:17.000Z</time>
      </trkpt>
      <trkpt lat="49.74871" lon="4.84485">
        <ele>222</ele>
        <time>2020-10-31T10:10:18.000Z</time>
      </trkpt>
      <trkpt lat="49.74868" lon="4.84485">
        <ele>221</ele>
        <time>2020-10-31T10:10:19.000Z</time>
      </trkpt>
      <trkpt lat="49.74865" lon="4.84484">
        <ele>221</ele>
        <time>2020-10-31T10:10:20.000Z</time>
      </trkpt>
      <trkpt lat="49.74864" lon="4.84482">
        <ele>220</ele>
        <time>2020-10-31T10:10:21.000Z</time>
      </trkpt>
      <trkpt lat="49.74863" lon="4.8448">
        <ele>220</ele>
        <time>2020-10-31T10:10:22.000Z</time>
      </trkpt>
      <trkpt lat="49.74862" lon="4.8448">
        <ele>219</ele>
        <time>2020-10-31T10:10:23.000Z</time>
      </trkpt>
      <trkpt lat="49.74861" lon="4.84481">
        <ele>219</ele>
        <time>2020-10-31T10:10:24.000Z</time>
      </trkpt>
      <trkpt lat="49.7486" lon="4.84482">
        <ele>218</ele>
        <time>2020-10-31T10:10:25.000Z</time>
      </trkpt>
      <trkpt lat="49.74859" lon="4.84483">
        <ele>218</ele>
        <time>2020-10-31T10:10:26.000Z</time>
      </trkpt>
      <trkpt lat="49.74858" lon="4.84485">
        <ele>217</ele>
        <time>2020-10-31T10:10:27.000Z</time>
      </trkpt>
      <trkpt lat="49.74857" lon="4.84487">
        <ele>217</ele>
        <time>2020-10-31T10:10:28.000Z</time>
      </trkpt>
      <trkpt lat="49.74855" lon="4.84489">
        <ele>217</ele>
        <time>2020-10-31T10:10:29.000Z</time>
      </trkpt>
      <trkpt lat="49.74854" lon="4.8449">
        <ele>216</ele>
        <time>2020-10-31T10:10:30.000Z</time>
      </trkpt>
      <trkpt lat="49.74852" lon="4.84492">
        <ele>216</ele>
        <time>2020-10-31T10:10:31.000Z</time>
      </trkpt>
      <trkpt lat="49.74851" lon="4.84494">
        <ele>216</ele>
        <time>2020-10-31T10:10:32.000Z</time>
      </trkpt>
      <trkpt lat="49.7485" lon="4.84496">
        <ele>216</ele>
        <time>2020-10-31T10:10:33.000Z</time>
      </trkpt>
      <trkpt lat="49.74849" lon="4.84498">
        <ele>215</ele>
        <time>2020-10-31T10:10:34.000Z</time>
      </trkpt>
      <trkpt lat="49.74848" lon="4.84501">
        <ele>215</ele>
        <time>2020-10-31T10:10:35.000Z</time>
      </trkpt>
      <trkpt lat="49.74847" lon="4.84503">
        <ele>215</ele>
        <time>2020-10-31T10:10:36.000Z</time>
      </trkpt>
      <trkpt lat="49.74847" lon="4.84506">
        <ele>215</ele>
        <time>2020-10-31T10:10:37.000Z</time>
      </trkpt>
      <trkpt lat="49.74847" lon="4.84509">
        <ele>215</ele>
        <time>2020-10-31T10:10:38.000Z</time>
      </trkpt>
      <trkpt lat="49.74848" lon="4.84513">
        <ele>215</ele>
        <time>2020-10-31T10:10:39.000Z</time>
      </trkpt>
      <trkpt lat="49.74849" lon="4.84517">
        <ele>215</ele>
        <time>2020-10-31T10:10:40.000Z</time>
      </trkpt>
      <trkpt lat="49.7485" lon="4.84521">
        <ele>215</ele>
        <time>2020-10-31T10:10:41.000Z</time>
      </trkpt>
      <trkpt lat="49.74852" lon="4.84526">
        <ele>215</ele>
        <time>2020-10-31T10:10:42.000Z</time>
      </trkpt>
      <trkpt lat="49.74853" lon="4.84531">
        <ele>215</ele>
        <time>2020-10-31T10:10:43.000Z</time>
      </trkpt>
      <trkpt lat="49.74854" lon="4.84537">
        <ele>215</ele>
        <time>2020-10-31T10:10:44.000Z</time>
      </trkpt>
      <trkpt lat="49.74854" lon="4.84541">
        <ele>215</ele>
        <time>2020-10-31T10:10:45.000Z</time>
      </trkpt>
      <trkpt lat="49.74855" lon="4.84546">
        <ele>214</ele>
        <time>2020-10-31T10:10:46.000Z</time>
      </trkpt>
      <trkpt lat="49.74855" lon="4.8455">
        <ele>214</ele>
        <time>2020-10-31T10:10:47.000Z</time>
      </trkpt>
      <trkpt lat="49.74856" lon="4.84554">
        <ele>214</ele>
        <time>2020-10-31T10:10:48.000Z</time>
      </trkpt>
      <trkpt lat="49.74856" lon="4.84559">
        <ele>214</ele>
        <time>2020-10-31T10:10:49.000Z</time>
      </trkpt>
      <trkpt lat="49.74855" lon="4.84564">
        <ele>214</ele>
        <time>2020-10-31T10:10:50.000Z</time>
      </trkpt>
      <trkpt lat="49.74854" lon="4.84569">
        <ele>214</ele>
        <time>2020-10-31T10:10:51.000Z</time>
      </trkpt>
      <trkpt lat="49.74853" lon="4.84573">
        <ele>214</ele>
        <time>2020-10-31T10:10:52.000Z</time>
      </trkpt>
      <trkpt lat="49.74853" lon="4.84578">
        <ele>214</ele>
        <time>2020-10-31T10:10:53.000Z</time>
      </trkpt>
      <trkpt lat="49.74852" lon="4.84583">
        <ele>214</ele>
        <time>2020-10-31T10:10:54.000Z</time>
      </trkpt>
      <trkpt lat="49.7485" lon="4.84588">
        <ele>214</ele>
        <time>2020-10-31T10:10:55.000Z</time>
      </trkpt>
      <trkpt lat="49.74849" lon="4.84592">
        <ele>213</ele>
        <time>2020-10-31T10:10:56.000Z</time>
      </trkpt>
      <trkpt lat="49.74847" lon="4.84596">
        <ele>213</ele>
        <time>2020-10-31T10:10:57.000Z</time>
      </trkpt>
      <trkpt lat="49.74846" lon="4.84599">
        <ele>213</ele>
        <time>2020-10-31T10:10:58.000Z</time>
      </trkpt>
      <trkpt lat="49.74844" lon="4.84603">
        <ele>213</ele>
        <time>2020-10-31T10:10:59.000Z</time>
      </trkpt>
      <trkpt lat="49.74843" lon="4.84606">
        <ele>213</ele>
        <time>2020-10-31T10:11:00.000Z</time>
      </trkpt>
      <trkpt lat="49.74842" lon="4.84609">
        <ele>213</ele>
        <time>2020-10-31T10:11:01.000Z</time>
      </trkpt>
      <trkpt lat="49.74841" lon="4.84612">
        <ele>213</ele>
        <time>2020-10-31T10:11:02.000Z</time>
      </trkpt>
      <trkpt lat="49.7484" lon="4.84614">
        <ele>213</ele>
        <time>2020-10-31T10:11:03.000Z</time>
      </trkpt>
      <trkpt lat="49.7484" lon="4.84616">
        <ele>214</ele>
        <time>2020-10-31T10:11:04.000Z</time>
      </trkpt>
      <trkpt lat="49.7484" lon="4.84617">
        <ele>214</ele>
        <time>2020-10-31T10:11:05.000Z</time>
      </trkpt>
      <trkpt lat="49.74839" lon="4.84618">
        <ele>213</ele>
        <time>2020-10-31T10:11:06.000Z</time>
      </trkpt>
      <trkpt lat="49.74839" lon="4.84619">
        <ele>213</ele>
        <time>2020-10-31T10:11:07.000Z</time>
      </trkpt>
      <trkpt lat="49.74838" lon="4.84621">
        <ele>213</ele>
        <time>2020-10-31T10:11:08.000Z</time>
      </trkpt>
      <trkpt lat="49.74838" lon="4.84622">
        <ele>213</ele>
        <time>2020-10-31T10:11:09.000Z</time>
      </trkpt>
      <trkpt lat="49.74838" lon="4.84623">
        <ele>213</ele>
        <time>2020-10-31T10:11:10.000Z</time>
      </trkpt>
      <trkpt lat="49.74838" lon="4.84625">
        <ele>213</ele>
        <time>2020-10-31T10:11:11.000Z</time>
      </trkpt>
      <trkpt lat="49.74837" lon="4.84627">
        <ele>214</ele>
        <time>2020-10-31T10:11:12.000Z</time>
      </trkpt>
      <trkpt lat="49.74837" lon="4.8463">
        <ele>214</ele>
        <time>2020-10-31T10:11:13.000Z</time>
      </trkpt>
      <trkpt lat="49.74837" lon="4.84633">
        <ele>214</ele>
        <time>2020-10-31T10:11:14.000Z</time>
      </trkpt>
      <trkpt lat="49.74837" lon="4.84636">
        <ele>214</ele>
        <time>2020-10-31T10:11:15.000Z</time>
      </trkpt>
      <trkpt lat="49.74837" lon="4.84638">
        <ele>215</ele>
        <time>2020-10-31T10:11:16.000Z</time>
      </trkpt>
      <trkpt lat="49.74838" lon="4.8464">
        <ele>215</ele>
        <time>2020-10-31T10:11:17.000Z</time>
      </trkpt>
      <trkpt lat="49.74839" lon="4.84642">
        <ele>215</ele>
        <time>2020-10-31T10:11:18.000Z</time>
      </trkpt>
      <trkpt lat="49.74839" lon="4.84643">
        <ele>216</ele>
        <time>2020-10-31T10:11:19.000Z</time>
      </trkpt>
      <trkpt lat="49.7484" lon="4.84645">
        <ele>216</ele>
        <time>2020-10-31T10:11:20.000Z</time>
      </trkpt>
      <trkpt lat="49.74841" lon="4.84647">
        <ele>216</ele>
        <time>2020-10-31T10:11:21.000Z</time>
      </trkpt>
      <trkpt lat="49.74842" lon="4.8465">
        <ele>217</ele>
        <time>2020-10-31T10:11:22.000Z</time>
      </trkpt>
      <trkpt lat="49.74843" lon="4.84653">
        <ele>217</ele>
        <time>2020-10-31T10:11:23.000Z</time>
      </trkpt>
      <trkpt lat="49.74844" lon="4.84656">
        <ele>218</ele>
        <time>2020-10-31T10:11:24.000Z</time>
      </trkpt>
      <trkpt lat="49.74845" lon="4.84659">
        <ele>218</ele>
        <time>2020-10-31T10:11:25.000Z</time>
      </trkpt>
      <trkpt lat="49.74846" lon="4.84662">
        <ele>219</ele>
        <time>2020-10-31T10:11:26.000Z</time>
      </trkpt>
      <trkpt lat="49.74847" lon="4.84664">
        <ele>219</ele>
        <time>2020-10-31T10:11:27.000Z</time>
      </trkpt>
      <trkpt lat="49.74848" lon="4.84667">
        <ele>220</ele>
        <time>2020-10-31T10:11:28.000Z</time>
      </trkpt>
      <trkpt lat="49.74849" lon="4.84671">
        <ele>220</ele>
        <time>2020-10-31T10:11:29.000Z</time>
      </trkpt>
      <trkpt lat="49.7485" lon="4.84673">
        <ele>220</ele>
        <time>2020-10-31T10:11:30.000Z</time>
      </trkpt>
      <trkpt lat="49.74851" lon="4.84676">
        <ele>221</ele>
        <time>2020-10-31T10:11:31.000Z</time>
      </trkpt>
      <trkpt lat="49.74852" lon="4.8468">
        <ele>221</ele>
        <time>2020-10-31T10:11:32.000Z</time>
      </trkpt>
      <trkpt lat="49.74854" lon="4.84684">
        <ele>221</ele>
        <time>2020-10-31T10:11:33.000Z</time>
      </trkpt>
      <trkpt lat="49.74857" lon="4.84689">
        <ele>221</ele>
        <time>2020-10-31T10:11:34.000Z</time>
      </trkpt>
      <trkpt lat="49.7486" lon="4.84695">
        <ele>221</ele>
        <time>2020-10-31T10:11:35.000Z</time>
      </trkpt>
      <trkpt lat="49.74862" lon="4.84701">
        <ele>221</ele>
        <time>2020-10-31T10:11:36.000Z</time>
      </trkpt>
      <trkpt lat="49.74866" lon="4.84708">
        <ele>221</ele>
        <time>2020-10-31T10:11:37.000Z</time>
      </trkpt>
      <trkpt lat="49.74869" lon="4.84716">
        <ele>221</ele>
        <time>2020-10-31T10:11:38.000Z</time>
      </trkpt>
      <trkpt lat="49.74872" lon="4.84723">
        <ele>221</ele>
        <time>2020-10-31T10:11:39.000Z</time>
      </trkpt>
      <trkpt lat="49.74874" lon="4.8473">
        <ele>221</ele>
        <time>2020-10-31T10:11:40.000Z</time>
      </trkpt>
      <trkpt lat="49.74876" lon="4.84736">
        <ele>221</ele>
        <time>2020-10-31T10:11:41.000Z</time>
      </trkpt>
      <trkpt lat="49.74877" lon="4.84742">
        <ele>221</ele>
        <time>2020-10-31T10:11:42.000Z</time>
      </trkpt>
      <trkpt lat="49.74877" lon="4.84747">
        <ele>221</ele>
        <time>2020-10-31T10:11:43.000Z</time>
      </trkpt>
      <trkpt lat="49.74878" lon="4.84752">
        <ele>220</ele>
        <time>2020-10-31T10:11:44.000Z</time>
      </trkpt>
      <trkpt lat="49.74878" lon="4.84756">
        <ele>220</ele>
        <time>2020-10-31T10:11:45.000Z</time>
      </trkpt>
      <trkpt lat="49.74879" lon="4.84761">
        <ele>220</ele>
        <time>2020-10-31T10:11:46.000Z</time>
      </trkpt>
      <trkpt lat="49.74879" lon="4.84766">
        <ele>220</ele>
        <time>2020-10-31T10:11:47.000Z</time>
      </trkpt>
      <trkpt lat="49.7488" lon="4.84771">
        <ele>220</ele>
        <time>2020-10-31T10:11:48.000Z</time>
      </trkpt>
      <trkpt lat="49.74881" lon="4.84777">
        <ele>220</ele>
        <time>2020-10-31T10:11:49.000Z</time>
      </trkpt>
      <trkpt lat="49.74881" lon="4.84782">
        <ele>220</ele>
        <time>2020-10-31T10:11:50.000Z</time>
      </trkpt>
      <trkpt lat="49.74881" lon="4.84788">
        <ele>220</ele>
        <time>2020-10-31T10:11:51.000Z</time>
      </trkpt>
      <trkpt lat="49.74881" lon="4.84793">
        <ele>220</ele>
        <time>2020-10-31T10:11:52.000Z</time>
      </trkpt>
      <trkpt lat="49.74881" lon="4.84798">
        <ele>221</ele>
        <time>2020-10-31T10:11:53.000Z</time>
      </trkpt>
      <trkpt lat="49.74882" lon="4.84802">
        <ele>221</ele>
        <time>2020-10-31T10:11:54.000Z</time>
      </trkpt>
      <trkpt lat="49.74882" lon="4.84806">
        <ele>221</ele>
        <time>2020-10-31T10:11:55.000Z</time>
      </trkpt>
      <trkpt lat="49.74883" lon="4.84808">
        <ele>221</ele>
        <time>2020-10-31T10:11:56.000Z</time>
      </trkpt>
      <trkpt lat="49.74883" lon="4.84811">
        <ele>221</ele>
        <time>2020-10-31T10:11:57.000Z</time>
      </trkpt>
      <trkpt lat="49.74883" lon="4.84813">
        <ele>221</ele>
        <time>2020-10-31T10:11:58.000Z</time>
      </trkpt>
      <trkpt lat="49.74883" lon="4.84814">
        <ele>221</ele>
        <time>2020-10-31T10:11:59.000Z</time>
      </trkpt>
      <trkpt lat="49.74884" lon="4.84814">
        <ele>221</ele>
        <time>2020-10-31T10:12:00.000Z</time>
      </trkpt>
      <trkpt lat="49.74884" lon="4.84815">
        <ele>221</ele>
        <time>2020-10-31T10:12:01.000Z</time>
      </trkpt>
      <trkpt lat="49.74884" lon="4.84815">
        <ele>221</ele>
        <time>2020-10-31T10:12:02.000Z</time>
      </trkpt>
      <trkpt lat="49.74884" lon="4.84816">
        <ele>222</ele>
        <time>2020-10-31T10:12:03.000Z</time>
      </trkpt>
      <trkpt lat="49.74884" lon="4.84818">
        <ele>222</ele>
        <time>2020-10-31T10:12:04.000Z</time>
      </trkpt>
      <trkpt lat="49.74884" lon="4.84819">
        <ele>222</ele>
        <time>2020-10-31T10:12:05.000Z</time>
      </trkpt>
      <trkpt lat="49.74884" lon="4.84821">
        <ele>222</ele>
        <time>2020-10-31T10:12:06.000Z</time>
      </trkpt>
      <trkpt lat="49.74884" lon="4.84823">
        <ele>222</ele>
        <time>2020-10-31T10:12:07.000Z</time>
      </trkpt>
      <trkpt lat="49.74885" lon="4.84824">
        <ele>222</ele>
        <time>2020-10-31T10:12:08.000Z</time>
      </trkpt>
      <trkpt lat="49.74885" lon="4.84826">
        <ele>222</ele>
        <time>2020-10-31T10:12:09.000Z</time>
      </trkpt>
      <trkpt lat="49.74885" lon="4.84828">
        <ele>222</ele>
        <time>2020-10-31T10:12:10.000Z</time>
      </trkpt>
      <trkpt lat="49.74886" lon="4.84829">
        <ele>223</ele>
        <time>2020-10-31T10:12:11.000Z</time>
      </trkpt>
      <trkpt lat="49.74886" lon="4.8483">
        <ele>223</ele>
        <time>2020-10-31T10:12:12.000Z</time>
      </trkpt>
      <trkpt lat="49.74886" lon="4.8483">
        <ele>223</ele>
        <time>2020-10-31T10:12:13.000Z</time>
      </trkpt>
      <trkpt lat="49.74886" lon="4.84831">
        <ele>223</ele>
        <time>2020-10-31T10:12:14.000Z</time>
      </trkpt>
      <trkpt lat="49.74887" lon="4.84833">
        <ele>223</ele>
        <time>2020-10-31T10:12:15.000Z</time>
      </trkpt>
      <trkpt lat="49.74887" lon="4.84835">
        <ele>224</ele>
        <time>2020-10-31T10:12:16.000Z</time>
      </trkpt>
      <trkpt lat="49.74888" lon="4.84837">
        <ele>224</ele>
        <time>2020-10-31T10:12:17.000Z</time>
      </trkpt>
      <trkpt lat="49.74889" lon="4.8484">
        <ele>224</ele>
        <time>2020-10-31T10:12:18.000Z</time>
      </trkpt>
      <trkpt lat="49.7489" lon="4.84842">
        <ele>224</ele>
        <time>2020-10-31T10:12:19.000Z</time>
      </trkpt>
      <trkpt lat="49.74892" lon="4.84846">
        <ele>224</ele>
        <time>2020-10-31T10:12:20.000Z</time>
      </trkpt>
      <trkpt lat="49.74893" lon="4.84848">
        <ele>224</ele>
        <time>2020-10-31T10:12:21.000Z</time>
      </trkpt>
      <trkpt lat="49.74895" lon="4.84852">
        <ele>224</ele>
        <time>2020-10-31T10:12:22.000Z</time>
      </trkpt>
      <trkpt lat="49.74896" lon="4.84855">
        <ele>224</ele>
        <time>2020-10-31T10:12:23.000Z</time>
      </trkpt>
      <trkpt lat="49.74898" lon="4.84858">
        <ele>224</ele>
        <time>2020-10-31T10:12:24.000Z</time>
      </trkpt>
      <trkpt lat="49.74898" lon="4.84862">
        <ele>224</ele>
        <time>2020-10-31T10:12:25.000Z</time>
      </trkpt>
      <trkpt lat="49.74898" lon="4.84865">
        <ele>224</ele>
        <time>2020-10-31T10:12:26.000Z</time>
      </trkpt>
      <trkpt lat="49.74898" lon="4.84868">
        <ele>224</ele>
        <time>2020-10-31T10:12:27.000Z</time>
      </trkpt>
      <trkpt lat="49.74898" lon="4.8487">
        <ele>224</ele>
        <time>2020-10-31T10:12:28.000Z</time>
      </trkpt>
      <trkpt lat="49.74898" lon="4.84873">
        <ele>224</ele>
        <time>2020-10-31T10:12:29.000Z</time>
      </trkpt>
      <trkpt lat="49.74898" lon="4.84877">
        <ele>224</ele>
        <time>2020-10-31T10:12:30.000Z</time>
      </trkpt>
      <trkpt lat="49.74898" lon="4.84881">
        <ele>224</ele>
        <time>2020-10-31T10:12:31.000Z</time>
      </trkpt>
      <trkpt lat="49.74899" lon="4.84884">
        <ele>224</ele>
        <time>2020-10-31T10:12:32.000Z</time>
      </trkpt>
      <trkpt lat="49.749" lon="4.84887">
        <ele>224</ele>
        <time>2020-10-31T10:12:33.000Z</time>
      </trkpt>
      <trkpt lat="49.749" lon="4.84891">
        <ele>224</ele>
        <time>2020-10-31T10:12:34.000Z</time>
      </trkpt>
      <trkpt lat="49.749" lon="4.84895">
        <ele>224</ele>
        <time>2020-10-31T10:12:35.000Z</time>
      </trkpt>
      <trkpt lat="49.74901" lon="4.849">
        <ele>224</ele>
        <time>2020-10-31T10:12:36.000Z</time>
      </trkpt>
      <trkpt lat="49.74901" lon="4.84904">
        <ele>224</ele>
        <time>2020-10-31T10:12:37.000Z</time>
      </trkpt>
      <trkpt lat="49.749" lon="4.84909">
        <ele>223</ele>
        <time>2020-10-31T10:12:38.000Z</time>
      </trkpt>
      <trkpt lat="49.74899" lon="4.84913">
        <ele>223</ele>
        <time>2020-10-31T10:12:39.000Z</time>
      </trkpt>
      <trkpt lat="49.74898" lon="4.84918">
        <ele>223</ele>
        <time>2020-10-31T10:12:40.000Z</time>
      </trkpt>
      <trkpt lat="49.74897" lon="4.84922">
        <ele>223</ele>
        <time>2020-10-31T10:12:41.000Z</time>
      </trkpt>
      <trkpt lat="49.74896" lon="4.84926">
        <ele>223</ele>
        <time>2020-10-31T10:12:42.000Z</time>
      </trkpt>
      <trkpt lat="49.74895" lon="4.84929">
        <ele>223</ele>
        <time>2020-10-31T10:12:43.000Z</time>
      </trkpt>
      <trkpt lat="49.74893" lon="4.84931">
        <ele>223</ele>
        <time>2020-10-31T10:12:44.000Z</time>
      </trkpt>
      <trkpt lat="49.74892" lon="4.84934">
        <ele>223</ele>
        <time>2020-10-31T10:12:45.000Z</time>
      </trkpt>
      <trkpt lat="49.74891" lon="4.84937">
        <ele>223</ele>
        <time>2020-10-31T10:12:46.000Z</time>
      </trkpt>
      <trkpt lat="49.74889" lon="4.8494">
        <ele>223</ele>
        <time>2020-10-31T10:12:47.000Z</time>
      </trkpt>
      <trkpt lat="49.74888" lon="4.84943">
        <ele>223</ele>
        <time>2020-10-31T10:12:48.000Z</time>
      </trkpt>
      <trkpt lat="49.74886" lon="4.84945">
        <ele>223</ele>
        <time>2020-10-31T10:12:49.000Z</time>
      </trkpt>
      <trkpt lat="49.74884" lon="4.84948">
        <ele>223</ele>
        <time>2020-10-31T10:12:50.000Z</time>
      </trkpt>
      <trkpt lat="49.74883" lon="4.8495">
        <ele>223</ele>
        <time>2020-10-31T10:12:51.000Z</time>
      </trkpt>
      <trkpt lat="49.74882" lon="4.84952">
        <ele>223</ele>
        <time>2020-10-31T10:12:52.000Z</time>
      </trkpt>
      <trkpt lat="49.7488" lon="4.84954">
        <ele>223</ele>
        <time>2020-10-31T10:12:53.000Z</time>
      </trkpt>
      <trkpt lat="49.74878" lon="4.84955">
        <ele>223</ele>
        <time>2020-10-31T10:12:54.000Z</time>
      </trkpt>
      <trkpt lat="49.74877" lon="4.84957">
        <ele>223</ele>
        <time>2020-10-31T10:12:55.000Z</time>
      </trkpt>
      <trkpt lat="49.74874" lon="4.8496">
        <ele>222</ele>
        <time>2020-10-31T10:12:56.000Z</time>
      </trkpt>
      <trkpt lat="49.74872" lon="4.84963">
        <ele>222</ele>
        <time>2020-10-31T10:12:57.000Z</time>
      </trkpt>
      <trkpt lat="49.7487" lon="4.84968">
        <ele>222</ele>
        <time>2020-10-31T10:12:58.000Z</time>
      </trkpt>
      <trkpt lat="49.74867" lon="4.84973">
        <ele>222</ele>
        <time>2020-10-31T10:12:59.000Z</time>
      </trkpt>
      <trkpt lat="49.74864" lon="4.84978">
        <ele>221</ele>
        <time>2020-10-31T10:13:00.000Z</time>
      </trkpt>
      <trkpt lat="49.74861" lon="4.84982">
        <ele>221</ele>
        <time>2020-10-31T10:13:01.000Z</time>
      </trkpt>
      <trkpt lat="49.74859" lon="4.84985">
        <ele>221</ele>
        <time>2020-10-31T10:13:02.000Z</time>
      </trkpt>
      <trkpt lat="49.74857" lon="4.84986">
        <ele>221</ele>
        <time>2020-10-31T10:13:03.000Z</time>
      </trkpt>
      <trkpt lat="49.74855" lon="4.84988">
        <ele>221</ele>
        <time>2020-10-31T10:13:04.000Z</time>
      </trkpt>
      <trkpt lat="49.74853" lon="4.8499">
        <ele>221</ele>
        <time>2020-10-31T10:13:05.000Z</time>
      </trkpt>
      <trkpt lat="49.7485" lon="4.84991">
        <ele>222</ele>
        <time>2020-10-31T10:13:06.000Z</time>
      </trkpt>
      <trkpt lat="49.74848" lon="4.84994">
        <ele>222</ele>
        <time>2020-10-31T10:13:07.000Z</time>
      </trkpt>
      <trkpt lat="49.74846" lon="4.84996">
        <ele>222</ele>
        <time>2020-10-31T10:13:08.000Z</time>
      </trkpt>
      <trkpt lat="49.74843" lon="4.84999">
        <ele>222</ele>
        <time>2020-10-31T10:13:09.000Z</time>
      </trkpt>
      <trkpt lat="49.7484" lon="4.85003">
        <ele>222</ele>
        <time>2020-10-31T10:13:10.000Z</time>
      </trkpt>
      <trkpt lat="49.74836" lon="4.85006">
        <ele>222</ele>
        <time>2020-10-31T10:13:11.000Z</time>
      </trkpt>
      <trkpt lat="49.74833" lon="4.85009">
        <ele>222</ele>
        <time>2020-10-31T10:13:12.000Z</time>
      </trkpt>
      <trkpt lat="49.7483" lon="4.85012">
        <ele>222</ele>
        <time>2020-10-31T10:13:13.000Z</time>
      </trkpt>
      <trkpt lat="49.74827" lon="4.85016">
        <ele>222</ele>
        <time>2020-10-31T10:13:14.000Z</time>
      </trkpt>
      <trkpt lat="49.74825" lon="4.85019">
        <ele>223</ele>
        <time>2020-10-31T10:13:15.000Z</time>
      </trkpt>
      <trkpt lat="49.74823" lon="4.85021">
        <ele>223</ele>
        <time>2020-10-31T10:13:16.000Z</time>
      </trkpt>
      <trkpt lat="49.74821" lon="4.85023">
        <ele>223</ele>
        <time>2020-10-31T10:13:17.000Z</time>
      </trkpt>
      <trkpt lat="49.74819" lon="4.85025">
        <ele>223</ele>
        <time>2020-10-31T10:13:18.000Z</time>
      </trkpt>
      <trkpt lat="49.74817" lon="4.85028">
        <ele>223</ele>
        <time>2020-10-31T10:13:19.000Z</time>
      </trkpt>
      <trkpt lat="49.74815" lon="4.8503">
        <ele>223</ele>
        <time>2020-10-31T10:13:20.000Z</time>
      </trkpt>
      <trkpt lat="49.74812" lon="4.85034">
        <ele>223</ele>
        <time>2020-10-31T10:13:21.000Z</time>
      </trkpt>
      <trkpt lat="49.7481" lon="4.85036">
        <ele>223</ele>
        <time>2020-10-31T10:13:22.000Z</time>
      </trkpt>
      <trkpt lat="49.74807" lon="4.85039">
        <ele>223</ele>
        <time>2020-10-31T10:13:23.000Z</time>
      </trkpt>
      <trkpt lat="49.74805" lon="4.85044">
        <ele>223</ele>
        <time>2020-10-31T10:13:24.000Z</time>
      </trkpt>
      <trkpt lat="49.74803" lon="4.85047">
        <ele>223</ele>
        <time>2020-10-31T10:13:25.000Z</time>
      </trkpt>
      <trkpt lat="49.74801" lon="4.8505">
        <ele>223</ele>
        <time>2020-10-31T10:13:26.000Z</time>
      </trkpt>
      <trkpt lat="49.74799" lon="4.85054">
        <ele>223</ele>
        <time>2020-10-31T10:13:27.000Z</time>
      </trkpt>
      <trkpt lat="49.74797" lon="4.85058">
        <ele>224</ele>
        <time>2020-10-31T10:13:28.000Z</time>
      </trkpt>
      <trkpt lat="49.74794" lon="4.85063">
        <ele>224</ele>
        <time>2020-10-31T10:13:29.000Z</time>
      </trkpt>
      <trkpt lat="49.74792" lon="4.85067">
        <ele>224</ele>
        <time>2020-10-31T10:13:30.000Z</time>
      </trkpt>
      <trkpt lat="49.74789" lon="4.8507">
        <ele>224</ele>
        <time>2020-10-31T10:13:31.000Z</time>
      </trkpt>
      <trkpt lat="49.74787" lon="4.85074">
        <ele>224</ele>
        <time>2020-10-31T10:13:32.000Z</time>
      </trkpt>
      <trkpt lat="49.74785" lon="4.85078">
        <ele>224</ele>
        <time>2020-10-31T10:13:33.000Z</time>
      </trkpt>
      <trkpt lat="49.74783" lon="4.85082">
        <ele>224</ele>
        <time>2020-10-31T10:13:34.000Z</time>
      </trkpt>
      <trkpt lat="49.74781" lon="4.85085">
        <ele>224</ele>
        <time>2020-10-31T10:13:35.000Z</time>
      </trkpt>
      <trkpt lat="49.74778" lon="4.8509">
        <ele>224</ele>
        <time>2020-10-31T10:13:36.000Z</time>
      </trkpt>
      <trkpt lat="49.74776" lon="4.85094">
        <ele>224</ele>
        <time>2020-10-31T10:13:37.000Z</time>
      </trkpt>
      <trkpt lat="49.74773" lon="4.85099">
        <ele>224</ele>
        <time>2020-10-31T10:13:38.000Z</time>
      </trkpt>
      <trkpt lat="49.74771" lon="4.85104">
        <ele>224</ele>
        <time>2020-10-31T10:13:39.000Z</time>
      </trkpt>
      <trkpt lat="49.74768" lon="4.85109">
        <ele>224</ele>
        <time>2020-10-31T10:13:40.000Z</time>
      </trkpt>
      <trkpt lat="49.74765" lon="4.85114">
        <ele>225</ele>
        <time>2020-10-31T10:13:41.000Z</time>
      </trkpt>
      <trkpt lat="49.74763" lon="4.85118">
        <ele>225</ele>
        <time>2020-10-31T10:13:42.000Z</time>
      </trkpt>
      <trkpt lat="49.74761" lon="4.8512">
        <ele>225</ele>
        <time>2020-10-31T10:13:43.000Z</time>
      </trkpt>
      <trkpt lat="49.74759" lon="4.85123">
        <ele>225</ele>
        <time>2020-10-31T10:13:44.000Z</time>
      </trkpt>
      <trkpt lat="49.74757" lon="4.85125">
        <ele>225</ele>
        <time>2020-10-31T10:13:45.000Z</time>
      </trkpt>
      <trkpt lat="49.74755" lon="4.85127">
        <ele>225</ele>
        <time>2020-10-31T10:13:46.000Z</time>
      </trkpt>
      <trkpt lat="49.74754" lon="4.85129">
        <ele>225</ele>
        <time>2020-10-31T10:13:47.000Z</time>
      </trkpt>
      <trkpt lat="49.74752" lon="4.85131">
        <ele>225</ele>
        <time>2020-10-31T10:13:48.000Z</time>
      </trkpt>
      <trkpt lat="49.7475" lon="4.85133">
        <ele>225</ele>
        <time>2020-10-31T10:13:49.000Z</time>
      </trkpt>
      <trkpt lat="49.74748" lon="4.85134">
        <ele>226</ele>
        <time>2020-10-31T10:13:50.000Z</time>
      </trkpt>
      <trkpt lat="49.74746" lon="4.85136">
        <ele>226</ele>
        <time>2020-10-31T10:13:51.000Z</time>
      </trkpt>
      <trkpt lat="49.74744" lon="4.85137">
        <ele>226</ele>
        <time>2020-10-31T10:13:52.000Z</time>
      </trkpt>
      <trkpt lat="49.74742" lon="4.85138">
        <ele>226</ele>
        <time>2020-10-31T10:13:53.000Z</time>
      </trkpt>
      <trkpt lat="49.7474" lon="4.85139">
        <ele>226</ele>
        <time>2020-10-31T10:13:54.000Z</time>
      </trkpt>
      <trkpt lat="49.74738" lon="4.85141">
        <ele>226</ele>
        <time>2020-10-31T10:13:55.000Z</time>
      </trkpt>
      <trkpt lat="49.74735" lon="4.85142">
        <ele>227</ele>
        <time>2020-10-31T10:13:56.000Z</time>
      </trkpt>
      <trkpt lat="49.74733" lon="4.85143">
        <ele>227</ele>
        <time>2020-10-31T10:13:57.000Z</time>
      </trkpt>
      <trkpt lat="49.7473" lon="4.85144">
        <ele>227</ele>
        <time>2020-10-31T10:13:58.000Z</time>
      </trkpt>
      <trkpt lat="49.74727" lon="4.85145">
        <ele>227</ele>
        <time>2020-10-31T10:13:59.000Z</time>
      </trkpt>
      <trkpt lat="49.74723" lon="4.85145">
        <ele>227</ele>
        <time>2020-10-31T10:14:00.000Z</time>
      </trkpt>
      <trkpt lat="49.7472" lon="4.85145">
        <ele>227</ele>
        <time>2020-10-31T10:14:01.000Z</time>
      </trkpt>
      <trkpt lat="49.74718" lon="4.85144">
        <ele>227</ele>
        <time>2020-10-31T10:14:02.000Z</time>
      </trkpt>
      <trkpt lat="49.74715" lon="4.85144">
        <ele>227</ele>
        <time>2020-10-31T10:14:03.000Z</time>
      </trkpt>
      <trkpt lat="49.74713" lon="4.85144">
        <ele>227</ele>
        <time>2020-10-31T10:14:04.000Z</time>
      </trkpt>
      <trkpt lat="49.7471" lon="4.85144">
        <ele>227</ele>
        <time>2020-10-31T10:14:05.000Z</time>
      </trkpt>
      <trkpt lat="49.74708" lon="4.85143">
        <ele>227</ele>
        <time>2020-10-31T10:14:06.000Z</time>
      </trkpt>
      <trkpt lat="49.74706" lon="4.85143">
        <ele>228</ele>
        <time>2020-10-31T10:14:07.000Z</time>
      </trkpt>
      <trkpt lat="49.74704" lon="4.85143">
        <ele>228</ele>
        <time>2020-10-31T10:14:08.000Z</time>
      </trkpt>
      <trkpt lat="49.74702" lon="4.85142">
        <ele>228</ele>
        <time>2020-10-31T10:14:09.000Z</time>
      </trkpt>
      <trkpt lat="49.747" lon="4.85141">
        <ele>228</ele>
        <time>2020-10-31T10:14:10.000Z</time>
      </trkpt>
      <trkpt lat="49.74698" lon="4.85141">
        <ele>228</ele>
        <time>2020-10-31T10:14:11.000Z</time>
      </trkpt>
      <trkpt lat="49.74696" lon="4.8514">
        <ele>228</ele>
        <time>2020-10-31T10:14:12.000Z</time>
      </trkpt>
      <trkpt lat="49.74694" lon="4.85139">
        <ele>228</ele>
        <time>2020-10-31T10:14:13.000Z</time>
      </trkpt>
      <trkpt lat="49.74692" lon="4.85138">
        <ele>228</ele>
        <time>2020-10-31T10:14:14.000Z</time>
      </trkpt>
      <trkpt lat="49.7469" lon="4.85136">
        <ele>228</ele>
        <time>2020-10-31T10:14:15.000Z</time>
      </trkpt>
      <trkpt lat="49.74688" lon="4.85135">
        <ele>228</ele>
        <time>2020-10-31T10:14:16.000Z</time>
      </trkpt>
      <trkpt lat="49.74686" lon="4.85133">
        <ele>229</ele>
        <time>2020-10-31T10:14:17.000Z</time>
      </trkpt>
      <trkpt lat="49.74685" lon="4.85131">
        <ele>229</ele>
        <time>2020-10-31T10:14:18.000Z</time>
      </trkpt>
      <trkpt lat="49.74684" lon="4.85129">
        <ele>229</ele>
        <time>2020-10-31T10:14:19.000Z</time>
      </trkpt>
      <trkpt lat="49.74683" lon="4.85127">
        <ele>229</ele>
        <time>2020-10-31T10:14:20.000Z</time>
      </trkpt>
      <trkpt lat="49.74683" lon="4.85124">
        <ele>229</ele>
        <time>2020-10-31T10:14:21.000Z</time>
      </trkpt>
      <trkpt lat="49.74683" lon="4.85123">
        <ele>229</ele>
        <time>2020-10-31T10:14:22.000Z</time>
      </trkpt>
      <trkpt lat="49.74682" lon="4.85121">
        <ele>229</ele>
        <time>2020-10-31T10:14:23.000Z</time>
      </trkpt>
      <trkpt lat="49.74682" lon="4.85119">
        <ele>230</ele>
        <time>2020-10-31T10:14:24.000Z</time>
      </trkpt>
      <trkpt lat="49.74682" lon="4.85117">
        <ele>230</ele>
        <time>2020-10-31T10:14:25.000Z</time>
      </trkpt>
      <trkpt lat="49.74681" lon="4.85114">
        <ele>230</ele>
        <time>2020-10-31T10:14:26.000Z</time>
      </trkpt>
      <trkpt lat="49.74681" lon="4.85111">
        <ele>230</ele>
        <time>2020-10-31T10:14:27.000Z</time>
      </trkpt>
      <trkpt lat="49.7468" lon="4.85108">
        <ele>231</ele>
        <time>2020-10-31T10:14:28.000Z</time>
      </trkpt>
      <trkpt lat="49.74679" lon="4.85105">
        <ele>231</ele>
        <time>2020-10-31T10:14:29.000Z</time>
      </trkpt>
      <trkpt lat="49.74679" lon="4.85102">
        <ele>231</ele>
        <time>2020-10-31T10:14:30.000Z</time>
      </trkpt>
      <trkpt lat="49.74679" lon="4.85099">
        <ele>231</ele>
        <time>2020-10-31T10:14:31.000Z</time>
      </trkpt>
      <trkpt lat="49.74678" lon="4.85097">
        <ele>232</ele>
        <time>2020-10-31T10:14:32.000Z</time>
      </trkpt>
      <trkpt lat="49.74677" lon="4.85094">
        <ele>232</ele>
        <time>2020-10-31T10:14:33.000Z</time>
      </trkpt>
      <trkpt lat="49.74677" lon="4.85091">
        <ele>232</ele>
        <time>2020-10-31T10:14:34.000Z</time>
      </trkpt>
      <trkpt lat="49.74677" lon="4.85088">
        <ele>232</ele>
        <time>2020-10-31T10:14:35.000Z</time>
      </trkpt>
      <trkpt lat="49.74676" lon="4.85086">
        <ele>233</ele>
        <time>2020-10-31T10:14:36.000Z</time>
      </trkpt>
      <trkpt lat="49.74675" lon="4.85085">
        <ele>233</ele>
        <time>2020-10-31T10:14:37.000Z</time>
      </trkpt>
      <trkpt lat="49.74675" lon="4.85083">
        <ele>233</ele>
        <time>2020-10-31T10:14:38.000Z</time>
      </trkpt>
      <trkpt lat="49.74674" lon="4.85081">
        <ele>233</ele>
        <time>2020-10-31T10:14:39.000Z</time>
      </trkpt>
      <trkpt lat="49.74673" lon="4.85078">
        <ele>233</ele>
        <time>2020-10-31T10:14:40.000Z</time>
      </trkpt>
      <trkpt lat="49.74673" lon="4.85076">
        <ele>234</ele>
        <time>2020-10-31T10:14:41.000Z</time>
      </trkpt>
      <trkpt lat="49.74672" lon="4.85074">
        <ele>234</ele>
        <time>2020-10-31T10:14:42.000Z</time>
      </trkpt>
      <trkpt lat="49.74671" lon="4.85072">
        <ele>234</ele>
        <time>2020-10-31T10:14:43.000Z</time>
      </trkpt>
      <trkpt lat="49.7467" lon="4.8507">
        <ele>234</ele>
        <time>2020-10-31T10:14:44.000Z</time>
      </trkpt>
      <trkpt lat="49.74669" lon="4.85067">
        <ele>234</ele>
        <time>2020-10-31T10:14:45.000Z</time>
      </trkpt>
      <trkpt lat="49.74669" lon="4.85065">
        <ele>234</ele>
        <time>2020-10-31T10:14:46.000Z</time>
      </trkpt>
      <trkpt lat="49.74668" lon="4.85062">
        <ele>235</ele>
        <time>2020-10-31T10:14:47.000Z</time>
      </trkpt>
      <trkpt lat="49.74668" lon="4.85059">
        <ele>235</ele>
        <time>2020-10-31T10:14:48.000Z</time>
      </trkpt>
      <trkpt lat="49.74668" lon="4.85056">
        <ele>235</ele>
        <time>2020-10-31T10:14:49.000Z</time>
      </trkpt>
      <trkpt lat="49.74668" lon="4.85053">
        <ele>235</ele>
        <time>2020-10-31T10:14:50.000Z</time>
      </trkpt>
      <trkpt lat="49.74669" lon="4.85051">
        <ele>235</ele>
        <time>2020-10-31T10:14:51.000Z</time>
      </trkpt>
      <trkpt lat="49.7467" lon="4.85049">
        <ele>236</ele>
        <time>2020-10-31T10:14:52.000Z</time>
      </trkpt>
      <trkpt lat="49.74671" lon="4.85046">
        <ele>236</ele>
        <time>2020-10-31T10:14:53.000Z</time>
      </trkpt>
      <trkpt lat="49.74672" lon="4.85043">
        <ele>236</ele>
        <time>2020-10-31T10:14:54.000Z</time>
      </trkpt>
      <trkpt lat="49.74673" lon="4.85041">
        <ele>236</ele>
        <time>2020-10-31T10:14:55.000Z</time>
      </trkpt>
      <trkpt lat="49.74674" lon="4.85039">
        <ele>236</ele>
        <time>2020-10-31T10:14:56.000Z</time>
      </trkpt>
      <trkpt lat="49.74675" lon="4.85037">
        <ele>236</ele>
        <time>2020-10-31T10:14:57.000Z</time>
      </trkpt>
      <trkpt lat="49.74676" lon="4.85034">
        <ele>236</ele>
        <time>2020-10-31T10:14:58.000Z</time>
      </trkpt>
      <trkpt lat="49.74677" lon="4.85032">
        <ele>237</ele>
        <time>2020-10-31T10:14:59.000Z</time>
      </trkpt>
      <trkpt lat="49.74678" lon="4.8503">
        <ele>237</ele>
        <time>2020-10-31T10:15:00.000Z</time>
      </trkpt>
      <trkpt lat="49.74679" lon="4.85027">
        <ele>237</ele>
        <time>2020-10-31T10:15:01.000Z</time>
      </trkpt>
      <trkpt lat="49.74679" lon="4.85024">
        <ele>237</ele>
        <time>2020-10-31T10:15:02.000Z</time>
      </trkpt>
      <trkpt lat="49.7468" lon="4.85023">
        <ele>237</ele>
        <time>2020-10-31T10:15:03.000Z</time>
      </trkpt>
      <trkpt lat="49.74681" lon="4.85021">
        <ele>237</ele>
        <time>2020-10-31T10:15:04.000Z</time>
      </trkpt>
      <trkpt lat="49.74682" lon="4.85018">
        <ele>237</ele>
        <time>2020-10-31T10:15:05.000Z</time>
      </trkpt>
      <trkpt lat="49.74683" lon="4.85015">
        <ele>237</ele>
        <time>2020-10-31T10:15:06.000Z</time>
      </trkpt>
      <trkpt lat="49.74685" lon="4.85012">
        <ele>237</ele>
        <time>2020-10-31T10:15:07.000Z</time>
      </trkpt>
      <trkpt lat="49.74686" lon="4.85008">
        <ele>237</ele>
        <time>2020-10-31T10:15:08.000Z</time>
      </trkpt>
      <trkpt lat="49.74686" lon="4.85005">
        <ele>238</ele>
        <time>2020-10-31T10:15:09.000Z</time>
      </trkpt>
      <trkpt lat="49.74687" lon="4.85001">
        <ele>238</ele>
        <time>2020-10-31T10:15:10.000Z</time>
      </trkpt>
      <trkpt lat="49.74687" lon="4.84998">
        <ele>238</ele>
        <time>2020-10-31T10:15:11.000Z</time>
      </trkpt>
      <trkpt lat="49.74687" lon="4.84994">
        <ele>238</ele>
        <time>2020-10-31T10:15:12.000Z</time>
      </trkpt>
      <trkpt lat="49.74687" lon="4.84991">
        <ele>239</ele>
        <time>2020-10-31T10:15:13.000Z</time>
      </trkpt>
      <trkpt lat="49.74687" lon="4.84987">
        <ele>239</ele>
        <time>2020-10-31T10:15:14.000Z</time>
      </trkpt>
      <trkpt lat="49.74687" lon="4.84983">
        <ele>240</ele>
        <time>2020-10-31T10:15:15.000Z</time>
      </trkpt>
      <trkpt lat="49.74687" lon="4.84979">
        <ele>240</ele>
        <time>2020-10-31T10:15:16.000Z</time>
      </trkpt>
      <trkpt lat="49.74687" lon="4.84975">
        <ele>240</ele>
        <time>2020-10-31T10:15:17.000Z</time>
      </trkpt>
      <trkpt lat="49.74686" lon="4.84971">
        <ele>240</ele>
        <time>2020-10-31T10:15:18.000Z</time>
      </trkpt>
      <trkpt lat="49.74685" lon="4.84967">
        <ele>241</ele>
        <time>2020-10-31T10:15:19.000Z</time>
      </trkpt>
      <trkpt lat="49.74685" lon="4.84964">
        <ele>241</ele>
        <time>2020-10-31T10:15:20.000Z</time>
      </trkpt>
      <trkpt lat="49.74685" lon="4.84961">
        <ele>241</ele>
        <time>2020-10-31T10:15:21.000Z</time>
      </trkpt>
      <trkpt lat="49.74686" lon="4.84959">
        <ele>241</ele>
        <time>2020-10-31T10:15:22.000Z</time>
      </trkpt>
      <trkpt lat="49.74686" lon="4.84958">
        <ele>242</ele>
        <time>2020-10-31T10:15:23.000Z</time>
      </trkpt>
      <trkpt lat="49.74685" lon="4.84956">
        <ele>242</ele>
        <time>2020-10-31T10:15:24.000Z</time>
      </trkpt>
      <trkpt lat="49.74684" lon="4.84953">
        <ele>242</ele>
        <time>2020-10-31T10:15:25.000Z</time>
      </trkpt>
      <trkpt lat="49.74683" lon="4.8495">
        <ele>243</ele>
        <time>2020-10-31T10:15:26.000Z</time>
      </trkpt>
      <trkpt lat="49.74682" lon="4.84948">
        <ele>243</ele>
        <time>2020-10-31T10:15:27.000Z</time>
      </trkpt>
      <trkpt lat="49.74681" lon="4.84946">
        <ele>243</ele>
        <time>2020-10-31T10:15:28.000Z</time>
      </trkpt>
      <trkpt lat="49.74681" lon="4.84945">
        <ele>243</ele>
        <time>2020-10-31T10:15:29.000Z</time>
      </trkpt>
      <trkpt lat="49.7468" lon="4.84943">
        <ele>243</ele>
        <time>2020-10-31T10:15:30.000Z</time>
      </trkpt>
      <trkpt lat="49.7468" lon="4.84941">
        <ele>244</ele>
        <time>2020-10-31T10:15:31.000Z</time>
      </trkpt>
      <trkpt lat="49.74681" lon="4.8494">
        <ele>244</ele>
        <time>2020-10-31T10:15:32.000Z</time>
      </trkpt>
      <trkpt lat="49.74682" lon="4.84941">
        <ele>244</ele>
        <time>2020-10-31T10:15:33.000Z</time>
      </trkpt>
      <trkpt lat="49.74683" lon="4.84942">
        <ele>244</ele>
        <time>2020-10-31T10:15:34.000Z</time>
      </trkpt>
      <trkpt lat="49.74684" lon="4.84945">
        <ele>244</ele>
        <time>2020-10-31T10:15:35.000Z</time>
      </trkpt>
      <trkpt lat="49.74685" lon="4.84948">
        <ele>244</ele>
        <time>2020-10-31T10:15:36.000Z</time>
      </trkpt>
      <trkpt lat="49.74687" lon="4.8495">
        <ele>245</ele>
        <time>2020-10-31T10:15:37.000Z</time>
      </trkpt>
      <trkpt lat="49.74689" lon="4.84951">
        <ele>245</ele>
        <time>2020-10-31T10:15:38.000Z</time>
      </trkpt>
      <trkpt lat="49.74691" lon="4.84952">
        <ele>245</ele>
        <time>2020-10-31T10:15:39.000Z</time>
      </trkpt>
      <trkpt lat="49.74693" lon="4.84952">
        <ele>245</ele>
        <time>2020-10-31T10:15:40.000Z</time>
      </trkpt>
      <trkpt lat="49.74696" lon="4.84951">
        <ele>245</ele>
        <time>2020-10-31T10:15:41.000Z</time>
      </trkpt>
      <trkpt lat="49.74699" lon="4.84951">
        <ele>246</ele>
        <time>2020-10-31T10:15:42.000Z</time>
      </trkpt>
      <trkpt lat="49.74702" lon="4.84948">
        <ele>246</ele>
        <time>2020-10-31T10:15:43.000Z</time>
      </trkpt>
      <trkpt lat="49.74704" lon="4.84946">
        <ele>246</ele>
        <time>2020-10-31T10:15:44.000Z</time>
      </trkpt>
      <trkpt lat="49.74706" lon="4.84943">
        <ele>246</ele>
        <time>2020-10-31T10:15:45.000Z</time>
      </trkpt>
      <trkpt lat="49.74708" lon="4.84939">
        <ele>246</ele>
        <time>2020-10-31T10:15:46.000Z</time>
      </trkpt>
      <trkpt lat="49.74709" lon="4.84936">
        <ele>246</ele>
        <time>2020-10-31T10:15:47.000Z</time>
      </trkpt>
      <trkpt lat="49.74711" lon="4.84933">
        <ele>247</ele>
        <time>2020-10-31T10:15:48.000Z</time>
      </trkpt>
      <trkpt lat="49.74714" lon="4.8493">
        <ele>247</ele>
        <time>2020-10-31T10:15:49.000Z</time>
      </trkpt>
      <trkpt lat="49.74716" lon="4.84926">
        <ele>247</ele>
        <time>2020-10-31T10:15:50.000Z</time>
      </trkpt>
      <trkpt lat="49.74718" lon="4.84924">
        <ele>247</ele>
        <time>2020-10-31T10:15:51.000Z</time>
      </trkpt>
      <trkpt lat="49.7472" lon="4.8492">
        <ele>247</ele>
        <time>2020-10-31T10:15:52.000Z</time>
      </trkpt>
      <trkpt lat="49.74723" lon="4.84918">
        <ele>247</ele>
        <time>2020-10-31T10:15:53.000Z</time>
      </trkpt>
      <trkpt lat="49.74725" lon="4.84916">
        <ele>247</ele>
        <time>2020-10-31T10:15:54.000Z</time>
      </trkpt>
      <trkpt lat="49.74728" lon="4.84914">
        <ele>247</ele>
        <time>2020-10-31T10:15:55.000Z</time>
      </trkpt>
      <trkpt lat="49.74731" lon="4.84912">
        <ele>247</ele>
        <time>2020-10-31T10:15:56.000Z</time>
      </trkpt>
      <trkpt lat="49.74734" lon="4.84911">
        <ele>247</ele>
        <time>2020-10-31T10:15:57.000Z</time>
      </trkpt>
      <trkpt lat="49.74737" lon="4.8491">
        <ele>248</ele>
        <time>2020-10-31T10:15:58.000Z</time>
      </trkpt>
      <trkpt lat="49.7474" lon="4.84908">
        <ele>248</ele>
        <time>2020-10-31T10:15:59.000Z</time>
      </trkpt>
      <trkpt lat="49.74743" lon="4.84907">
        <ele>248</ele>
        <time>2020-10-31T10:16:00.000Z</time>
      </trkpt>
      <trkpt lat="49.74745" lon="4.84906">
        <ele>248</ele>
        <time>2020-10-31T10:16:01.000Z</time>
      </trkpt>
      <trkpt lat="49.74746" lon="4.84905">
        <ele>248</ele>
        <time>2020-10-31T10:16:02.000Z</time>
      </trkpt>
      <trkpt lat="49.74746" lon="4.84905">
        <ele>248</ele>
        <time>2020-10-31T10:16:03.000Z</time>
      </trkpt>
      <trkpt lat="49.74746" lon="4.84905">
        <ele>248</ele>
        <time>2020-10-31T10:16:04.000Z</time>
      </trkpt>
      <trkpt lat="49.74747" lon="4.84905">
        <ele>249</ele>
        <time>2020-10-31T10:16:05.000Z</time>
      </trkpt>
      <trkpt lat="49.74746" lon="4.84905">
        <ele>249</ele>
        <time>2020-10-31T10:16:06.000Z</time>
      </trkpt>
      <trkpt lat="49.74746" lon="4.84906">
        <ele>249</ele>
        <time>2020-10-31T10:16:07.000Z</time>
      </trkpt>
      <trkpt lat="49.74744" lon="4.84907">
        <ele>249</ele>
        <time>2020-10-31T10:16:08.000Z</time>
      </trkpt>
      <trkpt lat="49.74743" lon="4.84908">
        <ele>249</ele>
        <time>2020-10-31T10:16:09.000Z</time>
      </trkpt>
      <trkpt lat="49.74741" lon="4.84909">
        <ele>249</ele>
        <time>2020-10-31T10:16:10.000Z</time>
      </trkpt>
      <trkpt lat="49.74739" lon="4.84909">
        <ele>249</ele>
        <time>2020-10-31T10:16:11.000Z</time>
      </trkpt>
      <trkpt lat="49.74736" lon="4.8491">
        <ele>249</ele>
        <time>2020-10-31T10:16:12.000Z</time>
      </trkpt>
      <trkpt lat="49.74734" lon="4.8491">
        <ele>249</ele>
        <time>2020-10-31T10:16:13.000Z</time>
      </trkpt>
      <trkpt lat="49.74732" lon="4.84912">
        <ele>249</ele>
        <time>2020-10-31T10:16:14.000Z</time>
      </trkpt>
      <trkpt lat="49.74729" lon="4.84914">
        <ele>249</ele>
        <time>2020-10-31T10:16:15.000Z</time>
      </trkpt>
      <trkpt lat="49.74727" lon="4.84916">
        <ele>249</ele>
        <time>2020-10-31T10:16:16.000Z</time>
      </trkpt>
      <trkpt lat="49.74725" lon="4.84918">
        <ele>249</ele>
        <time>2020-10-31T10:16:17.000Z</time>
      </trkpt>
      <trkpt lat="49.74723" lon="4.84921">
        <ele>249</ele>
        <time>2020-10-31T10:16:18.000Z</time>
      </trkpt>
      <trkpt lat="49.7472" lon="4.84926">
        <ele>249</ele>
        <time>2020-10-31T10:16:19.000Z</time>
      </trkpt>
      <trkpt lat="49.74718" lon="4.84929">
        <ele>249</ele>
        <time>2020-10-31T10:16:20.000Z</time>
      </trkpt>
      <trkpt lat="49.74716" lon="4.84933">
        <ele>249</ele>
        <time>2020-10-31T10:16:21.000Z</time>
      </trkpt>
      <trkpt lat="49.74714" lon="4.84937">
        <ele>249</ele>
        <time>2020-10-31T10:16:22.000Z</time>
      </trkpt>
      <trkpt lat="49.74712" lon="4.84941">
        <ele>249</ele>
        <time>2020-10-31T10:16:23.000Z</time>
      </trkpt>
      <trkpt lat="49.74709" lon="4.84943">
        <ele>249</ele>
        <time>2020-10-31T10:16:24.000Z</time>
      </trkpt>
      <trkpt lat="49.74706" lon="4.84944">
        <ele>249</ele>
        <time>2020-10-31T10:16:25.000Z</time>
      </trkpt>
      <trkpt lat="49.74703" lon="4.84945">
        <ele>249</ele>
        <time>2020-10-31T10:16:26.000Z</time>
      </trkpt>
      <trkpt lat="49.74699" lon="4.84945">
        <ele>249</ele>
        <time>2020-10-31T10:16:27.000Z</time>
      </trkpt>
      <trkpt lat="49.74696" lon="4.84944">
        <ele>249</ele>
        <time>2020-10-31T10:16:28.000Z</time>
      </trkpt>
      <trkpt lat="49.74693" lon="4.84941">
        <ele>248</ele>
        <time>2020-10-31T10:16:29.000Z</time>
      </trkpt>
      <trkpt lat="49.7469" lon="4.84937">
        <ele>248</ele>
        <time>2020-10-31T10:16:30.000Z</time>
      </trkpt>
      <trkpt lat="49.74687" lon="4.84933">
        <ele>248</ele>
        <time>2020-10-31T10:16:31.000Z</time>
      </trkpt>
      <trkpt lat="49.74685" lon="4.84928">
        <ele>248</ele>
        <time>2020-10-31T10:16:32.000Z</time>
      </trkpt>
      <trkpt lat="49.74682" lon="4.84924">
        <ele>248</ele>
        <time>2020-10-31T10:16:33.000Z</time>
      </trkpt>
      <trkpt lat="49.74679" lon="4.8492">
        <ele>248</ele>
        <time>2020-10-31T10:16:34.000Z</time>
      </trkpt>
      <trkpt lat="49.74677" lon="4.84915">
        <ele>248</ele>
        <time>2020-10-31T10:16:35.000Z</time>
      </trkpt>
      <trkpt lat="49.74674" lon="4.84911">
        <ele>249</ele>
        <time>2020-10-31T10:16:36.000Z</time>
      </trkpt>
      <trkpt lat="49.74672" lon="4.84906">
        <ele>249</ele>
        <time>2020-10-31T10:16:37.000Z</time>
      </trkpt>
      <trkpt lat="49.74669" lon="4.84902">
        <ele>249</ele>
        <time>2020-10-31T10:16:38.000Z</time>
      </trkpt>
      <trkpt lat="49.74667" lon="4.84899">
        <ele>249</ele>
        <time>2020-10-31T10:16:39.000Z</time>
      </trkpt>
      <trkpt lat="49.74665" lon="4.84896">
        <ele>249</ele>
        <time>2020-10-31T10:16:40.000Z</time>
      </trkpt>
      <trkpt lat="49.74663" lon="4.84892">
        <ele>249</ele>
        <time>2020-10-31T10:16:41.000Z</time>
      </trkpt>
      <trkpt lat="49.7466" lon="4.84888">
        <ele>249</ele>
        <time>2020-10-31T10:16:42.000Z</time>
      </trkpt>
      <trkpt lat="49.74658" lon="4.84884">
        <ele>249</ele>
        <time>2020-10-31T10:16:43.000Z</time>
      </trkpt>
      <trkpt lat="49.74655" lon="4.84881">
        <ele>250</ele>
        <time>2020-10-31T10:16:44.000Z</time>
      </trkpt>
      <trkpt lat="49.74652" lon="4.84877">
        <ele>250</ele>
        <time>2020-10-31T10:16:45.000Z</time>
      </trkpt>
      <trkpt lat="49.74649" lon="4.84873">
        <ele>250</ele>
        <time>2020-10-31T10:16:46.000Z</time>
      </trkpt>
      <trkpt lat="49.74646" lon="4.84869">
        <ele>250</ele>
        <time>2020-10-31T10:16:47.000Z</time>
      </trkpt>
      <trkpt lat="49.74644" lon="4.84864">
        <ele>250</ele>
        <time>2020-10-31T10:16:48.000Z</time>
      </trkpt>
      <trkpt lat="49.74641" lon="4.8486">
        <ele>250</ele>
        <time>2020-10-31T10:16:49.000Z</time>
      </trkpt>
      <trkpt lat="49.74637" lon="4.84857">
        <ele>250</ele>
        <time>2020-10-31T10:16:50.000Z</time>
      </trkpt>
      <trkpt lat="49.74634" lon="4.84854">
        <ele>250</ele>
        <time>2020-10-31T10:16:51.000Z</time>
      </trkpt>
      <trkpt lat="49.74631" lon="4.84852">
        <ele>250</ele>
        <time>2020-10-31T10:16:52.000Z</time>
      </trkpt>
      <trkpt lat="49.74629" lon="4.8485">
        <ele>250</ele>
        <time>2020-10-31T10:16:53.000Z</time>
      </trkpt>
      <trkpt lat="49.74629" lon="4.84847">
        <ele>250</ele>
        <time>2020-10-31T10:16:54.000Z</time>
      </trkpt>
      <trkpt lat="49.74629" lon="4.84845">
        <ele>250</ele>
        <time>2020-10-31T10:16:55.000Z</time>
      </trkpt>
      <trkpt lat="49.7463" lon="4.84843">
        <ele>250</ele>
        <time>2020-10-31T10:16:56.000Z</time>
      </trkpt>
      <trkpt lat="49.74632" lon="4.84843">
        <ele>250</ele>
        <time>2020-10-31T10:16:57.000Z</time>
      </trkpt>
      <trkpt lat="49.74635" lon="4.84842">
        <ele>250</ele>
        <time>2020-10-31T10:16:58.000Z</time>
      </trkpt>
      <trkpt lat="49.74638" lon="4.84842">
        <ele>250</ele>
        <time>2020-10-31T10:16:59.000Z</time>
      </trkpt>
      <trkpt lat="49.74641" lon="4.84841">
        <ele>250</ele>
        <time>2020-10-31T10:17:00.000Z</time>
      </trkpt>
      <trkpt lat="49.74644" lon="4.8484">
        <ele>250</ele>
        <time>2020-10-31T10:17:01.000Z</time>
      </trkpt>
      <trkpt lat="49.74648" lon="4.84839">
        <ele>251</ele>
        <time>2020-10-31T10:17:02.000Z</time>
      </trkpt>
      <trkpt lat="49.74652" lon="4.84838">
        <ele>251</ele>
        <time>2020-10-31T10:17:03.000Z</time>
      </trkpt>
      <trkpt lat="49.74656" lon="4.84837">
        <ele>251</ele>
        <time>2020-10-31T10:17:04.000Z</time>
      </trkpt>
      <trkpt lat="49.7466" lon="4.84835">
        <ele>251</ele>
        <time>2020-10-31T10:17:05.000Z</time>
      </trkpt>
      <trkpt lat="49.74664" lon="4.84833">
        <ele>251</ele>
        <time>2020-10-31T10:17:06.000Z</time>
      </trkpt>
      <trkpt lat="49.74667" lon="4.84831">
        <ele>252</ele>
        <time>2020-10-31T10:17:07.000Z</time>
      </trkpt>
      <trkpt lat="49.7467" lon="4.84829">
        <ele>252</ele>
        <time>2020-10-31T10:17:08.000Z</time>
      </trkpt>
      <trkpt lat="49.74673" lon="4.84827">
        <ele>252</ele>
        <time>2020-10-31T10:17:09.000Z</time>
      </trkpt>
      <trkpt lat="49.74675" lon="4.84824">
        <ele>252</ele>
        <time>2020-10-31T10:17:10.000Z</time>
      </trkpt>
      <trkpt lat="49.74678" lon="4.84821">
        <ele>253</ele>
        <time>2020-10-31T10:17:11.000Z</time>
      </trkpt>
      <trkpt lat="49.7468" lon="4.84818">
        <ele>253</ele>
        <time>2020-10-31T10:17:12.000Z</time>
      </trkpt>
      <trkpt lat="49.74682" lon="4.84813">
        <ele>253</ele>
        <time>2020-10-31T10:17:13.000Z</time>
      </trkpt>
      <trkpt lat="49.74685" lon="4.84808">
        <ele>253</ele>
        <time>2020-10-31T10:17:14.000Z</time>
      </trkpt>
      <trkpt lat="49.74687" lon="4.84803">
        <ele>253</ele>
        <time>2020-10-31T10:17:15.000Z</time>
      </trkpt>
      <trkpt lat="49.74688" lon="4.84797">
        <ele>253</ele>
        <time>2020-10-31T10:17:16.000Z</time>
      </trkpt>
      <trkpt lat="49.74688" lon="4.8479">
        <ele>253</ele>
        <time>2020-10-31T10:17:17.000Z</time>
      </trkpt>
      <trkpt lat="49.74688" lon="4.84784">
        <ele>253</ele>
        <time>2020-10-31T10:17:18.000Z</time>
      </trkpt>
      <trkpt lat="49.74687" lon="4.84778">
        <ele>253</ele>
        <time>2020-10-31T10:17:19.000Z</time>
      </trkpt>
      <trkpt lat="49.74686" lon="4.84772">
        <ele>254</ele>
        <time>2020-10-31T10:17:20.000Z</time>
      </trkpt>
      <trkpt lat="49.74684" lon="4.84766">
        <ele>254</ele>
        <time>2020-10-31T10:17:21.000Z</time>
      </trkpt>
      <trkpt lat="49.74683" lon="4.84761">
        <ele>254</ele>
        <time>2020-10-31T10:17:22.000Z</time>
      </trkpt>
      <trkpt lat="49.74682" lon="4.84755">
        <ele>254</ele>
        <time>2020-10-31T10:17:23.000Z</time>
      </trkpt>
      <trkpt lat="49.74681" lon="4.84749">
        <ele>254</ele>
        <time>2020-10-31T10:17:24.000Z</time>
      </trkpt>
      <trkpt lat="49.7468" lon="4.84743">
        <ele>254</ele>
        <time>2020-10-31T10:17:25.000Z</time>
      </trkpt>
      <trkpt lat="49.74679" lon="4.84735">
        <ele>254</ele>
        <time>2020-10-31T10:17:26.000Z</time>
      </trkpt>
      <trkpt lat="49.7468" lon="4.84728">
        <ele>254</ele>
        <time>2020-10-31T10:17:27.000Z</time>
      </trkpt>
      <trkpt lat="49.7468" lon="4.8472">
        <ele>254</ele>
        <time>2020-10-31T10:17:28.000Z</time>
      </trkpt>
      <trkpt lat="49.74679" lon="4.84713">
        <ele>254</ele>
        <time>2020-10-31T10:17:29.000Z</time>
      </trkpt>
      <trkpt lat="49.74677" lon="4.84705">
        <ele>254</ele>
        <time>2020-10-31T10:17:30.000Z</time>
      </trkpt>
      <trkpt lat="49.74675" lon="4.84699">
        <ele>254</ele>
        <time>2020-10-31T10:17:31.000Z</time>
      </trkpt>
      <trkpt lat="49.74673" lon="4.84693">
        <ele>254</ele>
        <time>2020-10-31T10:17:32.000Z</time>
      </trkpt>
      <trkpt lat="49.74671" lon="4.84688">
        <ele>254</ele>
        <time>2020-10-31T10:17:33.000Z</time>
      </trkpt>
      <trkpt lat="49.74668" lon="4.84683">
        <ele>254</ele>
        <time>2020-10-31T10:17:34.000Z</time>
      </trkpt>
      <trkpt lat="49.74666" lon="4.84677">
        <ele>254</ele>
        <time>2020-10-31T10:17:35.000Z</time>
      </trkpt>
      <trkpt lat="49.74664" lon="4.84672">
        <ele>254</ele>
        <time>2020-10-31T10:17:36.000Z</time>
      </trkpt>
      <trkpt lat="49.74662" lon="4.84667">
        <ele>254</ele>
        <time>2020-10-31T10:17:37.000Z</time>
      </trkpt>
      <trkpt lat="49.7466" lon="4.84662">
        <ele>254</ele>
        <time>2020-10-31T10:17:38.000Z</time>
      </trkpt>
      <trkpt lat="49.74659" lon="4.84656">
        <ele>254</ele>
        <time>2020-10-31T10:17:39.000Z</time>
      </trkpt>
      <trkpt lat="49.74658" lon="4.8465">
        <ele>254</ele>
        <time>2020-10-31T10:17:40.000Z</time>
      </trkpt>
      <trkpt lat="49.74658" lon="4.84644">
        <ele>254</ele>
        <time>2020-10-31T10:17:41.000Z</time>
      </trkpt>
      <trkpt lat="49.74658" lon="4.84638">
        <ele>254</ele>
        <time>2020-10-31T10:17:42.000Z</time>
      </trkpt>
      <trkpt lat="49.74659" lon="4.84631">
        <ele>254</ele>
        <time>2020-10-31T10:17:43.000Z</time>
      </trkpt>
      <trkpt lat="49.7466" lon="4.84625">
        <ele>254</ele>
        <time>2020-10-31T10:17:44.000Z</time>
      </trkpt>
      <trkpt lat="49.7466" lon="4.84619">
        <ele>254</ele>
        <time>2020-10-31T10:17:45.000Z</time>
      </trkpt>
      <trkpt lat="49.7466" lon="4.84613">
        <ele>254</ele>
        <time>2020-10-31T10:17:46.000Z</time>
      </trkpt>
      <trkpt lat="49.74661" lon="4.84607">
        <ele>254</ele>
        <time>2020-10-31T10:17:47.000Z</time>
      </trkpt>
      <trkpt lat="49.74662" lon="4.846">
        <ele>254</ele>
        <time>2020-10-31T10:17:48.000Z</time>
      </trkpt>
      <trkpt lat="49.74662" lon="4.84594">
        <ele>254</ele>
        <time>2020-10-31T10:17:49.000Z</time>
      </trkpt>
      <trkpt lat="49.74663" lon="4.84587">
        <ele>253</ele>
        <time>2020-10-31T10:17:50.000Z</time>
      </trkpt>
      <trkpt lat="49.74664" lon="4.8458">
        <ele>253</ele>
        <time>2020-10-31T10:17:51.000Z</time>
      </trkpt>
      <trkpt lat="49.74665" lon="4.84573">
        <ele>253</ele>
        <time>2020-10-31T10:17:52.000Z</time>
      </trkpt>
      <trkpt lat="49.74665" lon="4.84566">
        <ele>253</ele>
        <time>2020-10-31T10:17:53.000Z</time>
      </trkpt>
      <trkpt lat="49.74665" lon="4.8456">
        <ele>253</ele>
        <time>2020-10-31T10:17:54.000Z</time>
      </trkpt>
      <trkpt lat="49.74665" lon="4.84555">
        <ele>253</ele>
        <time>2020-10-31T10:17:55.000Z</time>
      </trkpt>
      <trkpt lat="49.74663" lon="4.8455">
        <ele>252</ele>
        <time>2020-10-31T10:17:56.000Z</time>
      </trkpt>
      <trkpt lat="49.74662" lon="4.84544">
        <ele>252</ele>
        <time>2020-10-31T10:17:57.000Z</time>
      </trkpt>
      <trkpt lat="49.7466" lon="4.8454">
        <ele>252</ele>
        <time>2020-10-31T10:17:58.000Z</time>
      </trkpt>
      <trkpt lat="49.74658" lon="4.84536">
        <ele>252</ele>
        <time>2020-10-31T10:17:59.000Z</time>
      </trkpt>
      <trkpt lat="49.74656" lon="4.84532">
        <ele>252</ele>
        <time>2020-10-31T10:18:00.000Z</time>
      </trkpt>
      <trkpt lat="49.74654" lon="4.84528">
        <ele>252</ele>
        <time>2020-10-31T10:18:01.000Z</time>
      </trkpt>
      <trkpt lat="49.74652" lon="4.84523">
        <ele>251</ele>
        <time>2020-10-31T10:18:02.000Z</time>
      </trkpt>
      <trkpt lat="49.7465" lon="4.84518">
        <ele>251</ele>
        <time>2020-10-31T10:18:03.000Z</time>
      </trkpt>
      <trkpt lat="49.74648" lon="4.84513">
        <ele>251</ele>
        <time>2020-10-31T10:18:04.000Z</time>
      </trkpt>
      <trkpt lat="49.74646" lon="4.84507">
        <ele>251</ele>
        <time>2020-10-31T10:18:05.000Z</time>
      </trkpt>
      <trkpt lat="49.74644" lon="4.84502">
        <ele>251</ele>
        <time>2020-10-31T10:18:06.000Z</time>
      </trkpt>
      <trkpt lat="49.74643" lon="4.84495">
        <ele>251</ele>
        <time>2020-10-31T10:18:07.000Z</time>
      </trkpt>
      <trkpt lat="49.74641" lon="4.84489">
        <ele>251</ele>
        <time>2020-10-31T10:18:08.000Z</time>
      </trkpt>
      <trkpt lat="49.7464" lon="4.84483">
        <ele>251</ele>
        <time>2020-10-31T10:18:09.000Z</time>
      </trkpt>
      <trkpt lat="49.74639" lon="4.84477">
        <ele>251</ele>
        <time>2020-10-31T10:18:10.000Z</time>
      </trkpt>
      <trkpt lat="49.74637" lon="4.84471">
        <ele>251</ele>
        <time>2020-10-31T10:18:11.000Z</time>
      </trkpt>
      <trkpt lat="49.74636" lon="4.84466">
        <ele>251</ele>
        <time>2020-10-31T10:18:12.000Z</time>
      </trkpt>
      <trkpt lat="49.74634" lon="4.8446">
        <ele>251</ele>
        <time>2020-10-31T10:18:13.000Z</time>
      </trkpt>
      <trkpt lat="49.74633" lon="4.84455">
        <ele>251</ele>
        <time>2020-10-31T10:18:14.000Z</time>
      </trkpt>
      <trkpt lat="49.74634" lon="4.8445">
        <ele>251</ele>
        <time>2020-10-31T10:18:15.000Z</time>
      </trkpt>
      <trkpt lat="49.74635" lon="4.84447">
        <ele>251</ele>
        <time>2020-10-31T10:18:16.000Z</time>
      </trkpt>
      <trkpt lat="49.74637" lon="4.84444">
        <ele>251</ele>
        <time>2020-10-31T10:18:17.000Z</time>
      </trkpt>
      <trkpt lat="49.74641" lon="4.84441">
        <ele>251</ele>
        <time>2020-10-31T10:18:18.000Z</time>
      </trkpt>
      <trkpt lat="49.74644" lon="4.84437">
        <ele>251</ele>
        <time>2020-10-31T10:18:19.000Z</time>
      </trkpt>
      <trkpt lat="49.74649" lon="4.84433">
        <ele>251</ele>
        <time>2020-10-31T10:18:20.000Z</time>
      </trkpt>
      <trkpt lat="49.74653" lon="4.84429">
        <ele>251</ele>
        <time>2020-10-31T10:18:21.000Z</time>
      </trkpt>
      <trkpt lat="49.74659" lon="4.84426">
        <ele>250</ele>
        <time>2020-10-31T10:18:22.000Z</time>
      </trkpt>
      <trkpt lat="49.74666" lon="4.84421">
        <ele>250</ele>
        <time>2020-10-31T10:18:23.000Z</time>
      </trkpt>
      <trkpt lat="49.74672" lon="4.84417">
        <ele>250</ele>
        <time>2020-10-31T10:18:24.000Z</time>
      </trkpt>
      <trkpt lat="49.74678" lon="4.84411">
        <ele>250</ele>
        <time>2020-10-31T10:18:25.000Z</time>
      </trkpt>
      <trkpt lat="49.74684" lon="4.84406">
        <ele>250</ele>
        <time>2020-10-31T10:18:26.000Z</time>
      </trkpt>
      <trkpt lat="49.7469" lon="4.84402">
        <ele>250</ele>
        <time>2020-10-31T10:18:27.000Z</time>
      </trkpt>
      <trkpt lat="49.74697" lon="4.84397">
        <ele>250</ele>
        <time>2020-10-31T10:18:28.000Z</time>
      </trkpt>
      <trkpt lat="49.74702" lon="4.84391">
        <ele>250</ele>
        <time>2020-10-31T10:18:29.000Z</time>
      </trkpt>
      <trkpt lat="49.74707" lon="4.84384">
        <ele>250</ele>
        <time>2020-10-31T10:18:30.000Z</time>
      </trkpt>
      <trkpt lat="49.74712" lon="4.84377">
        <ele>250</ele>
        <time>2020-10-31T10:18:31.000Z</time>
      </trkpt>
      <trkpt lat="49.74717" lon="4.8437">
        <ele>250</ele>
        <time>2020-10-31T10:18:32.000Z</time>
      </trkpt>
      <trkpt lat="49.74722" lon="4.84363">
        <ele>250</ele>
        <time>2020-10-31T10:18:33.000Z</time>
      </trkpt>
      <trkpt lat="49.74726" lon="4.84355">
        <ele>250</ele>
        <time>2020-10-31T10:18:34.000Z</time>
      </trkpt>
      <trkpt lat="49.7473" lon="4.84347">
        <ele>249</ele>
        <time>2020-10-31T10:18:35.000Z</time>
      </trkpt>
      <trkpt lat="49.74734" lon="4.8434">
        <ele>249</ele>
        <time>2020-10-31T10:18:36.000Z</time>
      </trkpt>
      <trkpt lat="49.74737" lon="4.84333">
        <ele>248</ele>
        <time>2020-10-31T10:18:37.000Z</time>
      </trkpt>
      <trkpt lat="49.7474" lon="4.84328">
        <ele>248</ele>
        <time>2020-10-31T10:18:38.000Z</time>
      </trkpt>
      <trkpt lat="49.74742" lon="4.84323">
        <ele>248</ele>
        <time>2020-10-31T10:18:39.000Z</time>
      </trkpt>
      <trkpt lat="49.74744" lon="4.8432">
        <ele>247</ele>
        <time>2020-10-31T10:18:40.000Z</time>
      </trkpt>
      <trkpt lat="49.74745" lon="4.84317">
        <ele>247</ele>
        <time>2020-10-31T10:18:41.000Z</time>
      </trkpt>
      <trkpt lat="49.74747" lon="4.84314">
        <ele>247</ele>
        <time>2020-10-31T10:18:42.000Z</time>
      </trkpt>
      <trkpt lat="49.74749" lon="4.8431">
        <ele>246</ele>
        <time>2020-10-31T10:18:43.000Z</time>
      </trkpt>
      <trkpt lat="49.74751" lon="4.84307">
        <ele>246</ele>
        <time>2020-10-31T10:18:44.000Z</time>
      </trkpt>
      <trkpt lat="49.74753" lon="4.84303">
        <ele>246</ele>
        <time>2020-10-31T10:18:45.000Z</time>
      </trkpt>
      <trkpt lat="49.74754" lon="4.84299">
        <ele>245</ele>
        <time>2020-10-31T10:18:46.000Z</time>
      </trkpt>
      <trkpt lat="49.74755" lon="4.84295">
        <ele>245</ele>
        <time>2020-10-31T10:18:47.000Z</time>
      </trkpt>
      <trkpt lat="49.74756" lon="4.84291">
        <ele>245</ele>
        <time>2020-10-31T10:18:48.000Z</time>
      </trkpt>
      <trkpt lat="49.74758" lon="4.84285">
        <ele>244</ele>
        <time>2020-10-31T10:18:49.000Z</time>
      </trkpt>
      <trkpt lat="49.7476" lon="4.8428">
        <ele>244</ele>
        <time>2020-10-31T10:18:50.000Z</time>
      </trkpt>
      <trkpt lat="49.74761" lon="4.84275">
        <ele>244</ele>
        <time>2020-10-31T10:18:51.000Z</time>
      </trkpt>
      <trkpt lat="49.74763" lon="4.84271">
        <ele>243</ele>
        <time>2020-10-31T10:18:52.000Z</time>
      </trkpt>
      <trkpt lat="49.74764" lon="4.8427">
        <ele>243</ele>
        <time>2020-10-31T10:18:53.000Z</time>
      </trkpt>
      <trkpt lat="49.74766" lon="4.84271">
        <ele>243</ele>
        <time>2020-10-31T10:18:54.000Z</time>
      </trkpt>
      <trkpt lat="49.74768" lon="4.84273">
        <ele>243</ele>
        <time>2020-10-31T10:18:55.000Z</time>
      </trkpt>
      <trkpt lat="49.74771" lon="4.84275">
        <ele>242</ele>
        <time>2020-10-31T10:18:56.000Z</time>
      </trkpt>
      <trkpt lat="49.74774" lon="4.84278">
        <ele>242</ele>
        <time>2020-10-31T10:18:57.000Z</time>
      </trkpt>
      <trkpt lat="49.74777" lon="4.84281">
        <ele>241</ele>
        <time>2020-10-31T10:18:58.000Z</time>
      </trkpt>
      <trkpt lat="49.7478" lon="4.84284">
        <ele>241</ele>
        <time>2020-10-31T10:18:59.000Z</time>
      </trkpt>
      <trkpt lat="49.74784" lon="4.84287">
        <ele>240</ele>
        <time>2020-10-31T10:19:00.000Z</time>
      </trkpt>
      <trkpt lat="49.74788" lon="4.8429">
        <ele>240</ele>
        <time>2020-10-31T10:19:01.000Z</time>
      </trkpt>
      <trkpt lat="49.74792" lon="4.84294">
        <ele>239</ele>
        <time>2020-10-31T10:19:02.000Z</time>
      </trkpt>
      <trkpt lat="49.74796" lon="4.84298">
        <ele>238</ele>
        <time>2020-10-31T10:19:03.000Z</time>
      </trkpt>
      <trkpt lat="49.74799" lon="4.84303">
        <ele>238</ele>
        <time>2020-10-31T10:19:04.000Z</time>
      </trkpt>
      <trkpt lat="49.74803" lon="4.84308">
        <ele>237</ele>
        <time>2020-10-31T10:19:05.000Z</time>
      </trkpt>
      <trkpt lat="49.74806" lon="4.84314">
        <ele>237</ele>
        <time>2020-10-31T10:19:06.000Z</time>
      </trkpt>
      <trkpt lat="49.74809" lon="4.8432">
        <ele>236</ele>
        <time>2020-10-31T10:19:07.000Z</time>
      </trkpt>
      <trkpt lat="49.74812" lon="4.84327">
        <ele>235</ele>
        <time>2020-10-31T10:19:08.000Z</time>
      </trkpt>
      <trkpt lat="49.74815" lon="4.84333">
        <ele>235</ele>
        <time>2020-10-31T10:19:09.000Z</time>
      </trkpt>
      <trkpt lat="49.74818" lon="4.8434">
        <ele>234</ele>
        <time>2020-10-31T10:19:10.000Z</time>
      </trkpt>
      <trkpt lat="49.74821" lon="4.84347">
        <ele>234</ele>
        <time>2020-10-31T10:19:11.000Z</time>
      </trkpt>
      <trkpt lat="49.74824" lon="4.84354">
        <ele>233</ele>
        <time>2020-10-31T10:19:12.000Z</time>
      </trkpt>
      <trkpt lat="49.74827" lon="4.84361">
        <ele>232</ele>
        <time>2020-10-31T10:19:13.000Z</time>
      </trkpt>
      <trkpt lat="49.7483" lon="4.84369">
        <ele>232</ele>
        <time>2020-10-31T10:19:14.000Z</time>
      </trkpt>
      <trkpt lat="49.74834" lon="4.84376">
        <ele>231</ele>
        <time>2020-10-31T10:19:15.000Z</time>
      </trkpt>
      <trkpt lat="49.74839" lon="4.84384">
        <ele>230</ele>
        <time>2020-10-31T10:19:16.000Z</time>
      </trkpt>
      <trkpt lat="49.74842" lon="4.84393">
        <ele>230</ele>
        <time>2020-10-31T10:19:17.000Z</time>
      </trkpt>
      <trkpt lat="49.74845" lon="4.84402">
        <ele>229</ele>
        <time>2020-10-31T10:19:18.000Z</time>
      </trkpt>
      <trkpt lat="49.74848" lon="4.84411">
        <ele>228</ele>
        <time>2020-10-31T10:19:19.000Z</time>
      </trkpt>
      <trkpt lat="49.74851" lon="4.84419">
        <ele>228</ele>
        <time>2020-10-31T10:19:20.000Z</time>
      </trkpt>
      <trkpt lat="49.74853" lon="4.84424">
        <ele>227</ele>
        <time>2020-10-31T10:19:21.000Z</time>
      </trkpt>
      <trkpt lat="49.74856" lon="4.8443">
        <ele>226</ele>
        <time>2020-10-31T10:19:22.000Z</time>
      </trkpt>
      <trkpt lat="49.74858" lon="4.84435">
        <ele>226</ele>
        <time>2020-10-31T10:19:23.000Z</time>
      </trkpt>
      <trkpt lat="49.7486" lon="4.84441">
        <ele>225</ele>
        <time>2020-10-31T10:19:24.000Z</time>
      </trkpt>
      <trkpt lat="49.74862" lon="4.84447">
        <ele>225</ele>
        <time>2020-10-31T10:19:25.000Z</time>
      </trkpt>
      <trkpt lat="49.74864" lon="4.84454">
        <ele>224</ele>
        <time>2020-10-31T10:19:26.000Z</time>
      </trkpt>
      <trkpt lat="49.74867" lon="4.8446">
        <ele>224</ele>
        <time>2020-10-31T10:19:27.000Z</time>
      </trkpt>
      <trkpt lat="49.74869" lon="4.84466">
        <ele>223</ele>
        <time>2020-10-31T10:19:28.000Z</time>
      </trkpt>
      <trkpt lat="49.74871" lon="4.84471">
        <ele>223</ele>
        <time>2020-10-31T10:19:29.000Z</time>
      </trkpt>
      <trkpt lat="49.7487" lon="4.84476">
        <ele>222</ele>
        <time>2020-10-31T10:19:30.000Z</time>
      </trkpt>
      <trkpt lat="49.74868" lon="4.8448">
        <ele>222</ele>
        <time>2020-10-31T10:19:31.000Z</time>
      </trkpt>
      <trkpt lat="49.74867" lon="4.84483">
        <ele>221</ele>
        <time>2020-10-31T10:19:32.000Z</time>
      </trkpt>
      <trkpt lat="49.74865" lon="4.84486">
        <ele>221</ele>
        <time>2020-10-31T10:19:33.000Z</time>
      </trkpt>
      <trkpt lat="49.74862" lon="4.84489">
        <ele>220</ele>
        <time>2020-10-31T10:19:34.000Z</time>
      </trkpt>
      <trkpt lat="49.7486" lon="4.84492">
        <ele>220</ele>
        <time>2020-10-31T10:19:35.000Z</time>
      </trkpt>
      <trkpt lat="49.74858" lon="4.84495">
        <ele>220</ele>
        <time>2020-10-31T10:19:36.000Z</time>
      </trkpt>
      <trkpt lat="49.74857" lon="4.84497">
        <ele>220</ele>
        <time>2020-10-31T10:19:37.000Z</time>
      </trkpt>
      <trkpt lat="49.74855" lon="4.845">
        <ele>219</ele>
        <time>2020-10-31T10:19:38.000Z</time>
      </trkpt>
      <trkpt lat="49.74855" lon="4.84503">
        <ele>219</ele>
        <time>2020-10-31T10:19:39.000Z</time>
      </trkpt>
      <trkpt lat="49.74855" lon="4.84505">
        <ele>219</ele>
        <time>2020-10-31T10:19:40.000Z</time>
      </trkpt>
      <trkpt lat="49.74855" lon="4.84509">
        <ele>219</ele>
        <time>2020-10-31T10:19:41.000Z</time>
      </trkpt>
      <trkpt lat="49.74855" lon="4.84513">
        <ele>219</ele>
        <time>2020-10-31T10:19:42.000Z</time>
      </trkpt>
      <trkpt lat="49.74855" lon="4.84518">
        <ele>219</ele>
        <time>2020-10-31T10:19:43.000Z</time>
      </trkpt>
      <trkpt lat="49.74856" lon="4.84523">
        <ele>219</ele>
        <time>2020-10-31T10:19:44.000Z</time>
      </trkpt>
      <trkpt lat="49.74857" lon="4.84529">
        <ele>218</ele>
        <time>2020-10-31T10:19:45.000Z</time>
      </trkpt>
      <trkpt lat="49.74858" lon="4.84534">
        <ele>218</ele>
        <time>2020-10-31T10:19:46.000Z</time>
      </trkpt>
      <trkpt lat="49.74858" lon="4.8454">
        <ele>218</ele>
        <time>2020-10-31T10:19:47.000Z</time>
      </trkpt>
      <trkpt lat="49.74858" lon="4.84545">
        <ele>218</ele>
        <time>2020-10-31T10:19:48.000Z</time>
      </trkpt>
      <trkpt lat="49.74857" lon="4.8455">
        <ele>218</ele>
        <time>2020-10-31T10:19:49.000Z</time>
      </trkpt>
      <trkpt lat="49.74857" lon="4.84555">
        <ele>217</ele>
        <time>2020-10-31T10:19:50.000Z</time>
      </trkpt>
      <trkpt lat="49.74856" lon="4.8456">
        <ele>217</ele>
        <time>2020-10-31T10:19:51.000Z</time>
      </trkpt>
      <trkpt lat="49.74854" lon="4.84565">
        <ele>217</ele>
        <time>2020-10-31T10:19:52.000Z</time>
      </trkpt>
      <trkpt lat="49.74853" lon="4.8457">
        <ele>217</ele>
        <time>2020-10-31T10:19:53.000Z</time>
      </trkpt>
      <trkpt lat="49.74852" lon="4.84575">
        <ele>217</ele>
        <time>2020-10-31T10:19:54.000Z</time>
      </trkpt>
      <trkpt lat="49.74851" lon="4.8458">
        <ele>217</ele>
        <time>2020-10-31T10:19:55.000Z</time>
      </trkpt>
      <trkpt lat="49.7485" lon="4.84584">
        <ele>217</ele>
        <time>2020-10-31T10:19:56.000Z</time>
      </trkpt>
      <trkpt lat="49.74848" lon="4.84588">
        <ele>217</ele>
        <time>2020-10-31T10:19:57.000Z</time>
      </trkpt>
      <trkpt lat="49.74847" lon="4.84592">
        <ele>217</ele>
        <time>2020-10-31T10:19:58.000Z</time>
      </trkpt>
      <trkpt lat="49.74846" lon="4.84596">
        <ele>217</ele>
        <time>2020-10-31T10:19:59.000Z</time>
      </trkpt>
      <trkpt lat="49.74844" lon="4.846">
        <ele>217</ele>
        <time>2020-10-31T10:20:00.000Z</time>
      </trkpt>
      <trkpt lat="49.74843" lon="4.84603">
        <ele>217</ele>
        <time>2020-10-31T10:20:01.000Z</time>
      </trkpt>
      <trkpt lat="49.74842" lon="4.84605">
        <ele>217</ele>
        <time>2020-10-31T10:20:02.000Z</time>
      </trkpt>
      <trkpt lat="49.74841" lon="4.84606">
        <ele>217</ele>
        <time>2020-10-31T10:20:03.000Z</time>
      </trkpt>
      <trkpt lat="49.74841" lon="4.84607">
        <ele>217</ele>
        <time>2020-10-31T10:20:04.000Z</time>
      </trkpt>
      <trkpt lat="49.7484" lon="4.84608">
        <ele>217</ele>
        <time>2020-10-31T10:20:05.000Z</time>
      </trkpt>
      <trkpt lat="49.7484" lon="4.8461">
        <ele>218</ele>
        <time>2020-10-31T10:20:06.000Z</time>
      </trkpt>
      <trkpt lat="49.74839" lon="4.84612">
        <ele>218</ele>
        <time>2020-10-31T10:20:07.000Z</time>
      </trkpt>
      <trkpt lat="49.74839" lon="4.84614">
        <ele>218</ele>
        <time>2020-10-31T10:20:08.000Z</time>
      </trkpt>
      <trkpt lat="49.74838" lon="4.84615">
        <ele>218</ele>
        <time>2020-10-31T10:20:09.000Z</time>
      </trkpt>
      <trkpt lat="49.74837" lon="4.84616">
        <ele>218</ele>
        <time>2020-10-31T10:20:10.000Z</time>
      </trkpt>
      <trkpt lat="49.74836" lon="4.84617">
        <ele>218</ele>
        <time>2020-10-31T10:20:11.000Z</time>
      </trkpt>
      <trkpt lat="49.74834" lon="4.84617">
        <ele>218</ele>
        <time>2020-10-31T10:20:12.000Z</time>
      </trkpt>
      <trkpt lat="49.74833" lon="4.84617">
        <ele>218</ele>
        <time>2020-10-31T10:20:13.000Z</time>
      </trkpt>
      <trkpt lat="49.74832" lon="4.84618">
        <ele>219</ele>
        <time>2020-10-31T10:20:14.000Z</time>
      </trkpt>
      <trkpt lat="49.74831" lon="4.84619">
        <ele>219</ele>
        <time>2020-10-31T10:20:15.000Z</time>
      </trkpt>
      <trkpt lat="49.7483" lon="4.8462">
        <ele>219</ele>
        <time>2020-10-31T10:20:16.000Z</time>
      </trkpt>
      <trkpt lat="49.74828" lon="4.8462">
        <ele>219</ele>
        <time>2020-10-31T10:20:17.000Z</time>
      </trkpt>
      <trkpt lat="49.74827" lon="4.84621">
        <ele>219</ele>
        <time>2020-10-31T10:20:18.000Z</time>
      </trkpt>
      <trkpt lat="49.74826" lon="4.84622">
        <ele>220</ele>
        <time>2020-10-31T10:20:19.000Z</time>
      </trkpt>
      <trkpt lat="49.74825" lon="4.84623">
        <ele>220</ele>
        <time>2020-10-31T10:20:20.000Z</time>
      </trkpt>
      <trkpt lat="49.74824" lon="4.84624">
        <ele>220</ele>
        <time>2020-10-31T10:20:21.000Z</time>
      </trkpt>
      <trkpt lat="49.74822" lon="4.84624">
        <ele>221</ele>
        <time>2020-10-31T10:20:22.000Z</time>
      </trkpt>
      <trkpt lat="49.74821" lon="4.84625">
        <ele>221</ele>
        <time>2020-10-31T10:20:23.000Z</time>
      </trkpt>
      <trkpt lat="49.74819" lon="4.84625">
        <ele>221</ele>
        <time>2020-10-31T10:20:24.000Z</time>
      </trkpt>
      <trkpt lat="49.74818" lon="4.84626">
        <ele>222</ele>
        <time>2020-10-31T10:20:25.000Z</time>
      </trkpt>
      <trkpt lat="49.74817" lon="4.84627">
        <ele>222</ele>
        <time>2020-10-31T10:20:26.000Z</time>
      </trkpt>
      <trkpt lat="49.74816" lon="4.84627">
        <ele>223</ele>
        <time>2020-10-31T10:20:27.000Z</time>
      </trkpt>
      <trkpt lat="49.74815" lon="4.84628">
        <ele>223</ele>
        <time>2020-10-31T10:20:28.000Z</time>
      </trkpt>
      <trkpt lat="49.74813" lon="4.84629">
        <ele>223</ele>
        <time>2020-10-31T10:20:29.000Z</time>
      </trkpt>
      <trkpt lat="49.74812" lon="4.8463">
        <ele>224</ele>
        <time>2020-10-31T10:20:30.000Z</time>
      </trkpt>
      <trkpt lat="49.74811" lon="4.8463">
        <ele>224</ele>
        <time>2020-10-31T10:20:31.000Z</time>
      </trkpt>
      <trkpt lat="49.7481" lon="4.84631">
        <ele>225</ele>
        <time>2020-10-31T10:20:32.000Z</time>
      </trkpt>
      <trkpt lat="49.74809" lon="4.84631">
        <ele>225</ele>
        <time>2020-10-31T10:20:33.000Z</time>
      </trkpt>
      <trkpt lat="49.74807" lon="4.84632">
        <ele>226</ele>
        <time>2020-10-31T10:20:34.000Z</time>
      </trkpt>
      <trkpt lat="49.74806" lon="4.84633">
        <ele>226</ele>
        <time>2020-10-31T10:20:35.000Z</time>
      </trkpt>
      <trkpt lat="49.74805" lon="4.84634">
        <ele>226</ele>
        <time>2020-10-31T10:20:36.000Z</time>
      </trkpt>
      <trkpt lat="49.74804" lon="4.84635">
        <ele>227</ele>
        <time>2020-10-31T10:20:37.000Z</time>
      </trkpt>
      <trkpt lat="49.74803" lon="4.84635">
        <ele>227</ele>
        <time>2020-10-31T10:20:38.000Z</time>
      </trkpt>
      <trkpt lat="49.74802" lon="4.84636">
        <ele>227</ele>
        <time>2020-10-31T10:20:39.000Z</time>
      </trkpt>
      <trkpt lat="49.748" lon="4.84637">
        <ele>228</ele>
        <time>2020-10-31T10:20:40.000Z</time>
      </trkpt>
      <trkpt lat="49.74799" lon="4.84637">
        <ele>228</ele>
        <time>2020-10-31T10:20:41.000Z</time>
      </trkpt>
      <trkpt lat="49.74797" lon="4.84638">
        <ele>228</ele>
        <time>2020-10-31T10:20:42.000Z</time>
      </trkpt>
      <trkpt lat="49.74796" lon="4.84639">
        <ele>228</ele>
        <time>2020-10-31T10:20:43.000Z</time>
      </trkpt>
      <trkpt lat="49.74794" lon="4.8464">
        <ele>229</ele>
        <time>2020-10-31T10:20:44.000Z</time>
      </trkpt>
      <trkpt lat="49.74793" lon="4.8464">
        <ele>229</ele>
        <time>2020-10-31T10:20:45.000Z</time>
      </trkpt>
      <trkpt lat="49.74791" lon="4.84641">
        <ele>229</ele>
        <time>2020-10-31T10:20:46.000Z</time>
      </trkpt>
      <trkpt lat="49.74789" lon="4.84642">
        <ele>229</ele>
        <time>2020-10-31T10:20:47.000Z</time>
      </trkpt>
      <trkpt lat="49.74788" lon="4.84643">
        <ele>229</ele>
        <time>2020-10-31T10:20:48.000Z</time>
      </trkpt>
      <trkpt lat="49.74787" lon="4.84643">
        <ele>229</ele>
        <time>2020-10-31T10:20:49.000Z</time>
      </trkpt>
      <trkpt lat="49.74785" lon="4.84643">
        <ele>230</ele>
        <time>2020-10-31T10:20:50.000Z</time>
      </trkpt>
      <trkpt lat="49.74784" lon="4.84644">
        <ele>230</ele>
        <time>2020-10-31T10:20:51.000Z</time>
      </trkpt>
      <trkpt lat="49.74782" lon="4.84645">
        <ele>230</ele>
        <time>2020-10-31T10:20:52.000Z</time>
      </trkpt>
      <trkpt lat="49.7478" lon="4.84646">
        <ele>231</ele>
        <time>2020-10-31T10:20:53.000Z</time>
      </trkpt>
      <trkpt lat="49.74779" lon="4.84646">
        <ele>231</ele>
        <time>2020-10-31T10:20:54.000Z</time>
      </trkpt>
      <trkpt lat="49.74777" lon="4.84647">
        <ele>231</ele>
        <time>2020-10-31T10:20:55.000Z</time>
      </trkpt>
      <trkpt lat="49.74775" lon="4.84647">
        <ele>231</ele>
        <time>2020-10-31T10:20:56.000Z</time>
      </trkpt>
      <trkpt lat="49.74773" lon="4.84648">
        <ele>232</ele>
        <time>2020-10-31T10:20:57.000Z</time>
      </trkpt>
      <trkpt lat="49.74772" lon="4.84647">
        <ele>232</ele>
        <time>2020-10-31T10:20:58.000Z</time>
      </trkpt>
      <trkpt lat="49.7477" lon="4.84647">
        <ele>232</ele>
        <time>2020-10-31T10:20:59.000Z</time>
      </trkpt>
      <trkpt lat="49.74768" lon="4.84646">
        <ele>232</ele>
        <time>2020-10-31T10:21:00.000Z</time>
      </trkpt>
      <trkpt lat="49.74766" lon="4.84646">
        <ele>233</ele>
        <time>2020-10-31T10:21:01.000Z</time>
      </trkpt>
      <trkpt lat="49.74764" lon="4.84646">
        <ele>233</ele>
        <time>2020-10-31T10:21:02.000Z</time>
      </trkpt>
      <trkpt lat="49.74762" lon="4.84647">
        <ele>233</ele>
        <time>2020-10-31T10:21:03.000Z</time>
      </trkpt>
      <trkpt lat="49.7476" lon="4.84647">
        <ele>234</ele>
        <time>2020-10-31T10:21:04.000Z</time>
      </trkpt>
      <trkpt lat="49.74759" lon="4.84647">
        <ele>234</ele>
        <time>2020-10-31T10:21:05.000Z</time>
      </trkpt>
      <trkpt lat="49.74757" lon="4.84647">
        <ele>234</ele>
        <time>2020-10-31T10:21:06.000Z</time>
      </trkpt>
      <trkpt lat="49.74756" lon="4.84648">
        <ele>234</ele>
        <time>2020-10-31T10:21:07.000Z</time>
      </trkpt>
      <trkpt lat="49.74754" lon="4.84648">
        <ele>235</ele>
        <time>2020-10-31T10:21:08.000Z</time>
      </trkpt>
      <trkpt lat="49.74752" lon="4.84649">
        <ele>235</ele>
        <time>2020-10-31T10:21:09.000Z</time>
      </trkpt>
      <trkpt lat="49.74751" lon="4.8465">
        <ele>235</ele>
        <time>2020-10-31T10:21:10.000Z</time>
      </trkpt>
      <trkpt lat="49.74749" lon="4.8465">
        <ele>236</ele>
        <time>2020-10-31T10:21:11.000Z</time>
      </trkpt>
      <trkpt lat="49.74748" lon="4.8465">
        <ele>236</ele>
        <time>2020-10-31T10:21:12.000Z</time>
      </trkpt>
      <trkpt lat="49.74746" lon="4.84651">
        <ele>236</ele>
        <time>2020-10-31T10:21:13.000Z</time>
      </trkpt>
      <trkpt lat="49.74744" lon="4.84651">
        <ele>236</ele>
        <time>2020-10-31T10:21:14.000Z</time>
      </trkpt>
      <trkpt lat="49.74743" lon="4.84652">
        <ele>236</ele>
        <time>2020-10-31T10:21:15.000Z</time>
      </trkpt>
      <trkpt lat="49.74742" lon="4.84653">
        <ele>237</ele>
        <time>2020-10-31T10:21:16.000Z</time>
      </trkpt>
      <trkpt lat="49.74741" lon="4.84654">
        <ele>237</ele>
        <time>2020-10-31T10:21:17.000Z</time>
      </trkpt>
      <trkpt lat="49.7474" lon="4.84654">
        <ele>237</ele>
        <time>2020-10-31T10:21:18.000Z</time>
      </trkpt>
      <trkpt lat="49.74739" lon="4.84655">
        <ele>237</ele>
        <time>2020-10-31T10:21:19.000Z</time>
      </trkpt>
      <trkpt lat="49.74738" lon="4.84655">
        <ele>237</ele>
        <time>2020-10-31T10:21:20.000Z</time>
      </trkpt>
      <trkpt lat="49.74737" lon="4.84655">
        <ele>238</ele>
        <time>2020-10-31T10:21:21.000Z</time>
      </trkpt>
      <trkpt lat="49.74736" lon="4.84655">
        <ele>238</ele>
        <time>2020-10-31T10:21:22.000Z</time>
      </trkpt>
      <trkpt lat="49.74735" lon="4.84655">
        <ele>238</ele>
        <time>2020-10-31T10:21:23.000Z</time>
      </trkpt>
      <trkpt lat="49.74734" lon="4.84655">
        <ele>238</ele>
        <time>2020-10-31T10:21:24.000Z</time>
      </trkpt>
      <trkpt lat="49.74733" lon="4.84656">
        <ele>238</ele>
        <time>2020-10-31T10:21:25.000Z</time>
      </trkpt>
      <trkpt lat="49.74731" lon="4.84656">
        <ele>238</ele>
        <time>2020-10-31T10:21:26.000Z</time>
      </trkpt>
      <trkpt lat="49.7473" lon="4.84656">
        <ele>238</ele>
        <time>2020-10-31T10:21:27.000Z</time>
      </trkpt>
      <trkpt lat="49.74729" lon="4.84657">
        <ele>238</ele>
        <time>2020-10-31T10:21:28.000Z</time>
      </trkpt>
      <trkpt lat="49.74727" lon="4.84657">
        <ele>238</ele>
        <time>2020-10-31T10:21:29.000Z</time>
      </trkpt>
      <trkpt lat="49.74725" lon="4.84658">
        <ele>239</ele>
        <time>2020-10-31T10:21:30.000Z</time>
      </trkpt>
      <trkpt lat="49.74723" lon="4.84658">
        <ele>239</ele>
        <time>2020-10-31T10:21:31.000Z</time>
      </trkpt>
      <trkpt lat="49.74722" lon="4.84658">
        <ele>240</ele>
        <time>2020-10-31T10:21:32.000Z</time>
      </trkpt>
      <trkpt lat="49.7472" lon="4.84658">
        <ele>240</ele>
        <time>2020-10-31T10:21:33.000Z</time>
      </trkpt>
      <trkpt lat="49.74719" lon="4.84659">
        <ele>240</ele>
        <time>2020-10-31T10:21:34.000Z</time>
      </trkpt>
      <trkpt lat="49.74717" lon="4.84659">
        <ele>241</ele>
        <time>2020-10-31T10:21:35.000Z</time>
      </trkpt>
      <trkpt lat="49.74715" lon="4.8466">
        <ele>241</ele>
        <time>2020-10-31T10:21:36.000Z</time>
      </trkpt>
      <trkpt lat="49.74714" lon="4.8466">
        <ele>241</ele>
        <time>2020-10-31T10:21:37.000Z</time>
      </trkpt>
      <trkpt lat="49.74712" lon="4.84661">
        <ele>241</ele>
        <time>2020-10-31T10:21:38.000Z</time>
      </trkpt>
      <trkpt lat="49.74711" lon="4.84661">
        <ele>242</ele>
        <time>2020-10-31T10:21:39.000Z</time>
      </trkpt>
      <trkpt lat="49.74709" lon="4.84662">
        <ele>242</ele>
        <time>2020-10-31T10:21:40.000Z</time>
      </trkpt>
      <trkpt lat="49.74708" lon="4.84663">
        <ele>242</ele>
        <time>2020-10-31T10:21:41.000Z</time>
      </trkpt>
      <trkpt lat="49.74706" lon="4.84663">
        <ele>243</ele>
        <time>2020-10-31T10:21:42.000Z</time>
      </trkpt>
      <trkpt lat="49.74705" lon="4.84664">
        <ele>243</ele>
        <time>2020-10-31T10:21:43.000Z</time>
      </trkpt>
      <trkpt lat="49.74704" lon="4.84665">
        <ele>243</ele>
        <time>2020-10-31T10:21:44.000Z</time>
      </trkpt>
      <trkpt lat="49.74702" lon="4.84666">
        <ele>243</ele>
        <time>2020-10-31T10:21:45.000Z</time>
      </trkpt>
      <trkpt lat="49.74701" lon="4.84667">
        <ele>243</ele>
        <time>2020-10-31T10:21:46.000Z</time>
      </trkpt>
      <trkpt lat="49.747" lon="4.84668">
        <ele>244</ele>
        <time>2020-10-31T10:21:47.000Z</time>
      </trkpt>
      <trkpt lat="49.74699" lon="4.84668">
        <ele>244</ele>
        <time>2020-10-31T10:21:48.000Z</time>
      </trkpt>
      <trkpt lat="49.74698" lon="4.84669">
        <ele>244</ele>
        <time>2020-10-31T10:21:49.000Z</time>
      </trkpt>
      <trkpt lat="49.74697" lon="4.8467">
        <ele>244</ele>
        <time>2020-10-31T10:21:50.000Z</time>
      </trkpt>
      <trkpt lat="49.74697" lon="4.84672">
        <ele>245</ele>
        <time>2020-10-31T10:21:51.000Z</time>
      </trkpt>
      <trkpt lat="49.74696" lon="4.84674">
        <ele>245</ele>
        <time>2020-10-31T10:21:52.000Z</time>
      </trkpt>
      <trkpt lat="49.74695" lon="4.84676">
        <ele>245</ele>
        <time>2020-10-31T10:21:53.000Z</time>
      </trkpt>
      <trkpt lat="49.74695" lon="4.84678">
        <ele>245</ele>
        <time>2020-10-31T10:21:54.000Z</time>
      </trkpt>
      <trkpt lat="49.74694" lon="4.8468">
        <ele>245</ele>
        <time>2020-10-31T10:21:55.000Z</time>
      </trkpt>
      <trkpt lat="49.74694" lon="4.84681">
        <ele>246</ele>
        <time>2020-10-31T10:21:56.000Z</time>
      </trkpt>
      <trkpt lat="49.74693" lon="4.84683">
        <ele>246</ele>
        <time>2020-10-31T10:21:57.000Z</time>
      </trkpt>
      <trkpt lat="49.74693" lon="4.84684">
        <ele>246</ele>
        <time>2020-10-31T10:21:58.000Z</time>
      </trkpt>
      <trkpt lat="49.74693" lon="4.84686">
        <ele>246</ele>
        <time>2020-10-31T10:21:59.000Z</time>
      </trkpt>
      <trkpt lat="49.74692" lon="4.84688">
        <ele>246</ele>
        <time>2020-10-31T10:22:00.000Z</time>
      </trkpt>
      <trkpt lat="49.74692" lon="4.84689">
        <ele>246</ele>
        <time>2020-10-31T10:22:01.000Z</time>
      </trkpt>
      <trkpt lat="49.74691" lon="4.8469">
        <ele>247</ele>
        <time>2020-10-31T10:22:02.000Z</time>
      </trkpt>
      <trkpt lat="49.7469" lon="4.84692">
        <ele>247</ele>
        <time>2020-10-31T10:22:03.000Z</time>
      </trkpt>
      <trkpt lat="49.74689" lon="4.84693">
        <ele>247</ele>
        <time>2020-10-31T10:22:04.000Z</time>
      </trkpt>
      <trkpt lat="49.74689" lon="4.84695">
        <ele>247</ele>
        <time>2020-10-31T10:22:05.000Z</time>
      </trkpt>
      <trkpt lat="49.74689" lon="4.84696">
        <ele>247</ele>
        <time>2020-10-31T10:22:06.000Z</time>
      </trkpt>
      <trkpt lat="49.74688" lon="4.84698">
        <ele>248</ele>
        <time>2020-10-31T10:22:07.000Z</time>
      </trkpt>
      <trkpt lat="49.74687" lon="4.847">
        <ele>248</ele>
        <time>2020-10-31T10:22:08.000Z</time>
      </trkpt>
      <trkpt lat="49.74686" lon="4.84702">
        <ele>248</ele>
        <time>2020-10-31T10:22:09.000Z</time>
      </trkpt>
      <trkpt lat="49.74685" lon="4.84703">
        <ele>248</ele>
        <time>2020-10-31T10:22:10.000Z</time>
      </trkpt>
      <trkpt lat="49.74685" lon="4.84704">
        <ele>249</ele>
        <time>2020-10-31T10:22:11.000Z</time>
      </trkpt>
      <trkpt lat="49.74684" lon="4.84705">
        <ele>249</ele>
        <time>2020-10-31T10:22:12.000Z</time>
      </trkpt>
      <trkpt lat="49.74684" lon="4.84706">
        <ele>249</ele>
        <time>2020-10-31T10:22:13.000Z</time>
      </trkpt>
      <trkpt lat="49.74684" lon="4.84707">
        <ele>249</ele>
        <time>2020-10-31T10:22:14.000Z</time>
      </trkpt>
      <trkpt lat="49.74684" lon="4.84709">
        <ele>250</ele>
        <time>2020-10-31T10:22:15.000Z</time>
      </trkpt>
      <trkpt lat="49.74684" lon="4.8471">
        <ele>250</ele>
        <time>2020-10-31T10:22:16.000Z</time>
      </trkpt>
      <trkpt lat="49.74684" lon="4.84712">
        <ele>250</ele>
        <time>2020-10-31T10:22:17.000Z</time>
      </trkpt>
      <trkpt lat="49.74684" lon="4.84714">
        <ele>250</ele>
        <time>2020-10-31T10:22:18.000Z</time>
      </trkpt>
      <trkpt lat="49.74684" lon="4.84716">
        <ele>250</ele>
        <time>2020-10-31T10:22:19.000Z</time>
      </trkpt>
      <trkpt lat="49.74683" lon="4.84717">
        <ele>250</ele>
        <time>2020-10-31T10:22:20.000Z</time>
      </trkpt>
      <trkpt lat="49.74683" lon="4.84718">
        <ele>251</ele>
        <time>2020-10-31T10:22:21.000Z</time>
      </trkpt>
      <trkpt lat="49.74683" lon="4.84718">
        <ele>251</ele>
        <time>2020-10-31T10:22:22.000Z</time>
      </trkpt>
      <trkpt lat="49.74683" lon="4.84719">
        <ele>251</ele>
        <time>2020-10-31T10:22:23.000Z</time>
      </trkpt>
      <trkpt lat="49.74683" lon="4.84719">
        <ele>251</ele>
        <time>2020-10-31T10:22:24.000Z</time>
      </trkpt>
      <trkpt lat="49.74683" lon="4.84719">
        <ele>251</ele>
        <time>2020-10-31T10:22:25.000Z</time>
      </trkpt>
      <trkpt lat="49.74683" lon="4.84719">
        <ele>251</ele>
        <time>2020-10-31T10:22:26.000Z</time>
      </trkpt>
      <trkpt lat="49.74683" lon="4.84719">
        <ele>251</ele>
        <time>2020-10-31T10:22:27.000Z</time>
      </trkpt>
      <trkpt lat="49.74683" lon="4.8472">
        <ele>251</ele>
        <time>2020-10-31T10:22:28.000Z</time>
      </trkpt>
      <trkpt lat="49.74683" lon="4.84721">
        <ele>251</ele>
        <time>2020-10-31T10:22:29.000Z</time>
      </trkpt>
      <trkpt lat="49.74684" lon="4.84722">
        <ele>251</ele>
        <time>2020-10-31T10:22:30.000Z</time>
      </trkpt>
      <trkpt lat="49.74684" lon="4.84724">
        <ele>251</ele>
        <time>2020-10-31T10:22:31.000Z</time>
      </trkpt>
      <trkpt lat="49.74684" lon="4.84726">
        <ele>251</ele>
        <time>2020-10-31T10:22:32.000Z</time>
      </trkpt>
      <trkpt lat="49.74683" lon="4.84728">
        <ele>251</ele>
        <time>2020-10-31T10:22:33.000Z</time>
      </trkpt>
      <trkpt lat="49.74682" lon="4.84731">
        <ele>251</ele>
        <time>2020-10-31T10:22:34.000Z</time>
      </trkpt>
      <trkpt lat="49.74682" lon="4.84733">
        <ele>251</ele>
        <time>2020-10-31T10:22:35.000Z</time>
      </trkpt>
      <trkpt lat="49.74682" lon="4.84735">
        <ele>251</ele>
        <time>2020-10-31T10:22:36.000Z</time>
      </trkpt>
      <trkpt lat="49.74683" lon="4.84737">
        <ele>251</ele>
        <time>2020-10-31T10:22:37.000Z</time>
      </trkpt>
      <trkpt lat="49.74683" lon="4.8474">
        <ele>251</ele>
        <time>2020-10-31T10:22:38.000Z</time>
      </trkpt>
      <trkpt lat="49.74684" lon="4.84743">
        <ele>251</ele>
        <time>2020-10-31T10:22:39.000Z</time>
      </trkpt>
      <trkpt lat="49.74685" lon="4.84746">
        <ele>251</ele>
        <time>2020-10-31T10:22:40.000Z</time>
      </trkpt>
      <trkpt lat="49.74685" lon="4.84749">
        <ele>251</ele>
        <time>2020-10-31T10:22:41.000Z</time>
      </trkpt>
      <trkpt lat="49.74686" lon="4.84752">
        <ele>251</ele>
        <time>2020-10-31T10:22:42.000Z</time>
      </trkpt>
      <trkpt lat="49.74687" lon="4.84756">
        <ele>251</ele>
        <time>2020-10-31T10:22:43.000Z</time>
      </trkpt>
      <trkpt lat="49.74688" lon="4.84759">
        <ele>251</ele>
        <time>2020-10-31T10:22:44.000Z</time>
      </trkpt>
      <trkpt lat="49.7469" lon="4.84764">
        <ele>251</ele>
        <time>2020-10-31T10:22:45.000Z</time>
      </trkpt>
      <trkpt lat="49.7469" lon="4.84768">
        <ele>252</ele>
        <time>2020-10-31T10:22:46.000Z</time>
      </trkpt>
      <trkpt lat="49.74691" lon="4.84772">
        <ele>252</ele>
        <time>2020-10-31T10:22:47.000Z</time>
      </trkpt>
      <trkpt lat="49.74691" lon="4.84777">
        <ele>252</ele>
        <time>2020-10-31T10:22:48.000Z</time>
      </trkpt>
      <trkpt lat="49.74692" lon="4.84781">
        <ele>252</ele>
        <time>2020-10-31T10:22:49.000Z</time>
      </trkpt>
      <trkpt lat="49.74692" lon="4.84785">
        <ele>252</ele>
        <time>2020-10-31T10:22:50.000Z</time>
      </trkpt>
      <trkpt lat="49.74691" lon="4.8479">
        <ele>252</ele>
        <time>2020-10-31T10:22:51.000Z</time>
      </trkpt>
      <trkpt lat="49.7469" lon="4.84796">
        <ele>252</ele>
        <time>2020-10-31T10:22:52.000Z</time>
      </trkpt>
      <trkpt lat="49.74689" lon="4.84801">
        <ele>252</ele>
        <time>2020-10-31T10:22:53.000Z</time>
      </trkpt>
      <trkpt lat="49.74687" lon="4.84805">
        <ele>252</ele>
        <time>2020-10-31T10:22:54.000Z</time>
      </trkpt>
      <trkpt lat="49.74686" lon="4.8481">
        <ele>252</ele>
        <time>2020-10-31T10:22:55.000Z</time>
      </trkpt>
      <trkpt lat="49.74684" lon="4.84813">
        <ele>252</ele>
        <time>2020-10-31T10:22:56.000Z</time>
      </trkpt>
      <trkpt lat="49.74682" lon="4.84817">
        <ele>252</ele>
        <time>2020-10-31T10:22:57.000Z</time>
      </trkpt>
      <trkpt lat="49.7468" lon="4.84821">
        <ele>252</ele>
        <time>2020-10-31T10:22:58.000Z</time>
      </trkpt>
      <trkpt lat="49.74678" lon="4.84823">
        <ele>252</ele>
        <time>2020-10-31T10:22:59.000Z</time>
      </trkpt>
      <trkpt lat="49.74675" lon="4.84826">
        <ele>252</ele>
        <time>2020-10-31T10:23:00.000Z</time>
      </trkpt>
      <trkpt lat="49.74673" lon="4.84827">
        <ele>252</ele>
        <time>2020-10-31T10:23:01.000Z</time>
      </trkpt>
      <trkpt lat="49.7467" lon="4.84829">
        <ele>252</ele>
        <time>2020-10-31T10:23:02.000Z</time>
      </trkpt>
      <trkpt lat="49.74667" lon="4.84829">
        <ele>252</ele>
        <time>2020-10-31T10:23:03.000Z</time>
      </trkpt>
      <trkpt lat="49.74663" lon="4.8483">
        <ele>252</ele>
        <time>2020-10-31T10:23:04.000Z</time>
      </trkpt>
      <trkpt lat="49.7466" lon="4.84831">
        <ele>252</ele>
        <time>2020-10-31T10:23:05.000Z</time>
      </trkpt>
      <trkpt lat="49.74657" lon="4.84832">
        <ele>252</ele>
        <time>2020-10-31T10:23:06.000Z</time>
      </trkpt>
      <trkpt lat="49.74654" lon="4.84833">
        <ele>252</ele>
        <time>2020-10-31T10:23:07.000Z</time>
      </trkpt>
      <trkpt lat="49.74651" lon="4.84833">
        <ele>252</ele>
        <time>2020-10-31T10:23:08.000Z</time>
      </trkpt>
      <trkpt lat="49.74648" lon="4.84834">
        <ele>252</ele>
        <time>2020-10-31T10:23:09.000Z</time>
      </trkpt>
      <trkpt lat="49.74644" lon="4.84835">
        <ele>252</ele>
        <time>2020-10-31T10:23:10.000Z</time>
      </trkpt>
      <trkpt lat="49.74641" lon="4.84836">
        <ele>251</ele>
        <time>2020-10-31T10:23:11.000Z</time>
      </trkpt>
      <trkpt lat="49.74637" lon="4.84836">
        <ele>251</ele>
        <time>2020-10-31T10:23:12.000Z</time>
      </trkpt>
      <trkpt lat="49.74632" lon="4.84837">
        <ele>251</ele>
        <time>2020-10-31T10:23:13.000Z</time>
      </trkpt>
      <trkpt lat="49.74629" lon="4.84837">
        <ele>251</ele>
        <time>2020-10-31T10:23:14.000Z</time>
      </trkpt>
      <trkpt lat="49.74625" lon="4.84836">
        <ele>251</ele>
        <time>2020-10-31T10:23:15.000Z</time>
      </trkpt>
      <trkpt lat="49.74622" lon="4.84836">
        <ele>251</ele>
        <time>2020-10-31T10:23:16.000Z</time>
      </trkpt>
      <trkpt lat="49.74619" lon="4.84836">
        <ele>251</ele>
        <time>2020-10-31T10:23:17.000Z</time>
      </trkpt>
      <trkpt lat="49.74615" lon="4.84835">
        <ele>251</ele>
        <time>2020-10-31T10:23:18.000Z</time>
      </trkpt>
      <trkpt lat="49.74611" lon="4.84835">
        <ele>251</ele>
        <time>2020-10-31T10:23:19.000Z</time>
      </trkpt>
      <trkpt lat="49.74606" lon="4.84835">
        <ele>251</ele>
        <time>2020-10-31T10:23:20.000Z</time>
      </trkpt>
      <trkpt lat="49.74602" lon="4.84835">
        <ele>251</ele>
        <time>2020-10-31T10:23:21.000Z</time>
      </trkpt>
      <trkpt lat="49.74598" lon="4.84835">
        <ele>251</ele>
        <time>2020-10-31T10:23:22.000Z</time>
      </trkpt>
      <trkpt lat="49.74593" lon="4.84834">
        <ele>251</ele>
        <time>2020-10-31T10:23:23.000Z</time>
      </trkpt>
      <trkpt lat="49.74589" lon="4.84833">
        <ele>251</ele>
        <time>2020-10-31T10:23:24.000Z</time>
      </trkpt>
      <trkpt lat="49.74585" lon="4.84833">
        <ele>251</ele>
        <time>2020-10-31T10:23:25.000Z</time>
      </trkpt>
      <trkpt lat="49.74581" lon="4.84832">
        <ele>252</ele>
        <time>2020-10-31T10:23:26.000Z</time>
      </trkpt>
      <trkpt lat="49.74577" lon="4.84831">
        <ele>252</ele>
        <time>2020-10-31T10:23:27.000Z</time>
      </trkpt>
      <trkpt lat="49.74574" lon="4.8483">
        <ele>252</ele>
        <time>2020-10-31T10:23:28.000Z</time>
      </trkpt>
      <trkpt lat="49.7457" lon="4.84829">
        <ele>252</ele>
        <time>2020-10-31T10:23:29.000Z</time>
      </trkpt>
      <trkpt lat="49.74567" lon="4.84828">
        <ele>252</ele>
        <time>2020-10-31T10:23:30.000Z</time>
      </trkpt>
      <trkpt lat="49.74563" lon="4.84828">
        <ele>252</ele>
        <time>2020-10-31T10:23:31.000Z</time>
      </trkpt>
      <trkpt lat="49.74559" lon="4.84826">
        <ele>252</ele>
        <time>2020-10-31T10:23:32.000Z</time>
      </trkpt>
      <trkpt lat="49.74555" lon="4.84826">
        <ele>252</ele>
        <time>2020-10-31T10:23:33.000Z</time>
      </trkpt>
      <trkpt lat="49.7455" lon="4.84826">
        <ele>252</ele>
        <time>2020-10-31T10:23:34.000Z</time>
      </trkpt>
      <trkpt lat="49.74546" lon="4.84827">
        <ele>252</ele>
        <time>2020-10-31T10:23:35.000Z</time>
      </trkpt>
      <trkpt lat="49.74541" lon="4.84827">
        <ele>252</ele>
        <time>2020-10-31T10:23:36.000Z</time>
      </trkpt>
      <trkpt lat="49.74538" lon="4.84828">
        <ele>252</ele>
        <time>2020-10-31T10:23:37.000Z</time>
      </trkpt>
      <trkpt lat="49.74534" lon="4.84829">
        <ele>252</ele>
        <time>2020-10-31T10:23:38.000Z</time>
      </trkpt>
      <trkpt lat="49.7453" lon="4.84832">
        <ele>252</ele>
        <time>2020-10-31T10:23:39.000Z</time>
      </trkpt>
      <trkpt lat="49.74527" lon="4.84834">
        <ele>252</ele>
        <time>2020-10-31T10:23:40.000Z</time>
      </trkpt>
      <trkpt lat="49.74523" lon="4.84836">
        <ele>252</ele>
        <time>2020-10-31T10:23:41.000Z</time>
      </trkpt>
      <trkpt lat="49.7452" lon="4.84839">
        <ele>251</ele>
        <time>2020-10-31T10:23:42.000Z</time>
      </trkpt>
      <trkpt lat="49.74516" lon="4.84843">
        <ele>251</ele>
        <time>2020-10-31T10:23:43.000Z</time>
      </trkpt>
      <trkpt lat="49.74513" lon="4.84847">
        <ele>251</ele>
        <time>2020-10-31T10:23:44.000Z</time>
      </trkpt>
      <trkpt lat="49.74509" lon="4.84851">
        <ele>251</ele>
        <time>2020-10-31T10:23:45.000Z</time>
      </trkpt>
      <trkpt lat="49.74505" lon="4.84856">
        <ele>251</ele>
        <time>2020-10-31T10:23:46.000Z</time>
      </trkpt>
      <trkpt lat="49.74502" lon="4.84861">
        <ele>250</ele>
        <time>2020-10-31T10:23:47.000Z</time>
      </trkpt>
      <trkpt lat="49.74499" lon="4.84867">
        <ele>250</ele>
        <time>2020-10-31T10:23:48.000Z</time>
      </trkpt>
      <trkpt lat="49.74497" lon="4.84873">
        <ele>250</ele>
        <time>2020-10-31T10:23:49.000Z</time>
      </trkpt>
      <trkpt lat="49.74495" lon="4.84877">
        <ele>250</ele>
        <time>2020-10-31T10:23:50.000Z</time>
      </trkpt>
      <trkpt lat="49.74492" lon="4.84882">
        <ele>250</ele>
        <time>2020-10-31T10:23:51.000Z</time>
      </trkpt>
      <trkpt lat="49.7449" lon="4.84887">
        <ele>250</ele>
        <time>2020-10-31T10:23:52.000Z</time>
      </trkpt>
      <trkpt lat="49.74487" lon="4.84892">
        <ele>250</ele>
        <time>2020-10-31T10:23:53.000Z</time>
      </trkpt>
      <trkpt lat="49.74485" lon="4.84896">
        <ele>250</ele>
        <time>2020-10-31T10:23:54.000Z</time>
      </trkpt>
      <trkpt lat="49.74483" lon="4.84899">
        <ele>250</ele>
        <time>2020-10-31T10:23:55.000Z</time>
      </trkpt>
      <trkpt lat="49.74482" lon="4.84902">
        <ele>250</ele>
        <time>2020-10-31T10:23:56.000Z</time>
      </trkpt>
      <trkpt lat="49.74482" lon="4.84904">
        <ele>250</ele>
        <time>2020-10-31T10:23:57.000Z</time>
      </trkpt>
      <trkpt lat="49.74483" lon="4.84908">
        <ele>250</ele>
        <time>2020-10-31T10:23:58.000Z</time>
      </trkpt>
      <trkpt lat="49.74487" lon="4.84912">
        <ele>250</ele>
        <time>2020-10-31T10:23:59.000Z</time>
      </trkpt>
      <trkpt lat="49.74491" lon="4.84917">
        <ele>249</ele>
        <time>2020-10-31T10:24:00.000Z</time>
      </trkpt>
      <trkpt lat="49.74497" lon="4.84924">
        <ele>249</ele>
        <time>2020-10-31T10:24:01.000Z</time>
      </trkpt>
      <trkpt lat="49.74503" lon="4.84932">
        <ele>249</ele>
        <time>2020-10-31T10:24:02.000Z</time>
      </trkpt>
      <trkpt lat="49.74508" lon="4.84942">
        <ele>249</ele>
        <time>2020-10-31T10:24:03.000Z</time>
      </trkpt>
      <trkpt lat="49.74512" lon="4.84952">
        <ele>248</ele>
        <time>2020-10-31T10:24:04.000Z</time>
      </trkpt>
      <trkpt lat="49.74516" lon="4.84961">
        <ele>248</ele>
        <time>2020-10-31T10:24:05.000Z</time>
      </trkpt>
      <trkpt lat="49.7452" lon="4.84971">
        <ele>248</ele>
        <time>2020-10-31T10:24:06.000Z</time>
      </trkpt>
      <trkpt lat="49.74523" lon="4.84982">
        <ele>248</ele>
        <time>2020-10-31T10:24:07.000Z</time>
      </trkpt>
      <trkpt lat="49.74526" lon="4.84992">
        <ele>247</ele>
        <time>2020-10-31T10:24:08.000Z</time>
      </trkpt>
      <trkpt lat="49.74529" lon="4.85003">
        <ele>247</ele>
        <time>2020-10-31T10:24:09.000Z</time>
      </trkpt>
      <trkpt lat="49.74532" lon="4.85014">
        <ele>247</ele>
        <time>2020-10-31T10:24:10.000Z</time>
      </trkpt>
      <trkpt lat="49.74535" lon="4.85026">
        <ele>246</ele>
        <time>2020-10-31T10:24:11.000Z</time>
      </trkpt>
      <trkpt lat="49.74538" lon="4.85037">
        <ele>246</ele>
        <time>2020-10-31T10:24:12.000Z</time>
      </trkpt>
      <trkpt lat="49.74541" lon="4.85049">
        <ele>245</ele>
        <time>2020-10-31T10:24:13.000Z</time>
      </trkpt>
      <trkpt lat="49.74545" lon="4.8506">
        <ele>244</ele>
        <time>2020-10-31T10:24:14.000Z</time>
      </trkpt>
      <trkpt lat="49.74549" lon="4.85071">
        <ele>243</ele>
        <time>2020-10-31T10:24:15.000Z</time>
      </trkpt>
      <trkpt lat="49.74552" lon="4.85081">
        <ele>243</ele>
        <time>2020-10-31T10:24:16.000Z</time>
      </trkpt>
      <trkpt lat="49.74554" lon="4.8509">
        <ele>242</ele>
        <time>2020-10-31T10:24:17.000Z</time>
      </trkpt>
      <trkpt lat="49.74555" lon="4.851">
        <ele>241</ele>
        <time>2020-10-31T10:24:18.000Z</time>
      </trkpt>
      <trkpt lat="49.74556" lon="4.85109">
        <ele>241</ele>
        <time>2020-10-31T10:24:19.000Z</time>
      </trkpt>
      <trkpt lat="49.74555" lon="4.85118">
        <ele>240</ele>
        <time>2020-10-31T10:24:20.000Z</time>
      </trkpt>
      <trkpt lat="49.74554" lon="4.85128">
        <ele>240</ele>
        <time>2020-10-31T10:24:21.000Z</time>
      </trkpt>
      <trkpt lat="49.74553" lon="4.8514">
        <ele>239</ele>
        <time>2020-10-31T10:24:22.000Z</time>
      </trkpt>
      <trkpt lat="49.74552" lon="4.85151">
        <ele>238</ele>
        <time>2020-10-31T10:24:23.000Z</time>
      </trkpt>
      <trkpt lat="49.74551" lon="4.85163">
        <ele>238</ele>
        <time>2020-10-31T10:24:24.000Z</time>
      </trkpt>
      <trkpt lat="49.7455" lon="4.85175">
        <ele>237</ele>
        <time>2020-10-31T10:24:25.000Z</time>
      </trkpt>
      <trkpt lat="49.74549" lon="4.85188">
        <ele>237</ele>
        <time>2020-10-31T10:24:26.000Z</time>
      </trkpt>
      <trkpt lat="49.74548" lon="4.852">
        <ele>236</ele>
        <time>2020-10-31T10:24:27.000Z</time>
      </trkpt>
      <trkpt lat="49.74547" lon="4.85212">
        <ele>235</ele>
        <time>2020-10-31T10:24:28.000Z</time>
      </trkpt>
      <trkpt lat="49.74546" lon="4.85224">
        <ele>235</ele>
        <time>2020-10-31T10:24:29.000Z</time>
      </trkpt>
      <trkpt lat="49.74546" lon="4.85236">
        <ele>234</ele>
        <time>2020-10-31T10:24:30.000Z</time>
      </trkpt>
      <trkpt lat="49.74546" lon="4.85249">
        <ele>234</ele>
        <time>2020-10-31T10:24:31.000Z</time>
      </trkpt>
      <trkpt lat="49.74545" lon="4.8526">
        <ele>234</ele>
        <time>2020-10-31T10:24:32.000Z</time>
      </trkpt>
      <trkpt lat="49.74545" lon="4.8527">
        <ele>233</ele>
        <time>2020-10-31T10:24:33.000Z</time>
      </trkpt>
      <trkpt lat="49.74544" lon="4.85281">
        <ele>233</ele>
        <time>2020-10-31T10:24:34.000Z</time>
      </trkpt>
      <trkpt lat="49.74543" lon="4.85291">
        <ele>233</ele>
        <time>2020-10-31T10:24:35.000Z</time>
      </trkpt>
      <trkpt lat="49.74543" lon="4.853">
        <ele>232</ele>
        <time>2020-10-31T10:24:36.000Z</time>
      </trkpt>
      <trkpt lat="49.74542" lon="4.85308">
        <ele>232</ele>
        <time>2020-10-31T10:24:37.000Z</time>
      </trkpt>
      <trkpt lat="49.74541" lon="4.85317">
        <ele>232</ele>
        <time>2020-10-31T10:24:38.000Z</time>
      </trkpt>
      <trkpt lat="49.74541" lon="4.85325">
        <ele>232</ele>
        <time>2020-10-31T10:24:39.000Z</time>
      </trkpt>
      <trkpt lat="49.7454" lon="4.85333">
        <ele>231</ele>
        <time>2020-10-31T10:24:40.000Z</time>
      </trkpt>
      <trkpt lat="49.7454" lon="4.8534">
        <ele>231</ele>
        <time>2020-10-31T10:24:41.000Z</time>
      </trkpt>
      <trkpt lat="49.7454" lon="4.85348">
        <ele>231</ele>
        <time>2020-10-31T10:24:42.000Z</time>
      </trkpt>
      <trkpt lat="49.74539" lon="4.85355">
        <ele>231</ele>
        <time>2020-10-31T10:24:43.000Z</time>
      </trkpt>
      <trkpt lat="49.74538" lon="4.85361">
        <ele>231</ele>
        <time>2020-10-31T10:24:44.000Z</time>
      </trkpt>
      <trkpt lat="49.74537" lon="4.85366">
        <ele>231</ele>
        <time>2020-10-31T10:24:45.000Z</time>
      </trkpt>
      <trkpt lat="49.74537" lon="4.85372">
        <ele>231</ele>
        <time>2020-10-31T10:24:46.000Z</time>
      </trkpt>
      <trkpt lat="49.74536" lon="4.85379">
        <ele>231</ele>
        <time>2020-10-31T10:24:47.000Z</time>
      </trkpt>
      <trkpt lat="49.74535" lon="4.85385">
        <ele>230</ele>
        <time>2020-10-31T10:24:48.000Z</time>
      </trkpt>
      <trkpt lat="49.74534" lon="4.85389">
        <ele>230</ele>
        <time>2020-10-31T10:24:49.000Z</time>
      </trkpt>
      <trkpt lat="49.74533" lon="4.85393">
        <ele>230</ele>
        <time>2020-10-31T10:24:50.000Z</time>
      </trkpt>
      <trkpt lat="49.74533" lon="4.85397">
        <ele>230</ele>
        <time>2020-10-31T10:24:51.000Z</time>
      </trkpt>
      <trkpt lat="49.74533" lon="4.85401">
        <ele>230</ele>
        <time>2020-10-31T10:24:52.000Z</time>
      </trkpt>
      <trkpt lat="49.74533" lon="4.85405">
        <ele>229</ele>
        <time>2020-10-31T10:24:53.000Z</time>
      </trkpt>
      <trkpt lat="49.74533" lon="4.8541">
        <ele>229</ele>
        <time>2020-10-31T10:24:54.000Z</time>
      </trkpt>
      <trkpt lat="49.74533" lon="4.85415">
        <ele>229</ele>
        <time>2020-10-31T10:24:55.000Z</time>
      </trkpt>
      <trkpt lat="49.74533" lon="4.85421">
        <ele>229</ele>
        <time>2020-10-31T10:24:56.000Z</time>
      </trkpt>
      <trkpt lat="49.74533" lon="4.85426">
        <ele>229</ele>
        <time>2020-10-31T10:24:57.000Z</time>
      </trkpt>
      <trkpt lat="49.74534" lon="4.85432">
        <ele>229</ele>
        <time>2020-10-31T10:24:58.000Z</time>
      </trkpt>
      <trkpt lat="49.74535" lon="4.85437">
        <ele>229</ele>
        <time>2020-10-31T10:24:59.000Z</time>
      </trkpt>
      <trkpt lat="49.74536" lon="4.85443">
        <ele>229</ele>
        <time>2020-10-31T10:25:00.000Z</time>
      </trkpt>
      <trkpt lat="49.74536" lon="4.85449">
        <ele>229</ele>
        <time>2020-10-31T10:25:01.000Z</time>
      </trkpt>
      <trkpt lat="49.74537" lon="4.85455">
        <ele>229</ele>
        <time>2020-10-31T10:25:02.000Z</time>
      </trkpt>
      <trkpt lat="49.74537" lon="4.8546">
        <ele>229</ele>
        <time>2020-10-31T10:25:03.000Z</time>
      </trkpt>
      <trkpt lat="49.74537" lon="4.85465">
        <ele>229</ele>
        <time>2020-10-31T10:25:04.000Z</time>
      </trkpt>
      <trkpt lat="49.74536" lon="4.8547">
        <ele>229</ele>
        <time>2020-10-31T10:25:05.000Z</time>
      </trkpt>
      <trkpt lat="49.74536" lon="4.85474">
        <ele>229</ele>
        <time>2020-10-31T10:25:06.000Z</time>
      </trkpt>
      <trkpt lat="49.74536" lon="4.85478">
        <ele>229</ele>
        <time>2020-10-31T10:25:07.000Z</time>
      </trkpt>
      <trkpt lat="49.74536" lon="4.8548">
        <ele>229</ele>
        <time>2020-10-31T10:25:08.000Z</time>
      </trkpt>
      <trkpt lat="49.74536" lon="4.85482">
        <ele>229</ele>
        <time>2020-10-31T10:25:09.000Z</time>
      </trkpt>
      <trkpt lat="49.74536" lon="4.85484">
        <ele>229</ele>
        <time>2020-10-31T10:25:10.000Z</time>
      </trkpt>
      <trkpt lat="49.74536" lon="4.85487">
        <ele>229</ele>
        <time>2020-10-31T10:25:11.000Z</time>
      </trkpt>
      <trkpt lat="49.74536" lon="4.85489">
        <ele>229</ele>
        <time>2020-10-31T10:25:12.000Z</time>
      </trkpt>
      <trkpt lat="49.74536" lon="4.85493">
        <ele>229</ele>
        <time>2020-10-31T10:25:13.000Z</time>
      </trkpt>
      <trkpt lat="49.74536" lon="4.85495">
        <ele>229</ele>
        <time>2020-10-31T10:25:14.000Z</time>
      </trkpt>
      <trkpt lat="49.74536" lon="4.85497">
        <ele>229</ele>
        <time>2020-10-31T10:25:15.000Z</time>
      </trkpt>
      <trkpt lat="49.74536" lon="4.85498">
        <ele>229</ele>
        <time>2020-10-31T10:25:16.000Z</time>
      </trkpt>
      <trkpt lat="49.74536" lon="4.85499">
        <ele>229</ele>
        <time>2020-10-31T10:25:17.000Z</time>
      </trkpt>
      <trkpt lat="49.74536" lon="4.85499">
        <ele>229</ele>
        <time>2020-10-31T10:25:18.000Z</time>
      </trkpt>
      <trkpt lat="49.74536" lon="4.85498">
        <ele>229</ele>
        <time>2020-10-31T10:25:19.000Z</time>
      </trkpt>
      <trkpt lat="49.74536" lon="4.85497">
        <ele>229</ele>
        <time>2020-10-31T10:25:20.000Z</time>
      </trkpt>
      <trkpt lat="49.74536" lon="4.85495">
        <ele>229</ele>
        <time>2020-10-31T10:25:21.000Z</time>
      </trkpt>
      <trkpt lat="49.74536" lon="4.85493">
        <ele>228</ele>
        <time>2020-10-31T10:25:22.000Z</time>
      </trkpt>
      <trkpt lat="49.74536" lon="4.8549">
        <ele>228</ele>
        <time>2020-10-31T10:25:23.000Z</time>
      </trkpt>
      <trkpt lat="49.74536" lon="4.85488">
        <ele>228</ele>
        <time>2020-10-31T10:25:24.000Z</time>
      </trkpt>
      <trkpt lat="49.74536" lon="4.85486">
        <ele>228</ele>
        <time>2020-10-31T10:25:25.000Z</time>
      </trkpt>
      <trkpt lat="49.74536" lon="4.85484">
        <ele>228</ele>
        <time>2020-10-31T10:25:26.000Z</time>
      </trkpt>
      <trkpt lat="49.74537" lon="4.85481">
        <ele>228</ele>
        <time>2020-10-31T10:25:27.000Z</time>
      </trkpt>
      <trkpt lat="49.74537" lon="4.8548">
        <ele>228</ele>
        <time>2020-10-31T10:25:28.000Z</time>
      </trkpt>
      <trkpt lat="49.74536" lon="4.85479">
        <ele>228</ele>
        <time>2020-10-31T10:25:29.000Z</time>
      </trkpt>
      <trkpt lat="49.74535" lon="4.85478">
        <ele>228</ele>
        <time>2020-10-31T10:25:30.000Z</time>
      </trkpt>
      <trkpt lat="49.74534" lon="4.85478">
        <ele>228</ele>
        <time>2020-10-31T10:25:31.000Z</time>
      </trkpt>
      <trkpt lat="49.74534" lon="4.85479">
        <ele>228</ele>
        <time>2020-10-31T10:25:32.000Z</time>
      </trkpt>
      <trkpt lat="49.74533" lon="4.85478">
        <ele>228</ele>
        <time>2020-10-31T10:25:33.000Z</time>
      </trkpt>
      <trkpt lat="49.74532" lon="4.85478">
        <ele>228</ele>
        <time>2020-10-31T10:25:34.000Z</time>
      </trkpt>
      <trkpt lat="49.74532" lon="4.85477">
        <ele>228</ele>
        <time>2020-10-31T10:25:35.000Z</time>
      </trkpt>
      <trkpt lat="49.74532" lon="4.85478">
        <ele>228</ele>
        <time>2020-10-31T10:25:36.000Z</time>
      </trkpt>
      <trkpt lat="49.74532" lon="4.85477">
        <ele>228</ele>
        <time>2020-10-31T10:25:37.000Z</time>
      </trkpt>
      <trkpt lat="49.74532" lon="4.85477">
        <ele>228</ele>
        <time>2020-10-31T10:25:38.000Z</time>
      </trkpt>
      <trkpt lat="49.74532" lon="4.85477">
        <ele>228</ele>
        <time>2020-10-31T10:25:39.000Z</time>
      </trkpt>
      <trkpt lat="49.74533" lon="4.85476">
        <ele>228</ele>
        <time>2020-10-31T10:25:40.000Z</time>
      </trkpt>
      <trkpt lat="49.74534" lon="4.85476">
        <ele>228</ele>
        <time>2020-10-31T10:25:41.000Z</time>
      </trkpt>
      <trkpt lat="49.74535" lon="4.85477">
        <ele>228</ele>
        <time>2020-10-31T10:25:42.000Z</time>
      </trkpt>
      <trkpt lat="49.74535" lon="4.85479">
        <ele>228</ele>
        <time>2020-10-31T10:25:43.000Z</time>
      </trkpt>
      <trkpt lat="49.74534" lon="4.85481">
        <ele>228</ele>
        <time>2020-10-31T10:25:44.000Z</time>
      </trkpt>
      <trkpt lat="49.74534" lon="4.85483">
        <ele>228</ele>
        <time>2020-10-31T10:25:45.000Z</time>
      </trkpt>
      <trkpt lat="49.74534" lon="4.85486">
        <ele>228</ele>
        <time>2020-10-31T10:25:46.000Z</time>
      </trkpt>
      <trkpt lat="49.74534" lon="4.85489">
        <ele>228</ele>
        <time>2020-10-31T10:25:47.000Z</time>
      </trkpt>
      <trkpt lat="49.74534" lon="4.85492">
        <ele>227</ele>
        <time>2020-10-31T10:25:48.000Z</time>
      </trkpt>
      <trkpt lat="49.74534" lon="4.85496">
        <ele>227</ele>
        <time>2020-10-31T10:25:49.000Z</time>
      </trkpt>
      <trkpt lat="49.74534" lon="4.855">
        <ele>227</ele>
        <time>2020-10-31T10:25:50.000Z</time>
      </trkpt>
      <trkpt lat="49.74534" lon="4.85504">
        <ele>227</ele>
        <time>2020-10-31T10:25:51.000Z</time>
      </trkpt>
      <trkpt lat="49.74533" lon="4.85508">
        <ele>227</ele>
        <time>2020-10-31T10:25:52.000Z</time>
      </trkpt>
      <trkpt lat="49.74533" lon="4.85513">
        <ele>227</ele>
        <time>2020-10-31T10:25:53.000Z</time>
      </trkpt>
      <trkpt lat="49.74532" lon="4.85517">
        <ele>227</ele>
        <time>2020-10-31T10:25:54.000Z</time>
      </trkpt>
      <trkpt lat="49.74532" lon="4.85521">
        <ele>227</ele>
        <time>2020-10-31T10:25:55.000Z</time>
      </trkpt>
      <trkpt lat="49.74531" lon="4.85526">
        <ele>227</ele>
        <time>2020-10-31T10:25:56.000Z</time>
      </trkpt>
      <trkpt lat="49.74531" lon="4.85531">
        <ele>227</ele>
        <time>2020-10-31T10:25:57.000Z</time>
      </trkpt>
      <trkpt lat="49.7453" lon="4.85536">
        <ele>227</ele>
        <time>2020-10-31T10:25:58.000Z</time>
      </trkpt>
      <trkpt lat="49.74529" lon="4.85542">
        <ele>227</ele>
        <time>2020-10-31T10:25:59.000Z</time>
      </trkpt>
      <trkpt lat="49.74527" lon="4.85546">
        <ele>227</ele>
        <time>2020-10-31T10:26:00.000Z</time>
      </trkpt>
      <trkpt lat="49.74525" lon="4.85552">
        <ele>227</ele>
        <time>2020-10-31T10:26:01.000Z</time>
      </trkpt>
      <trkpt lat="49.74523" lon="4.85557">
        <ele>227</ele>
        <time>2020-10-31T10:26:02.000Z</time>
      </trkpt>
      <trkpt lat="49.74522" lon="4.85561">
        <ele>227</ele>
        <time>2020-10-31T10:26:03.000Z</time>
      </trkpt>
      <trkpt lat="49.74519" lon="4.85567">
        <ele>227</ele>
        <time>2020-10-31T10:26:04.000Z</time>
      </trkpt>
      <trkpt lat="49.74517" lon="4.85571">
        <ele>227</ele>
        <time>2020-10-31T10:26:05.000Z</time>
      </trkpt>
      <trkpt lat="49.74514" lon="4.85573">
        <ele>227</ele>
        <time>2020-10-31T10:26:06.000Z</time>
      </trkpt>
      <trkpt lat="49.74511" lon="4.85576">
        <ele>227</ele>
        <time>2020-10-31T10:26:07.000Z</time>
      </trkpt>
      <trkpt lat="49.74508" lon="4.85579">
        <ele>227</ele>
        <time>2020-10-31T10:26:08.000Z</time>
      </trkpt>
      <trkpt lat="49.74504" lon="4.85581">
        <ele>227</ele>
        <time>2020-10-31T10:26:09.000Z</time>
      </trkpt>
      <trkpt lat="49.745" lon="4.85582">
        <ele>227</ele>
        <time>2020-10-31T10:26:10.000Z</time>
      </trkpt>
      <trkpt lat="49.74497" lon="4.85583">
        <ele>227</ele>
        <time>2020-10-31T10:26:11.000Z</time>
      </trkpt>
      <trkpt lat="49.74494" lon="4.85585">
        <ele>227</ele>
        <time>2020-10-31T10:26:12.000Z</time>
      </trkpt>
      <trkpt lat="49.7449" lon="4.85585">
        <ele>227</ele>
        <time>2020-10-31T10:26:13.000Z</time>
      </trkpt>
      <trkpt lat="49.74486" lon="4.85586">
        <ele>227</ele>
        <time>2020-10-31T10:26:14.000Z</time>
      </trkpt>
      <trkpt lat="49.74482" lon="4.85586">
        <ele>226</ele>
        <time>2020-10-31T10:26:15.000Z</time>
      </trkpt>
      <trkpt lat="49.74478" lon="4.85585">
        <ele>226</ele>
        <time>2020-10-31T10:26:16.000Z</time>
      </trkpt>
      <trkpt lat="49.74474" lon="4.85584">
        <ele>226</ele>
        <time>2020-10-31T10:26:17.000Z</time>
      </trkpt>
      <trkpt lat="49.7447" lon="4.85583">
        <ele>226</ele>
        <time>2020-10-31T10:26:18.000Z</time>
      </trkpt>
      <trkpt lat="49.74466" lon="4.85583">
        <ele>226</ele>
        <time>2020-10-31T10:26:19.000Z</time>
      </trkpt>
      <trkpt lat="49.74462" lon="4.85582">
        <ele>226</ele>
        <time>2020-10-31T10:26:20.000Z</time>
      </trkpt>
      <trkpt lat="49.74458" lon="4.85581">
        <ele>226</ele>
        <time>2020-10-31T10:26:21.000Z</time>
      </trkpt>
      <trkpt lat="49.74454" lon="4.85581">
        <ele>226</ele>
        <time>2020-10-31T10:26:22.000Z</time>
      </trkpt>
      <trkpt lat="49.7445" lon="4.8558">
        <ele>226</ele>
        <time>2020-10-31T10:26:23.000Z</time>
      </trkpt>
      <trkpt lat="49.74446" lon="4.85579">
        <ele>225</ele>
        <time>2020-10-31T10:26:24.000Z</time>
      </trkpt>
      <trkpt lat="49.74442" lon="4.85578">
        <ele>225</ele>
        <time>2020-10-31T10:26:25.000Z</time>
      </trkpt>
      <trkpt lat="49.74438" lon="4.85576">
        <ele>225</ele>
        <time>2020-10-31T10:26:26.000Z</time>
      </trkpt>
      <trkpt lat="49.74435" lon="4.85574">
        <ele>224</ele>
        <time>2020-10-31T10:26:27.000Z</time>
      </trkpt>
      <trkpt lat="49.74431" lon="4.85572">
        <ele>224</ele>
        <time>2020-10-31T10:26:28.000Z</time>
      </trkpt>
      <trkpt lat="49.74427" lon="4.8557">
        <ele>224</ele>
        <time>2020-10-31T10:26:29.000Z</time>
      </trkpt>
      <trkpt lat="49.74423" lon="4.85568">
        <ele>223</ele>
        <time>2020-10-31T10:26:30.000Z</time>
      </trkpt>
      <trkpt lat="49.74419" lon="4.85565">
        <ele>223</ele>
        <time>2020-10-31T10:26:31.000Z</time>
      </trkpt>
      <trkpt lat="49.74415" lon="4.85563">
        <ele>222</ele>
        <time>2020-10-31T10:26:32.000Z</time>
      </trkpt>
      <trkpt lat="49.74412" lon="4.8556">
        <ele>222</ele>
        <time>2020-10-31T10:26:33.000Z</time>
      </trkpt>
      <trkpt lat="49.74408" lon="4.85557">
        <ele>222</ele>
        <time>2020-10-31T10:26:34.000Z</time>
      </trkpt>
      <trkpt lat="49.74404" lon="4.85554">
        <ele>221</ele>
        <time>2020-10-31T10:26:35.000Z</time>
      </trkpt>
      <trkpt lat="49.744" lon="4.8555">
        <ele>221</ele>
        <time>2020-10-31T10:26:36.000Z</time>
      </trkpt>
      <trkpt lat="49.74395" lon="4.85547">
        <ele>221</ele>
        <time>2020-10-31T10:26:37.000Z</time>
      </trkpt>
      <trkpt lat="49.74391" lon="4.85544">
        <ele>220</ele>
        <time>2020-10-31T10:26:38.000Z</time>
      </trkpt>
      <trkpt lat="49.74388" lon="4.8554">
        <ele>220</ele>
        <time>2020-10-31T10:26:39.000Z</time>
      </trkpt>
      <trkpt lat="49.74384" lon="4.85536">
        <ele>220</ele>
        <time>2020-10-31T10:26:40.000Z</time>
      </trkpt>
      <trkpt lat="49.7438" lon="4.85531">
        <ele>219</ele>
        <time>2020-10-31T10:26:41.000Z</time>
      </trkpt>
      <trkpt lat="49.74376" lon="4.85527">
        <ele>219</ele>
        <time>2020-10-31T10:26:42.000Z</time>
      </trkpt>
      <trkpt lat="49.74371" lon="4.85522">
        <ele>219</ele>
        <time>2020-10-31T10:26:43.000Z</time>
      </trkpt>
      <trkpt lat="49.74365" lon="4.85516">
        <ele>218</ele>
        <time>2020-10-31T10:26:44.000Z</time>
      </trkpt>
      <trkpt lat="49.74359" lon="4.85509">
        <ele>218</ele>
        <time>2020-10-31T10:26:45.000Z</time>
      </trkpt>
      <trkpt lat="49.74354" lon="4.85502">
        <ele>218</ele>
        <time>2020-10-31T10:26:46.000Z</time>
      </trkpt>
      <trkpt lat="49.74349" lon="4.85495">
        <ele>218</ele>
        <time>2020-10-31T10:26:47.000Z</time>
      </trkpt>
      <trkpt lat="49.74344" lon="4.8549">
        <ele>217</ele>
        <time>2020-10-31T10:26:48.000Z</time>
      </trkpt>
      <trkpt lat="49.7434" lon="4.85484">
        <ele>217</ele>
        <time>2020-10-31T10:26:49.000Z</time>
      </trkpt>
      <trkpt lat="49.74335" lon="4.85479">
        <ele>217</ele>
        <time>2020-10-31T10:26:50.000Z</time>
      </trkpt>
      <trkpt lat="49.74331" lon="4.85475">
        <ele>217</ele>
        <time>2020-10-31T10:26:51.000Z</time>
      </trkpt>
      <trkpt lat="49.74327" lon="4.85471">
        <ele>217</ele>
        <time>2020-10-31T10:26:52.000Z</time>
      </trkpt>
      <trkpt lat="49.74322" lon="4.85467">
        <ele>217</ele>
        <time>2020-10-31T10:26:53.000Z</time>
      </trkpt>
      <trkpt lat="49.74318" lon="4.85463">
        <ele>217</ele>
        <time>2020-10-31T10:26:54.000Z</time>
      </trkpt>
      <trkpt lat="49.74314" lon="4.85459">
        <ele>217</ele>
        <time>2020-10-31T10:26:55.000Z</time>
      </trkpt>
      <trkpt lat="49.7431" lon="4.85455">
        <ele>216</ele>
        <time>2020-10-31T10:26:56.000Z</time>
      </trkpt>
      <trkpt lat="49.74307" lon="4.85451">
        <ele>216</ele>
        <time>2020-10-31T10:26:57.000Z</time>
      </trkpt>
      <trkpt lat="49.74303" lon="4.85447">
        <ele>216</ele>
        <time>2020-10-31T10:26:58.000Z</time>
      </trkpt>
      <trkpt lat="49.743" lon="4.85443">
        <ele>216</ele>
        <time>2020-10-31T10:26:59.000Z</time>
      </trkpt>
      <trkpt lat="49.74297" lon="4.85439">
        <ele>216</ele>
        <time>2020-10-31T10:27:00.000Z</time>
      </trkpt>
      <trkpt lat="49.74294" lon="4.85436">
        <ele>215</ele>
        <time>2020-10-31T10:27:01.000Z</time>
      </trkpt>
      <trkpt lat="49.74291" lon="4.85432">
        <ele>215</ele>
        <time>2020-10-31T10:27:02.000Z</time>
      </trkpt>
      <trkpt lat="49.74289" lon="4.85429">
        <ele>215</ele>
        <time>2020-10-31T10:27:03.000Z</time>
      </trkpt>
      <trkpt lat="49.74287" lon="4.85425">
        <ele>215</ele>
        <time>2020-10-31T10:27:04.000Z</time>
      </trkpt>
      <trkpt lat="49.74286" lon="4.85422">
        <ele>215</ele>
        <time>2020-10-31T10:27:05.000Z</time>
      </trkpt>
      <trkpt lat="49.74283" lon="4.85419">
        <ele>215</ele>
        <time>2020-10-31T10:27:06.000Z</time>
      </trkpt>
      <trkpt lat="49.74282" lon="4.85416">
        <ele>214</ele>
        <time>2020-10-31T10:27:07.000Z</time>
      </trkpt>
      <trkpt lat="49.74279" lon="4.85413">
        <ele>214</ele>
        <time>2020-10-31T10:27:08.000Z</time>
      </trkpt>
      <trkpt lat="49.74277" lon="4.8541">
        <ele>214</ele>
        <time>2020-10-31T10:27:09.000Z</time>
      </trkpt>
      <trkpt lat="49.74274" lon="4.85406">
        <ele>214</ele>
        <time>2020-10-31T10:27:10.000Z</time>
      </trkpt>
      <trkpt lat="49.74272" lon="4.85403">
        <ele>214</ele>
        <time>2020-10-31T10:27:11.000Z</time>
      </trkpt>
      <trkpt lat="49.74269" lon="4.854">
        <ele>214</ele>
        <time>2020-10-31T10:27:12.000Z</time>
      </trkpt>
      <trkpt lat="49.74267" lon="4.85397">
        <ele>214</ele>
        <time>2020-10-31T10:27:13.000Z</time>
      </trkpt>
      <trkpt lat="49.74264" lon="4.85394">
        <ele>214</ele>
        <time>2020-10-31T10:27:14.000Z</time>
      </trkpt>
      <trkpt lat="49.74261" lon="4.85392">
        <ele>213</ele>
        <time>2020-10-31T10:27:15.000Z</time>
      </trkpt>
      <trkpt lat="49.74257" lon="4.8539">
        <ele>213</ele>
        <time>2020-10-31T10:27:16.000Z</time>
      </trkpt>
      <trkpt lat="49.74254" lon="4.85386">
        <ele>213</ele>
        <time>2020-10-31T10:27:17.000Z</time>
      </trkpt>
      <trkpt lat="49.7425" lon="4.85383">
        <ele>213</ele>
        <time>2020-10-31T10:27:18.000Z</time>
      </trkpt>
      <trkpt lat="49.74246" lon="4.8538">
        <ele>213</ele>
        <time>2020-10-31T10:27:19.000Z</time>
      </trkpt>
      <trkpt lat="49.74243" lon="4.85376">
        <ele>212</ele>
        <time>2020-10-31T10:27:20.000Z</time>
      </trkpt>
      <trkpt lat="49.7424" lon="4.85373">
        <ele>212</ele>
        <time>2020-10-31T10:27:21.000Z</time>
      </trkpt>
      <trkpt lat="49.74237" lon="4.85371">
        <ele>212</ele>
        <time>2020-10-31T10:27:22.000Z</time>
      </trkpt>
      <trkpt lat="49.74234" lon="4.85369">
        <ele>212</ele>
        <time>2020-10-31T10:27:23.000Z</time>
      </trkpt>
      <trkpt lat="49.74231" lon="4.85366">
        <ele>212</ele>
        <time>2020-10-31T10:27:24.000Z</time>
      </trkpt>
      <trkpt lat="49.74228" lon="4.85364">
        <ele>212</ele>
        <time>2020-10-31T10:27:25.000Z</time>
      </trkpt>
      <trkpt lat="49.74224" lon="4.85362">
        <ele>212</ele>
        <time>2020-10-31T10:27:26.000Z</time>
      </trkpt>
      <trkpt lat="49.7422" lon="4.8536">
        <ele>212</ele>
        <time>2020-10-31T10:27:27.000Z</time>
      </trkpt>
      <trkpt lat="49.74216" lon="4.85359">
        <ele>212</ele>
        <time>2020-10-31T10:27:28.000Z</time>
      </trkpt>
      <trkpt lat="49.74214" lon="4.85356">
        <ele>212</ele>
        <time>2020-10-31T10:27:29.000Z</time>
      </trkpt>
      <trkpt lat="49.74212" lon="4.85354">
        <ele>212</ele>
        <time>2020-10-31T10:27:30.000Z</time>
      </trkpt>
      <trkpt lat="49.7421" lon="4.85351">
        <ele>211</ele>
        <time>2020-10-31T10:27:31.000Z</time>
      </trkpt>
      <trkpt lat="49.74207" lon="4.85347">
        <ele>211</ele>
        <time>2020-10-31T10:27:32.000Z</time>
      </trkpt>
      <trkpt lat="49.74205" lon="4.85345">
        <ele>211</ele>
        <time>2020-10-31T10:27:33.000Z</time>
      </trkpt>
      <trkpt lat="49.74203" lon="4.85343">
        <ele>211</ele>
        <time>2020-10-31T10:27:34.000Z</time>
      </trkpt>
      <trkpt lat="49.74201" lon="4.8534">
        <ele>211</ele>
        <time>2020-10-31T10:27:35.000Z</time>
      </trkpt>
      <trkpt lat="49.74199" lon="4.85338">
        <ele>211</ele>
        <time>2020-10-31T10:27:36.000Z</time>
      </trkpt>
      <trkpt lat="49.74197" lon="4.85337">
        <ele>211</ele>
        <time>2020-10-31T10:27:37.000Z</time>
      </trkpt>
      <trkpt lat="49.74196" lon="4.85335">
        <ele>211</ele>
        <time>2020-10-31T10:27:38.000Z</time>
      </trkpt>
      <trkpt lat="49.74195" lon="4.85333">
        <ele>211</ele>
        <time>2020-10-31T10:27:39.000Z</time>
      </trkpt>
      <trkpt lat="49.74194" lon="4.85332">
        <ele>211</ele>
        <time>2020-10-31T10:27:40.000Z</time>
      </trkpt>
      <trkpt lat="49.74192" lon="4.8533">
        <ele>210</ele>
        <time>2020-10-31T10:27:41.000Z</time>
      </trkpt>
      <trkpt lat="49.7419" lon="4.85328">
        <ele>210</ele>
        <time>2020-10-31T10:27:42.000Z</time>
      </trkpt>
      <trkpt lat="49.74188" lon="4.85326">
        <ele>210</ele>
        <time>2020-10-31T10:27:43.000Z</time>
      </trkpt>
      <trkpt lat="49.74186" lon="4.85323">
        <ele>210</ele>
        <time>2020-10-31T10:27:44.000Z</time>
      </trkpt>
      <trkpt lat="49.74184" lon="4.85321">
        <ele>210</ele>
        <time>2020-10-31T10:27:45.000Z</time>
      </trkpt>
      <trkpt lat="49.74183" lon="4.85318">
        <ele>209</ele>
        <time>2020-10-31T10:27:46.000Z</time>
      </trkpt>
      <trkpt lat="49.7418" lon="4.85316">
        <ele>209</ele>
        <time>2020-10-31T10:27:47.000Z</time>
      </trkpt>
      <trkpt lat="49.74178" lon="4.85313">
        <ele>209</ele>
        <time>2020-10-31T10:27:48.000Z</time>
      </trkpt>
      <trkpt lat="49.74175" lon="4.8531">
        <ele>209</ele>
        <time>2020-10-31T10:27:49.000Z</time>
      </trkpt>
      <trkpt lat="49.74172" lon="4.85307">
        <ele>208</ele>
        <time>2020-10-31T10:27:50.000Z</time>
      </trkpt>
      <trkpt lat="49.74169" lon="4.85305">
        <ele>208</ele>
        <time>2020-10-31T10:27:51.000Z</time>
      </trkpt>
      <trkpt lat="49.74166" lon="4.85302">
        <ele>208</ele>
        <time>2020-10-31T10:27:52.000Z</time>
      </trkpt>
      <trkpt lat="49.74163" lon="4.85301">
        <ele>208</ele>
        <time>2020-10-31T10:27:53.000Z</time>
      </trkpt>
      <trkpt lat="49.7416" lon="4.85299">
        <ele>208</ele>
        <time>2020-10-31T10:27:54.000Z</time>
      </trkpt>
      <trkpt lat="49.74158" lon="4.85297">
        <ele>207</ele>
        <time>2020-10-31T10:27:55.000Z</time>
      </trkpt>
      <trkpt lat="49.74157" lon="4.85295">
        <ele>207</ele>
        <time>2020-10-31T10:27:56.000Z</time>
      </trkpt>
      <trkpt lat="49.74155" lon="4.85294">
        <ele>207</ele>
        <time>2020-10-31T10:27:57.000Z</time>
      </trkpt>
      <trkpt lat="49.74153" lon="4.85292">
        <ele>207</ele>
        <time>2020-10-31T10:27:58.000Z</time>
      </trkpt>
      <trkpt lat="49.74151" lon="4.8529">
        <ele>207</ele>
        <time>2020-10-31T10:27:59.000Z</time>
      </trkpt>
      <trkpt lat="49.7415" lon="4.85288">
        <ele>207</ele>
        <time>2020-10-31T10:28:00.000Z</time>
      </trkpt>
      <trkpt lat="49.74149" lon="4.85286">
        <ele>207</ele>
        <time>2020-10-31T10:28:01.000Z</time>
      </trkpt>
      <trkpt lat="49.74147" lon="4.85284">
        <ele>206</ele>
        <time>2020-10-31T10:28:02.000Z</time>
      </trkpt>
      <trkpt lat="49.74145" lon="4.85282">
        <ele>206</ele>
        <time>2020-10-31T10:28:03.000Z</time>
      </trkpt>
      <trkpt lat="49.74143" lon="4.8528">
        <ele>206</ele>
        <time>2020-10-31T10:28:04.000Z</time>
      </trkpt>
      <trkpt lat="49.74141" lon="4.85278">
        <ele>206</ele>
        <time>2020-10-31T10:28:05.000Z</time>
      </trkpt>
      <trkpt lat="49.74139" lon="4.85275">
        <ele>206</ele>
        <time>2020-10-31T10:28:06.000Z</time>
      </trkpt>
      <trkpt lat="49.74137" lon="4.85272">
        <ele>205</ele>
        <time>2020-10-31T10:28:07.000Z</time>
      </trkpt>
      <trkpt lat="49.74135" lon="4.85269">
        <ele>205</ele>
        <time>2020-10-31T10:28:08.000Z</time>
      </trkpt>
      <trkpt lat="49.74134" lon="4.85267">
        <ele>205</ele>
        <time>2020-10-31T10:28:09.000Z</time>
      </trkpt>
      <trkpt lat="49.74133" lon="4.85265">
        <ele>205</ele>
        <time>2020-10-31T10:28:10.000Z</time>
      </trkpt>
      <trkpt lat="49.74132" lon="4.85263">
        <ele>205</ele>
        <time>2020-10-31T10:28:11.000Z</time>
      </trkpt>
      <trkpt lat="49.74131" lon="4.8526">
        <ele>205</ele>
        <time>2020-10-31T10:28:12.000Z</time>
      </trkpt>
      <trkpt lat="49.7413" lon="4.85257">
        <ele>205</ele>
        <time>2020-10-31T10:28:13.000Z</time>
      </trkpt>
      <trkpt lat="49.74128" lon="4.85255">
        <ele>205</ele>
        <time>2020-10-31T10:28:14.000Z</time>
      </trkpt>
      <trkpt lat="49.74127" lon="4.85252">
        <ele>204</ele>
        <time>2020-10-31T10:28:15.000Z</time>
      </trkpt>
      <trkpt lat="49.74125" lon="4.8525">
        <ele>204</ele>
        <time>2020-10-31T10:28:16.000Z</time>
      </trkpt>
      <trkpt lat="49.74123" lon="4.85247">
        <ele>204</ele>
        <time>2020-10-31T10:28:17.000Z</time>
      </trkpt>
      <trkpt lat="49.74121" lon="4.85244">
        <ele>204</ele>
        <time>2020-10-31T10:28:18.000Z</time>
      </trkpt>
      <trkpt lat="49.74119" lon="4.85242">
        <ele>204</ele>
        <time>2020-10-31T10:28:19.000Z</time>
      </trkpt>
      <trkpt lat="49.74117" lon="4.85239">
        <ele>204</ele>
        <time>2020-10-31T10:28:20.000Z</time>
      </trkpt>
      <trkpt lat="49.74115" lon="4.85236">
        <ele>204</ele>
        <time>2020-10-31T10:28:21.000Z</time>
      </trkpt>
      <trkpt lat="49.74112" lon="4.85233">
        <ele>204</ele>
        <time>2020-10-31T10:28:22.000Z</time>
      </trkpt>
      <trkpt lat="49.74111" lon="4.8523">
        <ele>204</ele>
        <time>2020-10-31T10:28:23.000Z</time>
      </trkpt>
      <trkpt lat="49.74109" lon="4.85227">
        <ele>204</ele>
        <time>2020-10-31T10:28:24.000Z</time>
      </trkpt>
      <trkpt lat="49.74107" lon="4.85223">
        <ele>204</ele>
        <time>2020-10-31T10:28:25.000Z</time>
      </trkpt>
      <trkpt lat="49.74105" lon="4.85221">
        <ele>204</ele>
        <time>2020-10-31T10:28:26.000Z</time>
      </trkpt>
      <trkpt lat="49.74103" lon="4.85217">
        <ele>204</ele>
        <time>2020-10-31T10:28:27.000Z</time>
      </trkpt>
      <trkpt lat="49.74101" lon="4.85214">
        <ele>204</ele>
        <time>2020-10-31T10:28:28.000Z</time>
      </trkpt>
      <trkpt lat="49.74099" lon="4.85211">
        <ele>204</ele>
        <time>2020-10-31T10:28:29.000Z</time>
      </trkpt>
      <trkpt lat="49.74097" lon="4.85208">
        <ele>204</ele>
        <time>2020-10-31T10:28:30.000Z</time>
      </trkpt>
      <trkpt lat="49.74094" lon="4.85205">
        <ele>204</ele>
        <time>2020-10-31T10:28:31.000Z</time>
      </trkpt>
      <trkpt lat="49.74092" lon="4.85202">
        <ele>204</ele>
        <time>2020-10-31T10:28:32.000Z</time>
      </trkpt>
      <trkpt lat="49.74089" lon="4.852">
        <ele>204</ele>
        <time>2020-10-31T10:28:33.000Z</time>
      </trkpt>
      <trkpt lat="49.74087" lon="4.85197">
        <ele>204</ele>
        <time>2020-10-31T10:28:34.000Z</time>
      </trkpt>
      <trkpt lat="49.74085" lon="4.85194">
        <ele>203</ele>
        <time>2020-10-31T10:28:35.000Z</time>
      </trkpt>
      <trkpt lat="49.74083" lon="4.85191">
        <ele>203</ele>
        <time>2020-10-31T10:28:36.000Z</time>
      </trkpt>
      <trkpt lat="49.7408" lon="4.85188">
        <ele>203</ele>
        <time>2020-10-31T10:28:37.000Z</time>
      </trkpt>
      <trkpt lat="49.74077" lon="4.85185">
        <ele>203</ele>
        <time>2020-10-31T10:28:38.000Z</time>
      </trkpt>
      <trkpt lat="49.74074" lon="4.85182">
        <ele>203</ele>
        <time>2020-10-31T10:28:39.000Z</time>
      </trkpt>
      <trkpt lat="49.74071" lon="4.8518">
        <ele>203</ele>
        <time>2020-10-31T10:28:40.000Z</time>
      </trkpt>
      <trkpt lat="49.74068" lon="4.85177">
        <ele>203</ele>
        <time>2020-10-31T10:28:41.000Z</time>
      </trkpt>
      <trkpt lat="49.74066" lon="4.85175">
        <ele>203</ele>
        <time>2020-10-31T10:28:42.000Z</time>
      </trkpt>
      <trkpt lat="49.74065" lon="4.85174">
        <ele>202</ele>
        <time>2020-10-31T10:28:43.000Z</time>
      </trkpt>
      <trkpt lat="49.74065" lon="4.85173">
        <ele>202</ele>
        <time>2020-10-31T10:28:44.000Z</time>
      </trkpt>
      <trkpt lat="49.74064" lon="4.85172">
        <ele>202</ele>
        <time>2020-10-31T10:28:45.000Z</time>
      </trkpt>
      <trkpt lat="49.74064" lon="4.85171">
        <ele>202</ele>
        <time>2020-10-31T10:28:46.000Z</time>
      </trkpt>
      <trkpt lat="49.74063" lon="4.85171">
        <ele>202</ele>
        <time>2020-10-31T10:28:47.000Z</time>
      </trkpt>
      <trkpt lat="49.74063" lon="4.85171">
        <ele>202</ele>
        <time>2020-10-31T10:28:48.000Z</time>
      </trkpt>
      <trkpt lat="49.74063" lon="4.8517">
        <ele>201</ele>
        <time>2020-10-31T10:28:49.000Z</time>
      </trkpt>
      <trkpt lat="49.74063" lon="4.8517">
        <ele>201</ele>
        <time>2020-10-31T10:28:50.000Z</time>
      </trkpt>
      <trkpt lat="49.74062" lon="4.85169">
        <ele>201</ele>
        <time>2020-10-31T10:28:51.000Z</time>
      </trkpt>
      <trkpt lat="49.74062" lon="4.85169">
        <ele>201</ele>
        <time>2020-10-31T10:28:52.000Z</time>
      </trkpt>
      <trkpt lat="49.74061" lon="4.85169">
        <ele>201</ele>
        <time>2020-10-31T10:28:53.000Z</time>
      </trkpt>
      <trkpt lat="49.7406" lon="4.85168">
        <ele>201</ele>
        <time>2020-10-31T10:28:54.000Z</time>
      </trkpt>
      <trkpt lat="49.7406" lon="4.85168">
        <ele>201</ele>
        <time>2020-10-31T10:28:55.000Z</time>
      </trkpt>
      <trkpt lat="49.74059" lon="4.85167">
        <ele>201</ele>
        <time>2020-10-31T10:28:56.000Z</time>
      </trkpt>
      <trkpt lat="49.74059" lon="4.85166">
        <ele>201</ele>
        <time>2020-10-31T10:28:57.000Z</time>
      </trkpt>
      <trkpt lat="49.74058" lon="4.85165">
        <ele>201</ele>
        <time>2020-10-31T10:28:58.000Z</time>
      </trkpt>
      <trkpt lat="49.74057" lon="4.85164">
        <ele>201</ele>
        <time>2020-10-31T10:28:59.000Z</time>
      </trkpt>
      <trkpt lat="49.74056" lon="4.85162">
        <ele>201</ele>
        <time>2020-10-31T10:29:00.000Z</time>
      </trkpt>
      <trkpt lat="49.74054" lon="4.8516">
        <ele>201</ele>
        <time>2020-10-31T10:29:01.000Z</time>
      </trkpt>
      <trkpt lat="49.74052" lon="4.85158">
        <ele>201</ele>
        <time>2020-10-31T10:29:02.000Z</time>
      </trkpt>
      <trkpt lat="49.74051" lon="4.85156">
        <ele>201</ele>
        <time>2020-10-31T10:29:03.000Z</time>
      </trkpt>
      <trkpt lat="49.74049" lon="4.85153">
        <ele>201</ele>
        <time>2020-10-31T10:29:04.000Z</time>
      </trkpt>
      <trkpt lat="49.74047" lon="4.8515">
        <ele>201</ele>
        <time>2020-10-31T10:29:05.000Z</time>
      </trkpt>
      <trkpt lat="49.74045" lon="4.85147">
        <ele>201</ele>
        <time>2020-10-31T10:29:06.000Z</time>
      </trkpt>
      <trkpt lat="49.74042" lon="4.85144">
        <ele>200</ele>
        <time>2020-10-31T10:29:07.000Z</time>
      </trkpt>
      <trkpt lat="49.7404" lon="4.85141">
        <ele>200</ele>
        <time>2020-10-31T10:29:08.000Z</time>
      </trkpt>
      <trkpt lat="49.74037" lon="4.85137">
        <ele>200</ele>
        <time>2020-10-31T10:29:09.000Z</time>
      </trkpt>
      <trkpt lat="49.74035" lon="4.85134">
        <ele>200</ele>
        <time>2020-10-31T10:29:10.000Z</time>
      </trkpt>
      <trkpt lat="49.74033" lon="4.8513">
        <ele>200</ele>
        <time>2020-10-31T10:29:11.000Z</time>
      </trkpt>
      <trkpt lat="49.74031" lon="4.85127">
        <ele>200</ele>
        <time>2020-10-31T10:29:12.000Z</time>
      </trkpt>
      <trkpt lat="49.74029" lon="4.85124">
        <ele>199</ele>
        <time>2020-10-31T10:29:13.000Z</time>
      </trkpt>
      <trkpt lat="49.74027" lon="4.85121">
        <ele>199</ele>
        <time>2020-10-31T10:29:14.000Z</time>
      </trkpt>
      <trkpt lat="49.74025" lon="4.85118">
        <ele>199</ele>
        <time>2020-10-31T10:29:15.000Z</time>
      </trkpt>
      <trkpt lat="49.74023" lon="4.85116">
        <ele>199</ele>
        <time>2020-10-31T10:29:16.000Z</time>
      </trkpt>
      <trkpt lat="49.74021" lon="4.85113">
        <ele>199</ele>
        <time>2020-10-31T10:29:17.000Z</time>
      </trkpt>
      <trkpt lat="49.74019" lon="4.8511">
        <ele>199</ele>
        <time>2020-10-31T10:29:18.000Z</time>
      </trkpt>
      <trkpt lat="49.74018" lon="4.85107">
        <ele>199</ele>
        <time>2020-10-31T10:29:19.000Z</time>
      </trkpt>
      <trkpt lat="49.74016" lon="4.85103">
        <ele>199</ele>
        <time>2020-10-31T10:29:20.000Z</time>
      </trkpt>
      <trkpt lat="49.74014" lon="4.85101">
        <ele>199</ele>
        <time>2020-10-31T10:29:21.000Z</time>
      </trkpt>
      <trkpt lat="49.74012" lon="4.85097">
        <ele>198</ele>
        <time>2020-10-31T10:29:22.000Z</time>
      </trkpt>
      <trkpt lat="49.7401" lon="4.85094">
        <ele>198</ele>
        <time>2020-10-31T10:29:23.000Z</time>
      </trkpt>
      <trkpt lat="49.74007" lon="4.85091">
        <ele>198</ele>
        <time>2020-10-31T10:29:24.000Z</time>
      </trkpt>
      <trkpt lat="49.74006" lon="4.85088">
        <ele>198</ele>
        <time>2020-10-31T10:29:25.000Z</time>
      </trkpt>
      <trkpt lat="49.74004" lon="4.85086">
        <ele>198</ele>
        <time>2020-10-31T10:29:26.000Z</time>
      </trkpt>
      <trkpt lat="49.74002" lon="4.85083">
        <ele>198</ele>
        <time>2020-10-31T10:29:27.000Z</time>
      </trkpt>
      <trkpt lat="49.74" lon="4.8508">
        <ele>198</ele>
        <time>2020-10-31T10:29:28.000Z</time>
      </trkpt>
      <trkpt lat="49.73998" lon="4.85078">
        <ele>198</ele>
        <time>2020-10-31T10:29:29.000Z</time>
      </trkpt>
      <trkpt lat="49.73996" lon="4.85075">
        <ele>198</ele>
        <time>2020-10-31T10:29:30.000Z</time>
      </trkpt>
      <trkpt lat="49.73994" lon="4.85072">
        <ele>198</ele>
        <time>2020-10-31T10:29:31.000Z</time>
      </trkpt>
      <trkpt lat="49.73992" lon="4.85069">
        <ele>198</ele>
        <time>2020-10-31T10:29:32.000Z</time>
      </trkpt>
      <trkpt lat="49.73989" lon="4.85066">
        <ele>198</ele>
        <time>2020-10-31T10:29:33.000Z</time>
      </trkpt>
      <trkpt lat="49.73987" lon="4.85063">
        <ele>198</ele>
        <time>2020-10-31T10:29:34.000Z</time>
      </trkpt>
      <trkpt lat="49.73985" lon="4.85059">
        <ele>198</ele>
        <time>2020-10-31T10:29:35.000Z</time>
      </trkpt>
      <trkpt lat="49.73982" lon="4.85055">
        <ele>198</ele>
        <time>2020-10-31T10:29:36.000Z</time>
      </trkpt>
      <trkpt lat="49.73979" lon="4.85051">
        <ele>198</ele>
        <time>2020-10-31T10:29:37.000Z</time>
      </trkpt>
      <trkpt lat="49.73976" lon="4.85047">
        <ele>198</ele>
        <time>2020-10-31T10:29:38.000Z</time>
      </trkpt>
      <trkpt lat="49.73974" lon="4.85043">
        <ele>198</ele>
        <time>2020-10-31T10:29:39.000Z</time>
      </trkpt>
      <trkpt lat="49.73971" lon="4.85039">
        <ele>198</ele>
        <time>2020-10-31T10:29:40.000Z</time>
      </trkpt>
      <trkpt lat="49.73968" lon="4.85036">
        <ele>198</ele>
        <time>2020-10-31T10:29:41.000Z</time>
      </trkpt>
      <trkpt lat="49.73966" lon="4.85033">
        <ele>198</ele>
        <time>2020-10-31T10:29:42.000Z</time>
      </trkpt>
      <trkpt lat="49.73963" lon="4.8503">
        <ele>198</ele>
        <time>2020-10-31T10:29:43.000Z</time>
      </trkpt>
      <trkpt lat="49.73959" lon="4.85028">
        <ele>198</ele>
        <time>2020-10-31T10:29:44.000Z</time>
      </trkpt>
      <trkpt lat="49.73957" lon="4.85025">
        <ele>198</ele>
        <time>2020-10-31T10:29:45.000Z</time>
      </trkpt>
      <trkpt lat="49.73954" lon="4.85022">
        <ele>198</ele>
        <time>2020-10-31T10:29:46.000Z</time>
      </trkpt>
      <trkpt lat="49.73951" lon="4.85019">
        <ele>198</ele>
        <time>2020-10-31T10:29:47.000Z</time>
      </trkpt>
      <trkpt lat="49.73948" lon="4.85016">
        <ele>198</ele>
        <time>2020-10-31T10:29:48.000Z</time>
      </trkpt>
      <trkpt lat="49.73945" lon="4.85013">
        <ele>198</ele>
        <time>2020-10-31T10:29:49.000Z</time>
      </trkpt>
      <trkpt lat="49.73942" lon="4.85009">
        <ele>198</ele>
        <time>2020-10-31T10:29:50.000Z</time>
      </trkpt>
      <trkpt lat="49.7394" lon="4.85005">
        <ele>198</ele>
        <time>2020-10-31T10:29:51.000Z</time>
      </trkpt>
      <trkpt lat="49.73937" lon="4.85002">
        <ele>197</ele>
        <time>2020-10-31T10:29:52.000Z</time>
      </trkpt>
      <trkpt lat="49.73934" lon="4.84999">
        <ele>197</ele>
        <time>2020-10-31T10:29:53.000Z</time>
      </trkpt>
      <trkpt lat="49.73931" lon="4.84996">
        <ele>197</ele>
        <time>2020-10-31T10:29:54.000Z</time>
      </trkpt>
      <trkpt lat="49.73929" lon="4.84993">
        <ele>197</ele>
        <time>2020-10-31T10:29:55.000Z</time>
      </trkpt>
      <trkpt lat="49.73926" lon="4.84989">
        <ele>197</ele>
        <time>2020-10-31T10:29:56.000Z</time>
      </trkpt>
      <trkpt lat="49.73923" lon="4.84984">
        <ele>197</ele>
        <time>2020-10-31T10:29:57.000Z</time>
      </trkpt>
      <trkpt lat="49.7392" lon="4.84981">
        <ele>197</ele>
        <time>2020-10-31T10:29:58.000Z</time>
      </trkpt>
      <trkpt lat="49.73917" lon="4.84977">
        <ele>197</ele>
        <time>2020-10-31T10:29:59.000Z</time>
      </trkpt>
      <trkpt lat="49.73914" lon="4.84974">
        <ele>197</ele>
        <time>2020-10-31T10:30:00.000Z</time>
      </trkpt>
      <trkpt lat="49.73911" lon="4.8497">
        <ele>197</ele>
        <time>2020-10-31T10:30:01.000Z</time>
      </trkpt>
      <trkpt lat="49.73907" lon="4.84966">
        <ele>197</ele>
        <time>2020-10-31T10:30:02.000Z</time>
      </trkpt>
      <trkpt lat="49.73905" lon="4.84963">
        <ele>197</ele>
        <time>2020-10-31T10:30:03.000Z</time>
      </trkpt>
      <trkpt lat="49.73902" lon="4.84959">
        <ele>196</ele>
        <time>2020-10-31T10:30:04.000Z</time>
      </trkpt>
      <trkpt lat="49.73899" lon="4.84956">
        <ele>196</ele>
        <time>2020-10-31T10:30:05.000Z</time>
      </trkpt>
      <trkpt lat="49.73897" lon="4.84953">
        <ele>196</ele>
        <time>2020-10-31T10:30:06.000Z</time>
      </trkpt>
      <trkpt lat="49.73894" lon="4.84949">
        <ele>196</ele>
        <time>2020-10-31T10:30:07.000Z</time>
      </trkpt>
      <trkpt lat="49.73892" lon="4.84945">
        <ele>196</ele>
        <time>2020-10-31T10:30:08.000Z</time>
      </trkpt>
      <trkpt lat="49.73891" lon="4.84942">
        <ele>196</ele>
        <time>2020-10-31T10:30:09.000Z</time>
      </trkpt>
      <trkpt lat="49.73889" lon="4.84938">
        <ele>196</ele>
        <time>2020-10-31T10:30:10.000Z</time>
      </trkpt>
      <trkpt lat="49.73887" lon="4.84934">
        <ele>196</ele>
        <time>2020-10-31T10:30:11.000Z</time>
      </trkpt>
      <trkpt lat="49.73885" lon="4.84931">
        <ele>196</ele>
        <time>2020-10-31T10:30:12.000Z</time>
      </trkpt>
      <trkpt lat="49.73883" lon="4.84927">
        <ele>196</ele>
        <time>2020-10-31T10:30:13.000Z</time>
      </trkpt>
      <trkpt lat="49.73881" lon="4.84924">
        <ele>196</ele>
        <time>2020-10-31T10:30:14.000Z</time>
      </trkpt>
      <trkpt lat="49.73879" lon="4.84921">
        <ele>196</ele>
        <time>2020-10-31T10:30:15.000Z</time>
      </trkpt>
      <trkpt lat="49.73877" lon="4.84917">
        <ele>196</ele>
        <time>2020-10-31T10:30:16.000Z</time>
      </trkpt>
      <trkpt lat="49.73875" lon="4.84913">
        <ele>195</ele>
        <time>2020-10-31T10:30:17.000Z</time>
      </trkpt>
      <trkpt lat="49.73874" lon="4.8491">
        <ele>195</ele>
        <time>2020-10-31T10:30:18.000Z</time>
      </trkpt>
      <trkpt lat="49.73874" lon="4.84906">
        <ele>195</ele>
        <time>2020-10-31T10:30:19.000Z</time>
      </trkpt>
      <trkpt lat="49.73874" lon="4.84903">
        <ele>195</ele>
        <time>2020-10-31T10:30:20.000Z</time>
      </trkpt>
      <trkpt lat="49.73874" lon="4.849">
        <ele>195</ele>
        <time>2020-10-31T10:30:21.000Z</time>
      </trkpt>
      <trkpt lat="49.73874" lon="4.84896">
        <ele>195</ele>
        <time>2020-10-31T10:30:22.000Z</time>
      </trkpt>
      <trkpt lat="49.73873" lon="4.84893">
        <ele>195</ele>
        <time>2020-10-31T10:30:23.000Z</time>
      </trkpt>
      <trkpt lat="49.73873" lon="4.8489">
        <ele>195</ele>
        <time>2020-10-31T10:30:24.000Z</time>
      </trkpt>
      <trkpt lat="49.73872" lon="4.84888">
        <ele>195</ele>
        <time>2020-10-31T10:30:25.000Z</time>
      </trkpt>
      <trkpt lat="49.73872" lon="4.84886">
        <ele>195</ele>
        <time>2020-10-31T10:30:26.000Z</time>
      </trkpt>
      <trkpt lat="49.73871" lon="4.84883">
        <ele>195</ele>
        <time>2020-10-31T10:30:27.000Z</time>
      </trkpt>
      <trkpt lat="49.7387" lon="4.84879">
        <ele>195</ele>
        <time>2020-10-31T10:30:28.000Z</time>
      </trkpt>
      <trkpt lat="49.7387" lon="4.84876">
        <ele>195</ele>
        <time>2020-10-31T10:30:29.000Z</time>
      </trkpt>
      <trkpt lat="49.73869" lon="4.84873">
        <ele>195</ele>
        <time>2020-10-31T10:30:30.000Z</time>
      </trkpt>
      <trkpt lat="49.73869" lon="4.84871">
        <ele>195</ele>
        <time>2020-10-31T10:30:31.000Z</time>
      </trkpt>
      <trkpt lat="49.73869" lon="4.84869">
        <ele>195</ele>
        <time>2020-10-31T10:30:32.000Z</time>
      </trkpt>
      <trkpt lat="49.73868" lon="4.84866">
        <ele>195</ele>
        <time>2020-10-31T10:30:33.000Z</time>
      </trkpt>
      <trkpt lat="49.73869" lon="4.84864">
        <ele>194</ele>
        <time>2020-10-31T10:30:34.000Z</time>
      </trkpt>
      <trkpt lat="49.7387" lon="4.84862">
        <ele>194</ele>
        <time>2020-10-31T10:30:35.000Z</time>
      </trkpt>
      <trkpt lat="49.73871" lon="4.84861">
        <ele>194</ele>
        <time>2020-10-31T10:30:36.000Z</time>
      </trkpt>
      <trkpt lat="49.73872" lon="4.84861">
        <ele>195</ele>
        <time>2020-10-31T10:30:37.000Z</time>
      </trkpt>
      <trkpt lat="49.73874" lon="4.84861">
        <ele>195</ele>
        <time>2020-10-31T10:30:38.000Z</time>
      </trkpt>
      <trkpt lat="49.73875" lon="4.84861">
        <ele>195</ele>
        <time>2020-10-31T10:30:39.000Z</time>
      </trkpt>
      <trkpt lat="49.73877" lon="4.84861">
        <ele>195</ele>
        <time>2020-10-31T10:30:40.000Z</time>
      </trkpt>
      <trkpt lat="49.73878" lon="4.84861">
        <ele>195</ele>
        <time>2020-10-31T10:30:41.000Z</time>
      </trkpt>
      <trkpt lat="49.73879" lon="4.84861">
        <ele>195</ele>
        <time>2020-10-31T10:30:42.000Z</time>
      </trkpt>
      <trkpt lat="49.73881" lon="4.84861">
        <ele>195</ele>
        <time>2020-10-31T10:30:43.000Z</time>
      </trkpt>
      <trkpt lat="49.73882" lon="4.84861">
        <ele>196</ele>
        <time>2020-10-31T10:30:44.000Z</time>
      </trkpt>
      <trkpt lat="49.73884" lon="4.84861">
        <ele>196</ele>
        <time>2020-10-31T10:30:45.000Z</time>
      </trkpt>
      <trkpt lat="49.73885" lon="4.84861">
        <ele>196</ele>
        <time>2020-10-31T10:30:46.000Z</time>
      </trkpt>
      <trkpt lat="49.73887" lon="4.84861">
        <ele>196</ele>
        <time>2020-10-31T10:30:47.000Z</time>
      </trkpt>
      <trkpt lat="49.73889" lon="4.84861">
        <ele>197</ele>
        <time>2020-10-31T10:30:48.000Z</time>
      </trkpt>
      <trkpt lat="49.7389" lon="4.84861">
        <ele>197</ele>
        <time>2020-10-31T10:30:49.000Z</time>
      </trkpt>
      <trkpt lat="49.73891" lon="4.84861">
        <ele>197</ele>
        <time>2020-10-31T10:30:50.000Z</time>
      </trkpt>
      <trkpt lat="49.73893" lon="4.84861">
        <ele>198</ele>
        <time>2020-10-31T10:30:51.000Z</time>
      </trkpt>
      <trkpt lat="49.73894" lon="4.84861">
        <ele>198</ele>
        <time>2020-10-31T10:30:52.000Z</time>
      </trkpt>
      <trkpt lat="49.73896" lon="4.84862">
        <ele>198</ele>
        <time>2020-10-31T10:30:53.000Z</time>
      </trkpt>
      <trkpt lat="49.73898" lon="4.84862">
        <ele>199</ele>
        <time>2020-10-31T10:30:54.000Z</time>
      </trkpt>
      <trkpt lat="49.73899" lon="4.84862">
        <ele>199</ele>
        <time>2020-10-31T10:30:55.000Z</time>
      </trkpt>
      <trkpt lat="49.73901" lon="4.84862">
        <ele>199</ele>
        <time>2020-10-31T10:30:56.000Z</time>
      </trkpt>
      <trkpt lat="49.73903" lon="4.84862">
        <ele>199</ele>
        <time>2020-10-31T10:30:57.000Z</time>
      </trkpt>
      <trkpt lat="49.73905" lon="4.84862">
        <ele>200</ele>
        <time>2020-10-31T10:30:58.000Z</time>
      </trkpt>
      <trkpt lat="49.73907" lon="4.84862">
        <ele>200</ele>
        <time>2020-10-31T10:30:59.000Z</time>
      </trkpt>
      <trkpt lat="49.73909" lon="4.84863">
        <ele>200</ele>
        <time>2020-10-31T10:31:00.000Z</time>
      </trkpt>
      <trkpt lat="49.7391" lon="4.84863">
        <ele>201</ele>
        <time>2020-10-31T10:31:01.000Z</time>
      </trkpt>
      <trkpt lat="49.73911" lon="4.84864">
        <ele>201</ele>
        <time>2020-10-31T10:31:02.000Z</time>
      </trkpt>
      <trkpt lat="49.73912" lon="4.84864">
        <ele>201</ele>
        <time>2020-10-31T10:31:03.000Z</time>
      </trkpt>
      <trkpt lat="49.73913" lon="4.84865">
        <ele>202</ele>
        <time>2020-10-31T10:31:04.000Z</time>
      </trkpt>
      <trkpt lat="49.73914" lon="4.84865">
        <ele>202</ele>
        <time>2020-10-31T10:31:05.000Z</time>
      </trkpt>
      <trkpt lat="49.73915" lon="4.84866">
        <ele>202</ele>
        <time>2020-10-31T10:31:06.000Z</time>
      </trkpt>
      <trkpt lat="49.73916" lon="4.84866">
        <ele>203</ele>
        <time>2020-10-31T10:31:07.000Z</time>
      </trkpt>
      <trkpt lat="49.73918" lon="4.84867">
        <ele>203</ele>
        <time>2020-10-31T10:31:08.000Z</time>
      </trkpt>
      <trkpt lat="49.73919" lon="4.84867">
        <ele>203</ele>
        <time>2020-10-31T10:31:09.000Z</time>
      </trkpt>
      <trkpt lat="49.73921" lon="4.84867">
        <ele>203</ele>
        <time>2020-10-31T10:31:10.000Z</time>
      </trkpt>
      <trkpt lat="49.73923" lon="4.84867">
        <ele>204</ele>
        <time>2020-10-31T10:31:11.000Z</time>
      </trkpt>
      <trkpt lat="49.73925" lon="4.84868">
        <ele>204</ele>
        <time>2020-10-31T10:31:12.000Z</time>
      </trkpt>
      <trkpt lat="49.73927" lon="4.84868">
        <ele>204</ele>
        <time>2020-10-31T10:31:13.000Z</time>
      </trkpt>
      <trkpt lat="49.73929" lon="4.84869">
        <ele>205</ele>
        <time>2020-10-31T10:31:14.000Z</time>
      </trkpt>
      <trkpt lat="49.73931" lon="4.8487">
        <ele>205</ele>
        <time>2020-10-31T10:31:15.000Z</time>
      </trkpt>
      <trkpt lat="49.73933" lon="4.8487">
        <ele>205</ele>
        <time>2020-10-31T10:31:16.000Z</time>
      </trkpt>
      <trkpt lat="49.73935" lon="4.84871">
        <ele>206</ele>
        <time>2020-10-31T10:31:17.000Z</time>
      </trkpt>
      <trkpt lat="49.73937" lon="4.84873">
        <ele>206</ele>
        <time>2020-10-31T10:31:18.000Z</time>
      </trkpt>
      <trkpt lat="49.73939" lon="4.84874">
        <ele>206</ele>
        <time>2020-10-31T10:31:19.000Z</time>
      </trkpt>
      <trkpt lat="49.73941" lon="4.84875">
        <ele>207</ele>
        <time>2020-10-31T10:31:20.000Z</time>
      </trkpt>
      <trkpt lat="49.73943" lon="4.84877">
        <ele>207</ele>
        <time>2020-10-31T10:31:21.000Z</time>
      </trkpt>
      <trkpt lat="49.73944" lon="4.84878">
        <ele>207</ele>
        <time>2020-10-31T10:31:22.000Z</time>
      </trkpt>
      <trkpt lat="49.73946" lon="4.8488">
        <ele>208</ele>
        <time>2020-10-31T10:31:23.000Z</time>
      </trkpt>
      <trkpt lat="49.73948" lon="4.84881">
        <ele>208</ele>
        <time>2020-10-31T10:31:24.000Z</time>
      </trkpt>
      <trkpt lat="49.73949" lon="4.84883">
        <ele>208</ele>
        <time>2020-10-31T10:31:25.000Z</time>
      </trkpt>
      <trkpt lat="49.73951" lon="4.84884">
        <ele>209</ele>
        <time>2020-10-31T10:31:26.000Z</time>
      </trkpt>
      <trkpt lat="49.73953" lon="4.84886">
        <ele>209</ele>
        <time>2020-10-31T10:31:27.000Z</time>
      </trkpt>
      <trkpt lat="49.73955" lon="4.84888">
        <ele>209</ele>
        <time>2020-10-31T10:31:28.000Z</time>
      </trkpt>
      <trkpt lat="49.73957" lon="4.84889">
        <ele>209</ele>
        <time>2020-10-31T10:31:29.000Z</time>
      </trkpt>
      <trkpt lat="49.73959" lon="4.8489">
        <ele>210</ele>
        <time>2020-10-31T10:31:30.000Z</time>
      </trkpt>
      <trkpt lat="49.73962" lon="4.84892">
        <ele>210</ele>
        <time>2020-10-31T10:31:31.000Z</time>
      </trkpt>
      <trkpt lat="49.73965" lon="4.84894">
        <ele>210</ele>
        <time>2020-10-31T10:31:32.000Z</time>
      </trkpt>
      <trkpt lat="49.73967" lon="4.84896">
        <ele>211</ele>
        <time>2020-10-31T10:31:33.000Z</time>
      </trkpt>
      <trkpt lat="49.73969" lon="4.84898">
        <ele>211</ele>
        <time>2020-10-31T10:31:34.000Z</time>
      </trkpt>
      <trkpt lat="49.73971" lon="4.849">
        <ele>211</ele>
        <time>2020-10-31T10:31:35.000Z</time>
      </trkpt>
      <trkpt lat="49.73972" lon="4.84902">
        <ele>211</ele>
        <time>2020-10-31T10:31:36.000Z</time>
      </trkpt>
      <trkpt lat="49.73974" lon="4.84904">
        <ele>212</ele>
        <time>2020-10-31T10:31:37.000Z</time>
      </trkpt>
      <trkpt lat="49.73976" lon="4.84906">
        <ele>212</ele>
        <time>2020-10-31T10:31:38.000Z</time>
      </trkpt>
      <trkpt lat="49.73977" lon="4.84908">
        <ele>212</ele>
        <time>2020-10-31T10:31:39.000Z</time>
      </trkpt>
      <trkpt lat="49.73979" lon="4.8491">
        <ele>212</ele>
        <time>2020-10-31T10:31:40.000Z</time>
      </trkpt>
      <trkpt lat="49.73981" lon="4.84913">
        <ele>213</ele>
        <time>2020-10-31T10:31:41.000Z</time>
      </trkpt>
      <trkpt lat="49.73982" lon="4.84915">
        <ele>213</ele>
        <time>2020-10-31T10:31:42.000Z</time>
      </trkpt>
      <trkpt lat="49.73984" lon="4.84917">
        <ele>213</ele>
        <time>2020-10-31T10:31:43.000Z</time>
      </trkpt>
      <trkpt lat="49.73986" lon="4.84919">
        <ele>214</ele>
        <time>2020-10-31T10:31:44.000Z</time>
      </trkpt>
      <trkpt lat="49.73988" lon="4.84921">
        <ele>214</ele>
        <time>2020-10-31T10:31:45.000Z</time>
      </trkpt>
      <trkpt lat="49.73989" lon="4.84923">
        <ele>214</ele>
        <time>2020-10-31T10:31:46.000Z</time>
      </trkpt>
      <trkpt lat="49.7399" lon="4.84925">
        <ele>214</ele>
        <time>2020-10-31T10:31:47.000Z</time>
      </trkpt>
      <trkpt lat="49.73991" lon="4.84927">
        <ele>214</ele>
        <time>2020-10-31T10:31:48.000Z</time>
      </trkpt>
      <trkpt lat="49.73992" lon="4.84929">
        <ele>215</ele>
        <time>2020-10-31T10:31:49.000Z</time>
      </trkpt>
      <trkpt lat="49.73994" lon="4.84931">
        <ele>215</ele>
        <time>2020-10-31T10:31:50.000Z</time>
      </trkpt>
      <trkpt lat="49.73995" lon="4.84933">
        <ele>215</ele>
        <time>2020-10-31T10:31:51.000Z</time>
      </trkpt>
      <trkpt lat="49.73996" lon="4.84935">
        <ele>215</ele>
        <time>2020-10-31T10:31:52.000Z</time>
      </trkpt>
      <trkpt lat="49.73998" lon="4.84938">
        <ele>215</ele>
        <time>2020-10-31T10:31:53.000Z</time>
      </trkpt>
      <trkpt lat="49.73999" lon="4.8494">
        <ele>215</ele>
        <time>2020-10-31T10:31:54.000Z</time>
      </trkpt>
      <trkpt lat="49.74001" lon="4.84942">
        <ele>215</ele>
        <time>2020-10-31T10:31:55.000Z</time>
      </trkpt>
      <trkpt lat="49.74002" lon="4.84945">
        <ele>215</ele>
        <time>2020-10-31T10:31:56.000Z</time>
      </trkpt>
      <trkpt lat="49.74004" lon="4.84947">
        <ele>215</ele>
        <time>2020-10-31T10:31:57.000Z</time>
      </trkpt>
      <trkpt lat="49.74005" lon="4.84949">
        <ele>215</ele>
        <time>2020-10-31T10:31:58.000Z</time>
      </trkpt>
      <trkpt lat="49.74007" lon="4.84951">
        <ele>215</ele>
        <time>2020-10-31T10:31:59.000Z</time>
      </trkpt>
      <trkpt lat="49.74008" lon="4.84954">
        <ele>214</ele>
        <time>2020-10-31T10:32:00.000Z</time>
      </trkpt>
      <trkpt lat="49.7401" lon="4.84956">
        <ele>214</ele>
        <time>2020-10-31T10:32:01.000Z</time>
      </trkpt>
      <trkpt lat="49.74012" lon="4.84958">
        <ele>214</ele>
        <time>2020-10-31T10:32:02.000Z</time>
      </trkpt>
      <trkpt lat="49.74014" lon="4.8496">
        <ele>214</ele>
        <time>2020-10-31T10:32:03.000Z</time>
      </trkpt>
      <trkpt lat="49.74016" lon="4.84961">
        <ele>214</ele>
        <time>2020-10-31T10:32:04.000Z</time>
      </trkpt>
      <trkpt lat="49.74018" lon="4.84963">
        <ele>214</ele>
        <time>2020-10-31T10:32:05.000Z</time>
      </trkpt>
      <trkpt lat="49.7402" lon="4.84964">
        <ele>215</ele>
        <time>2020-10-31T10:32:06.000Z</time>
      </trkpt>
      <trkpt lat="49.74022" lon="4.84966">
        <ele>215</ele>
        <time>2020-10-31T10:32:07.000Z</time>
      </trkpt>
      <trkpt lat="49.74024" lon="4.84968">
        <ele>215</ele>
        <time>2020-10-31T10:32:08.000Z</time>
      </trkpt>
      <trkpt lat="49.74025" lon="4.84971">
        <ele>215</ele>
        <time>2020-10-31T10:32:09.000Z</time>
      </trkpt>
      <trkpt lat="49.74027" lon="4.84973">
        <ele>215</ele>
        <time>2020-10-31T10:32:10.000Z</time>
      </trkpt>
      <trkpt lat="49.74029" lon="4.84975">
        <ele>215</ele>
        <time>2020-10-31T10:32:11.000Z</time>
      </trkpt>
      <trkpt lat="49.74031" lon="4.84976">
        <ele>215</ele>
        <time>2020-10-31T10:32:12.000Z</time>
      </trkpt>
      <trkpt lat="49.74033" lon="4.84979">
        <ele>216</ele>
        <time>2020-10-31T10:32:13.000Z</time>
      </trkpt>
      <trkpt lat="49.74035" lon="4.84981">
        <ele>216</ele>
        <time>2020-10-31T10:32:14.000Z</time>
      </trkpt>
      <trkpt lat="49.74037" lon="4.84983">
        <ele>216</ele>
        <time>2020-10-31T10:32:15.000Z</time>
      </trkpt>
      <trkpt lat="49.74038" lon="4.84985">
        <ele>217</ele>
        <time>2020-10-31T10:32:16.000Z</time>
      </trkpt>
      <trkpt lat="49.7404" lon="4.84986">
        <ele>217</ele>
        <time>2020-10-31T10:32:17.000Z</time>
      </trkpt>
      <trkpt lat="49.74042" lon="4.84988">
        <ele>217</ele>
        <time>2020-10-31T10:32:18.000Z</time>
      </trkpt>
      <trkpt lat="49.74044" lon="4.8499">
        <ele>218</ele>
        <time>2020-10-31T10:32:19.000Z</time>
      </trkpt>
      <trkpt lat="49.74046" lon="4.84991">
        <ele>218</ele>
        <time>2020-10-31T10:32:20.000Z</time>
      </trkpt>
      <trkpt lat="49.74047" lon="4.84993">
        <ele>218</ele>
        <time>2020-10-31T10:32:21.000Z</time>
      </trkpt>
      <trkpt lat="49.74049" lon="4.84995">
        <ele>218</ele>
        <time>2020-10-31T10:32:22.000Z</time>
      </trkpt>
      <trkpt lat="49.74051" lon="4.84997">
        <ele>218</ele>
        <time>2020-10-31T10:32:23.000Z</time>
      </trkpt>
      <trkpt lat="49.74054" lon="4.84999">
        <ele>218</ele>
        <time>2020-10-31T10:32:24.000Z</time>
      </trkpt>
      <trkpt lat="49.74056" lon="4.85001">
        <ele>219</ele>
        <time>2020-10-31T10:32:25.000Z</time>
      </trkpt>
      <trkpt lat="49.74058" lon="4.85003">
        <ele>219</ele>
        <time>2020-10-31T10:32:26.000Z</time>
      </trkpt>
      <trkpt lat="49.74061" lon="4.85004">
        <ele>219</ele>
        <time>2020-10-31T10:32:27.000Z</time>
      </trkpt>
      <trkpt lat="49.74063" lon="4.85006">
        <ele>219</ele>
        <time>2020-10-31T10:32:28.000Z</time>
      </trkpt>
      <trkpt lat="49.74065" lon="4.85008">
        <ele>219</ele>
        <time>2020-10-31T10:32:29.000Z</time>
      </trkpt>
      <trkpt lat="49.74067" lon="4.85009">
        <ele>219</ele>
        <time>2020-10-31T10:32:30.000Z</time>
      </trkpt>
      <trkpt lat="49.74069" lon="4.85011">
        <ele>219</ele>
        <time>2020-10-31T10:32:31.000Z</time>
      </trkpt>
      <trkpt lat="49.74072" lon="4.85013">
        <ele>220</ele>
        <time>2020-10-31T10:32:32.000Z</time>
      </trkpt>
      <trkpt lat="49.74074" lon="4.85015">
        <ele>220</ele>
        <time>2020-10-31T10:32:33.000Z</time>
      </trkpt>
      <trkpt lat="49.74076" lon="4.85017">
        <ele>220</ele>
        <time>2020-10-31T10:32:34.000Z</time>
      </trkpt>
      <trkpt lat="49.74078" lon="4.85019">
        <ele>220</ele>
        <time>2020-10-31T10:32:35.000Z</time>
      </trkpt>
      <trkpt lat="49.7408" lon="4.85021">
        <ele>220</ele>
        <time>2020-10-31T10:32:36.000Z</time>
      </trkpt>
      <trkpt lat="49.74082" lon="4.85023">
        <ele>221</ele>
        <time>2020-10-31T10:32:37.000Z</time>
      </trkpt>
      <trkpt lat="49.74084" lon="4.85025">
        <ele>221</ele>
        <time>2020-10-31T10:32:38.000Z</time>
      </trkpt>
      <trkpt lat="49.74086" lon="4.85027">
        <ele>221</ele>
        <time>2020-10-31T10:32:39.000Z</time>
      </trkpt>
      <trkpt lat="49.74089" lon="4.85029">
        <ele>221</ele>
        <time>2020-10-31T10:32:40.000Z</time>
      </trkpt>
      <trkpt lat="49.7409" lon="4.85031">
        <ele>222</ele>
        <time>2020-10-31T10:32:41.000Z</time>
      </trkpt>
      <trkpt lat="49.74092" lon="4.85033">
        <ele>222</ele>
        <time>2020-10-31T10:32:42.000Z</time>
      </trkpt>
      <trkpt lat="49.74094" lon="4.85035">
        <ele>222</ele>
        <time>2020-10-31T10:32:43.000Z</time>
      </trkpt>
      <trkpt lat="49.74096" lon="4.85037">
        <ele>223</ele>
        <time>2020-10-31T10:32:44.000Z</time>
      </trkpt>
      <trkpt lat="49.74098" lon="4.85038">
        <ele>223</ele>
        <time>2020-10-31T10:32:45.000Z</time>
      </trkpt>
      <trkpt lat="49.741" lon="4.8504">
        <ele>223</ele>
        <time>2020-10-31T10:32:46.000Z</time>
      </trkpt>
      <trkpt lat="49.74102" lon="4.85042">
        <ele>223</ele>
        <time>2020-10-31T10:32:47.000Z</time>
      </trkpt>
      <trkpt lat="49.74103" lon="4.85043">
        <ele>224</ele>
        <time>2020-10-31T10:32:48.000Z</time>
      </trkpt>
      <trkpt lat="49.74105" lon="4.85044">
        <ele>224</ele>
        <time>2020-10-31T10:32:49.000Z</time>
      </trkpt>
      <trkpt lat="49.74107" lon="4.85046">
        <ele>224</ele>
        <time>2020-10-31T10:32:50.000Z</time>
      </trkpt>
      <trkpt lat="49.74108" lon="4.85048">
        <ele>225</ele>
        <time>2020-10-31T10:32:51.000Z</time>
      </trkpt>
      <trkpt lat="49.7411" lon="4.8505">
        <ele>225</ele>
        <time>2020-10-31T10:32:52.000Z</time>
      </trkpt>
      <trkpt lat="49.74112" lon="4.85052">
        <ele>225</ele>
        <time>2020-10-31T10:32:53.000Z</time>
      </trkpt>
      <trkpt lat="49.74115" lon="4.85054">
        <ele>225</ele>
        <time>2020-10-31T10:32:54.000Z</time>
      </trkpt>
      <trkpt lat="49.74116" lon="4.85056">
        <ele>226</ele>
        <time>2020-10-31T10:32:55.000Z</time>
      </trkpt>
      <trkpt lat="49.74119" lon="4.85057">
        <ele>226</ele>
        <time>2020-10-31T10:32:56.000Z</time>
      </trkpt>
      <trkpt lat="49.74121" lon="4.85059">
        <ele>226</ele>
        <time>2020-10-31T10:32:57.000Z</time>
      </trkpt>
      <trkpt lat="49.74123" lon="4.85061">
        <ele>226</ele>
        <time>2020-10-31T10:32:58.000Z</time>
      </trkpt>
      <trkpt lat="49.74125" lon="4.85063">
        <ele>226</ele>
        <time>2020-10-31T10:32:59.000Z</time>
      </trkpt>
      <trkpt lat="49.74126" lon="4.85065">
        <ele>226</ele>
        <time>2020-10-31T10:33:00.000Z</time>
      </trkpt>
      <trkpt lat="49.74128" lon="4.85067">
        <ele>226</ele>
        <time>2020-10-31T10:33:01.000Z</time>
      </trkpt>
      <trkpt lat="49.7413" lon="4.85068">
        <ele>226</ele>
        <time>2020-10-31T10:33:02.000Z</time>
      </trkpt>
      <trkpt lat="49.74132" lon="4.8507">
        <ele>226</ele>
        <time>2020-10-31T10:33:03.000Z</time>
      </trkpt>
      <trkpt lat="49.74134" lon="4.85072">
        <ele>226</ele>
        <time>2020-10-31T10:33:04.000Z</time>
      </trkpt>
      <trkpt lat="49.74135" lon="4.85073">
        <ele>226</ele>
        <time>2020-10-31T10:33:05.000Z</time>
      </trkpt>
      <trkpt lat="49.74137" lon="4.85075">
        <ele>227</ele>
        <time>2020-10-31T10:33:06.000Z</time>
      </trkpt>
      <trkpt lat="49.74138" lon="4.85077">
        <ele>227</ele>
        <time>2020-10-31T10:33:07.000Z</time>
      </trkpt>
      <trkpt lat="49.7414" lon="4.85079">
        <ele>227</ele>
        <time>2020-10-31T10:33:08.000Z</time>
      </trkpt>
      <trkpt lat="49.74142" lon="4.85082">
        <ele>227</ele>
        <time>2020-10-31T10:33:09.000Z</time>
      </trkpt>
      <trkpt lat="49.74143" lon="4.85084">
        <ele>227</ele>
        <time>2020-10-31T10:33:10.000Z</time>
      </trkpt>
      <trkpt lat="49.74145" lon="4.85086">
        <ele>227</ele>
        <time>2020-10-31T10:33:11.000Z</time>
      </trkpt>
      <trkpt lat="49.74148" lon="4.85088">
        <ele>227</ele>
        <time>2020-10-31T10:33:12.000Z</time>
      </trkpt>
      <trkpt lat="49.7415" lon="4.85091">
        <ele>227</ele>
        <time>2020-10-31T10:33:13.000Z</time>
      </trkpt>
      <trkpt lat="49.74152" lon="4.85093">
        <ele>227</ele>
        <time>2020-10-31T10:33:14.000Z</time>
      </trkpt>
      <trkpt lat="49.74154" lon="4.85095">
        <ele>227</ele>
        <time>2020-10-31T10:33:15.000Z</time>
      </trkpt>
      <trkpt lat="49.74156" lon="4.85098">
        <ele>227</ele>
        <time>2020-10-31T10:33:16.000Z</time>
      </trkpt>
      <trkpt lat="49.74158" lon="4.851">
        <ele>227</ele>
        <time>2020-10-31T10:33:17.000Z</time>
      </trkpt>
      <trkpt lat="49.7416" lon="4.85102">
        <ele>227</ele>
        <time>2020-10-31T10:33:18.000Z</time>
      </trkpt>
      <trkpt lat="49.74162" lon="4.85105">
        <ele>228</ele>
        <time>2020-10-31T10:33:19.000Z</time>
      </trkpt>
      <trkpt lat="49.74164" lon="4.85106">
        <ele>228</ele>
        <time>2020-10-31T10:33:20.000Z</time>
      </trkpt>
      <trkpt lat="49.74166" lon="4.85108">
        <ele>228</ele>
        <time>2020-10-31T10:33:21.000Z</time>
      </trkpt>
      <trkpt lat="49.74168" lon="4.8511">
        <ele>228</ele>
        <time>2020-10-31T10:33:22.000Z</time>
      </trkpt>
      <trkpt lat="49.7417" lon="4.85112">
        <ele>228</ele>
        <time>2020-10-31T10:33:23.000Z</time>
      </trkpt>
      <trkpt lat="49.74172" lon="4.85115">
        <ele>228</ele>
        <time>2020-10-31T10:33:24.000Z</time>
      </trkpt>
      <trkpt lat="49.74174" lon="4.85117">
        <ele>228</ele>
        <time>2020-10-31T10:33:25.000Z</time>
      </trkpt>
      <trkpt lat="49.74176" lon="4.8512">
        <ele>228</ele>
        <time>2020-10-31T10:33:26.000Z</time>
      </trkpt>
      <trkpt lat="49.74178" lon="4.85122">
        <ele>228</ele>
        <time>2020-10-31T10:33:27.000Z</time>
      </trkpt>
      <trkpt lat="49.7418" lon="4.85124">
        <ele>228</ele>
        <time>2020-10-31T10:33:28.000Z</time>
      </trkpt>
      <trkpt lat="49.74182" lon="4.85127">
        <ele>228</ele>
        <time>2020-10-31T10:33:29.000Z</time>
      </trkpt>
      <trkpt lat="49.74184" lon="4.85129">
        <ele>228</ele>
        <time>2020-10-31T10:33:30.000Z</time>
      </trkpt>
      <trkpt lat="49.74185" lon="4.85131">
        <ele>228</ele>
        <time>2020-10-31T10:33:31.000Z</time>
      </trkpt>
      <trkpt lat="49.74187" lon="4.85133">
        <ele>228</ele>
        <time>2020-10-31T10:33:32.000Z</time>
      </trkpt>
      <trkpt lat="49.74188" lon="4.85134">
        <ele>228</ele>
        <time>2020-10-31T10:33:33.000Z</time>
      </trkpt>
      <trkpt lat="49.74189" lon="4.85136">
        <ele>229</ele>
        <time>2020-10-31T10:33:34.000Z</time>
      </trkpt>
      <trkpt lat="49.74192" lon="4.85137">
        <ele>229</ele>
        <time>2020-10-31T10:33:35.000Z</time>
      </trkpt>
      <trkpt lat="49.74194" lon="4.85138">
        <ele>229</ele>
        <time>2020-10-31T10:33:36.000Z</time>
      </trkpt>
      <trkpt lat="49.74196" lon="4.85138">
        <ele>229</ele>
        <time>2020-10-31T10:33:37.000Z</time>
      </trkpt>
      <trkpt lat="49.74197" lon="4.85139">
        <ele>229</ele>
        <time>2020-10-31T10:33:38.000Z</time>
      </trkpt>
      <trkpt lat="49.74198" lon="4.85139">
        <ele>230</ele>
        <time>2020-10-31T10:33:39.000Z</time>
      </trkpt>
      <trkpt lat="49.742" lon="4.85138">
        <ele>230</ele>
        <time>2020-10-31T10:33:40.000Z</time>
      </trkpt>
      <trkpt lat="49.74201" lon="4.85138">
        <ele>230</ele>
        <time>2020-10-31T10:33:41.000Z</time>
      </trkpt>
      <trkpt lat="49.74202" lon="4.85137">
        <ele>230</ele>
        <time>2020-10-31T10:33:42.000Z</time>
      </trkpt>
      <trkpt lat="49.74204" lon="4.85136">
        <ele>231</ele>
        <time>2020-10-31T10:33:43.000Z</time>
      </trkpt>
      <trkpt lat="49.74206" lon="4.85135">
        <ele>231</ele>
        <time>2020-10-31T10:33:44.000Z</time>
      </trkpt>
      <trkpt lat="49.74208" lon="4.85134">
        <ele>231</ele>
        <time>2020-10-31T10:33:45.000Z</time>
      </trkpt>
      <trkpt lat="49.7421" lon="4.85133">
        <ele>232</ele>
        <time>2020-10-31T10:33:46.000Z</time>
      </trkpt>
      <trkpt lat="49.74211" lon="4.85131">
        <ele>232</ele>
        <time>2020-10-31T10:33:47.000Z</time>
      </trkpt>
      <trkpt lat="49.74213" lon="4.8513">
        <ele>232</ele>
        <time>2020-10-31T10:33:48.000Z</time>
      </trkpt>
      <trkpt lat="49.74215" lon="4.85129">
        <ele>232</ele>
        <time>2020-10-31T10:33:49.000Z</time>
      </trkpt>
      <trkpt lat="49.74216" lon="4.85128">
        <ele>233</ele>
        <time>2020-10-31T10:33:50.000Z</time>
      </trkpt>
      <trkpt lat="49.74218" lon="4.85126">
        <ele>233</ele>
        <time>2020-10-31T10:33:51.000Z</time>
      </trkpt>
      <trkpt lat="49.74219" lon="4.85123">
        <ele>233</ele>
        <time>2020-10-31T10:33:52.000Z</time>
      </trkpt>
      <trkpt lat="49.74221" lon="4.8512">
        <ele>233</ele>
        <time>2020-10-31T10:33:53.000Z</time>
      </trkpt>
      <trkpt lat="49.74222" lon="4.85118">
        <ele>233</ele>
        <time>2020-10-31T10:33:54.000Z</time>
      </trkpt>
      <trkpt lat="49.74222" lon="4.85115">
        <ele>233</ele>
        <time>2020-10-31T10:33:55.000Z</time>
      </trkpt>
      <trkpt lat="49.74221" lon="4.85113">
        <ele>234</ele>
        <time>2020-10-31T10:33:56.000Z</time>
      </trkpt>
      <trkpt lat="49.74221" lon="4.8511">
        <ele>234</ele>
        <time>2020-10-31T10:33:57.000Z</time>
      </trkpt>
      <trkpt lat="49.7422" lon="4.85107">
        <ele>234</ele>
        <time>2020-10-31T10:33:58.000Z</time>
      </trkpt>
      <trkpt lat="49.7422" lon="4.85104">
        <ele>234</ele>
        <time>2020-10-31T10:33:59.000Z</time>
      </trkpt>
      <trkpt lat="49.74219" lon="4.851">
        <ele>234</ele>
        <time>2020-10-31T10:34:00.000Z</time>
      </trkpt>
      <trkpt lat="49.74217" lon="4.85098">
        <ele>235</ele>
        <time>2020-10-31T10:34:01.000Z</time>
      </trkpt>
      <trkpt lat="49.74216" lon="4.85095">
        <ele>235</ele>
        <time>2020-10-31T10:34:02.000Z</time>
      </trkpt>
      <trkpt lat="49.74214" lon="4.85092">
        <ele>235</ele>
        <time>2020-10-31T10:34:03.000Z</time>
      </trkpt>
      <trkpt lat="49.74213" lon="4.85088">
        <ele>235</ele>
        <time>2020-10-31T10:34:04.000Z</time>
      </trkpt>
      <trkpt lat="49.74211" lon="4.85084">
        <ele>235</ele>
        <time>2020-10-31T10:34:05.000Z</time>
      </trkpt>
      <trkpt lat="49.74209" lon="4.8508">
        <ele>236</ele>
        <time>2020-10-31T10:34:06.000Z</time>
      </trkpt>
      <trkpt lat="49.74208" lon="4.85075">
        <ele>236</ele>
        <time>2020-10-31T10:34:07.000Z</time>
      </trkpt>
      <trkpt lat="49.74206" lon="4.8507">
        <ele>236</ele>
        <time>2020-10-31T10:34:08.000Z</time>
      </trkpt>
      <trkpt lat="49.74204" lon="4.85065">
        <ele>236</ele>
        <time>2020-10-31T10:34:09.000Z</time>
      </trkpt>
      <trkpt lat="49.74202" lon="4.8506">
        <ele>236</ele>
        <time>2020-10-31T10:34:10.000Z</time>
      </trkpt>
      <trkpt lat="49.742" lon="4.85055">
        <ele>236</ele>
        <time>2020-10-31T10:34:11.000Z</time>
      </trkpt>
      <trkpt lat="49.74198" lon="4.8505">
        <ele>236</ele>
        <time>2020-10-31T10:34:12.000Z</time>
      </trkpt>
      <trkpt lat="49.74196" lon="4.85044">
        <ele>236</ele>
        <time>2020-10-31T10:34:13.000Z</time>
      </trkpt>
      <trkpt lat="49.74194" lon="4.85039">
        <ele>236</ele>
        <time>2020-10-31T10:34:14.000Z</time>
      </trkpt>
      <trkpt lat="49.74192" lon="4.85033">
        <ele>236</ele>
        <time>2020-10-31T10:34:15.000Z</time>
      </trkpt>
      <trkpt lat="49.7419" lon="4.85028">
        <ele>236</ele>
        <time>2020-10-31T10:34:16.000Z</time>
      </trkpt>
      <trkpt lat="49.74189" lon="4.85023">
        <ele>237</ele>
        <time>2020-10-31T10:34:17.000Z</time>
      </trkpt>
      <trkpt lat="49.74186" lon="4.85018">
        <ele>236</ele>
        <time>2020-10-31T10:34:18.000Z</time>
      </trkpt>
      <trkpt lat="49.74184" lon="4.85013">
        <ele>236</ele>
        <time>2020-10-31T10:34:19.000Z</time>
      </trkpt>
      <trkpt lat="49.74182" lon="4.85008">
        <ele>236</ele>
        <time>2020-10-31T10:34:20.000Z</time>
      </trkpt>
      <trkpt lat="49.7418" lon="4.85002">
        <ele>236</ele>
        <time>2020-10-31T10:34:21.000Z</time>
      </trkpt>
      <trkpt lat="49.74178" lon="4.84996">
        <ele>236</ele>
        <time>2020-10-31T10:34:22.000Z</time>
      </trkpt>
      <trkpt lat="49.74176" lon="4.84991">
        <ele>236</ele>
        <time>2020-10-31T10:34:23.000Z</time>
      </trkpt>
      <trkpt lat="49.74174" lon="4.84985">
        <ele>236</ele>
        <time>2020-10-31T10:34:24.000Z</time>
      </trkpt>
      <trkpt lat="49.74172" lon="4.8498">
        <ele>236</ele>
        <time>2020-10-31T10:34:25.000Z</time>
      </trkpt>
      <trkpt lat="49.7417" lon="4.84975">
        <ele>235</ele>
        <time>2020-10-31T10:34:26.000Z</time>
      </trkpt>
      <trkpt lat="49.74167" lon="4.8497">
        <ele>235</ele>
        <time>2020-10-31T10:34:27.000Z</time>
      </trkpt>
      <trkpt lat="49.74164" lon="4.84967">
        <ele>235</ele>
        <time>2020-10-31T10:34:28.000Z</time>
      </trkpt>
      <trkpt lat="49.7416" lon="4.84964">
        <ele>235</ele>
        <time>2020-10-31T10:34:29.000Z</time>
      </trkpt>
      <trkpt lat="49.74156" lon="4.84963">
        <ele>235</ele>
        <time>2020-10-31T10:34:30.000Z</time>
      </trkpt>
      <trkpt lat="49.74151" lon="4.84961">
        <ele>235</ele>
        <time>2020-10-31T10:34:31.000Z</time>
      </trkpt>
      <trkpt lat="49.74146" lon="4.8496">
        <ele>235</ele>
        <time>2020-10-31T10:34:32.000Z</time>
      </trkpt>
      <trkpt lat="49.74142" lon="4.84958">
        <ele>234</ele>
        <time>2020-10-31T10:34:33.000Z</time>
      </trkpt>
      <trkpt lat="49.7414" lon="4.84956">
        <ele>234</ele>
        <time>2020-10-31T10:34:34.000Z</time>
      </trkpt>
      <trkpt lat="49.7414" lon="4.84956">
        <ele>234</ele>
        <time>2020-10-31T10:34:35.000Z</time>
      </trkpt>
      <trkpt lat="49.7414" lon="4.84956">
        <ele>234</ele>
        <time>2020-10-31T10:34:36.000Z</time>
      </trkpt>
      <trkpt lat="49.7414" lon="4.84956">
        <ele>234</ele>
        <time>2020-10-31T10:34:37.000Z</time>
      </trkpt>
      <trkpt lat="49.7414" lon="4.84955">
        <ele>234</ele>
        <time>2020-10-31T10:34:38.000Z</time>
      </trkpt>
      <trkpt lat="49.7414" lon="4.84955">
        <ele>234</ele>
        <time>2020-10-31T10:34:39.000Z</time>
      </trkpt>
      <trkpt lat="49.7414" lon="4.84955">
        <ele>234</ele>
        <time>2020-10-31T10:34:40.000Z</time>
      </trkpt>
      <trkpt lat="49.7414" lon="4.84955">
        <ele>234</ele>
        <time>2020-10-31T10:34:41.000Z</time>
      </trkpt>
      <trkpt lat="49.7414" lon="4.84955">
        <ele>234</ele>
        <time>2020-10-31T10:34:42.000Z</time>
      </trkpt>
      <trkpt lat="49.7414" lon="4.84955">
        <ele>234</ele>
        <time>2020-10-31T10:34:43.000Z</time>
      </trkpt>
      <trkpt lat="49.7414" lon="4.84955">
        <ele>234</ele>
        <time>2020-10-31T10:34:44.000Z</time>
      </trkpt>
      <trkpt lat="49.74139" lon="4.84954">
        <ele>235</ele>
        <time>2020-10-31T10:34:45.000Z</time>
      </trkpt>
      <trkpt lat="49.74139" lon="4.84954">
        <ele>235</ele>
        <time>2020-10-31T10:34:46.000Z</time>
      </trkpt>
      <trkpt lat="49.74139" lon="4.84954">
        <ele>235</ele>
        <time>2020-10-31T10:34:47.000Z</time>
      </trkpt>
      <trkpt lat="49.74139" lon="4.84954">
        <ele>235</ele>
        <time>2020-10-31T10:34:48.000Z</time>
      </trkpt>
      <trkpt lat="49.74139" lon="4.84954">
        <ele>235</ele>
        <time>2020-10-31T10:34:49.000Z</time>
      </trkpt>
      <trkpt lat="49.74139" lon="4.84954">
        <ele>235</ele>
        <time>2020-10-31T10:34:50.000Z</time>
      </trkpt>
      <trkpt lat="49.74139" lon="4.84954">
        <ele>235</ele>
        <time>2020-10-31T10:34:51.000Z</time>
      </trkpt>
      <trkpt lat="49.74139" lon="4.84954">
        <ele>235</ele>
        <time>2020-10-31T10:34:52.000Z</time>
      </trkpt>
      <trkpt lat="49.74139" lon="4.84954">
        <ele>235</ele>
        <time>2020-10-31T10:34:53.000Z</time>
      </trkpt>
      <trkpt lat="49.74139" lon="4.84954">
        <ele>235</ele>
        <time>2020-10-31T10:34:54.000Z</time>
      </trkpt>
      <trkpt lat="49.74139" lon="4.84954">
        <ele>235</ele>
        <time>2020-10-31T10:34:55.000Z</time>
      </trkpt>
      <trkpt lat="49.74139" lon="4.84954">
        <ele>235</ele>
        <time>2020-10-31T10:34:56.000Z</time>
      </trkpt>
      <trkpt lat="49.74139" lon="4.84954">
        <ele>235</ele>
        <time>2020-10-31T10:34:57.000Z</time>
      </trkpt>
      <trkpt lat="49.74139" lon="4.84954">
        <ele>235</ele>
        <time>2020-10-31T10:34:58.000Z</time>
      </trkpt>
      <trkpt lat="49.74139" lon="4.84954">
        <ele>235</ele>
        <time>2020-10-31T10:34:59.000Z</time>
      </trkpt>
      <trkpt lat="49.74139" lon="4.84954">
        <ele>235</ele>
        <time>2020-10-31T10:35:00.000Z</time>
      </trkpt>
      <trkpt lat="49.74139" lon="4.84954">
        <ele>235</ele>
        <time>2020-10-31T10:35:01.000Z</time>
      </trkpt>
      <trkpt lat="49.74139" lon="4.84954">
        <ele>235</ele>
        <time>2020-10-31T10:35:02.000Z</time>
      </trkpt>
      <trkpt lat="49.74139" lon="4.84954">
        <ele>235</ele>
        <time>2020-10-31T10:35:03.000Z</time>
      </trkpt>
      <trkpt lat="49.74139" lon="4.84954">
        <ele>235</ele>
        <time>2020-10-31T10:35:04.000Z</time>
      </trkpt>
      <trkpt lat="49.74139" lon="4.84954">
        <ele>235</ele>
        <time>2020-10-31T10:35:05.000Z</time>
      </trkpt>
      <trkpt lat="49.74139" lon="4.84954">
        <ele>235</ele>
        <time>2020-10-31T10:35:06.000Z</time>
      </trkpt>
      <trkpt lat="49.74139" lon="4.84954">
        <ele>235</ele>
        <time>2020-10-31T10:35:07.000Z</time>
      </trkpt>
      <trkpt lat="49.74139" lon="4.84954">
        <ele>235</ele>
        <time>2020-10-31T10:35:08.000Z</time>
      </trkpt>
      <trkpt lat="49.74139" lon="4.84954">
        <ele>235</ele>
        <time>2020-10-31T10:35:09.000Z</time>
      </trkpt>
      <trkpt lat="49.74139" lon="4.84954">
        <ele>236</ele>
        <time>2020-10-31T10:35:10.000Z</time>
      </trkpt>
      <trkpt lat="49.74139" lon="4.84954">
        <ele>236</ele>
        <time>2020-10-31T10:35:11.000Z</time>
      </trkpt>
      <trkpt lat="49.74139" lon="4.84954">
        <ele>236</ele>
        <time>2020-10-31T10:35:12.000Z</time>
      </trkpt>
      <trkpt lat="49.74139" lon="4.84954">
        <ele>236</ele>
        <time>2020-10-31T10:35:13.000Z</time>
      </trkpt>
      <trkpt lat="49.74139" lon="4.84954">
        <ele>236</ele>
        <time>2020-10-31T10:35:14.000Z</time>
      </trkpt>
      <trkpt lat="49.74139" lon="4.84954">
        <ele>236</ele>
        <time>2020-10-31T10:35:15.000Z</time>
      </trkpt>
      <trkpt lat="49.74139" lon="4.84954">
        <ele>236</ele>
        <time>2020-10-31T10:35:16.000Z</time>
      </trkpt>
      <trkpt lat="49.74139" lon="4.84954">
        <ele>236</ele>
        <time>2020-10-31T10:35:17.000Z</time>
      </trkpt>
      <trkpt lat="49.74139" lon="4.84953">
        <ele>236</ele>
        <time>2020-10-31T10:35:18.000Z</time>
      </trkpt>
      <trkpt lat="49.74139" lon="4.84953">
        <ele>236</ele>
        <time>2020-10-31T10:35:19.000Z</time>
      </trkpt>
      <trkpt lat="49.74139" lon="4.84953">
        <ele>236</ele>
        <time>2020-10-31T10:35:20.000Z</time>
      </trkpt>
      <trkpt lat="49.74139" lon="4.84953">
        <ele>236</ele>
        <time>2020-10-31T10:35:21.000Z</time>
      </trkpt>
      <trkpt lat="49.74139" lon="4.84953">
        <ele>236</ele>
        <time>2020-10-31T10:35:22.000Z</time>
      </trkpt>
      <trkpt lat="49.74139" lon="4.84953">
        <ele>236</ele>
        <time>2020-10-31T10:35:23.000Z</time>
      </trkpt>
      <trkpt lat="49.74139" lon="4.84953">
        <ele>236</ele>
        <time>2020-10-31T10:35:24.000Z</time>
      </trkpt>
      <trkpt lat="49.74139" lon="4.84953">
        <ele>236</ele>
        <time>2020-10-31T10:35:25.000Z</time>
      </trkpt>
      <trkpt lat="49.74139" lon="4.84953">
        <ele>236</ele>
        <time>2020-10-31T10:35:26.000Z</time>
      </trkpt>
      <trkpt lat="49.74139" lon="4.84953">
        <ele>236</ele>
        <time>2020-10-31T10:35:27.000Z</time>
      </trkpt>
      <trkpt lat="49.74139" lon="4.84953">
        <ele>236</ele>
        <time>2020-10-31T10:35:28.000Z</time>
      </trkpt>
      <trkpt lat="49.74139" lon="4.84953">
        <ele>236</ele>
        <time>2020-10-31T10:35:29.000Z</time>
      </trkpt>
      <trkpt lat="49.74139" lon="4.84953">
        <ele>236</ele>
        <time>2020-10-31T10:35:30.000Z</time>
      </trkpt>
      <trkpt lat="49.74139" lon="4.84953">
        <ele>236</ele>
        <time>2020-10-31T10:35:31.000Z</time>
      </trkpt>
      <trkpt lat="49.74139" lon="4.84953">
        <ele>236</ele>
        <time>2020-10-31T10:35:32.000Z</time>
      </trkpt>
      <trkpt lat="49.74139" lon="4.84953">
        <ele>236</ele>
        <time>2020-10-31T10:35:33.000Z</time>
      </trkpt>
      <trkpt lat="49.74139" lon="4.84953">
        <ele>236</ele>
        <time>2020-10-31T10:35:34.000Z</time>
      </trkpt>
      <trkpt lat="49.74139" lon="4.84953">
        <ele>236</ele>
        <time>2020-10-31T10:35:35.000Z</time>
      </trkpt>
      <trkpt lat="49.74139" lon="4.84953">
        <ele>236</ele>
        <time>2020-10-31T10:35:36.000Z</time>
      </trkpt>
      <trkpt lat="49.74139" lon="4.84953">
        <ele>236</ele>
        <time>2020-10-31T10:35:37.000Z</time>
      </trkpt>
      <trkpt lat="49.74139" lon="4.84953">
        <ele>236</ele>
        <time>2020-10-31T10:35:38.000Z</time>
      </trkpt>
      <trkpt lat="49.74139" lon="4.84953">
        <ele>236</ele>
        <time>2020-10-31T10:35:39.000Z</time>
      </trkpt>
      <trkpt lat="49.74139" lon="4.84953">
        <ele>236</ele>
        <time>2020-10-31T10:35:40.000Z</time>
      </trkpt>
      <trkpt lat="49.74139" lon="4.84953">
        <ele>236</ele>
        <time>2020-10-31T10:35:41.000Z</time>
      </trkpt>
      <trkpt lat="49.74139" lon="4.84953">
        <ele>236</ele>
        <time>2020-10-31T10:35:42.000Z</time>
      </trkpt>
      <trkpt lat="49.74139" lon="4.84953">
        <ele>236</ele>
        <time>2020-10-31T10:35:43.000Z</time>
      </trkpt>
      <trkpt lat="49.74139" lon="4.84953">
        <ele>236</ele>
        <time>2020-10-31T10:35:44.000Z</time>
      </trkpt>
      <trkpt lat="49.74139" lon="4.84953">
        <ele>236</ele>
        <time>2020-10-31T10:35:45.000Z</time>
      </trkpt>
      <trkpt lat="49.74139" lon="4.84953">
        <ele>236</ele>
        <time>2020-10-31T10:35:46.000Z</time>
      </trkpt>
      <trkpt lat="49.74139" lon="4.84953">
        <ele>236</ele>
        <time>2020-10-31T10:35:47.000Z</time>
      </trkpt>
      <trkpt lat="49.74139" lon="4.84953">
        <ele>236</ele>
        <time>2020-10-31T10:35:48.000Z</time>
      </trkpt>
      <trkpt lat="49.74139" lon="4.84953">
        <ele>236</ele>
        <time>2020-10-31T10:35:49.000Z</time>
      </trkpt>
      <trkpt lat="49.74139" lon="4.84953">
        <ele>236</ele>
        <time>2020-10-31T10:35:50.000Z</time>
      </trkpt>
      <trkpt lat="49.74139" lon="4.84953">
        <ele>236</ele>
        <time>2020-10-31T10:35:51.000Z</time>
      </trkpt>
      <trkpt lat="49.74139" lon="4.84953">
        <ele>236</ele>
        <time>2020-10-31T10:35:52.000Z</time>
      </trkpt>
      <trkpt lat="49.74139" lon="4.84953">
        <ele>236</ele>
        <time>2020-10-31T10:35:53.000Z</time>
      </trkpt>
      <trkpt lat="49.74139" lon="4.84953">
        <ele>236</ele>
        <time>2020-10-31T10:35:54.000Z</time>
      </trkpt>
      <trkpt lat="49.74139" lon="4.84953">
        <ele>236</ele>
        <time>2020-10-31T10:35:55.000Z</time>
      </trkpt>
      <trkpt lat="49.74139" lon="4.84953">
        <ele>236</ele>
        <time>2020-10-31T10:35:56.000Z</time>
      </trkpt>
      <trkpt lat="49.74139" lon="4.84953">
        <ele>236</ele>
        <time>2020-10-31T10:35:57.000Z</time>
      </trkpt>
      <trkpt lat="49.74139" lon="4.84953">
        <ele>236</ele>
        <time>2020-10-31T10:35:58.000Z</time>
      </trkpt>
      <trkpt lat="49.74139" lon="4.84953">
        <ele>236</ele>
        <time>2020-10-31T10:35:59.000Z</time>
      </trkpt>
      <trkpt lat="49.74139" lon="4.84953">
        <ele>236</ele>
        <time>2020-10-31T10:36:00.000Z</time>
      </trkpt>
      <trkpt lat="49.74139" lon="4.84953">
        <ele>236</ele>
        <time>2020-10-31T10:36:01.000Z</time>
      </trkpt>
      <trkpt lat="49.74139" lon="4.84953">
        <ele>236</ele>
        <time>2020-10-31T10:36:02.000Z</time>
      </trkpt>
      <trkpt lat="49.74139" lon="4.84953">
        <ele>236</ele>
        <time>2020-10-31T10:36:03.000Z</time>
      </trkpt>
      <trkpt lat="49.74139" lon="4.84953">
        <ele>236</ele>
        <time>2020-10-31T10:36:04.000Z</time>
      </trkpt>
      <trkpt lat="49.74139" lon="4.84953">
        <ele>236</ele>
        <time>2020-10-31T10:36:05.000Z</time>
      </trkpt>
      <trkpt lat="49.74139" lon="4.84953">
        <ele>236</ele>
        <time>2020-10-31T10:36:06.000Z</time>
      </trkpt>
      <trkpt lat="49.74139" lon="4.84953">
        <ele>236</ele>
        <time>2020-10-31T10:36:07.000Z</time>
      </trkpt>
      <trkpt lat="49.74139" lon="4.84953">
        <ele>236</ele>
        <time>2020-10-31T10:36:08.000Z</time>
      </trkpt>
      <trkpt lat="49.74139" lon="4.84953">
        <ele>236</ele>
        <time>2020-10-31T10:36:09.000Z</time>
      </trkpt>
      <trkpt lat="49.74139" lon="4.84953">
        <ele>236</ele>
        <time>2020-10-31T10:36:10.000Z</time>
      </trkpt>
      <trkpt lat="49.74139" lon="4.84953">
        <ele>236</ele>
        <time>2020-10-31T10:36:11.000Z</time>
      </trkpt>
      <trkpt lat="49.74139" lon="4.84953">
        <ele>236</ele>
        <time>2020-10-31T10:36:12.000Z</time>
      </trkpt>
      <trkpt lat="49.74139" lon="4.84953">
        <ele>236</ele>
        <time>2020-10-31T10:36:13.000Z</time>
      </trkpt>
      <trkpt lat="49.74139" lon="4.84953">
        <ele>236</ele>
        <time>2020-10-31T10:36:14.000Z</time>
      </trkpt>
      <trkpt lat="49.74139" lon="4.84953">
        <ele>236</ele>
        <time>2020-10-31T10:36:15.000Z</time>
      </trkpt>
      <trkpt lat="49.74139" lon="4.84953">
        <ele>236</ele>
        <time>2020-10-31T10:36:16.000Z</time>
      </trkpt>
      <trkpt lat="49.74139" lon="4.84953">
        <ele>236</ele>
        <time>2020-10-31T10:36:17.000Z</time>
      </trkpt>
      <trkpt lat="49.74139" lon="4.84953">
        <ele>236</ele>
        <time>2020-10-31T10:36:18.000Z</time>
      </trkpt>
      <trkpt lat="49.74139" lon="4.84953">
        <ele>236</ele>
        <time>2020-10-31T10:36:19.000Z</time>
      </trkpt>
      <trkpt lat="49.74139" lon="4.84953">
        <ele>236</ele>
        <time>2020-10-31T10:36:20.000Z</time>
      </trkpt>
      <trkpt lat="49.74139" lon="4.84953">
        <ele>236</ele>
        <time>2020-10-31T10:36:21.000Z</time>
      </trkpt>
      <trkpt lat="49.74139" lon="4.84953">
        <ele>236</ele>
        <time>2020-10-31T10:36:22.000Z</time>
      </trkpt>
      <trkpt lat="49.74139" lon="4.84953">
        <ele>236</ele>
        <time>2020-10-31T10:36:23.000Z</time>
      </trkpt>
      <trkpt lat="49.74139" lon="4.84953">
        <ele>236</ele>
        <time>2020-10-31T10:36:24.000Z</time>
      </trkpt>
      <trkpt lat="49.74139" lon="4.84953">
        <ele>236</ele>
        <time>2020-10-31T10:36:25.000Z</time>
      </trkpt>
      <trkpt lat="49.74139" lon="4.84953">
        <ele>236</ele>
        <time>2020-10-31T10:36:26.000Z</time>
      </trkpt>
      <trkpt lat="49.74139" lon="4.84953">
        <ele>236</ele>
        <time>2020-10-31T10:36:27.000Z</time>
      </trkpt>
      <trkpt lat="49.74139" lon="4.84953">
        <ele>236</ele>
        <time>2020-10-31T10:36:28.000Z</time>
      </trkpt>
      <trkpt lat="49.74139" lon="4.84953">
        <ele>236</ele>
        <time>2020-10-31T10:36:29.000Z</time>
      </trkpt>
      <trkpt lat="49.74139" lon="4.84953">
        <ele>236</ele>
        <time>2020-10-31T10:36:30.000Z</time>
      </trkpt>
      <trkpt lat="49.74139" lon="4.84953">
        <ele>236</ele>
        <time>2020-10-31T10:36:31.000Z</time>
      </trkpt>
      <trkpt lat="49.74139" lon="4.84953">
        <ele>236</ele>
        <time>2020-10-31T10:36:32.000Z</time>
      </trkpt>
      <trkpt lat="49.74139" lon="4.84953">
        <ele>236</ele>
        <time>2020-10-31T10:36:33.000Z</time>
      </trkpt>
      <trkpt lat="49.74139" lon="4.84953">
        <ele>236</ele>
        <time>2020-10-31T10:36:34.000Z</time>
      </trkpt>
      <trkpt lat="49.74139" lon="4.84953">
        <ele>236</ele>
        <time>2020-10-31T10:36:35.000Z</time>
      </trkpt>
      <trkpt lat="49.74139" lon="4.84953">
        <ele>236</ele>
        <time>2020-10-31T10:36:36.000Z</time>
      </trkpt>
      <trkpt lat="49.74139" lon="4.84953">
        <ele>236</ele>
        <time>2020-10-31T10:36:37.000Z</time>
      </trkpt>
      <trkpt lat="49.74139" lon="4.84953">
        <ele>236</ele>
        <time>2020-10-31T10:36:38.000Z</time>
      </trkpt>
      <trkpt lat="49.74139" lon="4.84953">
        <ele>236</ele>
        <time>2020-10-31T10:36:39.000Z</time>
      </trkpt>
      <trkpt lat="49.74139" lon="4.84953">
        <ele>236</ele>
        <time>2020-10-31T10:36:40.000Z</time>
      </trkpt>
      <trkpt lat="49.74139" lon="4.84953">
        <ele>236</ele>
        <time>2020-10-31T10:36:41.000Z</time>
      </trkpt>
      <trkpt lat="49.74139" lon="4.84953">
        <ele>236</ele>
        <time>2020-10-31T10:36:42.000Z</time>
      </trkpt>
      <trkpt lat="49.74139" lon="4.84953">
        <ele>236</ele>
        <time>2020-10-31T10:36:43.000Z</time>
      </trkpt>
      <trkpt lat="49.74139" lon="4.84953">
        <ele>236</ele>
        <time>2020-10-31T10:36:44.000Z</time>
      </trkpt>
      <trkpt lat="49.74139" lon="4.84953">
        <ele>236</ele>
        <time>2020-10-31T10:36:45.000Z</time>
      </trkpt>
      <trkpt lat="49.74139" lon="4.84953">
        <ele>236</ele>
        <time>2020-10-31T10:36:46.000Z</time>
      </trkpt>
      <trkpt lat="49.74139" lon="4.84953">
        <ele>236</ele>
        <time>2020-10-31T10:36:47.000Z</time>
      </trkpt>
      <trkpt lat="49.74139" lon="4.84953">
        <ele>236</ele>
        <time>2020-10-31T10:36:48.000Z</time>
      </trkpt>
      <trkpt lat="49.74139" lon="4.84953">
        <ele>236</ele>
        <time>2020-10-31T10:36:49.000Z</time>
      </trkpt>
      <trkpt lat="49.74139" lon="4.84953">
        <ele>236</ele>
        <time>2020-10-31T10:36:50.000Z</time>
      </trkpt>
      <trkpt lat="49.74139" lon="4.84953">
        <ele>236</ele>
        <time>2020-10-31T10:36:51.000Z</time>
      </trkpt>
      <trkpt lat="49.74139" lon="4.84953">
        <ele>236</ele>
        <time>2020-10-31T10:36:52.000Z</time>
      </trkpt>
      <trkpt lat="49.74139" lon="4.84953">
        <ele>236</ele>
        <time>2020-10-31T10:36:53.000Z</time>
      </trkpt>
      <trkpt lat="49.74139" lon="4.84953">
        <ele>236</ele>
        <time>2020-10-31T10:36:54.000Z</time>
      </trkpt>
      <trkpt lat="49.74139" lon="4.84953">
        <ele>236</ele>
        <time>2020-10-31T10:36:55.000Z</time>
      </trkpt>
      <trkpt lat="49.74139" lon="4.84953">
        <ele>236</ele>
        <time>2020-10-31T10:36:56.000Z</time>
      </trkpt>
      <trkpt lat="49.74139" lon="4.84953">
        <ele>236</ele>
        <time>2020-10-31T10:36:57.000Z</time>
      </trkpt>
      <trkpt lat="49.74139" lon="4.84953">
        <ele>236</ele>
        <time>2020-10-31T10:36:58.000Z</time>
      </trkpt>
      <trkpt lat="49.74139" lon="4.84953">
        <ele>236</ele>
        <time>2020-10-31T10:36:59.000Z</time>
      </trkpt>
      <trkpt lat="49.74139" lon="4.84953">
        <ele>236</ele>
        <time>2020-10-31T10:37:00.000Z</time>
      </trkpt>
      <trkpt lat="49.74139" lon="4.84953">
        <ele>236</ele>
        <time>2020-10-31T10:37:01.000Z</time>
      </trkpt>
      <trkpt lat="49.74139" lon="4.84953">
        <ele>236</ele>
        <time>2020-10-31T10:37:02.000Z</time>
      </trkpt>
      <trkpt lat="49.74139" lon="4.84953">
        <ele>236</ele>
        <time>2020-10-31T10:37:03.000Z</time>
      </trkpt>
      <trkpt lat="49.74139" lon="4.84953">
        <ele>236</ele>
        <time>2020-10-31T10:37:04.000Z</time>
      </trkpt>
      <trkpt lat="49.74139" lon="4.84953">
        <ele>236</ele>
        <time>2020-10-31T10:37:05.000Z</time>
      </trkpt>
      <trkpt lat="49.74139" lon="4.84953">
        <ele>236</ele>
        <time>2020-10-31T10:37:06.000Z</time>
      </trkpt>
      <trkpt lat="49.74139" lon="4.84953">
        <ele>236</ele>
        <time>2020-10-31T10:37:07.000Z</time>
      </trkpt>
      <trkpt lat="49.74139" lon="4.84953">
        <ele>236</ele>
        <time>2020-10-31T10:37:08.000Z</time>
      </trkpt>
      <trkpt lat="49.74139" lon="4.84953">
        <ele>236</ele>
        <time>2020-10-31T10:37:09.000Z</time>
      </trkpt>
      <trkpt lat="49.74139" lon="4.84953">
        <ele>236</ele>
        <time>2020-10-31T10:37:10.000Z</time>
      </trkpt>
      <trkpt lat="49.74139" lon="4.84953">
        <ele>236</ele>
        <time>2020-10-31T10:37:11.000Z</time>
      </trkpt>
      <trkpt lat="49.74139" lon="4.84953">
        <ele>236</ele>
        <time>2020-10-31T10:37:12.000Z</time>
      </trkpt>
      <trkpt lat="49.74139" lon="4.84953">
        <ele>236</ele>
        <time>2020-10-31T10:37:13.000Z</time>
      </trkpt>
      <trkpt lat="49.74139" lon="4.84953">
        <ele>236</ele>
        <time>2020-10-31T10:37:14.000Z</time>
      </trkpt>
      <trkpt lat="49.74139" lon="4.84953">
        <ele>236</ele>
        <time>2020-10-31T10:37:15.000Z</time>
      </trkpt>
      <trkpt lat="49.74139" lon="4.84953">
        <ele>236</ele>
        <time>2020-10-31T10:37:16.000Z</time>
      </trkpt>
      <trkpt lat="49.74139" lon="4.84953">
        <ele>236</ele>
        <time>2020-10-31T10:37:17.000Z</time>
      </trkpt>
      <trkpt lat="49.74139" lon="4.84953">
        <ele>236</ele>
        <time>2020-10-31T10:37:18.000Z</time>
      </trkpt>
      <trkpt lat="49.74139" lon="4.84953">
        <ele>236</ele>
        <time>2020-10-31T10:37:19.000Z</time>
      </trkpt>
      <trkpt lat="49.74139" lon="4.84953">
        <ele>236</ele>
        <time>2020-10-31T10:37:20.000Z</time>
      </trkpt>
      <trkpt lat="49.74139" lon="4.84953">
        <ele>236</ele>
        <time>2020-10-31T10:37:21.000Z</time>
      </trkpt>
      <trkpt lat="49.74138" lon="4.84952">
        <ele>236</ele>
        <time>2020-10-31T10:37:22.000Z</time>
      </trkpt>
      <trkpt lat="49.74136" lon="4.84952">
        <ele>236</ele>
        <time>2020-10-31T10:37:23.000Z</time>
      </trkpt>
      <trkpt lat="49.74134" lon="4.84951">
        <ele>236</ele>
        <time>2020-10-31T10:37:24.000Z</time>
      </trkpt>
      <trkpt lat="49.74131" lon="4.84949">
        <ele>236</ele>
        <time>2020-10-31T10:37:25.000Z</time>
      </trkpt>
      <trkpt lat="49.74128" lon="4.84946">
        <ele>236</ele>
        <time>2020-10-31T10:37:26.000Z</time>
      </trkpt>
      <trkpt lat="49.74124" lon="4.84943">
        <ele>236</ele>
        <time>2020-10-31T10:37:27.000Z</time>
      </trkpt>
      <trkpt lat="49.74121" lon="4.8494">
        <ele>236</ele>
        <time>2020-10-31T10:37:28.000Z</time>
      </trkpt>
      <trkpt lat="49.74118" lon="4.84936">
        <ele>236</ele>
        <time>2020-10-31T10:37:29.000Z</time>
      </trkpt>
      <trkpt lat="49.74115" lon="4.84932">
        <ele>235</ele>
        <time>2020-10-31T10:37:30.000Z</time>
      </trkpt>
      <trkpt lat="49.74111" lon="4.84928">
        <ele>235</ele>
        <time>2020-10-31T10:37:31.000Z</time>
      </trkpt>
      <trkpt lat="49.74108" lon="4.84923">
        <ele>235</ele>
        <time>2020-10-31T10:37:32.000Z</time>
      </trkpt>
      <trkpt lat="49.74104" lon="4.84918">
        <ele>235</ele>
        <time>2020-10-31T10:37:33.000Z</time>
      </trkpt>
      <trkpt lat="49.741" lon="4.84913">
        <ele>234</ele>
        <time>2020-10-31T10:37:34.000Z</time>
      </trkpt>
      <trkpt lat="49.74096" lon="4.84908">
        <ele>234</ele>
        <time>2020-10-31T10:37:35.000Z</time>
      </trkpt>
      <trkpt lat="49.74092" lon="4.84903">
        <ele>234</ele>
        <time>2020-10-31T10:37:36.000Z</time>
      </trkpt>
      <trkpt lat="49.74088" lon="4.84897">
        <ele>233</ele>
        <time>2020-10-31T10:37:37.000Z</time>
      </trkpt>
      <trkpt lat="49.74084" lon="4.84891">
        <ele>233</ele>
        <time>2020-10-31T10:37:38.000Z</time>
      </trkpt>
      <trkpt lat="49.7408" lon="4.84885">
        <ele>232</ele>
        <time>2020-10-31T10:37:39.000Z</time>
      </trkpt>
      <trkpt lat="49.74075" lon="4.84879">
        <ele>232</ele>
        <time>2020-10-31T10:37:40.000Z</time>
      </trkpt>
      <trkpt lat="49.74071" lon="4.84872">
        <ele>232</ele>
        <time>2020-10-31T10:37:41.000Z</time>
      </trkpt>
      <trkpt lat="49.74067" lon="4.84865">
        <ele>231</ele>
        <time>2020-10-31T10:37:42.000Z</time>
      </trkpt>
      <trkpt lat="49.74064" lon="4.84858">
        <ele>231</ele>
        <time>2020-10-31T10:37:43.000Z</time>
      </trkpt>
      <trkpt lat="49.7406" lon="4.84851">
        <ele>230</ele>
        <time>2020-10-31T10:37:44.000Z</time>
      </trkpt>
      <trkpt lat="49.74056" lon="4.84844">
        <ele>230</ele>
        <time>2020-10-31T10:37:45.000Z</time>
      </trkpt>
      <trkpt lat="49.74053" lon="4.84837">
        <ele>230</ele>
        <time>2020-10-31T10:37:46.000Z</time>
      </trkpt>
      <trkpt lat="49.74049" lon="4.84829">
        <ele>229</ele>
        <time>2020-10-31T10:37:47.000Z</time>
      </trkpt>
      <trkpt lat="49.74046" lon="4.84822">
        <ele>229</ele>
        <time>2020-10-31T10:37:48.000Z</time>
      </trkpt>
      <trkpt lat="49.74043" lon="4.84815">
        <ele>228</ele>
        <time>2020-10-31T10:37:49.000Z</time>
      </trkpt>
      <trkpt lat="49.74039" lon="4.84808">
        <ele>228</ele>
        <time>2020-10-31T10:37:50.000Z</time>
      </trkpt>
      <trkpt lat="49.74036" lon="4.84801">
        <ele>228</ele>
        <time>2020-10-31T10:37:51.000Z</time>
      </trkpt>
      <trkpt lat="49.74033" lon="4.84795">
        <ele>228</ele>
        <time>2020-10-31T10:37:52.000Z</time>
      </trkpt>
      <trkpt lat="49.7403" lon="4.84789">
        <ele>227</ele>
        <time>2020-10-31T10:37:53.000Z</time>
      </trkpt>
      <trkpt lat="49.74028" lon="4.84783">
        <ele>227</ele>
        <time>2020-10-31T10:37:54.000Z</time>
      </trkpt>
      <trkpt lat="49.74026" lon="4.84778">
        <ele>227</ele>
        <time>2020-10-31T10:37:55.000Z</time>
      </trkpt>
      <trkpt lat="49.74023" lon="4.84773">
        <ele>227</ele>
        <time>2020-10-31T10:37:56.000Z</time>
      </trkpt>
      <trkpt lat="49.74022" lon="4.84768">
        <ele>226</ele>
        <time>2020-10-31T10:37:57.000Z</time>
      </trkpt>
      <trkpt lat="49.7402" lon="4.84764">
        <ele>226</ele>
        <time>2020-10-31T10:37:58.000Z</time>
      </trkpt>
      <trkpt lat="49.74018" lon="4.84759">
        <ele>226</ele>
        <time>2020-10-31T10:37:59.000Z</time>
      </trkpt>
      <trkpt lat="49.74017" lon="4.84753">
        <ele>226</ele>
        <time>2020-10-31T10:38:00.000Z</time>
      </trkpt>
      <trkpt lat="49.74015" lon="4.84747">
        <ele>226</ele>
        <time>2020-10-31T10:38:01.000Z</time>
      </trkpt>
      <trkpt lat="49.74014" lon="4.8474">
        <ele>226</ele>
        <time>2020-10-31T10:38:02.000Z</time>
      </trkpt>
      <trkpt lat="49.74012" lon="4.84734">
        <ele>226</ele>
        <time>2020-10-31T10:38:03.000Z</time>
      </trkpt>
      <trkpt lat="49.74011" lon="4.84727">
        <ele>226</ele>
        <time>2020-10-31T10:38:04.000Z</time>
      </trkpt>
      <trkpt lat="49.74008" lon="4.84721">
        <ele>226</ele>
        <time>2020-10-31T10:38:05.000Z</time>
      </trkpt>
      <trkpt lat="49.74006" lon="4.84713">
        <ele>225</ele>
        <time>2020-10-31T10:38:06.000Z</time>
      </trkpt>
      <trkpt lat="49.74005" lon="4.84706">
        <ele>225</ele>
        <time>2020-10-31T10:38:07.000Z</time>
      </trkpt>
      <trkpt lat="49.74003" lon="4.84699">
        <ele>225</ele>
        <time>2020-10-31T10:38:08.000Z</time>
      </trkpt>
      <trkpt lat="49.74001" lon="4.84692">
        <ele>225</ele>
        <time>2020-10-31T10:38:09.000Z</time>
      </trkpt>
      <trkpt lat="49.73998" lon="4.84685">
        <ele>225</ele>
        <time>2020-10-31T10:38:10.000Z</time>
      </trkpt>
      <trkpt lat="49.73995" lon="4.84679">
        <ele>225</ele>
        <time>2020-10-31T10:38:11.000Z</time>
      </trkpt>
      <trkpt lat="49.73991" lon="4.84673">
        <ele>225</ele>
        <time>2020-10-31T10:38:12.000Z</time>
      </trkpt>
      <trkpt lat="49.73988" lon="4.84667">
        <ele>225</ele>
        <time>2020-10-31T10:38:13.000Z</time>
      </trkpt>
      <trkpt lat="49.73984" lon="4.84662">
        <ele>225</ele>
        <time>2020-10-31T10:38:14.000Z</time>
      </trkpt>
      <trkpt lat="49.7398" lon="4.84656">
        <ele>225</ele>
        <time>2020-10-31T10:38:15.000Z</time>
      </trkpt>
      <trkpt lat="49.73976" lon="4.84649">
        <ele>225</ele>
        <time>2020-10-31T10:38:16.000Z</time>
      </trkpt>
      <trkpt lat="49.73973" lon="4.84643">
        <ele>224</ele>
        <time>2020-10-31T10:38:17.000Z</time>
      </trkpt>
      <trkpt lat="49.73969" lon="4.84638">
        <ele>224</ele>
        <time>2020-10-31T10:38:18.000Z</time>
      </trkpt>
      <trkpt lat="49.73964" lon="4.84634">
        <ele>224</ele>
        <time>2020-10-31T10:38:19.000Z</time>
      </trkpt>
      <trkpt lat="49.7396" lon="4.84629">
        <ele>224</ele>
        <time>2020-10-31T10:38:20.000Z</time>
      </trkpt>
      <trkpt lat="49.73955" lon="4.84625">
        <ele>224</ele>
        <time>2020-10-31T10:38:21.000Z</time>
      </trkpt>
      <trkpt lat="49.7395" lon="4.8462">
        <ele>224</ele>
        <time>2020-10-31T10:38:22.000Z</time>
      </trkpt>
      <trkpt lat="49.73945" lon="4.84614">
        <ele>224</ele>
        <time>2020-10-31T10:38:23.000Z</time>
      </trkpt>
      <trkpt lat="49.7394" lon="4.84609">
        <ele>224</ele>
        <time>2020-10-31T10:38:24.000Z</time>
      </trkpt>
      <trkpt lat="49.73935" lon="4.84604">
        <ele>224</ele>
        <time>2020-10-31T10:38:25.000Z</time>
      </trkpt>
      <trkpt lat="49.7393" lon="4.84599">
        <ele>224</ele>
        <time>2020-10-31T10:38:26.000Z</time>
      </trkpt>
      <trkpt lat="49.73925" lon="4.84595">
        <ele>224</ele>
        <time>2020-10-31T10:38:27.000Z</time>
      </trkpt>
      <trkpt lat="49.7392" lon="4.8459">
        <ele>224</ele>
        <time>2020-10-31T10:38:28.000Z</time>
      </trkpt>
      <trkpt lat="49.73916" lon="4.84585">
        <ele>223</ele>
        <time>2020-10-31T10:38:29.000Z</time>
      </trkpt>
      <trkpt lat="49.73911" lon="4.84581">
        <ele>223</ele>
        <time>2020-10-31T10:38:30.000Z</time>
      </trkpt>
      <trkpt lat="49.73905" lon="4.84576">
        <ele>223</ele>
        <time>2020-10-31T10:38:31.000Z</time>
      </trkpt>
      <trkpt lat="49.73901" lon="4.84571">
        <ele>223</ele>
        <time>2020-10-31T10:38:32.000Z</time>
      </trkpt>
      <trkpt lat="49.73895" lon="4.84566">
        <ele>223</ele>
        <time>2020-10-31T10:38:33.000Z</time>
      </trkpt>
      <trkpt lat="49.73891" lon="4.84563">
        <ele>223</ele>
        <time>2020-10-31T10:38:34.000Z</time>
      </trkpt>
      <trkpt lat="49.73886" lon="4.8456">
        <ele>223</ele>
        <time>2020-10-31T10:38:35.000Z</time>
      </trkpt>
      <trkpt lat="49.7388" lon="4.84556">
        <ele>223</ele>
        <time>2020-10-31T10:38:36.000Z</time>
      </trkpt>
      <trkpt lat="49.73875" lon="4.84554">
        <ele>222</ele>
        <time>2020-10-31T10:38:37.000Z</time>
      </trkpt>
      <trkpt lat="49.73869" lon="4.84553">
        <ele>222</ele>
        <time>2020-10-31T10:38:38.000Z</time>
      </trkpt>
      <trkpt lat="49.73864" lon="4.84553">
        <ele>222</ele>
        <time>2020-10-31T10:38:39.000Z</time>
      </trkpt>
      <trkpt lat="49.73859" lon="4.84552">
        <ele>221</ele>
        <time>2020-10-31T10:38:40.000Z</time>
      </trkpt>
      <trkpt lat="49.73854" lon="4.84552">
        <ele>221</ele>
        <time>2020-10-31T10:38:41.000Z</time>
      </trkpt>
      <trkpt lat="49.73849" lon="4.84552">
        <ele>221</ele>
        <time>2020-10-31T10:38:42.000Z</time>
      </trkpt>
      <trkpt lat="49.73844" lon="4.84553">
        <ele>221</ele>
        <time>2020-10-31T10:38:43.000Z</time>
      </trkpt>
      <trkpt lat="49.73839" lon="4.84554">
        <ele>221</ele>
        <time>2020-10-31T10:38:44.000Z</time>
      </trkpt>
      <trkpt lat="49.73834" lon="4.84555">
        <ele>221</ele>
        <time>2020-10-31T10:38:45.000Z</time>
      </trkpt>
      <trkpt lat="49.7383" lon="4.84558">
        <ele>220</ele>
        <time>2020-10-31T10:38:46.000Z</time>
      </trkpt>
      <trkpt lat="49.73825" lon="4.84562">
        <ele>220</ele>
        <time>2020-10-31T10:38:47.000Z</time>
      </trkpt>
      <trkpt lat="49.73822" lon="4.84568">
        <ele>219</ele>
        <time>2020-10-31T10:38:48.000Z</time>
      </trkpt>
      <trkpt lat="49.73818" lon="4.84574">
        <ele>219</ele>
        <time>2020-10-31T10:38:49.000Z</time>
      </trkpt>
      <trkpt lat="49.73815" lon="4.84582">
        <ele>219</ele>
        <time>2020-10-31T10:38:50.000Z</time>
      </trkpt>
      <trkpt lat="49.73812" lon="4.84589">
        <ele>218</ele>
        <time>2020-10-31T10:38:51.000Z</time>
      </trkpt>
      <trkpt lat="49.7381" lon="4.84596">
        <ele>218</ele>
        <time>2020-10-31T10:38:52.000Z</time>
      </trkpt>
      <trkpt lat="49.73809" lon="4.84603">
        <ele>217</ele>
        <time>2020-10-31T10:38:53.000Z</time>
      </trkpt>
      <trkpt lat="49.73808" lon="4.84609">
        <ele>217</ele>
        <time>2020-10-31T10:38:54.000Z</time>
      </trkpt>
      <trkpt lat="49.73806" lon="4.84613">
        <ele>216</ele>
        <time>2020-10-31T10:38:55.000Z</time>
      </trkpt>
      <trkpt lat="49.73804" lon="4.84615">
        <ele>216</ele>
        <time>2020-10-31T10:38:56.000Z</time>
      </trkpt>
      <trkpt lat="49.73802" lon="4.84616">
        <ele>216</ele>
        <time>2020-10-31T10:38:57.000Z</time>
      </trkpt>
      <trkpt lat="49.73799" lon="4.84616">
        <ele>215</ele>
        <time>2020-10-31T10:38:58.000Z</time>
      </trkpt>
      <trkpt lat="49.73796" lon="4.84616">
        <ele>215</ele>
        <time>2020-10-31T10:38:59.000Z</time>
      </trkpt>
      <trkpt lat="49.73793" lon="4.84617">
        <ele>214</ele>
        <time>2020-10-31T10:39:00.000Z</time>
      </trkpt>
      <trkpt lat="49.7379" lon="4.84618">
        <ele>214</ele>
        <time>2020-10-31T10:39:01.000Z</time>
      </trkpt>
      <trkpt lat="49.73786" lon="4.8462">
        <ele>213</ele>
        <time>2020-10-31T10:39:02.000Z</time>
      </trkpt>
      <trkpt lat="49.73782" lon="4.84622">
        <ele>213</ele>
        <time>2020-10-31T10:39:03.000Z</time>
      </trkpt>
      <trkpt lat="49.73779" lon="4.84626">
        <ele>213</ele>
        <time>2020-10-31T10:39:04.000Z</time>
      </trkpt>
      <trkpt lat="49.73776" lon="4.84629">
        <ele>212</ele>
        <time>2020-10-31T10:39:05.000Z</time>
      </trkpt>
      <trkpt lat="49.73773" lon="4.84634">
        <ele>212</ele>
        <time>2020-10-31T10:39:06.000Z</time>
      </trkpt>
      <trkpt lat="49.73771" lon="4.84641">
        <ele>212</ele>
        <time>2020-10-31T10:39:07.000Z</time>
      </trkpt>
      <trkpt lat="49.73769" lon="4.84647">
        <ele>211</ele>
        <time>2020-10-31T10:39:08.000Z</time>
      </trkpt>
      <trkpt lat="49.73767" lon="4.84654">
        <ele>211</ele>
        <time>2020-10-31T10:39:09.000Z</time>
      </trkpt>
      <trkpt lat="49.73764" lon="4.84659">
        <ele>210</ele>
        <time>2020-10-31T10:39:10.000Z</time>
      </trkpt>
      <trkpt lat="49.73761" lon="4.84663">
        <ele>210</ele>
        <time>2020-10-31T10:39:11.000Z</time>
      </trkpt>
      <trkpt lat="49.73759" lon="4.84666">
        <ele>209</ele>
        <time>2020-10-31T10:39:12.000Z</time>
      </trkpt>
      <trkpt lat="49.73758" lon="4.84667">
        <ele>209</ele>
        <time>2020-10-31T10:39:13.000Z</time>
      </trkpt>
      <trkpt lat="49.73757" lon="4.84668">
        <ele>208</ele>
        <time>2020-10-31T10:39:14.000Z</time>
      </trkpt>
      <trkpt lat="49.73756" lon="4.84669">
        <ele>208</ele>
        <time>2020-10-31T10:39:15.000Z</time>
      </trkpt>
      <trkpt lat="49.73756" lon="4.84668">
        <ele>207</ele>
        <time>2020-10-31T10:39:16.000Z</time>
      </trkpt>
      <trkpt lat="49.73756" lon="4.84667">
        <ele>207</ele>
        <time>2020-10-31T10:39:17.000Z</time>
      </trkpt>
      <trkpt lat="49.73756" lon="4.84666">
        <ele>206</ele>
        <time>2020-10-31T10:39:18.000Z</time>
      </trkpt>
      <trkpt lat="49.73756" lon="4.84665">
        <ele>206</ele>
        <time>2020-10-31T10:39:19.000Z</time>
      </trkpt>
      <trkpt lat="49.73756" lon="4.84664">
        <ele>205</ele>
        <time>2020-10-31T10:39:20.000Z</time>
      </trkpt>
      <trkpt lat="49.73756" lon="4.84663">
        <ele>205</ele>
        <time>2020-10-31T10:39:21.000Z</time>
      </trkpt>
      <trkpt lat="49.73757" lon="4.84662">
        <ele>204</ele>
        <time>2020-10-31T10:39:22.000Z</time>
      </trkpt>
      <trkpt lat="49.73757" lon="4.84661">
        <ele>204</ele>
        <time>2020-10-31T10:39:23.000Z</time>
      </trkpt>
      <trkpt lat="49.73757" lon="4.8466">
        <ele>204</ele>
        <time>2020-10-31T10:39:24.000Z</time>
      </trkpt>
      <trkpt lat="49.73757" lon="4.84659">
        <ele>203</ele>
        <time>2020-10-31T10:39:25.000Z</time>
      </trkpt>
      <trkpt lat="49.73757" lon="4.84657">
        <ele>203</ele>
        <time>2020-10-31T10:39:26.000Z</time>
      </trkpt>
      <trkpt lat="49.73758" lon="4.84655">
        <ele>203</ele>
        <time>2020-10-31T10:39:27.000Z</time>
      </trkpt>
      <trkpt lat="49.73758" lon="4.84652">
        <ele>202</ele>
        <time>2020-10-31T10:39:28.000Z</time>
      </trkpt>
      <trkpt lat="49.73758" lon="4.84649">
        <ele>202</ele>
        <time>2020-10-31T10:39:29.000Z</time>
      </trkpt>
      <trkpt lat="49.73758" lon="4.84648">
        <ele>202</ele>
        <time>2020-10-31T10:39:30.000Z</time>
      </trkpt>
      <trkpt lat="49.73757" lon="4.84647">
        <ele>202</ele>
        <time>2020-10-31T10:39:31.000Z</time>
      </trkpt>
      <trkpt lat="49.73756" lon="4.84647">
        <ele>202</ele>
        <time>2020-10-31T10:39:32.000Z</time>
      </trkpt>
      <trkpt lat="49.73755" lon="4.84647">
        <ele>201</ele>
        <time>2020-10-31T10:39:33.000Z</time>
      </trkpt>
      <trkpt lat="49.73753" lon="4.84646">
        <ele>201</ele>
        <time>2020-10-31T10:39:34.000Z</time>
      </trkpt>
      <trkpt lat="49.73752" lon="4.84644">
        <ele>201</ele>
        <time>2020-10-31T10:39:35.000Z</time>
      </trkpt>
      <trkpt lat="49.7375" lon="4.84642">
        <ele>201</ele>
        <time>2020-10-31T10:39:36.000Z</time>
      </trkpt>
      <trkpt lat="49.73749" lon="4.84641">
        <ele>200</ele>
        <time>2020-10-31T10:39:37.000Z</time>
      </trkpt>
      <trkpt lat="49.73748" lon="4.8464">
        <ele>200</ele>
        <time>2020-10-31T10:39:38.000Z</time>
      </trkpt>
      <trkpt lat="49.73746" lon="4.84638">
        <ele>200</ele>
        <time>2020-10-31T10:39:39.000Z</time>
      </trkpt>
      <trkpt lat="49.73745" lon="4.84637">
        <ele>200</ele>
        <time>2020-10-31T10:39:40.000Z</time>
      </trkpt>
      <trkpt lat="49.73744" lon="4.84636">
        <ele>200</ele>
        <time>2020-10-31T10:39:41.000Z</time>
      </trkpt>
      <trkpt lat="49.73743" lon="4.84634">
        <ele>200</ele>
        <time>2020-10-31T10:39:42.000Z</time>
      </trkpt>
      <trkpt lat="49.73742" lon="4.84632">
        <ele>199</ele>
        <time>2020-10-31T10:39:43.000Z</time>
      </trkpt>
      <trkpt lat="49.73742" lon="4.84631">
        <ele>199</ele>
        <time>2020-10-31T10:39:44.000Z</time>
      </trkpt>
      <trkpt lat="49.73742" lon="4.8463">
        <ele>199</ele>
        <time>2020-10-31T10:39:45.000Z</time>
      </trkpt>
      <trkpt lat="49.73742" lon="4.8463">
        <ele>199</ele>
        <time>2020-10-31T10:39:46.000Z</time>
      </trkpt>
      <trkpt lat="49.73742" lon="4.84629">
        <ele>199</ele>
        <time>2020-10-31T10:39:47.000Z</time>
      </trkpt>
      <trkpt lat="49.73741" lon="4.84628">
        <ele>198</ele>
        <time>2020-10-31T10:39:48.000Z</time>
      </trkpt>
      <trkpt lat="49.7374" lon="4.84627">
        <ele>198</ele>
        <time>2020-10-31T10:39:49.000Z</time>
      </trkpt>
      <trkpt lat="49.7374" lon="4.84625">
        <ele>198</ele>
        <time>2020-10-31T10:39:50.000Z</time>
      </trkpt>
      <trkpt lat="49.73739" lon="4.84622">
        <ele>197</ele>
        <time>2020-10-31T10:39:51.000Z</time>
      </trkpt>
      <trkpt lat="49.73738" lon="4.8462">
        <ele>197</ele>
        <time>2020-10-31T10:39:52.000Z</time>
      </trkpt>
      <trkpt lat="49.73738" lon="4.84618">
        <ele>197</ele>
        <time>2020-10-31T10:39:53.000Z</time>
      </trkpt>
      <trkpt lat="49.73737" lon="4.84615">
        <ele>196</ele>
        <time>2020-10-31T10:39:54.000Z</time>
      </trkpt>
      <trkpt lat="49.73736" lon="4.84612">
        <ele>196</ele>
        <time>2020-10-31T10:39:55.000Z</time>
      </trkpt>
      <trkpt lat="49.73735" lon="4.84608">
        <ele>195</ele>
        <time>2020-10-31T10:39:56.000Z</time>
      </trkpt>
      <trkpt lat="49.73734" lon="4.84605">
        <ele>195</ele>
        <time>2020-10-31T10:39:57.000Z</time>
      </trkpt>
      <trkpt lat="49.73732" lon="4.84602">
        <ele>195</ele>
        <time>2020-10-31T10:39:58.000Z</time>
      </trkpt>
      <trkpt lat="49.73731" lon="4.846">
        <ele>194</ele>
        <time>2020-10-31T10:39:59.000Z</time>
      </trkpt>
      <trkpt lat="49.7373" lon="4.84599">
        <ele>194</ele>
        <time>2020-10-31T10:40:00.000Z</time>
      </trkpt>
      <trkpt lat="49.73728" lon="4.84596">
        <ele>193</ele>
        <time>2020-10-31T10:40:01.000Z</time>
      </trkpt>
      <trkpt lat="49.73727" lon="4.84593">
        <ele>193</ele>
        <time>2020-10-31T10:40:02.000Z</time>
      </trkpt>
      <trkpt lat="49.73728" lon="4.8459">
        <ele>192</ele>
        <time>2020-10-31T10:40:03.000Z</time>
      </trkpt>
      <trkpt lat="49.7373" lon="4.84587">
        <ele>192</ele>
        <time>2020-10-31T10:40:04.000Z</time>
      </trkpt>
      <trkpt lat="49.73732" lon="4.84584">
        <ele>191</ele>
        <time>2020-10-31T10:40:05.000Z</time>
      </trkpt>
      <trkpt lat="49.73733" lon="4.84581">
        <ele>191</ele>
        <time>2020-10-31T10:40:06.000Z</time>
      </trkpt>
      <trkpt lat="49.73735" lon="4.84577">
        <ele>191</ele>
        <time>2020-10-31T10:40:07.000Z</time>
      </trkpt>
      <trkpt lat="49.73737" lon="4.84572">
        <ele>190</ele>
        <time>2020-10-31T10:40:08.000Z</time>
      </trkpt>
      <trkpt lat="49.73739" lon="4.84567">
        <ele>190</ele>
        <time>2020-10-31T10:40:09.000Z</time>
      </trkpt>
      <trkpt lat="49.73741" lon="4.84562">
        <ele>190</ele>
        <time>2020-10-31T10:40:10.000Z</time>
      </trkpt>
      <trkpt lat="49.73744" lon="4.84557">
        <ele>190</ele>
        <time>2020-10-31T10:40:11.000Z</time>
      </trkpt>
      <trkpt lat="49.73746" lon="4.84552">
        <ele>189</ele>
        <time>2020-10-31T10:40:12.000Z</time>
      </trkpt>
      <trkpt lat="49.73748" lon="4.84547">
        <ele>189</ele>
        <time>2020-10-31T10:40:13.000Z</time>
      </trkpt>
      <trkpt lat="49.73751" lon="4.84542">
        <ele>189</ele>
        <time>2020-10-31T10:40:14.000Z</time>
      </trkpt>
      <trkpt lat="49.73753" lon="4.84538">
        <ele>189</ele>
        <time>2020-10-31T10:40:15.000Z</time>
      </trkpt>
      <trkpt lat="49.73756" lon="4.84533">
        <ele>188</ele>
        <time>2020-10-31T10:40:16.000Z</time>
      </trkpt>
      <trkpt lat="49.73758" lon="4.84528">
        <ele>188</ele>
        <time>2020-10-31T10:40:17.000Z</time>
      </trkpt>
      <trkpt lat="49.73761" lon="4.84523">
        <ele>188</ele>
        <time>2020-10-31T10:40:18.000Z</time>
      </trkpt>
      <trkpt lat="49.73763" lon="4.84518">
        <ele>188</ele>
        <time>2020-10-31T10:40:19.000Z</time>
      </trkpt>
      <trkpt lat="49.73766" lon="4.84513">
        <ele>187</ele>
        <time>2020-10-31T10:40:20.000Z</time>
      </trkpt>
      <trkpt lat="49.73769" lon="4.84509">
        <ele>187</ele>
        <time>2020-10-31T10:40:21.000Z</time>
      </trkpt>
      <trkpt lat="49.73772" lon="4.84505">
        <ele>187</ele>
        <time>2020-10-31T10:40:22.000Z</time>
      </trkpt>
      <trkpt lat="49.73774" lon="4.84501">
        <ele>187</ele>
        <time>2020-10-31T10:40:23.000Z</time>
      </trkpt>
      <trkpt lat="49.73777" lon="4.84496">
        <ele>187</ele>
        <time>2020-10-31T10:40:24.000Z</time>
      </trkpt>
      <trkpt lat="49.7378" lon="4.84492">
        <ele>187</ele>
        <time>2020-10-31T10:40:25.000Z</time>
      </trkpt>
      <trkpt lat="49.73782" lon="4.84488">
        <ele>187</ele>
        <time>2020-10-31T10:40:26.000Z</time>
      </trkpt>
      <trkpt lat="49.73785" lon="4.84485">
        <ele>187</ele>
        <time>2020-10-31T10:40:27.000Z</time>
      </trkpt>
      <trkpt lat="49.73788" lon="4.84481">
        <ele>187</ele>
        <time>2020-10-31T10:40:28.000Z</time>
      </trkpt>
      <trkpt lat="49.7379" lon="4.84478">
        <ele>187</ele>
        <time>2020-10-31T10:40:29.000Z</time>
      </trkpt>
      <trkpt lat="49.73793" lon="4.84474">
        <ele>187</ele>
        <time>2020-10-31T10:40:30.000Z</time>
      </trkpt>
      <trkpt lat="49.73796" lon="4.84471">
        <ele>187</ele>
        <time>2020-10-31T10:40:31.000Z</time>
      </trkpt>
      <trkpt lat="49.73799" lon="4.84468">
        <ele>187</ele>
        <time>2020-10-31T10:40:32.000Z</time>
      </trkpt>
      <trkpt lat="49.73802" lon="4.84464">
        <ele>187</ele>
        <time>2020-10-31T10:40:33.000Z</time>
      </trkpt>
      <trkpt lat="49.73805" lon="4.84461">
        <ele>187</ele>
        <time>2020-10-31T10:40:34.000Z</time>
      </trkpt>
      <trkpt lat="49.73808" lon="4.84458">
        <ele>186</ele>
        <time>2020-10-31T10:40:35.000Z</time>
      </trkpt>
      <trkpt lat="49.73811" lon="4.84455">
        <ele>186</ele>
        <time>2020-10-31T10:40:36.000Z</time>
      </trkpt>
      <trkpt lat="49.73814" lon="4.84452">
        <ele>186</ele>
        <time>2020-10-31T10:40:37.000Z</time>
      </trkpt>
      <trkpt lat="49.73818" lon="4.84449">
        <ele>186</ele>
        <time>2020-10-31T10:40:38.000Z</time>
      </trkpt>
      <trkpt lat="49.73821" lon="4.84445">
        <ele>186</ele>
        <time>2020-10-31T10:40:39.000Z</time>
      </trkpt>
      <trkpt lat="49.73824" lon="4.84442">
        <ele>186</ele>
        <time>2020-10-31T10:40:40.000Z</time>
      </trkpt>
      <trkpt lat="49.73826" lon="4.84437">
        <ele>186</ele>
        <time>2020-10-31T10:40:41.000Z</time>
      </trkpt>
      <trkpt lat="49.73829" lon="4.84432">
        <ele>186</ele>
        <time>2020-10-31T10:40:42.000Z</time>
      </trkpt>
      <trkpt lat="49.7383" lon="4.84427">
        <ele>186</ele>
        <time>2020-10-31T10:40:43.000Z</time>
      </trkpt>
      <trkpt lat="49.73832" lon="4.84421">
        <ele>186</ele>
        <time>2020-10-31T10:40:44.000Z</time>
      </trkpt>
      <trkpt lat="49.73833" lon="4.84416">
        <ele>186</ele>
        <time>2020-10-31T10:40:45.000Z</time>
      </trkpt>
      <trkpt lat="49.73835" lon="4.8441">
        <ele>186</ele>
        <time>2020-10-31T10:40:46.000Z</time>
      </trkpt>
      <trkpt lat="49.73836" lon="4.84404">
        <ele>186</ele>
        <time>2020-10-31T10:40:47.000Z</time>
      </trkpt>
      <trkpt lat="49.73838" lon="4.84399">
        <ele>186</ele>
        <time>2020-10-31T10:40:48.000Z</time>
      </trkpt>
      <trkpt lat="49.73839" lon="4.84394">
        <ele>186</ele>
        <time>2020-10-31T10:40:49.000Z</time>
      </trkpt>
      <trkpt lat="49.7384" lon="4.84391">
        <ele>186</ele>
        <time>2020-10-31T10:40:50.000Z</time>
      </trkpt>
      <trkpt lat="49.73841" lon="4.84388">
        <ele>186</ele>
        <time>2020-10-31T10:40:51.000Z</time>
      </trkpt>
      <trkpt lat="49.73842" lon="4.84385">
        <ele>187</ele>
        <time>2020-10-31T10:40:52.000Z</time>
      </trkpt>
      <trkpt lat="49.73844" lon="4.84382">
        <ele>187</ele>
        <time>2020-10-31T10:40:53.000Z</time>
      </trkpt>
      <trkpt lat="49.73845" lon="4.8438">
        <ele>187</ele>
        <time>2020-10-31T10:40:54.000Z</time>
      </trkpt>
      <trkpt lat="49.73847" lon="4.84377">
        <ele>187</ele>
        <time>2020-10-31T10:40:55.000Z</time>
      </trkpt>
      <trkpt lat="49.73849" lon="4.84376">
        <ele>187</ele>
        <time>2020-10-31T10:40:56.000Z</time>
      </trkpt>
      <trkpt lat="49.73851" lon="4.84374">
        <ele>187</ele>
        <time>2020-10-31T10:40:57.000Z</time>
      </trkpt>
      <trkpt lat="49.73853" lon="4.84371">
        <ele>188</ele>
        <time>2020-10-31T10:40:58.000Z</time>
      </trkpt>
      <trkpt lat="49.73855" lon="4.84369">
        <ele>188</ele>
        <time>2020-10-31T10:40:59.000Z</time>
      </trkpt>
      <trkpt lat="49.73857" lon="4.84367">
        <ele>188</ele>
        <time>2020-10-31T10:41:00.000Z</time>
      </trkpt>
      <trkpt lat="49.73858" lon="4.84364">
        <ele>188</ele>
        <time>2020-10-31T10:41:01.000Z</time>
      </trkpt>
      <trkpt lat="49.73859" lon="4.84362">
        <ele>188</ele>
        <time>2020-10-31T10:41:02.000Z</time>
      </trkpt>
      <trkpt lat="49.73861" lon="4.8436">
        <ele>189</ele>
        <time>2020-10-31T10:41:03.000Z</time>
      </trkpt>
      <trkpt lat="49.73862" lon="4.84358">
        <ele>189</ele>
        <time>2020-10-31T10:41:04.000Z</time>
      </trkpt>
      <trkpt lat="49.73863" lon="4.84356">
        <ele>189</ele>
        <time>2020-10-31T10:41:05.000Z</time>
      </trkpt>
      <trkpt lat="49.73864" lon="4.84355">
        <ele>190</ele>
        <time>2020-10-31T10:41:06.000Z</time>
      </trkpt>
      <trkpt lat="49.73866" lon="4.84353">
        <ele>190</ele>
        <time>2020-10-31T10:41:07.000Z</time>
      </trkpt>
      <trkpt lat="49.73867" lon="4.84351">
        <ele>190</ele>
        <time>2020-10-31T10:41:08.000Z</time>
      </trkpt>
      <trkpt lat="49.73868" lon="4.84348">
        <ele>190</ele>
        <time>2020-10-31T10:41:09.000Z</time>
      </trkpt>
      <trkpt lat="49.73869" lon="4.84346">
        <ele>191</ele>
        <time>2020-10-31T10:41:10.000Z</time>
      </trkpt>
      <trkpt lat="49.7387" lon="4.84345">
        <ele>191</ele>
        <time>2020-10-31T10:41:11.000Z</time>
      </trkpt>
      <trkpt lat="49.73871" lon="4.84343">
        <ele>191</ele>
        <time>2020-10-31T10:41:12.000Z</time>
      </trkpt>
      <trkpt lat="49.73872" lon="4.84341">
        <ele>191</ele>
        <time>2020-10-31T10:41:13.000Z</time>
      </trkpt>
      <trkpt lat="49.73874" lon="4.84339">
        <ele>191</ele>
        <time>2020-10-31T10:41:14.000Z</time>
      </trkpt>
      <trkpt lat="49.73876" lon="4.84336">
        <ele>191</ele>
        <time>2020-10-31T10:41:15.000Z</time>
      </trkpt>
      <trkpt lat="49.73877" lon="4.84334">
        <ele>191</ele>
        <time>2020-10-31T10:41:16.000Z</time>
      </trkpt>
      <trkpt lat="49.73878" lon="4.84332">
        <ele>192</ele>
        <time>2020-10-31T10:41:17.000Z</time>
      </trkpt>
      <trkpt lat="49.7388" lon="4.84329">
        <ele>192</ele>
        <time>2020-10-31T10:41:18.000Z</time>
      </trkpt>
      <trkpt lat="49.73882" lon="4.84327">
        <ele>192</ele>
        <time>2020-10-31T10:41:19.000Z</time>
      </trkpt>
      <trkpt lat="49.73883" lon="4.84325">
        <ele>192</ele>
        <time>2020-10-31T10:41:20.000Z</time>
      </trkpt>
      <trkpt lat="49.73885" lon="4.84323">
        <ele>192</ele>
        <time>2020-10-31T10:41:21.000Z</time>
      </trkpt>
      <trkpt lat="49.73886" lon="4.8432">
        <ele>192</ele>
        <time>2020-10-31T10:41:22.000Z</time>
      </trkpt>
      <trkpt lat="49.73887" lon="4.84319">
        <ele>192</ele>
        <time>2020-10-31T10:41:23.000Z</time>
      </trkpt>
      <trkpt lat="49.73888" lon="4.84317">
        <ele>193</ele>
        <time>2020-10-31T10:41:24.000Z</time>
      </trkpt>
      <trkpt lat="49.73889" lon="4.84315">
        <ele>193</ele>
        <time>2020-10-31T10:41:25.000Z</time>
      </trkpt>
      <trkpt lat="49.73891" lon="4.84313">
        <ele>193</ele>
        <time>2020-10-31T10:41:26.000Z</time>
      </trkpt>
      <trkpt lat="49.73892" lon="4.84311">
        <ele>193</ele>
        <time>2020-10-31T10:41:27.000Z</time>
      </trkpt>
      <trkpt lat="49.73893" lon="4.84309">
        <ele>193</ele>
        <time>2020-10-31T10:41:28.000Z</time>
      </trkpt>
      <trkpt lat="49.73893" lon="4.84307">
        <ele>194</ele>
        <time>2020-10-31T10:41:29.000Z</time>
      </trkpt>
      <trkpt lat="49.73894" lon="4.84305">
        <ele>194</ele>
        <time>2020-10-31T10:41:30.000Z</time>
      </trkpt>
      <trkpt lat="49.73895" lon="4.84304">
        <ele>194</ele>
        <time>2020-10-31T10:41:31.000Z</time>
      </trkpt>
      <trkpt lat="49.73897" lon="4.84302">
        <ele>194</ele>
        <time>2020-10-31T10:41:32.000Z</time>
      </trkpt>
      <trkpt lat="49.73897" lon="4.843">
        <ele>194</ele>
        <time>2020-10-31T10:41:33.000Z</time>
      </trkpt>
      <trkpt lat="49.73898" lon="4.84298">
        <ele>195</ele>
        <time>2020-10-31T10:41:34.000Z</time>
      </trkpt>
      <trkpt lat="49.73899" lon="4.84297">
        <ele>195</ele>
        <time>2020-10-31T10:41:35.000Z</time>
      </trkpt>
      <trkpt lat="49.739" lon="4.84295">
        <ele>195</ele>
        <time>2020-10-31T10:41:36.000Z</time>
      </trkpt>
      <trkpt lat="49.73901" lon="4.84293">
        <ele>195</ele>
        <time>2020-10-31T10:41:37.000Z</time>
      </trkpt>
      <trkpt lat="49.73902" lon="4.84291">
        <ele>196</ele>
        <time>2020-10-31T10:41:38.000Z</time>
      </trkpt>
      <trkpt lat="49.73902" lon="4.8429">
        <ele>196</ele>
        <time>2020-10-31T10:41:39.000Z</time>
      </trkpt>
      <trkpt lat="49.73903" lon="4.84289">
        <ele>196</ele>
        <time>2020-10-31T10:41:40.000Z</time>
      </trkpt>
      <trkpt lat="49.73903" lon="4.84287">
        <ele>196</ele>
        <time>2020-10-31T10:41:41.000Z</time>
      </trkpt>
      <trkpt lat="49.73904" lon="4.84285">
        <ele>197</ele>
        <time>2020-10-31T10:41:42.000Z</time>
      </trkpt>
      <trkpt lat="49.73904" lon="4.84284">
        <ele>197</ele>
        <time>2020-10-31T10:41:43.000Z</time>
      </trkpt>
      <trkpt lat="49.73905" lon="4.84282">
        <ele>197</ele>
        <time>2020-10-31T10:41:44.000Z</time>
      </trkpt>
      <trkpt lat="49.73906" lon="4.84281">
        <ele>198</ele>
        <time>2020-10-31T10:41:45.000Z</time>
      </trkpt>
      <trkpt lat="49.73907" lon="4.84279">
        <ele>198</ele>
        <time>2020-10-31T10:41:46.000Z</time>
      </trkpt>
      <trkpt lat="49.73908" lon="4.84278">
        <ele>199</ele>
        <time>2020-10-31T10:41:47.000Z</time>
      </trkpt>
      <trkpt lat="49.73909" lon="4.84277">
        <ele>199</ele>
        <time>2020-10-31T10:41:48.000Z</time>
      </trkpt>
      <trkpt lat="49.73909" lon="4.84276">
        <ele>199</ele>
        <time>2020-10-31T10:41:49.000Z</time>
      </trkpt>
      <trkpt lat="49.7391" lon="4.84274">
        <ele>199</ele>
        <time>2020-10-31T10:41:50.000Z</time>
      </trkpt>
      <trkpt lat="49.73911" lon="4.84273">
        <ele>200</ele>
        <time>2020-10-31T10:41:51.000Z</time>
      </trkpt>
      <trkpt lat="49.73912" lon="4.84272">
        <ele>200</ele>
        <time>2020-10-31T10:41:52.000Z</time>
      </trkpt>
      <trkpt lat="49.73914" lon="4.84271">
        <ele>200</ele>
        <time>2020-10-31T10:41:53.000Z</time>
      </trkpt>
      <trkpt lat="49.73914" lon="4.8427">
        <ele>201</ele>
        <time>2020-10-31T10:41:54.000Z</time>
      </trkpt>
      <trkpt lat="49.73916" lon="4.84269">
        <ele>201</ele>
        <time>2020-10-31T10:41:55.000Z</time>
      </trkpt>
      <trkpt lat="49.73917" lon="4.84269">
        <ele>201</ele>
        <time>2020-10-31T10:41:56.000Z</time>
      </trkpt>
      <trkpt lat="49.73918" lon="4.84268">
        <ele>201</ele>
        <time>2020-10-31T10:41:57.000Z</time>
      </trkpt>
      <trkpt lat="49.73919" lon="4.84268">
        <ele>202</ele>
        <time>2020-10-31T10:41:58.000Z</time>
      </trkpt>
      <trkpt lat="49.7392" lon="4.84268">
        <ele>202</ele>
        <time>2020-10-31T10:41:59.000Z</time>
      </trkpt>
      <trkpt lat="49.73921" lon="4.84268">
        <ele>202</ele>
        <time>2020-10-31T10:42:00.000Z</time>
      </trkpt>
      <trkpt lat="49.73922" lon="4.84267">
        <ele>202</ele>
        <time>2020-10-31T10:42:01.000Z</time>
      </trkpt>
      <trkpt lat="49.73923" lon="4.84266">
        <ele>203</ele>
        <time>2020-10-31T10:42:02.000Z</time>
      </trkpt>
      <trkpt lat="49.73925" lon="4.84266">
        <ele>203</ele>
        <time>2020-10-31T10:42:03.000Z</time>
      </trkpt>
      <trkpt lat="49.73926" lon="4.84265">
        <ele>203</ele>
        <time>2020-10-31T10:42:04.000Z</time>
      </trkpt>
      <trkpt lat="49.73927" lon="4.84265">
        <ele>204</ele>
        <time>2020-10-31T10:42:05.000Z</time>
      </trkpt>
      <trkpt lat="49.73929" lon="4.84264">
        <ele>204</ele>
        <time>2020-10-31T10:42:06.000Z</time>
      </trkpt>
      <trkpt lat="49.7393" lon="4.84263">
        <ele>204</ele>
        <time>2020-10-31T10:42:07.000Z</time>
      </trkpt>
      <trkpt lat="49.73931" lon="4.84263">
        <ele>204</ele>
        <time>2020-10-31T10:42:08.000Z</time>
      </trkpt>
      <trkpt lat="49.73932" lon="4.84263">
        <ele>205</ele>
        <time>2020-10-31T10:42:09.000Z</time>
      </trkpt>
      <trkpt lat="49.73933" lon="4.84262">
        <ele>205</ele>
        <time>2020-10-31T10:42:10.000Z</time>
      </trkpt>
      <trkpt lat="49.73934" lon="4.84261">
        <ele>205</ele>
        <time>2020-10-31T10:42:11.000Z</time>
      </trkpt>
      <trkpt lat="49.73935" lon="4.8426">
        <ele>205</ele>
        <time>2020-10-31T10:42:12.000Z</time>
      </trkpt>
      <trkpt lat="49.73936" lon="4.84259">
        <ele>206</ele>
        <time>2020-10-31T10:42:13.000Z</time>
      </trkpt>
      <trkpt lat="49.73937" lon="4.84258">
        <ele>206</ele>
        <time>2020-10-31T10:42:14.000Z</time>
      </trkpt>
      <trkpt lat="49.73938" lon="4.84257">
        <ele>206</ele>
        <time>2020-10-31T10:42:15.000Z</time>
      </trkpt>
      <trkpt lat="49.7394" lon="4.84256">
        <ele>206</ele>
        <time>2020-10-31T10:42:16.000Z</time>
      </trkpt>
      <trkpt lat="49.73941" lon="4.84255">
        <ele>207</ele>
        <time>2020-10-31T10:42:17.000Z</time>
      </trkpt>
      <trkpt lat="49.73942" lon="4.84255">
        <ele>207</ele>
        <time>2020-10-31T10:42:18.000Z</time>
      </trkpt>
      <trkpt lat="49.73942" lon="4.84253">
        <ele>207</ele>
        <time>2020-10-31T10:42:19.000Z</time>
      </trkpt>
      <trkpt lat="49.73943" lon="4.84252">
        <ele>207</ele>
        <time>2020-10-31T10:42:20.000Z</time>
      </trkpt>
      <trkpt lat="49.73944" lon="4.84251">
        <ele>208</ele>
        <time>2020-10-31T10:42:21.000Z</time>
      </trkpt>
      <trkpt lat="49.73945" lon="4.84249">
        <ele>208</ele>
        <time>2020-10-31T10:42:22.000Z</time>
      </trkpt>
      <trkpt lat="49.73946" lon="4.84248">
        <ele>208</ele>
        <time>2020-10-31T10:42:23.000Z</time>
      </trkpt>
      <trkpt lat="49.73947" lon="4.84246">
        <ele>208</ele>
        <time>2020-10-31T10:42:24.000Z</time>
      </trkpt>
      <trkpt lat="49.73948" lon="4.84245">
        <ele>209</ele>
        <time>2020-10-31T10:42:25.000Z</time>
      </trkpt>
      <trkpt lat="49.73949" lon="4.84243">
        <ele>209</ele>
        <time>2020-10-31T10:42:26.000Z</time>
      </trkpt>
      <trkpt lat="49.7395" lon="4.84242">
        <ele>209</ele>
        <time>2020-10-31T10:42:27.000Z</time>
      </trkpt>
      <trkpt lat="49.73951" lon="4.8424">
        <ele>210</ele>
        <time>2020-10-31T10:42:28.000Z</time>
      </trkpt>
      <trkpt lat="49.73952" lon="4.8424">
        <ele>210</ele>
        <time>2020-10-31T10:42:29.000Z</time>
      </trkpt>
      <trkpt lat="49.73952" lon="4.84238">
        <ele>210</ele>
        <time>2020-10-31T10:42:30.000Z</time>
      </trkpt>
      <trkpt lat="49.73953" lon="4.84236">
        <ele>211</ele>
        <time>2020-10-31T10:42:31.000Z</time>
      </trkpt>
      <trkpt lat="49.73953" lon="4.84234">
        <ele>211</ele>
        <time>2020-10-31T10:42:32.000Z</time>
      </trkpt>
      <trkpt lat="49.73953" lon="4.84233">
        <ele>211</ele>
        <time>2020-10-31T10:42:33.000Z</time>
      </trkpt>
      <trkpt lat="49.73954" lon="4.84231">
        <ele>212</ele>
        <time>2020-10-31T10:42:34.000Z</time>
      </trkpt>
      <trkpt lat="49.73955" lon="4.84229">
        <ele>212</ele>
        <time>2020-10-31T10:42:35.000Z</time>
      </trkpt>
      <trkpt lat="49.73955" lon="4.84227">
        <ele>212</ele>
        <time>2020-10-31T10:42:36.000Z</time>
      </trkpt>
      <trkpt lat="49.73955" lon="4.84225">
        <ele>212</ele>
        <time>2020-10-31T10:42:37.000Z</time>
      </trkpt>
      <trkpt lat="49.73956" lon="4.84222">
        <ele>212</ele>
        <time>2020-10-31T10:42:38.000Z</time>
      </trkpt>
      <trkpt lat="49.73956" lon="4.84221">
        <ele>213</ele>
        <time>2020-10-31T10:42:39.000Z</time>
      </trkpt>
      <trkpt lat="49.73956" lon="4.84219">
        <ele>213</ele>
        <time>2020-10-31T10:42:40.000Z</time>
      </trkpt>
      <trkpt lat="49.73957" lon="4.84216">
        <ele>213</ele>
        <time>2020-10-31T10:42:41.000Z</time>
      </trkpt>
      <trkpt lat="49.73957" lon="4.84214">
        <ele>213</ele>
        <time>2020-10-31T10:42:42.000Z</time>
      </trkpt>
      <trkpt lat="49.73958" lon="4.84212">
        <ele>213</ele>
        <time>2020-10-31T10:42:43.000Z</time>
      </trkpt>
      <trkpt lat="49.73958" lon="4.8421">
        <ele>214</ele>
        <time>2020-10-31T10:42:44.000Z</time>
      </trkpt>
      <trkpt lat="49.73959" lon="4.84208">
        <ele>214</ele>
        <time>2020-10-31T10:42:45.000Z</time>
      </trkpt>
      <trkpt lat="49.73959" lon="4.84206">
        <ele>214</ele>
        <time>2020-10-31T10:42:46.000Z</time>
      </trkpt>
      <trkpt lat="49.7396" lon="4.84204">
        <ele>214</ele>
        <time>2020-10-31T10:42:47.000Z</time>
      </trkpt>
      <trkpt lat="49.7396" lon="4.84202">
        <ele>214</ele>
        <time>2020-10-31T10:42:48.000Z</time>
      </trkpt>
      <trkpt lat="49.73961" lon="4.84199">
        <ele>214</ele>
        <time>2020-10-31T10:42:49.000Z</time>
      </trkpt>
      <trkpt lat="49.73961" lon="4.84196">
        <ele>214</ele>
        <time>2020-10-31T10:42:50.000Z</time>
      </trkpt>
      <trkpt lat="49.73962" lon="4.84194">
        <ele>214</ele>
        <time>2020-10-31T10:42:51.000Z</time>
      </trkpt>
      <trkpt lat="49.73962" lon="4.84192">
        <ele>215</ele>
        <time>2020-10-31T10:42:52.000Z</time>
      </trkpt>
      <trkpt lat="49.73963" lon="4.84189">
        <ele>215</ele>
        <time>2020-10-31T10:42:53.000Z</time>
      </trkpt>
      <trkpt lat="49.73963" lon="4.84186">
        <ele>215</ele>
        <time>2020-10-31T10:42:54.000Z</time>
      </trkpt>
      <trkpt lat="49.73964" lon="4.84184">
        <ele>215</ele>
        <time>2020-10-31T10:42:55.000Z</time>
      </trkpt>
      <trkpt lat="49.73964" lon="4.84181">
        <ele>215</ele>
        <time>2020-10-31T10:42:56.000Z</time>
      </trkpt>
      <trkpt lat="49.73965" lon="4.84178">
        <ele>215</ele>
        <time>2020-10-31T10:42:57.000Z</time>
      </trkpt>
      <trkpt lat="49.73965" lon="4.84175">
        <ele>215</ele>
        <time>2020-10-31T10:42:58.000Z</time>
      </trkpt>
      <trkpt lat="49.73966" lon="4.84173">
        <ele>215</ele>
        <time>2020-10-31T10:42:59.000Z</time>
      </trkpt>
      <trkpt lat="49.73966" lon="4.8417">
        <ele>215</ele>
        <time>2020-10-31T10:43:00.000Z</time>
      </trkpt>
      <trkpt lat="49.73967" lon="4.84167">
        <ele>215</ele>
        <time>2020-10-31T10:43:01.000Z</time>
      </trkpt>
      <trkpt lat="49.73968" lon="4.84164">
        <ele>215</ele>
        <time>2020-10-31T10:43:02.000Z</time>
      </trkpt>
      <trkpt lat="49.73968" lon="4.84161">
        <ele>216</ele>
        <time>2020-10-31T10:43:03.000Z</time>
      </trkpt>
      <trkpt lat="49.73969" lon="4.84157">
        <ele>216</ele>
        <time>2020-10-31T10:43:04.000Z</time>
      </trkpt>
      <trkpt lat="49.7397" lon="4.84154">
        <ele>216</ele>
        <time>2020-10-31T10:43:05.000Z</time>
      </trkpt>
      <trkpt lat="49.73971" lon="4.84152">
        <ele>216</ele>
        <time>2020-10-31T10:43:06.000Z</time>
      </trkpt>
      <trkpt lat="49.73972" lon="4.8415">
        <ele>216</ele>
        <time>2020-10-31T10:43:07.000Z</time>
      </trkpt>
      <trkpt lat="49.73973" lon="4.84151">
        <ele>216</ele>
        <time>2020-10-31T10:43:08.000Z</time>
      </trkpt>
      <trkpt lat="49.73975" lon="4.84152">
        <ele>217</ele>
        <time>2020-10-31T10:43:09.000Z</time>
      </trkpt>
      <trkpt lat="49.73977" lon="4.84154">
        <ele>217</ele>
        <time>2020-10-31T10:43:10.000Z</time>
      </trkpt>
      <trkpt lat="49.73979" lon="4.84155">
        <ele>217</ele>
        <time>2020-10-31T10:43:11.000Z</time>
      </trkpt>
      <trkpt lat="49.73981" lon="4.84157">
        <ele>217</ele>
        <time>2020-10-31T10:43:12.000Z</time>
      </trkpt>
      <trkpt lat="49.73983" lon="4.8416">
        <ele>217</ele>
        <time>2020-10-31T10:43:13.000Z</time>
      </trkpt>
      <trkpt lat="49.73986" lon="4.84161">
        <ele>217</ele>
        <time>2020-10-31T10:43:14.000Z</time>
      </trkpt>
      <trkpt lat="49.73988" lon="4.84163">
        <ele>217</ele>
        <time>2020-10-31T10:43:15.000Z</time>
      </trkpt>
      <trkpt lat="49.7399" lon="4.84164">
        <ele>218</ele>
        <time>2020-10-31T10:43:16.000Z</time>
      </trkpt>
      <trkpt lat="49.73992" lon="4.84165">
        <ele>218</ele>
        <time>2020-10-31T10:43:17.000Z</time>
      </trkpt>
      <trkpt lat="49.73994" lon="4.84166">
        <ele>218</ele>
        <time>2020-10-31T10:43:18.000Z</time>
      </trkpt>
      <trkpt lat="49.73996" lon="4.84167">
        <ele>218</ele>
        <time>2020-10-31T10:43:19.000Z</time>
      </trkpt>
      <trkpt lat="49.73999" lon="4.84168">
        <ele>218</ele>
        <time>2020-10-31T10:43:20.000Z</time>
      </trkpt>
      <trkpt lat="49.74002" lon="4.84169">
        <ele>219</ele>
        <time>2020-10-31T10:43:21.000Z</time>
      </trkpt>
      <trkpt lat="49.74004" lon="4.84171">
        <ele>219</ele>
        <time>2020-10-31T10:43:22.000Z</time>
      </trkpt>
      <trkpt lat="49.74007" lon="4.84172">
        <ele>219</ele>
        <time>2020-10-31T10:43:23.000Z</time>
      </trkpt>
      <trkpt lat="49.7401" lon="4.84174">
        <ele>219</ele>
        <time>2020-10-31T10:43:24.000Z</time>
      </trkpt>
      <trkpt lat="49.74013" lon="4.84176">
        <ele>219</ele>
        <time>2020-10-31T10:43:25.000Z</time>
      </trkpt>
      <trkpt lat="49.74016" lon="4.84177">
        <ele>220</ele>
        <time>2020-10-31T10:43:26.000Z</time>
      </trkpt>
      <trkpt lat="49.7402" lon="4.84179">
        <ele>220</ele>
        <time>2020-10-31T10:43:27.000Z</time>
      </trkpt>
      <trkpt lat="49.74023" lon="4.84181">
        <ele>220</ele>
        <time>2020-10-31T10:43:28.000Z</time>
      </trkpt>
      <trkpt lat="49.74025" lon="4.84182">
        <ele>220</ele>
        <time>2020-10-31T10:43:29.000Z</time>
      </trkpt>
      <trkpt lat="49.74028" lon="4.84184">
        <ele>220</ele>
        <time>2020-10-31T10:43:30.000Z</time>
      </trkpt>
      <trkpt lat="49.7403" lon="4.84184">
        <ele>220</ele>
        <time>2020-10-31T10:43:31.000Z</time>
      </trkpt>
      <trkpt lat="49.74033" lon="4.84185">
        <ele>221</ele>
        <time>2020-10-31T10:43:32.000Z</time>
      </trkpt>
      <trkpt lat="49.74036" lon="4.84186">
        <ele>221</ele>
        <time>2020-10-31T10:43:33.000Z</time>
      </trkpt>
      <trkpt lat="49.74039" lon="4.84187">
        <ele>221</ele>
        <time>2020-10-31T10:43:34.000Z</time>
      </trkpt>
      <trkpt lat="49.74043" lon="4.84188">
        <ele>221</ele>
        <time>2020-10-31T10:43:35.000Z</time>
      </trkpt>
      <trkpt lat="49.74046" lon="4.84189">
        <ele>221</ele>
        <time>2020-10-31T10:43:36.000Z</time>
      </trkpt>
      <trkpt lat="49.74049" lon="4.84191">
        <ele>221</ele>
        <time>2020-10-31T10:43:37.000Z</time>
      </trkpt>
      <trkpt lat="49.74052" lon="4.84193">
        <ele>221</ele>
        <time>2020-10-31T10:43:38.000Z</time>
      </trkpt>
      <trkpt lat="49.74055" lon="4.84195">
        <ele>222</ele>
        <time>2020-10-31T10:43:39.000Z</time>
      </trkpt>
      <trkpt lat="49.74058" lon="4.84195">
        <ele>222</ele>
        <time>2020-10-31T10:43:40.000Z</time>
      </trkpt>
      <trkpt lat="49.7406" lon="4.84196">
        <ele>222</ele>
        <time>2020-10-31T10:43:41.000Z</time>
      </trkpt>
      <trkpt lat="49.74063" lon="4.84197">
        <ele>222</ele>
        <time>2020-10-31T10:43:42.000Z</time>
      </trkpt>
      <trkpt lat="49.74066" lon="4.84198">
        <ele>222</ele>
        <time>2020-10-31T10:43:43.000Z</time>
      </trkpt>
      <trkpt lat="49.74068" lon="4.842">
        <ele>222</ele>
        <time>2020-10-31T10:43:44.000Z</time>
      </trkpt>
      <trkpt lat="49.74071" lon="4.84201">
        <ele>223</ele>
        <time>2020-10-31T10:43:45.000Z</time>
      </trkpt>
      <trkpt lat="49.74073" lon="4.84203">
        <ele>223</ele>
        <time>2020-10-31T10:43:46.000Z</time>
      </trkpt>
      <trkpt lat="49.74075" lon="4.84204">
        <ele>223</ele>
        <time>2020-10-31T10:43:47.000Z</time>
      </trkpt>
      <trkpt lat="49.74077" lon="4.84206">
        <ele>223</ele>
        <time>2020-10-31T10:43:48.000Z</time>
      </trkpt>
      <trkpt lat="49.74079" lon="4.84208">
        <ele>223</ele>
        <time>2020-10-31T10:43:49.000Z</time>
      </trkpt>
      <trkpt lat="49.74081" lon="4.84209">
        <ele>223</ele>
        <time>2020-10-31T10:43:50.000Z</time>
      </trkpt>
      <trkpt lat="49.74083" lon="4.84209">
        <ele>224</ele>
        <time>2020-10-31T10:43:51.000Z</time>
      </trkpt>
      <trkpt lat="49.74085" lon="4.8421">
        <ele>224</ele>
        <time>2020-10-31T10:43:52.000Z</time>
      </trkpt>
      <trkpt lat="49.74088" lon="4.8421">
        <ele>224</ele>
        <time>2020-10-31T10:43:53.000Z</time>
      </trkpt>
      <trkpt lat="49.74091" lon="4.84212">
        <ele>224</ele>
        <time>2020-10-31T10:43:54.000Z</time>
      </trkpt>
      <trkpt lat="49.74094" lon="4.84214">
        <ele>224</ele>
        <time>2020-10-31T10:43:55.000Z</time>
      </trkpt>
      <trkpt lat="49.74097" lon="4.84216">
        <ele>224</ele>
        <time>2020-10-31T10:43:56.000Z</time>
      </trkpt>
      <trkpt lat="49.741" lon="4.84217">
        <ele>224</ele>
        <time>2020-10-31T10:43:57.000Z</time>
      </trkpt>
      <trkpt lat="49.74103" lon="4.84218">
        <ele>224</ele>
        <time>2020-10-31T10:43:58.000Z</time>
      </trkpt>
      <trkpt lat="49.74106" lon="4.84219">
        <ele>224</ele>
        <time>2020-10-31T10:43:59.000Z</time>
      </trkpt>
      <trkpt lat="49.74109" lon="4.8422">
        <ele>225</ele>
        <time>2020-10-31T10:44:00.000Z</time>
      </trkpt>
      <trkpt lat="49.74111" lon="4.84222">
        <ele>225</ele>
        <time>2020-10-31T10:44:01.000Z</time>
      </trkpt>
      <trkpt lat="49.74114" lon="4.84223">
        <ele>225</ele>
        <time>2020-10-31T10:44:02.000Z</time>
      </trkpt>
      <trkpt lat="49.74117" lon="4.84225">
        <ele>225</ele>
        <time>2020-10-31T10:44:03.000Z</time>
      </trkpt>
      <trkpt lat="49.74119" lon="4.84228">
        <ele>225</ele>
        <time>2020-10-31T10:44:04.000Z</time>
      </trkpt>
      <trkpt lat="49.74122" lon="4.8423">
        <ele>225</ele>
        <time>2020-10-31T10:44:05.000Z</time>
      </trkpt>
      <trkpt lat="49.74125" lon="4.84233">
        <ele>226</ele>
        <time>2020-10-31T10:44:06.000Z</time>
      </trkpt>
      <trkpt lat="49.74128" lon="4.84235">
        <ele>226</ele>
        <time>2020-10-31T10:44:07.000Z</time>
      </trkpt>
      <trkpt lat="49.7413" lon="4.84238">
        <ele>226</ele>
        <time>2020-10-31T10:44:08.000Z</time>
      </trkpt>
      <trkpt lat="49.74134" lon="4.84241">
        <ele>226</ele>
        <time>2020-10-31T10:44:09.000Z</time>
      </trkpt>
      <trkpt lat="49.74137" lon="4.84243">
        <ele>226</ele>
        <time>2020-10-31T10:44:10.000Z</time>
      </trkpt>
      <trkpt lat="49.74141" lon="4.84245">
        <ele>226</ele>
        <time>2020-10-31T10:44:11.000Z</time>
      </trkpt>
      <trkpt lat="49.74143" lon="4.84247">
        <ele>226</ele>
        <time>2020-10-31T10:44:12.000Z</time>
      </trkpt>
      <trkpt lat="49.74145" lon="4.84249">
        <ele>227</ele>
        <time>2020-10-31T10:44:13.000Z</time>
      </trkpt>
      <trkpt lat="49.74146" lon="4.8425">
        <ele>227</ele>
        <time>2020-10-31T10:44:14.000Z</time>
      </trkpt>
      <trkpt lat="49.74149" lon="4.84251">
        <ele>227</ele>
        <time>2020-10-31T10:44:15.000Z</time>
      </trkpt>
      <trkpt lat="49.74151" lon="4.84252">
        <ele>227</ele>
        <time>2020-10-31T10:44:16.000Z</time>
      </trkpt>
      <trkpt lat="49.74153" lon="4.84253">
        <ele>228</ele>
        <time>2020-10-31T10:44:17.000Z</time>
      </trkpt>
      <trkpt lat="49.74156" lon="4.84255">
        <ele>228</ele>
        <time>2020-10-31T10:44:18.000Z</time>
      </trkpt>
      <trkpt lat="49.74159" lon="4.84256">
        <ele>228</ele>
        <time>2020-10-31T10:44:19.000Z</time>
      </trkpt>
      <trkpt lat="49.74161" lon="4.84257">
        <ele>228</ele>
        <time>2020-10-31T10:44:20.000Z</time>
      </trkpt>
      <trkpt lat="49.74164" lon="4.84258">
        <ele>229</ele>
        <time>2020-10-31T10:44:21.000Z</time>
      </trkpt>
      <trkpt lat="49.74167" lon="4.8426">
        <ele>229</ele>
        <time>2020-10-31T10:44:22.000Z</time>
      </trkpt>
      <trkpt lat="49.7417" lon="4.84262">
        <ele>229</ele>
        <time>2020-10-31T10:44:23.000Z</time>
      </trkpt>
      <trkpt lat="49.74173" lon="4.84264">
        <ele>229</ele>
        <time>2020-10-31T10:44:24.000Z</time>
      </trkpt>
      <trkpt lat="49.74176" lon="4.84267">
        <ele>229</ele>
        <time>2020-10-31T10:44:25.000Z</time>
      </trkpt>
      <trkpt lat="49.74179" lon="4.8427">
        <ele>230</ele>
        <time>2020-10-31T10:44:26.000Z</time>
      </trkpt>
      <trkpt lat="49.74181" lon="4.84273">
        <ele>230</ele>
        <time>2020-10-31T10:44:27.000Z</time>
      </trkpt>
      <trkpt lat="49.74182" lon="4.84277">
        <ele>230</ele>
        <time>2020-10-31T10:44:28.000Z</time>
      </trkpt>
      <trkpt lat="49.74183" lon="4.84282">
        <ele>230</ele>
        <time>2020-10-31T10:44:29.000Z</time>
      </trkpt>
      <trkpt lat="49.74184" lon="4.84286">
        <ele>230</ele>
        <time>2020-10-31T10:44:30.000Z</time>
      </trkpt>
      <trkpt lat="49.74185" lon="4.8429">
        <ele>230</ele>
        <time>2020-10-31T10:44:31.000Z</time>
      </trkpt>
      <trkpt lat="49.74185" lon="4.84291">
        <ele>230</ele>
        <time>2020-10-31T10:44:32.000Z</time>
      </trkpt>
      <trkpt lat="49.74186" lon="4.84292">
        <ele>230</ele>
        <time>2020-10-31T10:44:33.000Z</time>
      </trkpt>
      <trkpt lat="49.74187" lon="4.84293">
        <ele>230</ele>
        <time>2020-10-31T10:44:34.000Z</time>
      </trkpt>
      <trkpt lat="49.74189" lon="4.84295">
        <ele>230</ele>
        <time>2020-10-31T10:44:35.000Z</time>
      </trkpt>
      <trkpt lat="49.7419" lon="4.84298">
        <ele>230</ele>
        <time>2020-10-31T10:44:36.000Z</time>
      </trkpt>
      <trkpt lat="49.74192" lon="4.84299">
        <ele>231</ele>
        <time>2020-10-31T10:44:37.000Z</time>
      </trkpt>
      <trkpt lat="49.74194" lon="4.843">
        <ele>231</ele>
        <time>2020-10-31T10:44:38.000Z</time>
      </trkpt>
      <trkpt lat="49.74196" lon="4.84301">
        <ele>231</ele>
        <time>2020-10-31T10:44:39.000Z</time>
      </trkpt>
      <trkpt lat="49.74197" lon="4.84303">
        <ele>231</ele>
        <time>2020-10-31T10:44:40.000Z</time>
      </trkpt>
      <trkpt lat="49.74199" lon="4.84304">
        <ele>230</ele>
        <time>2020-10-31T10:44:41.000Z</time>
      </trkpt>
      <trkpt lat="49.74201" lon="4.84304">
        <ele>230</ele>
        <time>2020-10-31T10:44:42.000Z</time>
      </trkpt>
      <trkpt lat="49.74204" lon="4.84305">
        <ele>231</ele>
        <time>2020-10-31T10:44:43.000Z</time>
      </trkpt>
      <trkpt lat="49.74206" lon="4.84306">
        <ele>230</ele>
        <time>2020-10-31T10:44:44.000Z</time>
      </trkpt>
      <trkpt lat="49.74208" lon="4.84308">
        <ele>230</ele>
        <time>2020-10-31T10:44:45.000Z</time>
      </trkpt>
      <trkpt lat="49.74211" lon="4.84309">
        <ele>230</ele>
        <time>2020-10-31T10:44:46.000Z</time>
      </trkpt>
      <trkpt lat="49.74213" lon="4.84311">
        <ele>230</ele>
        <time>2020-10-31T10:44:47.000Z</time>
      </trkpt>
      <trkpt lat="49.74216" lon="4.84312">
        <ele>230</ele>
        <time>2020-10-31T10:44:48.000Z</time>
      </trkpt>
      <trkpt lat="49.74218" lon="4.84314">
        <ele>230</ele>
        <time>2020-10-31T10:44:49.000Z</time>
      </trkpt>
      <trkpt lat="49.74221" lon="4.84314">
        <ele>230</ele>
        <time>2020-10-31T10:44:50.000Z</time>
      </trkpt>
      <trkpt lat="49.74223" lon="4.84315">
        <ele>230</ele>
        <time>2020-10-31T10:44:51.000Z</time>
      </trkpt>
      <trkpt lat="49.74225" lon="4.84317">
        <ele>230</ele>
        <time>2020-10-31T10:44:52.000Z</time>
      </trkpt>
      <trkpt lat="49.74227" lon="4.84319">
        <ele>230</ele>
        <time>2020-10-31T10:44:53.000Z</time>
      </trkpt>
      <trkpt lat="49.74229" lon="4.84321">
        <ele>230</ele>
        <time>2020-10-31T10:44:54.000Z</time>
      </trkpt>
      <trkpt lat="49.74231" lon="4.84323">
        <ele>230</ele>
        <time>2020-10-31T10:44:55.000Z</time>
      </trkpt>
      <trkpt lat="49.74232" lon="4.84324">
        <ele>230</ele>
        <time>2020-10-31T10:44:56.000Z</time>
      </trkpt>
      <trkpt lat="49.74233" lon="4.84324">
        <ele>230</ele>
        <time>2020-10-31T10:44:57.000Z</time>
      </trkpt>
      <trkpt lat="49.74233" lon="4.84325">
        <ele>230</ele>
        <time>2020-10-31T10:44:58.000Z</time>
      </trkpt>
      <trkpt lat="49.74233" lon="4.84325">
        <ele>230</ele>
        <time>2020-10-31T10:44:59.000Z</time>
      </trkpt>
      <trkpt lat="49.74233" lon="4.84325">
        <ele>231</ele>
        <time>2020-10-31T10:45:00.000Z</time>
      </trkpt>
      <trkpt lat="49.74233" lon="4.84325">
        <ele>231</ele>
        <time>2020-10-31T10:45:01.000Z</time>
      </trkpt>
      <trkpt lat="49.74233" lon="4.84325">
        <ele>231</ele>
        <time>2020-10-31T10:45:02.000Z</time>
      </trkpt>
      <trkpt lat="49.74233" lon="4.84324">
        <ele>231</ele>
        <time>2020-10-31T10:45:03.000Z</time>
      </trkpt>
      <trkpt lat="49.74232" lon="4.84323">
        <ele>231</ele>
        <time>2020-10-31T10:45:04.000Z</time>
      </trkpt>
      <trkpt lat="49.74231" lon="4.84321">
        <ele>231</ele>
        <time>2020-10-31T10:45:05.000Z</time>
      </trkpt>
      <trkpt lat="49.74229" lon="4.8432">
        <ele>231</ele>
        <time>2020-10-31T10:45:06.000Z</time>
      </trkpt>
      <trkpt lat="49.74228" lon="4.8432">
        <ele>231</ele>
        <time>2020-10-31T10:45:07.000Z</time>
      </trkpt>
      <trkpt lat="49.74227" lon="4.84319">
        <ele>231</ele>
        <time>2020-10-31T10:45:08.000Z</time>
      </trkpt>
      <trkpt lat="49.74226" lon="4.84319">
        <ele>231</ele>
        <time>2020-10-31T10:45:09.000Z</time>
      </trkpt>
      <trkpt lat="49.74225" lon="4.84319">
        <ele>231</ele>
        <time>2020-10-31T10:45:10.000Z</time>
      </trkpt>
      <trkpt lat="49.74223" lon="4.84317">
        <ele>231</ele>
        <time>2020-10-31T10:45:11.000Z</time>
      </trkpt>
      <trkpt lat="49.74221" lon="4.84316">
        <ele>231</ele>
        <time>2020-10-31T10:45:12.000Z</time>
      </trkpt>
      <trkpt lat="49.7422" lon="4.84315">
        <ele>231</ele>
        <time>2020-10-31T10:45:13.000Z</time>
      </trkpt>
      <trkpt lat="49.74218" lon="4.84314">
        <ele>231</ele>
        <time>2020-10-31T10:45:14.000Z</time>
      </trkpt>
      <trkpt lat="49.74216" lon="4.84312">
        <ele>231</ele>
        <time>2020-10-31T10:45:15.000Z</time>
      </trkpt>
      <trkpt lat="49.74214" lon="4.8431">
        <ele>231</ele>
        <time>2020-10-31T10:45:16.000Z</time>
      </trkpt>
      <trkpt lat="49.74212" lon="4.84308">
        <ele>231</ele>
        <time>2020-10-31T10:45:17.000Z</time>
      </trkpt>
      <trkpt lat="49.7421" lon="4.84307">
        <ele>231</ele>
        <time>2020-10-31T10:45:18.000Z</time>
      </trkpt>
      <trkpt lat="49.74209" lon="4.84306">
        <ele>231</ele>
        <time>2020-10-31T10:45:19.000Z</time>
      </trkpt>
      <trkpt lat="49.74207" lon="4.84306">
        <ele>231</ele>
        <time>2020-10-31T10:45:20.000Z</time>
      </trkpt>
      <trkpt lat="49.74206" lon="4.84306">
        <ele>231</ele>
        <time>2020-10-31T10:45:21.000Z</time>
      </trkpt>
      <trkpt lat="49.74205" lon="4.84306">
        <ele>231</ele>
        <time>2020-10-31T10:45:22.000Z</time>
      </trkpt>
      <trkpt lat="49.74204" lon="4.84306">
        <ele>231</ele>
        <time>2020-10-31T10:45:23.000Z</time>
      </trkpt>
      <trkpt lat="49.74204" lon="4.84306">
        <ele>231</ele>
        <time>2020-10-31T10:45:24.000Z</time>
      </trkpt>
      <trkpt lat="49.74203" lon="4.84306">
        <ele>231</ele>
        <time>2020-10-31T10:45:25.000Z</time>
      </trkpt>
      <trkpt lat="49.74203" lon="4.84306">
        <ele>231</ele>
        <time>2020-10-31T10:45:26.000Z</time>
      </trkpt>
      <trkpt lat="49.74203" lon="4.84306">
        <ele>231</ele>
        <time>2020-10-31T10:45:27.000Z</time>
      </trkpt>
      <trkpt lat="49.74202" lon="4.84306">
        <ele>231</ele>
        <time>2020-10-31T10:45:28.000Z</time>
      </trkpt>
      <trkpt lat="49.74202" lon="4.84307">
        <ele>231</ele>
        <time>2020-10-31T10:45:29.000Z</time>
      </trkpt>
      <trkpt lat="49.74201" lon="4.84308">
        <ele>230</ele>
        <time>2020-10-31T10:45:30.000Z</time>
      </trkpt>
      <trkpt lat="49.742" lon="4.84311">
        <ele>230</ele>
        <time>2020-10-31T10:45:31.000Z</time>
      </trkpt>
      <trkpt lat="49.74198" lon="4.84315">
        <ele>230</ele>
        <time>2020-10-31T10:45:32.000Z</time>
      </trkpt>
      <trkpt lat="49.74197" lon="4.84319">
        <ele>230</ele>
        <time>2020-10-31T10:45:33.000Z</time>
      </trkpt>
      <trkpt lat="49.74197" lon="4.84323">
        <ele>230</ele>
        <time>2020-10-31T10:45:34.000Z</time>
      </trkpt>
      <trkpt lat="49.74196" lon="4.84328">
        <ele>230</ele>
        <time>2020-10-31T10:45:35.000Z</time>
      </trkpt>
      <trkpt lat="49.74194" lon="4.84331">
        <ele>229</ele>
        <time>2020-10-31T10:45:36.000Z</time>
      </trkpt>
      <trkpt lat="49.74193" lon="4.84332">
        <ele>229</ele>
        <time>2020-10-31T10:45:37.000Z</time>
      </trkpt>
      <trkpt lat="49.7419" lon="4.84333">
        <ele>229</ele>
        <time>2020-10-31T10:45:38.000Z</time>
      </trkpt>
      <trkpt lat="49.74186" lon="4.84333">
        <ele>229</ele>
        <time>2020-10-31T10:45:39.000Z</time>
      </trkpt>
      <trkpt lat="49.74183" lon="4.84332">
        <ele>228</ele>
        <time>2020-10-31T10:45:40.000Z</time>
      </trkpt>
      <trkpt lat="49.74181" lon="4.84332">
        <ele>228</ele>
        <time>2020-10-31T10:45:41.000Z</time>
      </trkpt>
      <trkpt lat="49.74179" lon="4.84333">
        <ele>228</ele>
        <time>2020-10-31T10:45:42.000Z</time>
      </trkpt>
      <trkpt lat="49.74177" lon="4.84333">
        <ele>227</ele>
        <time>2020-10-31T10:45:43.000Z</time>
      </trkpt>
      <trkpt lat="49.74176" lon="4.84333">
        <ele>227</ele>
        <time>2020-10-31T10:45:44.000Z</time>
      </trkpt>
      <trkpt lat="49.74175" lon="4.84334">
        <ele>226</ele>
        <time>2020-10-31T10:45:45.000Z</time>
      </trkpt>
      <trkpt lat="49.74173" lon="4.84336">
        <ele>226</ele>
        <time>2020-10-31T10:45:46.000Z</time>
      </trkpt>
      <trkpt lat="49.74172" lon="4.8434">
        <ele>226</ele>
        <time>2020-10-31T10:45:47.000Z</time>
      </trkpt>
      <trkpt lat="49.74171" lon="4.84344">
        <ele>225</ele>
        <time>2020-10-31T10:45:48.000Z</time>
      </trkpt>
      <trkpt lat="49.7417" lon="4.84348">
        <ele>225</ele>
        <time>2020-10-31T10:45:49.000Z</time>
      </trkpt>
      <trkpt lat="49.74168" lon="4.84352">
        <ele>225</ele>
        <time>2020-10-31T10:45:50.000Z</time>
      </trkpt>
      <trkpt lat="49.74167" lon="4.84357">
        <ele>224</ele>
        <time>2020-10-31T10:45:51.000Z</time>
      </trkpt>
      <trkpt lat="49.74166" lon="4.84362">
        <ele>224</ele>
        <time>2020-10-31T10:45:52.000Z</time>
      </trkpt>
      <trkpt lat="49.74164" lon="4.84367">
        <ele>224</ele>
        <time>2020-10-31T10:45:53.000Z</time>
      </trkpt>
      <trkpt lat="49.74163" lon="4.84371">
        <ele>223</ele>
        <time>2020-10-31T10:45:54.000Z</time>
      </trkpt>
      <trkpt lat="49.74161" lon="4.84375">
        <ele>223</ele>
        <time>2020-10-31T10:45:55.000Z</time>
      </trkpt>
      <trkpt lat="49.7416" lon="4.8438">
        <ele>223</ele>
        <time>2020-10-31T10:45:56.000Z</time>
      </trkpt>
      <trkpt lat="49.74159" lon="4.84385">
        <ele>222</ele>
        <time>2020-10-31T10:45:57.000Z</time>
      </trkpt>
      <trkpt lat="49.74158" lon="4.8439">
        <ele>222</ele>
        <time>2020-10-31T10:45:58.000Z</time>
      </trkpt>
      <trkpt lat="49.74157" lon="4.84395">
        <ele>222</ele>
        <time>2020-10-31T10:45:59.000Z</time>
      </trkpt>
      <trkpt lat="49.74156" lon="4.844">
        <ele>222</ele>
        <time>2020-10-31T10:46:00.000Z</time>
      </trkpt>
      <trkpt lat="49.74155" lon="4.84404">
        <ele>222</ele>
        <time>2020-10-31T10:46:01.000Z</time>
      </trkpt>
      <trkpt lat="49.74154" lon="4.84408">
        <ele>222</ele>
        <time>2020-10-31T10:46:02.000Z</time>
      </trkpt>
      <trkpt lat="49.74154" lon="4.84411">
        <ele>222</ele>
        <time>2020-10-31T10:46:03.000Z</time>
      </trkpt>
      <trkpt lat="49.74153" lon="4.84413">
        <ele>222</ele>
        <time>2020-10-31T10:46:04.000Z</time>
      </trkpt>
      <trkpt lat="49.74153" lon="4.84416">
        <ele>222</ele>
        <time>2020-10-31T10:46:05.000Z</time>
      </trkpt>
      <trkpt lat="49.74152" lon="4.84418">
        <ele>222</ele>
        <time>2020-10-31T10:46:06.000Z</time>
      </trkpt>
      <trkpt lat="49.74152" lon="4.84421">
        <ele>222</ele>
        <time>2020-10-31T10:46:07.000Z</time>
      </trkpt>
      <trkpt lat="49.74151" lon="4.84423">
        <ele>222</ele>
        <time>2020-10-31T10:46:08.000Z</time>
      </trkpt>
      <trkpt lat="49.74151" lon="4.84426">
        <ele>222</ele>
        <time>2020-10-31T10:46:09.000Z</time>
      </trkpt>
      <trkpt lat="49.7415" lon="4.84428">
        <ele>222</ele>
        <time>2020-10-31T10:46:10.000Z</time>
      </trkpt>
      <trkpt lat="49.7415" lon="4.84431">
        <ele>223</ele>
        <time>2020-10-31T10:46:11.000Z</time>
      </trkpt>
      <trkpt lat="49.74149" lon="4.84434">
        <ele>223</ele>
        <time>2020-10-31T10:46:12.000Z</time>
      </trkpt>
      <trkpt lat="49.74149" lon="4.84436">
        <ele>223</ele>
        <time>2020-10-31T10:46:13.000Z</time>
      </trkpt>
      <trkpt lat="49.74148" lon="4.84439">
        <ele>223</ele>
        <time>2020-10-31T10:46:14.000Z</time>
      </trkpt>
      <trkpt lat="49.74147" lon="4.84442">
        <ele>223</ele>
        <time>2020-10-31T10:46:15.000Z</time>
      </trkpt>
      <trkpt lat="49.74147" lon="4.84445">
        <ele>223</ele>
        <time>2020-10-31T10:46:16.000Z</time>
      </trkpt>
      <trkpt lat="49.74146" lon="4.84448">
        <ele>223</ele>
        <time>2020-10-31T10:46:17.000Z</time>
      </trkpt>
      <trkpt lat="49.74146" lon="4.84451">
        <ele>223</ele>
        <time>2020-10-31T10:46:18.000Z</time>
      </trkpt>
      <trkpt lat="49.74145" lon="4.84455">
        <ele>223</ele>
        <time>2020-10-31T10:46:19.000Z</time>
      </trkpt>
      <trkpt lat="49.74145" lon="4.84459">
        <ele>223</ele>
        <time>2020-10-31T10:46:20.000Z</time>
      </trkpt>
      <trkpt lat="49.74145" lon="4.84463">
        <ele>224</ele>
        <time>2020-10-31T10:46:21.000Z</time>
      </trkpt>
      <trkpt lat="49.74144" lon="4.84467">
        <ele>224</ele>
        <time>2020-10-31T10:46:22.000Z</time>
      </trkpt>
      <trkpt lat="49.74143" lon="4.84471">
        <ele>224</ele>
        <time>2020-10-31T10:46:23.000Z</time>
      </trkpt>
      <trkpt lat="49.74142" lon="4.84475">
        <ele>224</ele>
        <time>2020-10-31T10:46:24.000Z</time>
      </trkpt>
      <trkpt lat="49.74141" lon="4.84479">
        <ele>224</ele>
        <time>2020-10-31T10:46:25.000Z</time>
      </trkpt>
      <trkpt lat="49.7414" lon="4.84484">
        <ele>224</ele>
        <time>2020-10-31T10:46:26.000Z</time>
      </trkpt>
      <trkpt lat="49.74139" lon="4.84488">
        <ele>224</ele>
        <time>2020-10-31T10:46:27.000Z</time>
      </trkpt>
      <trkpt lat="49.74138" lon="4.84493">
        <ele>224</ele>
        <time>2020-10-31T10:46:28.000Z</time>
      </trkpt>
      <trkpt lat="49.74137" lon="4.84498">
        <ele>224</ele>
        <time>2020-10-31T10:46:29.000Z</time>
      </trkpt>
      <trkpt lat="49.74136" lon="4.84503">
        <ele>225</ele>
        <time>2020-10-31T10:46:30.000Z</time>
      </trkpt>
      <trkpt lat="49.74135" lon="4.84507">
        <ele>225</ele>
        <time>2020-10-31T10:46:31.000Z</time>
      </trkpt>
      <trkpt lat="49.74133" lon="4.84512">
        <ele>225</ele>
        <time>2020-10-31T10:46:32.000Z</time>
      </trkpt>
      <trkpt lat="49.74132" lon="4.84517">
        <ele>225</ele>
        <time>2020-10-31T10:46:33.000Z</time>
      </trkpt>
      <trkpt lat="49.74131" lon="4.84522">
        <ele>225</ele>
        <time>2020-10-31T10:46:34.000Z</time>
      </trkpt>
      <trkpt lat="49.74129" lon="4.84527">
        <ele>225</ele>
        <time>2020-10-31T10:46:35.000Z</time>
      </trkpt>
      <trkpt lat="49.74128" lon="4.84532">
        <ele>225</ele>
        <time>2020-10-31T10:46:36.000Z</time>
      </trkpt>
      <trkpt lat="49.74126" lon="4.84536">
        <ele>226</ele>
        <time>2020-10-31T10:46:37.000Z</time>
      </trkpt>
      <trkpt lat="49.74123" lon="4.84541">
        <ele>226</ele>
        <time>2020-10-31T10:46:38.000Z</time>
      </trkpt>
      <trkpt lat="49.74122" lon="4.84546">
        <ele>226</ele>
        <time>2020-10-31T10:46:39.000Z</time>
      </trkpt>
      <trkpt lat="49.7412" lon="4.84551">
        <ele>226</ele>
        <time>2020-10-31T10:46:40.000Z</time>
      </trkpt>
      <trkpt lat="49.74119" lon="4.84557">
        <ele>226</ele>
        <time>2020-10-31T10:46:41.000Z</time>
      </trkpt>
      <trkpt lat="49.74117" lon="4.84562">
        <ele>226</ele>
        <time>2020-10-31T10:46:42.000Z</time>
      </trkpt>
      <trkpt lat="49.74115" lon="4.84568">
        <ele>226</ele>
        <time>2020-10-31T10:46:43.000Z</time>
      </trkpt>
      <trkpt lat="49.74113" lon="4.84575">
        <ele>225</ele>
        <time>2020-10-31T10:46:44.000Z</time>
      </trkpt>
      <trkpt lat="49.74111" lon="4.84582">
        <ele>225</ele>
        <time>2020-10-31T10:46:45.000Z</time>
      </trkpt>
      <trkpt lat="49.74108" lon="4.8459">
        <ele>225</ele>
        <time>2020-10-31T10:46:46.000Z</time>
      </trkpt>
      <trkpt lat="49.74105" lon="4.84599">
        <ele>224</ele>
        <time>2020-10-31T10:46:47.000Z</time>
      </trkpt>
      <trkpt lat="49.74101" lon="4.84608">
        <ele>224</ele>
        <time>2020-10-31T10:46:48.000Z</time>
      </trkpt>
      <trkpt lat="49.74097" lon="4.84618">
        <ele>223</ele>
        <time>2020-10-31T10:46:49.000Z</time>
      </trkpt>
      <trkpt lat="49.74093" lon="4.84628">
        <ele>223</ele>
        <time>2020-10-31T10:46:50.000Z</time>
      </trkpt>
      <trkpt lat="49.74088" lon="4.84638">
        <ele>222</ele>
        <time>2020-10-31T10:46:51.000Z</time>
      </trkpt>
      <trkpt lat="49.74084" lon="4.84648">
        <ele>222</ele>
        <time>2020-10-31T10:46:52.000Z</time>
      </trkpt>
      <trkpt lat="49.74081" lon="4.84657">
        <ele>222</ele>
        <time>2020-10-31T10:46:53.000Z</time>
      </trkpt>
      <trkpt lat="49.74077" lon="4.84666">
        <ele>222</ele>
        <time>2020-10-31T10:46:54.000Z</time>
      </trkpt>
      <trkpt lat="49.74074" lon="4.84675">
        <ele>221</ele>
        <time>2020-10-31T10:46:55.000Z</time>
      </trkpt>
      <trkpt lat="49.74071" lon="4.84681">
        <ele>221</ele>
        <time>2020-10-31T10:46:56.000Z</time>
      </trkpt>
      <trkpt lat="49.74068" lon="4.84685">
        <ele>221</ele>
        <time>2020-10-31T10:46:57.000Z</time>
      </trkpt>
      <trkpt lat="49.74066" lon="4.84688">
        <ele>221</ele>
        <time>2020-10-31T10:46:58.000Z</time>
      </trkpt>
      <trkpt lat="49.74064" lon="4.8469">
        <ele>221</ele>
        <time>2020-10-31T10:46:59.000Z</time>
      </trkpt>
      <trkpt lat="49.74063" lon="4.84692">
        <ele>221</ele>
        <time>2020-10-31T10:47:00.000Z</time>
      </trkpt>
      <trkpt lat="49.74062" lon="4.84695">
        <ele>221</ele>
        <time>2020-10-31T10:47:01.000Z</time>
      </trkpt>
      <trkpt lat="49.74062" lon="4.84698">
        <ele>221</ele>
        <time>2020-10-31T10:47:02.000Z</time>
      </trkpt>
      <trkpt lat="49.74061" lon="4.84701">
        <ele>222</ele>
        <time>2020-10-31T10:47:03.000Z</time>
      </trkpt>
      <trkpt lat="49.7406" lon="4.84704">
        <ele>222</ele>
        <time>2020-10-31T10:47:04.000Z</time>
      </trkpt>
      <trkpt lat="49.7406" lon="4.84708">
        <ele>222</ele>
        <time>2020-10-31T10:47:05.000Z</time>
      </trkpt>
      <trkpt lat="49.74059" lon="4.84712">
        <ele>222</ele>
        <time>2020-10-31T10:47:06.000Z</time>
      </trkpt>
      <trkpt lat="49.74058" lon="4.84716">
        <ele>222</ele>
        <time>2020-10-31T10:47:07.000Z</time>
      </trkpt>
      <trkpt lat="49.74056" lon="4.8472">
        <ele>223</ele>
        <time>2020-10-31T10:47:08.000Z</time>
      </trkpt>
      <trkpt lat="49.74054" lon="4.84725">
        <ele>223</ele>
        <time>2020-10-31T10:47:09.000Z</time>
      </trkpt>
      <trkpt lat="49.74052" lon="4.84729">
        <ele>223</ele>
        <time>2020-10-31T10:47:10.000Z</time>
      </trkpt>
      <trkpt lat="49.7405" lon="4.84733">
        <ele>223</ele>
        <time>2020-10-31T10:47:11.000Z</time>
      </trkpt>
      <trkpt lat="49.74047" lon="4.84737">
        <ele>224</ele>
        <time>2020-10-31T10:47:12.000Z</time>
      </trkpt>
      <trkpt lat="49.74046" lon="4.84742">
        <ele>224</ele>
        <time>2020-10-31T10:47:13.000Z</time>
      </trkpt>
      <trkpt lat="49.74045" lon="4.84746">
        <ele>224</ele>
        <time>2020-10-31T10:47:14.000Z</time>
      </trkpt>
      <trkpt lat="49.74044" lon="4.8475">
        <ele>225</ele>
        <time>2020-10-31T10:47:15.000Z</time>
      </trkpt>
      <trkpt lat="49.74044" lon="4.84752">
        <ele>225</ele>
        <time>2020-10-31T10:47:16.000Z</time>
      </trkpt>
      <trkpt lat="49.74042" lon="4.84754">
        <ele>225</ele>
        <time>2020-10-31T10:47:17.000Z</time>
      </trkpt>
      <trkpt lat="49.74041" lon="4.84753">
        <ele>225</ele>
        <time>2020-10-31T10:47:18.000Z</time>
      </trkpt>
      <trkpt lat="49.7404" lon="4.84754">
        <ele>225</ele>
        <time>2020-10-31T10:47:19.000Z</time>
      </trkpt>
      <trkpt lat="49.7404" lon="4.84754">
        <ele>226</ele>
        <time>2020-10-31T10:47:20.000Z</time>
      </trkpt>
      <trkpt lat="49.74039" lon="4.84755">
        <ele>226</ele>
        <time>2020-10-31T10:47:21.000Z</time>
      </trkpt>
      <trkpt lat="49.74039" lon="4.84756">
        <ele>226</ele>
        <time>2020-10-31T10:47:22.000Z</time>
      </trkpt>
      <trkpt lat="49.74038" lon="4.84758">
        <ele>226</ele>
        <time>2020-10-31T10:47:23.000Z</time>
      </trkpt>
      <trkpt lat="49.74038" lon="4.84759">
        <ele>226</ele>
        <time>2020-10-31T10:47:24.000Z</time>
      </trkpt>
      <trkpt lat="49.74039" lon="4.84761">
        <ele>226</ele>
        <time>2020-10-31T10:47:25.000Z</time>
      </trkpt>
      <trkpt lat="49.74039" lon="4.84763">
        <ele>226</ele>
        <time>2020-10-31T10:47:26.000Z</time>
      </trkpt>
      <trkpt lat="49.74038" lon="4.84766">
        <ele>226</ele>
        <time>2020-10-31T10:47:27.000Z</time>
      </trkpt>
      <trkpt lat="49.74038" lon="4.84769">
        <ele>226</ele>
        <time>2020-10-31T10:47:28.000Z</time>
      </trkpt>
      <trkpt lat="49.74038" lon="4.84774">
        <ele>226</ele>
        <time>2020-10-31T10:47:29.000Z</time>
      </trkpt>
      <trkpt lat="49.74038" lon="4.84778">
        <ele>227</ele>
        <time>2020-10-31T10:47:30.000Z</time>
      </trkpt>
      <trkpt lat="49.74038" lon="4.84781">
        <ele>227</ele>
        <time>2020-10-31T10:47:31.000Z</time>
      </trkpt>
      <trkpt lat="49.74037" lon="4.84783">
        <ele>227</ele>
        <time>2020-10-31T10:47:32.000Z</time>
      </trkpt>
      <trkpt lat="49.74037" lon="4.84784">
        <ele>227</ele>
        <time>2020-10-31T10:47:33.000Z</time>
      </trkpt>
      <trkpt lat="49.74036" lon="4.84785">
        <ele>227</ele>
        <time>2020-10-31T10:47:34.000Z</time>
      </trkpt>
      <trkpt lat="49.74035" lon="4.84784">
        <ele>227</ele>
        <time>2020-10-31T10:47:35.000Z</time>
      </trkpt>
      <trkpt lat="49.74034" lon="4.84784">
        <ele>227</ele>
        <time>2020-10-31T10:47:36.000Z</time>
      </trkpt>
      <trkpt lat="49.74033" lon="4.84783">
        <ele>227</ele>
        <time>2020-10-31T10:47:37.000Z</time>
      </trkpt>
      <trkpt lat="49.74032" lon="4.84784">
        <ele>227</ele>
        <time>2020-10-31T10:47:38.000Z</time>
      </trkpt>
      <trkpt lat="49.74032" lon="4.84786">
        <ele>227</ele>
        <time>2020-10-31T10:47:39.000Z</time>
      </trkpt>
      <trkpt lat="49.74031" lon="4.84789">
        <ele>227</ele>
        <time>2020-10-31T10:47:40.000Z</time>
      </trkpt>
      <trkpt lat="49.7403" lon="4.84793">
        <ele>226</ele>
        <time>2020-10-31T10:47:41.000Z</time>
      </trkpt>
      <trkpt lat="49.74031" lon="4.84796">
        <ele>226</ele>
        <time>2020-10-31T10:47:42.000Z</time>
      </trkpt>
      <trkpt lat="49.74033" lon="4.848">
        <ele>226</ele>
        <time>2020-10-31T10:47:43.000Z</time>
      </trkpt>
      <trkpt lat="49.74033" lon="4.84805">
        <ele>226</ele>
        <time>2020-10-31T10:47:44.000Z</time>
      </trkpt>
      <trkpt lat="49.74033" lon="4.84809">
        <ele>226</ele>
        <time>2020-10-31T10:47:45.000Z</time>
      </trkpt>
      <trkpt lat="49.74032" lon="4.84815">
        <ele>226</ele>
        <time>2020-10-31T10:47:46.000Z</time>
      </trkpt>
      <trkpt lat="49.7403" lon="4.8482">
        <ele>226</ele>
        <time>2020-10-31T10:47:47.000Z</time>
      </trkpt>
      <trkpt lat="49.74029" lon="4.84825">
        <ele>226</ele>
        <time>2020-10-31T10:47:48.000Z</time>
      </trkpt>
      <trkpt lat="49.74027" lon="4.84831">
        <ele>226</ele>
        <time>2020-10-31T10:47:49.000Z</time>
      </trkpt>
      <trkpt lat="49.74024" lon="4.84837">
        <ele>225</ele>
        <time>2020-10-31T10:47:50.000Z</time>
      </trkpt>
      <trkpt lat="49.7402" lon="4.84843">
        <ele>225</ele>
        <time>2020-10-31T10:47:51.000Z</time>
      </trkpt>
      <trkpt lat="49.74016" lon="4.84849">
        <ele>225</ele>
        <time>2020-10-31T10:47:52.000Z</time>
      </trkpt>
      <trkpt lat="49.74013" lon="4.84856">
        <ele>225</ele>
        <time>2020-10-31T10:47:53.000Z</time>
      </trkpt>
      <trkpt lat="49.74009" lon="4.84862">
        <ele>224</ele>
        <time>2020-10-31T10:47:54.000Z</time>
      </trkpt>
      <trkpt lat="49.74006" lon="4.84866">
        <ele>224</ele>
        <time>2020-10-31T10:47:55.000Z</time>
      </trkpt>
      <trkpt lat="49.74004" lon="4.8487">
        <ele>223</ele>
        <time>2020-10-31T10:47:56.000Z</time>
      </trkpt>
      <trkpt lat="49.74001" lon="4.84874">
        <ele>223</ele>
        <time>2020-10-31T10:47:57.000Z</time>
      </trkpt>
      <trkpt lat="49.73998" lon="4.8488">
        <ele>223</ele>
        <time>2020-10-31T10:47:58.000Z</time>
      </trkpt>
      <trkpt lat="49.73995" lon="4.84885">
        <ele>222</ele>
        <time>2020-10-31T10:47:59.000Z</time>
      </trkpt>
      <trkpt lat="49.73991" lon="4.84888">
        <ele>222</ele>
        <time>2020-10-31T10:48:00.000Z</time>
      </trkpt>
      <trkpt lat="49.73989" lon="4.84891">
        <ele>222</ele>
        <time>2020-10-31T10:48:01.000Z</time>
      </trkpt>
      <trkpt lat="49.73987" lon="4.84895">
        <ele>222</ele>
        <time>2020-10-31T10:48:02.000Z</time>
      </trkpt>
      <trkpt lat="49.73985" lon="4.849">
        <ele>222</ele>
        <time>2020-10-31T10:48:03.000Z</time>
      </trkpt>
      <trkpt lat="49.73985" lon="4.84905">
        <ele>221</ele>
        <time>2020-10-31T10:48:04.000Z</time>
      </trkpt>
      <trkpt lat="49.73985" lon="4.8491">
        <ele>221</ele>
        <time>2020-10-31T10:48:05.000Z</time>
      </trkpt>
      <trkpt lat="49.73988" lon="4.84914">
        <ele>221</ele>
        <time>2020-10-31T10:48:06.000Z</time>
      </trkpt>
      <trkpt lat="49.7399" lon="4.84918">
        <ele>221</ele>
        <time>2020-10-31T10:48:07.000Z</time>
      </trkpt>
      <trkpt lat="49.73993" lon="4.84921">
        <ele>221</ele>
        <time>2020-10-31T10:48:08.000Z</time>
      </trkpt>
      <trkpt lat="49.73995" lon="4.84923">
        <ele>221</ele>
        <time>2020-10-31T10:48:09.000Z</time>
      </trkpt>
      <trkpt lat="49.73996" lon="4.84926">
        <ele>221</ele>
        <time>2020-10-31T10:48:10.000Z</time>
      </trkpt>
      <trkpt lat="49.73998" lon="4.84929">
        <ele>221</ele>
        <time>2020-10-31T10:48:11.000Z</time>
      </trkpt>
      <trkpt lat="49.73999" lon="4.84932">
        <ele>221</ele>
        <time>2020-10-31T10:48:12.000Z</time>
      </trkpt>
      <trkpt lat="49.74" lon="4.84935">
        <ele>221</ele>
        <time>2020-10-31T10:48:13.000Z</time>
      </trkpt>
      <trkpt lat="49.74001" lon="4.84938">
        <ele>221</ele>
        <time>2020-10-31T10:48:14.000Z</time>
      </trkpt>
      <trkpt lat="49.74003" lon="4.84941">
        <ele>221</ele>
        <time>2020-10-31T10:48:15.000Z</time>
      </trkpt>
      <trkpt lat="49.74004" lon="4.84943">
        <ele>221</ele>
        <time>2020-10-31T10:48:16.000Z</time>
      </trkpt>
      <trkpt lat="49.74006" lon="4.84946">
        <ele>221</ele>
        <time>2020-10-31T10:48:17.000Z</time>
      </trkpt>
      <trkpt lat="49.74008" lon="4.84949">
        <ele>221</ele>
        <time>2020-10-31T10:48:18.000Z</time>
      </trkpt>
      <trkpt lat="49.7401" lon="4.84952">
        <ele>221</ele>
        <time>2020-10-31T10:48:19.000Z</time>
      </trkpt>
      <trkpt lat="49.74012" lon="4.84954">
        <ele>221</ele>
        <time>2020-10-31T10:48:20.000Z</time>
      </trkpt>
      <trkpt lat="49.74014" lon="4.84957">
        <ele>221</ele>
        <time>2020-10-31T10:48:21.000Z</time>
      </trkpt>
      <trkpt lat="49.74015" lon="4.84959">
        <ele>221</ele>
        <time>2020-10-31T10:48:22.000Z</time>
      </trkpt>
      <trkpt lat="49.74017" lon="4.84961">
        <ele>221</ele>
        <time>2020-10-31T10:48:23.000Z</time>
      </trkpt>
      <trkpt lat="49.74019" lon="4.84963">
        <ele>221</ele>
        <time>2020-10-31T10:48:24.000Z</time>
      </trkpt>
      <trkpt lat="49.74021" lon="4.84966">
        <ele>221</ele>
        <time>2020-10-31T10:48:25.000Z</time>
      </trkpt>
      <trkpt lat="49.74023" lon="4.84968">
        <ele>221</ele>
        <time>2020-10-31T10:48:26.000Z</time>
      </trkpt>
      <trkpt lat="49.74025" lon="4.84971">
        <ele>222</ele>
        <time>2020-10-31T10:48:27.000Z</time>
      </trkpt>
      <trkpt lat="49.74027" lon="4.84973">
        <ele>222</ele>
        <time>2020-10-31T10:48:28.000Z</time>
      </trkpt>
      <trkpt lat="49.74029" lon="4.84976">
        <ele>222</ele>
        <time>2020-10-31T10:48:29.000Z</time>
      </trkpt>
      <trkpt lat="49.74031" lon="4.84978">
        <ele>222</ele>
        <time>2020-10-31T10:48:30.000Z</time>
      </trkpt>
      <trkpt lat="49.74033" lon="4.8498">
        <ele>222</ele>
        <time>2020-10-31T10:48:31.000Z</time>
      </trkpt>
      <trkpt lat="49.74035" lon="4.84982">
        <ele>222</ele>
        <time>2020-10-31T10:48:32.000Z</time>
      </trkpt>
      <trkpt lat="49.74037" lon="4.84984">
        <ele>222</ele>
        <time>2020-10-31T10:48:33.000Z</time>
      </trkpt>
      <trkpt lat="49.74038" lon="4.84986">
        <ele>222</ele>
        <time>2020-10-31T10:48:34.000Z</time>
      </trkpt>
      <trkpt lat="49.7404" lon="4.84989">
        <ele>222</ele>
        <time>2020-10-31T10:48:35.000Z</time>
      </trkpt>
      <trkpt lat="49.74042" lon="4.8499">
        <ele>222</ele>
        <time>2020-10-31T10:48:36.000Z</time>
      </trkpt>
      <trkpt lat="49.74045" lon="4.84992">
        <ele>222</ele>
        <time>2020-10-31T10:48:37.000Z</time>
      </trkpt>
      <trkpt lat="49.74046" lon="4.84993">
        <ele>222</ele>
        <time>2020-10-31T10:48:38.000Z</time>
      </trkpt>
      <trkpt lat="49.74049" lon="4.84995">
        <ele>222</ele>
        <time>2020-10-31T10:48:39.000Z</time>
      </trkpt>
      <trkpt lat="49.74051" lon="4.84996">
        <ele>222</ele>
        <time>2020-10-31T10:48:40.000Z</time>
      </trkpt>
      <trkpt lat="49.74053" lon="4.84998">
        <ele>222</ele>
        <time>2020-10-31T10:48:41.000Z</time>
      </trkpt>
      <trkpt lat="49.74055" lon="4.85">
        <ele>222</ele>
        <time>2020-10-31T10:48:42.000Z</time>
      </trkpt>
      <trkpt lat="49.74057" lon="4.85002">
        <ele>222</ele>
        <time>2020-10-31T10:48:43.000Z</time>
      </trkpt>
      <trkpt lat="49.7406" lon="4.85004">
        <ele>222</ele>
        <time>2020-10-31T10:48:44.000Z</time>
      </trkpt>
      <trkpt lat="49.74062" lon="4.85006">
        <ele>223</ele>
        <time>2020-10-31T10:48:45.000Z</time>
      </trkpt>
      <trkpt lat="49.74064" lon="4.85008">
        <ele>223</ele>
        <time>2020-10-31T10:48:46.000Z</time>
      </trkpt>
      <trkpt lat="49.74066" lon="4.8501">
        <ele>223</ele>
        <time>2020-10-31T10:48:47.000Z</time>
      </trkpt>
      <trkpt lat="49.74068" lon="4.85012">
        <ele>223</ele>
        <time>2020-10-31T10:48:48.000Z</time>
      </trkpt>
      <trkpt lat="49.7407" lon="4.85014">
        <ele>223</ele>
        <time>2020-10-31T10:48:49.000Z</time>
      </trkpt>
      <trkpt lat="49.74072" lon="4.85015">
        <ele>223</ele>
        <time>2020-10-31T10:48:50.000Z</time>
      </trkpt>
      <trkpt lat="49.74074" lon="4.85017">
        <ele>223</ele>
        <time>2020-10-31T10:48:51.000Z</time>
      </trkpt>
      <trkpt lat="49.74076" lon="4.85018">
        <ele>223</ele>
        <time>2020-10-31T10:48:52.000Z</time>
      </trkpt>
      <trkpt lat="49.74078" lon="4.8502">
        <ele>223</ele>
        <time>2020-10-31T10:48:53.000Z</time>
      </trkpt>
      <trkpt lat="49.7408" lon="4.85022">
        <ele>223</ele>
        <time>2020-10-31T10:48:54.000Z</time>
      </trkpt>
      <trkpt lat="49.74082" lon="4.85023">
        <ele>224</ele>
        <time>2020-10-31T10:48:55.000Z</time>
      </trkpt>
      <trkpt lat="49.74084" lon="4.85025">
        <ele>224</ele>
        <time>2020-10-31T10:48:56.000Z</time>
      </trkpt>
      <trkpt lat="49.74086" lon="4.85026">
        <ele>224</ele>
        <time>2020-10-31T10:48:57.000Z</time>
      </trkpt>
      <trkpt lat="49.74088" lon="4.85028">
        <ele>224</ele>
        <time>2020-10-31T10:48:58.000Z</time>
      </trkpt>
      <trkpt lat="49.74089" lon="4.8503">
        <ele>225</ele>
        <time>2020-10-31T10:48:59.000Z</time>
      </trkpt>
      <trkpt lat="49.7409" lon="4.85031">
        <ele>225</ele>
        <time>2020-10-31T10:49:00.000Z</time>
      </trkpt>
      <trkpt lat="49.74091" lon="4.85033">
        <ele>225</ele>
        <time>2020-10-31T10:49:01.000Z</time>
      </trkpt>
      <trkpt lat="49.74092" lon="4.85036">
        <ele>225</ele>
        <time>2020-10-31T10:49:02.000Z</time>
      </trkpt>
      <trkpt lat="49.74093" lon="4.85038">
        <ele>225</ele>
        <time>2020-10-31T10:49:03.000Z</time>
      </trkpt>
      <trkpt lat="49.74095" lon="4.8504">
        <ele>225</ele>
        <time>2020-10-31T10:49:04.000Z</time>
      </trkpt>
      <trkpt lat="49.74097" lon="4.85042">
        <ele>225</ele>
        <time>2020-10-31T10:49:05.000Z</time>
      </trkpt>
      <trkpt lat="49.74099" lon="4.85043">
        <ele>225</ele>
        <time>2020-10-31T10:49:06.000Z</time>
      </trkpt>
      <trkpt lat="49.741" lon="4.85045">
        <ele>226</ele>
        <time>2020-10-31T10:49:07.000Z</time>
      </trkpt>
      <trkpt lat="49.74101" lon="4.85047">
        <ele>226</ele>
        <time>2020-10-31T10:49:08.000Z</time>
      </trkpt>
      <trkpt lat="49.74103" lon="4.85049">
        <ele>226</ele>
        <time>2020-10-31T10:49:09.000Z</time>
      </trkpt>
      <trkpt lat="49.74105" lon="4.85051">
        <ele>226</ele>
        <time>2020-10-31T10:49:10.000Z</time>
      </trkpt>
      <trkpt lat="49.74107" lon="4.85053">
        <ele>226</ele>
        <time>2020-10-31T10:49:11.000Z</time>
      </trkpt>
      <trkpt lat="49.74109" lon="4.85055">
        <ele>226</ele>
        <time>2020-10-31T10:49:12.000Z</time>
      </trkpt>
      <trkpt lat="49.74111" lon="4.85057">
        <ele>226</ele>
        <time>2020-10-31T10:49:13.000Z</time>
      </trkpt>
      <trkpt lat="49.74113" lon="4.8506">
        <ele>226</ele>
        <time>2020-10-31T10:49:14.000Z</time>
      </trkpt>
      <trkpt lat="49.74115" lon="4.85062">
        <ele>227</ele>
        <time>2020-10-31T10:49:15.000Z</time>
      </trkpt>
      <trkpt lat="49.74117" lon="4.85064">
        <ele>227</ele>
        <time>2020-10-31T10:49:16.000Z</time>
      </trkpt>
      <trkpt lat="49.74118" lon="4.85066">
        <ele>227</ele>
        <time>2020-10-31T10:49:17.000Z</time>
      </trkpt>
      <trkpt lat="49.74119" lon="4.85068">
        <ele>227</ele>
        <time>2020-10-31T10:49:18.000Z</time>
      </trkpt>
      <trkpt lat="49.74121" lon="4.8507">
        <ele>227</ele>
        <time>2020-10-31T10:49:19.000Z</time>
      </trkpt>
      <trkpt lat="49.74123" lon="4.85072">
        <ele>227</ele>
        <time>2020-10-31T10:49:20.000Z</time>
      </trkpt>
      <trkpt lat="49.74125" lon="4.85074">
        <ele>228</ele>
        <time>2020-10-31T10:49:21.000Z</time>
      </trkpt>
      <trkpt lat="49.74126" lon="4.85076">
        <ele>228</ele>
        <time>2020-10-31T10:49:22.000Z</time>
      </trkpt>
      <trkpt lat="49.74128" lon="4.85077">
        <ele>228</ele>
        <time>2020-10-31T10:49:23.000Z</time>
      </trkpt>
      <trkpt lat="49.7413" lon="4.8508">
        <ele>228</ele>
        <time>2020-10-31T10:49:24.000Z</time>
      </trkpt>
      <trkpt lat="49.74132" lon="4.85082">
        <ele>228</ele>
        <time>2020-10-31T10:49:25.000Z</time>
      </trkpt>
      <trkpt lat="49.74134" lon="4.85084">
        <ele>228</ele>
        <time>2020-10-31T10:49:26.000Z</time>
      </trkpt>
      <trkpt lat="49.74136" lon="4.85086">
        <ele>228</ele>
        <time>2020-10-31T10:49:27.000Z</time>
      </trkpt>
      <trkpt lat="49.74138" lon="4.85088">
        <ele>228</ele>
        <time>2020-10-31T10:49:28.000Z</time>
      </trkpt>
      <trkpt lat="49.7414" lon="4.8509">
        <ele>229</ele>
        <time>2020-10-31T10:49:29.000Z</time>
      </trkpt>
      <trkpt lat="49.74142" lon="4.85093">
        <ele>229</ele>
        <time>2020-10-31T10:49:30.000Z</time>
      </trkpt>
      <trkpt lat="49.74144" lon="4.85095">
        <ele>229</ele>
        <time>2020-10-31T10:49:31.000Z</time>
      </trkpt>
      <trkpt lat="49.74147" lon="4.85098">
        <ele>229</ele>
        <time>2020-10-31T10:49:32.000Z</time>
      </trkpt>
      <trkpt lat="49.74149" lon="4.851">
        <ele>229</ele>
        <time>2020-10-31T10:49:33.000Z</time>
      </trkpt>
      <trkpt lat="49.74151" lon="4.85103">
        <ele>229</ele>
        <time>2020-10-31T10:49:34.000Z</time>
      </trkpt>
      <trkpt lat="49.74154" lon="4.85105">
        <ele>230</ele>
        <time>2020-10-31T10:49:35.000Z</time>
      </trkpt>
      <trkpt lat="49.74156" lon="4.85108">
        <ele>230</ele>
        <time>2020-10-31T10:49:36.000Z</time>
      </trkpt>
      <trkpt lat="49.74158" lon="4.8511">
        <ele>230</ele>
        <time>2020-10-31T10:49:37.000Z</time>
      </trkpt>
      <trkpt lat="49.74161" lon="4.85113">
        <ele>230</ele>
        <time>2020-10-31T10:49:38.000Z</time>
      </trkpt>
      <trkpt lat="49.74163" lon="4.85115">
        <ele>230</ele>
        <time>2020-10-31T10:49:39.000Z</time>
      </trkpt>
      <trkpt lat="49.74164" lon="4.85118">
        <ele>231</ele>
        <time>2020-10-31T10:49:40.000Z</time>
      </trkpt>
      <trkpt lat="49.74165" lon="4.8512">
        <ele>231</ele>
        <time>2020-10-31T10:49:41.000Z</time>
      </trkpt>
      <trkpt lat="49.74167" lon="4.85122">
        <ele>231</ele>
        <time>2020-10-31T10:49:42.000Z</time>
      </trkpt>
      <trkpt lat="49.74169" lon="4.85125">
        <ele>231</ele>
        <time>2020-10-31T10:49:43.000Z</time>
      </trkpt>
      <trkpt lat="49.74171" lon="4.85127">
        <ele>231</ele>
        <time>2020-10-31T10:49:44.000Z</time>
      </trkpt>
      <trkpt lat="49.74174" lon="4.85129">
        <ele>231</ele>
        <time>2020-10-31T10:49:45.000Z</time>
      </trkpt>
      <trkpt lat="49.74177" lon="4.85131">
        <ele>232</ele>
        <time>2020-10-31T10:49:46.000Z</time>
      </trkpt>
      <trkpt lat="49.74179" lon="4.85134">
        <ele>232</ele>
        <time>2020-10-31T10:49:47.000Z</time>
      </trkpt>
      <trkpt lat="49.74182" lon="4.85135">
        <ele>232</ele>
        <time>2020-10-31T10:49:48.000Z</time>
      </trkpt>
      <trkpt lat="49.74184" lon="4.85137">
        <ele>232</ele>
        <time>2020-10-31T10:49:49.000Z</time>
      </trkpt>
      <trkpt lat="49.74187" lon="4.85138">
        <ele>232</ele>
        <time>2020-10-31T10:49:50.000Z</time>
      </trkpt>
      <trkpt lat="49.7419" lon="4.85138">
        <ele>233</ele>
        <time>2020-10-31T10:49:51.000Z</time>
      </trkpt>
      <trkpt lat="49.74191" lon="4.85138">
        <ele>233</ele>
        <time>2020-10-31T10:49:52.000Z</time>
      </trkpt>
      <trkpt lat="49.74194" lon="4.85138">
        <ele>233</ele>
        <time>2020-10-31T10:49:53.000Z</time>
      </trkpt>
      <trkpt lat="49.74196" lon="4.85139">
        <ele>234</ele>
        <time>2020-10-31T10:49:54.000Z</time>
      </trkpt>
      <trkpt lat="49.74198" lon="4.85139">
        <ele>234</ele>
        <time>2020-10-31T10:49:55.000Z</time>
      </trkpt>
      <trkpt lat="49.742" lon="4.85138">
        <ele>234</ele>
        <time>2020-10-31T10:49:56.000Z</time>
      </trkpt>
      <trkpt lat="49.74203" lon="4.85137">
        <ele>234</ele>
        <time>2020-10-31T10:49:57.000Z</time>
      </trkpt>
      <trkpt lat="49.74205" lon="4.85136">
        <ele>235</ele>
        <time>2020-10-31T10:49:58.000Z</time>
      </trkpt>
      <trkpt lat="49.74207" lon="4.85134">
        <ele>235</ele>
        <time>2020-10-31T10:49:59.000Z</time>
      </trkpt>
      <trkpt lat="49.74209" lon="4.85132">
        <ele>235</ele>
        <time>2020-10-31T10:50:00.000Z</time>
      </trkpt>
      <trkpt lat="49.74212" lon="4.85131">
        <ele>236</ele>
        <time>2020-10-31T10:50:01.000Z</time>
      </trkpt>
      <trkpt lat="49.74214" lon="4.85129">
        <ele>236</ele>
        <time>2020-10-31T10:50:02.000Z</time>
      </trkpt>
      <trkpt lat="49.74216" lon="4.85127">
        <ele>236</ele>
        <time>2020-10-31T10:50:03.000Z</time>
      </trkpt>
      <trkpt lat="49.74218" lon="4.85125">
        <ele>237</ele>
        <time>2020-10-31T10:50:04.000Z</time>
      </trkpt>
      <trkpt lat="49.74219" lon="4.85123">
        <ele>237</ele>
        <time>2020-10-31T10:50:05.000Z</time>
      </trkpt>
      <trkpt lat="49.74221" lon="4.85121">
        <ele>238</ele>
        <time>2020-10-31T10:50:06.000Z</time>
      </trkpt>
      <trkpt lat="49.74223" lon="4.85118">
        <ele>238</ele>
        <time>2020-10-31T10:50:07.000Z</time>
      </trkpt>
      <trkpt lat="49.74225" lon="4.85116">
        <ele>238</ele>
        <time>2020-10-31T10:50:08.000Z</time>
      </trkpt>
      <trkpt lat="49.74227" lon="4.85115">
        <ele>239</ele>
        <time>2020-10-31T10:50:09.000Z</time>
      </trkpt>
      <trkpt lat="49.74228" lon="4.85114">
        <ele>239</ele>
        <time>2020-10-31T10:50:10.000Z</time>
      </trkpt>
      <trkpt lat="49.7423" lon="4.85112">
        <ele>239</ele>
        <time>2020-10-31T10:50:11.000Z</time>
      </trkpt>
      <trkpt lat="49.74231" lon="4.85109">
        <ele>240</ele>
        <time>2020-10-31T10:50:12.000Z</time>
      </trkpt>
      <trkpt lat="49.74232" lon="4.85108">
        <ele>240</ele>
        <time>2020-10-31T10:50:13.000Z</time>
      </trkpt>
      <trkpt lat="49.74234" lon="4.85105">
        <ele>240</ele>
        <time>2020-10-31T10:50:14.000Z</time>
      </trkpt>
      <trkpt lat="49.74235" lon="4.85102">
        <ele>240</ele>
        <time>2020-10-31T10:50:15.000Z</time>
      </trkpt>
      <trkpt lat="49.74237" lon="4.851">
        <ele>241</ele>
        <time>2020-10-31T10:50:16.000Z</time>
      </trkpt>
      <trkpt lat="49.74238" lon="4.85098">
        <ele>241</ele>
        <time>2020-10-31T10:50:17.000Z</time>
      </trkpt>
      <trkpt lat="49.74239" lon="4.85096">
        <ele>241</ele>
        <time>2020-10-31T10:50:18.000Z</time>
      </trkpt>
      <trkpt lat="49.7424" lon="4.85094">
        <ele>242</ele>
        <time>2020-10-31T10:50:19.000Z</time>
      </trkpt>
      <trkpt lat="49.74242" lon="4.85093">
        <ele>242</ele>
        <time>2020-10-31T10:50:20.000Z</time>
      </trkpt>
      <trkpt lat="49.74244" lon="4.85091">
        <ele>242</ele>
        <time>2020-10-31T10:50:21.000Z</time>
      </trkpt>
      <trkpt lat="49.74246" lon="4.85088">
        <ele>243</ele>
        <time>2020-10-31T10:50:22.000Z</time>
      </trkpt>
      <trkpt lat="49.74248" lon="4.85085">
        <ele>243</ele>
        <time>2020-10-31T10:50:23.000Z</time>
      </trkpt>
      <trkpt lat="49.7425" lon="4.85082">
        <ele>243</ele>
        <time>2020-10-31T10:50:24.000Z</time>
      </trkpt>
      <trkpt lat="49.74251" lon="4.85078">
        <ele>244</ele>
        <time>2020-10-31T10:50:25.000Z</time>
      </trkpt>
      <trkpt lat="49.74252" lon="4.85074">
        <ele>244</ele>
        <time>2020-10-31T10:50:26.000Z</time>
      </trkpt>
      <trkpt lat="49.74254" lon="4.85071">
        <ele>244</ele>
        <time>2020-10-31T10:50:27.000Z</time>
      </trkpt>
      <trkpt lat="49.74255" lon="4.85068">
        <ele>245</ele>
        <time>2020-10-31T10:50:28.000Z</time>
      </trkpt>
      <trkpt lat="49.74257" lon="4.85065">
        <ele>245</ele>
        <time>2020-10-31T10:50:29.000Z</time>
      </trkpt>
      <trkpt lat="49.74259" lon="4.85062">
        <ele>245</ele>
        <time>2020-10-31T10:50:30.000Z</time>
      </trkpt>
      <trkpt lat="49.74262" lon="4.85059">
        <ele>245</ele>
        <time>2020-10-31T10:50:31.000Z</time>
      </trkpt>
      <trkpt lat="49.74264" lon="4.85056">
        <ele>246</ele>
        <time>2020-10-31T10:50:32.000Z</time>
      </trkpt>
      <trkpt lat="49.74266" lon="4.85053">
        <ele>246</ele>
        <time>2020-10-31T10:50:33.000Z</time>
      </trkpt>
      <trkpt lat="49.74269" lon="4.8505">
        <ele>246</ele>
        <time>2020-10-31T10:50:34.000Z</time>
      </trkpt>
      <trkpt lat="49.74271" lon="4.85048">
        <ele>247</ele>
        <time>2020-10-31T10:50:35.000Z</time>
      </trkpt>
      <trkpt lat="49.74274" lon="4.85046">
        <ele>247</ele>
        <time>2020-10-31T10:50:36.000Z</time>
      </trkpt>
      <trkpt lat="49.74277" lon="4.85044">
        <ele>247</ele>
        <time>2020-10-31T10:50:37.000Z</time>
      </trkpt>
      <trkpt lat="49.7428" lon="4.85041">
        <ele>247</ele>
        <time>2020-10-31T10:50:38.000Z</time>
      </trkpt>
      <trkpt lat="49.74283" lon="4.85039">
        <ele>248</ele>
        <time>2020-10-31T10:50:39.000Z</time>
      </trkpt>
      <trkpt lat="49.74286" lon="4.85037">
        <ele>248</ele>
        <time>2020-10-31T10:50:40.000Z</time>
      </trkpt>
      <trkpt lat="49.74289" lon="4.85034">
        <ele>248</ele>
        <time>2020-10-31T10:50:41.000Z</time>
      </trkpt>
      <trkpt lat="49.74291" lon="4.85032">
        <ele>248</ele>
        <time>2020-10-31T10:50:42.000Z</time>
      </trkpt>
      <trkpt lat="49.74294" lon="4.85029">
        <ele>249</ele>
        <time>2020-10-31T10:50:43.000Z</time>
      </trkpt>
      <trkpt lat="49.74296" lon="4.85027">
        <ele>249</ele>
        <time>2020-10-31T10:50:44.000Z</time>
      </trkpt>
      <trkpt lat="49.74299" lon="4.85024">
        <ele>249</ele>
        <time>2020-10-31T10:50:45.000Z</time>
      </trkpt>
      <trkpt lat="49.74301" lon="4.85021">
        <ele>249</ele>
        <time>2020-10-31T10:50:46.000Z</time>
      </trkpt>
      <trkpt lat="49.74303" lon="4.85019">
        <ele>250</ele>
        <time>2020-10-31T10:50:47.000Z</time>
      </trkpt>
      <trkpt lat="49.74305" lon="4.85017">
        <ele>250</ele>
        <time>2020-10-31T10:50:48.000Z</time>
      </trkpt>
      <trkpt lat="49.74307" lon="4.85014">
        <ele>250</ele>
        <time>2020-10-31T10:50:49.000Z</time>
      </trkpt>
      <trkpt lat="49.7431" lon="4.85012">
        <ele>250</ele>
        <time>2020-10-31T10:50:50.000Z</time>
      </trkpt>
      <trkpt lat="49.74312" lon="4.8501">
        <ele>251</ele>
        <time>2020-10-31T10:50:51.000Z</time>
      </trkpt>
      <trkpt lat="49.74315" lon="4.85008">
        <ele>251</ele>
        <time>2020-10-31T10:50:52.000Z</time>
      </trkpt>
      <trkpt lat="49.74317" lon="4.85005">
        <ele>251</ele>
        <time>2020-10-31T10:50:53.000Z</time>
      </trkpt>
      <trkpt lat="49.74319" lon="4.85002">
        <ele>251</ele>
        <time>2020-10-31T10:50:54.000Z</time>
      </trkpt>
      <trkpt lat="49.74321" lon="4.85001">
        <ele>252</ele>
        <time>2020-10-31T10:50:55.000Z</time>
      </trkpt>
      <trkpt lat="49.74323" lon="4.84999">
        <ele>252</ele>
        <time>2020-10-31T10:50:56.000Z</time>
      </trkpt>
      <trkpt lat="49.74325" lon="4.84997">
        <ele>252</ele>
        <time>2020-10-31T10:50:57.000Z</time>
      </trkpt>
      <trkpt lat="49.74327" lon="4.84994">
        <ele>252</ele>
        <time>2020-10-31T10:50:58.000Z</time>
      </trkpt>
      <trkpt lat="49.74328" lon="4.84992">
        <ele>252</ele>
        <time>2020-10-31T10:50:59.000Z</time>
      </trkpt>
      <trkpt lat="49.74329" lon="4.8499">
        <ele>252</ele>
        <time>2020-10-31T10:51:00.000Z</time>
      </trkpt>
      <trkpt lat="49.7433" lon="4.84988">
        <ele>252</ele>
        <time>2020-10-31T10:51:01.000Z</time>
      </trkpt>
      <trkpt lat="49.74331" lon="4.84986">
        <ele>252</ele>
        <time>2020-10-31T10:51:02.000Z</time>
      </trkpt>
      <trkpt lat="49.74332" lon="4.84983">
        <ele>252</ele>
        <time>2020-10-31T10:51:03.000Z</time>
      </trkpt>
      <trkpt lat="49.74334" lon="4.8498">
        <ele>252</ele>
        <time>2020-10-31T10:51:04.000Z</time>
      </trkpt>
      <trkpt lat="49.74336" lon="4.84976">
        <ele>252</ele>
        <time>2020-10-31T10:51:05.000Z</time>
      </trkpt>
      <trkpt lat="49.74338" lon="4.84973">
        <ele>252</ele>
        <time>2020-10-31T10:51:06.000Z</time>
      </trkpt>
      <trkpt lat="49.74341" lon="4.84969">
        <ele>252</ele>
        <time>2020-10-31T10:51:07.000Z</time>
      </trkpt>
      <trkpt lat="49.74344" lon="4.84966">
        <ele>253</ele>
        <time>2020-10-31T10:51:08.000Z</time>
      </trkpt>
      <trkpt lat="49.74346" lon="4.84964">
        <ele>253</ele>
        <time>2020-10-31T10:51:09.000Z</time>
      </trkpt>
      <trkpt lat="49.74347" lon="4.84963">
        <ele>253</ele>
        <time>2020-10-31T10:51:10.000Z</time>
      </trkpt>
      <trkpt lat="49.74349" lon="4.84961">
        <ele>253</ele>
        <time>2020-10-31T10:51:11.000Z</time>
      </trkpt>
      <trkpt lat="49.74351" lon="4.84959">
        <ele>253</ele>
        <time>2020-10-31T10:51:12.000Z</time>
      </trkpt>
      <trkpt lat="49.74352" lon="4.84957">
        <ele>254</ele>
        <time>2020-10-31T10:51:13.000Z</time>
      </trkpt>
      <trkpt lat="49.74353" lon="4.84957">
        <ele>254</ele>
        <time>2020-10-31T10:51:14.000Z</time>
      </trkpt>
      <trkpt lat="49.74354" lon="4.84957">
        <ele>254</ele>
        <time>2020-10-31T10:51:15.000Z</time>
      </trkpt>
      <trkpt lat="49.74355" lon="4.84956">
        <ele>254</ele>
        <time>2020-10-31T10:51:16.000Z</time>
      </trkpt>
      <trkpt lat="49.74355" lon="4.84956">
        <ele>254</ele>
        <time>2020-10-31T10:51:17.000Z</time>
      </trkpt>
      <trkpt lat="49.74356" lon="4.84956">
        <ele>255</ele>
        <time>2020-10-31T10:51:18.000Z</time>
      </trkpt>
      <trkpt lat="49.74357" lon="4.84956">
        <ele>255</ele>
        <time>2020-10-31T10:51:19.000Z</time>
      </trkpt>
      <trkpt lat="49.74357" lon="4.84956">
        <ele>255</ele>
        <time>2020-10-31T10:51:20.000Z</time>
      </trkpt>
      <trkpt lat="49.74358" lon="4.84956">
        <ele>256</ele>
        <time>2020-10-31T10:51:21.000Z</time>
      </trkpt>
      <trkpt lat="49.74358" lon="4.84956">
        <ele>256</ele>
        <time>2020-10-31T10:51:22.000Z</time>
      </trkpt>
      <trkpt lat="49.74359" lon="4.84955">
        <ele>256</ele>
        <time>2020-10-31T10:51:23.000Z</time>
      </trkpt>
      <trkpt lat="49.74359" lon="4.84955">
        <ele>256</ele>
        <time>2020-10-31T10:51:24.000Z</time>
      </trkpt>
      <trkpt lat="49.7436" lon="4.84955">
        <ele>256</ele>
        <time>2020-10-31T10:51:25.000Z</time>
      </trkpt>
      <trkpt lat="49.7436" lon="4.84955">
        <ele>257</ele>
        <time>2020-10-31T10:51:26.000Z</time>
      </trkpt>
      <trkpt lat="49.74361" lon="4.84955">
        <ele>257</ele>
        <time>2020-10-31T10:51:27.000Z</time>
      </trkpt>
      <trkpt lat="49.74361" lon="4.84955">
        <ele>257</ele>
        <time>2020-10-31T10:51:28.000Z</time>
      </trkpt>
      <trkpt lat="49.74361" lon="4.84955">
        <ele>257</ele>
        <time>2020-10-31T10:51:29.000Z</time>
      </trkpt>
      <trkpt lat="49.74361" lon="4.84954">
        <ele>257</ele>
        <time>2020-10-31T10:51:30.000Z</time>
      </trkpt>
      <trkpt lat="49.74362" lon="4.84954">
        <ele>257</ele>
        <time>2020-10-31T10:51:31.000Z</time>
      </trkpt>
      <trkpt lat="49.74362" lon="4.84954">
        <ele>257</ele>
        <time>2020-10-31T10:51:32.000Z</time>
      </trkpt>
      <trkpt lat="49.74362" lon="4.84954">
        <ele>258</ele>
        <time>2020-10-31T10:51:33.000Z</time>
      </trkpt>
      <trkpt lat="49.74362" lon="4.84954">
        <ele>258</ele>
        <time>2020-10-31T10:51:34.000Z</time>
      </trkpt>
      <trkpt lat="49.74362" lon="4.84954">
        <ele>258</ele>
        <time>2020-10-31T10:51:35.000Z</time>
      </trkpt>
      <trkpt lat="49.74363" lon="4.84954">
        <ele>258</ele>
        <time>2020-10-31T10:51:36.000Z</time>
      </trkpt>
      <trkpt lat="49.74363" lon="4.84954">
        <ele>258</ele>
        <time>2020-10-31T10:51:37.000Z</time>
      </trkpt>
      <trkpt lat="49.74363" lon="4.84954">
        <ele>258</ele>
        <time>2020-10-31T10:51:38.000Z</time>
      </trkpt>
      <trkpt lat="49.74363" lon="4.84953">
        <ele>258</ele>
        <time>2020-10-31T10:51:39.000Z</time>
      </trkpt>
      <trkpt lat="49.74363" lon="4.84953">
        <ele>258</ele>
        <time>2020-10-31T10:51:40.000Z</time>
      </trkpt>
      <trkpt lat="49.74363" lon="4.84953">
        <ele>258</ele>
        <time>2020-10-31T10:51:41.000Z</time>
      </trkpt>
      <trkpt lat="49.74363" lon="4.84953">
        <ele>258</ele>
        <time>2020-10-31T10:51:42.000Z</time>
      </trkpt>
      <trkpt lat="49.74363" lon="4.84953">
        <ele>258</ele>
        <time>2020-10-31T10:51:43.000Z</time>
      </trkpt>
      <trkpt lat="49.74363" lon="4.84953">
        <ele>258</ele>
        <time>2020-10-31T10:51:44.000Z</time>
      </trkpt>
      <trkpt lat="49.74363" lon="4.84953">
        <ele>258</ele>
        <time>2020-10-31T10:51:45.000Z</time>
      </trkpt>
      <trkpt lat="49.74364" lon="4.84953">
        <ele>258</ele>
        <time>2020-10-31T10:51:46.000Z</time>
      </trkpt>
      <trkpt lat="49.74364" lon="4.84953">
        <ele>259</ele>
        <time>2020-10-31T10:51:47.000Z</time>
      </trkpt>
      <trkpt lat="49.74364" lon="4.84953">
        <ele>259</ele>
        <time>2020-10-31T10:51:48.000Z</time>
      </trkpt>
      <trkpt lat="49.74364" lon="4.84953">
        <ele>259</ele>
        <time>2020-10-31T10:51:49.000Z</time>
      </trkpt>
      <trkpt lat="49.74364" lon="4.84953">
        <ele>259</ele>
        <time>2020-10-31T10:51:50.000Z</time>
      </trkpt>
      <trkpt lat="49.74364" lon="4.84953">
        <ele>259</ele>
        <time>2020-10-31T10:51:51.000Z</time>
      </trkpt>
      <trkpt lat="49.74364" lon="4.84953">
        <ele>259</ele>
        <time>2020-10-31T10:51:52.000Z</time>
      </trkpt>
      <trkpt lat="49.74364" lon="4.84953">
        <ele>259</ele>
        <time>2020-10-31T10:51:53.000Z</time>
      </trkpt>
      <trkpt lat="49.74364" lon="4.84953">
        <ele>259</ele>
        <time>2020-10-31T10:51:54.000Z</time>
      </trkpt>
      <trkpt lat="49.74364" lon="4.84952">
        <ele>259</ele>
        <time>2020-10-31T10:51:55.000Z</time>
      </trkpt>
      <trkpt lat="49.74364" lon="4.84953">
        <ele>259</ele>
        <time>2020-10-31T10:51:56.000Z</time>
      </trkpt>
      <trkpt lat="49.74364" lon="4.84953">
        <ele>259</ele>
        <time>2020-10-31T10:51:57.000Z</time>
      </trkpt>
      <trkpt lat="49.74364" lon="4.84953">
        <ele>259</ele>
        <time>2020-10-31T10:51:58.000Z</time>
      </trkpt>
      <trkpt lat="49.74365" lon="4.84953">
        <ele>259</ele>
        <time>2020-10-31T10:51:59.000Z</time>
      </trkpt>
      <trkpt lat="49.74365" lon="4.84953">
        <ele>259</ele>
        <time>2020-10-31T10:52:00.000Z</time>
      </trkpt>
      <trkpt lat="49.74365" lon="4.84953">
        <ele>259</ele>
        <time>2020-10-31T10:52:01.000Z</time>
      </trkpt>
      <trkpt lat="49.74365" lon="4.84953">
        <ele>259</ele>
        <time>2020-10-31T10:52:02.000Z</time>
      </trkpt>
      <trkpt lat="49.74365" lon="4.84953">
        <ele>259</ele>
        <time>2020-10-31T10:52:03.000Z</time>
      </trkpt>
      <trkpt lat="49.74365" lon="4.84953">
        <ele>259</ele>
        <time>2020-10-31T10:52:04.000Z</time>
      </trkpt>
      <trkpt lat="49.74365" lon="4.84953">
        <ele>259</ele>
        <time>2020-10-31T10:52:05.000Z</time>
      </trkpt>
      <trkpt lat="49.74365" lon="4.84953">
        <ele>259</ele>
        <time>2020-10-31T10:52:06.000Z</time>
      </trkpt>
      <trkpt lat="49.74365" lon="4.84953">
        <ele>259</ele>
        <time>2020-10-31T10:52:07.000Z</time>
      </trkpt>
      <trkpt lat="49.74365" lon="4.84952">
        <ele>259</ele>
        <time>2020-10-31T10:52:08.000Z</time>
      </trkpt>
      <trkpt lat="49.74366" lon="4.84952">
        <ele>259</ele>
        <time>2020-10-31T10:52:09.000Z</time>
      </trkpt>
      <trkpt lat="49.74367" lon="4.84952">
        <ele>259</ele>
        <time>2020-10-31T10:52:10.000Z</time>
      </trkpt>
      <trkpt lat="49.74367" lon="4.84951">
        <ele>259</ele>
        <time>2020-10-31T10:52:11.000Z</time>
      </trkpt>
      <trkpt lat="49.74368" lon="4.8495">
        <ele>259</ele>
        <time>2020-10-31T10:52:12.000Z</time>
      </trkpt>
      <trkpt lat="49.74369" lon="4.8495">
        <ele>259</ele>
        <time>2020-10-31T10:52:13.000Z</time>
      </trkpt>
      <trkpt lat="49.74369" lon="4.8495">
        <ele>259</ele>
        <time>2020-10-31T10:52:14.000Z</time>
      </trkpt>
      <trkpt lat="49.7437" lon="4.84949">
        <ele>259</ele>
        <time>2020-10-31T10:52:15.000Z</time>
      </trkpt>
      <trkpt lat="49.74371" lon="4.84948">
        <ele>259</ele>
        <time>2020-10-31T10:52:16.000Z</time>
      </trkpt>
      <trkpt lat="49.74373" lon="4.84947">
        <ele>259</ele>
        <time>2020-10-31T10:52:17.000Z</time>
      </trkpt>
      <trkpt lat="49.74375" lon="4.84945">
        <ele>259</ele>
        <time>2020-10-31T10:52:18.000Z</time>
      </trkpt>
      <trkpt lat="49.74378" lon="4.84944">
        <ele>259</ele>
        <time>2020-10-31T10:52:19.000Z</time>
      </trkpt>
      <trkpt lat="49.7438" lon="4.84943">
        <ele>259</ele>
        <time>2020-10-31T10:52:20.000Z</time>
      </trkpt>
      <trkpt lat="49.74382" lon="4.84942">
        <ele>259</ele>
        <time>2020-10-31T10:52:21.000Z</time>
      </trkpt>
      <trkpt lat="49.74384" lon="4.84941">
        <ele>259</ele>
        <time>2020-10-31T10:52:22.000Z</time>
      </trkpt>
      <trkpt lat="49.74388" lon="4.84939">
        <ele>259</ele>
        <time>2020-10-31T10:52:23.000Z</time>
      </trkpt>
      <trkpt lat="49.7439" lon="4.84938">
        <ele>259</ele>
        <time>2020-10-31T10:52:24.000Z</time>
      </trkpt>
      <trkpt lat="49.74392" lon="4.84937">
        <ele>259</ele>
        <time>2020-10-31T10:52:25.000Z</time>
      </trkpt>
      <trkpt lat="49.74395" lon="4.84937">
        <ele>259</ele>
        <time>2020-10-31T10:52:26.000Z</time>
      </trkpt>
      <trkpt lat="49.74398" lon="4.84936">
        <ele>259</ele>
        <time>2020-10-31T10:52:27.000Z</time>
      </trkpt>
      <trkpt lat="49.744" lon="4.84935">
        <ele>259</ele>
        <time>2020-10-31T10:52:28.000Z</time>
      </trkpt>
      <trkpt lat="49.74403" lon="4.84934">
        <ele>259</ele>
        <time>2020-10-31T10:52:29.000Z</time>
      </trkpt>
      <trkpt lat="49.74406" lon="4.84933">
        <ele>259</ele>
        <time>2020-10-31T10:52:30.000Z</time>
      </trkpt>
      <trkpt lat="49.74408" lon="4.84933">
        <ele>259</ele>
        <time>2020-10-31T10:52:31.000Z</time>
      </trkpt>
      <trkpt lat="49.7441" lon="4.84932">
        <ele>258</ele>
        <time>2020-10-31T10:52:32.000Z</time>
      </trkpt>
      <trkpt lat="49.74411" lon="4.84932">
        <ele>258</ele>
        <time>2020-10-31T10:52:33.000Z</time>
      </trkpt>
      <trkpt lat="49.74411" lon="4.84932">
        <ele>258</ele>
        <time>2020-10-31T10:52:34.000Z</time>
      </trkpt>
      <trkpt lat="49.74411" lon="4.84933">
        <ele>258</ele>
        <time>2020-10-31T10:52:35.000Z</time>
      </trkpt>
      <trkpt lat="49.74412" lon="4.84933">
        <ele>258</ele>
        <time>2020-10-31T10:52:36.000Z</time>
      </trkpt>
      <trkpt lat="49.74412" lon="4.84933">
        <ele>259</ele>
        <time>2020-10-31T10:52:37.000Z</time>
      </trkpt>
      <trkpt lat="49.74412" lon="4.84933">
        <ele>259</ele>
        <time>2020-10-31T10:52:38.000Z</time>
      </trkpt>
      <trkpt lat="49.74413" lon="4.84932">
        <ele>259</ele>
        <time>2020-10-31T10:52:39.000Z</time>
      </trkpt>
      <trkpt lat="49.74414" lon="4.84932">
        <ele>259</ele>
        <time>2020-10-31T10:52:40.000Z</time>
      </trkpt>
      <trkpt lat="49.74415" lon="4.84932">
        <ele>259</ele>
        <time>2020-10-31T10:52:41.000Z</time>
      </trkpt>
      <trkpt lat="49.74416" lon="4.84932">
        <ele>259</ele>
        <time>2020-10-31T10:52:42.000Z</time>
      </trkpt>
      <trkpt lat="49.74416" lon="4.84931">
        <ele>259</ele>
        <time>2020-10-31T10:52:43.000Z</time>
      </trkpt>
      <trkpt lat="49.74416" lon="4.84931">
        <ele>259</ele>
        <time>2020-10-31T10:52:44.000Z</time>
      </trkpt>
      <trkpt lat="49.74416" lon="4.84931">
        <ele>259</ele>
        <time>2020-10-31T10:52:45.000Z</time>
      </trkpt>
      <trkpt lat="49.74417" lon="4.84931">
        <ele>259</ele>
        <time>2020-10-31T10:52:46.000Z</time>
      </trkpt>
      <trkpt lat="49.74417" lon="4.84931">
        <ele>259</ele>
        <time>2020-10-31T10:52:47.000Z</time>
      </trkpt>
      <trkpt lat="49.74417" lon="4.84931">
        <ele>259</ele>
        <time>2020-10-31T10:52:48.000Z</time>
      </trkpt>
      <trkpt lat="49.74417" lon="4.84931">
        <ele>259</ele>
        <time>2020-10-31T10:52:49.000Z</time>
      </trkpt>
      <trkpt lat="49.74418" lon="4.84931">
        <ele>259</ele>
        <time>2020-10-31T10:52:50.000Z</time>
      </trkpt>
      <trkpt lat="49.74418" lon="4.8493">
        <ele>259</ele>
        <time>2020-10-31T10:52:51.000Z</time>
      </trkpt>
      <trkpt lat="49.74418" lon="4.8493">
        <ele>259</ele>
        <time>2020-10-31T10:52:52.000Z</time>
      </trkpt>
      <trkpt lat="49.74418" lon="4.8493">
        <ele>259</ele>
        <time>2020-10-31T10:52:53.000Z</time>
      </trkpt>
      <trkpt lat="49.74419" lon="4.8493">
        <ele>259</ele>
        <time>2020-10-31T10:52:54.000Z</time>
      </trkpt>
      <trkpt lat="49.74419" lon="4.8493">
        <ele>259</ele>
        <time>2020-10-31T10:52:55.000Z</time>
      </trkpt>
      <trkpt lat="49.74419" lon="4.8493">
        <ele>259</ele>
        <time>2020-10-31T10:52:56.000Z</time>
      </trkpt>
      <trkpt lat="49.74419" lon="4.8493">
        <ele>259</ele>
        <time>2020-10-31T10:52:57.000Z</time>
      </trkpt>
      <trkpt lat="49.74419" lon="4.8493">
        <ele>259</ele>
        <time>2020-10-31T10:52:58.000Z</time>
      </trkpt>
      <trkpt lat="49.74419" lon="4.8493">
        <ele>259</ele>
        <time>2020-10-31T10:52:59.000Z</time>
      </trkpt>
      <trkpt lat="49.74419" lon="4.8493">
        <ele>259</ele>
        <time>2020-10-31T10:53:00.000Z</time>
      </trkpt>
      <trkpt lat="49.74419" lon="4.8493">
        <ele>258</ele>
        <time>2020-10-31T10:53:01.000Z</time>
      </trkpt>
      <trkpt lat="49.74419" lon="4.84929">
        <ele>258</ele>
        <time>2020-10-31T10:53:02.000Z</time>
      </trkpt>
      <trkpt lat="49.74419" lon="4.84929">
        <ele>258</ele>
        <time>2020-10-31T10:53:03.000Z</time>
      </trkpt>
      <trkpt lat="49.74419" lon="4.84929">
        <ele>258</ele>
        <time>2020-10-31T10:53:04.000Z</time>
      </trkpt>
      <trkpt lat="49.74419" lon="4.84929">
        <ele>258</ele>
        <time>2020-10-31T10:53:05.000Z</time>
      </trkpt>
      <trkpt lat="49.74419" lon="4.84928">
        <ele>258</ele>
        <time>2020-10-31T10:53:06.000Z</time>
      </trkpt>
      <trkpt lat="49.7442" lon="4.84928">
        <ele>258</ele>
        <time>2020-10-31T10:53:07.000Z</time>
      </trkpt>
      <trkpt lat="49.7442" lon="4.84928">
        <ele>258</ele>
        <time>2020-10-31T10:53:08.000Z</time>
      </trkpt>
      <trkpt lat="49.74421" lon="4.84927">
        <ele>258</ele>
        <time>2020-10-31T10:53:09.000Z</time>
      </trkpt>
      <trkpt lat="49.74422" lon="4.84927">
        <ele>258</ele>
        <time>2020-10-31T10:53:10.000Z</time>
      </trkpt>
      <trkpt lat="49.74424" lon="4.84926">
        <ele>258</ele>
        <time>2020-10-31T10:53:11.000Z</time>
      </trkpt>
      <trkpt lat="49.74425" lon="4.84925">
        <ele>258</ele>
        <time>2020-10-31T10:53:12.000Z</time>
      </trkpt>
      <trkpt lat="49.74427" lon="4.84925">
        <ele>258</ele>
        <time>2020-10-31T10:53:13.000Z</time>
      </trkpt>
      <trkpt lat="49.74428" lon="4.84924">
        <ele>258</ele>
        <time>2020-10-31T10:53:14.000Z</time>
      </trkpt>
      <trkpt lat="49.7443" lon="4.84923">
        <ele>258</ele>
        <time>2020-10-31T10:53:15.000Z</time>
      </trkpt>
      <trkpt lat="49.74431" lon="4.84923">
        <ele>257</ele>
        <time>2020-10-31T10:53:16.000Z</time>
      </trkpt>
      <trkpt lat="49.74432" lon="4.84922">
        <ele>257</ele>
        <time>2020-10-31T10:53:17.000Z</time>
      </trkpt>
      <trkpt lat="49.74433" lon="4.84922">
        <ele>257</ele>
        <time>2020-10-31T10:53:18.000Z</time>
      </trkpt>
      <trkpt lat="49.74434" lon="4.84921">
        <ele>257</ele>
        <time>2020-10-31T10:53:19.000Z</time>
      </trkpt>
      <trkpt lat="49.74435" lon="4.8492">
        <ele>257</ele>
        <time>2020-10-31T10:53:20.000Z</time>
      </trkpt>
      <trkpt lat="49.74437" lon="4.8492">
        <ele>257</ele>
        <time>2020-10-31T10:53:21.000Z</time>
      </trkpt>
      <trkpt lat="49.74439" lon="4.84919">
        <ele>257</ele>
        <time>2020-10-31T10:53:22.000Z</time>
      </trkpt>
      <trkpt lat="49.74441" lon="4.84918">
        <ele>256</ele>
        <time>2020-10-31T10:53:23.000Z</time>
      </trkpt>
      <trkpt lat="49.74444" lon="4.84917">
        <ele>256</ele>
        <time>2020-10-31T10:53:24.000Z</time>
      </trkpt>
      <trkpt lat="49.74447" lon="4.84916">
        <ele>256</ele>
        <time>2020-10-31T10:53:25.000Z</time>
      </trkpt>
      <trkpt lat="49.7445" lon="4.84915">
        <ele>256</ele>
        <time>2020-10-31T10:53:26.000Z</time>
      </trkpt>
      <trkpt lat="49.74453" lon="4.84913">
        <ele>256</ele>
        <time>2020-10-31T10:53:27.000Z</time>
      </trkpt>
      <trkpt lat="49.74455" lon="4.84912">
        <ele>256</ele>
        <time>2020-10-31T10:53:28.000Z</time>
      </trkpt>
      <trkpt lat="49.74458" lon="4.84911">
        <ele>256</ele>
        <time>2020-10-31T10:53:29.000Z</time>
      </trkpt>
      <trkpt lat="49.74461" lon="4.8491">
        <ele>256</ele>
        <time>2020-10-31T10:53:30.000Z</time>
      </trkpt>
      <trkpt lat="49.74464" lon="4.84909">
        <ele>256</ele>
        <time>2020-10-31T10:53:31.000Z</time>
      </trkpt>
      <trkpt lat="49.74467" lon="4.84907">
        <ele>255</ele>
        <time>2020-10-31T10:53:32.000Z</time>
      </trkpt>
      <trkpt lat="49.7447" lon="4.84905">
        <ele>255</ele>
        <time>2020-10-31T10:53:33.000Z</time>
      </trkpt>
      <trkpt lat="49.74472" lon="4.84903">
        <ele>255</ele>
        <time>2020-10-31T10:53:34.000Z</time>
      </trkpt>
      <trkpt lat="49.74474" lon="4.84901">
        <ele>255</ele>
        <time>2020-10-31T10:53:35.000Z</time>
      </trkpt>
      <trkpt lat="49.74475" lon="4.84899">
        <ele>254</ele>
        <time>2020-10-31T10:53:36.000Z</time>
      </trkpt>
      <trkpt lat="49.74477" lon="4.84897">
        <ele>254</ele>
        <time>2020-10-31T10:53:37.000Z</time>
      </trkpt>
      <trkpt lat="49.74478" lon="4.84896">
        <ele>254</ele>
        <time>2020-10-31T10:53:38.000Z</time>
      </trkpt>
      <trkpt lat="49.7448" lon="4.84894">
        <ele>254</ele>
        <time>2020-10-31T10:53:39.000Z</time>
      </trkpt>
      <trkpt lat="49.74481" lon="4.84893">
        <ele>254</ele>
        <time>2020-10-31T10:53:40.000Z</time>
      </trkpt>
      <trkpt lat="49.74482" lon="4.84892">
        <ele>253</ele>
        <time>2020-10-31T10:53:41.000Z</time>
      </trkpt>
      <trkpt lat="49.74484" lon="4.8489">
        <ele>253</ele>
        <time>2020-10-31T10:53:42.000Z</time>
      </trkpt>
      <trkpt lat="49.74485" lon="4.84888">
        <ele>253</ele>
        <time>2020-10-31T10:53:43.000Z</time>
      </trkpt>
      <trkpt lat="49.74486" lon="4.84886">
        <ele>253</ele>
        <time>2020-10-31T10:53:44.000Z</time>
      </trkpt>
      <trkpt lat="49.74488" lon="4.84885">
        <ele>253</ele>
        <time>2020-10-31T10:53:45.000Z</time>
      </trkpt>
      <trkpt lat="49.74489" lon="4.84883">
        <ele>253</ele>
        <time>2020-10-31T10:53:46.000Z</time>
      </trkpt>
      <trkpt lat="49.7449" lon="4.84881">
        <ele>253</ele>
        <time>2020-10-31T10:53:47.000Z</time>
      </trkpt>
      <trkpt lat="49.74492" lon="4.84879">
        <ele>253</ele>
        <time>2020-10-31T10:53:48.000Z</time>
      </trkpt>
      <trkpt lat="49.74493" lon="4.84877">
        <ele>253</ele>
        <time>2020-10-31T10:53:49.000Z</time>
      </trkpt>
      <trkpt lat="49.74494" lon="4.84875">
        <ele>253</ele>
        <time>2020-10-31T10:53:50.000Z</time>
      </trkpt>
      <trkpt lat="49.74494" lon="4.84873">
        <ele>253</ele>
        <time>2020-10-31T10:53:51.000Z</time>
      </trkpt>
      <trkpt lat="49.74496" lon="4.84871">
        <ele>253</ele>
        <time>2020-10-31T10:53:52.000Z</time>
      </trkpt>
      <trkpt lat="49.74497" lon="4.84869">
        <ele>252</ele>
        <time>2020-10-31T10:53:53.000Z</time>
      </trkpt>
      <trkpt lat="49.74498" lon="4.84867">
        <ele>252</ele>
        <time>2020-10-31T10:53:54.000Z</time>
      </trkpt>
      <trkpt lat="49.745" lon="4.84865">
        <ele>252</ele>
        <time>2020-10-31T10:53:55.000Z</time>
      </trkpt>
      <trkpt lat="49.74501" lon="4.84862">
        <ele>253</ele>
        <time>2020-10-31T10:53:56.000Z</time>
      </trkpt>
      <trkpt lat="49.74502" lon="4.8486">
        <ele>253</ele>
        <time>2020-10-31T10:53:57.000Z</time>
      </trkpt>
      <trkpt lat="49.74503" lon="4.84858">
        <ele>253</ele>
        <time>2020-10-31T10:53:58.000Z</time>
      </trkpt>
      <trkpt lat="49.74505" lon="4.84856">
        <ele>253</ele>
        <time>2020-10-31T10:53:59.000Z</time>
      </trkpt>
      <trkpt lat="49.74507" lon="4.84853">
        <ele>253</ele>
        <time>2020-10-31T10:54:00.000Z</time>
      </trkpt>
      <trkpt lat="49.7451" lon="4.84851">
        <ele>253</ele>
        <time>2020-10-31T10:54:01.000Z</time>
      </trkpt>
      <trkpt lat="49.74512" lon="4.84849">
        <ele>253</ele>
        <time>2020-10-31T10:54:02.000Z</time>
      </trkpt>
      <trkpt lat="49.74515" lon="4.84847">
        <ele>253</ele>
        <time>2020-10-31T10:54:03.000Z</time>
      </trkpt>
      <trkpt lat="49.74517" lon="4.84845">
        <ele>253</ele>
        <time>2020-10-31T10:54:04.000Z</time>
      </trkpt>
      <trkpt lat="49.74518" lon="4.84843">
        <ele>253</ele>
        <time>2020-10-31T10:54:05.000Z</time>
      </trkpt>
      <trkpt lat="49.74519" lon="4.84841">
        <ele>253</ele>
        <time>2020-10-31T10:54:06.000Z</time>
      </trkpt>
      <trkpt lat="49.74521" lon="4.8484">
        <ele>253</ele>
        <time>2020-10-31T10:54:07.000Z</time>
      </trkpt>
      <trkpt lat="49.74523" lon="4.84839">
        <ele>254</ele>
        <time>2020-10-31T10:54:08.000Z</time>
      </trkpt>
      <trkpt lat="49.74525" lon="4.84837">
        <ele>254</ele>
        <time>2020-10-31T10:54:09.000Z</time>
      </trkpt>
      <trkpt lat="49.74527" lon="4.84836">
        <ele>254</ele>
        <time>2020-10-31T10:54:10.000Z</time>
      </trkpt>
      <trkpt lat="49.74529" lon="4.84835">
        <ele>254</ele>
        <time>2020-10-31T10:54:11.000Z</time>
      </trkpt>
      <trkpt lat="49.7453" lon="4.84834">
        <ele>254</ele>
        <time>2020-10-31T10:54:12.000Z</time>
      </trkpt>
      <trkpt lat="49.74532" lon="4.84833">
        <ele>254</ele>
        <time>2020-10-31T10:54:13.000Z</time>
      </trkpt>
      <trkpt lat="49.74533" lon="4.84832">
        <ele>254</ele>
        <time>2020-10-31T10:54:14.000Z</time>
      </trkpt>
      <trkpt lat="49.74535" lon="4.84832">
        <ele>254</ele>
        <time>2020-10-31T10:54:15.000Z</time>
      </trkpt>
      <trkpt lat="49.74537" lon="4.84831">
        <ele>254</ele>
        <time>2020-10-31T10:54:16.000Z</time>
      </trkpt>
      <trkpt lat="49.74538" lon="4.84831">
        <ele>254</ele>
        <time>2020-10-31T10:54:17.000Z</time>
      </trkpt>
      <trkpt lat="49.7454" lon="4.84831">
        <ele>254</ele>
        <time>2020-10-31T10:54:18.000Z</time>
      </trkpt>
      <trkpt lat="49.74541" lon="4.84831">
        <ele>255</ele>
        <time>2020-10-31T10:54:19.000Z</time>
      </trkpt>
      <trkpt lat="49.74543" lon="4.84831">
        <ele>255</ele>
        <time>2020-10-31T10:54:20.000Z</time>
      </trkpt>
      <trkpt lat="49.74545" lon="4.8483">
        <ele>255</ele>
        <time>2020-10-31T10:54:21.000Z</time>
      </trkpt>
      <trkpt lat="49.74547" lon="4.84831">
        <ele>255</ele>
        <time>2020-10-31T10:54:22.000Z</time>
      </trkpt>
      <trkpt lat="49.74548" lon="4.84832">
        <ele>255</ele>
        <time>2020-10-31T10:54:23.000Z</time>
      </trkpt>
      <trkpt lat="49.7455" lon="4.84832">
        <ele>255</ele>
        <time>2020-10-31T10:54:24.000Z</time>
      </trkpt>
      <trkpt lat="49.74551" lon="4.84832">
        <ele>255</ele>
        <time>2020-10-31T10:54:25.000Z</time>
      </trkpt>
      <trkpt lat="49.74552" lon="4.84832">
        <ele>255</ele>
        <time>2020-10-31T10:54:26.000Z</time>
      </trkpt>
      <trkpt lat="49.74553" lon="4.84832">
        <ele>255</ele>
        <time>2020-10-31T10:54:27.000Z</time>
      </trkpt>
      <trkpt lat="49.74554" lon="4.84831">
        <ele>256</ele>
        <time>2020-10-31T10:54:28.000Z</time>
      </trkpt>
      <trkpt lat="49.74554" lon="4.84832">
        <ele>256</ele>
        <time>2020-10-31T10:54:29.000Z</time>
      </trkpt>
      <trkpt lat="49.74554" lon="4.84831">
        <ele>256</ele>
        <time>2020-10-31T10:54:30.000Z</time>
      </trkpt>
      <trkpt lat="49.74555" lon="4.84832">
        <ele>256</ele>
        <time>2020-10-31T10:54:31.000Z</time>
      </trkpt>
      <trkpt lat="49.74555" lon="4.84832">
        <ele>256</ele>
        <time>2020-10-31T10:54:32.000Z</time>
      </trkpt>
      <trkpt lat="49.74555" lon="4.84832">
        <ele>256</ele>
        <time>2020-10-31T10:54:33.000Z</time>
      </trkpt>
      <trkpt lat="49.74556" lon="4.84832">
        <ele>256</ele>
        <time>2020-10-31T10:54:34.000Z</time>
      </trkpt>
      <trkpt lat="49.74556" lon="4.84832">
        <ele>256</ele>
        <time>2020-10-31T10:54:35.000Z</time>
      </trkpt>
      <trkpt lat="49.74557" lon="4.84833">
        <ele>256</ele>
        <time>2020-10-31T10:54:36.000Z</time>
      </trkpt>
      <trkpt lat="49.74557" lon="4.84833">
        <ele>256</ele>
        <time>2020-10-31T10:54:37.000Z</time>
      </trkpt>
      <trkpt lat="49.74557" lon="4.84833">
        <ele>256</ele>
        <time>2020-10-31T10:54:38.000Z</time>
      </trkpt>
      <trkpt lat="49.74558" lon="4.84834">
        <ele>256</ele>
        <time>2020-10-31T10:54:39.000Z</time>
      </trkpt>
      <trkpt lat="49.74558" lon="4.84834">
        <ele>256</ele>
        <time>2020-10-31T10:54:40.000Z</time>
      </trkpt>
      <trkpt lat="49.74558" lon="4.84834">
        <ele>256</ele>
        <time>2020-10-31T10:54:41.000Z</time>
      </trkpt>
      <trkpt lat="49.74558" lon="4.84835">
        <ele>256</ele>
        <time>2020-10-31T10:54:42.000Z</time>
      </trkpt>
      <trkpt lat="49.74558" lon="4.84835">
        <ele>256</ele>
        <time>2020-10-31T10:54:43.000Z</time>
      </trkpt>
      <trkpt lat="49.74559" lon="4.84836">
        <ele>256</ele>
        <time>2020-10-31T10:54:44.000Z</time>
      </trkpt>
      <trkpt lat="49.74561" lon="4.84837">
        <ele>256</ele>
        <time>2020-10-31T10:54:45.000Z</time>
      </trkpt>
      <trkpt lat="49.74562" lon="4.84837">
        <ele>256</ele>
        <time>2020-10-31T10:54:46.000Z</time>
      </trkpt>
      <trkpt lat="49.74564" lon="4.84838">
        <ele>256</ele>
        <time>2020-10-31T10:54:47.000Z</time>
      </trkpt>
      <trkpt lat="49.74566" lon="4.84839">
        <ele>256</ele>
        <time>2020-10-31T10:54:48.000Z</time>
      </trkpt>
      <trkpt lat="49.74567" lon="4.84839">
        <ele>256</ele>
        <time>2020-10-31T10:54:49.000Z</time>
      </trkpt>
      <trkpt lat="49.74569" lon="4.8484">
        <ele>256</ele>
        <time>2020-10-31T10:54:50.000Z</time>
      </trkpt>
      <trkpt lat="49.74571" lon="4.84841">
        <ele>256</ele>
        <time>2020-10-31T10:54:51.000Z</time>
      </trkpt>
      <trkpt lat="49.74573" lon="4.84841">
        <ele>256</ele>
        <time>2020-10-31T10:54:52.000Z</time>
      </trkpt>
      <trkpt lat="49.74575" lon="4.84841">
        <ele>256</ele>
        <time>2020-10-31T10:54:53.000Z</time>
      </trkpt>
      <trkpt lat="49.74577" lon="4.84841">
        <ele>256</ele>
        <time>2020-10-31T10:54:54.000Z</time>
      </trkpt>
      <trkpt lat="49.74579" lon="4.84841">
        <ele>256</ele>
        <time>2020-10-31T10:54:55.000Z</time>
      </trkpt>
      <trkpt lat="49.74581" lon="4.84842">
        <ele>256</ele>
        <time>2020-10-31T10:54:56.000Z</time>
      </trkpt>
      <trkpt lat="49.74583" lon="4.84842">
        <ele>256</ele>
        <time>2020-10-31T10:54:57.000Z</time>
      </trkpt>
      <trkpt lat="49.74586" lon="4.84842">
        <ele>256</ele>
        <time>2020-10-31T10:54:58.000Z</time>
      </trkpt>
      <trkpt lat="49.74588" lon="4.84842">
        <ele>256</ele>
        <time>2020-10-31T10:54:59.000Z</time>
      </trkpt>
      <trkpt lat="49.7459" lon="4.84842">
        <ele>256</ele>
        <time>2020-10-31T10:55:00.000Z</time>
      </trkpt>
      <trkpt lat="49.74593" lon="4.84842">
        <ele>256</ele>
        <time>2020-10-31T10:55:01.000Z</time>
      </trkpt>
      <trkpt lat="49.74595" lon="4.84842">
        <ele>256</ele>
        <time>2020-10-31T10:55:02.000Z</time>
      </trkpt>
      <trkpt lat="49.74597" lon="4.84842">
        <ele>256</ele>
        <time>2020-10-31T10:55:03.000Z</time>
      </trkpt>
      <trkpt lat="49.746" lon="4.84842">
        <ele>256</ele>
        <time>2020-10-31T10:55:04.000Z</time>
      </trkpt>
      <trkpt lat="49.74602" lon="4.84841">
        <ele>257</ele>
        <time>2020-10-31T10:55:05.000Z</time>
      </trkpt>
      <trkpt lat="49.74604" lon="4.84841">
        <ele>257</ele>
        <time>2020-10-31T10:55:06.000Z</time>
      </trkpt>
      <trkpt lat="49.74606" lon="4.84841">
        <ele>257</ele>
        <time>2020-10-31T10:55:07.000Z</time>
      </trkpt>
      <trkpt lat="49.74608" lon="4.8484">
        <ele>257</ele>
        <time>2020-10-31T10:55:08.000Z</time>
      </trkpt>
      <trkpt lat="49.74611" lon="4.8484">
        <ele>257</ele>
        <time>2020-10-31T10:55:09.000Z</time>
      </trkpt>
      <trkpt lat="49.74614" lon="4.84841">
        <ele>257</ele>
        <time>2020-10-31T10:55:10.000Z</time>
      </trkpt>
      <trkpt lat="49.74617" lon="4.8484">
        <ele>257</ele>
        <time>2020-10-31T10:55:11.000Z</time>
      </trkpt>
      <trkpt lat="49.74619" lon="4.8484">
        <ele>258</ele>
        <time>2020-10-31T10:55:12.000Z</time>
      </trkpt>
      <trkpt lat="49.74621" lon="4.8484">
        <ele>258</ele>
        <time>2020-10-31T10:55:13.000Z</time>
      </trkpt>
      <trkpt lat="49.74623" lon="4.8484">
        <ele>258</ele>
        <time>2020-10-31T10:55:14.000Z</time>
      </trkpt>
      <trkpt lat="49.74625" lon="4.8484">
        <ele>258</ele>
        <time>2020-10-31T10:55:15.000Z</time>
      </trkpt>
      <trkpt lat="49.74627" lon="4.8484">
        <ele>259</ele>
        <time>2020-10-31T10:55:16.000Z</time>
      </trkpt>
      <trkpt lat="49.7463" lon="4.84839">
        <ele>259</ele>
        <time>2020-10-31T10:55:17.000Z</time>
      </trkpt>
      <trkpt lat="49.74634" lon="4.84839">
        <ele>259</ele>
        <time>2020-10-31T10:55:18.000Z</time>
      </trkpt>
      <trkpt lat="49.74637" lon="4.84838">
        <ele>259</ele>
        <time>2020-10-31T10:55:19.000Z</time>
      </trkpt>
      <trkpt lat="49.7464" lon="4.84837">
        <ele>260</ele>
        <time>2020-10-31T10:55:20.000Z</time>
      </trkpt>
      <trkpt lat="49.74643" lon="4.84837">
        <ele>260</ele>
        <time>2020-10-31T10:55:21.000Z</time>
      </trkpt>
      <trkpt lat="49.74646" lon="4.84836">
        <ele>260</ele>
        <time>2020-10-31T10:55:22.000Z</time>
      </trkpt>
      <trkpt lat="49.74648" lon="4.84835">
        <ele>260</ele>
        <time>2020-10-31T10:55:23.000Z</time>
      </trkpt>
      <trkpt lat="49.74651" lon="4.84835">
        <ele>260</ele>
        <time>2020-10-31T10:55:24.000Z</time>
      </trkpt>
      <trkpt lat="49.74653" lon="4.84834">
        <ele>261</ele>
        <time>2020-10-31T10:55:25.000Z</time>
      </trkpt>
      <trkpt lat="49.74656" lon="4.84832">
        <ele>261</ele>
        <time>2020-10-31T10:55:26.000Z</time>
      </trkpt>
      <trkpt lat="49.74659" lon="4.84831">
        <ele>261</ele>
        <time>2020-10-31T10:55:27.000Z</time>
      </trkpt>
      <trkpt lat="49.74661" lon="4.84829">
        <ele>261</ele>
        <time>2020-10-31T10:55:28.000Z</time>
      </trkpt>
      <trkpt lat="49.74662" lon="4.84827">
        <ele>261</ele>
        <time>2020-10-31T10:55:29.000Z</time>
      </trkpt>
      <trkpt lat="49.74664" lon="4.84825">
        <ele>262</ele>
        <time>2020-10-31T10:55:30.000Z</time>
      </trkpt>
      <trkpt lat="49.74665" lon="4.84824">
        <ele>262</ele>
        <time>2020-10-31T10:55:31.000Z</time>
      </trkpt>
      <trkpt lat="49.74667" lon="4.84821">
        <ele>262</ele>
        <time>2020-10-31T10:55:32.000Z</time>
      </trkpt>
      <trkpt lat="49.74669" lon="4.84819">
        <ele>262</ele>
        <time>2020-10-31T10:55:33.000Z</time>
      </trkpt>
      <trkpt lat="49.74671" lon="4.84817">
        <ele>263</ele>
        <time>2020-10-31T10:55:34.000Z</time>
      </trkpt>
      <trkpt lat="49.74673" lon="4.84814">
        <ele>263</ele>
        <time>2020-10-31T10:55:35.000Z</time>
      </trkpt>
      <trkpt lat="49.74675" lon="4.84811">
        <ele>263</ele>
        <time>2020-10-31T10:55:36.000Z</time>
      </trkpt>
      <trkpt lat="49.74677" lon="4.84808">
        <ele>263</ele>
        <time>2020-10-31T10:55:37.000Z</time>
      </trkpt>
      <trkpt lat="49.74679" lon="4.84804">
        <ele>263</ele>
        <time>2020-10-31T10:55:38.000Z</time>
      </trkpt>
      <trkpt lat="49.7468" lon="4.84801">
        <ele>263</ele>
        <time>2020-10-31T10:55:39.000Z</time>
      </trkpt>
      <trkpt lat="49.74681" lon="4.84797">
        <ele>263</ele>
        <time>2020-10-31T10:55:40.000Z</time>
      </trkpt>
      <trkpt lat="49.74682" lon="4.84793">
        <ele>263</ele>
        <time>2020-10-31T10:55:41.000Z</time>
      </trkpt>
      <trkpt lat="49.74683" lon="4.84788">
        <ele>263</ele>
        <time>2020-10-31T10:55:42.000Z</time>
      </trkpt>
      <trkpt lat="49.74683" lon="4.84783">
        <ele>264</ele>
        <time>2020-10-31T10:55:43.000Z</time>
      </trkpt>
      <trkpt lat="49.74684" lon="4.84779">
        <ele>264</ele>
        <time>2020-10-31T10:55:44.000Z</time>
      </trkpt>
      <trkpt lat="49.74683" lon="4.84775">
        <ele>264</ele>
        <time>2020-10-31T10:55:45.000Z</time>
      </trkpt>
      <trkpt lat="49.74683" lon="4.84773">
        <ele>264</ele>
        <time>2020-10-31T10:55:46.000Z</time>
      </trkpt>
      <trkpt lat="49.74683" lon="4.84771">
        <ele>263</ele>
        <time>2020-10-31T10:55:47.000Z</time>
      </trkpt>
      <trkpt lat="49.74683" lon="4.84769">
        <ele>263</ele>
        <time>2020-10-31T10:55:48.000Z</time>
      </trkpt>
      <trkpt lat="49.74682" lon="4.84767">
        <ele>263</ele>
        <time>2020-10-31T10:55:49.000Z</time>
      </trkpt>
      <trkpt lat="49.74681" lon="4.84764">
        <ele>263</ele>
        <time>2020-10-31T10:55:50.000Z</time>
      </trkpt>
      <trkpt lat="49.7468" lon="4.84761">
        <ele>262</ele>
        <time>2020-10-31T10:55:51.000Z</time>
      </trkpt>
      <trkpt lat="49.74679" lon="4.84758">
        <ele>262</ele>
        <time>2020-10-31T10:55:52.000Z</time>
      </trkpt>
      <trkpt lat="49.74679" lon="4.84757">
        <ele>261</ele>
        <time>2020-10-31T10:55:53.000Z</time>
      </trkpt>
      <trkpt lat="49.74678" lon="4.84754">
        <ele>261</ele>
        <time>2020-10-31T10:55:54.000Z</time>
      </trkpt>
      <trkpt lat="49.74678" lon="4.8475">
        <ele>261</ele>
        <time>2020-10-31T10:55:55.000Z</time>
      </trkpt>
      <trkpt lat="49.74678" lon="4.84748">
        <ele>260</ele>
        <time>2020-10-31T10:55:56.000Z</time>
      </trkpt>
      <trkpt lat="49.74677" lon="4.84745">
        <ele>260</ele>
        <time>2020-10-31T10:55:57.000Z</time>
      </trkpt>
      <trkpt lat="49.74677" lon="4.84741">
        <ele>260</ele>
        <time>2020-10-31T10:55:58.000Z</time>
      </trkpt>
      <trkpt lat="49.74677" lon="4.84738">
        <ele>259</ele>
        <time>2020-10-31T10:55:59.000Z</time>
      </trkpt>
      <trkpt lat="49.74677" lon="4.84734">
        <ele>259</ele>
        <time>2020-10-31T10:56:00.000Z</time>
      </trkpt>
      <trkpt lat="49.74677" lon="4.84729">
        <ele>259</ele>
        <time>2020-10-31T10:56:01.000Z</time>
      </trkpt>
      <trkpt lat="49.74677" lon="4.84723">
        <ele>259</ele>
        <time>2020-10-31T10:56:02.000Z</time>
      </trkpt>
      <trkpt lat="49.74677" lon="4.84717">
        <ele>259</ele>
        <time>2020-10-31T10:56:03.000Z</time>
      </trkpt>
      <trkpt lat="49.74676" lon="4.84711">
        <ele>259</ele>
        <time>2020-10-31T10:56:04.000Z</time>
      </trkpt>
      <trkpt lat="49.74674" lon="4.84706">
        <ele>258</ele>
        <time>2020-10-31T10:56:05.000Z</time>
      </trkpt>
      <trkpt lat="49.74673" lon="4.84701">
        <ele>258</ele>
        <time>2020-10-31T10:56:06.000Z</time>
      </trkpt>
      <trkpt lat="49.74671" lon="4.84698">
        <ele>258</ele>
        <time>2020-10-31T10:56:07.000Z</time>
      </trkpt>
      <trkpt lat="49.7467" lon="4.84694">
        <ele>258</ele>
        <time>2020-10-31T10:56:08.000Z</time>
      </trkpt>
      <trkpt lat="49.74668" lon="4.84691">
        <ele>258</ele>
        <time>2020-10-31T10:56:09.000Z</time>
      </trkpt>
      <trkpt lat="49.74667" lon="4.84688">
        <ele>258</ele>
        <time>2020-10-31T10:56:10.000Z</time>
      </trkpt>
      <trkpt lat="49.74666" lon="4.84685">
        <ele>257</ele>
        <time>2020-10-31T10:56:11.000Z</time>
      </trkpt>
      <trkpt lat="49.74664" lon="4.84682">
        <ele>257</ele>
        <time>2020-10-31T10:56:12.000Z</time>
      </trkpt>
      <trkpt lat="49.74663" lon="4.84679">
        <ele>257</ele>
        <time>2020-10-31T10:56:13.000Z</time>
      </trkpt>
      <trkpt lat="49.74662" lon="4.84676">
        <ele>257</ele>
        <time>2020-10-31T10:56:14.000Z</time>
      </trkpt>
      <trkpt lat="49.74661" lon="4.84672">
        <ele>257</ele>
        <time>2020-10-31T10:56:15.000Z</time>
      </trkpt>
      <trkpt lat="49.7466" lon="4.84669">
        <ele>257</ele>
        <time>2020-10-31T10:56:16.000Z</time>
      </trkpt>
      <trkpt lat="49.74659" lon="4.84666">
        <ele>257</ele>
        <time>2020-10-31T10:56:17.000Z</time>
      </trkpt>
      <trkpt lat="49.74658" lon="4.84663">
        <ele>257</ele>
        <time>2020-10-31T10:56:18.000Z</time>
      </trkpt>
      <trkpt lat="49.74657" lon="4.8466">
        <ele>257</ele>
        <time>2020-10-31T10:56:19.000Z</time>
      </trkpt>
      <trkpt lat="49.74656" lon="4.84656">
        <ele>257</ele>
        <time>2020-10-31T10:56:20.000Z</time>
      </trkpt>
      <trkpt lat="49.74655" lon="4.84653">
        <ele>257</ele>
        <time>2020-10-31T10:56:21.000Z</time>
      </trkpt>
      <trkpt lat="49.74654" lon="4.8465">
        <ele>256</ele>
        <time>2020-10-31T10:56:22.000Z</time>
      </trkpt>
      <trkpt lat="49.74654" lon="4.84646">
        <ele>256</ele>
        <time>2020-10-31T10:56:23.000Z</time>
      </trkpt>
      <trkpt lat="49.74654" lon="4.84642">
        <ele>256</ele>
        <time>2020-10-31T10:56:24.000Z</time>
      </trkpt>
      <trkpt lat="49.74654" lon="4.84638">
        <ele>256</ele>
        <time>2020-10-31T10:56:25.000Z</time>
      </trkpt>
      <trkpt lat="49.74654" lon="4.84636">
        <ele>256</ele>
        <time>2020-10-31T10:56:26.000Z</time>
      </trkpt>
      <trkpt lat="49.74655" lon="4.84633">
        <ele>256</ele>
        <time>2020-10-31T10:56:27.000Z</time>
      </trkpt>
      <trkpt lat="49.74656" lon="4.84629">
        <ele>256</ele>
        <time>2020-10-31T10:56:28.000Z</time>
      </trkpt>
      <trkpt lat="49.74656" lon="4.84626">
        <ele>255</ele>
        <time>2020-10-31T10:56:29.000Z</time>
      </trkpt>
      <trkpt lat="49.74657" lon="4.84622">
        <ele>255</ele>
        <time>2020-10-31T10:56:30.000Z</time>
      </trkpt>
      <trkpt lat="49.74657" lon="4.84618">
        <ele>255</ele>
        <time>2020-10-31T10:56:31.000Z</time>
      </trkpt>
      <trkpt lat="49.74657" lon="4.84614">
        <ele>255</ele>
        <time>2020-10-31T10:56:32.000Z</time>
      </trkpt>
      <trkpt lat="49.74658" lon="4.84611">
        <ele>255</ele>
        <time>2020-10-31T10:56:33.000Z</time>
      </trkpt>
      <trkpt lat="49.74658" lon="4.84608">
        <ele>255</ele>
        <time>2020-10-31T10:56:34.000Z</time>
      </trkpt>
      <trkpt lat="49.74659" lon="4.84606">
        <ele>255</ele>
        <time>2020-10-31T10:56:35.000Z</time>
      </trkpt>
      <trkpt lat="49.7466" lon="4.84603">
        <ele>255</ele>
        <time>2020-10-31T10:56:36.000Z</time>
      </trkpt>
      <trkpt lat="49.7466" lon="4.84599">
        <ele>255</ele>
        <time>2020-10-31T10:56:37.000Z</time>
      </trkpt>
      <trkpt lat="49.74661" lon="4.84595">
        <ele>255</ele>
        <time>2020-10-31T10:56:38.000Z</time>
      </trkpt>
      <trkpt lat="49.74662" lon="4.84592">
        <ele>255</ele>
        <time>2020-10-31T10:56:39.000Z</time>
      </trkpt>
      <trkpt lat="49.74663" lon="4.84587">
        <ele>255</ele>
        <time>2020-10-31T10:56:40.000Z</time>
      </trkpt>
      <trkpt lat="49.74664" lon="4.84583">
        <ele>255</ele>
        <time>2020-10-31T10:56:41.000Z</time>
      </trkpt>
      <trkpt lat="49.74664" lon="4.84579">
        <ele>255</ele>
        <time>2020-10-31T10:56:42.000Z</time>
      </trkpt>
      <trkpt lat="49.74665" lon="4.84575">
        <ele>254</ele>
        <time>2020-10-31T10:56:43.000Z</time>
      </trkpt>
      <trkpt lat="49.74665" lon="4.84571">
        <ele>254</ele>
        <time>2020-10-31T10:56:44.000Z</time>
      </trkpt>
      <trkpt lat="49.74665" lon="4.84567">
        <ele>254</ele>
        <time>2020-10-31T10:56:45.000Z</time>
      </trkpt>
      <trkpt lat="49.74665" lon="4.84564">
        <ele>254</ele>
        <time>2020-10-31T10:56:46.000Z</time>
      </trkpt>
      <trkpt lat="49.74665" lon="4.84562">
        <ele>254</ele>
        <time>2020-10-31T10:56:47.000Z</time>
      </trkpt>
      <trkpt lat="49.74665" lon="4.8456">
        <ele>254</ele>
        <time>2020-10-31T10:56:48.000Z</time>
      </trkpt>
      <trkpt lat="49.74665" lon="4.84557">
        <ele>254</ele>
        <time>2020-10-31T10:56:49.000Z</time>
      </trkpt>
      <trkpt lat="49.74665" lon="4.84555">
        <ele>254</ele>
        <time>2020-10-31T10:56:50.000Z</time>
      </trkpt>
      <trkpt lat="49.74665" lon="4.84553">
        <ele>254</ele>
        <time>2020-10-31T10:56:51.000Z</time>
      </trkpt>
      <trkpt lat="49.74664" lon="4.8455">
        <ele>254</ele>
        <time>2020-10-31T10:56:52.000Z</time>
      </trkpt>
      <trkpt lat="49.74663" lon="4.84547">
        <ele>254</ele>
        <time>2020-10-31T10:56:53.000Z</time>
      </trkpt>
      <trkpt lat="49.74662" lon="4.84543">
        <ele>254</ele>
        <time>2020-10-31T10:56:54.000Z</time>
      </trkpt>
      <trkpt lat="49.7466" lon="4.8454">
        <ele>254</ele>
        <time>2020-10-31T10:56:55.000Z</time>
      </trkpt>
      <trkpt lat="49.74659" lon="4.84537">
        <ele>254</ele>
        <time>2020-10-31T10:56:56.000Z</time>
      </trkpt>
      <trkpt lat="49.74658" lon="4.84533">
        <ele>253</ele>
        <time>2020-10-31T10:56:57.000Z</time>
      </trkpt>
      <trkpt lat="49.74656" lon="4.84528">
        <ele>253</ele>
        <time>2020-10-31T10:56:58.000Z</time>
      </trkpt>
      <trkpt lat="49.74654" lon="4.84524">
        <ele>253</ele>
        <time>2020-10-31T10:56:59.000Z</time>
      </trkpt>
      <trkpt lat="49.74653" lon="4.8452">
        <ele>253</ele>
        <time>2020-10-31T10:57:00.000Z</time>
      </trkpt>
      <trkpt lat="49.74651" lon="4.84516">
        <ele>253</ele>
        <time>2020-10-31T10:57:01.000Z</time>
      </trkpt>
      <trkpt lat="49.7465" lon="4.84512">
        <ele>253</ele>
        <time>2020-10-31T10:57:02.000Z</time>
      </trkpt>
      <trkpt lat="49.74649" lon="4.84508">
        <ele>253</ele>
        <time>2020-10-31T10:57:03.000Z</time>
      </trkpt>
      <trkpt lat="49.74648" lon="4.84504">
        <ele>253</ele>
        <time>2020-10-31T10:57:04.000Z</time>
      </trkpt>
      <trkpt lat="49.74648" lon="4.845">
        <ele>253</ele>
        <time>2020-10-31T10:57:05.000Z</time>
      </trkpt>
      <trkpt lat="49.74647" lon="4.84498">
        <ele>253</ele>
        <time>2020-10-31T10:57:06.000Z</time>
      </trkpt>
      <trkpt lat="49.74647" lon="4.84495">
        <ele>253</ele>
        <time>2020-10-31T10:57:07.000Z</time>
      </trkpt>
      <trkpt lat="49.74646" lon="4.84491">
        <ele>253</ele>
        <time>2020-10-31T10:57:08.000Z</time>
      </trkpt>
      <trkpt lat="49.74645" lon="4.84488">
        <ele>253</ele>
        <time>2020-10-31T10:57:09.000Z</time>
      </trkpt>
      <trkpt lat="49.74645" lon="4.84485">
        <ele>253</ele>
        <time>2020-10-31T10:57:10.000Z</time>
      </trkpt>
      <trkpt lat="49.74644" lon="4.84482">
        <ele>253</ele>
        <time>2020-10-31T10:57:11.000Z</time>
      </trkpt>
      <trkpt lat="49.74643" lon="4.84478">
        <ele>253</ele>
        <time>2020-10-31T10:57:12.000Z</time>
      </trkpt>
      <trkpt lat="49.74641" lon="4.84474">
        <ele>253</ele>
        <time>2020-10-31T10:57:13.000Z</time>
      </trkpt>
      <trkpt lat="49.7464" lon="4.84471">
        <ele>253</ele>
        <time>2020-10-31T10:57:14.000Z</time>
      </trkpt>
      <trkpt lat="49.74639" lon="4.84467">
        <ele>253</ele>
        <time>2020-10-31T10:57:15.000Z</time>
      </trkpt>
      <trkpt lat="49.74638" lon="4.84464">
        <ele>253</ele>
        <time>2020-10-31T10:57:16.000Z</time>
      </trkpt>
      <trkpt lat="49.74637" lon="4.8446">
        <ele>253</ele>
        <time>2020-10-31T10:57:17.000Z</time>
      </trkpt>
      <trkpt lat="49.74636" lon="4.84457">
        <ele>253</ele>
        <time>2020-10-31T10:57:18.000Z</time>
      </trkpt>
      <trkpt lat="49.74636" lon="4.84455">
        <ele>253</ele>
        <time>2020-10-31T10:57:19.000Z</time>
      </trkpt>
      <trkpt lat="49.74635" lon="4.84453">
        <ele>253</ele>
        <time>2020-10-31T10:57:20.000Z</time>
      </trkpt>
      <trkpt lat="49.74634" lon="4.84451">
        <ele>253</ele>
        <time>2020-10-31T10:57:21.000Z</time>
      </trkpt>
      <trkpt lat="49.74633" lon="4.84449">
        <ele>253</ele>
        <time>2020-10-31T10:57:22.000Z</time>
      </trkpt>
      <trkpt lat="49.74633" lon="4.84447">
        <ele>253</ele>
        <time>2020-10-31T10:57:23.000Z</time>
      </trkpt>
      <trkpt lat="49.74632" lon="4.84445">
        <ele>253</ele>
        <time>2020-10-31T10:57:24.000Z</time>
      </trkpt>
      <trkpt lat="49.74631" lon="4.84442">
        <ele>253</ele>
        <time>2020-10-31T10:57:25.000Z</time>
      </trkpt>
      <trkpt lat="49.7463" lon="4.8444">
        <ele>253</ele>
        <time>2020-10-31T10:57:26.000Z</time>
      </trkpt>
      <trkpt lat="49.74628" lon="4.84438">
        <ele>253</ele>
        <time>2020-10-31T10:57:27.000Z</time>
      </trkpt>
      <trkpt lat="49.74627" lon="4.84435">
        <ele>253</ele>
        <time>2020-10-31T10:57:28.000Z</time>
      </trkpt>
      <trkpt lat="49.74625" lon="4.84433">
        <ele>253</ele>
        <time>2020-10-31T10:57:29.000Z</time>
      </trkpt>
      <trkpt lat="49.74624" lon="4.84431">
        <ele>253</ele>
        <time>2020-10-31T10:57:30.000Z</time>
      </trkpt>
      <trkpt lat="49.74622" lon="4.84429">
        <ele>253</ele>
        <time>2020-10-31T10:57:31.000Z</time>
      </trkpt>
      <trkpt lat="49.74621" lon="4.84427">
        <ele>253</ele>
        <time>2020-10-31T10:57:32.000Z</time>
      </trkpt>
      <trkpt lat="49.74619" lon="4.84425">
        <ele>253</ele>
        <time>2020-10-31T10:57:33.000Z</time>
      </trkpt>
      <trkpt lat="49.74617" lon="4.84423">
        <ele>253</ele>
        <time>2020-10-31T10:57:34.000Z</time>
      </trkpt>
      <trkpt lat="49.74615" lon="4.84422">
        <ele>253</ele>
        <time>2020-10-31T10:57:35.000Z</time>
      </trkpt>
      <trkpt lat="49.74612" lon="4.84421">
        <ele>253</ele>
        <time>2020-10-31T10:57:36.000Z</time>
      </trkpt>
      <trkpt lat="49.7461" lon="4.8442">
        <ele>253</ele>
        <time>2020-10-31T10:57:37.000Z</time>
      </trkpt>
      <trkpt lat="49.74608" lon="4.84419">
        <ele>253</ele>
        <time>2020-10-31T10:57:38.000Z</time>
      </trkpt>
      <trkpt lat="49.74607" lon="4.84418">
        <ele>253</ele>
        <time>2020-10-31T10:57:39.000Z</time>
      </trkpt>
      <trkpt lat="49.74605" lon="4.84418">
        <ele>253</ele>
        <time>2020-10-31T10:57:40.000Z</time>
      </trkpt>
      <trkpt lat="49.74604" lon="4.84418">
        <ele>253</ele>
        <time>2020-10-31T10:57:41.000Z</time>
      </trkpt>
      <trkpt lat="49.74604" lon="4.84417">
        <ele>253</ele>
        <time>2020-10-31T10:57:42.000Z</time>
      </trkpt>
      <trkpt lat="49.74603" lon="4.84417">
        <ele>253</ele>
        <time>2020-10-31T10:57:43.000Z</time>
      </trkpt>
      <trkpt lat="49.74602" lon="4.84418">
        <ele>253</ele>
        <time>2020-10-31T10:57:44.000Z</time>
      </trkpt>
      <trkpt lat="49.746" lon="4.84417">
        <ele>254</ele>
        <time>2020-10-31T10:57:45.000Z</time>
      </trkpt>
      <trkpt lat="49.74599" lon="4.84417">
        <ele>254</ele>
        <time>2020-10-31T10:57:46.000Z</time>
      </trkpt>
      <trkpt lat="49.74599" lon="4.84417">
        <ele>253</ele>
        <time>2020-10-31T10:57:47.000Z</time>
      </trkpt>
      <trkpt lat="49.74598" lon="4.84416">
        <ele>253</ele>
        <time>2020-10-31T10:57:48.000Z</time>
      </trkpt>
      <trkpt lat="49.74598" lon="4.84416">
        <ele>253</ele>
        <time>2020-10-31T10:57:49.000Z</time>
      </trkpt>
      <trkpt lat="49.74598" lon="4.84416">
        <ele>253</ele>
        <time>2020-10-31T10:57:50.000Z</time>
      </trkpt>
      <trkpt lat="49.74597" lon="4.84416">
        <ele>253</ele>
        <time>2020-10-31T10:57:51.000Z</time>
      </trkpt>
      <trkpt lat="49.74597" lon="4.84416">
        <ele>253</ele>
        <time>2020-10-31T10:57:52.000Z</time>
      </trkpt>
      <trkpt lat="49.74597" lon="4.84416">
        <ele>253</ele>
        <time>2020-10-31T10:57:53.000Z</time>
      </trkpt>
      <trkpt lat="49.74597" lon="4.84416">
        <ele>253</ele>
        <time>2020-10-31T10:57:54.000Z</time>
      </trkpt>
      <trkpt lat="49.74596" lon="4.84416">
        <ele>253</ele>
        <time>2020-10-31T10:57:55.000Z</time>
      </trkpt>
      <trkpt lat="49.74597" lon="4.84416">
        <ele>253</ele>
        <time>2020-10-31T10:57:56.000Z</time>
      </trkpt>
      <trkpt lat="49.74596" lon="4.84415">
        <ele>253</ele>
        <time>2020-10-31T10:57:57.000Z</time>
      </trkpt>
      <trkpt lat="49.74596" lon="4.84415">
        <ele>253</ele>
        <time>2020-10-31T10:57:58.000Z</time>
      </trkpt>
      <trkpt lat="49.74596" lon="4.84415">
        <ele>253</ele>
        <time>2020-10-31T10:57:59.000Z</time>
      </trkpt>
      <trkpt lat="49.74596" lon="4.84415">
        <ele>253</ele>
        <time>2020-10-31T10:58:00.000Z</time>
      </trkpt>
      <trkpt lat="49.74596" lon="4.84415">
        <ele>253</ele>
        <time>2020-10-31T10:58:01.000Z</time>
      </trkpt>
      <trkpt lat="49.74596" lon="4.84415">
        <ele>253</ele>
        <time>2020-10-31T10:58:02.000Z</time>
      </trkpt>
      <trkpt lat="49.74595" lon="4.84415">
        <ele>253</ele>
        <time>2020-10-31T10:58:03.000Z</time>
      </trkpt>
      <trkpt lat="49.74595" lon="4.84414">
        <ele>254</ele>
        <time>2020-10-31T10:58:04.000Z</time>
      </trkpt>
      <trkpt lat="49.74595" lon="4.84414">
        <ele>254</ele>
        <time>2020-10-31T10:58:05.000Z</time>
      </trkpt>
      <trkpt lat="49.74595" lon="4.84414">
        <ele>254</ele>
        <time>2020-10-31T10:58:06.000Z</time>
      </trkpt>
      <trkpt lat="49.74595" lon="4.84414">
        <ele>254</ele>
        <time>2020-10-31T10:58:07.000Z</time>
      </trkpt>
      <trkpt lat="49.74595" lon="4.84414">
        <ele>254</ele>
        <time>2020-10-31T10:58:08.000Z</time>
      </trkpt>
      <trkpt lat="49.74594" lon="4.84414">
        <ele>254</ele>
        <time>2020-10-31T10:58:09.000Z</time>
      </trkpt>
      <trkpt lat="49.74594" lon="4.84414">
        <ele>254</ele>
        <time>2020-10-31T10:58:10.000Z</time>
      </trkpt>
      <trkpt lat="49.74594" lon="4.84414">
        <ele>254</ele>
        <time>2020-10-31T10:58:11.000Z</time>
      </trkpt>
      <trkpt lat="49.74594" lon="4.84414">
        <ele>254</ele>
        <time>2020-10-31T10:58:12.000Z</time>
      </trkpt>
      <trkpt lat="49.74594" lon="4.84414">
        <ele>254</ele>
        <time>2020-10-31T10:58:13.000Z</time>
      </trkpt>
      <trkpt lat="49.74594" lon="4.84414">
        <ele>254</ele>
        <time>2020-10-31T10:58:14.000Z</time>
      </trkpt>
      <trkpt lat="49.74593" lon="4.84413">
        <ele>254</ele>
        <time>2020-10-31T10:58:15.000Z</time>
      </trkpt>
      <trkpt lat="49.74592" lon="4.84413">
        <ele>254</ele>
        <time>2020-10-31T10:58:16.000Z</time>
      </trkpt>
      <trkpt lat="49.74591" lon="4.84412">
        <ele>254</ele>
        <time>2020-10-31T10:58:17.000Z</time>
      </trkpt>
      <trkpt lat="49.74591" lon="4.84412">
        <ele>254</ele>
        <time>2020-10-31T10:58:18.000Z</time>
      </trkpt>
      <trkpt lat="49.7459" lon="4.84413">
        <ele>254</ele>
        <time>2020-10-31T10:58:19.000Z</time>
      </trkpt>
      <trkpt lat="49.74589" lon="4.84413">
        <ele>254</ele>
        <time>2020-10-31T10:58:20.000Z</time>
      </trkpt>
      <trkpt lat="49.74588" lon="4.84412">
        <ele>254</ele>
        <time>2020-10-31T10:58:21.000Z</time>
      </trkpt>
      <trkpt lat="49.74587" lon="4.84413">
        <ele>254</ele>
        <time>2020-10-31T10:58:22.000Z</time>
      </trkpt>
      <trkpt lat="49.74585" lon="4.84413">
        <ele>254</ele>
        <time>2020-10-31T10:58:23.000Z</time>
      </trkpt>
      <trkpt lat="49.74584" lon="4.84413">
        <ele>253</ele>
        <time>2020-10-31T10:58:24.000Z</time>
      </trkpt>
      <trkpt lat="49.74583" lon="4.84414">
        <ele>253</ele>
        <time>2020-10-31T10:58:25.000Z</time>
      </trkpt>
      <trkpt lat="49.74581" lon="4.84414">
        <ele>253</ele>
        <time>2020-10-31T10:58:26.000Z</time>
      </trkpt>
      <trkpt lat="49.7458" lon="4.84414">
        <ele>253</ele>
        <time>2020-10-31T10:58:27.000Z</time>
      </trkpt>
      <trkpt lat="49.74578" lon="4.84414">
        <ele>253</ele>
        <time>2020-10-31T10:58:28.000Z</time>
      </trkpt>
      <trkpt lat="49.74577" lon="4.84415">
        <ele>253</ele>
        <time>2020-10-31T10:58:29.000Z</time>
      </trkpt>
      <trkpt lat="49.74575" lon="4.84415">
        <ele>253</ele>
        <time>2020-10-31T10:58:30.000Z</time>
      </trkpt>
      <trkpt lat="49.74573" lon="4.84415">
        <ele>253</ele>
        <time>2020-10-31T10:58:31.000Z</time>
      </trkpt>
      <trkpt lat="49.74571" lon="4.84416">
        <ele>253</ele>
        <time>2020-10-31T10:58:32.000Z</time>
      </trkpt>
      <trkpt lat="49.7457" lon="4.84416">
        <ele>253</ele>
        <time>2020-10-31T10:58:33.000Z</time>
      </trkpt>
      <trkpt lat="49.74569" lon="4.84416">
        <ele>253</ele>
        <time>2020-10-31T10:58:34.000Z</time>
      </trkpt>
      <trkpt lat="49.74568" lon="4.84416">
        <ele>253</ele>
        <time>2020-10-31T10:58:35.000Z</time>
      </trkpt>
      <trkpt lat="49.74567" lon="4.84417">
        <ele>253</ele>
        <time>2020-10-31T10:58:36.000Z</time>
      </trkpt>
      <trkpt lat="49.74565" lon="4.84417">
        <ele>253</ele>
        <time>2020-10-31T10:58:37.000Z</time>
      </trkpt>
      <trkpt lat="49.74564" lon="4.84416">
        <ele>253</ele>
        <time>2020-10-31T10:58:38.000Z</time>
      </trkpt>
      <trkpt lat="49.74562" lon="4.84416">
        <ele>253</ele>
        <time>2020-10-31T10:58:39.000Z</time>
      </trkpt>
      <trkpt lat="49.7456" lon="4.84416">
        <ele>252</ele>
        <time>2020-10-31T10:58:40.000Z</time>
      </trkpt>
      <trkpt lat="49.74558" lon="4.84416">
        <ele>252</ele>
        <time>2020-10-31T10:58:41.000Z</time>
      </trkpt>
      <trkpt lat="49.74557" lon="4.84415">
        <ele>252</ele>
        <time>2020-10-31T10:58:42.000Z</time>
      </trkpt>
      <trkpt lat="49.74555" lon="4.84414">
        <ele>252</ele>
        <time>2020-10-31T10:58:43.000Z</time>
      </trkpt>
      <trkpt lat="49.74553" lon="4.84414">
        <ele>252</ele>
        <time>2020-10-31T10:58:44.000Z</time>
      </trkpt>
      <trkpt lat="49.74551" lon="4.84413">
        <ele>252</ele>
        <time>2020-10-31T10:58:45.000Z</time>
      </trkpt>
      <trkpt lat="49.7455" lon="4.84412">
        <ele>252</ele>
        <time>2020-10-31T10:58:46.000Z</time>
      </trkpt>
      <trkpt lat="49.74548" lon="4.84411">
        <ele>252</ele>
        <time>2020-10-31T10:58:47.000Z</time>
      </trkpt>
      <trkpt lat="49.74546" lon="4.8441">
        <ele>252</ele>
        <time>2020-10-31T10:58:48.000Z</time>
      </trkpt>
      <trkpt lat="49.74544" lon="4.84409">
        <ele>252</ele>
        <time>2020-10-31T10:58:49.000Z</time>
      </trkpt>
      <trkpt lat="49.74542" lon="4.84409">
        <ele>252</ele>
        <time>2020-10-31T10:58:50.000Z</time>
      </trkpt>
      <trkpt lat="49.74541" lon="4.84408">
        <ele>252</ele>
        <time>2020-10-31T10:58:51.000Z</time>
      </trkpt>
      <trkpt lat="49.74539" lon="4.84407">
        <ele>252</ele>
        <time>2020-10-31T10:58:52.000Z</time>
      </trkpt>
      <trkpt lat="49.74537" lon="4.84407">
        <ele>252</ele>
        <time>2020-10-31T10:58:53.000Z</time>
      </trkpt>
      <trkpt lat="49.74535" lon="4.84406">
        <ele>252</ele>
        <time>2020-10-31T10:58:54.000Z</time>
      </trkpt>
      <trkpt lat="49.74534" lon="4.84405">
        <ele>252</ele>
        <time>2020-10-31T10:58:55.000Z</time>
      </trkpt>
      <trkpt lat="49.74532" lon="4.84404">
        <ele>252</ele>
        <time>2020-10-31T10:58:56.000Z</time>
      </trkpt>
      <trkpt lat="49.7453" lon="4.84403">
        <ele>252</ele>
        <time>2020-10-31T10:58:57.000Z</time>
      </trkpt>
      <trkpt lat="49.74529" lon="4.84402">
        <ele>252</ele>
        <time>2020-10-31T10:58:58.000Z</time>
      </trkpt>
      <trkpt lat="49.74528" lon="4.84401">
        <ele>251</ele>
        <time>2020-10-31T10:58:59.000Z</time>
      </trkpt>
      <trkpt lat="49.74526" lon="4.844">
        <ele>251</ele>
        <time>2020-10-31T10:59:00.000Z</time>
      </trkpt>
      <trkpt lat="49.74525" lon="4.84399">
        <ele>251</ele>
        <time>2020-10-31T10:59:01.000Z</time>
      </trkpt>
      <trkpt lat="49.74524" lon="4.84397">
        <ele>251</ele>
        <time>2020-10-31T10:59:02.000Z</time>
      </trkpt>
      <trkpt lat="49.74523" lon="4.84397">
        <ele>251</ele>
        <time>2020-10-31T10:59:03.000Z</time>
      </trkpt>
      <trkpt lat="49.74521" lon="4.84396">
        <ele>251</ele>
        <time>2020-10-31T10:59:04.000Z</time>
      </trkpt>
      <trkpt lat="49.7452" lon="4.84395">
        <ele>251</ele>
        <time>2020-10-31T10:59:05.000Z</time>
      </trkpt>
      <trkpt lat="49.74518" lon="4.84395">
        <ele>251</ele>
        <time>2020-10-31T10:59:06.000Z</time>
      </trkpt>
      <trkpt lat="49.74517" lon="4.84394">
        <ele>251</ele>
        <time>2020-10-31T10:59:07.000Z</time>
      </trkpt>
      <trkpt lat="49.74516" lon="4.84393">
        <ele>251</ele>
        <time>2020-10-31T10:59:08.000Z</time>
      </trkpt>
      <trkpt lat="49.74514" lon="4.84392">
        <ele>251</ele>
        <time>2020-10-31T10:59:09.000Z</time>
      </trkpt>
      <trkpt lat="49.74512" lon="4.84392">
        <ele>251</ele>
        <time>2020-10-31T10:59:10.000Z</time>
      </trkpt>
      <trkpt lat="49.74509" lon="4.8439">
        <ele>251</ele>
        <time>2020-10-31T10:59:11.000Z</time>
      </trkpt>
      <trkpt lat="49.74507" lon="4.84388">
        <ele>251</ele>
        <time>2020-10-31T10:59:12.000Z</time>
      </trkpt>
      <trkpt lat="49.74504" lon="4.84386">
        <ele>251</ele>
        <time>2020-10-31T10:59:13.000Z</time>
      </trkpt>
      <trkpt lat="49.74502" lon="4.84382">
        <ele>251</ele>
        <time>2020-10-31T10:59:14.000Z</time>
      </trkpt>
      <trkpt lat="49.74501" lon="4.84379">
        <ele>250</ele>
        <time>2020-10-31T10:59:15.000Z</time>
      </trkpt>
      <trkpt lat="49.745" lon="4.84374">
        <ele>250</ele>
        <time>2020-10-31T10:59:16.000Z</time>
      </trkpt>
      <trkpt lat="49.745" lon="4.8437">
        <ele>250</ele>
        <time>2020-10-31T10:59:17.000Z</time>
      </trkpt>
      <trkpt lat="49.745" lon="4.84366">
        <ele>250</ele>
        <time>2020-10-31T10:59:18.000Z</time>
      </trkpt>
      <trkpt lat="49.745" lon="4.84362">
        <ele>250</ele>
        <time>2020-10-31T10:59:19.000Z</time>
      </trkpt>
      <trkpt lat="49.745" lon="4.84358">
        <ele>250</ele>
        <time>2020-10-31T10:59:20.000Z</time>
      </trkpt>
      <trkpt lat="49.745" lon="4.84354">
        <ele>250</ele>
        <time>2020-10-31T10:59:21.000Z</time>
      </trkpt>
      <trkpt lat="49.74501" lon="4.84349">
        <ele>250</ele>
        <time>2020-10-31T10:59:22.000Z</time>
      </trkpt>
      <trkpt lat="49.74501" lon="4.84345">
        <ele>250</ele>
        <time>2020-10-31T10:59:23.000Z</time>
      </trkpt>
      <trkpt lat="49.74501" lon="4.8434">
        <ele>250</ele>
        <time>2020-10-31T10:59:24.000Z</time>
      </trkpt>
      <trkpt lat="49.74501" lon="4.84336">
        <ele>250</ele>
        <time>2020-10-31T10:59:25.000Z</time>
      </trkpt>
      <trkpt lat="49.74501" lon="4.84331">
        <ele>250</ele>
        <time>2020-10-31T10:59:26.000Z</time>
      </trkpt>
      <trkpt lat="49.74501" lon="4.84326">
        <ele>250</ele>
        <time>2020-10-31T10:59:27.000Z</time>
      </trkpt>
      <trkpt lat="49.74501" lon="4.84322">
        <ele>250</ele>
        <time>2020-10-31T10:59:28.000Z</time>
      </trkpt>
      <trkpt lat="49.74501" lon="4.84318">
        <ele>250</ele>
        <time>2020-10-31T10:59:29.000Z</time>
      </trkpt>
      <trkpt lat="49.74501" lon="4.84313">
        <ele>250</ele>
        <time>2020-10-31T10:59:30.000Z</time>
      </trkpt>
      <trkpt lat="49.74501" lon="4.84308">
        <ele>250</ele>
        <time>2020-10-31T10:59:31.000Z</time>
      </trkpt>
      <trkpt lat="49.74501" lon="4.84303">
        <ele>250</ele>
        <time>2020-10-31T10:59:32.000Z</time>
      </trkpt>
      <trkpt lat="49.74501" lon="4.84299">
        <ele>250</ele>
        <time>2020-10-31T10:59:33.000Z</time>
      </trkpt>
      <trkpt lat="49.74501" lon="4.84294">
        <ele>250</ele>
        <time>2020-10-31T10:59:34.000Z</time>
      </trkpt>
      <trkpt lat="49.74501" lon="4.84289">
        <ele>250</ele>
        <time>2020-10-31T10:59:35.000Z</time>
      </trkpt>
      <trkpt lat="49.74501" lon="4.84284">
        <ele>250</ele>
        <time>2020-10-31T10:59:36.000Z</time>
      </trkpt>
      <trkpt lat="49.745" lon="4.84279">
        <ele>250</ele>
        <time>2020-10-31T10:59:37.000Z</time>
      </trkpt>
      <trkpt lat="49.745" lon="4.84275">
        <ele>250</ele>
        <time>2020-10-31T10:59:38.000Z</time>
      </trkpt>
      <trkpt lat="49.745" lon="4.8427">
        <ele>250</ele>
        <time>2020-10-31T10:59:39.000Z</time>
      </trkpt>
      <trkpt lat="49.74501" lon="4.84266">
        <ele>250</ele>
        <time>2020-10-31T10:59:40.000Z</time>
      </trkpt>
      <trkpt lat="49.74501" lon="4.84261">
        <ele>250</ele>
        <time>2020-10-31T10:59:41.000Z</time>
      </trkpt>
      <trkpt lat="49.74501" lon="4.84257">
        <ele>250</ele>
        <time>2020-10-31T10:59:42.000Z</time>
      </trkpt>
      <trkpt lat="49.74501" lon="4.84252">
        <ele>250</ele>
        <time>2020-10-31T10:59:43.000Z</time>
      </trkpt>
      <trkpt lat="49.74501" lon="4.84247">
        <ele>251</ele>
        <time>2020-10-31T10:59:44.000Z</time>
      </trkpt>
      <trkpt lat="49.74501" lon="4.84243">
        <ele>251</ele>
        <time>2020-10-31T10:59:45.000Z</time>
      </trkpt>
      <trkpt lat="49.74501" lon="4.84238">
        <ele>251</ele>
        <time>2020-10-31T10:59:46.000Z</time>
      </trkpt>
      <trkpt lat="49.74501" lon="4.84234">
        <ele>251</ele>
        <time>2020-10-31T10:59:47.000Z</time>
      </trkpt>
      <trkpt lat="49.74501" lon="4.84229">
        <ele>251</ele>
        <time>2020-10-31T10:59:48.000Z</time>
      </trkpt>
      <trkpt lat="49.74501" lon="4.84225">
        <ele>252</ele>
        <time>2020-10-31T10:59:49.000Z</time>
      </trkpt>
      <trkpt lat="49.74501" lon="4.8422">
        <ele>252</ele>
        <time>2020-10-31T10:59:50.000Z</time>
      </trkpt>
      <trkpt lat="49.74501" lon="4.84216">
        <ele>252</ele>
        <time>2020-10-31T10:59:51.000Z</time>
      </trkpt>
      <trkpt lat="49.74502" lon="4.84213">
        <ele>252</ele>
        <time>2020-10-31T10:59:52.000Z</time>
      </trkpt>
      <trkpt lat="49.74502" lon="4.84209">
        <ele>252</ele>
        <time>2020-10-31T10:59:53.000Z</time>
      </trkpt>
      <trkpt lat="49.74502" lon="4.84206">
        <ele>252</ele>
        <time>2020-10-31T10:59:54.000Z</time>
      </trkpt>
      <trkpt lat="49.74502" lon="4.84202">
        <ele>252</ele>
        <time>2020-10-31T10:59:55.000Z</time>
      </trkpt>
      <trkpt lat="49.74502" lon="4.84198">
        <ele>252</ele>
        <time>2020-10-31T10:59:56.000Z</time>
      </trkpt>
      <trkpt lat="49.74502" lon="4.84194">
        <ele>252</ele>
        <time>2020-10-31T10:59:57.000Z</time>
      </trkpt>
      <trkpt lat="49.74502" lon="4.84189">
        <ele>253</ele>
        <time>2020-10-31T10:59:58.000Z</time>
      </trkpt>
      <trkpt lat="49.74502" lon="4.84184">
        <ele>253</ele>
        <time>2020-10-31T10:59:59.000Z</time>
      </trkpt>
      <trkpt lat="49.74502" lon="4.84179">
        <ele>253</ele>
        <time>2020-10-31T11:00:00.000Z</time>
      </trkpt>
      <trkpt lat="49.74501" lon="4.84175">
        <ele>253</ele>
        <time>2020-10-31T11:00:01.000Z</time>
      </trkpt>
      <trkpt lat="49.745" lon="4.84171">
        <ele>253</ele>
        <time>2020-10-31T11:00:02.000Z</time>
      </trkpt>
      <trkpt lat="49.74499" lon="4.84167">
        <ele>253</ele>
        <time>2020-10-31T11:00:03.000Z</time>
      </trkpt>
      <trkpt lat="49.74498" lon="4.84162">
        <ele>253</ele>
        <time>2020-10-31T11:00:04.000Z</time>
      </trkpt>
      <trkpt lat="49.74497" lon="4.84158">
        <ele>252</ele>
        <time>2020-10-31T11:00:05.000Z</time>
      </trkpt>
      <trkpt lat="49.74496" lon="4.84154">
        <ele>252</ele>
        <time>2020-10-31T11:00:06.000Z</time>
      </trkpt>
      <trkpt lat="49.74495" lon="4.8415">
        <ele>252</ele>
        <time>2020-10-31T11:00:07.000Z</time>
      </trkpt>
      <trkpt lat="49.74493" lon="4.84147">
        <ele>252</ele>
        <time>2020-10-31T11:00:08.000Z</time>
      </trkpt>
      <trkpt lat="49.74492" lon="4.84143">
        <ele>252</ele>
        <time>2020-10-31T11:00:09.000Z</time>
      </trkpt>
      <trkpt lat="49.7449" lon="4.8414">
        <ele>252</ele>
        <time>2020-10-31T11:00:10.000Z</time>
      </trkpt>
      <trkpt lat="49.74489" lon="4.84137">
        <ele>252</ele>
        <time>2020-10-31T11:00:11.000Z</time>
      </trkpt>
      <trkpt lat="49.74488" lon="4.84134">
        <ele>252</ele>
        <time>2020-10-31T11:00:12.000Z</time>
      </trkpt>
      <trkpt lat="49.74487" lon="4.84131">
        <ele>252</ele>
        <time>2020-10-31T11:00:13.000Z</time>
      </trkpt>
      <trkpt lat="49.74487" lon="4.84129">
        <ele>252</ele>
        <time>2020-10-31T11:00:14.000Z</time>
      </trkpt>
      <trkpt lat="49.74487" lon="4.84127">
        <ele>252</ele>
        <time>2020-10-31T11:00:15.000Z</time>
      </trkpt>
      <trkpt lat="49.74489" lon="4.84124">
        <ele>251</ele>
        <time>2020-10-31T11:00:16.000Z</time>
      </trkpt>
      <trkpt lat="49.7449" lon="4.84121">
        <ele>251</ele>
        <time>2020-10-31T11:00:17.000Z</time>
      </trkpt>
      <trkpt lat="49.74492" lon="4.84117">
        <ele>251</ele>
        <time>2020-10-31T11:00:18.000Z</time>
      </trkpt>
      <trkpt lat="49.74493" lon="4.84114">
        <ele>251</ele>
        <time>2020-10-31T11:00:19.000Z</time>
      </trkpt>
      <trkpt lat="49.74495" lon="4.8411">
        <ele>251</ele>
        <time>2020-10-31T11:00:20.000Z</time>
      </trkpt>
      <trkpt lat="49.74496" lon="4.84107">
        <ele>250</ele>
        <time>2020-10-31T11:00:21.000Z</time>
      </trkpt>
      <trkpt lat="49.74497" lon="4.84103">
        <ele>250</ele>
        <time>2020-10-31T11:00:22.000Z</time>
      </trkpt>
      <trkpt lat="49.74498" lon="4.84099">
        <ele>250</ele>
        <time>2020-10-31T11:00:23.000Z</time>
      </trkpt>
      <trkpt lat="49.74499" lon="4.84095">
        <ele>250</ele>
        <time>2020-10-31T11:00:24.000Z</time>
      </trkpt>
      <trkpt lat="49.745" lon="4.84092">
        <ele>250</ele>
        <time>2020-10-31T11:00:25.000Z</time>
      </trkpt>
      <trkpt lat="49.74501" lon="4.84088">
        <ele>250</ele>
        <time>2020-10-31T11:00:26.000Z</time>
      </trkpt>
      <trkpt lat="49.74502" lon="4.84084">
        <ele>250</ele>
        <time>2020-10-31T11:00:27.000Z</time>
      </trkpt>
      <trkpt lat="49.74503" lon="4.8408">
        <ele>250</ele>
        <time>2020-10-31T11:00:28.000Z</time>
      </trkpt>
      <trkpt lat="49.74504" lon="4.84076">
        <ele>249</ele>
        <time>2020-10-31T11:00:29.000Z</time>
      </trkpt>
      <trkpt lat="49.74505" lon="4.84072">
        <ele>249</ele>
        <time>2020-10-31T11:00:30.000Z</time>
      </trkpt>
      <trkpt lat="49.74506" lon="4.84069">
        <ele>249</ele>
        <time>2020-10-31T11:00:31.000Z</time>
      </trkpt>
      <trkpt lat="49.74507" lon="4.84065">
        <ele>249</ele>
        <time>2020-10-31T11:00:32.000Z</time>
      </trkpt>
      <trkpt lat="49.74507" lon="4.84061">
        <ele>249</ele>
        <time>2020-10-31T11:00:33.000Z</time>
      </trkpt>
      <trkpt lat="49.74508" lon="4.84057">
        <ele>249</ele>
        <time>2020-10-31T11:00:34.000Z</time>
      </trkpt>
      <trkpt lat="49.74509" lon="4.84053">
        <ele>249</ele>
        <time>2020-10-31T11:00:35.000Z</time>
      </trkpt>
      <trkpt lat="49.7451" lon="4.84049">
        <ele>249</ele>
        <time>2020-10-31T11:00:36.000Z</time>
      </trkpt>
      <trkpt lat="49.7451" lon="4.84045">
        <ele>249</ele>
        <time>2020-10-31T11:00:37.000Z</time>
      </trkpt>
      <trkpt lat="49.74511" lon="4.84041">
        <ele>249</ele>
        <time>2020-10-31T11:00:38.000Z</time>
      </trkpt>
      <trkpt lat="49.74512" lon="4.84037">
        <ele>248</ele>
        <time>2020-10-31T11:00:39.000Z</time>
      </trkpt>
      <trkpt lat="49.74513" lon="4.84033">
        <ele>248</ele>
        <time>2020-10-31T11:00:40.000Z</time>
      </trkpt>
      <trkpt lat="49.74514" lon="4.84029">
        <ele>248</ele>
        <time>2020-10-31T11:00:41.000Z</time>
      </trkpt>
      <trkpt lat="49.74514" lon="4.84025">
        <ele>248</ele>
        <time>2020-10-31T11:00:42.000Z</time>
      </trkpt>
      <trkpt lat="49.74515" lon="4.84021">
        <ele>248</ele>
        <time>2020-10-31T11:00:43.000Z</time>
      </trkpt>
      <trkpt lat="49.74516" lon="4.84017">
        <ele>248</ele>
        <time>2020-10-31T11:00:44.000Z</time>
      </trkpt>
      <trkpt lat="49.74517" lon="4.84014">
        <ele>248</ele>
        <time>2020-10-31T11:00:45.000Z</time>
      </trkpt>
      <trkpt lat="49.74518" lon="4.8401">
        <ele>248</ele>
        <time>2020-10-31T11:00:46.000Z</time>
      </trkpt>
      <trkpt lat="49.74518" lon="4.84006">
        <ele>248</ele>
        <time>2020-10-31T11:00:47.000Z</time>
      </trkpt>
      <trkpt lat="49.74519" lon="4.84002">
        <ele>248</ele>
        <time>2020-10-31T11:00:48.000Z</time>
      </trkpt>
      <trkpt lat="49.7452" lon="4.83998">
        <ele>248</ele>
        <time>2020-10-31T11:00:49.000Z</time>
      </trkpt>
      <trkpt lat="49.7452" lon="4.83994">
        <ele>248</ele>
        <time>2020-10-31T11:00:50.000Z</time>
      </trkpt>
      <trkpt lat="49.7452" lon="4.8399">
        <ele>248</ele>
        <time>2020-10-31T11:00:51.000Z</time>
      </trkpt>
      <trkpt lat="49.74521" lon="4.83985">
        <ele>248</ele>
        <time>2020-10-31T11:00:52.000Z</time>
      </trkpt>
      <trkpt lat="49.74521" lon="4.83981">
        <ele>248</ele>
        <time>2020-10-31T11:00:53.000Z</time>
      </trkpt>
      <trkpt lat="49.74522" lon="4.83977">
        <ele>248</ele>
        <time>2020-10-31T11:00:54.000Z</time>
      </trkpt>
      <trkpt lat="49.74522" lon="4.83973">
        <ele>248</ele>
        <time>2020-10-31T11:00:55.000Z</time>
      </trkpt>
      <trkpt lat="49.74523" lon="4.83969">
        <ele>248</ele>
        <time>2020-10-31T11:00:56.000Z</time>
      </trkpt>
      <trkpt lat="49.74524" lon="4.83965">
        <ele>248</ele>
        <time>2020-10-31T11:00:57.000Z</time>
      </trkpt>
      <trkpt lat="49.74525" lon="4.83961">
        <ele>248</ele>
        <time>2020-10-31T11:00:58.000Z</time>
      </trkpt>
      <trkpt lat="49.74526" lon="4.83958">
        <ele>248</ele>
        <time>2020-10-31T11:00:59.000Z</time>
      </trkpt>
      <trkpt lat="49.74528" lon="4.83954">
        <ele>248</ele>
        <time>2020-10-31T11:01:00.000Z</time>
      </trkpt>
      <trkpt lat="49.74529" lon="4.83951">
        <ele>248</ele>
        <time>2020-10-31T11:01:01.000Z</time>
      </trkpt>
      <trkpt lat="49.7453" lon="4.83948">
        <ele>248</ele>
        <time>2020-10-31T11:01:02.000Z</time>
      </trkpt>
      <trkpt lat="49.74532" lon="4.83944">
        <ele>248</ele>
        <time>2020-10-31T11:01:03.000Z</time>
      </trkpt>
      <trkpt lat="49.74533" lon="4.83941">
        <ele>248</ele>
        <time>2020-10-31T11:01:04.000Z</time>
      </trkpt>
      <trkpt lat="49.74534" lon="4.83937">
        <ele>248</ele>
        <time>2020-10-31T11:01:05.000Z</time>
      </trkpt>
      <trkpt lat="49.74536" lon="4.83934">
        <ele>248</ele>
        <time>2020-10-31T11:01:06.000Z</time>
      </trkpt>
      <trkpt lat="49.74537" lon="4.83931">
        <ele>248</ele>
        <time>2020-10-31T11:01:07.000Z</time>
      </trkpt>
      <trkpt lat="49.74538" lon="4.83929">
        <ele>248</ele>
        <time>2020-10-31T11:01:08.000Z</time>
      </trkpt>
      <trkpt lat="49.74539" lon="4.83927">
        <ele>247</ele>
        <time>2020-10-31T11:01:09.000Z</time>
      </trkpt>
      <trkpt lat="49.7454" lon="4.83924">
        <ele>247</ele>
        <time>2020-10-31T11:01:10.000Z</time>
      </trkpt>
      <trkpt lat="49.7454" lon="4.83921">
        <ele>247</ele>
        <time>2020-10-31T11:01:11.000Z</time>
      </trkpt>
      <trkpt lat="49.7454" lon="4.83917">
        <ele>247</ele>
        <time>2020-10-31T11:01:12.000Z</time>
      </trkpt>
      <trkpt lat="49.7454" lon="4.83914">
        <ele>247</ele>
        <time>2020-10-31T11:01:13.000Z</time>
      </trkpt>
      <trkpt lat="49.7454" lon="4.8391">
        <ele>247</ele>
        <time>2020-10-31T11:01:14.000Z</time>
      </trkpt>
      <trkpt lat="49.7454" lon="4.83906">
        <ele>247</ele>
        <time>2020-10-31T11:01:15.000Z</time>
      </trkpt>
      <trkpt lat="49.7454" lon="4.83902">
        <ele>248</ele>
        <time>2020-10-31T11:01:16.000Z</time>
      </trkpt>
      <trkpt lat="49.74539" lon="4.83898">
        <ele>248</ele>
        <time>2020-10-31T11:01:17.000Z</time>
      </trkpt>
      <trkpt lat="49.74539" lon="4.83894">
        <ele>247</ele>
        <time>2020-10-31T11:01:18.000Z</time>
      </trkpt>
      <trkpt lat="49.74539" lon="4.83892">
        <ele>247</ele>
        <time>2020-10-31T11:01:19.000Z</time>
      </trkpt>
      <trkpt lat="49.74539" lon="4.8389">
        <ele>247</ele>
        <time>2020-10-31T11:01:20.000Z</time>
      </trkpt>
      <trkpt lat="49.74539" lon="4.83888">
        <ele>247</ele>
        <time>2020-10-31T11:01:21.000Z</time>
      </trkpt>
      <trkpt lat="49.74539" lon="4.83885">
        <ele>247</ele>
        <time>2020-10-31T11:01:22.000Z</time>
      </trkpt>
      <trkpt lat="49.7454" lon="4.83882">
        <ele>247</ele>
        <time>2020-10-31T11:01:23.000Z</time>
      </trkpt>
      <trkpt lat="49.7454" lon="4.83878">
        <ele>247</ele>
        <time>2020-10-31T11:01:24.000Z</time>
      </trkpt>
      <trkpt lat="49.7454" lon="4.83874">
        <ele>247</ele>
        <time>2020-10-31T11:01:25.000Z</time>
      </trkpt>
      <trkpt lat="49.7454" lon="4.8387">
        <ele>247</ele>
        <time>2020-10-31T11:01:26.000Z</time>
      </trkpt>
      <trkpt lat="49.7454" lon="4.83866">
        <ele>247</ele>
        <time>2020-10-31T11:01:27.000Z</time>
      </trkpt>
      <trkpt lat="49.7454" lon="4.83861">
        <ele>247</ele>
        <time>2020-10-31T11:01:28.000Z</time>
      </trkpt>
      <trkpt lat="49.7454" lon="4.83856">
        <ele>247</ele>
        <time>2020-10-31T11:01:29.000Z</time>
      </trkpt>
      <trkpt lat="49.7454" lon="4.83851">
        <ele>247</ele>
        <time>2020-10-31T11:01:30.000Z</time>
      </trkpt>
      <trkpt lat="49.7454" lon="4.83846">
        <ele>247</ele>
        <time>2020-10-31T11:01:31.000Z</time>
      </trkpt>
      <trkpt lat="49.7454" lon="4.83842">
        <ele>247</ele>
        <time>2020-10-31T11:01:32.000Z</time>
      </trkpt>
      <trkpt lat="49.7454" lon="4.83837">
        <ele>246</ele>
        <time>2020-10-31T11:01:33.000Z</time>
      </trkpt>
      <trkpt lat="49.7454" lon="4.83833">
        <ele>246</ele>
        <time>2020-10-31T11:01:34.000Z</time>
      </trkpt>
      <trkpt lat="49.7454" lon="4.83828">
        <ele>246</ele>
        <time>2020-10-31T11:01:35.000Z</time>
      </trkpt>
      <trkpt lat="49.7454" lon="4.83823">
        <ele>246</ele>
        <time>2020-10-31T11:01:36.000Z</time>
      </trkpt>
      <trkpt lat="49.74539" lon="4.83818">
        <ele>246</ele>
        <time>2020-10-31T11:01:37.000Z</time>
      </trkpt>
      <trkpt lat="49.74539" lon="4.83813">
        <ele>246</ele>
        <time>2020-10-31T11:01:38.000Z</time>
      </trkpt>
      <trkpt lat="49.74539" lon="4.83808">
        <ele>246</ele>
        <time>2020-10-31T11:01:39.000Z</time>
      </trkpt>
      <trkpt lat="49.74538" lon="4.83804">
        <ele>246</ele>
        <time>2020-10-31T11:01:40.000Z</time>
      </trkpt>
      <trkpt lat="49.74538" lon="4.83799">
        <ele>246</ele>
        <time>2020-10-31T11:01:41.000Z</time>
      </trkpt>
      <trkpt lat="49.74538" lon="4.83794">
        <ele>246</ele>
        <time>2020-10-31T11:01:42.000Z</time>
      </trkpt>
      <trkpt lat="49.74538" lon="4.83789">
        <ele>246</ele>
        <time>2020-10-31T11:01:43.000Z</time>
      </trkpt>
      <trkpt lat="49.74537" lon="4.83785">
        <ele>246</ele>
        <time>2020-10-31T11:01:44.000Z</time>
      </trkpt>
      <trkpt lat="49.74537" lon="4.8378">
        <ele>246</ele>
        <time>2020-10-31T11:01:45.000Z</time>
      </trkpt>
      <trkpt lat="49.74537" lon="4.83776">
        <ele>246</ele>
        <time>2020-10-31T11:01:46.000Z</time>
      </trkpt>
      <trkpt lat="49.74537" lon="4.83771">
        <ele>246</ele>
        <time>2020-10-31T11:01:47.000Z</time>
      </trkpt>
      <trkpt lat="49.74537" lon="4.83766">
        <ele>246</ele>
        <time>2020-10-31T11:01:48.000Z</time>
      </trkpt>
      <trkpt lat="49.74537" lon="4.83761">
        <ele>246</ele>
        <time>2020-10-31T11:01:49.000Z</time>
      </trkpt>
      <trkpt lat="49.74536" lon="4.83756">
        <ele>246</ele>
        <time>2020-10-31T11:01:50.000Z</time>
      </trkpt>
      <trkpt lat="49.74535" lon="4.83752">
        <ele>246</ele>
        <time>2020-10-31T11:01:51.000Z</time>
      </trkpt>
      <trkpt lat="49.74534" lon="4.83747">
        <ele>246</ele>
        <time>2020-10-31T11:01:52.000Z</time>
      </trkpt>
      <trkpt lat="49.74534" lon="4.83742">
        <ele>245</ele>
        <time>2020-10-31T11:01:53.000Z</time>
      </trkpt>
      <trkpt lat="49.74534" lon="4.83737">
        <ele>245</ele>
        <time>2020-10-31T11:01:54.000Z</time>
      </trkpt>
      <trkpt lat="49.74534" lon="4.83732">
        <ele>245</ele>
        <time>2020-10-31T11:01:55.000Z</time>
      </trkpt>
      <trkpt lat="49.74533" lon="4.83727">
        <ele>245</ele>
        <time>2020-10-31T11:01:56.000Z</time>
      </trkpt>
      <trkpt lat="49.74533" lon="4.83722">
        <ele>245</ele>
        <time>2020-10-31T11:01:57.000Z</time>
      </trkpt>
      <trkpt lat="49.74533" lon="4.83717">
        <ele>245</ele>
        <time>2020-10-31T11:01:58.000Z</time>
      </trkpt>
      <trkpt lat="49.74533" lon="4.83712">
        <ele>245</ele>
        <time>2020-10-31T11:01:59.000Z</time>
      </trkpt>
      <trkpt lat="49.74532" lon="4.83707">
        <ele>245</ele>
        <time>2020-10-31T11:02:00.000Z</time>
      </trkpt>
      <trkpt lat="49.74532" lon="4.83702">
        <ele>245</ele>
        <time>2020-10-31T11:02:01.000Z</time>
      </trkpt>
      <trkpt lat="49.74531" lon="4.83697">
        <ele>245</ele>
        <time>2020-10-31T11:02:02.000Z</time>
      </trkpt>
      <trkpt lat="49.74531" lon="4.83692">
        <ele>245</ele>
        <time>2020-10-31T11:02:03.000Z</time>
      </trkpt>
      <trkpt lat="49.7453" lon="4.83686">
        <ele>245</ele>
        <time>2020-10-31T11:02:04.000Z</time>
      </trkpt>
      <trkpt lat="49.7453" lon="4.8368">
        <ele>245</ele>
        <time>2020-10-31T11:02:05.000Z</time>
      </trkpt>
      <trkpt lat="49.7453" lon="4.83674">
        <ele>245</ele>
        <time>2020-10-31T11:02:06.000Z</time>
      </trkpt>
      <trkpt lat="49.7453" lon="4.83668">
        <ele>244</ele>
        <time>2020-10-31T11:02:07.000Z</time>
      </trkpt>
      <trkpt lat="49.74529" lon="4.83662">
        <ele>244</ele>
        <time>2020-10-31T11:02:08.000Z</time>
      </trkpt>
      <trkpt lat="49.74529" lon="4.83655">
        <ele>244</ele>
        <time>2020-10-31T11:02:09.000Z</time>
      </trkpt>
      <trkpt lat="49.74528" lon="4.83648">
        <ele>244</ele>
        <time>2020-10-31T11:02:10.000Z</time>
      </trkpt>
      <trkpt lat="49.74528" lon="4.83641">
        <ele>244</ele>
        <time>2020-10-31T11:02:11.000Z</time>
      </trkpt>
      <trkpt lat="49.74527" lon="4.83634">
        <ele>244</ele>
        <time>2020-10-31T11:02:12.000Z</time>
      </trkpt>
      <trkpt lat="49.74526" lon="4.83627">
        <ele>244</ele>
        <time>2020-10-31T11:02:13.000Z</time>
      </trkpt>
      <trkpt lat="49.74525" lon="4.8362">
        <ele>244</ele>
        <time>2020-10-31T11:02:14.000Z</time>
      </trkpt>
      <trkpt lat="49.74524" lon="4.83612">
        <ele>244</ele>
        <time>2020-10-31T11:02:15.000Z</time>
      </trkpt>
      <trkpt lat="49.74523" lon="4.83605">
        <ele>243</ele>
        <time>2020-10-31T11:02:16.000Z</time>
      </trkpt>
      <trkpt lat="49.74521" lon="4.83598">
        <ele>243</ele>
        <time>2020-10-31T11:02:17.000Z</time>
      </trkpt>
      <trkpt lat="49.7452" lon="4.8359">
        <ele>243</ele>
        <time>2020-10-31T11:02:18.000Z</time>
      </trkpt>
      <trkpt lat="49.74518" lon="4.83583">
        <ele>243</ele>
        <time>2020-10-31T11:02:19.000Z</time>
      </trkpt>
      <trkpt lat="49.74515" lon="4.83576">
        <ele>243</ele>
        <time>2020-10-31T11:02:20.000Z</time>
      </trkpt>
      <trkpt lat="49.74513" lon="4.83569">
        <ele>242</ele>
        <time>2020-10-31T11:02:21.000Z</time>
      </trkpt>
      <trkpt lat="49.74511" lon="4.83562">
        <ele>242</ele>
        <time>2020-10-31T11:02:22.000Z</time>
      </trkpt>
      <trkpt lat="49.74508" lon="4.83555">
        <ele>242</ele>
        <time>2020-10-31T11:02:23.000Z</time>
      </trkpt>
      <trkpt lat="49.74506" lon="4.83549">
        <ele>242</ele>
        <time>2020-10-31T11:02:24.000Z</time>
      </trkpt>
      <trkpt lat="49.74503" lon="4.83542">
        <ele>242</ele>
        <time>2020-10-31T11:02:25.000Z</time>
      </trkpt>
      <trkpt lat="49.74501" lon="4.83535">
        <ele>241</ele>
        <time>2020-10-31T11:02:26.000Z</time>
      </trkpt>
      <trkpt lat="49.74498" lon="4.83529">
        <ele>241</ele>
        <time>2020-10-31T11:02:27.000Z</time>
      </trkpt>
      <trkpt lat="49.74495" lon="4.83522">
        <ele>241</ele>
        <time>2020-10-31T11:02:28.000Z</time>
      </trkpt>
      <trkpt lat="49.74493" lon="4.83516">
        <ele>241</ele>
        <time>2020-10-31T11:02:29.000Z</time>
      </trkpt>
      <trkpt lat="49.74489" lon="4.83509">
        <ele>241</ele>
        <time>2020-10-31T11:02:30.000Z</time>
      </trkpt>
      <trkpt lat="49.74487" lon="4.83503">
        <ele>241</ele>
        <time>2020-10-31T11:02:31.000Z</time>
      </trkpt>
      <trkpt lat="49.74484" lon="4.83496">
        <ele>240</ele>
        <time>2020-10-31T11:02:32.000Z</time>
      </trkpt>
      <trkpt lat="49.74481" lon="4.83489">
        <ele>240</ele>
        <time>2020-10-31T11:02:33.000Z</time>
      </trkpt>
      <trkpt lat="49.74479" lon="4.83483">
        <ele>240</ele>
        <time>2020-10-31T11:02:34.000Z</time>
      </trkpt>
      <trkpt lat="49.74476" lon="4.83476">
        <ele>240</ele>
        <time>2020-10-31T11:02:35.000Z</time>
      </trkpt>
      <trkpt lat="49.74473" lon="4.8347">
        <ele>240</ele>
        <time>2020-10-31T11:02:36.000Z</time>
      </trkpt>
      <trkpt lat="49.7447" lon="4.83464">
        <ele>240</ele>
        <time>2020-10-31T11:02:37.000Z</time>
      </trkpt>
      <trkpt lat="49.74467" lon="4.83458">
        <ele>239</ele>
        <time>2020-10-31T11:02:38.000Z</time>
      </trkpt>
      <trkpt lat="49.74464" lon="4.83451">
        <ele>239</ele>
        <time>2020-10-31T11:02:39.000Z</time>
      </trkpt>
      <trkpt lat="49.74461" lon="4.83445">
        <ele>239</ele>
        <time>2020-10-31T11:02:40.000Z</time>
      </trkpt>
      <trkpt lat="49.74458" lon="4.83438">
        <ele>239</ele>
        <time>2020-10-31T11:02:41.000Z</time>
      </trkpt>
      <trkpt lat="49.74455" lon="4.83432">
        <ele>239</ele>
        <time>2020-10-31T11:02:42.000Z</time>
      </trkpt>
      <trkpt lat="49.74451" lon="4.83426">
        <ele>239</ele>
        <time>2020-10-31T11:02:43.000Z</time>
      </trkpt>
      <trkpt lat="49.74448" lon="4.83419">
        <ele>239</ele>
        <time>2020-10-31T11:02:44.000Z</time>
      </trkpt>
      <trkpt lat="49.74445" lon="4.83412">
        <ele>238</ele>
        <time>2020-10-31T11:02:45.000Z</time>
      </trkpt>
      <trkpt lat="49.74442" lon="4.83405">
        <ele>238</ele>
        <time>2020-10-31T11:02:46.000Z</time>
      </trkpt>
      <trkpt lat="49.74439" lon="4.83399">
        <ele>238</ele>
        <time>2020-10-31T11:02:47.000Z</time>
      </trkpt>
      <trkpt lat="49.74436" lon="4.83392">
        <ele>238</ele>
        <time>2020-10-31T11:02:48.000Z</time>
      </trkpt>
      <trkpt lat="49.74434" lon="4.83385">
        <ele>238</ele>
        <time>2020-10-31T11:02:49.000Z</time>
      </trkpt>
      <trkpt lat="49.74432" lon="4.83379">
        <ele>238</ele>
        <time>2020-10-31T11:02:50.000Z</time>
      </trkpt>
      <trkpt lat="49.74433" lon="4.83373">
        <ele>238</ele>
        <time>2020-10-31T11:02:51.000Z</time>
      </trkpt>
      <trkpt lat="49.74434" lon="4.83368">
        <ele>238</ele>
        <time>2020-10-31T11:02:52.000Z</time>
      </trkpt>
      <trkpt lat="49.74436" lon="4.83363">
        <ele>238</ele>
        <time>2020-10-31T11:02:53.000Z</time>
      </trkpt>
      <trkpt lat="49.74439" lon="4.83361">
        <ele>238</ele>
        <time>2020-10-31T11:02:54.000Z</time>
      </trkpt>
      <trkpt lat="49.74441" lon="4.83359">
        <ele>238</ele>
        <time>2020-10-31T11:02:55.000Z</time>
      </trkpt>
      <trkpt lat="49.74444" lon="4.83358">
        <ele>238</ele>
        <time>2020-10-31T11:02:56.000Z</time>
      </trkpt>
      <trkpt lat="49.74446" lon="4.83357">
        <ele>238</ele>
        <time>2020-10-31T11:02:57.000Z</time>
      </trkpt>
      <trkpt lat="49.74448" lon="4.83357">
        <ele>238</ele>
        <time>2020-10-31T11:02:58.000Z</time>
      </trkpt>
      <trkpt lat="49.74449" lon="4.83356">
        <ele>238</ele>
        <time>2020-10-31T11:02:59.000Z</time>
      </trkpt>
      <trkpt lat="49.74452" lon="4.83356">
        <ele>238</ele>
        <time>2020-10-31T11:03:00.000Z</time>
      </trkpt>
      <trkpt lat="49.74454" lon="4.83355">
        <ele>238</ele>
        <time>2020-10-31T11:03:01.000Z</time>
      </trkpt>
      <trkpt lat="49.74456" lon="4.83356">
        <ele>238</ele>
        <time>2020-10-31T11:03:02.000Z</time>
      </trkpt>
      <trkpt lat="49.74459" lon="4.83355">
        <ele>239</ele>
        <time>2020-10-31T11:03:03.000Z</time>
      </trkpt>
      <trkpt lat="49.74461" lon="4.83354">
        <ele>239</ele>
        <time>2020-10-31T11:03:04.000Z</time>
      </trkpt>
      <trkpt lat="49.74463" lon="4.83354">
        <ele>239</ele>
        <time>2020-10-31T11:03:05.000Z</time>
      </trkpt>
      <trkpt lat="49.74465" lon="4.83354">
        <ele>239</ele>
        <time>2020-10-31T11:03:06.000Z</time>
      </trkpt>
      <trkpt lat="49.74468" lon="4.83353">
        <ele>239</ele>
        <time>2020-10-31T11:03:07.000Z</time>
      </trkpt>
      <trkpt lat="49.74471" lon="4.83353">
        <ele>239</ele>
        <time>2020-10-31T11:03:08.000Z</time>
      </trkpt>
      <trkpt lat="49.74475" lon="4.83351">
        <ele>239</ele>
        <time>2020-10-31T11:03:09.000Z</time>
      </trkpt>
      <trkpt lat="49.74479" lon="4.83349">
        <ele>239</ele>
        <time>2020-10-31T11:03:10.000Z</time>
      </trkpt>
      <trkpt lat="49.74482" lon="4.83347">
        <ele>239</ele>
        <time>2020-10-31T11:03:11.000Z</time>
      </trkpt>
      <trkpt lat="49.74487" lon="4.83345">
        <ele>239</ele>
        <time>2020-10-31T11:03:12.000Z</time>
      </trkpt>
      <trkpt lat="49.74491" lon="4.83341">
        <ele>239</ele>
        <time>2020-10-31T11:03:13.000Z</time>
      </trkpt>
      <trkpt lat="49.74496" lon="4.83338">
        <ele>238</ele>
        <time>2020-10-31T11:03:14.000Z</time>
      </trkpt>
      <trkpt lat="49.74501" lon="4.83334">
        <ele>238</ele>
        <time>2020-10-31T11:03:15.000Z</time>
      </trkpt>
      <trkpt lat="49.74507" lon="4.8333">
        <ele>238</ele>
        <time>2020-10-31T11:03:16.000Z</time>
      </trkpt>
      <trkpt lat="49.74513" lon="4.83326">
        <ele>238</ele>
        <time>2020-10-31T11:03:17.000Z</time>
      </trkpt>
      <trkpt lat="49.7452" lon="4.83321">
        <ele>238</ele>
        <time>2020-10-31T11:03:18.000Z</time>
      </trkpt>
      <trkpt lat="49.74527" lon="4.83317">
        <ele>237</ele>
        <time>2020-10-31T11:03:19.000Z</time>
      </trkpt>
      <trkpt lat="49.74534" lon="4.83314">
        <ele>237</ele>
        <time>2020-10-31T11:03:20.000Z</time>
      </trkpt>
      <trkpt lat="49.74542" lon="4.83309">
        <ele>236</ele>
        <time>2020-10-31T11:03:21.000Z</time>
      </trkpt>
      <trkpt lat="49.7455" lon="4.83304">
        <ele>236</ele>
        <time>2020-10-31T11:03:22.000Z</time>
      </trkpt>
      <trkpt lat="49.74559" lon="4.833">
        <ele>235</ele>
        <time>2020-10-31T11:03:23.000Z</time>
      </trkpt>
      <trkpt lat="49.74568" lon="4.83296">
        <ele>234</ele>
        <time>2020-10-31T11:03:24.000Z</time>
      </trkpt>
      <trkpt lat="49.74576" lon="4.83294">
        <ele>233</ele>
        <time>2020-10-31T11:03:25.000Z</time>
      </trkpt>
      <trkpt lat="49.74585" lon="4.83293">
        <ele>233</ele>
        <time>2020-10-31T11:03:26.000Z</time>
      </trkpt>
      <trkpt lat="49.74593" lon="4.83293">
        <ele>232</ele>
        <time>2020-10-31T11:03:27.000Z</time>
      </trkpt>
      <trkpt lat="49.74602" lon="4.83293">
        <ele>231</ele>
        <time>2020-10-31T11:03:28.000Z</time>
      </trkpt>
      <trkpt lat="49.7461" lon="4.83294">
        <ele>231</ele>
        <time>2020-10-31T11:03:29.000Z</time>
      </trkpt>
      <trkpt lat="49.74619" lon="4.83296">
        <ele>230</ele>
        <time>2020-10-31T11:03:30.000Z</time>
      </trkpt>
      <trkpt lat="49.74627" lon="4.83297">
        <ele>229</ele>
        <time>2020-10-31T11:03:31.000Z</time>
      </trkpt>
      <trkpt lat="49.74635" lon="4.83298">
        <ele>229</ele>
        <time>2020-10-31T11:03:32.000Z</time>
      </trkpt>
      <trkpt lat="49.74643" lon="4.83299">
        <ele>228</ele>
        <time>2020-10-31T11:03:33.000Z</time>
      </trkpt>
      <trkpt lat="49.74651" lon="4.83301">
        <ele>228</ele>
        <time>2020-10-31T11:03:34.000Z</time>
      </trkpt>
      <trkpt lat="49.74658" lon="4.83302">
        <ele>228</ele>
        <time>2020-10-31T11:03:35.000Z</time>
      </trkpt>
      <trkpt lat="49.74666" lon="4.83303">
        <ele>227</ele>
        <time>2020-10-31T11:03:36.000Z</time>
      </trkpt>
      <trkpt lat="49.74673" lon="4.83304">
        <ele>227</ele>
        <time>2020-10-31T11:03:37.000Z</time>
      </trkpt>
      <trkpt lat="49.7468" lon="4.83304">
        <ele>226</ele>
        <time>2020-10-31T11:03:38.000Z</time>
      </trkpt>
      <trkpt lat="49.74687" lon="4.83304">
        <ele>226</ele>
        <time>2020-10-31T11:03:39.000Z</time>
      </trkpt>
      <trkpt lat="49.74694" lon="4.83304">
        <ele>225</ele>
        <time>2020-10-31T11:03:40.000Z</time>
      </trkpt>
      <trkpt lat="49.747" lon="4.83303">
        <ele>225</ele>
        <time>2020-10-31T11:03:41.000Z</time>
      </trkpt>
      <trkpt lat="49.74707" lon="4.83303">
        <ele>225</ele>
        <time>2020-10-31T11:03:42.000Z</time>
      </trkpt>
      <trkpt lat="49.74713" lon="4.83301">
        <ele>225</ele>
        <time>2020-10-31T11:03:43.000Z</time>
      </trkpt>
      <trkpt lat="49.74719" lon="4.833">
        <ele>224</ele>
        <time>2020-10-31T11:03:44.000Z</time>
      </trkpt>
      <trkpt lat="49.74725" lon="4.83299">
        <ele>224</ele>
        <time>2020-10-31T11:03:45.000Z</time>
      </trkpt>
      <trkpt lat="49.74731" lon="4.83297">
        <ele>224</ele>
        <time>2020-10-31T11:03:46.000Z</time>
      </trkpt>
      <trkpt lat="49.74737" lon="4.83296">
        <ele>224</ele>
        <time>2020-10-31T11:03:47.000Z</time>
      </trkpt>
      <trkpt lat="49.74742" lon="4.83294">
        <ele>224</ele>
        <time>2020-10-31T11:03:48.000Z</time>
      </trkpt>
      <trkpt lat="49.74748" lon="4.83293">
        <ele>224</ele>
        <time>2020-10-31T11:03:49.000Z</time>
      </trkpt>
      <trkpt lat="49.74754" lon="4.83291">
        <ele>224</ele>
        <time>2020-10-31T11:03:50.000Z</time>
      </trkpt>
      <trkpt lat="49.74759" lon="4.8329">
        <ele>223</ele>
        <time>2020-10-31T11:03:51.000Z</time>
      </trkpt>
      <trkpt lat="49.74765" lon="4.83289">
        <ele>223</ele>
        <time>2020-10-31T11:03:52.000Z</time>
      </trkpt>
      <trkpt lat="49.74771" lon="4.83288">
        <ele>223</ele>
        <time>2020-10-31T11:03:53.000Z</time>
      </trkpt>
      <trkpt lat="49.74776" lon="4.83287">
        <ele>223</ele>
        <time>2020-10-31T11:03:54.000Z</time>
      </trkpt>
      <trkpt lat="49.74782" lon="4.83286">
        <ele>223</ele>
        <time>2020-10-31T11:03:55.000Z</time>
      </trkpt>
      <trkpt lat="49.74787" lon="4.83285">
        <ele>222</ele>
        <time>2020-10-31T11:03:56.000Z</time>
      </trkpt>
      <trkpt lat="49.74792" lon="4.83284">
        <ele>222</ele>
        <time>2020-10-31T11:03:57.000Z</time>
      </trkpt>
      <trkpt lat="49.74798" lon="4.83283">
        <ele>222</ele>
        <time>2020-10-31T11:03:58.000Z</time>
      </trkpt>
      <trkpt lat="49.74803" lon="4.83281">
        <ele>222</ele>
        <time>2020-10-31T11:03:59.000Z</time>
      </trkpt>
      <trkpt lat="49.74808" lon="4.8328">
        <ele>222</ele>
        <time>2020-10-31T11:04:00.000Z</time>
      </trkpt>
      <trkpt lat="49.74813" lon="4.83279">
        <ele>222</ele>
        <time>2020-10-31T11:04:01.000Z</time>
      </trkpt>
      <trkpt lat="49.74818" lon="4.83279">
        <ele>221</ele>
        <time>2020-10-31T11:04:02.000Z</time>
      </trkpt>
      <trkpt lat="49.74823" lon="4.83278">
        <ele>221</ele>
        <time>2020-10-31T11:04:03.000Z</time>
      </trkpt>
      <trkpt lat="49.74828" lon="4.83277">
        <ele>221</ele>
        <time>2020-10-31T11:04:04.000Z</time>
      </trkpt>
      <trkpt lat="49.74833" lon="4.83276">
        <ele>221</ele>
        <time>2020-10-31T11:04:05.000Z</time>
      </trkpt>
      <trkpt lat="49.74838" lon="4.83275">
        <ele>221</ele>
        <time>2020-10-31T11:04:06.000Z</time>
      </trkpt>
      <trkpt lat="49.74843" lon="4.83275">
        <ele>221</ele>
        <time>2020-10-31T11:04:07.000Z</time>
      </trkpt>
      <trkpt lat="49.74849" lon="4.83274">
        <ele>221</ele>
        <time>2020-10-31T11:04:08.000Z</time>
      </trkpt>
      <trkpt lat="49.74854" lon="4.83273">
        <ele>221</ele>
        <time>2020-10-31T11:04:09.000Z</time>
      </trkpt>
      <trkpt lat="49.74859" lon="4.83272">
        <ele>220</ele>
        <time>2020-10-31T11:04:10.000Z</time>
      </trkpt>
      <trkpt lat="49.74864" lon="4.83271">
        <ele>220</ele>
        <time>2020-10-31T11:04:11.000Z</time>
      </trkpt>
      <trkpt lat="49.7487" lon="4.83271">
        <ele>220</ele>
        <time>2020-10-31T11:04:12.000Z</time>
      </trkpt>
      <trkpt lat="49.74875" lon="4.8327">
        <ele>220</ele>
        <time>2020-10-31T11:04:13.000Z</time>
      </trkpt>
      <trkpt lat="49.7488" lon="4.83268">
        <ele>220</ele>
        <time>2020-10-31T11:04:14.000Z</time>
      </trkpt>
      <trkpt lat="49.74885" lon="4.83267">
        <ele>219</ele>
        <time>2020-10-31T11:04:15.000Z</time>
      </trkpt>
      <trkpt lat="49.7489" lon="4.83267">
        <ele>219</ele>
        <time>2020-10-31T11:04:16.000Z</time>
      </trkpt>
      <trkpt lat="49.74895" lon="4.83266">
        <ele>219</ele>
        <time>2020-10-31T11:04:17.000Z</time>
      </trkpt>
      <trkpt lat="49.749" lon="4.83265">
        <ele>219</ele>
        <time>2020-10-31T11:04:18.000Z</time>
      </trkpt>
      <trkpt lat="49.74905" lon="4.83264">
        <ele>219</ele>
        <time>2020-10-31T11:04:19.000Z</time>
      </trkpt>
      <trkpt lat="49.7491" lon="4.83263">
        <ele>219</ele>
        <time>2020-10-31T11:04:20.000Z</time>
      </trkpt>
      <trkpt lat="49.74915" lon="4.83261">
        <ele>219</ele>
        <time>2020-10-31T11:04:21.000Z</time>
      </trkpt>
      <trkpt lat="49.7492" lon="4.83261">
        <ele>218</ele>
        <time>2020-10-31T11:04:22.000Z</time>
      </trkpt>
      <trkpt lat="49.74926" lon="4.8326">
        <ele>218</ele>
        <time>2020-10-31T11:04:23.000Z</time>
      </trkpt>
      <trkpt lat="49.74931" lon="4.83259">
        <ele>218</ele>
        <time>2020-10-31T11:04:24.000Z</time>
      </trkpt>
      <trkpt lat="49.74937" lon="4.83258">
        <ele>218</ele>
        <time>2020-10-31T11:04:25.000Z</time>
      </trkpt>
      <trkpt lat="49.74942" lon="4.83257">
        <ele>218</ele>
        <time>2020-10-31T11:04:26.000Z</time>
      </trkpt>
      <trkpt lat="49.74948" lon="4.83256">
        <ele>217</ele>
        <time>2020-10-31T11:04:27.000Z</time>
      </trkpt>
      <trkpt lat="49.74953" lon="4.83255">
        <ele>217</ele>
        <time>2020-10-31T11:04:28.000Z</time>
      </trkpt>
      <trkpt lat="49.74959" lon="4.83254">
        <ele>217</ele>
        <time>2020-10-31T11:04:29.000Z</time>
      </trkpt>
      <trkpt lat="49.74965" lon="4.83253">
        <ele>217</ele>
        <time>2020-10-31T11:04:30.000Z</time>
      </trkpt>
      <trkpt lat="49.7497" lon="4.83252">
        <ele>216</ele>
        <time>2020-10-31T11:04:31.000Z</time>
      </trkpt>
      <trkpt lat="49.74976" lon="4.8325">
        <ele>216</ele>
        <time>2020-10-31T11:04:32.000Z</time>
      </trkpt>
      <trkpt lat="49.74982" lon="4.83249">
        <ele>216</ele>
        <time>2020-10-31T11:04:33.000Z</time>
      </trkpt>
      <trkpt lat="49.74988" lon="4.83247">
        <ele>216</ele>
        <time>2020-10-31T11:04:34.000Z</time>
      </trkpt>
      <trkpt lat="49.74994" lon="4.83246">
        <ele>215</ele>
        <time>2020-10-31T11:04:35.000Z</time>
      </trkpt>
      <trkpt lat="49.75" lon="4.83245">
        <ele>215</ele>
        <time>2020-10-31T11:04:36.000Z</time>
      </trkpt>
      <trkpt lat="49.75006" lon="4.83244">
        <ele>215</ele>
        <time>2020-10-31T11:04:37.000Z</time>
      </trkpt>
      <trkpt lat="49.75012" lon="4.83242">
        <ele>215</ele>
        <time>2020-10-31T11:04:38.000Z</time>
      </trkpt>
      <trkpt lat="49.75018" lon="4.8324">
        <ele>214</ele>
        <time>2020-10-31T11:04:39.000Z</time>
      </trkpt>
      <trkpt lat="49.75024" lon="4.83236">
        <ele>214</ele>
        <time>2020-10-31T11:04:40.000Z</time>
      </trkpt>
      <trkpt lat="49.7503" lon="4.83234">
        <ele>214</ele>
        <time>2020-10-31T11:04:41.000Z</time>
      </trkpt>
      <trkpt lat="49.75036" lon="4.83232">
        <ele>214</ele>
        <time>2020-10-31T11:04:42.000Z</time>
      </trkpt>
      <trkpt lat="49.75041" lon="4.83231">
        <ele>214</ele>
        <time>2020-10-31T11:04:43.000Z</time>
      </trkpt>
      <trkpt lat="49.75046" lon="4.83229">
        <ele>213</ele>
        <time>2020-10-31T11:04:44.000Z</time>
      </trkpt>
      <trkpt lat="49.75052" lon="4.83228">
        <ele>213</ele>
        <time>2020-10-31T11:04:45.000Z</time>
      </trkpt>
      <trkpt lat="49.75057" lon="4.83227">
        <ele>213</ele>
        <time>2020-10-31T11:04:46.000Z</time>
      </trkpt>
      <trkpt lat="49.75061" lon="4.83226">
        <ele>213</ele>
        <time>2020-10-31T11:04:47.000Z</time>
      </trkpt>
      <trkpt lat="49.75066" lon="4.83224">
        <ele>213</ele>
        <time>2020-10-31T11:04:48.000Z</time>
      </trkpt>
      <trkpt lat="49.75071" lon="4.83222">
        <ele>213</ele>
        <time>2020-10-31T11:04:49.000Z</time>
      </trkpt>
      <trkpt lat="49.75076" lon="4.8322">
        <ele>213</ele>
        <time>2020-10-31T11:04:50.000Z</time>
      </trkpt>
      <trkpt lat="49.75081" lon="4.83219">
        <ele>213</ele>
        <time>2020-10-31T11:04:51.000Z</time>
      </trkpt>
      <trkpt lat="49.75085" lon="4.83217">
        <ele>212</ele>
        <time>2020-10-31T11:04:52.000Z</time>
      </trkpt>
      <trkpt lat="49.7509" lon="4.83216">
        <ele>212</ele>
        <time>2020-10-31T11:04:53.000Z</time>
      </trkpt>
      <trkpt lat="49.75095" lon="4.83214">
        <ele>212</ele>
        <time>2020-10-31T11:04:54.000Z</time>
      </trkpt>
      <trkpt lat="49.751" lon="4.83213">
        <ele>212</ele>
        <time>2020-10-31T11:04:55.000Z</time>
      </trkpt>
      <trkpt lat="49.75105" lon="4.83212">
        <ele>212</ele>
        <time>2020-10-31T11:04:56.000Z</time>
      </trkpt>
      <trkpt lat="49.7511" lon="4.8321">
        <ele>212</ele>
        <time>2020-10-31T11:04:57.000Z</time>
      </trkpt>
      <trkpt lat="49.75115" lon="4.83209">
        <ele>212</ele>
        <time>2020-10-31T11:04:58.000Z</time>
      </trkpt>
      <trkpt lat="49.75119" lon="4.83208">
        <ele>212</ele>
        <time>2020-10-31T11:04:59.000Z</time>
      </trkpt>
      <trkpt lat="49.75124" lon="4.83206">
        <ele>212</ele>
        <time>2020-10-31T11:05:00.000Z</time>
      </trkpt>
      <trkpt lat="49.75129" lon="4.83205">
        <ele>211</ele>
        <time>2020-10-31T11:05:01.000Z</time>
      </trkpt>
      <trkpt lat="49.75133" lon="4.83204">
        <ele>211</ele>
        <time>2020-10-31T11:05:02.000Z</time>
      </trkpt>
      <trkpt lat="49.75138" lon="4.83203">
        <ele>211</ele>
        <time>2020-10-31T11:05:03.000Z</time>
      </trkpt>
      <trkpt lat="49.75142" lon="4.83202">
        <ele>211</ele>
        <time>2020-10-31T11:05:04.000Z</time>
      </trkpt>
      <trkpt lat="49.75147" lon="4.832">
        <ele>211</ele>
        <time>2020-10-31T11:05:05.000Z</time>
      </trkpt>
      <trkpt lat="49.75151" lon="4.83199">
        <ele>211</ele>
        <time>2020-10-31T11:05:06.000Z</time>
      </trkpt>
      <trkpt lat="49.75155" lon="4.83197">
        <ele>211</ele>
        <time>2020-10-31T11:05:07.000Z</time>
      </trkpt>
      <trkpt lat="49.7516" lon="4.83196">
        <ele>210</ele>
        <time>2020-10-31T11:05:08.000Z</time>
      </trkpt>
      <trkpt lat="49.75164" lon="4.83195">
        <ele>210</ele>
        <time>2020-10-31T11:05:09.000Z</time>
      </trkpt>
      <trkpt lat="49.75168" lon="4.83194">
        <ele>210</ele>
        <time>2020-10-31T11:05:10.000Z</time>
      </trkpt>
      <trkpt lat="49.75171" lon="4.83193">
        <ele>210</ele>
        <time>2020-10-31T11:05:11.000Z</time>
      </trkpt>
      <trkpt lat="49.75175" lon="4.83191">
        <ele>210</ele>
        <time>2020-10-31T11:05:12.000Z</time>
      </trkpt>
      <trkpt lat="49.75179" lon="4.83191">
        <ele>210</ele>
        <time>2020-10-31T11:05:13.000Z</time>
      </trkpt>
      <trkpt lat="49.75183" lon="4.83189">
        <ele>209</ele>
        <time>2020-10-31T11:05:14.000Z</time>
      </trkpt>
      <trkpt lat="49.75186" lon="4.83188">
        <ele>209</ele>
        <time>2020-10-31T11:05:15.000Z</time>
      </trkpt>
      <trkpt lat="49.75189" lon="4.83187">
        <ele>209</ele>
        <time>2020-10-31T11:05:16.000Z</time>
      </trkpt>
      <trkpt lat="49.75193" lon="4.83186">
        <ele>209</ele>
        <time>2020-10-31T11:05:17.000Z</time>
      </trkpt>
      <trkpt lat="49.75195" lon="4.83185">
        <ele>208</ele>
        <time>2020-10-31T11:05:18.000Z</time>
      </trkpt>
      <trkpt lat="49.75199" lon="4.83184">
        <ele>208</ele>
        <time>2020-10-31T11:05:19.000Z</time>
      </trkpt>
      <trkpt lat="49.75201" lon="4.83183">
        <ele>208</ele>
        <time>2020-10-31T11:05:20.000Z</time>
      </trkpt>
      <trkpt lat="49.75204" lon="4.83182">
        <ele>208</ele>
        <time>2020-10-31T11:05:21.000Z</time>
      </trkpt>
      <trkpt lat="49.75207" lon="4.83181">
        <ele>208</ele>
        <time>2020-10-31T11:05:22.000Z</time>
      </trkpt>
      <trkpt lat="49.7521" lon="4.83181">
        <ele>207</ele>
        <time>2020-10-31T11:05:23.000Z</time>
      </trkpt>
      <trkpt lat="49.75213" lon="4.8318">
        <ele>207</ele>
        <time>2020-10-31T11:05:24.000Z</time>
      </trkpt>
      <trkpt lat="49.75216" lon="4.83179">
        <ele>207</ele>
        <time>2020-10-31T11:05:25.000Z</time>
      </trkpt>
      <trkpt lat="49.75219" lon="4.83178">
        <ele>207</ele>
        <time>2020-10-31T11:05:26.000Z</time>
      </trkpt>
      <trkpt lat="49.75222" lon="4.83176">
        <ele>207</ele>
        <time>2020-10-31T11:05:27.000Z</time>
      </trkpt>
      <trkpt lat="49.75225" lon="4.83175">
        <ele>206</ele>
        <time>2020-10-31T11:05:28.000Z</time>
      </trkpt>
      <trkpt lat="49.75228" lon="4.83175">
        <ele>206</ele>
        <time>2020-10-31T11:05:29.000Z</time>
      </trkpt>
      <trkpt lat="49.75231" lon="4.83174">
        <ele>206</ele>
        <time>2020-10-31T11:05:30.000Z</time>
      </trkpt>
      <trkpt lat="49.75235" lon="4.83173">
        <ele>206</ele>
        <time>2020-10-31T11:05:31.000Z</time>
      </trkpt>
      <trkpt lat="49.75238" lon="4.83173">
        <ele>206</ele>
        <time>2020-10-31T11:05:32.000Z</time>
      </trkpt>
      <trkpt lat="49.75241" lon="4.83172">
        <ele>206</ele>
        <time>2020-10-31T11:05:33.000Z</time>
      </trkpt>
      <trkpt lat="49.75245" lon="4.83172">
        <ele>206</ele>
        <time>2020-10-31T11:05:34.000Z</time>
      </trkpt>
      <trkpt lat="49.75248" lon="4.83171">
        <ele>206</ele>
        <time>2020-10-31T11:05:35.000Z</time>
      </trkpt>
      <trkpt lat="49.75252" lon="4.83171">
        <ele>206</ele>
        <time>2020-10-31T11:05:36.000Z</time>
      </trkpt>
      <trkpt lat="49.75255" lon="4.83171">
        <ele>205</ele>
        <time>2020-10-31T11:05:37.000Z</time>
      </trkpt>
      <trkpt lat="49.75259" lon="4.83171">
        <ele>205</ele>
        <time>2020-10-31T11:05:38.000Z</time>
      </trkpt>
      <trkpt lat="49.75263" lon="4.83171">
        <ele>205</ele>
        <time>2020-10-31T11:05:39.000Z</time>
      </trkpt>
      <trkpt lat="49.75267" lon="4.83171">
        <ele>205</ele>
        <time>2020-10-31T11:05:40.000Z</time>
      </trkpt>
      <trkpt lat="49.7527" lon="4.83171">
        <ele>205</ele>
        <time>2020-10-31T11:05:41.000Z</time>
      </trkpt>
      <trkpt lat="49.75274" lon="4.83171">
        <ele>205</ele>
        <time>2020-10-31T11:05:42.000Z</time>
      </trkpt>
      <trkpt lat="49.75278" lon="4.83171">
        <ele>204</ele>
        <time>2020-10-31T11:05:43.000Z</time>
      </trkpt>
      <trkpt lat="49.75283" lon="4.83172">
        <ele>204</ele>
        <time>2020-10-31T11:05:44.000Z</time>
      </trkpt>
      <trkpt lat="49.75287" lon="4.83171">
        <ele>204</ele>
        <time>2020-10-31T11:05:45.000Z</time>
      </trkpt>
      <trkpt lat="49.75291" lon="4.83171">
        <ele>204</ele>
        <time>2020-10-31T11:05:46.000Z</time>
      </trkpt>
      <trkpt lat="49.75295" lon="4.83171">
        <ele>204</ele>
        <time>2020-10-31T11:05:47.000Z</time>
      </trkpt>
      <trkpt lat="49.75299" lon="4.83171">
        <ele>203</ele>
        <time>2020-10-31T11:05:48.000Z</time>
      </trkpt>
      <trkpt lat="49.75303" lon="4.83171">
        <ele>203</ele>
        <time>2020-10-31T11:05:49.000Z</time>
      </trkpt>
      <trkpt lat="49.75307" lon="4.83171">
        <ele>203</ele>
        <time>2020-10-31T11:05:50.000Z</time>
      </trkpt>
      <trkpt lat="49.75311" lon="4.83171">
        <ele>203</ele>
        <time>2020-10-31T11:05:51.000Z</time>
      </trkpt>
      <trkpt lat="49.75315" lon="4.83171">
        <ele>203</ele>
        <time>2020-10-31T11:05:52.000Z</time>
      </trkpt>
      <trkpt lat="49.75319" lon="4.83171">
        <ele>203</ele>
        <time>2020-10-31T11:05:53.000Z</time>
      </trkpt>
      <trkpt lat="49.75323" lon="4.83171">
        <ele>202</ele>
        <time>2020-10-31T11:05:54.000Z</time>
      </trkpt>
      <trkpt lat="49.75328" lon="4.83171">
        <ele>202</ele>
        <time>2020-10-31T11:05:55.000Z</time>
      </trkpt>
      <trkpt lat="49.75332" lon="4.83171">
        <ele>202</ele>
        <time>2020-10-31T11:05:56.000Z</time>
      </trkpt>
      <trkpt lat="49.75337" lon="4.83171">
        <ele>202</ele>
        <time>2020-10-31T11:05:57.000Z</time>
      </trkpt>
      <trkpt lat="49.75341" lon="4.83171">
        <ele>201</ele>
        <time>2020-10-31T11:05:58.000Z</time>
      </trkpt>
      <trkpt lat="49.75346" lon="4.83171">
        <ele>201</ele>
        <time>2020-10-31T11:05:59.000Z</time>
      </trkpt>
      <trkpt lat="49.75351" lon="4.83171">
        <ele>201</ele>
        <time>2020-10-31T11:06:00.000Z</time>
      </trkpt>
      <trkpt lat="49.75356" lon="4.83171">
        <ele>201</ele>
        <time>2020-10-31T11:06:01.000Z</time>
      </trkpt>
      <trkpt lat="49.75361" lon="4.83171">
        <ele>200</ele>
        <time>2020-10-31T11:06:02.000Z</time>
      </trkpt>
      <trkpt lat="49.75365" lon="4.8317">
        <ele>200</ele>
        <time>2020-10-31T11:06:03.000Z</time>
      </trkpt>
      <trkpt lat="49.7537" lon="4.83169">
        <ele>200</ele>
        <time>2020-10-31T11:06:04.000Z</time>
      </trkpt>
      <trkpt lat="49.75375" lon="4.83169">
        <ele>200</ele>
        <time>2020-10-31T11:06:05.000Z</time>
      </trkpt>
      <trkpt lat="49.7538" lon="4.83168">
        <ele>200</ele>
        <time>2020-10-31T11:06:06.000Z</time>
      </trkpt>
      <trkpt lat="49.75385" lon="4.83167">
        <ele>199</ele>
        <time>2020-10-31T11:06:07.000Z</time>
      </trkpt>
      <trkpt lat="49.7539" lon="4.83166">
        <ele>199</ele>
        <time>2020-10-31T11:06:08.000Z</time>
      </trkpt>
      <trkpt lat="49.75395" lon="4.83165">
        <ele>199</ele>
        <time>2020-10-31T11:06:09.000Z</time>
      </trkpt>
      <trkpt lat="49.754" lon="4.83165">
        <ele>199</ele>
        <time>2020-10-31T11:06:10.000Z</time>
      </trkpt>
      <trkpt lat="49.75405" lon="4.83164">
        <ele>199</ele>
        <time>2020-10-31T11:06:11.000Z</time>
      </trkpt>
      <trkpt lat="49.7541" lon="4.83164">
        <ele>198</ele>
        <time>2020-10-31T11:06:12.000Z</time>
      </trkpt>
      <trkpt lat="49.75415" lon="4.83163">
        <ele>198</ele>
        <time>2020-10-31T11:06:13.000Z</time>
      </trkpt>
      <trkpt lat="49.7542" lon="4.83162">
        <ele>198</ele>
        <time>2020-10-31T11:06:14.000Z</time>
      </trkpt>
      <trkpt lat="49.75425" lon="4.83161">
        <ele>198</ele>
        <time>2020-10-31T11:06:15.000Z</time>
      </trkpt>
      <trkpt lat="49.75429" lon="4.8316">
        <ele>198</ele>
        <time>2020-10-31T11:06:16.000Z</time>
      </trkpt>
      <trkpt lat="49.75434" lon="4.83158">
        <ele>198</ele>
        <time>2020-10-31T11:06:17.000Z</time>
      </trkpt>
      <trkpt lat="49.75439" lon="4.83157">
        <ele>198</ele>
        <time>2020-10-31T11:06:18.000Z</time>
      </trkpt>
      <trkpt lat="49.75443" lon="4.83155">
        <ele>198</ele>
        <time>2020-10-31T11:06:19.000Z</time>
      </trkpt>
      <trkpt lat="49.75448" lon="4.83154">
        <ele>198</ele>
        <time>2020-10-31T11:06:20.000Z</time>
      </trkpt>
      <trkpt lat="49.75453" lon="4.83152">
        <ele>197</ele>
        <time>2020-10-31T11:06:21.000Z</time>
      </trkpt>
      <trkpt lat="49.75457" lon="4.83151">
        <ele>197</ele>
        <time>2020-10-31T11:06:22.000Z</time>
      </trkpt>
      <trkpt lat="49.75462" lon="4.83149">
        <ele>197</ele>
        <time>2020-10-31T11:06:23.000Z</time>
      </trkpt>
      <trkpt lat="49.75466" lon="4.83148">
        <ele>197</ele>
        <time>2020-10-31T11:06:24.000Z</time>
      </trkpt>
      <trkpt lat="49.75471" lon="4.83147">
        <ele>197</ele>
        <time>2020-10-31T11:06:25.000Z</time>
      </trkpt>
      <trkpt lat="49.75475" lon="4.83145">
        <ele>197</ele>
        <time>2020-10-31T11:06:26.000Z</time>
      </trkpt>
      <trkpt lat="49.7548" lon="4.83144">
        <ele>196</ele>
        <time>2020-10-31T11:06:27.000Z</time>
      </trkpt>
      <trkpt lat="49.75484" lon="4.83143">
        <ele>196</ele>
        <time>2020-10-31T11:06:28.000Z</time>
      </trkpt>
      <trkpt lat="49.75488" lon="4.83141">
        <ele>196</ele>
        <time>2020-10-31T11:06:29.000Z</time>
      </trkpt>
      <trkpt lat="49.75492" lon="4.8314">
        <ele>196</ele>
        <time>2020-10-31T11:06:30.000Z</time>
      </trkpt>
      <trkpt lat="49.75496" lon="4.83138">
        <ele>196</ele>
        <time>2020-10-31T11:06:31.000Z</time>
      </trkpt>
      <trkpt lat="49.755" lon="4.83137">
        <ele>196</ele>
        <time>2020-10-31T11:06:32.000Z</time>
      </trkpt>
      <trkpt lat="49.75504" lon="4.83135">
        <ele>196</ele>
        <time>2020-10-31T11:06:33.000Z</time>
      </trkpt>
      <trkpt lat="49.75508" lon="4.83134">
        <ele>196</ele>
        <time>2020-10-31T11:06:34.000Z</time>
      </trkpt>
      <trkpt lat="49.75512" lon="4.83132">
        <ele>195</ele>
        <time>2020-10-31T11:06:35.000Z</time>
      </trkpt>
      <trkpt lat="49.75515" lon="4.83131">
        <ele>195</ele>
        <time>2020-10-31T11:06:36.000Z</time>
      </trkpt>
      <trkpt lat="49.75519" lon="4.8313">
        <ele>195</ele>
        <time>2020-10-31T11:06:37.000Z</time>
      </trkpt>
      <trkpt lat="49.75523" lon="4.83128">
        <ele>195</ele>
        <time>2020-10-31T11:06:38.000Z</time>
      </trkpt>
      <trkpt lat="49.75526" lon="4.83126">
        <ele>195</ele>
        <time>2020-10-31T11:06:39.000Z</time>
      </trkpt>
      <trkpt lat="49.75528" lon="4.83124">
        <ele>195</ele>
        <time>2020-10-31T11:06:40.000Z</time>
      </trkpt>
      <trkpt lat="49.75529" lon="4.83121">
        <ele>195</ele>
        <time>2020-10-31T11:06:41.000Z</time>
      </trkpt>
      <trkpt lat="49.75529" lon="4.83118">
        <ele>195</ele>
        <time>2020-10-31T11:06:42.000Z</time>
      </trkpt>
      <trkpt lat="49.75529" lon="4.83117">
        <ele>195</ele>
        <time>2020-10-31T11:06:43.000Z</time>
      </trkpt>
      <trkpt lat="49.75529" lon="4.83115">
        <ele>195</ele>
        <time>2020-10-31T11:06:44.000Z</time>
      </trkpt>
      <trkpt lat="49.75529" lon="4.83114">
        <ele>195</ele>
        <time>2020-10-31T11:06:45.000Z</time>
      </trkpt>
      <trkpt lat="49.75528" lon="4.83112">
        <ele>195</ele>
        <time>2020-10-31T11:06:46.000Z</time>
      </trkpt>
      <trkpt lat="49.75527" lon="4.8311">
        <ele>195</ele>
        <time>2020-10-31T11:06:47.000Z</time>
      </trkpt>
      <trkpt lat="49.75526" lon="4.83106">
        <ele>195</ele>
        <time>2020-10-31T11:06:48.000Z</time>
      </trkpt>
      <trkpt lat="49.75525" lon="4.83103">
        <ele>195</ele>
        <time>2020-10-31T11:06:49.000Z</time>
      </trkpt>
      <trkpt lat="49.75524" lon="4.83099">
        <ele>195</ele>
        <time>2020-10-31T11:06:50.000Z</time>
      </trkpt>
      <trkpt lat="49.75522" lon="4.83095">
        <ele>195</ele>
        <time>2020-10-31T11:06:51.000Z</time>
      </trkpt>
      <trkpt lat="49.75521" lon="4.83091">
        <ele>195</ele>
        <time>2020-10-31T11:06:52.000Z</time>
      </trkpt>
      <trkpt lat="49.7552" lon="4.83087">
        <ele>195</ele>
        <time>2020-10-31T11:06:53.000Z</time>
      </trkpt>
      <trkpt lat="49.75519" lon="4.83083">
        <ele>195</ele>
        <time>2020-10-31T11:06:54.000Z</time>
      </trkpt>
      <trkpt lat="49.75518" lon="4.83078">
        <ele>195</ele>
        <time>2020-10-31T11:06:55.000Z</time>
      </trkpt>
      <trkpt lat="49.75517" lon="4.83074">
        <ele>195</ele>
        <time>2020-10-31T11:06:56.000Z</time>
      </trkpt>
      <trkpt lat="49.75515" lon="4.8307">
        <ele>195</ele>
        <time>2020-10-31T11:06:57.000Z</time>
      </trkpt>
      <trkpt lat="49.75514" lon="4.83065">
        <ele>195</ele>
        <time>2020-10-31T11:06:58.000Z</time>
      </trkpt>
      <trkpt lat="49.75513" lon="4.83061">
        <ele>195</ele>
        <time>2020-10-31T11:06:59.000Z</time>
      </trkpt>
      <trkpt lat="49.75512" lon="4.83057">
        <ele>195</ele>
        <time>2020-10-31T11:07:00.000Z</time>
      </trkpt>
      <trkpt lat="49.7551" lon="4.83053">
        <ele>196</ele>
        <time>2020-10-31T11:07:01.000Z</time>
      </trkpt>
      <trkpt lat="49.75509" lon="4.8305">
        <ele>196</ele>
        <time>2020-10-31T11:07:02.000Z</time>
      </trkpt>
      <trkpt lat="49.75508" lon="4.83046">
        <ele>196</ele>
        <time>2020-10-31T11:07:03.000Z</time>
      </trkpt>
      <trkpt lat="49.75507" lon="4.83042">
        <ele>196</ele>
        <time>2020-10-31T11:07:04.000Z</time>
      </trkpt>
      <trkpt lat="49.75506" lon="4.83039">
        <ele>197</ele>
        <time>2020-10-31T11:07:05.000Z</time>
      </trkpt>
      <trkpt lat="49.75505" lon="4.83036">
        <ele>197</ele>
        <time>2020-10-31T11:07:06.000Z</time>
      </trkpt>
      <trkpt lat="49.75504" lon="4.83033">
        <ele>197</ele>
        <time>2020-10-31T11:07:07.000Z</time>
      </trkpt>
      <trkpt lat="49.75503" lon="4.8303">
        <ele>197</ele>
        <time>2020-10-31T11:07:08.000Z</time>
      </trkpt>
      <trkpt lat="49.75502" lon="4.83027">
        <ele>198</ele>
        <time>2020-10-31T11:07:09.000Z</time>
      </trkpt>
      <trkpt lat="49.75501" lon="4.83023">
        <ele>198</ele>
        <time>2020-10-31T11:07:10.000Z</time>
      </trkpt>
      <trkpt lat="49.755" lon="4.8302">
        <ele>198</ele>
        <time>2020-10-31T11:07:11.000Z</time>
      </trkpt>
      <trkpt lat="49.75499" lon="4.83017">
        <ele>198</ele>
        <time>2020-10-31T11:07:12.000Z</time>
      </trkpt>
      <trkpt lat="49.75498" lon="4.83014">
        <ele>198</ele>
        <time>2020-10-31T11:07:13.000Z</time>
      </trkpt>
      <trkpt lat="49.75497" lon="4.8301">
        <ele>198</ele>
        <time>2020-10-31T11:07:14.000Z</time>
      </trkpt>
      <trkpt lat="49.75496" lon="4.83007">
        <ele>198</ele>
        <time>2020-10-31T11:07:15.000Z</time>
      </trkpt>
      <trkpt lat="49.75495" lon="4.83003">
        <ele>199</ele>
        <time>2020-10-31T11:07:16.000Z</time>
      </trkpt>
      <trkpt lat="49.75494" lon="4.83">
        <ele>199</ele>
        <time>2020-10-31T11:07:17.000Z</time>
      </trkpt>
      <trkpt lat="49.75493" lon="4.82996">
        <ele>199</ele>
        <time>2020-10-31T11:07:18.000Z</time>
      </trkpt>
      <trkpt lat="49.75491" lon="4.82993">
        <ele>199</ele>
        <time>2020-10-31T11:07:19.000Z</time>
      </trkpt>
      <trkpt lat="49.7549" lon="4.8299">
        <ele>199</ele>
        <time>2020-10-31T11:07:20.000Z</time>
      </trkpt>
      <trkpt lat="49.75489" lon="4.82986">
        <ele>200</ele>
        <time>2020-10-31T11:07:21.000Z</time>
      </trkpt>
      <trkpt lat="49.75488" lon="4.82983">
        <ele>200</ele>
        <time>2020-10-31T11:07:22.000Z</time>
      </trkpt>
      <trkpt lat="49.75487" lon="4.8298">
        <ele>200</ele>
        <time>2020-10-31T11:07:23.000Z</time>
      </trkpt>
      <trkpt lat="49.75485" lon="4.82977">
        <ele>201</ele>
        <time>2020-10-31T11:07:24.000Z</time>
      </trkpt>
      <trkpt lat="49.75484" lon="4.82974">
        <ele>201</ele>
        <time>2020-10-31T11:07:25.000Z</time>
      </trkpt>
      <trkpt lat="49.75483" lon="4.82971">
        <ele>201</ele>
        <time>2020-10-31T11:07:26.000Z</time>
      </trkpt>
      <trkpt lat="49.75482" lon="4.82968">
        <ele>202</ele>
        <time>2020-10-31T11:07:27.000Z</time>
      </trkpt>
      <trkpt lat="49.75481" lon="4.82964">
        <ele>202</ele>
        <time>2020-10-31T11:07:28.000Z</time>
      </trkpt>
      <trkpt lat="49.75479" lon="4.82961">
        <ele>202</ele>
        <time>2020-10-31T11:07:29.000Z</time>
      </trkpt>
      <trkpt lat="49.75478" lon="4.82958">
        <ele>202</ele>
        <time>2020-10-31T11:07:30.000Z</time>
      </trkpt>
      <trkpt lat="49.75478" lon="4.82956">
        <ele>203</ele>
        <time>2020-10-31T11:07:31.000Z</time>
      </trkpt>
      <trkpt lat="49.75477" lon="4.82953">
        <ele>203</ele>
        <time>2020-10-31T11:07:32.000Z</time>
      </trkpt>
      <trkpt lat="49.75476" lon="4.8295">
        <ele>203</ele>
        <time>2020-10-31T11:07:33.000Z</time>
      </trkpt>
      <trkpt lat="49.75475" lon="4.82948">
        <ele>203</ele>
        <time>2020-10-31T11:07:34.000Z</time>
      </trkpt>
      <trkpt lat="49.75474" lon="4.82946">
        <ele>204</ele>
        <time>2020-10-31T11:07:35.000Z</time>
      </trkpt>
      <trkpt lat="49.75474" lon="4.82944">
        <ele>204</ele>
        <time>2020-10-31T11:07:36.000Z</time>
      </trkpt>
      <trkpt lat="49.75473" lon="4.82941">
        <ele>204</ele>
        <time>2020-10-31T11:07:37.000Z</time>
      </trkpt>
      <trkpt lat="49.75472" lon="4.82939">
        <ele>204</ele>
        <time>2020-10-31T11:07:38.000Z</time>
      </trkpt>
      <trkpt lat="49.75472" lon="4.82937">
        <ele>205</ele>
        <time>2020-10-31T11:07:39.000Z</time>
      </trkpt>
      <trkpt lat="49.75471" lon="4.82935">
        <ele>205</ele>
        <time>2020-10-31T11:07:40.000Z</time>
      </trkpt>
      <trkpt lat="49.7547" lon="4.82933">
        <ele>205</ele>
        <time>2020-10-31T11:07:41.000Z</time>
      </trkpt>
      <trkpt lat="49.75469" lon="4.82931">
        <ele>205</ele>
        <time>2020-10-31T11:07:42.000Z</time>
      </trkpt>
      <trkpt lat="49.75469" lon="4.82928">
        <ele>206</ele>
        <time>2020-10-31T11:07:43.000Z</time>
      </trkpt>
      <trkpt lat="49.75468" lon="4.82926">
        <ele>206</ele>
        <time>2020-10-31T11:07:44.000Z</time>
      </trkpt>
      <trkpt lat="49.75467" lon="4.82924">
        <ele>206</ele>
        <time>2020-10-31T11:07:45.000Z</time>
      </trkpt>
      <trkpt lat="49.75467" lon="4.82922">
        <ele>206</ele>
        <time>2020-10-31T11:07:46.000Z</time>
      </trkpt>
      <trkpt lat="49.75466" lon="4.8292">
        <ele>206</ele>
        <time>2020-10-31T11:07:47.000Z</time>
      </trkpt>
      <trkpt lat="49.75465" lon="4.82918">
        <ele>206</ele>
        <time>2020-10-31T11:07:48.000Z</time>
      </trkpt>
      <trkpt lat="49.75465" lon="4.82916">
        <ele>207</ele>
        <time>2020-10-31T11:07:49.000Z</time>
      </trkpt>
      <trkpt lat="49.75464" lon="4.82914">
        <ele>207</ele>
        <time>2020-10-31T11:07:50.000Z</time>
      </trkpt>
      <trkpt lat="49.75463" lon="4.82912">
        <ele>207</ele>
        <time>2020-10-31T11:07:51.000Z</time>
      </trkpt>
      <trkpt lat="49.75463" lon="4.82909">
        <ele>207</ele>
        <time>2020-10-31T11:07:52.000Z</time>
      </trkpt>
      <trkpt lat="49.75462" lon="4.82907">
        <ele>208</ele>
        <time>2020-10-31T11:07:53.000Z</time>
      </trkpt>
      <trkpt lat="49.75461" lon="4.82905">
        <ele>208</ele>
        <time>2020-10-31T11:07:54.000Z</time>
      </trkpt>
      <trkpt lat="49.75461" lon="4.82903">
        <ele>208</ele>
        <time>2020-10-31T11:07:55.000Z</time>
      </trkpt>
      <trkpt lat="49.7546" lon="4.829">
        <ele>208</ele>
        <time>2020-10-31T11:07:56.000Z</time>
      </trkpt>
      <trkpt lat="49.7546" lon="4.82898">
        <ele>209</ele>
        <time>2020-10-31T11:07:57.000Z</time>
      </trkpt>
      <trkpt lat="49.75459" lon="4.82896">
        <ele>209</ele>
        <time>2020-10-31T11:07:58.000Z</time>
      </trkpt>
      <trkpt lat="49.75459" lon="4.82894">
        <ele>209</ele>
        <time>2020-10-31T11:07:59.000Z</time>
      </trkpt>
      <trkpt lat="49.75458" lon="4.82892">
        <ele>209</ele>
        <time>2020-10-31T11:08:00.000Z</time>
      </trkpt>
      <trkpt lat="49.75457" lon="4.8289">
        <ele>209</ele>
        <time>2020-10-31T11:08:01.000Z</time>
      </trkpt>
      <trkpt lat="49.75457" lon="4.82888">
        <ele>210</ele>
        <time>2020-10-31T11:08:02.000Z</time>
      </trkpt>
      <trkpt lat="49.75456" lon="4.82887">
        <ele>210</ele>
        <time>2020-10-31T11:08:03.000Z</time>
      </trkpt>
      <trkpt lat="49.75455" lon="4.82885">
        <ele>210</ele>
        <time>2020-10-31T11:08:04.000Z</time>
      </trkpt>
      <trkpt lat="49.75455" lon="4.82883">
        <ele>210</ele>
        <time>2020-10-31T11:08:05.000Z</time>
      </trkpt>
      <trkpt lat="49.75454" lon="4.8288">
        <ele>211</ele>
        <time>2020-10-31T11:08:06.000Z</time>
      </trkpt>
      <trkpt lat="49.75454" lon="4.82878">
        <ele>211</ele>
        <time>2020-10-31T11:08:07.000Z</time>
      </trkpt>
      <trkpt lat="49.75454" lon="4.82876">
        <ele>211</ele>
        <time>2020-10-31T11:08:08.000Z</time>
      </trkpt>
      <trkpt lat="49.75454" lon="4.82874">
        <ele>211</ele>
        <time>2020-10-31T11:08:09.000Z</time>
      </trkpt>
      <trkpt lat="49.75453" lon="4.82871">
        <ele>211</ele>
        <time>2020-10-31T11:08:10.000Z</time>
      </trkpt>
      <trkpt lat="49.75453" lon="4.8287">
        <ele>212</ele>
        <time>2020-10-31T11:08:11.000Z</time>
      </trkpt>
      <trkpt lat="49.75453" lon="4.82867">
        <ele>212</ele>
        <time>2020-10-31T11:08:12.000Z</time>
      </trkpt>
      <trkpt lat="49.75453" lon="4.82865">
        <ele>212</ele>
        <time>2020-10-31T11:08:13.000Z</time>
      </trkpt>
      <trkpt lat="49.75453" lon="4.82863">
        <ele>212</ele>
        <time>2020-10-31T11:08:14.000Z</time>
      </trkpt>
      <trkpt lat="49.75453" lon="4.82861">
        <ele>213</ele>
        <time>2020-10-31T11:08:15.000Z</time>
      </trkpt>
      <trkpt lat="49.75453" lon="4.82859">
        <ele>213</ele>
        <time>2020-10-31T11:08:16.000Z</time>
      </trkpt>
      <trkpt lat="49.75453" lon="4.82858">
        <ele>213</ele>
        <time>2020-10-31T11:08:17.000Z</time>
      </trkpt>
      <trkpt lat="49.75453" lon="4.82857">
        <ele>213</ele>
        <time>2020-10-31T11:08:18.000Z</time>
      </trkpt>
      <trkpt lat="49.75454" lon="4.82856">
        <ele>213</ele>
        <time>2020-10-31T11:08:19.000Z</time>
      </trkpt>
      <trkpt lat="49.75455" lon="4.82855">
        <ele>213</ele>
        <time>2020-10-31T11:08:20.000Z</time>
      </trkpt>
      <trkpt lat="49.75455" lon="4.82854">
        <ele>213</ele>
        <time>2020-10-31T11:08:21.000Z</time>
      </trkpt>
      <trkpt lat="49.75457" lon="4.82852">
        <ele>213</ele>
        <time>2020-10-31T11:08:22.000Z</time>
      </trkpt>
      <trkpt lat="49.75458" lon="4.8285">
        <ele>213</ele>
        <time>2020-10-31T11:08:23.000Z</time>
      </trkpt>
      <trkpt lat="49.7546" lon="4.82849">
        <ele>213</ele>
        <time>2020-10-31T11:08:24.000Z</time>
      </trkpt>
      <trkpt lat="49.75463" lon="4.82847">
        <ele>213</ele>
        <time>2020-10-31T11:08:25.000Z</time>
      </trkpt>
      <trkpt lat="49.75465" lon="4.82844">
        <ele>213</ele>
        <time>2020-10-31T11:08:26.000Z</time>
      </trkpt>
      <trkpt lat="49.75468" lon="4.82842">
        <ele>214</ele>
        <time>2020-10-31T11:08:27.000Z</time>
      </trkpt>
      <trkpt lat="49.7547" lon="4.82839">
        <ele>214</ele>
        <time>2020-10-31T11:08:28.000Z</time>
      </trkpt>
      <trkpt lat="49.75474" lon="4.82837">
        <ele>214</ele>
        <time>2020-10-31T11:08:29.000Z</time>
      </trkpt>
      <trkpt lat="49.75477" lon="4.82834">
        <ele>214</ele>
        <time>2020-10-31T11:08:30.000Z</time>
      </trkpt>
      <trkpt lat="49.7548" lon="4.8283">
        <ele>214</ele>
        <time>2020-10-31T11:08:31.000Z</time>
      </trkpt>
      <trkpt lat="49.75482" lon="4.82825">
        <ele>214</ele>
        <time>2020-10-31T11:08:32.000Z</time>
      </trkpt>
      <trkpt lat="49.75486" lon="4.8282">
        <ele>214</ele>
        <time>2020-10-31T11:08:33.000Z</time>
      </trkpt>
      <trkpt lat="49.75489" lon="4.82814">
        <ele>214</ele>
        <time>2020-10-31T11:08:34.000Z</time>
      </trkpt>
      <trkpt lat="49.75493" lon="4.82808">
        <ele>214</ele>
        <time>2020-10-31T11:08:35.000Z</time>
      </trkpt>
      <trkpt lat="49.75496" lon="4.82801">
        <ele>214</ele>
        <time>2020-10-31T11:08:36.000Z</time>
      </trkpt>
      <trkpt lat="49.755" lon="4.82793">
        <ele>214</ele>
        <time>2020-10-31T11:08:37.000Z</time>
      </trkpt>
      <trkpt lat="49.75503" lon="4.82784">
        <ele>214</ele>
        <time>2020-10-31T11:08:38.000Z</time>
      </trkpt>
      <trkpt lat="49.75506" lon="4.82774">
        <ele>214</ele>
        <time>2020-10-31T11:08:39.000Z</time>
      </trkpt>
      <trkpt lat="49.75507" lon="4.82764">
        <ele>214</ele>
        <time>2020-10-31T11:08:40.000Z</time>
      </trkpt>
      <trkpt lat="49.75508" lon="4.82753">
        <ele>213</ele>
        <time>2020-10-31T11:08:41.000Z</time>
      </trkpt>
      <trkpt lat="49.75507" lon="4.82742">
        <ele>213</ele>
        <time>2020-10-31T11:08:42.000Z</time>
      </trkpt>
      <trkpt lat="49.75505" lon="4.82732">
        <ele>213</ele>
        <time>2020-10-31T11:08:43.000Z</time>
      </trkpt>
      <trkpt lat="49.75502" lon="4.82722">
        <ele>212</ele>
        <time>2020-10-31T11:08:44.000Z</time>
      </trkpt>
      <trkpt lat="49.755" lon="4.82712">
        <ele>212</ele>
        <time>2020-10-31T11:08:45.000Z</time>
      </trkpt>
      <trkpt lat="49.75497" lon="4.82702">
        <ele>211</ele>
        <time>2020-10-31T11:08:46.000Z</time>
      </trkpt>
      <trkpt lat="49.75495" lon="4.82692">
        <ele>211</ele>
        <time>2020-10-31T11:08:47.000Z</time>
      </trkpt>
      <trkpt lat="49.75492" lon="4.82682">
        <ele>211</ele>
        <time>2020-10-31T11:08:48.000Z</time>
      </trkpt>
      <trkpt lat="49.7549" lon="4.82672">
        <ele>210</ele>
        <time>2020-10-31T11:08:49.000Z</time>
      </trkpt>
      <trkpt lat="49.75487" lon="4.82663">
        <ele>210</ele>
        <time>2020-10-31T11:08:50.000Z</time>
      </trkpt>
      <trkpt lat="49.75485" lon="4.82653">
        <ele>210</ele>
        <time>2020-10-31T11:08:51.000Z</time>
      </trkpt>
      <trkpt lat="49.75483" lon="4.82644">
        <ele>209</ele>
        <time>2020-10-31T11:08:52.000Z</time>
      </trkpt>
      <trkpt lat="49.7548" lon="4.82634">
        <ele>209</ele>
        <time>2020-10-31T11:08:53.000Z</time>
      </trkpt>
      <trkpt lat="49.75478" lon="4.82625">
        <ele>208</ele>
        <time>2020-10-31T11:08:54.000Z</time>
      </trkpt>
      <trkpt lat="49.75476" lon="4.82615">
        <ele>208</ele>
        <time>2020-10-31T11:08:55.000Z</time>
      </trkpt>
      <trkpt lat="49.75474" lon="4.82606">
        <ele>207</ele>
        <time>2020-10-31T11:08:56.000Z</time>
      </trkpt>
      <trkpt lat="49.75471" lon="4.82596">
        <ele>207</ele>
        <time>2020-10-31T11:08:57.000Z</time>
      </trkpt>
      <trkpt lat="49.75469" lon="4.82587">
        <ele>206</ele>
        <time>2020-10-31T11:08:58.000Z</time>
      </trkpt>
      <trkpt lat="49.75466" lon="4.82577">
        <ele>206</ele>
        <time>2020-10-31T11:08:59.000Z</time>
      </trkpt>
      <trkpt lat="49.75464" lon="4.82568">
        <ele>205</ele>
        <time>2020-10-31T11:09:00.000Z</time>
      </trkpt>
      <trkpt lat="49.75462" lon="4.82558">
        <ele>205</ele>
        <time>2020-10-31T11:09:01.000Z</time>
      </trkpt>
      <trkpt lat="49.75459" lon="4.82548">
        <ele>205</ele>
        <time>2020-10-31T11:09:02.000Z</time>
      </trkpt>
      <trkpt lat="49.75457" lon="4.82538">
        <ele>204</ele>
        <time>2020-10-31T11:09:03.000Z</time>
      </trkpt>
      <trkpt lat="49.75454" lon="4.82529">
        <ele>204</ele>
        <time>2020-10-31T11:09:04.000Z</time>
      </trkpt>
      <trkpt lat="49.75452" lon="4.82519">
        <ele>204</ele>
        <time>2020-10-31T11:09:05.000Z</time>
      </trkpt>
      <trkpt lat="49.7545" lon="4.82509">
        <ele>203</ele>
        <time>2020-10-31T11:09:06.000Z</time>
      </trkpt>
      <trkpt lat="49.75448" lon="4.82499">
        <ele>203</ele>
        <time>2020-10-31T11:09:07.000Z</time>
      </trkpt>
      <trkpt lat="49.75445" lon="4.82489">
        <ele>202</ele>
        <time>2020-10-31T11:09:08.000Z</time>
      </trkpt>
      <trkpt lat="49.75444" lon="4.82478">
        <ele>202</ele>
        <time>2020-10-31T11:09:09.000Z</time>
      </trkpt>
      <trkpt lat="49.75443" lon="4.82467">
        <ele>201</ele>
        <time>2020-10-31T11:09:10.000Z</time>
      </trkpt>
      <trkpt lat="49.75442" lon="4.82456">
        <ele>201</ele>
        <time>2020-10-31T11:09:11.000Z</time>
      </trkpt>
      <trkpt lat="49.75441" lon="4.82445">
        <ele>200</ele>
        <time>2020-10-31T11:09:12.000Z</time>
      </trkpt>
      <trkpt lat="49.75441" lon="4.82434">
        <ele>200</ele>
        <time>2020-10-31T11:09:13.000Z</time>
      </trkpt>
      <trkpt lat="49.7544" lon="4.82423">
        <ele>199</ele>
        <time>2020-10-31T11:09:14.000Z</time>
      </trkpt>
      <trkpt lat="49.75439" lon="4.82412">
        <ele>199</ele>
        <time>2020-10-31T11:09:15.000Z</time>
      </trkpt>
      <trkpt lat="49.75438" lon="4.82401">
        <ele>198</ele>
        <time>2020-10-31T11:09:16.000Z</time>
      </trkpt>
      <trkpt lat="49.75437" lon="4.82391">
        <ele>198</ele>
        <time>2020-10-31T11:09:17.000Z</time>
      </trkpt>
      <trkpt lat="49.75435" lon="4.8238">
        <ele>197</ele>
        <time>2020-10-31T11:09:18.000Z</time>
      </trkpt>
      <trkpt lat="49.75433" lon="4.82369">
        <ele>197</ele>
        <time>2020-10-31T11:09:19.000Z</time>
      </trkpt>
      <trkpt lat="49.75431" lon="4.82357">
        <ele>196</ele>
        <time>2020-10-31T11:09:20.000Z</time>
      </trkpt>
      <trkpt lat="49.7543" lon="4.82346">
        <ele>195</ele>
        <time>2020-10-31T11:09:21.000Z</time>
      </trkpt>
      <trkpt lat="49.75429" lon="4.82335">
        <ele>195</ele>
        <time>2020-10-31T11:09:22.000Z</time>
      </trkpt>
      <trkpt lat="49.75427" lon="4.82325">
        <ele>194</ele>
        <time>2020-10-31T11:09:23.000Z</time>
      </trkpt>
      <trkpt lat="49.75426" lon="4.82315">
        <ele>194</ele>
        <time>2020-10-31T11:09:24.000Z</time>
      </trkpt>
      <trkpt lat="49.75426" lon="4.82305">
        <ele>193</ele>
        <time>2020-10-31T11:09:25.000Z</time>
      </trkpt>
      <trkpt lat="49.75427" lon="4.82294">
        <ele>193</ele>
        <time>2020-10-31T11:09:26.000Z</time>
      </trkpt>
      <trkpt lat="49.75429" lon="4.82283">
        <ele>192</ele>
        <time>2020-10-31T11:09:27.000Z</time>
      </trkpt>
      <trkpt lat="49.75431" lon="4.82271">
        <ele>192</ele>
        <time>2020-10-31T11:09:28.000Z</time>
      </trkpt>
      <trkpt lat="49.75433" lon="4.82259">
        <ele>191</ele>
        <time>2020-10-31T11:09:29.000Z</time>
      </trkpt>
      <trkpt lat="49.75435" lon="4.82247">
        <ele>191</ele>
        <time>2020-10-31T11:09:30.000Z</time>
      </trkpt>
      <trkpt lat="49.75437" lon="4.82237">
        <ele>190</ele>
        <time>2020-10-31T11:09:31.000Z</time>
      </trkpt>
      <trkpt lat="49.75437" lon="4.82228">
        <ele>190</ele>
        <time>2020-10-31T11:09:32.000Z</time>
      </trkpt>
      <trkpt lat="49.75436" lon="4.82219">
        <ele>190</ele>
        <time>2020-10-31T11:09:33.000Z</time>
      </trkpt>
      <trkpt lat="49.75433" lon="4.82212">
        <ele>190</ele>
        <time>2020-10-31T11:09:34.000Z</time>
      </trkpt>
      <trkpt lat="49.75429" lon="4.82206">
        <ele>189</ele>
        <time>2020-10-31T11:09:35.000Z</time>
      </trkpt>
      <trkpt lat="49.75425" lon="4.82203">
        <ele>189</ele>
        <time>2020-10-31T11:09:36.000Z</time>
      </trkpt>
      <trkpt lat="49.7542" lon="4.822">
        <ele>189</ele>
        <time>2020-10-31T11:09:37.000Z</time>
      </trkpt>
      <trkpt lat="49.75416" lon="4.82198">
        <ele>189</ele>
        <time>2020-10-31T11:09:38.000Z</time>
      </trkpt>
      <trkpt lat="49.75412" lon="4.82196">
        <ele>189</ele>
        <time>2020-10-31T11:09:39.000Z</time>
      </trkpt>
      <trkpt lat="49.75408" lon="4.82195">
        <ele>189</ele>
        <time>2020-10-31T11:09:40.000Z</time>
      </trkpt>
      <trkpt lat="49.75404" lon="4.82193">
        <ele>189</ele>
        <time>2020-10-31T11:09:41.000Z</time>
      </trkpt>
      <trkpt lat="49.754" lon="4.82193">
        <ele>189</ele>
        <time>2020-10-31T11:09:42.000Z</time>
      </trkpt>
      <trkpt lat="49.75397" lon="4.82192">
        <ele>189</ele>
        <time>2020-10-31T11:09:43.000Z</time>
      </trkpt>
      <trkpt lat="49.75394" lon="4.82193">
        <ele>189</ele>
        <time>2020-10-31T11:09:44.000Z</time>
      </trkpt>
      <trkpt lat="49.75391" lon="4.82193">
        <ele>188</ele>
        <time>2020-10-31T11:09:45.000Z</time>
      </trkpt>
      <trkpt lat="49.75388" lon="4.82194">
        <ele>188</ele>
        <time>2020-10-31T11:09:46.000Z</time>
      </trkpt>
      <trkpt lat="49.75387" lon="4.82195">
        <ele>188</ele>
        <time>2020-10-31T11:09:47.000Z</time>
      </trkpt>
      <trkpt lat="49.75386" lon="4.82196">
        <ele>188</ele>
        <time>2020-10-31T11:09:48.000Z</time>
      </trkpt>
      <trkpt lat="49.75384" lon="4.82198">
        <ele>188</ele>
        <time>2020-10-31T11:09:49.000Z</time>
      </trkpt>
      <trkpt lat="49.75383" lon="4.822">
        <ele>189</ele>
        <time>2020-10-31T11:09:50.000Z</time>
      </trkpt>
      <trkpt lat="49.75382" lon="4.82201">
        <ele>189</ele>
        <time>2020-10-31T11:09:51.000Z</time>
      </trkpt>
      <trkpt lat="49.75381" lon="4.82202">
        <ele>189</ele>
        <time>2020-10-31T11:09:52.000Z</time>
      </trkpt>
    </trkseg>
  </trk>
</gpx>